<?xml version="1.0" encoding="UTF-8" standalone="no" ?>
<gpx xmlns="http://www.topografix.com/GPX/1/1" xmlns:xsi="http://www.w3.org/2001/XMLSchema-instance" xsi:schemaLocation="http://www.topografix.com/GPX/1/1 http://www.topografix.com/GPX/1/1/gpx.xsd" version="1.1" creator="VisuGPX - https://www.visugpx.com">
  <metadata>
    <name>BTTAlt800-ActivitéTerminée-J07</name>
  </metadata>
  <trk>
    <name><![CDATA[BTTAlt800-ActivitéTerminée-J07_1]]></name>
    <trkseg>
      <trkpt lat="45.88307" lon="4.51766">
        <ele>355</ele>
        <time>2025-09-11T07:36:41Z</time>
      </trkpt>
      <trkpt lat="45.8831" lon="4.5177">
        <ele>354.6</ele>
        <time>2025-09-11T07:36:42Z</time>
      </trkpt>
      <trkpt lat="45.88313" lon="4.51773">
        <ele>354.6</ele>
        <time>2025-09-11T07:36:43Z</time>
      </trkpt>
      <trkpt lat="45.88319" lon="4.51772">
        <ele>354.2</ele>
        <time>2025-09-11T07:36:44Z</time>
      </trkpt>
      <trkpt lat="45.88322" lon="4.51775">
        <ele>353.8</ele>
        <time>2025-09-11T07:36:45Z</time>
      </trkpt>
      <trkpt lat="45.88326" lon="4.51776">
        <ele>353.4</ele>
        <time>2025-09-11T07:36:46Z</time>
      </trkpt>
      <trkpt lat="45.88329" lon="4.51781">
        <ele>353</ele>
        <time>2025-09-11T07:36:47Z</time>
      </trkpt>
      <trkpt lat="45.88332" lon="4.51784">
        <ele>353.4</ele>
        <time>2025-09-11T07:36:48Z</time>
      </trkpt>
      <trkpt lat="45.88335" lon="4.51788">
        <ele>353.4</ele>
        <time>2025-09-11T07:36:49Z</time>
      </trkpt>
      <trkpt lat="45.88337" lon="4.51792">
        <ele>353</ele>
        <time>2025-09-11T07:36:50Z</time>
      </trkpt>
      <trkpt lat="45.8834" lon="4.51796">
        <ele>353</ele>
        <time>2025-09-11T07:36:51Z</time>
      </trkpt>
      <trkpt lat="45.88343" lon="4.518">
        <ele>353</ele>
        <time>2025-09-11T07:36:52Z</time>
      </trkpt>
      <trkpt lat="45.88346" lon="4.51804">
        <ele>352.6</ele>
        <time>2025-09-11T07:36:53Z</time>
      </trkpt>
      <trkpt lat="45.88349" lon="4.51809">
        <ele>352.4</ele>
        <time>2025-09-11T07:36:54Z</time>
      </trkpt>
      <trkpt lat="45.88353" lon="4.51813">
        <ele>352.4</ele>
        <time>2025-09-11T07:36:55Z</time>
      </trkpt>
      <trkpt lat="45.88355" lon="4.51817">
        <ele>352.2</ele>
        <time>2025-09-11T07:36:56Z</time>
      </trkpt>
      <trkpt lat="45.88356" lon="4.5182">
        <ele>352.2</ele>
        <time>2025-09-11T07:36:57Z</time>
      </trkpt>
      <trkpt lat="45.88356" lon="4.51825">
        <ele>352</ele>
        <time>2025-09-11T07:36:58Z</time>
      </trkpt>
      <trkpt lat="45.88357" lon="4.51828">
        <ele>351.8</ele>
        <time>2025-09-11T07:36:59Z</time>
      </trkpt>
      <trkpt lat="45.88355" lon="4.51833">
        <ele>351.8</ele>
        <time>2025-09-11T07:37:00Z</time>
      </trkpt>
      <trkpt lat="45.88355" lon="4.51837">
        <ele>351.8</ele>
        <time>2025-09-11T07:37:01Z</time>
      </trkpt>
      <trkpt lat="45.88356" lon="4.51842">
        <ele>351.4</ele>
        <time>2025-09-11T07:37:02Z</time>
      </trkpt>
      <trkpt lat="45.88356" lon="4.51846">
        <ele>351.4</ele>
        <time>2025-09-11T07:37:03Z</time>
      </trkpt>
      <trkpt lat="45.88356" lon="4.51851">
        <ele>351.2</ele>
        <time>2025-09-11T07:37:04Z</time>
      </trkpt>
      <trkpt lat="45.88356" lon="4.51856">
        <ele>351.2</ele>
        <time>2025-09-11T07:37:05Z</time>
      </trkpt>
      <trkpt lat="45.88356" lon="4.51861">
        <ele>351.2</ele>
        <time>2025-09-11T07:37:06Z</time>
      </trkpt>
      <trkpt lat="45.88356" lon="4.51865">
        <ele>351.4</ele>
        <time>2025-09-11T07:37:07Z</time>
      </trkpt>
      <trkpt lat="45.88356" lon="4.5187">
        <ele>351.2</ele>
        <time>2025-09-11T07:37:08Z</time>
      </trkpt>
      <trkpt lat="45.88356" lon="4.51875">
        <ele>351.2</ele>
        <time>2025-09-11T07:37:09Z</time>
      </trkpt>
      <trkpt lat="45.88356" lon="4.5188">
        <ele>351.2</ele>
        <time>2025-09-11T07:37:10Z</time>
      </trkpt>
      <trkpt lat="45.88356" lon="4.51885">
        <ele>351.2</ele>
        <time>2025-09-11T07:37:11Z</time>
      </trkpt>
      <trkpt lat="45.88356" lon="4.5189">
        <ele>351.2</ele>
        <time>2025-09-11T07:37:12Z</time>
      </trkpt>
      <trkpt lat="45.88356" lon="4.51895">
        <ele>351.2</ele>
        <time>2025-09-11T07:37:13Z</time>
      </trkpt>
      <trkpt lat="45.88356" lon="4.519">
        <ele>351</ele>
        <time>2025-09-11T07:37:14Z</time>
      </trkpt>
      <trkpt lat="45.88357" lon="4.51905">
        <ele>351</ele>
        <time>2025-09-11T07:37:15Z</time>
      </trkpt>
      <trkpt lat="45.88357" lon="4.5191">
        <ele>351.4</ele>
        <time>2025-09-11T07:37:16Z</time>
      </trkpt>
      <trkpt lat="45.88357" lon="4.51915">
        <ele>350.8</ele>
        <time>2025-09-11T07:37:17Z</time>
      </trkpt>
      <trkpt lat="45.88358" lon="4.5192">
        <ele>350.4</ele>
        <time>2025-09-11T07:37:18Z</time>
      </trkpt>
      <trkpt lat="45.88358" lon="4.51924">
        <ele>351.4</ele>
        <time>2025-09-11T07:37:19Z</time>
      </trkpt>
      <trkpt lat="45.88358" lon="4.51929">
        <ele>351.8</ele>
        <time>2025-09-11T07:37:20Z</time>
      </trkpt>
      <trkpt lat="45.88358" lon="4.51933">
        <ele>351.8</ele>
        <time>2025-09-11T07:37:21Z</time>
      </trkpt>
      <trkpt lat="45.88358" lon="4.51938">
        <ele>352</ele>
        <time>2025-09-11T07:37:22Z</time>
      </trkpt>
      <trkpt lat="45.88357" lon="4.51943">
        <ele>352</ele>
        <time>2025-09-11T07:37:23Z</time>
      </trkpt>
      <trkpt lat="45.88357" lon="4.51947">
        <ele>352.6</ele>
        <time>2025-09-11T07:37:24Z</time>
      </trkpt>
      <trkpt lat="45.88357" lon="4.51951">
        <ele>352.8</ele>
        <time>2025-09-11T07:37:25Z</time>
      </trkpt>
      <trkpt lat="45.88358" lon="4.51955">
        <ele>352.8</ele>
        <time>2025-09-11T07:37:26Z</time>
      </trkpt>
      <trkpt lat="45.88358" lon="4.5196">
        <ele>352.8</ele>
        <time>2025-09-11T07:37:27Z</time>
      </trkpt>
      <trkpt lat="45.88358" lon="4.51964">
        <ele>352.8</ele>
        <time>2025-09-11T07:37:28Z</time>
      </trkpt>
      <trkpt lat="45.88359" lon="4.51968">
        <ele>352.8</ele>
        <time>2025-09-11T07:37:29Z</time>
      </trkpt>
      <trkpt lat="45.88359" lon="4.51973">
        <ele>352.8</ele>
        <time>2025-09-11T07:37:30Z</time>
      </trkpt>
      <trkpt lat="45.88359" lon="4.51978">
        <ele>353.6</ele>
        <time>2025-09-11T07:37:31Z</time>
      </trkpt>
      <trkpt lat="45.8836" lon="4.51983">
        <ele>353.6</ele>
        <time>2025-09-11T07:37:32Z</time>
      </trkpt>
      <trkpt lat="45.8836" lon="4.51988">
        <ele>353.6</ele>
        <time>2025-09-11T07:37:33Z</time>
      </trkpt>
      <trkpt lat="45.88361" lon="4.51993">
        <ele>353.2</ele>
        <time>2025-09-11T07:37:34Z</time>
      </trkpt>
      <trkpt lat="45.88362" lon="4.51999">
        <ele>353.2</ele>
        <time>2025-09-11T07:37:35Z</time>
      </trkpt>
      <trkpt lat="45.88364" lon="4.52005">
        <ele>353.2</ele>
        <time>2025-09-11T07:37:36Z</time>
      </trkpt>
      <trkpt lat="45.88364" lon="4.52012">
        <ele>353.4</ele>
        <time>2025-09-11T07:37:37Z</time>
      </trkpt>
      <trkpt lat="45.88365" lon="4.52019">
        <ele>352.8</ele>
        <time>2025-09-11T07:37:38Z</time>
      </trkpt>
      <trkpt lat="45.88366" lon="4.52028">
        <ele>352.4</ele>
        <time>2025-09-11T07:37:39Z</time>
      </trkpt>
      <trkpt lat="45.88367" lon="4.52035">
        <ele>352</ele>
        <time>2025-09-11T07:37:40Z</time>
      </trkpt>
      <trkpt lat="45.88369" lon="4.52044">
        <ele>351.6</ele>
        <time>2025-09-11T07:37:41Z</time>
      </trkpt>
      <trkpt lat="45.8837" lon="4.52052">
        <ele>351.6</ele>
        <time>2025-09-11T07:37:42Z</time>
      </trkpt>
      <trkpt lat="45.88372" lon="4.52061">
        <ele>351.4</ele>
        <time>2025-09-11T07:37:43Z</time>
      </trkpt>
      <trkpt lat="45.88375" lon="4.5207">
        <ele>351.4</ele>
        <time>2025-09-11T07:37:44Z</time>
      </trkpt>
      <trkpt lat="45.88377" lon="4.5208">
        <ele>350.8</ele>
        <time>2025-09-11T07:37:45Z</time>
      </trkpt>
      <trkpt lat="45.88379" lon="4.52088">
        <ele>350</ele>
        <time>2025-09-11T07:37:46Z</time>
      </trkpt>
      <trkpt lat="45.88382" lon="4.52096">
        <ele>350</ele>
        <time>2025-09-11T07:37:47Z</time>
      </trkpt>
      <trkpt lat="45.88384" lon="4.52104">
        <ele>349.8</ele>
        <time>2025-09-11T07:37:48Z</time>
      </trkpt>
      <trkpt lat="45.88387" lon="4.52111">
        <ele>349.6</ele>
        <time>2025-09-11T07:37:49Z</time>
      </trkpt>
      <trkpt lat="45.88389" lon="4.5212">
        <ele>349</ele>
        <time>2025-09-11T07:37:50Z</time>
      </trkpt>
      <trkpt lat="45.88391" lon="4.52126">
        <ele>349</ele>
        <time>2025-09-11T07:37:51Z</time>
      </trkpt>
      <trkpt lat="45.88393" lon="4.52132">
        <ele>348.6</ele>
        <time>2025-09-11T07:37:52Z</time>
      </trkpt>
      <trkpt lat="45.88396" lon="4.52138">
        <ele>348.2</ele>
        <time>2025-09-11T07:37:53Z</time>
      </trkpt>
      <trkpt lat="45.88397" lon="4.52144">
        <ele>347.6</ele>
        <time>2025-09-11T07:37:54Z</time>
      </trkpt>
      <trkpt lat="45.88398" lon="4.5215">
        <ele>347.6</ele>
        <time>2025-09-11T07:37:55Z</time>
      </trkpt>
      <trkpt lat="45.88399" lon="4.52157">
        <ele>347.4</ele>
        <time>2025-09-11T07:37:56Z</time>
      </trkpt>
      <trkpt lat="45.88401" lon="4.52163">
        <ele>347</ele>
        <time>2025-09-11T07:37:57Z</time>
      </trkpt>
      <trkpt lat="45.88402" lon="4.52169">
        <ele>347</ele>
        <time>2025-09-11T07:37:58Z</time>
      </trkpt>
      <trkpt lat="45.88403" lon="4.52173">
        <ele>346.8</ele>
        <time>2025-09-11T07:37:59Z</time>
      </trkpt>
      <trkpt lat="45.88404" lon="4.52177">
        <ele>346.8</ele>
        <time>2025-09-11T07:38:00Z</time>
      </trkpt>
      <trkpt lat="45.88404" lon="4.5218">
        <ele>346</ele>
        <time>2025-09-11T07:38:01Z</time>
      </trkpt>
      <trkpt lat="45.88404" lon="4.52181">
        <ele>346.8</ele>
        <time>2025-09-11T07:38:02Z</time>
      </trkpt>
      <trkpt lat="45.88404" lon="4.52183">
        <ele>346.8</ele>
        <time>2025-09-11T07:38:03Z</time>
      </trkpt>
      <trkpt lat="45.88403" lon="4.52186">
        <ele>346.2</ele>
        <time>2025-09-11T07:38:04Z</time>
      </trkpt>
      <trkpt lat="45.88403" lon="4.5219">
        <ele>346.8</ele>
        <time>2025-09-11T07:38:05Z</time>
      </trkpt>
      <trkpt lat="45.88404" lon="4.52194">
        <ele>346.8</ele>
        <time>2025-09-11T07:38:06Z</time>
      </trkpt>
      <trkpt lat="45.88404" lon="4.52199">
        <ele>346.6</ele>
        <time>2025-09-11T07:38:07Z</time>
      </trkpt>
      <trkpt lat="45.88404" lon="4.52204">
        <ele>346.6</ele>
        <time>2025-09-11T07:38:08Z</time>
      </trkpt>
      <trkpt lat="45.88404" lon="4.5221">
        <ele>346.6</ele>
        <time>2025-09-11T07:38:09Z</time>
      </trkpt>
      <trkpt lat="45.88405" lon="4.52217">
        <ele>346</ele>
        <time>2025-09-11T07:38:10Z</time>
      </trkpt>
      <trkpt lat="45.88405" lon="4.52224">
        <ele>345.6</ele>
        <time>2025-09-11T07:38:11Z</time>
      </trkpt>
      <trkpt lat="45.88405" lon="4.52231">
        <ele>345.6</ele>
        <time>2025-09-11T07:38:12Z</time>
      </trkpt>
      <trkpt lat="45.88406" lon="4.52238">
        <ele>345.6</ele>
        <time>2025-09-11T07:38:13Z</time>
      </trkpt>
      <trkpt lat="45.88407" lon="4.52244">
        <ele>346</ele>
        <time>2025-09-11T07:38:14Z</time>
      </trkpt>
      <trkpt lat="45.88408" lon="4.52251">
        <ele>345.8</ele>
        <time>2025-09-11T07:38:15Z</time>
      </trkpt>
      <trkpt lat="45.88409" lon="4.52258">
        <ele>345.2</ele>
        <time>2025-09-11T07:38:16Z</time>
      </trkpt>
      <trkpt lat="45.8841" lon="4.52265">
        <ele>345.2</ele>
        <time>2025-09-11T07:38:17Z</time>
      </trkpt>
      <trkpt lat="45.88413" lon="4.52273">
        <ele>345</ele>
        <time>2025-09-11T07:38:18Z</time>
      </trkpt>
      <trkpt lat="45.88414" lon="4.5228">
        <ele>344.6</ele>
        <time>2025-09-11T07:38:19Z</time>
      </trkpt>
      <trkpt lat="45.88416" lon="4.52288">
        <ele>344.6</ele>
        <time>2025-09-11T07:38:20Z</time>
      </trkpt>
      <trkpt lat="45.88416" lon="4.52296">
        <ele>344.8</ele>
        <time>2025-09-11T07:38:21Z</time>
      </trkpt>
      <trkpt lat="45.88417" lon="4.52303">
        <ele>344.8</ele>
        <time>2025-09-11T07:38:22Z</time>
      </trkpt>
      <trkpt lat="45.88416" lon="4.5231">
        <ele>344.8</ele>
        <time>2025-09-11T07:38:23Z</time>
      </trkpt>
      <trkpt lat="45.88415" lon="4.52316">
        <ele>344.8</ele>
        <time>2025-09-11T07:38:24Z</time>
      </trkpt>
      <trkpt lat="45.88415" lon="4.52323">
        <ele>344.8</ele>
        <time>2025-09-11T07:38:25Z</time>
      </trkpt>
      <trkpt lat="45.88413" lon="4.52328">
        <ele>344.8</ele>
        <time>2025-09-11T07:38:26Z</time>
      </trkpt>
      <trkpt lat="45.88412" lon="4.52333">
        <ele>345.2</ele>
        <time>2025-09-11T07:38:27Z</time>
      </trkpt>
      <trkpt lat="45.8841" lon="4.52339">
        <ele>345.4</ele>
        <time>2025-09-11T07:38:28Z</time>
      </trkpt>
      <trkpt lat="45.88409" lon="4.52344">
        <ele>345.6</ele>
        <time>2025-09-11T07:38:29Z</time>
      </trkpt>
      <trkpt lat="45.88409" lon="4.52349">
        <ele>346</ele>
        <time>2025-09-11T07:38:30Z</time>
      </trkpt>
      <trkpt lat="45.88408" lon="4.52354">
        <ele>346.4</ele>
        <time>2025-09-11T07:38:31Z</time>
      </trkpt>
      <trkpt lat="45.88407" lon="4.52359">
        <ele>346.8</ele>
        <time>2025-09-11T07:38:32Z</time>
      </trkpt>
      <trkpt lat="45.88407" lon="4.52363">
        <ele>347</ele>
        <time>2025-09-11T07:38:33Z</time>
      </trkpt>
      <trkpt lat="45.88406" lon="4.52366">
        <ele>347.4</ele>
        <time>2025-09-11T07:38:34Z</time>
      </trkpt>
      <trkpt lat="45.88406" lon="4.5237">
        <ele>347.4</ele>
        <time>2025-09-11T07:38:35Z</time>
      </trkpt>
      <trkpt lat="45.88406" lon="4.52373">
        <ele>347.8</ele>
        <time>2025-09-11T07:38:36Z</time>
      </trkpt>
      <trkpt lat="45.88406" lon="4.52376">
        <ele>348</ele>
        <time>2025-09-11T07:38:37Z</time>
      </trkpt>
      <trkpt lat="45.88407" lon="4.52378">
        <ele>348.2</ele>
        <time>2025-09-11T07:38:38Z</time>
      </trkpt>
      <trkpt lat="45.88407" lon="4.5238">
        <ele>348.2</ele>
        <time>2025-09-11T07:38:39Z</time>
      </trkpt>
      <trkpt lat="45.88407" lon="4.52382">
        <ele>348.2</ele>
        <time>2025-09-11T07:38:40Z</time>
      </trkpt>
      <trkpt lat="45.88407" lon="4.52385">
        <ele>348.6</ele>
        <time>2025-09-11T07:38:41Z</time>
      </trkpt>
      <trkpt lat="45.88407" lon="4.52387">
        <ele>348.6</ele>
        <time>2025-09-11T07:38:42Z</time>
      </trkpt>
      <trkpt lat="45.88407" lon="4.52389">
        <ele>348.8</ele>
        <time>2025-09-11T07:38:43Z</time>
      </trkpt>
      <trkpt lat="45.88407" lon="4.52391">
        <ele>348.8</ele>
        <time>2025-09-11T07:38:44Z</time>
      </trkpt>
      <trkpt lat="45.88407" lon="4.52391">
        <ele>349.2</ele>
        <time>2025-09-11T07:38:45Z</time>
      </trkpt>
      <trkpt lat="45.88407" lon="4.52391">
        <ele>349.4</ele>
        <time>2025-09-11T07:38:46Z</time>
      </trkpt>
      <trkpt lat="45.88406" lon="4.52402">
        <ele>349.4</ele>
        <time>2025-09-11T07:38:47Z</time>
      </trkpt>
      <trkpt lat="45.88406" lon="4.52405">
        <ele>349.8</ele>
        <time>2025-09-11T07:38:48Z</time>
      </trkpt>
      <trkpt lat="45.88406" lon="4.52408">
        <ele>349.8</ele>
        <time>2025-09-11T07:38:49Z</time>
      </trkpt>
      <trkpt lat="45.88406" lon="4.52411">
        <ele>350.2</ele>
        <time>2025-09-11T07:38:50Z</time>
      </trkpt>
      <trkpt lat="45.88406" lon="4.52414">
        <ele>350.4</ele>
        <time>2025-09-11T07:38:51Z</time>
      </trkpt>
      <trkpt lat="45.88406" lon="4.52417">
        <ele>350.4</ele>
        <time>2025-09-11T07:38:52Z</time>
      </trkpt>
      <trkpt lat="45.88406" lon="4.5242">
        <ele>350.4</ele>
        <time>2025-09-11T07:38:53Z</time>
      </trkpt>
      <trkpt lat="45.88406" lon="4.52422">
        <ele>350.8</ele>
        <time>2025-09-11T07:38:54Z</time>
      </trkpt>
      <trkpt lat="45.88407" lon="4.52425">
        <ele>350.8</ele>
        <time>2025-09-11T07:38:55Z</time>
      </trkpt>
      <trkpt lat="45.88407" lon="4.52427">
        <ele>351</ele>
        <time>2025-09-11T07:38:56Z</time>
      </trkpt>
      <trkpt lat="45.88407" lon="4.5243">
        <ele>351</ele>
        <time>2025-09-11T07:38:57Z</time>
      </trkpt>
      <trkpt lat="45.88407" lon="4.52432">
        <ele>351.4</ele>
        <time>2025-09-11T07:38:58Z</time>
      </trkpt>
      <trkpt lat="45.88407" lon="4.52435">
        <ele>351.4</ele>
        <time>2025-09-11T07:38:59Z</time>
      </trkpt>
      <trkpt lat="45.88407" lon="4.52437">
        <ele>351.4</ele>
        <time>2025-09-11T07:39:00Z</time>
      </trkpt>
      <trkpt lat="45.88407" lon="4.5244">
        <ele>351.8</ele>
        <time>2025-09-11T07:39:01Z</time>
      </trkpt>
      <trkpt lat="45.88407" lon="4.52442">
        <ele>352</ele>
        <time>2025-09-11T07:39:02Z</time>
      </trkpt>
      <trkpt lat="45.88407" lon="4.52445">
        <ele>352</ele>
        <time>2025-09-11T07:39:03Z</time>
      </trkpt>
      <trkpt lat="45.88407" lon="4.52447">
        <ele>352.2</ele>
        <time>2025-09-11T07:39:04Z</time>
      </trkpt>
      <trkpt lat="45.88407" lon="4.52449">
        <ele>352.2</ele>
        <time>2025-09-11T07:39:05Z</time>
      </trkpt>
      <trkpt lat="45.88407" lon="4.52452">
        <ele>352.6</ele>
        <time>2025-09-11T07:39:06Z</time>
      </trkpt>
      <trkpt lat="45.88407" lon="4.52455">
        <ele>352.6</ele>
        <time>2025-09-11T07:39:07Z</time>
      </trkpt>
      <trkpt lat="45.88408" lon="4.52457">
        <ele>352.6</ele>
        <time>2025-09-11T07:39:08Z</time>
      </trkpt>
      <trkpt lat="45.88408" lon="4.5246">
        <ele>352.8</ele>
        <time>2025-09-11T07:39:09Z</time>
      </trkpt>
      <trkpt lat="45.88408" lon="4.52463">
        <ele>352.8</ele>
        <time>2025-09-11T07:39:10Z</time>
      </trkpt>
      <trkpt lat="45.88408" lon="4.52465">
        <ele>352.8</ele>
        <time>2025-09-11T07:39:11Z</time>
      </trkpt>
      <trkpt lat="45.88408" lon="4.52468">
        <ele>353.2</ele>
        <time>2025-09-11T07:39:12Z</time>
      </trkpt>
      <trkpt lat="45.88408" lon="4.52471">
        <ele>353.2</ele>
        <time>2025-09-11T07:39:13Z</time>
      </trkpt>
      <trkpt lat="45.88409" lon="4.52473">
        <ele>353.4</ele>
        <time>2025-09-11T07:39:14Z</time>
      </trkpt>
      <trkpt lat="45.88409" lon="4.52476">
        <ele>353.6</ele>
        <time>2025-09-11T07:39:15Z</time>
      </trkpt>
      <trkpt lat="45.88409" lon="4.52479">
        <ele>353.6</ele>
        <time>2025-09-11T07:39:16Z</time>
      </trkpt>
      <trkpt lat="45.88409" lon="4.52481">
        <ele>354</ele>
        <time>2025-09-11T07:39:17Z</time>
      </trkpt>
      <trkpt lat="45.88409" lon="4.52484">
        <ele>354.2</ele>
        <time>2025-09-11T07:39:18Z</time>
      </trkpt>
      <trkpt lat="45.88409" lon="4.52486">
        <ele>354.4</ele>
        <time>2025-09-11T07:39:19Z</time>
      </trkpt>
      <trkpt lat="45.88409" lon="4.52489">
        <ele>354.4</ele>
        <time>2025-09-11T07:39:20Z</time>
      </trkpt>
      <trkpt lat="45.88409" lon="4.52492">
        <ele>354.8</ele>
        <time>2025-09-11T07:39:21Z</time>
      </trkpt>
      <trkpt lat="45.88408" lon="4.52495">
        <ele>354.8</ele>
        <time>2025-09-11T07:39:22Z</time>
      </trkpt>
      <trkpt lat="45.88408" lon="4.52495">
        <ele>355</ele>
        <time>2025-09-11T07:39:23Z</time>
      </trkpt>
      <trkpt lat="45.88408" lon="4.525">
        <ele>355</ele>
        <time>2025-09-11T07:39:24Z</time>
      </trkpt>
      <trkpt lat="45.88408" lon="4.525">
        <ele>355</ele>
        <time>2025-09-11T07:39:25Z</time>
      </trkpt>
      <trkpt lat="45.88407" lon="4.52503">
        <ele>355</ele>
        <time>2025-09-11T07:39:26Z</time>
      </trkpt>
      <trkpt lat="45.88407" lon="4.52506">
        <ele>355</ele>
        <time>2025-09-11T07:39:27Z</time>
      </trkpt>
      <trkpt lat="45.88406" lon="4.52509">
        <ele>355</ele>
        <time>2025-09-11T07:39:28Z</time>
      </trkpt>
      <trkpt lat="45.88405" lon="4.52512">
        <ele>355.2</ele>
        <time>2025-09-11T07:39:29Z</time>
      </trkpt>
      <trkpt lat="45.88404" lon="4.52515">
        <ele>355.6</ele>
        <time>2025-09-11T07:39:30Z</time>
      </trkpt>
      <trkpt lat="45.88403" lon="4.52518">
        <ele>355.6</ele>
        <time>2025-09-11T07:39:31Z</time>
      </trkpt>
      <trkpt lat="45.88402" lon="4.52522">
        <ele>355.6</ele>
        <time>2025-09-11T07:39:32Z</time>
      </trkpt>
      <trkpt lat="45.88401" lon="4.52526">
        <ele>355.6</ele>
        <time>2025-09-11T07:39:33Z</time>
      </trkpt>
      <trkpt lat="45.884" lon="4.5253">
        <ele>355.6</ele>
        <time>2025-09-11T07:39:34Z</time>
      </trkpt>
      <trkpt lat="45.88398" lon="4.52534">
        <ele>355.4</ele>
        <time>2025-09-11T07:39:35Z</time>
      </trkpt>
      <trkpt lat="45.88397" lon="4.52539">
        <ele>355.2</ele>
        <time>2025-09-11T07:39:36Z</time>
      </trkpt>
      <trkpt lat="45.88395" lon="4.52543">
        <ele>355.2</ele>
        <time>2025-09-11T07:39:37Z</time>
      </trkpt>
      <trkpt lat="45.88394" lon="4.52547">
        <ele>355.2</ele>
        <time>2025-09-11T07:39:38Z</time>
      </trkpt>
      <trkpt lat="45.88392" lon="4.52552">
        <ele>355.4</ele>
        <time>2025-09-11T07:39:39Z</time>
      </trkpt>
      <trkpt lat="45.8839" lon="4.52556">
        <ele>355.4</ele>
        <time>2025-09-11T07:39:40Z</time>
      </trkpt>
      <trkpt lat="45.88387" lon="4.52561">
        <ele>355.4</ele>
        <time>2025-09-11T07:39:41Z</time>
      </trkpt>
      <trkpt lat="45.88385" lon="4.52566">
        <ele>355.4</ele>
        <time>2025-09-11T07:39:42Z</time>
      </trkpt>
      <trkpt lat="45.88383" lon="4.5257">
        <ele>355.4</ele>
        <time>2025-09-11T07:39:43Z</time>
      </trkpt>
      <trkpt lat="45.88381" lon="4.52575">
        <ele>355.4</ele>
        <time>2025-09-11T07:39:44Z</time>
      </trkpt>
      <trkpt lat="45.88379" lon="4.5258">
        <ele>355.4</ele>
        <time>2025-09-11T07:39:45Z</time>
      </trkpt>
      <trkpt lat="45.88378" lon="4.52583">
        <ele>355.4</ele>
        <time>2025-09-11T07:39:46Z</time>
      </trkpt>
      <trkpt lat="45.88377" lon="4.52585">
        <ele>355.4</ele>
        <time>2025-09-11T07:39:47Z</time>
      </trkpt>
      <trkpt lat="45.88376" lon="4.52586">
        <ele>355.4</ele>
        <time>2025-09-11T07:39:48Z</time>
      </trkpt>
      <trkpt lat="45.88376" lon="4.52588">
        <ele>355.4</ele>
        <time>2025-09-11T07:39:49Z</time>
      </trkpt>
      <trkpt lat="45.88375" lon="4.52589">
        <ele>355.4</ele>
        <time>2025-09-11T07:39:50Z</time>
      </trkpt>
      <trkpt lat="45.88375" lon="4.5259">
        <ele>355.4</ele>
        <time>2025-09-11T07:39:51Z</time>
      </trkpt>
      <trkpt lat="45.88374" lon="4.5259">
        <ele>355.4</ele>
        <time>2025-09-11T07:39:52Z</time>
      </trkpt>
      <trkpt lat="45.88372" lon="4.52591">
        <ele>355</ele>
        <time>2025-09-11T07:41:46Z</time>
      </trkpt>
      <trkpt lat="45.88372" lon="4.52593">
        <ele>355</ele>
        <time>2025-09-11T07:41:47Z</time>
      </trkpt>
      <trkpt lat="45.88371" lon="4.52596">
        <ele>355</ele>
        <time>2025-09-11T07:41:48Z</time>
      </trkpt>
      <trkpt lat="45.88369" lon="4.526">
        <ele>355</ele>
        <time>2025-09-11T07:41:49Z</time>
      </trkpt>
      <trkpt lat="45.88368" lon="4.52603">
        <ele>355</ele>
        <time>2025-09-11T07:41:50Z</time>
      </trkpt>
      <trkpt lat="45.88367" lon="4.52607">
        <ele>354.8</ele>
        <time>2025-09-11T07:41:51Z</time>
      </trkpt>
      <trkpt lat="45.88365" lon="4.52612">
        <ele>354.8</ele>
        <time>2025-09-11T07:41:52Z</time>
      </trkpt>
      <trkpt lat="45.88363" lon="4.52616">
        <ele>354.8</ele>
        <time>2025-09-11T07:41:53Z</time>
      </trkpt>
      <trkpt lat="45.88361" lon="4.52621">
        <ele>354.8</ele>
        <time>2025-09-11T07:41:54Z</time>
      </trkpt>
      <trkpt lat="45.88358" lon="4.52626">
        <ele>354.8</ele>
        <time>2025-09-11T07:41:55Z</time>
      </trkpt>
      <trkpt lat="45.88355" lon="4.52631">
        <ele>354.8</ele>
        <time>2025-09-11T07:41:56Z</time>
      </trkpt>
      <trkpt lat="45.88352" lon="4.52637">
        <ele>354.8</ele>
        <time>2025-09-11T07:41:57Z</time>
      </trkpt>
      <trkpt lat="45.8835" lon="4.52642">
        <ele>354.8</ele>
        <time>2025-09-11T07:41:58Z</time>
      </trkpt>
      <trkpt lat="45.88348" lon="4.52648">
        <ele>354.8</ele>
        <time>2025-09-11T07:41:59Z</time>
      </trkpt>
      <trkpt lat="45.88346" lon="4.52655">
        <ele>354.8</ele>
        <time>2025-09-11T07:42:00Z</time>
      </trkpt>
      <trkpt lat="45.88344" lon="4.52663">
        <ele>354.8</ele>
        <time>2025-09-11T07:42:01Z</time>
      </trkpt>
      <trkpt lat="45.88343" lon="4.5267">
        <ele>354.8</ele>
        <time>2025-09-11T07:42:02Z</time>
      </trkpt>
      <trkpt lat="45.88342" lon="4.52678">
        <ele>354.8</ele>
        <time>2025-09-11T07:42:03Z</time>
      </trkpt>
      <trkpt lat="45.88341" lon="4.52685">
        <ele>354.6</ele>
        <time>2025-09-11T07:42:04Z</time>
      </trkpt>
      <trkpt lat="45.8834" lon="4.52692">
        <ele>354.6</ele>
        <time>2025-09-11T07:42:05Z</time>
      </trkpt>
      <trkpt lat="45.88339" lon="4.527">
        <ele>354.6</ele>
        <time>2025-09-11T07:42:06Z</time>
      </trkpt>
      <trkpt lat="45.88339" lon="4.52707">
        <ele>354</ele>
        <time>2025-09-11T07:42:07Z</time>
      </trkpt>
      <trkpt lat="45.88338" lon="4.52714">
        <ele>354</ele>
        <time>2025-09-11T07:42:08Z</time>
      </trkpt>
      <trkpt lat="45.88337" lon="4.5272">
        <ele>353.8</ele>
        <time>2025-09-11T07:42:09Z</time>
      </trkpt>
      <trkpt lat="45.88336" lon="4.52727">
        <ele>354</ele>
        <time>2025-09-11T07:42:10Z</time>
      </trkpt>
      <trkpt lat="45.88336" lon="4.52733">
        <ele>354</ele>
        <time>2025-09-11T07:42:11Z</time>
      </trkpt>
      <trkpt lat="45.88335" lon="4.52739">
        <ele>354</ele>
        <time>2025-09-11T07:42:12Z</time>
      </trkpt>
      <trkpt lat="45.88334" lon="4.52746">
        <ele>354</ele>
        <time>2025-09-11T07:42:13Z</time>
      </trkpt>
      <trkpt lat="45.88334" lon="4.52753">
        <ele>354</ele>
        <time>2025-09-11T07:42:14Z</time>
      </trkpt>
      <trkpt lat="45.88333" lon="4.5276">
        <ele>353.8</ele>
        <time>2025-09-11T07:42:15Z</time>
      </trkpt>
      <trkpt lat="45.88332" lon="4.52766">
        <ele>353.8</ele>
        <time>2025-09-11T07:42:16Z</time>
      </trkpt>
      <trkpt lat="45.88332" lon="4.52774">
        <ele>353.6</ele>
        <time>2025-09-11T07:42:17Z</time>
      </trkpt>
      <trkpt lat="45.88331" lon="4.5278">
        <ele>353.8</ele>
        <time>2025-09-11T07:42:18Z</time>
      </trkpt>
      <trkpt lat="45.8833" lon="4.52787">
        <ele>354.2</ele>
        <time>2025-09-11T07:42:19Z</time>
      </trkpt>
      <trkpt lat="45.88329" lon="4.52794">
        <ele>354.2</ele>
        <time>2025-09-11T07:42:20Z</time>
      </trkpt>
      <trkpt lat="45.88328" lon="4.528">
        <ele>354.2</ele>
        <time>2025-09-11T07:42:21Z</time>
      </trkpt>
      <trkpt lat="45.88328" lon="4.52806">
        <ele>353.4</ele>
        <time>2025-09-11T07:42:22Z</time>
      </trkpt>
      <trkpt lat="45.88327" lon="4.52813">
        <ele>353.4</ele>
        <time>2025-09-11T07:42:23Z</time>
      </trkpt>
      <trkpt lat="45.88327" lon="4.52821">
        <ele>353.4</ele>
        <time>2025-09-11T07:42:24Z</time>
      </trkpt>
      <trkpt lat="45.88327" lon="4.52827">
        <ele>353</ele>
        <time>2025-09-11T07:42:25Z</time>
      </trkpt>
      <trkpt lat="45.88326" lon="4.52834">
        <ele>353.4</ele>
        <time>2025-09-11T07:42:26Z</time>
      </trkpt>
      <trkpt lat="45.88326" lon="4.52841">
        <ele>353.4</ele>
        <time>2025-09-11T07:42:27Z</time>
      </trkpt>
      <trkpt lat="45.88325" lon="4.52847">
        <ele>353.4</ele>
        <time>2025-09-11T07:42:28Z</time>
      </trkpt>
      <trkpt lat="45.88324" lon="4.52854">
        <ele>353.4</ele>
        <time>2025-09-11T07:42:29Z</time>
      </trkpt>
      <trkpt lat="45.88323" lon="4.5286">
        <ele>353.4</ele>
        <time>2025-09-11T07:42:30Z</time>
      </trkpt>
      <trkpt lat="45.88323" lon="4.52867">
        <ele>353.4</ele>
        <time>2025-09-11T07:42:31Z</time>
      </trkpt>
      <trkpt lat="45.88322" lon="4.52874">
        <ele>353.4</ele>
        <time>2025-09-11T07:42:32Z</time>
      </trkpt>
      <trkpt lat="45.88321" lon="4.52881">
        <ele>353.4</ele>
        <time>2025-09-11T07:42:33Z</time>
      </trkpt>
      <trkpt lat="45.8832" lon="4.52889">
        <ele>353.4</ele>
        <time>2025-09-11T07:42:34Z</time>
      </trkpt>
      <trkpt lat="45.88319" lon="4.52897">
        <ele>353.4</ele>
        <time>2025-09-11T07:42:35Z</time>
      </trkpt>
      <trkpt lat="45.88318" lon="4.52905">
        <ele>353.4</ele>
        <time>2025-09-11T07:42:36Z</time>
      </trkpt>
      <trkpt lat="45.88316" lon="4.52912">
        <ele>353.4</ele>
        <time>2025-09-11T07:42:37Z</time>
      </trkpt>
      <trkpt lat="45.88315" lon="4.52919">
        <ele>353.4</ele>
        <time>2025-09-11T07:42:38Z</time>
      </trkpt>
      <trkpt lat="45.88314" lon="4.52925">
        <ele>353.2</ele>
        <time>2025-09-11T07:42:39Z</time>
      </trkpt>
      <trkpt lat="45.88313" lon="4.52933">
        <ele>353.2</ele>
        <time>2025-09-11T07:42:40Z</time>
      </trkpt>
      <trkpt lat="45.88312" lon="4.5294">
        <ele>353.2</ele>
        <time>2025-09-11T07:42:41Z</time>
      </trkpt>
      <trkpt lat="45.88311" lon="4.52948">
        <ele>353.2</ele>
        <time>2025-09-11T07:42:42Z</time>
      </trkpt>
      <trkpt lat="45.8831" lon="4.52956">
        <ele>353</ele>
        <time>2025-09-11T07:42:43Z</time>
      </trkpt>
      <trkpt lat="45.88309" lon="4.52963">
        <ele>353</ele>
        <time>2025-09-11T07:42:44Z</time>
      </trkpt>
      <trkpt lat="45.88307" lon="4.52971">
        <ele>353</ele>
        <time>2025-09-11T07:42:45Z</time>
      </trkpt>
      <trkpt lat="45.88306" lon="4.52978">
        <ele>353</ele>
        <time>2025-09-11T07:42:46Z</time>
      </trkpt>
      <trkpt lat="45.88306" lon="4.52987">
        <ele>353.2</ele>
        <time>2025-09-11T07:42:47Z</time>
      </trkpt>
      <trkpt lat="45.88305" lon="4.52994">
        <ele>353</ele>
        <time>2025-09-11T07:42:48Z</time>
      </trkpt>
      <trkpt lat="45.88304" lon="4.53001">
        <ele>353</ele>
        <time>2025-09-11T07:42:49Z</time>
      </trkpt>
      <trkpt lat="45.88304" lon="4.53008">
        <ele>353</ele>
        <time>2025-09-11T07:42:50Z</time>
      </trkpt>
      <trkpt lat="45.88304" lon="4.53015">
        <ele>353</ele>
        <time>2025-09-11T07:42:51Z</time>
      </trkpt>
      <trkpt lat="45.88304" lon="4.53022">
        <ele>353</ele>
        <time>2025-09-11T07:42:52Z</time>
      </trkpt>
      <trkpt lat="45.88304" lon="4.53029">
        <ele>353</ele>
        <time>2025-09-11T07:42:53Z</time>
      </trkpt>
      <trkpt lat="45.88304" lon="4.53036">
        <ele>353.4</ele>
        <time>2025-09-11T07:42:54Z</time>
      </trkpt>
      <trkpt lat="45.88304" lon="4.53042">
        <ele>353.4</ele>
        <time>2025-09-11T07:42:55Z</time>
      </trkpt>
      <trkpt lat="45.88305" lon="4.53049">
        <ele>354</ele>
        <time>2025-09-11T07:42:56Z</time>
      </trkpt>
      <trkpt lat="45.88304" lon="4.53055">
        <ele>354</ele>
        <time>2025-09-11T07:42:57Z</time>
      </trkpt>
      <trkpt lat="45.88305" lon="4.53061">
        <ele>354.2</ele>
        <time>2025-09-11T07:42:58Z</time>
      </trkpt>
      <trkpt lat="45.88304" lon="4.53067">
        <ele>354.2</ele>
        <time>2025-09-11T07:42:59Z</time>
      </trkpt>
      <trkpt lat="45.88303" lon="4.53074">
        <ele>354.4</ele>
        <time>2025-09-11T07:43:00Z</time>
      </trkpt>
      <trkpt lat="45.88304" lon="4.53081">
        <ele>354.4</ele>
        <time>2025-09-11T07:43:01Z</time>
      </trkpt>
      <trkpt lat="45.88304" lon="4.53088">
        <ele>354.4</ele>
        <time>2025-09-11T07:43:02Z</time>
      </trkpt>
      <trkpt lat="45.88303" lon="4.53095">
        <ele>354.4</ele>
        <time>2025-09-11T07:43:03Z</time>
      </trkpt>
      <trkpt lat="45.88303" lon="4.53103">
        <ele>354.4</ele>
        <time>2025-09-11T07:43:04Z</time>
      </trkpt>
      <trkpt lat="45.88303" lon="4.5311">
        <ele>354.2</ele>
        <time>2025-09-11T07:43:05Z</time>
      </trkpt>
      <trkpt lat="45.88302" lon="4.53118">
        <ele>354.2</ele>
        <time>2025-09-11T07:43:06Z</time>
      </trkpt>
      <trkpt lat="45.88302" lon="4.53125">
        <ele>354.2</ele>
        <time>2025-09-11T07:43:07Z</time>
      </trkpt>
      <trkpt lat="45.88302" lon="4.53133">
        <ele>354.2</ele>
        <time>2025-09-11T07:43:08Z</time>
      </trkpt>
      <trkpt lat="45.88302" lon="4.53141">
        <ele>354.2</ele>
        <time>2025-09-11T07:43:09Z</time>
      </trkpt>
      <trkpt lat="45.88302" lon="4.53148">
        <ele>354.2</ele>
        <time>2025-09-11T07:43:10Z</time>
      </trkpt>
      <trkpt lat="45.88302" lon="4.53156">
        <ele>353.8</ele>
        <time>2025-09-11T07:43:11Z</time>
      </trkpt>
      <trkpt lat="45.88302" lon="4.53165">
        <ele>353.4</ele>
        <time>2025-09-11T07:43:12Z</time>
      </trkpt>
      <trkpt lat="45.88301" lon="4.53173">
        <ele>353.4</ele>
        <time>2025-09-11T07:43:13Z</time>
      </trkpt>
      <trkpt lat="45.88301" lon="4.5318">
        <ele>353.4</ele>
        <time>2025-09-11T07:43:14Z</time>
      </trkpt>
      <trkpt lat="45.883" lon="4.5319">
        <ele>353.4</ele>
        <time>2025-09-11T07:43:15Z</time>
      </trkpt>
      <trkpt lat="45.88298" lon="4.53199">
        <ele>353</ele>
        <time>2025-09-11T07:43:16Z</time>
      </trkpt>
      <trkpt lat="45.88297" lon="4.53209">
        <ele>352.8</ele>
        <time>2025-09-11T07:43:17Z</time>
      </trkpt>
      <trkpt lat="45.88295" lon="4.53218">
        <ele>352.8</ele>
        <time>2025-09-11T07:43:18Z</time>
      </trkpt>
      <trkpt lat="45.88293" lon="4.53227">
        <ele>352.2</ele>
        <time>2025-09-11T07:43:19Z</time>
      </trkpt>
      <trkpt lat="45.8829" lon="4.53236">
        <ele>352.2</ele>
        <time>2025-09-11T07:43:20Z</time>
      </trkpt>
      <trkpt lat="45.88288" lon="4.53245">
        <ele>351.6</ele>
        <time>2025-09-11T07:43:21Z</time>
      </trkpt>
      <trkpt lat="45.88286" lon="4.53254">
        <ele>351.4</ele>
        <time>2025-09-11T07:43:22Z</time>
      </trkpt>
      <trkpt lat="45.88283" lon="4.53264">
        <ele>351.2</ele>
        <time>2025-09-11T07:43:23Z</time>
      </trkpt>
      <trkpt lat="45.88281" lon="4.53273">
        <ele>350.8</ele>
        <time>2025-09-11T07:43:24Z</time>
      </trkpt>
      <trkpt lat="45.88279" lon="4.53283">
        <ele>350.8</ele>
        <time>2025-09-11T07:43:25Z</time>
      </trkpt>
      <trkpt lat="45.88277" lon="4.53293">
        <ele>350.8</ele>
        <time>2025-09-11T07:43:26Z</time>
      </trkpt>
      <trkpt lat="45.88275" lon="4.53303">
        <ele>350.6</ele>
        <time>2025-09-11T07:43:27Z</time>
      </trkpt>
      <trkpt lat="45.88274" lon="4.53313">
        <ele>350.6</ele>
        <time>2025-09-11T07:43:28Z</time>
      </trkpt>
      <trkpt lat="45.88272" lon="4.53324">
        <ele>350.6</ele>
        <time>2025-09-11T07:43:29Z</time>
      </trkpt>
      <trkpt lat="45.8827" lon="4.53335">
        <ele>350.2</ele>
        <time>2025-09-11T07:43:30Z</time>
      </trkpt>
      <trkpt lat="45.88268" lon="4.53345">
        <ele>349.8</ele>
        <time>2025-09-11T07:43:31Z</time>
      </trkpt>
      <trkpt lat="45.88266" lon="4.53355">
        <ele>349.4</ele>
        <time>2025-09-11T07:43:32Z</time>
      </trkpt>
      <trkpt lat="45.88264" lon="4.53366">
        <ele>348.8</ele>
        <time>2025-09-11T07:43:33Z</time>
      </trkpt>
      <trkpt lat="45.88262" lon="4.53376">
        <ele>348.4</ele>
        <time>2025-09-11T07:43:34Z</time>
      </trkpt>
      <trkpt lat="45.88261" lon="4.53386">
        <ele>347.6</ele>
        <time>2025-09-11T07:43:35Z</time>
      </trkpt>
      <trkpt lat="45.88261" lon="4.53395">
        <ele>347.6</ele>
        <time>2025-09-11T07:43:36Z</time>
      </trkpt>
      <trkpt lat="45.8826" lon="4.53405">
        <ele>347.2</ele>
        <time>2025-09-11T07:43:37Z</time>
      </trkpt>
      <trkpt lat="45.8826" lon="4.53415">
        <ele>346.8</ele>
        <time>2025-09-11T07:43:38Z</time>
      </trkpt>
      <trkpt lat="45.88261" lon="4.53425">
        <ele>347.6</ele>
        <time>2025-09-11T07:43:39Z</time>
      </trkpt>
      <trkpt lat="45.88262" lon="4.53434">
        <ele>347.2</ele>
        <time>2025-09-11T07:43:40Z</time>
      </trkpt>
      <trkpt lat="45.88264" lon="4.53444">
        <ele>346.6</ele>
        <time>2025-09-11T07:43:41Z</time>
      </trkpt>
      <trkpt lat="45.88265" lon="4.53454">
        <ele>346.2</ele>
        <time>2025-09-11T07:43:42Z</time>
      </trkpt>
      <trkpt lat="45.88268" lon="4.53462">
        <ele>345.6</ele>
        <time>2025-09-11T07:43:43Z</time>
      </trkpt>
      <trkpt lat="45.88269" lon="4.53474">
        <ele>345.2</ele>
        <time>2025-09-11T07:43:44Z</time>
      </trkpt>
      <trkpt lat="45.8827" lon="4.53484">
        <ele>345.2</ele>
        <time>2025-09-11T07:43:45Z</time>
      </trkpt>
      <trkpt lat="45.88271" lon="4.53495">
        <ele>345.6</ele>
        <time>2025-09-11T07:43:46Z</time>
      </trkpt>
      <trkpt lat="45.88271" lon="4.53505">
        <ele>345.6</ele>
        <time>2025-09-11T07:43:47Z</time>
      </trkpt>
      <trkpt lat="45.88272" lon="4.53515">
        <ele>345.2</ele>
        <time>2025-09-11T07:43:48Z</time>
      </trkpt>
      <trkpt lat="45.88273" lon="4.53525">
        <ele>344.8</ele>
        <time>2025-09-11T07:43:49Z</time>
      </trkpt>
      <trkpt lat="45.88274" lon="4.53535">
        <ele>344.8</ele>
        <time>2025-09-11T07:43:50Z</time>
      </trkpt>
      <trkpt lat="45.88274" lon="4.53546">
        <ele>344.2</ele>
        <time>2025-09-11T07:43:51Z</time>
      </trkpt>
      <trkpt lat="45.88274" lon="4.53555">
        <ele>344.2</ele>
        <time>2025-09-11T07:43:52Z</time>
      </trkpt>
      <trkpt lat="45.88274" lon="4.53565">
        <ele>344</ele>
        <time>2025-09-11T07:43:53Z</time>
      </trkpt>
      <trkpt lat="45.88272" lon="4.53573">
        <ele>344</ele>
        <time>2025-09-11T07:43:54Z</time>
      </trkpt>
      <trkpt lat="45.88272" lon="4.53582">
        <ele>344</ele>
        <time>2025-09-11T07:43:55Z</time>
      </trkpt>
      <trkpt lat="45.88273" lon="4.53591">
        <ele>344</ele>
        <time>2025-09-11T07:43:56Z</time>
      </trkpt>
      <trkpt lat="45.88275" lon="4.53599">
        <ele>344.4</ele>
        <time>2025-09-11T07:43:57Z</time>
      </trkpt>
      <trkpt lat="45.88277" lon="4.53606">
        <ele>345</ele>
        <time>2025-09-11T07:43:58Z</time>
      </trkpt>
      <trkpt lat="45.8828" lon="4.53612">
        <ele>345.2</ele>
        <time>2025-09-11T07:43:59Z</time>
      </trkpt>
      <trkpt lat="45.88283" lon="4.53618">
        <ele>345.6</ele>
        <time>2025-09-11T07:44:00Z</time>
      </trkpt>
      <trkpt lat="45.88285" lon="4.53623">
        <ele>345.6</ele>
        <time>2025-09-11T07:44:01Z</time>
      </trkpt>
      <trkpt lat="45.88288" lon="4.53628">
        <ele>346</ele>
        <time>2025-09-11T07:44:02Z</time>
      </trkpt>
      <trkpt lat="45.8829" lon="4.53633">
        <ele>346.6</ele>
        <time>2025-09-11T07:44:03Z</time>
      </trkpt>
      <trkpt lat="45.88292" lon="4.53639">
        <ele>346.6</ele>
        <time>2025-09-11T07:44:04Z</time>
      </trkpt>
      <trkpt lat="45.88294" lon="4.53644">
        <ele>346.6</ele>
        <time>2025-09-11T07:44:05Z</time>
      </trkpt>
      <trkpt lat="45.88295" lon="4.5365">
        <ele>347</ele>
        <time>2025-09-11T07:44:06Z</time>
      </trkpt>
      <trkpt lat="45.88297" lon="4.53655">
        <ele>347</ele>
        <time>2025-09-11T07:44:07Z</time>
      </trkpt>
      <trkpt lat="45.88298" lon="4.53661">
        <ele>347</ele>
        <time>2025-09-11T07:44:08Z</time>
      </trkpt>
      <trkpt lat="45.883" lon="4.53667">
        <ele>347.2</ele>
        <time>2025-09-11T07:44:09Z</time>
      </trkpt>
      <trkpt lat="45.88301" lon="4.53673">
        <ele>347.2</ele>
        <time>2025-09-11T07:44:10Z</time>
      </trkpt>
      <trkpt lat="45.88302" lon="4.53679">
        <ele>347.2</ele>
        <time>2025-09-11T07:44:11Z</time>
      </trkpt>
      <trkpt lat="45.88303" lon="4.53685">
        <ele>347.4</ele>
        <time>2025-09-11T07:44:12Z</time>
      </trkpt>
      <trkpt lat="45.88304" lon="4.53691">
        <ele>347.4</ele>
        <time>2025-09-11T07:44:13Z</time>
      </trkpt>
      <trkpt lat="45.88304" lon="4.53697">
        <ele>347</ele>
        <time>2025-09-11T07:44:14Z</time>
      </trkpt>
      <trkpt lat="45.88305" lon="4.53703">
        <ele>347.6</ele>
        <time>2025-09-11T07:44:15Z</time>
      </trkpt>
      <trkpt lat="45.88305" lon="4.53709">
        <ele>347.6</ele>
        <time>2025-09-11T07:44:16Z</time>
      </trkpt>
      <trkpt lat="45.88305" lon="4.53714">
        <ele>347.6</ele>
        <time>2025-09-11T07:44:17Z</time>
      </trkpt>
      <trkpt lat="45.88306" lon="4.5372">
        <ele>347.2</ele>
        <time>2025-09-11T07:44:18Z</time>
      </trkpt>
      <trkpt lat="45.88306" lon="4.53725">
        <ele>347.2</ele>
        <time>2025-09-11T07:44:19Z</time>
      </trkpt>
      <trkpt lat="45.88307" lon="4.5373">
        <ele>347.2</ele>
        <time>2025-09-11T07:44:20Z</time>
      </trkpt>
      <trkpt lat="45.88307" lon="4.53735">
        <ele>347.2</ele>
        <time>2025-09-11T07:44:21Z</time>
      </trkpt>
      <trkpt lat="45.88308" lon="4.5374">
        <ele>347.2</ele>
        <time>2025-09-11T07:44:22Z</time>
      </trkpt>
      <trkpt lat="45.88309" lon="4.53746">
        <ele>347.6</ele>
        <time>2025-09-11T07:44:23Z</time>
      </trkpt>
      <trkpt lat="45.8831" lon="4.53751">
        <ele>347.2</ele>
        <time>2025-09-11T07:44:24Z</time>
      </trkpt>
      <trkpt lat="45.88311" lon="4.53757">
        <ele>347.2</ele>
        <time>2025-09-11T07:44:25Z</time>
      </trkpt>
      <trkpt lat="45.88312" lon="4.53762">
        <ele>347.2</ele>
        <time>2025-09-11T07:44:26Z</time>
      </trkpt>
      <trkpt lat="45.88313" lon="4.53767">
        <ele>347.2</ele>
        <time>2025-09-11T07:44:27Z</time>
      </trkpt>
      <trkpt lat="45.88315" lon="4.53773">
        <ele>347.6</ele>
        <time>2025-09-11T07:44:28Z</time>
      </trkpt>
      <trkpt lat="45.88316" lon="4.53778">
        <ele>347.8</ele>
        <time>2025-09-11T07:44:29Z</time>
      </trkpt>
      <trkpt lat="45.88317" lon="4.53783">
        <ele>347.8</ele>
        <time>2025-09-11T07:44:30Z</time>
      </trkpt>
      <trkpt lat="45.88319" lon="4.53789">
        <ele>348.2</ele>
        <time>2025-09-11T07:44:31Z</time>
      </trkpt>
      <trkpt lat="45.8832" lon="4.53794">
        <ele>348.2</ele>
        <time>2025-09-11T07:44:32Z</time>
      </trkpt>
      <trkpt lat="45.88321" lon="4.53799">
        <ele>348.4</ele>
        <time>2025-09-11T07:44:33Z</time>
      </trkpt>
      <trkpt lat="45.88322" lon="4.53804">
        <ele>348.4</ele>
        <time>2025-09-11T07:44:34Z</time>
      </trkpt>
      <trkpt lat="45.88323" lon="4.53809">
        <ele>348.6</ele>
        <time>2025-09-11T07:44:35Z</time>
      </trkpt>
      <trkpt lat="45.88324" lon="4.53813">
        <ele>348.6</ele>
        <time>2025-09-11T07:44:36Z</time>
      </trkpt>
      <trkpt lat="45.88326" lon="4.53817">
        <ele>348.6</ele>
        <time>2025-09-11T07:44:37Z</time>
      </trkpt>
      <trkpt lat="45.88327" lon="4.53822">
        <ele>348.6</ele>
        <time>2025-09-11T07:44:38Z</time>
      </trkpt>
      <trkpt lat="45.88328" lon="4.53826">
        <ele>349</ele>
        <time>2025-09-11T07:44:39Z</time>
      </trkpt>
      <trkpt lat="45.8833" lon="4.5383">
        <ele>349</ele>
        <time>2025-09-11T07:44:40Z</time>
      </trkpt>
      <trkpt lat="45.88331" lon="4.53835">
        <ele>349</ele>
        <time>2025-09-11T07:44:41Z</time>
      </trkpt>
      <trkpt lat="45.88333" lon="4.53839">
        <ele>349</ele>
        <time>2025-09-11T07:44:42Z</time>
      </trkpt>
      <trkpt lat="45.88334" lon="4.53843">
        <ele>349</ele>
        <time>2025-09-11T07:44:43Z</time>
      </trkpt>
      <trkpt lat="45.88335" lon="4.53847">
        <ele>349.4</ele>
        <time>2025-09-11T07:44:44Z</time>
      </trkpt>
      <trkpt lat="45.88337" lon="4.53851">
        <ele>349.4</ele>
        <time>2025-09-11T07:44:45Z</time>
      </trkpt>
      <trkpt lat="45.88338" lon="4.53855">
        <ele>349.6</ele>
        <time>2025-09-11T07:44:46Z</time>
      </trkpt>
      <trkpt lat="45.8834" lon="4.53859">
        <ele>350</ele>
        <time>2025-09-11T07:44:47Z</time>
      </trkpt>
      <trkpt lat="45.88341" lon="4.53862">
        <ele>350.2</ele>
        <time>2025-09-11T07:44:48Z</time>
      </trkpt>
      <trkpt lat="45.88342" lon="4.53866">
        <ele>350.2</ele>
        <time>2025-09-11T07:44:49Z</time>
      </trkpt>
      <trkpt lat="45.88343" lon="4.5387">
        <ele>350.6</ele>
        <time>2025-09-11T07:44:50Z</time>
      </trkpt>
      <trkpt lat="45.88345" lon="4.53875">
        <ele>350.6</ele>
        <time>2025-09-11T07:44:51Z</time>
      </trkpt>
      <trkpt lat="45.88346" lon="4.53879">
        <ele>350.6</ele>
        <time>2025-09-11T07:44:52Z</time>
      </trkpt>
      <trkpt lat="45.88348" lon="4.53883">
        <ele>350.6</ele>
        <time>2025-09-11T07:44:53Z</time>
      </trkpt>
      <trkpt lat="45.88349" lon="4.53887">
        <ele>350.8</ele>
        <time>2025-09-11T07:44:54Z</time>
      </trkpt>
      <trkpt lat="45.88351" lon="4.53891">
        <ele>350.8</ele>
        <time>2025-09-11T07:44:55Z</time>
      </trkpt>
      <trkpt lat="45.88353" lon="4.53895">
        <ele>350.8</ele>
        <time>2025-09-11T07:44:56Z</time>
      </trkpt>
      <trkpt lat="45.88354" lon="4.53899">
        <ele>350.8</ele>
        <time>2025-09-11T07:44:57Z</time>
      </trkpt>
      <trkpt lat="45.88355" lon="4.53902">
        <ele>351</ele>
        <time>2025-09-11T07:44:58Z</time>
      </trkpt>
      <trkpt lat="45.88357" lon="4.53905">
        <ele>351</ele>
        <time>2025-09-11T07:44:59Z</time>
      </trkpt>
      <trkpt lat="45.88358" lon="4.53909">
        <ele>351</ele>
        <time>2025-09-11T07:45:00Z</time>
      </trkpt>
      <trkpt lat="45.88359" lon="4.53912">
        <ele>351.4</ele>
        <time>2025-09-11T07:45:01Z</time>
      </trkpt>
      <trkpt lat="45.8836" lon="4.53915">
        <ele>351.4</ele>
        <time>2025-09-11T07:45:02Z</time>
      </trkpt>
      <trkpt lat="45.88361" lon="4.53919">
        <ele>351.4</ele>
        <time>2025-09-11T07:45:03Z</time>
      </trkpt>
      <trkpt lat="45.88361" lon="4.53922">
        <ele>351.4</ele>
        <time>2025-09-11T07:45:04Z</time>
      </trkpt>
      <trkpt lat="45.88362" lon="4.53925">
        <ele>351.4</ele>
        <time>2025-09-11T07:45:05Z</time>
      </trkpt>
      <trkpt lat="45.88364" lon="4.53928">
        <ele>351.8</ele>
        <time>2025-09-11T07:45:06Z</time>
      </trkpt>
      <trkpt lat="45.88365" lon="4.53931">
        <ele>351.8</ele>
        <time>2025-09-11T07:45:07Z</time>
      </trkpt>
      <trkpt lat="45.88365" lon="4.53934">
        <ele>352</ele>
        <time>2025-09-11T07:45:08Z</time>
      </trkpt>
      <trkpt lat="45.88366" lon="4.53937">
        <ele>352</ele>
        <time>2025-09-11T07:45:09Z</time>
      </trkpt>
      <trkpt lat="45.88366" lon="4.5394">
        <ele>352</ele>
        <time>2025-09-11T07:45:10Z</time>
      </trkpt>
      <trkpt lat="45.88367" lon="4.53944">
        <ele>352</ele>
        <time>2025-09-11T07:45:11Z</time>
      </trkpt>
      <trkpt lat="45.88368" lon="4.53947">
        <ele>352</ele>
        <time>2025-09-11T07:45:12Z</time>
      </trkpt>
      <trkpt lat="45.8837" lon="4.53951">
        <ele>351</ele>
        <time>2025-09-11T07:45:13Z</time>
      </trkpt>
      <trkpt lat="45.88371" lon="4.53955">
        <ele>351.4</ele>
        <time>2025-09-11T07:45:14Z</time>
      </trkpt>
      <trkpt lat="45.88372" lon="4.53958">
        <ele>352</ele>
        <time>2025-09-11T07:45:15Z</time>
      </trkpt>
      <trkpt lat="45.88373" lon="4.53962">
        <ele>352</ele>
        <time>2025-09-11T07:45:16Z</time>
      </trkpt>
      <trkpt lat="45.88374" lon="4.53966">
        <ele>352</ele>
        <time>2025-09-11T07:45:17Z</time>
      </trkpt>
      <trkpt lat="45.88376" lon="4.5397">
        <ele>353.2</ele>
        <time>2025-09-11T07:45:18Z</time>
      </trkpt>
      <trkpt lat="45.88377" lon="4.53974">
        <ele>352.6</ele>
        <time>2025-09-11T07:45:19Z</time>
      </trkpt>
      <trkpt lat="45.88377" lon="4.53978">
        <ele>353</ele>
        <time>2025-09-11T07:45:20Z</time>
      </trkpt>
      <trkpt lat="45.88378" lon="4.53981">
        <ele>352.8</ele>
        <time>2025-09-11T07:45:21Z</time>
      </trkpt>
      <trkpt lat="45.88378" lon="4.53984">
        <ele>354</ele>
        <time>2025-09-11T07:45:22Z</time>
      </trkpt>
      <trkpt lat="45.88379" lon="4.5399">
        <ele>354</ele>
        <time>2025-09-11T07:45:23Z</time>
      </trkpt>
      <trkpt lat="45.88378" lon="4.53993">
        <ele>354</ele>
        <time>2025-09-11T07:45:24Z</time>
      </trkpt>
      <trkpt lat="45.88378" lon="4.53995">
        <ele>354</ele>
        <time>2025-09-11T07:45:25Z</time>
      </trkpt>
      <trkpt lat="45.88378" lon="4.53997">
        <ele>354</ele>
        <time>2025-09-11T07:45:26Z</time>
      </trkpt>
      <trkpt lat="45.88378" lon="4.54">
        <ele>354.2</ele>
        <time>2025-09-11T07:45:27Z</time>
      </trkpt>
      <trkpt lat="45.88378" lon="4.54003">
        <ele>354.2</ele>
        <time>2025-09-11T07:45:28Z</time>
      </trkpt>
      <trkpt lat="45.88379" lon="4.54006">
        <ele>354.2</ele>
        <time>2025-09-11T07:45:29Z</time>
      </trkpt>
      <trkpt lat="45.8838" lon="4.54009">
        <ele>354.4</ele>
        <time>2025-09-11T07:45:30Z</time>
      </trkpt>
      <trkpt lat="45.88381" lon="4.54013">
        <ele>354.4</ele>
        <time>2025-09-11T07:45:31Z</time>
      </trkpt>
      <trkpt lat="45.88381" lon="4.54016">
        <ele>354.4</ele>
        <time>2025-09-11T07:45:32Z</time>
      </trkpt>
      <trkpt lat="45.88381" lon="4.5402">
        <ele>354.4</ele>
        <time>2025-09-11T07:45:33Z</time>
      </trkpt>
      <trkpt lat="45.88381" lon="4.54023">
        <ele>354.6</ele>
        <time>2025-09-11T07:45:34Z</time>
      </trkpt>
      <trkpt lat="45.88381" lon="4.54026">
        <ele>354.6</ele>
        <time>2025-09-11T07:45:35Z</time>
      </trkpt>
      <trkpt lat="45.8838" lon="4.54029">
        <ele>355.2</ele>
        <time>2025-09-11T07:45:36Z</time>
      </trkpt>
      <trkpt lat="45.8838" lon="4.54029">
        <ele>355.2</ele>
        <time>2025-09-11T07:45:37Z</time>
      </trkpt>
      <trkpt lat="45.8838" lon="4.54032">
        <ele>355.6</ele>
        <time>2025-09-11T07:45:38Z</time>
      </trkpt>
      <trkpt lat="45.88379" lon="4.54036">
        <ele>355.6</ele>
        <time>2025-09-11T07:45:39Z</time>
      </trkpt>
      <trkpt lat="45.88379" lon="4.54039">
        <ele>355.8</ele>
        <time>2025-09-11T07:45:40Z</time>
      </trkpt>
      <trkpt lat="45.88378" lon="4.54043">
        <ele>355.8</ele>
        <time>2025-09-11T07:45:41Z</time>
      </trkpt>
      <trkpt lat="45.88377" lon="4.54046">
        <ele>356</ele>
        <time>2025-09-11T07:45:42Z</time>
      </trkpt>
      <trkpt lat="45.88376" lon="4.54049">
        <ele>356.4</ele>
        <time>2025-09-11T07:45:43Z</time>
      </trkpt>
      <trkpt lat="45.88376" lon="4.54051">
        <ele>356.4</ele>
        <time>2025-09-11T07:45:44Z</time>
      </trkpt>
      <trkpt lat="45.88375" lon="4.54053">
        <ele>356.6</ele>
        <time>2025-09-11T07:45:45Z</time>
      </trkpt>
      <trkpt lat="45.88374" lon="4.54056">
        <ele>356.6</ele>
        <time>2025-09-11T07:45:46Z</time>
      </trkpt>
      <trkpt lat="45.88374" lon="4.54058">
        <ele>356.8</ele>
        <time>2025-09-11T07:45:47Z</time>
      </trkpt>
      <trkpt lat="45.88373" lon="4.54061">
        <ele>356.6</ele>
        <time>2025-09-11T07:45:48Z</time>
      </trkpt>
      <trkpt lat="45.88372" lon="4.54063">
        <ele>356.8</ele>
        <time>2025-09-11T07:45:49Z</time>
      </trkpt>
      <trkpt lat="45.88372" lon="4.54065">
        <ele>356.8</ele>
        <time>2025-09-11T07:45:50Z</time>
      </trkpt>
      <trkpt lat="45.88371" lon="4.54068">
        <ele>357.2</ele>
        <time>2025-09-11T07:45:51Z</time>
      </trkpt>
      <trkpt lat="45.88371" lon="4.5407">
        <ele>356.8</ele>
        <time>2025-09-11T07:45:52Z</time>
      </trkpt>
      <trkpt lat="45.8837" lon="4.54072">
        <ele>357.2</ele>
        <time>2025-09-11T07:45:53Z</time>
      </trkpt>
      <trkpt lat="45.8837" lon="4.54075">
        <ele>357.6</ele>
        <time>2025-09-11T07:45:54Z</time>
      </trkpt>
      <trkpt lat="45.8837" lon="4.54077">
        <ele>358</ele>
        <time>2025-09-11T07:45:55Z</time>
      </trkpt>
      <trkpt lat="45.8837" lon="4.5408">
        <ele>358</ele>
        <time>2025-09-11T07:45:56Z</time>
      </trkpt>
      <trkpt lat="45.88369" lon="4.54083">
        <ele>358</ele>
        <time>2025-09-11T07:45:57Z</time>
      </trkpt>
      <trkpt lat="45.88369" lon="4.54085">
        <ele>358.2</ele>
        <time>2025-09-11T07:45:58Z</time>
      </trkpt>
      <trkpt lat="45.88369" lon="4.54088">
        <ele>358.2</ele>
        <time>2025-09-11T07:45:59Z</time>
      </trkpt>
      <trkpt lat="45.88369" lon="4.54091">
        <ele>358.6</ele>
        <time>2025-09-11T07:46:00Z</time>
      </trkpt>
      <trkpt lat="45.88368" lon="4.54094">
        <ele>358.6</ele>
        <time>2025-09-11T07:46:01Z</time>
      </trkpt>
      <trkpt lat="45.88368" lon="4.54097">
        <ele>358.6</ele>
        <time>2025-09-11T07:46:02Z</time>
      </trkpt>
      <trkpt lat="45.88368" lon="4.541">
        <ele>358.6</ele>
        <time>2025-09-11T07:46:03Z</time>
      </trkpt>
      <trkpt lat="45.88367" lon="4.54103">
        <ele>358.6</ele>
        <time>2025-09-11T07:46:04Z</time>
      </trkpt>
      <trkpt lat="45.88366" lon="4.54106">
        <ele>358.6</ele>
        <time>2025-09-11T07:46:05Z</time>
      </trkpt>
      <trkpt lat="45.88366" lon="4.54109">
        <ele>359</ele>
        <time>2025-09-11T07:46:06Z</time>
      </trkpt>
      <trkpt lat="45.88366" lon="4.54112">
        <ele>359</ele>
        <time>2025-09-11T07:46:07Z</time>
      </trkpt>
      <trkpt lat="45.88365" lon="4.54115">
        <ele>359.2</ele>
        <time>2025-09-11T07:46:08Z</time>
      </trkpt>
      <trkpt lat="45.88365" lon="4.54118">
        <ele>359.4</ele>
        <time>2025-09-11T07:46:09Z</time>
      </trkpt>
      <trkpt lat="45.88365" lon="4.54121">
        <ele>359.4</ele>
        <time>2025-09-11T07:46:10Z</time>
      </trkpt>
      <trkpt lat="45.88365" lon="4.54125">
        <ele>359.4</ele>
        <time>2025-09-11T07:46:11Z</time>
      </trkpt>
      <trkpt lat="45.88365" lon="4.54128">
        <ele>359.4</ele>
        <time>2025-09-11T07:46:12Z</time>
      </trkpt>
      <trkpt lat="45.88365" lon="4.54132">
        <ele>359.4</ele>
        <time>2025-09-11T07:46:13Z</time>
      </trkpt>
      <trkpt lat="45.88365" lon="4.54135">
        <ele>360</ele>
        <time>2025-09-11T07:46:14Z</time>
      </trkpt>
      <trkpt lat="45.88365" lon="4.54139">
        <ele>360</ele>
        <time>2025-09-11T07:46:15Z</time>
      </trkpt>
      <trkpt lat="45.88364" lon="4.54142">
        <ele>360</ele>
        <time>2025-09-11T07:46:16Z</time>
      </trkpt>
      <trkpt lat="45.88364" lon="4.54145">
        <ele>359.6</ele>
        <time>2025-09-11T07:46:17Z</time>
      </trkpt>
      <trkpt lat="45.88364" lon="4.54149">
        <ele>360</ele>
        <time>2025-09-11T07:46:18Z</time>
      </trkpt>
      <trkpt lat="45.88364" lon="4.54152">
        <ele>360</ele>
        <time>2025-09-11T07:46:19Z</time>
      </trkpt>
      <trkpt lat="45.88364" lon="4.54156">
        <ele>360</ele>
        <time>2025-09-11T07:46:20Z</time>
      </trkpt>
      <trkpt lat="45.88364" lon="4.5416">
        <ele>360.4</ele>
        <time>2025-09-11T07:46:21Z</time>
      </trkpt>
      <trkpt lat="45.88364" lon="4.54164">
        <ele>360.4</ele>
        <time>2025-09-11T07:46:22Z</time>
      </trkpt>
      <trkpt lat="45.88365" lon="4.54168">
        <ele>360</ele>
        <time>2025-09-11T07:46:23Z</time>
      </trkpt>
      <trkpt lat="45.88365" lon="4.54172">
        <ele>360.4</ele>
        <time>2025-09-11T07:46:24Z</time>
      </trkpt>
      <trkpt lat="45.88366" lon="4.54176">
        <ele>360.4</ele>
        <time>2025-09-11T07:46:25Z</time>
      </trkpt>
      <trkpt lat="45.88367" lon="4.5418">
        <ele>360.4</ele>
        <time>2025-09-11T07:46:26Z</time>
      </trkpt>
      <trkpt lat="45.88367" lon="4.54184">
        <ele>360.4</ele>
        <time>2025-09-11T07:46:27Z</time>
      </trkpt>
      <trkpt lat="45.88368" lon="4.54188">
        <ele>360.4</ele>
        <time>2025-09-11T07:46:28Z</time>
      </trkpt>
      <trkpt lat="45.88369" lon="4.54192">
        <ele>360.4</ele>
        <time>2025-09-11T07:46:29Z</time>
      </trkpt>
      <trkpt lat="45.8837" lon="4.54196">
        <ele>360.2</ele>
        <time>2025-09-11T07:46:30Z</time>
      </trkpt>
      <trkpt lat="45.88371" lon="4.542">
        <ele>360.2</ele>
        <time>2025-09-11T07:46:31Z</time>
      </trkpt>
      <trkpt lat="45.88372" lon="4.54204">
        <ele>360.4</ele>
        <time>2025-09-11T07:46:32Z</time>
      </trkpt>
      <trkpt lat="45.88372" lon="4.54208">
        <ele>360.4</ele>
        <time>2025-09-11T07:46:33Z</time>
      </trkpt>
      <trkpt lat="45.88373" lon="4.54212">
        <ele>360.4</ele>
        <time>2025-09-11T07:46:34Z</time>
      </trkpt>
      <trkpt lat="45.88374" lon="4.54216">
        <ele>360.8</ele>
        <time>2025-09-11T07:46:35Z</time>
      </trkpt>
      <trkpt lat="45.88374" lon="4.5422">
        <ele>360.8</ele>
        <time>2025-09-11T07:46:36Z</time>
      </trkpt>
      <trkpt lat="45.88375" lon="4.54225">
        <ele>360.8</ele>
        <time>2025-09-11T07:46:37Z</time>
      </trkpt>
      <trkpt lat="45.88375" lon="4.54229">
        <ele>360.8</ele>
        <time>2025-09-11T07:46:38Z</time>
      </trkpt>
      <trkpt lat="45.88376" lon="4.54233">
        <ele>361</ele>
        <time>2025-09-11T07:46:39Z</time>
      </trkpt>
      <trkpt lat="45.88376" lon="4.54237">
        <ele>361</ele>
        <time>2025-09-11T07:46:40Z</time>
      </trkpt>
      <trkpt lat="45.88376" lon="4.54241">
        <ele>361</ele>
        <time>2025-09-11T07:46:41Z</time>
      </trkpt>
      <trkpt lat="45.88376" lon="4.54246">
        <ele>361</ele>
        <time>2025-09-11T07:46:42Z</time>
      </trkpt>
      <trkpt lat="45.88376" lon="4.54251">
        <ele>361</ele>
        <time>2025-09-11T07:46:43Z</time>
      </trkpt>
      <trkpt lat="45.88376" lon="4.54256">
        <ele>361</ele>
        <time>2025-09-11T07:46:44Z</time>
      </trkpt>
      <trkpt lat="45.88376" lon="4.54259">
        <ele>361</ele>
        <time>2025-09-11T07:46:45Z</time>
      </trkpt>
      <trkpt lat="45.88375" lon="4.54263">
        <ele>361.4</ele>
        <time>2025-09-11T07:46:46Z</time>
      </trkpt>
      <trkpt lat="45.88375" lon="4.54267">
        <ele>361.4</ele>
        <time>2025-09-11T07:46:47Z</time>
      </trkpt>
      <trkpt lat="45.88374" lon="4.54271">
        <ele>361.4</ele>
        <time>2025-09-11T07:46:48Z</time>
      </trkpt>
      <trkpt lat="45.88373" lon="4.54275">
        <ele>361.6</ele>
        <time>2025-09-11T07:46:49Z</time>
      </trkpt>
      <trkpt lat="45.88373" lon="4.54279">
        <ele>361.6</ele>
        <time>2025-09-11T07:46:50Z</time>
      </trkpt>
      <trkpt lat="45.88372" lon="4.54282">
        <ele>361.6</ele>
        <time>2025-09-11T07:46:51Z</time>
      </trkpt>
      <trkpt lat="45.88371" lon="4.54286">
        <ele>362</ele>
        <time>2025-09-11T07:46:52Z</time>
      </trkpt>
      <trkpt lat="45.88371" lon="4.5429">
        <ele>362</ele>
        <time>2025-09-11T07:46:53Z</time>
      </trkpt>
      <trkpt lat="45.8837" lon="4.54294">
        <ele>362.2</ele>
        <time>2025-09-11T07:46:54Z</time>
      </trkpt>
      <trkpt lat="45.88369" lon="4.54298">
        <ele>362.2</ele>
        <time>2025-09-11T07:46:55Z</time>
      </trkpt>
      <trkpt lat="45.88368" lon="4.54302">
        <ele>362.6</ele>
        <time>2025-09-11T07:46:56Z</time>
      </trkpt>
      <trkpt lat="45.88367" lon="4.54306">
        <ele>362.6</ele>
        <time>2025-09-11T07:46:57Z</time>
      </trkpt>
      <trkpt lat="45.88367" lon="4.5431">
        <ele>362.8</ele>
        <time>2025-09-11T07:46:58Z</time>
      </trkpt>
      <trkpt lat="45.88366" lon="4.54314">
        <ele>363.2</ele>
        <time>2025-09-11T07:46:59Z</time>
      </trkpt>
      <trkpt lat="45.88366" lon="4.54318">
        <ele>363.4</ele>
        <time>2025-09-11T07:47:00Z</time>
      </trkpt>
      <trkpt lat="45.88365" lon="4.54323">
        <ele>363.4</ele>
        <time>2025-09-11T07:47:01Z</time>
      </trkpt>
      <trkpt lat="45.88365" lon="4.54327">
        <ele>363.4</ele>
        <time>2025-09-11T07:47:02Z</time>
      </trkpt>
      <trkpt lat="45.88365" lon="4.54331">
        <ele>363.4</ele>
        <time>2025-09-11T07:47:03Z</time>
      </trkpt>
      <trkpt lat="45.88365" lon="4.54335">
        <ele>363.4</ele>
        <time>2025-09-11T07:47:04Z</time>
      </trkpt>
      <trkpt lat="45.88364" lon="4.54339">
        <ele>363.4</ele>
        <time>2025-09-11T07:47:05Z</time>
      </trkpt>
      <trkpt lat="45.88364" lon="4.54343">
        <ele>363.6</ele>
        <time>2025-09-11T07:47:06Z</time>
      </trkpt>
      <trkpt lat="45.88364" lon="4.54346">
        <ele>363.6</ele>
        <time>2025-09-11T07:47:07Z</time>
      </trkpt>
      <trkpt lat="45.88364" lon="4.5435">
        <ele>363.8</ele>
        <time>2025-09-11T07:47:08Z</time>
      </trkpt>
      <trkpt lat="45.88365" lon="4.54354">
        <ele>363.8</ele>
        <time>2025-09-11T07:47:09Z</time>
      </trkpt>
      <trkpt lat="45.88365" lon="4.54359">
        <ele>364.2</ele>
        <time>2025-09-11T07:47:10Z</time>
      </trkpt>
      <trkpt lat="45.88366" lon="4.54363">
        <ele>364.2</ele>
        <time>2025-09-11T07:47:11Z</time>
      </trkpt>
      <trkpt lat="45.88366" lon="4.54367">
        <ele>364.2</ele>
        <time>2025-09-11T07:47:12Z</time>
      </trkpt>
      <trkpt lat="45.88367" lon="4.54371">
        <ele>364.2</ele>
        <time>2025-09-11T07:47:13Z</time>
      </trkpt>
      <trkpt lat="45.88367" lon="4.54375">
        <ele>364.4</ele>
        <time>2025-09-11T07:47:14Z</time>
      </trkpt>
      <trkpt lat="45.88368" lon="4.5438">
        <ele>364.4</ele>
        <time>2025-09-11T07:47:15Z</time>
      </trkpt>
      <trkpt lat="45.88368" lon="4.54384">
        <ele>364.4</ele>
        <time>2025-09-11T07:47:16Z</time>
      </trkpt>
      <trkpt lat="45.88369" lon="4.54389">
        <ele>364.2</ele>
        <time>2025-09-11T07:47:17Z</time>
      </trkpt>
      <trkpt lat="45.8837" lon="4.54394">
        <ele>364.2</ele>
        <time>2025-09-11T07:47:18Z</time>
      </trkpt>
      <trkpt lat="45.8837" lon="4.54399">
        <ele>364.2</ele>
        <time>2025-09-11T07:47:19Z</time>
      </trkpt>
      <trkpt lat="45.88371" lon="4.54405">
        <ele>364</ele>
        <time>2025-09-11T07:47:20Z</time>
      </trkpt>
      <trkpt lat="45.88371" lon="4.5441">
        <ele>364</ele>
        <time>2025-09-11T07:47:21Z</time>
      </trkpt>
      <trkpt lat="45.88372" lon="4.54417">
        <ele>364</ele>
        <time>2025-09-11T07:47:22Z</time>
      </trkpt>
      <trkpt lat="45.88373" lon="4.54423">
        <ele>363.8</ele>
        <time>2025-09-11T07:47:23Z</time>
      </trkpt>
      <trkpt lat="45.88374" lon="4.54429">
        <ele>363.8</ele>
        <time>2025-09-11T07:47:24Z</time>
      </trkpt>
      <trkpt lat="45.88374" lon="4.54436">
        <ele>363.8</ele>
        <time>2025-09-11T07:47:25Z</time>
      </trkpt>
      <trkpt lat="45.88376" lon="4.54442">
        <ele>363.8</ele>
        <time>2025-09-11T07:47:26Z</time>
      </trkpt>
      <trkpt lat="45.88378" lon="4.54449">
        <ele>363.2</ele>
        <time>2025-09-11T07:47:27Z</time>
      </trkpt>
      <trkpt lat="45.88379" lon="4.54455">
        <ele>363</ele>
        <time>2025-09-11T07:47:28Z</time>
      </trkpt>
      <trkpt lat="45.8838" lon="4.54462">
        <ele>363</ele>
        <time>2025-09-11T07:47:29Z</time>
      </trkpt>
      <trkpt lat="45.88382" lon="4.54469">
        <ele>362.4</ele>
        <time>2025-09-11T07:47:30Z</time>
      </trkpt>
      <trkpt lat="45.88383" lon="4.54476">
        <ele>362.8</ele>
        <time>2025-09-11T07:47:31Z</time>
      </trkpt>
      <trkpt lat="45.88385" lon="4.54483">
        <ele>362.8</ele>
        <time>2025-09-11T07:47:32Z</time>
      </trkpt>
      <trkpt lat="45.88387" lon="4.5449">
        <ele>362.8</ele>
        <time>2025-09-11T07:47:33Z</time>
      </trkpt>
      <trkpt lat="45.88388" lon="4.54497">
        <ele>363.2</ele>
        <time>2025-09-11T07:47:34Z</time>
      </trkpt>
      <trkpt lat="45.8839" lon="4.54503">
        <ele>363.2</ele>
        <time>2025-09-11T07:47:35Z</time>
      </trkpt>
      <trkpt lat="45.88392" lon="4.5451">
        <ele>363</ele>
        <time>2025-09-11T07:47:36Z</time>
      </trkpt>
      <trkpt lat="45.88393" lon="4.54516">
        <ele>363</ele>
        <time>2025-09-11T07:47:37Z</time>
      </trkpt>
      <trkpt lat="45.88395" lon="4.54523">
        <ele>362.6</ele>
        <time>2025-09-11T07:47:38Z</time>
      </trkpt>
      <trkpt lat="45.88396" lon="4.54529">
        <ele>362.4</ele>
        <time>2025-09-11T07:47:39Z</time>
      </trkpt>
      <trkpt lat="45.88397" lon="4.54536">
        <ele>362.4</ele>
        <time>2025-09-11T07:47:40Z</time>
      </trkpt>
      <trkpt lat="45.88399" lon="4.54542">
        <ele>363</ele>
        <time>2025-09-11T07:47:41Z</time>
      </trkpt>
      <trkpt lat="45.88401" lon="4.54548">
        <ele>363.8</ele>
        <time>2025-09-11T07:47:42Z</time>
      </trkpt>
      <trkpt lat="45.88402" lon="4.54555">
        <ele>363.4</ele>
        <time>2025-09-11T07:47:43Z</time>
      </trkpt>
      <trkpt lat="45.88404" lon="4.5456">
        <ele>363.4</ele>
        <time>2025-09-11T07:47:44Z</time>
      </trkpt>
      <trkpt lat="45.88406" lon="4.54566">
        <ele>362.8</ele>
        <time>2025-09-11T07:47:45Z</time>
      </trkpt>
      <trkpt lat="45.88407" lon="4.54572">
        <ele>362.6</ele>
        <time>2025-09-11T07:47:46Z</time>
      </trkpt>
      <trkpt lat="45.88409" lon="4.54578">
        <ele>362.6</ele>
        <time>2025-09-11T07:47:47Z</time>
      </trkpt>
      <trkpt lat="45.88411" lon="4.54584">
        <ele>362.6</ele>
        <time>2025-09-11T07:47:48Z</time>
      </trkpt>
      <trkpt lat="45.88412" lon="4.5459">
        <ele>362.6</ele>
        <time>2025-09-11T07:47:49Z</time>
      </trkpt>
      <trkpt lat="45.88413" lon="4.54596">
        <ele>362.6</ele>
        <time>2025-09-11T07:47:50Z</time>
      </trkpt>
      <trkpt lat="45.88414" lon="4.54602">
        <ele>362.6</ele>
        <time>2025-09-11T07:47:51Z</time>
      </trkpt>
      <trkpt lat="45.88416" lon="4.54608">
        <ele>362.6</ele>
        <time>2025-09-11T07:47:52Z</time>
      </trkpt>
      <trkpt lat="45.88418" lon="4.54615">
        <ele>362.8</ele>
        <time>2025-09-11T07:47:53Z</time>
      </trkpt>
      <trkpt lat="45.8842" lon="4.54621">
        <ele>362.8</ele>
        <time>2025-09-11T07:47:54Z</time>
      </trkpt>
      <trkpt lat="45.88421" lon="4.54628">
        <ele>362.8</ele>
        <time>2025-09-11T07:47:55Z</time>
      </trkpt>
      <trkpt lat="45.88423" lon="4.54635">
        <ele>362.8</ele>
        <time>2025-09-11T07:47:56Z</time>
      </trkpt>
      <trkpt lat="45.88425" lon="4.54641">
        <ele>363.4</ele>
        <time>2025-09-11T07:47:57Z</time>
      </trkpt>
      <trkpt lat="45.88427" lon="4.54647">
        <ele>363.4</ele>
        <time>2025-09-11T07:47:58Z</time>
      </trkpt>
      <trkpt lat="45.88429" lon="4.54654">
        <ele>363.2</ele>
        <time>2025-09-11T07:47:59Z</time>
      </trkpt>
      <trkpt lat="45.88431" lon="4.54661">
        <ele>362.8</ele>
        <time>2025-09-11T07:48:00Z</time>
      </trkpt>
      <trkpt lat="45.88432" lon="4.54668">
        <ele>363</ele>
        <time>2025-09-11T07:48:01Z</time>
      </trkpt>
      <trkpt lat="45.88435" lon="4.54674">
        <ele>362.6</ele>
        <time>2025-09-11T07:48:02Z</time>
      </trkpt>
      <trkpt lat="45.88436" lon="4.54681">
        <ele>362.6</ele>
        <time>2025-09-11T07:48:03Z</time>
      </trkpt>
      <trkpt lat="45.88438" lon="4.54686">
        <ele>362.6</ele>
        <time>2025-09-11T07:48:04Z</time>
      </trkpt>
      <trkpt lat="45.8844" lon="4.54693">
        <ele>362.6</ele>
        <time>2025-09-11T07:48:05Z</time>
      </trkpt>
      <trkpt lat="45.88442" lon="4.54699">
        <ele>362.6</ele>
        <time>2025-09-11T07:48:06Z</time>
      </trkpt>
      <trkpt lat="45.88444" lon="4.54706">
        <ele>362.8</ele>
        <time>2025-09-11T07:48:07Z</time>
      </trkpt>
      <trkpt lat="45.88447" lon="4.54712">
        <ele>363.2</ele>
        <time>2025-09-11T07:48:08Z</time>
      </trkpt>
      <trkpt lat="45.88449" lon="4.54718">
        <ele>363.2</ele>
        <time>2025-09-11T07:48:09Z</time>
      </trkpt>
      <trkpt lat="45.88451" lon="4.54725">
        <ele>363.2</ele>
        <time>2025-09-11T07:48:10Z</time>
      </trkpt>
      <trkpt lat="45.88453" lon="4.54731">
        <ele>362.8</ele>
        <time>2025-09-11T07:48:11Z</time>
      </trkpt>
      <trkpt lat="45.88455" lon="4.54737">
        <ele>362.8</ele>
        <time>2025-09-11T07:48:12Z</time>
      </trkpt>
      <trkpt lat="45.88458" lon="4.54744">
        <ele>362.8</ele>
        <time>2025-09-11T07:48:13Z</time>
      </trkpt>
      <trkpt lat="45.8846" lon="4.5475">
        <ele>362.8</ele>
        <time>2025-09-11T07:48:14Z</time>
      </trkpt>
      <trkpt lat="45.88462" lon="4.54755">
        <ele>362.8</ele>
        <time>2025-09-11T07:48:15Z</time>
      </trkpt>
      <trkpt lat="45.88464" lon="4.54759">
        <ele>362.8</ele>
        <time>2025-09-11T07:48:16Z</time>
      </trkpt>
      <trkpt lat="45.88466" lon="4.54764">
        <ele>362.8</ele>
        <time>2025-09-11T07:48:17Z</time>
      </trkpt>
      <trkpt lat="45.88468" lon="4.54769">
        <ele>362.6</ele>
        <time>2025-09-11T07:48:18Z</time>
      </trkpt>
      <trkpt lat="45.8847" lon="4.54775">
        <ele>362.8</ele>
        <time>2025-09-11T07:48:19Z</time>
      </trkpt>
      <trkpt lat="45.88472" lon="4.5478">
        <ele>362.6</ele>
        <time>2025-09-11T07:48:20Z</time>
      </trkpt>
      <trkpt lat="45.88473" lon="4.54786">
        <ele>362.6</ele>
        <time>2025-09-11T07:48:21Z</time>
      </trkpt>
      <trkpt lat="45.88475" lon="4.54792">
        <ele>362.8</ele>
        <time>2025-09-11T07:48:22Z</time>
      </trkpt>
      <trkpt lat="45.88477" lon="4.54798">
        <ele>363.2</ele>
        <time>2025-09-11T07:48:23Z</time>
      </trkpt>
      <trkpt lat="45.88478" lon="4.54804">
        <ele>363.2</ele>
        <time>2025-09-11T07:48:24Z</time>
      </trkpt>
      <trkpt lat="45.8848" lon="4.54809">
        <ele>363.2</ele>
        <time>2025-09-11T07:48:25Z</time>
      </trkpt>
      <trkpt lat="45.88482" lon="4.54815">
        <ele>363.2</ele>
        <time>2025-09-11T07:48:26Z</time>
      </trkpt>
      <trkpt lat="45.88483" lon="4.5482">
        <ele>363.2</ele>
        <time>2025-09-11T07:48:27Z</time>
      </trkpt>
      <trkpt lat="45.88484" lon="4.54826">
        <ele>363</ele>
        <time>2025-09-11T07:48:28Z</time>
      </trkpt>
      <trkpt lat="45.88485" lon="4.54833">
        <ele>363.2</ele>
        <time>2025-09-11T07:48:29Z</time>
      </trkpt>
      <trkpt lat="45.88486" lon="4.54839">
        <ele>363.2</ele>
        <time>2025-09-11T07:48:30Z</time>
      </trkpt>
      <trkpt lat="45.88487" lon="4.54846">
        <ele>363.2</ele>
        <time>2025-09-11T07:48:31Z</time>
      </trkpt>
      <trkpt lat="45.88488" lon="4.54852">
        <ele>363.2</ele>
        <time>2025-09-11T07:48:32Z</time>
      </trkpt>
      <trkpt lat="45.8849" lon="4.54859">
        <ele>363.2</ele>
        <time>2025-09-11T07:48:33Z</time>
      </trkpt>
      <trkpt lat="45.88492" lon="4.54865">
        <ele>363.2</ele>
        <time>2025-09-11T07:48:34Z</time>
      </trkpt>
      <trkpt lat="45.88493" lon="4.54872">
        <ele>362.8</ele>
        <time>2025-09-11T07:48:35Z</time>
      </trkpt>
      <trkpt lat="45.88495" lon="4.54878">
        <ele>362.8</ele>
        <time>2025-09-11T07:48:36Z</time>
      </trkpt>
      <trkpt lat="45.88496" lon="4.54885">
        <ele>363.2</ele>
        <time>2025-09-11T07:48:37Z</time>
      </trkpt>
      <trkpt lat="45.88498" lon="4.54891">
        <ele>363.2</ele>
        <time>2025-09-11T07:48:38Z</time>
      </trkpt>
      <trkpt lat="45.88498" lon="4.54898">
        <ele>362.8</ele>
        <time>2025-09-11T07:48:39Z</time>
      </trkpt>
      <trkpt lat="45.885" lon="4.54905">
        <ele>362.8</ele>
        <time>2025-09-11T07:48:40Z</time>
      </trkpt>
      <trkpt lat="45.88502" lon="4.54911">
        <ele>362.8</ele>
        <time>2025-09-11T07:48:41Z</time>
      </trkpt>
      <trkpt lat="45.88503" lon="4.54917">
        <ele>363.4</ele>
        <time>2025-09-11T07:48:42Z</time>
      </trkpt>
      <trkpt lat="45.88504" lon="4.54923">
        <ele>363.4</ele>
        <time>2025-09-11T07:48:43Z</time>
      </trkpt>
      <trkpt lat="45.88506" lon="4.54929">
        <ele>363</ele>
        <time>2025-09-11T07:48:44Z</time>
      </trkpt>
      <trkpt lat="45.88508" lon="4.54936">
        <ele>363</ele>
        <time>2025-09-11T07:48:45Z</time>
      </trkpt>
      <trkpt lat="45.88509" lon="4.54942">
        <ele>362.8</ele>
        <time>2025-09-11T07:48:46Z</time>
      </trkpt>
      <trkpt lat="45.8851" lon="4.54948">
        <ele>362.8</ele>
        <time>2025-09-11T07:48:47Z</time>
      </trkpt>
      <trkpt lat="45.88512" lon="4.54953">
        <ele>362.6</ele>
        <time>2025-09-11T07:48:48Z</time>
      </trkpt>
      <trkpt lat="45.88512" lon="4.54953">
        <ele>362.6</ele>
        <time>2025-09-11T07:48:49Z</time>
      </trkpt>
      <trkpt lat="45.88512" lon="4.54953">
        <ele>362.2</ele>
        <time>2025-09-11T07:48:50Z</time>
      </trkpt>
      <trkpt lat="45.88518" lon="4.54976">
        <ele>362.4</ele>
        <time>2025-09-11T07:48:52Z</time>
      </trkpt>
      <trkpt lat="45.8852" lon="4.5498">
        <ele>362.4</ele>
        <time>2025-09-11T07:48:53Z</time>
      </trkpt>
      <trkpt lat="45.88522" lon="4.54986">
        <ele>362.2</ele>
        <time>2025-09-11T07:48:54Z</time>
      </trkpt>
      <trkpt lat="45.88523" lon="4.5499">
        <ele>362.2</ele>
        <time>2025-09-11T07:48:55Z</time>
      </trkpt>
      <trkpt lat="45.88525" lon="4.54996">
        <ele>362.2</ele>
        <time>2025-09-11T07:48:56Z</time>
      </trkpt>
      <trkpt lat="45.88527" lon="4.55001">
        <ele>362.2</ele>
        <time>2025-09-11T07:48:57Z</time>
      </trkpt>
      <trkpt lat="45.88529" lon="4.55005">
        <ele>362.2</ele>
        <time>2025-09-11T07:48:58Z</time>
      </trkpt>
      <trkpt lat="45.88532" lon="4.5501">
        <ele>362.2</ele>
        <time>2025-09-11T07:48:59Z</time>
      </trkpt>
      <trkpt lat="45.88535" lon="4.55015">
        <ele>362.2</ele>
        <time>2025-09-11T07:49:00Z</time>
      </trkpt>
      <trkpt lat="45.88538" lon="4.55019">
        <ele>362.2</ele>
        <time>2025-09-11T07:49:01Z</time>
      </trkpt>
      <trkpt lat="45.8854" lon="4.55024">
        <ele>362.2</ele>
        <time>2025-09-11T07:49:02Z</time>
      </trkpt>
      <trkpt lat="45.88543" lon="4.55028">
        <ele>362</ele>
        <time>2025-09-11T07:49:03Z</time>
      </trkpt>
      <trkpt lat="45.88546" lon="4.55033">
        <ele>362</ele>
        <time>2025-09-11T07:49:04Z</time>
      </trkpt>
      <trkpt lat="45.88548" lon="4.55038">
        <ele>362</ele>
        <time>2025-09-11T07:49:05Z</time>
      </trkpt>
      <trkpt lat="45.88551" lon="4.55042">
        <ele>361.6</ele>
        <time>2025-09-11T07:49:06Z</time>
      </trkpt>
      <trkpt lat="45.88554" lon="4.55048">
        <ele>361.6</ele>
        <time>2025-09-11T07:49:07Z</time>
      </trkpt>
      <trkpt lat="45.88557" lon="4.55054">
        <ele>361.4</ele>
        <time>2025-09-11T07:49:08Z</time>
      </trkpt>
      <trkpt lat="45.8856" lon="4.5506">
        <ele>361.4</ele>
        <time>2025-09-11T07:49:09Z</time>
      </trkpt>
      <trkpt lat="45.88563" lon="4.55067">
        <ele>361.4</ele>
        <time>2025-09-11T07:49:10Z</time>
      </trkpt>
      <trkpt lat="45.88566" lon="4.55072">
        <ele>360.8</ele>
        <time>2025-09-11T07:49:11Z</time>
      </trkpt>
      <trkpt lat="45.88569" lon="4.5508">
        <ele>360.8</ele>
        <time>2025-09-11T07:49:12Z</time>
      </trkpt>
      <trkpt lat="45.88572" lon="4.55088">
        <ele>360.4</ele>
        <time>2025-09-11T07:49:13Z</time>
      </trkpt>
      <trkpt lat="45.88576" lon="4.55096">
        <ele>360</ele>
        <time>2025-09-11T07:49:14Z</time>
      </trkpt>
      <trkpt lat="45.8858" lon="4.55103">
        <ele>360</ele>
        <time>2025-09-11T07:49:15Z</time>
      </trkpt>
      <trkpt lat="45.88584" lon="4.5511">
        <ele>359.8</ele>
        <time>2025-09-11T07:49:16Z</time>
      </trkpt>
      <trkpt lat="45.88587" lon="4.55117">
        <ele>359.6</ele>
        <time>2025-09-11T07:49:17Z</time>
      </trkpt>
      <trkpt lat="45.8859" lon="4.55124">
        <ele>359.2</ele>
        <time>2025-09-11T07:49:18Z</time>
      </trkpt>
      <trkpt lat="45.88593" lon="4.55131">
        <ele>359</ele>
        <time>2025-09-11T07:49:19Z</time>
      </trkpt>
      <trkpt lat="45.88596" lon="4.55139">
        <ele>358.6</ele>
        <time>2025-09-11T07:49:20Z</time>
      </trkpt>
      <trkpt lat="45.88599" lon="4.55147">
        <ele>358.4</ele>
        <time>2025-09-11T07:49:21Z</time>
      </trkpt>
      <trkpt lat="45.88603" lon="4.55154">
        <ele>357.8</ele>
        <time>2025-09-11T07:49:22Z</time>
      </trkpt>
      <trkpt lat="45.88605" lon="4.55162">
        <ele>357.2</ele>
        <time>2025-09-11T07:49:23Z</time>
      </trkpt>
      <trkpt lat="45.88608" lon="4.5517">
        <ele>356.8</ele>
        <time>2025-09-11T07:49:24Z</time>
      </trkpt>
      <trkpt lat="45.88612" lon="4.55178">
        <ele>356.2</ele>
        <time>2025-09-11T07:49:25Z</time>
      </trkpt>
      <trkpt lat="45.88615" lon="4.55187">
        <ele>355.2</ele>
        <time>2025-09-11T07:49:26Z</time>
      </trkpt>
      <trkpt lat="45.88618" lon="4.55195">
        <ele>354.4</ele>
        <time>2025-09-11T07:49:27Z</time>
      </trkpt>
      <trkpt lat="45.88621" lon="4.55204">
        <ele>354</ele>
        <time>2025-09-11T07:49:28Z</time>
      </trkpt>
      <trkpt lat="45.88624" lon="4.55212">
        <ele>353.2</ele>
        <time>2025-09-11T07:49:29Z</time>
      </trkpt>
      <trkpt lat="45.88628" lon="4.5522">
        <ele>352.4</ele>
        <time>2025-09-11T07:49:30Z</time>
      </trkpt>
      <trkpt lat="45.88632" lon="4.55227">
        <ele>351.8</ele>
        <time>2025-09-11T07:49:31Z</time>
      </trkpt>
      <trkpt lat="45.88638" lon="4.55235">
        <ele>351</ele>
        <time>2025-09-11T07:49:32Z</time>
      </trkpt>
      <trkpt lat="45.88638" lon="4.55235">
        <ele>350.4</ele>
        <time>2025-09-11T07:49:33Z</time>
      </trkpt>
      <trkpt lat="45.88638" lon="4.55235">
        <ele>350</ele>
        <time>2025-09-11T07:49:34Z</time>
      </trkpt>
      <trkpt lat="45.88656" lon="4.55255">
        <ele>349.6</ele>
        <time>2025-09-11T07:49:35Z</time>
      </trkpt>
      <trkpt lat="45.88662" lon="4.55261">
        <ele>349.2</ele>
        <time>2025-09-11T07:49:36Z</time>
      </trkpt>
      <trkpt lat="45.88669" lon="4.55267">
        <ele>348.4</ele>
        <time>2025-09-11T07:49:37Z</time>
      </trkpt>
      <trkpt lat="45.88675" lon="4.55274">
        <ele>348.4</ele>
        <time>2025-09-11T07:49:38Z</time>
      </trkpt>
      <trkpt lat="45.88682" lon="4.55281">
        <ele>347.6</ele>
        <time>2025-09-11T07:49:39Z</time>
      </trkpt>
      <trkpt lat="45.88687" lon="4.55287">
        <ele>347.2</ele>
        <time>2025-09-11T07:49:40Z</time>
      </trkpt>
      <trkpt lat="45.88692" lon="4.55293">
        <ele>346.8</ele>
        <time>2025-09-11T07:49:41Z</time>
      </trkpt>
      <trkpt lat="45.88697" lon="4.553">
        <ele>346.4</ele>
        <time>2025-09-11T07:49:42Z</time>
      </trkpt>
      <trkpt lat="45.88701" lon="4.55307">
        <ele>346</ele>
        <time>2025-09-11T07:49:43Z</time>
      </trkpt>
      <trkpt lat="45.88706" lon="4.55314">
        <ele>345.4</ele>
        <time>2025-09-11T07:49:44Z</time>
      </trkpt>
      <trkpt lat="45.8871" lon="4.5532">
        <ele>345.2</ele>
        <time>2025-09-11T07:49:45Z</time>
      </trkpt>
      <trkpt lat="45.88715" lon="4.55328">
        <ele>345</ele>
        <time>2025-09-11T07:49:46Z</time>
      </trkpt>
      <trkpt lat="45.88719" lon="4.55335">
        <ele>344.8</ele>
        <time>2025-09-11T07:49:47Z</time>
      </trkpt>
      <trkpt lat="45.88724" lon="4.55342">
        <ele>344.2</ele>
        <time>2025-09-11T07:49:48Z</time>
      </trkpt>
      <trkpt lat="45.88729" lon="4.55348">
        <ele>343.8</ele>
        <time>2025-09-11T07:49:49Z</time>
      </trkpt>
      <trkpt lat="45.88734" lon="4.55353">
        <ele>343.4</ele>
        <time>2025-09-11T07:49:50Z</time>
      </trkpt>
      <trkpt lat="45.88739" lon="4.55356">
        <ele>342.8</ele>
        <time>2025-09-11T07:49:51Z</time>
      </trkpt>
      <trkpt lat="45.88744" lon="4.5536">
        <ele>342.4</ele>
        <time>2025-09-11T07:49:52Z</time>
      </trkpt>
      <trkpt lat="45.88749" lon="4.55363">
        <ele>342</ele>
        <time>2025-09-11T07:49:53Z</time>
      </trkpt>
      <trkpt lat="45.88753" lon="4.55366">
        <ele>341.8</ele>
        <time>2025-09-11T07:49:54Z</time>
      </trkpt>
      <trkpt lat="45.88756" lon="4.55368">
        <ele>341.6</ele>
        <time>2025-09-11T07:49:55Z</time>
      </trkpt>
      <trkpt lat="45.88759" lon="4.55371">
        <ele>341</ele>
        <time>2025-09-11T07:49:56Z</time>
      </trkpt>
      <trkpt lat="45.88762" lon="4.55373">
        <ele>341</ele>
        <time>2025-09-11T07:49:57Z</time>
      </trkpt>
      <trkpt lat="45.88765" lon="4.55376">
        <ele>340.2</ele>
        <time>2025-09-11T07:49:58Z</time>
      </trkpt>
      <trkpt lat="45.88768" lon="4.55379">
        <ele>339.4</ele>
        <time>2025-09-11T07:49:59Z</time>
      </trkpt>
      <trkpt lat="45.88771" lon="4.55383">
        <ele>338.8</ele>
        <time>2025-09-11T07:50:00Z</time>
      </trkpt>
      <trkpt lat="45.88774" lon="4.55386">
        <ele>338</ele>
        <time>2025-09-11T07:50:01Z</time>
      </trkpt>
      <trkpt lat="45.88777" lon="4.5539">
        <ele>337.4</ele>
        <time>2025-09-11T07:50:02Z</time>
      </trkpt>
      <trkpt lat="45.8878" lon="4.55393">
        <ele>336.8</ele>
        <time>2025-09-11T07:50:03Z</time>
      </trkpt>
      <trkpt lat="45.88783" lon="4.55396">
        <ele>336.2</ele>
        <time>2025-09-11T07:50:04Z</time>
      </trkpt>
      <trkpt lat="45.88786" lon="4.55398">
        <ele>335.4</ele>
        <time>2025-09-11T07:50:05Z</time>
      </trkpt>
      <trkpt lat="45.88789" lon="4.55401">
        <ele>334.8</ele>
        <time>2025-09-11T07:50:06Z</time>
      </trkpt>
      <trkpt lat="45.88791" lon="4.55403">
        <ele>334.2</ele>
        <time>2025-09-11T07:50:07Z</time>
      </trkpt>
      <trkpt lat="45.88793" lon="4.55406">
        <ele>333.8</ele>
        <time>2025-09-11T07:50:08Z</time>
      </trkpt>
      <trkpt lat="45.88795" lon="4.55408">
        <ele>333.4</ele>
        <time>2025-09-11T07:50:09Z</time>
      </trkpt>
      <trkpt lat="45.88796" lon="4.55409">
        <ele>333</ele>
        <time>2025-09-11T07:50:10Z</time>
      </trkpt>
      <trkpt lat="45.88797" lon="4.5541">
        <ele>332.8</ele>
        <time>2025-09-11T07:50:11Z</time>
      </trkpt>
      <trkpt lat="45.88798" lon="4.5541">
        <ele>332.6</ele>
        <time>2025-09-11T07:50:12Z</time>
      </trkpt>
      <trkpt lat="45.88798" lon="4.5541">
        <ele>332.6</ele>
        <time>2025-09-11T07:50:13Z</time>
      </trkpt>
      <trkpt lat="45.88799" lon="4.5541">
        <ele>332</ele>
        <time>2025-09-11T07:50:25Z</time>
      </trkpt>
      <trkpt lat="45.888" lon="4.55412">
        <ele>331.8</ele>
        <time>2025-09-11T07:50:26Z</time>
      </trkpt>
      <trkpt lat="45.888" lon="4.55414">
        <ele>331.8</ele>
        <time>2025-09-11T07:50:27Z</time>
      </trkpt>
      <trkpt lat="45.88801" lon="4.55416">
        <ele>331.6</ele>
        <time>2025-09-11T07:50:28Z</time>
      </trkpt>
      <trkpt lat="45.88802" lon="4.55418">
        <ele>331.6</ele>
        <time>2025-09-11T07:50:29Z</time>
      </trkpt>
      <trkpt lat="45.88803" lon="4.5542">
        <ele>331.2</ele>
        <time>2025-09-11T07:50:30Z</time>
      </trkpt>
      <trkpt lat="45.88803" lon="4.55423">
        <ele>331.2</ele>
        <time>2025-09-11T07:50:31Z</time>
      </trkpt>
      <trkpt lat="45.88804" lon="4.55425">
        <ele>331</ele>
        <time>2025-09-11T07:50:32Z</time>
      </trkpt>
      <trkpt lat="45.88804" lon="4.55427">
        <ele>331</ele>
        <time>2025-09-11T07:50:33Z</time>
      </trkpt>
      <trkpt lat="45.88805" lon="4.5543">
        <ele>330.6</ele>
        <time>2025-09-11T07:50:34Z</time>
      </trkpt>
      <trkpt lat="45.88805" lon="4.55434">
        <ele>330.2</ele>
        <time>2025-09-11T07:50:35Z</time>
      </trkpt>
      <trkpt lat="45.88805" lon="4.55438">
        <ele>329.6</ele>
        <time>2025-09-11T07:50:36Z</time>
      </trkpt>
      <trkpt lat="45.88805" lon="4.55442">
        <ele>328.8</ele>
        <time>2025-09-11T07:50:37Z</time>
      </trkpt>
      <trkpt lat="45.88805" lon="4.55447">
        <ele>328.2</ele>
        <time>2025-09-11T07:50:38Z</time>
      </trkpt>
      <trkpt lat="45.88806" lon="4.55453">
        <ele>327.6</ele>
        <time>2025-09-11T07:50:39Z</time>
      </trkpt>
      <trkpt lat="45.88807" lon="4.55458">
        <ele>327.8</ele>
        <time>2025-09-11T07:50:40Z</time>
      </trkpt>
      <trkpt lat="45.88807" lon="4.55464">
        <ele>327.6</ele>
        <time>2025-09-11T07:50:41Z</time>
      </trkpt>
      <trkpt lat="45.88808" lon="4.55469">
        <ele>327.2</ele>
        <time>2025-09-11T07:50:42Z</time>
      </trkpt>
      <trkpt lat="45.88809" lon="4.55474">
        <ele>326.8</ele>
        <time>2025-09-11T07:50:43Z</time>
      </trkpt>
      <trkpt lat="45.88809" lon="4.55478">
        <ele>326.6</ele>
        <time>2025-09-11T07:50:44Z</time>
      </trkpt>
      <trkpt lat="45.88809" lon="4.55483">
        <ele>326.2</ele>
        <time>2025-09-11T07:50:45Z</time>
      </trkpt>
      <trkpt lat="45.88808" lon="4.55488">
        <ele>326</ele>
        <time>2025-09-11T07:50:46Z</time>
      </trkpt>
      <trkpt lat="45.88809" lon="4.55493">
        <ele>325.6</ele>
        <time>2025-09-11T07:50:47Z</time>
      </trkpt>
      <trkpt lat="45.88809" lon="4.55498">
        <ele>325.2</ele>
        <time>2025-09-11T07:50:48Z</time>
      </trkpt>
      <trkpt lat="45.8881" lon="4.55502">
        <ele>324.8</ele>
        <time>2025-09-11T07:50:49Z</time>
      </trkpt>
      <trkpt lat="45.88811" lon="4.55506">
        <ele>324.2</ele>
        <time>2025-09-11T07:50:50Z</time>
      </trkpt>
      <trkpt lat="45.88814" lon="4.55509">
        <ele>323.6</ele>
        <time>2025-09-11T07:50:51Z</time>
      </trkpt>
      <trkpt lat="45.88816" lon="4.55512">
        <ele>323.2</ele>
        <time>2025-09-11T07:50:52Z</time>
      </trkpt>
      <trkpt lat="45.8882" lon="4.55515">
        <ele>322.6</ele>
        <time>2025-09-11T07:50:53Z</time>
      </trkpt>
      <trkpt lat="45.88827" lon="4.55519">
        <ele>322.2</ele>
        <time>2025-09-11T07:50:54Z</time>
      </trkpt>
      <trkpt lat="45.8883" lon="4.5552">
        <ele>321.8</ele>
        <time>2025-09-11T07:50:55Z</time>
      </trkpt>
      <trkpt lat="45.88832" lon="4.55522">
        <ele>321.4</ele>
        <time>2025-09-11T07:50:56Z</time>
      </trkpt>
      <trkpt lat="45.88836" lon="4.55524">
        <ele>321</ele>
        <time>2025-09-11T07:50:57Z</time>
      </trkpt>
      <trkpt lat="45.88841" lon="4.55526">
        <ele>320.4</ele>
        <time>2025-09-11T07:50:58Z</time>
      </trkpt>
      <trkpt lat="45.88845" lon="4.55528">
        <ele>320</ele>
        <time>2025-09-11T07:50:59Z</time>
      </trkpt>
      <trkpt lat="45.8885" lon="4.55532">
        <ele>319.6</ele>
        <time>2025-09-11T07:51:00Z</time>
      </trkpt>
      <trkpt lat="45.88856" lon="4.55535">
        <ele>319.6</ele>
        <time>2025-09-11T07:51:01Z</time>
      </trkpt>
      <trkpt lat="45.88861" lon="4.55539">
        <ele>319.2</ele>
        <time>2025-09-11T07:51:02Z</time>
      </trkpt>
      <trkpt lat="45.88863" lon="4.55544">
        <ele>318.8</ele>
        <time>2025-09-11T07:51:03Z</time>
      </trkpt>
      <trkpt lat="45.88871" lon="4.55549">
        <ele>318.2</ele>
        <time>2025-09-11T07:51:04Z</time>
      </trkpt>
      <trkpt lat="45.88877" lon="4.55554">
        <ele>317.6</ele>
        <time>2025-09-11T07:51:05Z</time>
      </trkpt>
      <trkpt lat="45.88886" lon="4.55558">
        <ele>317.2</ele>
        <time>2025-09-11T07:51:06Z</time>
      </trkpt>
      <trkpt lat="45.88893" lon="4.55564">
        <ele>316.6</ele>
        <time>2025-09-11T07:51:07Z</time>
      </trkpt>
      <trkpt lat="45.889" lon="4.55569">
        <ele>316.4</ele>
        <time>2025-09-11T07:51:08Z</time>
      </trkpt>
      <trkpt lat="45.88907" lon="4.55574">
        <ele>316.4</ele>
        <time>2025-09-11T07:51:09Z</time>
      </trkpt>
      <trkpt lat="45.88915" lon="4.55579">
        <ele>315.6</ele>
        <time>2025-09-11T07:51:10Z</time>
      </trkpt>
      <trkpt lat="45.88921" lon="4.55584">
        <ele>315.2</ele>
        <time>2025-09-11T07:51:11Z</time>
      </trkpt>
      <trkpt lat="45.88929" lon="4.55589">
        <ele>315</ele>
        <time>2025-09-11T07:51:12Z</time>
      </trkpt>
      <trkpt lat="45.88936" lon="4.55593">
        <ele>314.6</ele>
        <time>2025-09-11T07:51:13Z</time>
      </trkpt>
      <trkpt lat="45.88942" lon="4.55597">
        <ele>314.4</ele>
        <time>2025-09-11T07:51:14Z</time>
      </trkpt>
      <trkpt lat="45.88947" lon="4.556">
        <ele>314.4</ele>
        <time>2025-09-11T07:51:15Z</time>
      </trkpt>
      <trkpt lat="45.88952" lon="4.55604">
        <ele>314</ele>
        <time>2025-09-11T07:51:16Z</time>
      </trkpt>
      <trkpt lat="45.88956" lon="4.55608">
        <ele>313.6</ele>
        <time>2025-09-11T07:51:17Z</time>
      </trkpt>
      <trkpt lat="45.8896" lon="4.55612">
        <ele>313.2</ele>
        <time>2025-09-11T07:51:18Z</time>
      </trkpt>
      <trkpt lat="45.88964" lon="4.55616">
        <ele>313.2</ele>
        <time>2025-09-11T07:51:19Z</time>
      </trkpt>
      <trkpt lat="45.88967" lon="4.55622">
        <ele>313.2</ele>
        <time>2025-09-11T07:51:20Z</time>
      </trkpt>
      <trkpt lat="45.88968" lon="4.55629">
        <ele>313.2</ele>
        <time>2025-09-11T07:51:21Z</time>
      </trkpt>
      <trkpt lat="45.8897" lon="4.55636">
        <ele>313.2</ele>
        <time>2025-09-11T07:51:22Z</time>
      </trkpt>
      <trkpt lat="45.88969" lon="4.55644">
        <ele>313.8</ele>
        <time>2025-09-11T07:51:23Z</time>
      </trkpt>
      <trkpt lat="45.88969" lon="4.55651">
        <ele>313.4</ele>
        <time>2025-09-11T07:51:24Z</time>
      </trkpt>
      <trkpt lat="45.8897" lon="4.55659">
        <ele>313.4</ele>
        <time>2025-09-11T07:51:25Z</time>
      </trkpt>
      <trkpt lat="45.8897" lon="4.55667">
        <ele>313</ele>
        <time>2025-09-11T07:51:26Z</time>
      </trkpt>
      <trkpt lat="45.8897" lon="4.55674">
        <ele>313</ele>
        <time>2025-09-11T07:51:27Z</time>
      </trkpt>
      <trkpt lat="45.88971" lon="4.55682">
        <ele>313.4</ele>
        <time>2025-09-11T07:51:28Z</time>
      </trkpt>
      <trkpt lat="45.88971" lon="4.55689">
        <ele>313.4</ele>
        <time>2025-09-11T07:51:29Z</time>
      </trkpt>
      <trkpt lat="45.88971" lon="4.55696">
        <ele>313.4</ele>
        <time>2025-09-11T07:51:30Z</time>
      </trkpt>
      <trkpt lat="45.88973" lon="4.55703">
        <ele>313.4</ele>
        <time>2025-09-11T07:51:31Z</time>
      </trkpt>
      <trkpt lat="45.88973" lon="4.5571">
        <ele>313.4</ele>
        <time>2025-09-11T07:51:32Z</time>
      </trkpt>
      <trkpt lat="45.88974" lon="4.55717">
        <ele>313.4</ele>
        <time>2025-09-11T07:51:33Z</time>
      </trkpt>
      <trkpt lat="45.88975" lon="4.55724">
        <ele>313.4</ele>
        <time>2025-09-11T07:51:34Z</time>
      </trkpt>
      <trkpt lat="45.88976" lon="4.55731">
        <ele>313.4</ele>
        <time>2025-09-11T07:51:35Z</time>
      </trkpt>
      <trkpt lat="45.88977" lon="4.55738">
        <ele>313.4</ele>
        <time>2025-09-11T07:51:36Z</time>
      </trkpt>
      <trkpt lat="45.88979" lon="4.55744">
        <ele>313.4</ele>
        <time>2025-09-11T07:51:37Z</time>
      </trkpt>
      <trkpt lat="45.8898" lon="4.5575">
        <ele>313.4</ele>
        <time>2025-09-11T07:51:38Z</time>
      </trkpt>
      <trkpt lat="45.88984" lon="4.55755">
        <ele>313.6</ele>
        <time>2025-09-11T07:51:39Z</time>
      </trkpt>
      <trkpt lat="45.88987" lon="4.5576">
        <ele>314</ele>
        <time>2025-09-11T07:51:40Z</time>
      </trkpt>
      <trkpt lat="45.8899" lon="4.55765">
        <ele>314.2</ele>
        <time>2025-09-11T07:51:41Z</time>
      </trkpt>
      <trkpt lat="45.88993" lon="4.5577">
        <ele>314.2</ele>
        <time>2025-09-11T07:51:42Z</time>
      </trkpt>
      <trkpt lat="45.88997" lon="4.55774">
        <ele>314</ele>
        <time>2025-09-11T07:51:43Z</time>
      </trkpt>
      <trkpt lat="45.89001" lon="4.55778">
        <ele>314.2</ele>
        <time>2025-09-11T07:51:44Z</time>
      </trkpt>
      <trkpt lat="45.89005" lon="4.55782">
        <ele>314.2</ele>
        <time>2025-09-11T07:51:45Z</time>
      </trkpt>
      <trkpt lat="45.89009" lon="4.55785">
        <ele>314.2</ele>
        <time>2025-09-11T07:51:46Z</time>
      </trkpt>
      <trkpt lat="45.89013" lon="4.55788">
        <ele>314.2</ele>
        <time>2025-09-11T07:51:47Z</time>
      </trkpt>
      <trkpt lat="45.89017" lon="4.55791">
        <ele>313.8</ele>
        <time>2025-09-11T07:51:48Z</time>
      </trkpt>
      <trkpt lat="45.89021" lon="4.55794">
        <ele>313.8</ele>
        <time>2025-09-11T07:51:49Z</time>
      </trkpt>
      <trkpt lat="45.89024" lon="4.55797">
        <ele>313.8</ele>
        <time>2025-09-11T07:51:50Z</time>
      </trkpt>
      <trkpt lat="45.89027" lon="4.558">
        <ele>313.8</ele>
        <time>2025-09-11T07:51:51Z</time>
      </trkpt>
      <trkpt lat="45.89031" lon="4.55802">
        <ele>313.8</ele>
        <time>2025-09-11T07:51:52Z</time>
      </trkpt>
      <trkpt lat="45.89035" lon="4.55805">
        <ele>313.8</ele>
        <time>2025-09-11T07:51:53Z</time>
      </trkpt>
      <trkpt lat="45.89038" lon="4.55808">
        <ele>313.8</ele>
        <time>2025-09-11T07:51:54Z</time>
      </trkpt>
      <trkpt lat="45.89042" lon="4.5581">
        <ele>313.8</ele>
        <time>2025-09-11T07:51:55Z</time>
      </trkpt>
      <trkpt lat="45.89046" lon="4.55813">
        <ele>313.2</ele>
        <time>2025-09-11T07:51:56Z</time>
      </trkpt>
      <trkpt lat="45.8905" lon="4.55817">
        <ele>313.2</ele>
        <time>2025-09-11T07:51:57Z</time>
      </trkpt>
      <trkpt lat="45.89055" lon="4.55821">
        <ele>312.8</ele>
        <time>2025-09-11T07:51:58Z</time>
      </trkpt>
      <trkpt lat="45.89059" lon="4.55824">
        <ele>312.6</ele>
        <time>2025-09-11T07:51:59Z</time>
      </trkpt>
      <trkpt lat="45.89063" lon="4.55829">
        <ele>312.6</ele>
        <time>2025-09-11T07:52:00Z</time>
      </trkpt>
      <trkpt lat="45.89069" lon="4.55833">
        <ele>312.2</ele>
        <time>2025-09-11T07:52:01Z</time>
      </trkpt>
      <trkpt lat="45.89074" lon="4.55836">
        <ele>312.2</ele>
        <time>2025-09-11T07:52:02Z</time>
      </trkpt>
      <trkpt lat="45.89079" lon="4.55839">
        <ele>312.2</ele>
        <time>2025-09-11T07:52:03Z</time>
      </trkpt>
      <trkpt lat="45.89084" lon="4.55842">
        <ele>311.8</ele>
        <time>2025-09-11T07:52:04Z</time>
      </trkpt>
      <trkpt lat="45.89089" lon="4.55845">
        <ele>311.4</ele>
        <time>2025-09-11T07:52:05Z</time>
      </trkpt>
      <trkpt lat="45.89095" lon="4.55848">
        <ele>311.2</ele>
        <time>2025-09-11T07:52:06Z</time>
      </trkpt>
      <trkpt lat="45.891" lon="4.5585">
        <ele>311</ele>
        <time>2025-09-11T07:52:07Z</time>
      </trkpt>
      <trkpt lat="45.89105" lon="4.55853">
        <ele>311</ele>
        <time>2025-09-11T07:52:08Z</time>
      </trkpt>
      <trkpt lat="45.89109" lon="4.55856">
        <ele>310.6</ele>
        <time>2025-09-11T07:52:09Z</time>
      </trkpt>
      <trkpt lat="45.89114" lon="4.55858">
        <ele>310.6</ele>
        <time>2025-09-11T07:52:10Z</time>
      </trkpt>
      <trkpt lat="45.89119" lon="4.55861">
        <ele>310.2</ele>
        <time>2025-09-11T07:52:11Z</time>
      </trkpt>
      <trkpt lat="45.89124" lon="4.55864">
        <ele>310.2</ele>
        <time>2025-09-11T07:52:12Z</time>
      </trkpt>
      <trkpt lat="45.8913" lon="4.55868">
        <ele>309.8</ele>
        <time>2025-09-11T07:52:13Z</time>
      </trkpt>
      <trkpt lat="45.89135" lon="4.55872">
        <ele>309.4</ele>
        <time>2025-09-11T07:52:14Z</time>
      </trkpt>
      <trkpt lat="45.8914" lon="4.55875">
        <ele>308.8</ele>
        <time>2025-09-11T07:52:15Z</time>
      </trkpt>
      <trkpt lat="45.89145" lon="4.55877">
        <ele>308.4</ele>
        <time>2025-09-11T07:52:16Z</time>
      </trkpt>
      <trkpt lat="45.8915" lon="4.5588">
        <ele>307.8</ele>
        <time>2025-09-11T07:52:17Z</time>
      </trkpt>
      <trkpt lat="45.89156" lon="4.55882">
        <ele>307.4</ele>
        <time>2025-09-11T07:52:18Z</time>
      </trkpt>
      <trkpt lat="45.89161" lon="4.55884">
        <ele>307</ele>
        <time>2025-09-11T07:52:19Z</time>
      </trkpt>
      <trkpt lat="45.89165" lon="4.55886">
        <ele>307</ele>
        <time>2025-09-11T07:52:20Z</time>
      </trkpt>
      <trkpt lat="45.8917" lon="4.55888">
        <ele>306.2</ele>
        <time>2025-09-11T07:52:21Z</time>
      </trkpt>
      <trkpt lat="45.89176" lon="4.55892">
        <ele>305.8</ele>
        <time>2025-09-11T07:52:22Z</time>
      </trkpt>
      <trkpt lat="45.89181" lon="4.55895">
        <ele>305.2</ele>
        <time>2025-09-11T07:52:23Z</time>
      </trkpt>
      <trkpt lat="45.89185" lon="4.55897">
        <ele>304.8</ele>
        <time>2025-09-11T07:52:24Z</time>
      </trkpt>
      <trkpt lat="45.89188" lon="4.55898">
        <ele>304.6</ele>
        <time>2025-09-11T07:52:25Z</time>
      </trkpt>
      <trkpt lat="45.89189" lon="4.55899">
        <ele>304.2</ele>
        <time>2025-09-11T07:52:26Z</time>
      </trkpt>
      <trkpt lat="45.8919" lon="4.55899">
        <ele>304</ele>
        <time>2025-09-11T07:52:27Z</time>
      </trkpt>
      <trkpt lat="45.89191" lon="4.55899">
        <ele>303.6</ele>
        <time>2025-09-11T07:52:28Z</time>
      </trkpt>
      <trkpt lat="45.89191" lon="4.55899">
        <ele>303.6</ele>
        <time>2025-09-11T07:52:29Z</time>
      </trkpt>
      <trkpt lat="45.89191" lon="4.55899">
        <ele>303.6</ele>
        <time>2025-09-11T07:52:30Z</time>
      </trkpt>
      <trkpt lat="45.89194" lon="4.55903">
        <ele>302.2</ele>
        <time>2025-09-11T07:53:19Z</time>
      </trkpt>
      <trkpt lat="45.89197" lon="4.55905">
        <ele>302.2</ele>
        <time>2025-09-11T07:53:20Z</time>
      </trkpt>
      <trkpt lat="45.892" lon="4.55907">
        <ele>302.2</ele>
        <time>2025-09-11T07:53:21Z</time>
      </trkpt>
      <trkpt lat="45.89203" lon="4.55908">
        <ele>302</ele>
        <time>2025-09-11T07:53:22Z</time>
      </trkpt>
      <trkpt lat="45.89207" lon="4.55911">
        <ele>302</ele>
        <time>2025-09-11T07:53:23Z</time>
      </trkpt>
      <trkpt lat="45.89212" lon="4.55913">
        <ele>301.4</ele>
        <time>2025-09-11T07:53:24Z</time>
      </trkpt>
      <trkpt lat="45.89217" lon="4.55915">
        <ele>301.2</ele>
        <time>2025-09-11T07:53:25Z</time>
      </trkpt>
      <trkpt lat="45.89221" lon="4.55918">
        <ele>301.2</ele>
        <time>2025-09-11T07:53:26Z</time>
      </trkpt>
      <trkpt lat="45.89226" lon="4.55919">
        <ele>301.2</ele>
        <time>2025-09-11T07:53:27Z</time>
      </trkpt>
      <trkpt lat="45.8923" lon="4.55922">
        <ele>301.2</ele>
        <time>2025-09-11T07:53:28Z</time>
      </trkpt>
      <trkpt lat="45.89235" lon="4.55923">
        <ele>301.2</ele>
        <time>2025-09-11T07:53:29Z</time>
      </trkpt>
      <trkpt lat="45.89239" lon="4.55924">
        <ele>300.8</ele>
        <time>2025-09-11T07:53:30Z</time>
      </trkpt>
      <trkpt lat="45.89243" lon="4.55927">
        <ele>300.8</ele>
        <time>2025-09-11T07:53:31Z</time>
      </trkpt>
      <trkpt lat="45.89249" lon="4.55926">
        <ele>300.8</ele>
        <time>2025-09-11T07:53:32Z</time>
      </trkpt>
      <trkpt lat="45.89254" lon="4.55927">
        <ele>300.4</ele>
        <time>2025-09-11T07:53:33Z</time>
      </trkpt>
      <trkpt lat="45.89258" lon="4.55929">
        <ele>300.2</ele>
        <time>2025-09-11T07:53:34Z</time>
      </trkpt>
      <trkpt lat="45.89262" lon="4.5593">
        <ele>300.2</ele>
        <time>2025-09-11T07:53:35Z</time>
      </trkpt>
      <trkpt lat="45.89268" lon="4.55931">
        <ele>300.2</ele>
        <time>2025-09-11T07:53:36Z</time>
      </trkpt>
      <trkpt lat="45.89272" lon="4.55933">
        <ele>300</ele>
        <time>2025-09-11T07:53:37Z</time>
      </trkpt>
      <trkpt lat="45.89275" lon="4.55934">
        <ele>300</ele>
        <time>2025-09-11T07:53:38Z</time>
      </trkpt>
      <trkpt lat="45.8928" lon="4.55938">
        <ele>300</ele>
        <time>2025-09-11T07:53:39Z</time>
      </trkpt>
      <trkpt lat="45.89283" lon="4.55941">
        <ele>300</ele>
        <time>2025-09-11T07:53:40Z</time>
      </trkpt>
      <trkpt lat="45.89287" lon="4.55943">
        <ele>300</ele>
        <time>2025-09-11T07:53:41Z</time>
      </trkpt>
      <trkpt lat="45.89291" lon="4.55948">
        <ele>300.4</ele>
        <time>2025-09-11T07:53:42Z</time>
      </trkpt>
      <trkpt lat="45.89295" lon="4.55951">
        <ele>300.2</ele>
        <time>2025-09-11T07:53:43Z</time>
      </trkpt>
      <trkpt lat="45.89297" lon="4.55957">
        <ele>300.2</ele>
        <time>2025-09-11T07:53:44Z</time>
      </trkpt>
      <trkpt lat="45.89299" lon="4.55962">
        <ele>300.2</ele>
        <time>2025-09-11T07:53:45Z</time>
      </trkpt>
      <trkpt lat="45.89301" lon="4.55969">
        <ele>299.8</ele>
        <time>2025-09-11T07:53:46Z</time>
      </trkpt>
      <trkpt lat="45.89304" lon="4.55973">
        <ele>299.8</ele>
        <time>2025-09-11T07:53:47Z</time>
      </trkpt>
      <trkpt lat="45.89306" lon="4.55978">
        <ele>300.2</ele>
        <time>2025-09-11T07:53:48Z</time>
      </trkpt>
      <trkpt lat="45.8931" lon="4.55984">
        <ele>300.2</ele>
        <time>2025-09-11T07:53:49Z</time>
      </trkpt>
      <trkpt lat="45.89312" lon="4.5599">
        <ele>300.2</ele>
        <time>2025-09-11T07:53:50Z</time>
      </trkpt>
      <trkpt lat="45.89315" lon="4.55996">
        <ele>300.2</ele>
        <time>2025-09-11T07:53:51Z</time>
      </trkpt>
      <trkpt lat="45.89318" lon="4.56002">
        <ele>300.2</ele>
        <time>2025-09-11T07:53:52Z</time>
      </trkpt>
      <trkpt lat="45.8932" lon="4.56008">
        <ele>300.6</ele>
        <time>2025-09-11T07:53:53Z</time>
      </trkpt>
      <trkpt lat="45.89324" lon="4.56012">
        <ele>300.6</ele>
        <time>2025-09-11T07:53:54Z</time>
      </trkpt>
      <trkpt lat="45.89327" lon="4.56017">
        <ele>300.2</ele>
        <time>2025-09-11T07:53:55Z</time>
      </trkpt>
      <trkpt lat="45.8933" lon="4.56023">
        <ele>300.2</ele>
        <time>2025-09-11T07:53:56Z</time>
      </trkpt>
      <trkpt lat="45.89333" lon="4.56028">
        <ele>300.6</ele>
        <time>2025-09-11T07:53:57Z</time>
      </trkpt>
      <trkpt lat="45.89336" lon="4.56033">
        <ele>300.6</ele>
        <time>2025-09-11T07:53:58Z</time>
      </trkpt>
      <trkpt lat="45.8934" lon="4.56037">
        <ele>300.6</ele>
        <time>2025-09-11T07:53:59Z</time>
      </trkpt>
      <trkpt lat="45.89344" lon="4.56041">
        <ele>301</ele>
        <time>2025-09-11T07:54:00Z</time>
      </trkpt>
      <trkpt lat="45.89348" lon="4.56045">
        <ele>301</ele>
        <time>2025-09-11T07:54:01Z</time>
      </trkpt>
      <trkpt lat="45.89351" lon="4.56049">
        <ele>301.4</ele>
        <time>2025-09-11T07:54:02Z</time>
      </trkpt>
      <trkpt lat="45.89354" lon="4.56053">
        <ele>301.6</ele>
        <time>2025-09-11T07:54:03Z</time>
      </trkpt>
      <trkpt lat="45.89358" lon="4.56056">
        <ele>301.6</ele>
        <time>2025-09-11T07:54:04Z</time>
      </trkpt>
      <trkpt lat="45.8936" lon="4.56059">
        <ele>302</ele>
        <time>2025-09-11T07:54:05Z</time>
      </trkpt>
      <trkpt lat="45.89363" lon="4.56062">
        <ele>302.2</ele>
        <time>2025-09-11T07:54:06Z</time>
      </trkpt>
      <trkpt lat="45.89365" lon="4.56064">
        <ele>302.2</ele>
        <time>2025-09-11T07:54:07Z</time>
      </trkpt>
      <trkpt lat="45.89367" lon="4.56067">
        <ele>302.6</ele>
        <time>2025-09-11T07:54:08Z</time>
      </trkpt>
      <trkpt lat="45.89369" lon="4.5607">
        <ele>302.6</ele>
        <time>2025-09-11T07:54:09Z</time>
      </trkpt>
      <trkpt lat="45.89372" lon="4.56071">
        <ele>302.8</ele>
        <time>2025-09-11T07:54:10Z</time>
      </trkpt>
      <trkpt lat="45.89374" lon="4.56073">
        <ele>303.2</ele>
        <time>2025-09-11T07:54:11Z</time>
      </trkpt>
      <trkpt lat="45.89375" lon="4.56075">
        <ele>303.2</ele>
        <time>2025-09-11T07:54:12Z</time>
      </trkpt>
      <trkpt lat="45.89378" lon="4.56077">
        <ele>303.4</ele>
        <time>2025-09-11T07:54:13Z</time>
      </trkpt>
      <trkpt lat="45.8938" lon="4.56079">
        <ele>303.4</ele>
        <time>2025-09-11T07:54:14Z</time>
      </trkpt>
      <trkpt lat="45.89382" lon="4.56081">
        <ele>303.4</ele>
        <time>2025-09-11T07:54:15Z</time>
      </trkpt>
      <trkpt lat="45.89384" lon="4.56083">
        <ele>303.4</ele>
        <time>2025-09-11T07:54:16Z</time>
      </trkpt>
      <trkpt lat="45.89386" lon="4.56085">
        <ele>303.6</ele>
        <time>2025-09-11T07:54:17Z</time>
      </trkpt>
      <trkpt lat="45.89387" lon="4.56086">
        <ele>303.6</ele>
        <time>2025-09-11T07:54:18Z</time>
      </trkpt>
      <trkpt lat="45.89388" lon="4.56085">
        <ele>303.6</ele>
        <time>2025-09-11T07:54:19Z</time>
      </trkpt>
      <trkpt lat="45.89388" lon="4.56081">
        <ele>303.6</ele>
        <time>2025-09-11T07:54:20Z</time>
      </trkpt>
      <trkpt lat="45.89387" lon="4.56078">
        <ele>303.6</ele>
        <time>2025-09-11T07:54:21Z</time>
      </trkpt>
      <trkpt lat="45.89386" lon="4.56075">
        <ele>303.6</ele>
        <time>2025-09-11T07:54:22Z</time>
      </trkpt>
      <trkpt lat="45.89386" lon="4.56072">
        <ele>304</ele>
        <time>2025-09-11T07:54:23Z</time>
      </trkpt>
      <trkpt lat="45.89386" lon="4.56069">
        <ele>304</ele>
        <time>2025-09-11T07:54:24Z</time>
      </trkpt>
      <trkpt lat="45.89386" lon="4.56066">
        <ele>304</ele>
        <time>2025-09-11T07:54:25Z</time>
      </trkpt>
      <trkpt lat="45.89386" lon="4.56064">
        <ele>304.4</ele>
        <time>2025-09-11T07:54:26Z</time>
      </trkpt>
      <trkpt lat="45.89385" lon="4.56061">
        <ele>304.4</ele>
        <time>2025-09-11T07:54:27Z</time>
      </trkpt>
      <trkpt lat="45.89385" lon="4.56059">
        <ele>304.4</ele>
        <time>2025-09-11T07:54:28Z</time>
      </trkpt>
      <trkpt lat="45.89385" lon="4.56057">
        <ele>304.6</ele>
        <time>2025-09-11T07:54:29Z</time>
      </trkpt>
      <trkpt lat="45.89385" lon="4.56054">
        <ele>304.6</ele>
        <time>2025-09-11T07:54:30Z</time>
      </trkpt>
      <trkpt lat="45.89385" lon="4.56051">
        <ele>304.6</ele>
        <time>2025-09-11T07:54:31Z</time>
      </trkpt>
      <trkpt lat="45.89385" lon="4.56048">
        <ele>304.6</ele>
        <time>2025-09-11T07:54:32Z</time>
      </trkpt>
      <trkpt lat="45.89385" lon="4.56045">
        <ele>305</ele>
        <time>2025-09-11T07:54:33Z</time>
      </trkpt>
      <trkpt lat="45.89385" lon="4.56041">
        <ele>304.8</ele>
        <time>2025-09-11T07:54:34Z</time>
      </trkpt>
      <trkpt lat="45.89385" lon="4.56037">
        <ele>304.8</ele>
        <time>2025-09-11T07:54:35Z</time>
      </trkpt>
      <trkpt lat="45.89385" lon="4.56034">
        <ele>304.8</ele>
        <time>2025-09-11T07:54:36Z</time>
      </trkpt>
      <trkpt lat="45.89385" lon="4.5603">
        <ele>304.8</ele>
        <time>2025-09-11T07:54:37Z</time>
      </trkpt>
      <trkpt lat="45.89385" lon="4.56027">
        <ele>304.8</ele>
        <time>2025-09-11T07:54:38Z</time>
      </trkpt>
      <trkpt lat="45.89385" lon="4.56026">
        <ele>304.8</ele>
        <time>2025-09-11T07:54:39Z</time>
      </trkpt>
      <trkpt lat="45.89385" lon="4.56026">
        <ele>305.2</ele>
        <time>2025-09-11T07:54:40Z</time>
      </trkpt>
      <trkpt lat="45.89384" lon="4.56027">
        <ele>305.2</ele>
        <time>2025-09-11T07:54:41Z</time>
      </trkpt>
      <trkpt lat="45.89384" lon="4.56027">
        <ele>305.2</ele>
        <time>2025-09-11T07:54:42Z</time>
      </trkpt>
      <trkpt lat="45.89383" lon="4.56026">
        <ele>305</ele>
        <time>2025-09-11T07:55:11Z</time>
      </trkpt>
      <trkpt lat="45.89383" lon="4.56023">
        <ele>304.8</ele>
        <time>2025-09-11T07:55:12Z</time>
      </trkpt>
      <trkpt lat="45.89383" lon="4.56019">
        <ele>304.8</ele>
        <time>2025-09-11T07:55:13Z</time>
      </trkpt>
      <trkpt lat="45.89383" lon="4.56016">
        <ele>304.8</ele>
        <time>2025-09-11T07:55:14Z</time>
      </trkpt>
      <trkpt lat="45.89383" lon="4.56012">
        <ele>304.8</ele>
        <time>2025-09-11T07:55:15Z</time>
      </trkpt>
      <trkpt lat="45.89383" lon="4.56008">
        <ele>305.2</ele>
        <time>2025-09-11T07:55:16Z</time>
      </trkpt>
      <trkpt lat="45.89383" lon="4.56003">
        <ele>304.4</ele>
        <time>2025-09-11T07:55:17Z</time>
      </trkpt>
      <trkpt lat="45.89383" lon="4.55998">
        <ele>304.4</ele>
        <time>2025-09-11T07:55:18Z</time>
      </trkpt>
      <trkpt lat="45.89383" lon="4.55994">
        <ele>305.2</ele>
        <time>2025-09-11T07:55:19Z</time>
      </trkpt>
      <trkpt lat="45.89384" lon="4.5599">
        <ele>305.6</ele>
        <time>2025-09-11T07:55:20Z</time>
      </trkpt>
      <trkpt lat="45.89384" lon="4.55986">
        <ele>305.6</ele>
        <time>2025-09-11T07:55:21Z</time>
      </trkpt>
      <trkpt lat="45.89384" lon="4.55981">
        <ele>305.6</ele>
        <time>2025-09-11T07:55:22Z</time>
      </trkpt>
      <trkpt lat="45.89384" lon="4.55977">
        <ele>305.8</ele>
        <time>2025-09-11T07:55:23Z</time>
      </trkpt>
      <trkpt lat="45.89383" lon="4.55973">
        <ele>305.8</ele>
        <time>2025-09-11T07:55:24Z</time>
      </trkpt>
      <trkpt lat="45.89383" lon="4.55971">
        <ele>306.2</ele>
        <time>2025-09-11T07:55:25Z</time>
      </trkpt>
      <trkpt lat="45.89383" lon="4.55967">
        <ele>306.2</ele>
        <time>2025-09-11T07:55:26Z</time>
      </trkpt>
      <trkpt lat="45.89382" lon="4.55963">
        <ele>306.6</ele>
        <time>2025-09-11T07:55:27Z</time>
      </trkpt>
      <trkpt lat="45.89383" lon="4.55959">
        <ele>306.6</ele>
        <time>2025-09-11T07:55:28Z</time>
      </trkpt>
      <trkpt lat="45.89383" lon="4.55956">
        <ele>306.8</ele>
        <time>2025-09-11T07:55:29Z</time>
      </trkpt>
      <trkpt lat="45.89384" lon="4.55954">
        <ele>307</ele>
        <time>2025-09-11T07:55:30Z</time>
      </trkpt>
      <trkpt lat="45.89385" lon="4.5595">
        <ele>307.6</ele>
        <time>2025-09-11T07:55:31Z</time>
      </trkpt>
      <trkpt lat="45.89385" lon="4.55947">
        <ele>307.6</ele>
        <time>2025-09-11T07:55:32Z</time>
      </trkpt>
      <trkpt lat="45.89385" lon="4.55944">
        <ele>307.6</ele>
        <time>2025-09-11T07:55:33Z</time>
      </trkpt>
      <trkpt lat="45.89386" lon="4.55941">
        <ele>308.2</ele>
        <time>2025-09-11T07:55:34Z</time>
      </trkpt>
      <trkpt lat="45.89387" lon="4.55939">
        <ele>308.2</ele>
        <time>2025-09-11T07:55:35Z</time>
      </trkpt>
      <trkpt lat="45.89388" lon="4.55937">
        <ele>308.6</ele>
        <time>2025-09-11T07:55:36Z</time>
      </trkpt>
      <trkpt lat="45.89389" lon="4.55936">
        <ele>308.6</ele>
        <time>2025-09-11T07:55:37Z</time>
      </trkpt>
      <trkpt lat="45.8939" lon="4.55935">
        <ele>308.6</ele>
        <time>2025-09-11T07:55:38Z</time>
      </trkpt>
      <trkpt lat="45.89392" lon="4.55935">
        <ele>308.6</ele>
        <time>2025-09-11T07:55:39Z</time>
      </trkpt>
      <trkpt lat="45.89394" lon="4.55937">
        <ele>308.6</ele>
        <time>2025-09-11T07:55:40Z</time>
      </trkpt>
      <trkpt lat="45.89395" lon="4.55939">
        <ele>308.6</ele>
        <time>2025-09-11T07:55:41Z</time>
      </trkpt>
      <trkpt lat="45.89396" lon="4.55942">
        <ele>308.6</ele>
        <time>2025-09-11T07:55:42Z</time>
      </trkpt>
      <trkpt lat="45.89397" lon="4.55945">
        <ele>308.6</ele>
        <time>2025-09-11T07:55:43Z</time>
      </trkpt>
      <trkpt lat="45.89399" lon="4.55947">
        <ele>308.6</ele>
        <time>2025-09-11T07:55:44Z</time>
      </trkpt>
      <trkpt lat="45.89401" lon="4.5595">
        <ele>308.6</ele>
        <time>2025-09-11T07:55:45Z</time>
      </trkpt>
      <trkpt lat="45.89403" lon="4.55953">
        <ele>308.6</ele>
        <time>2025-09-11T07:55:46Z</time>
      </trkpt>
      <trkpt lat="45.89405" lon="4.55957">
        <ele>308.6</ele>
        <time>2025-09-11T07:55:47Z</time>
      </trkpt>
      <trkpt lat="45.89407" lon="4.55961">
        <ele>308.6</ele>
        <time>2025-09-11T07:55:48Z</time>
      </trkpt>
      <trkpt lat="45.89409" lon="4.55966">
        <ele>308.6</ele>
        <time>2025-09-11T07:55:49Z</time>
      </trkpt>
      <trkpt lat="45.89411" lon="4.5597">
        <ele>308.6</ele>
        <time>2025-09-11T07:55:50Z</time>
      </trkpt>
      <trkpt lat="45.89413" lon="4.55974">
        <ele>308.6</ele>
        <time>2025-09-11T07:55:51Z</time>
      </trkpt>
      <trkpt lat="45.89415" lon="4.55978">
        <ele>308.6</ele>
        <time>2025-09-11T07:55:52Z</time>
      </trkpt>
      <trkpt lat="45.89418" lon="4.55983">
        <ele>308.2</ele>
        <time>2025-09-11T07:55:53Z</time>
      </trkpt>
      <trkpt lat="45.8942" lon="4.55987">
        <ele>308.2</ele>
        <time>2025-09-11T07:55:54Z</time>
      </trkpt>
      <trkpt lat="45.89422" lon="4.55991">
        <ele>308.2</ele>
        <time>2025-09-11T07:55:55Z</time>
      </trkpt>
      <trkpt lat="45.89425" lon="4.55995">
        <ele>307.8</ele>
        <time>2025-09-11T07:55:56Z</time>
      </trkpt>
      <trkpt lat="45.89428" lon="4.55998">
        <ele>307.8</ele>
        <time>2025-09-11T07:55:57Z</time>
      </trkpt>
      <trkpt lat="45.89431" lon="4.56002">
        <ele>307.8</ele>
        <time>2025-09-11T07:55:58Z</time>
      </trkpt>
      <trkpt lat="45.89434" lon="4.56004">
        <ele>307.8</ele>
        <time>2025-09-11T07:55:59Z</time>
      </trkpt>
      <trkpt lat="45.89437" lon="4.56007">
        <ele>308.2</ele>
        <time>2025-09-11T07:56:00Z</time>
      </trkpt>
      <trkpt lat="45.8944" lon="4.56009">
        <ele>307.8</ele>
        <time>2025-09-11T07:56:01Z</time>
      </trkpt>
      <trkpt lat="45.89443" lon="4.5601">
        <ele>308</ele>
        <time>2025-09-11T07:56:02Z</time>
      </trkpt>
      <trkpt lat="45.89445" lon="4.56012">
        <ele>308</ele>
        <time>2025-09-11T07:56:03Z</time>
      </trkpt>
      <trkpt lat="45.89448" lon="4.56013">
        <ele>308</ele>
        <time>2025-09-11T07:56:04Z</time>
      </trkpt>
      <trkpt lat="45.89451" lon="4.56013">
        <ele>308</ele>
        <time>2025-09-11T07:56:05Z</time>
      </trkpt>
      <trkpt lat="45.89454" lon="4.56014">
        <ele>307.8</ele>
        <time>2025-09-11T07:56:06Z</time>
      </trkpt>
      <trkpt lat="45.89456" lon="4.56014">
        <ele>307.8</ele>
        <time>2025-09-11T07:56:07Z</time>
      </trkpt>
      <trkpt lat="45.89459" lon="4.56015">
        <ele>307.6</ele>
        <time>2025-09-11T07:56:08Z</time>
      </trkpt>
      <trkpt lat="45.89462" lon="4.56015">
        <ele>307.6</ele>
        <time>2025-09-11T07:56:09Z</time>
      </trkpt>
      <trkpt lat="45.89465" lon="4.56016">
        <ele>307.6</ele>
        <time>2025-09-11T07:56:10Z</time>
      </trkpt>
      <trkpt lat="45.89468" lon="4.56016">
        <ele>307.6</ele>
        <time>2025-09-11T07:56:11Z</time>
      </trkpt>
      <trkpt lat="45.89472" lon="4.56016">
        <ele>307.6</ele>
        <time>2025-09-11T07:56:12Z</time>
      </trkpt>
      <trkpt lat="45.89475" lon="4.56016">
        <ele>307.6</ele>
        <time>2025-09-11T07:56:13Z</time>
      </trkpt>
      <trkpt lat="45.89478" lon="4.56016">
        <ele>307.6</ele>
        <time>2025-09-11T07:56:14Z</time>
      </trkpt>
      <trkpt lat="45.89482" lon="4.56016">
        <ele>307.6</ele>
        <time>2025-09-11T07:56:15Z</time>
      </trkpt>
      <trkpt lat="45.89485" lon="4.56016">
        <ele>307.4</ele>
        <time>2025-09-11T07:56:16Z</time>
      </trkpt>
      <trkpt lat="45.89488" lon="4.56016">
        <ele>307.4</ele>
        <time>2025-09-11T07:56:17Z</time>
      </trkpt>
      <trkpt lat="45.8949" lon="4.56016">
        <ele>307.4</ele>
        <time>2025-09-11T07:56:18Z</time>
      </trkpt>
      <trkpt lat="45.89491" lon="4.56015">
        <ele>307.4</ele>
        <time>2025-09-11T07:56:19Z</time>
      </trkpt>
      <trkpt lat="45.89492" lon="4.56015">
        <ele>307.4</ele>
        <time>2025-09-11T07:56:20Z</time>
      </trkpt>
      <trkpt lat="45.89493" lon="4.56015">
        <ele>307.4</ele>
        <time>2025-09-11T07:56:21Z</time>
      </trkpt>
      <trkpt lat="45.89495" lon="4.56015">
        <ele>307.4</ele>
        <time>2025-09-11T07:56:22Z</time>
      </trkpt>
      <trkpt lat="45.89498" lon="4.56015">
        <ele>307.4</ele>
        <time>2025-09-11T07:56:23Z</time>
      </trkpt>
      <trkpt lat="45.895" lon="4.56015">
        <ele>307.4</ele>
        <time>2025-09-11T07:56:24Z</time>
      </trkpt>
      <trkpt lat="45.89502" lon="4.56015">
        <ele>307.4</ele>
        <time>2025-09-11T07:56:25Z</time>
      </trkpt>
      <trkpt lat="45.89504" lon="4.56014">
        <ele>307.4</ele>
        <time>2025-09-11T07:56:26Z</time>
      </trkpt>
      <trkpt lat="45.89506" lon="4.56012">
        <ele>307.4</ele>
        <time>2025-09-11T07:56:27Z</time>
      </trkpt>
      <trkpt lat="45.89509" lon="4.5601">
        <ele>306.8</ele>
        <time>2025-09-11T07:56:28Z</time>
      </trkpt>
      <trkpt lat="45.89513" lon="4.56007">
        <ele>306.8</ele>
        <time>2025-09-11T07:56:29Z</time>
      </trkpt>
      <trkpt lat="45.89516" lon="4.56004">
        <ele>306.6</ele>
        <time>2025-09-11T07:56:30Z</time>
      </trkpt>
      <trkpt lat="45.8952" lon="4.56001">
        <ele>306.8</ele>
        <time>2025-09-11T07:56:31Z</time>
      </trkpt>
      <trkpt lat="45.89523" lon="4.55998">
        <ele>306.8</ele>
        <time>2025-09-11T07:56:32Z</time>
      </trkpt>
      <trkpt lat="45.89526" lon="4.55994">
        <ele>306.8</ele>
        <time>2025-09-11T07:56:33Z</time>
      </trkpt>
      <trkpt lat="45.8953" lon="4.5599">
        <ele>306.8</ele>
        <time>2025-09-11T07:56:34Z</time>
      </trkpt>
      <trkpt lat="45.89533" lon="4.55986">
        <ele>306.8</ele>
        <time>2025-09-11T07:56:35Z</time>
      </trkpt>
      <trkpt lat="45.89536" lon="4.55982">
        <ele>306.8</ele>
        <time>2025-09-11T07:56:36Z</time>
      </trkpt>
      <trkpt lat="45.89539" lon="4.55978">
        <ele>306.8</ele>
        <time>2025-09-11T07:56:37Z</time>
      </trkpt>
      <trkpt lat="45.89542" lon="4.55974">
        <ele>306.8</ele>
        <time>2025-09-11T07:56:38Z</time>
      </trkpt>
      <trkpt lat="45.89545" lon="4.55969">
        <ele>306.8</ele>
        <time>2025-09-11T07:56:39Z</time>
      </trkpt>
      <trkpt lat="45.89546" lon="4.55963">
        <ele>306.4</ele>
        <time>2025-09-11T07:56:40Z</time>
      </trkpt>
      <trkpt lat="45.89549" lon="4.55958">
        <ele>306.4</ele>
        <time>2025-09-11T07:56:41Z</time>
      </trkpt>
      <trkpt lat="45.89552" lon="4.55953">
        <ele>306</ele>
        <time>2025-09-11T07:56:42Z</time>
      </trkpt>
      <trkpt lat="45.89556" lon="4.55947">
        <ele>305.8</ele>
        <time>2025-09-11T07:56:43Z</time>
      </trkpt>
      <trkpt lat="45.89558" lon="4.55941">
        <ele>305.8</ele>
        <time>2025-09-11T07:56:44Z</time>
      </trkpt>
      <trkpt lat="45.8956" lon="4.55935">
        <ele>305.4</ele>
        <time>2025-09-11T07:56:45Z</time>
      </trkpt>
      <trkpt lat="45.89562" lon="4.5593">
        <ele>305.4</ele>
        <time>2025-09-11T07:56:46Z</time>
      </trkpt>
      <trkpt lat="45.89564" lon="4.55924">
        <ele>305.4</ele>
        <time>2025-09-11T07:56:47Z</time>
      </trkpt>
      <trkpt lat="45.89566" lon="4.55917">
        <ele>305.2</ele>
        <time>2025-09-11T07:56:48Z</time>
      </trkpt>
      <trkpt lat="45.89567" lon="4.55911">
        <ele>305.2</ele>
        <time>2025-09-11T07:56:49Z</time>
      </trkpt>
      <trkpt lat="45.89569" lon="4.55903">
        <ele>304.8</ele>
        <time>2025-09-11T07:56:50Z</time>
      </trkpt>
      <trkpt lat="45.89572" lon="4.55896">
        <ele>304.4</ele>
        <time>2025-09-11T07:56:51Z</time>
      </trkpt>
      <trkpt lat="45.89576" lon="4.55888">
        <ele>304.4</ele>
        <time>2025-09-11T07:56:52Z</time>
      </trkpt>
      <trkpt lat="45.89578" lon="4.55881">
        <ele>304.2</ele>
        <time>2025-09-11T07:56:53Z</time>
      </trkpt>
      <trkpt lat="45.8958" lon="4.55872">
        <ele>304.2</ele>
        <time>2025-09-11T07:56:54Z</time>
      </trkpt>
      <trkpt lat="45.89583" lon="4.55868">
        <ele>304.2</ele>
        <time>2025-09-11T07:56:55Z</time>
      </trkpt>
      <trkpt lat="45.89586" lon="4.55863">
        <ele>304</ele>
        <time>2025-09-11T07:56:56Z</time>
      </trkpt>
      <trkpt lat="45.8959" lon="4.55857">
        <ele>304</ele>
        <time>2025-09-11T07:56:57Z</time>
      </trkpt>
      <trkpt lat="45.89595" lon="4.55853">
        <ele>303.6</ele>
        <time>2025-09-11T07:56:58Z</time>
      </trkpt>
      <trkpt lat="45.89598" lon="4.55848">
        <ele>303.2</ele>
        <time>2025-09-11T07:56:59Z</time>
      </trkpt>
      <trkpt lat="45.89602" lon="4.55844">
        <ele>303.2</ele>
        <time>2025-09-11T07:57:00Z</time>
      </trkpt>
      <trkpt lat="45.89607" lon="4.5584">
        <ele>303.2</ele>
        <time>2025-09-11T07:57:01Z</time>
      </trkpt>
      <trkpt lat="45.8961" lon="4.55837">
        <ele>302.8</ele>
        <time>2025-09-11T07:57:02Z</time>
      </trkpt>
      <trkpt lat="45.89613" lon="4.55831">
        <ele>302.6</ele>
        <time>2025-09-11T07:57:03Z</time>
      </trkpt>
      <trkpt lat="45.89619" lon="4.5583">
        <ele>302.2</ele>
        <time>2025-09-11T07:57:04Z</time>
      </trkpt>
      <trkpt lat="45.89624" lon="4.55828">
        <ele>301.6</ele>
        <time>2025-09-11T07:57:05Z</time>
      </trkpt>
      <trkpt lat="45.89627" lon="4.55825">
        <ele>301.6</ele>
        <time>2025-09-11T07:57:06Z</time>
      </trkpt>
      <trkpt lat="45.89627" lon="4.55827">
        <ele>301.6</ele>
        <time>2025-09-11T07:57:07Z</time>
      </trkpt>
      <trkpt lat="45.8963" lon="4.55827">
        <ele>301.6</ele>
        <time>2025-09-11T07:57:08Z</time>
      </trkpt>
      <trkpt lat="45.8963" lon="4.55827">
        <ele>301.6</ele>
        <time>2025-09-11T07:57:09Z</time>
      </trkpt>
      <trkpt lat="45.89632" lon="4.55828">
        <ele>301.4</ele>
        <time>2025-09-11T07:57:10Z</time>
      </trkpt>
      <trkpt lat="45.89634" lon="4.55828">
        <ele>301.2</ele>
        <time>2025-09-11T07:57:11Z</time>
      </trkpt>
      <trkpt lat="45.89637" lon="4.55828">
        <ele>301.2</ele>
        <time>2025-09-11T07:57:12Z</time>
      </trkpt>
      <trkpt lat="45.89639" lon="4.55827">
        <ele>301.2</ele>
        <time>2025-09-11T07:57:13Z</time>
      </trkpt>
      <trkpt lat="45.89641" lon="4.55828">
        <ele>301.2</ele>
        <time>2025-09-11T07:57:14Z</time>
      </trkpt>
      <trkpt lat="45.89644" lon="4.55827">
        <ele>301.2</ele>
        <time>2025-09-11T07:57:15Z</time>
      </trkpt>
      <trkpt lat="45.89647" lon="4.55829">
        <ele>301.2</ele>
        <time>2025-09-11T07:57:16Z</time>
      </trkpt>
      <trkpt lat="45.8965" lon="4.5583">
        <ele>301.2</ele>
        <time>2025-09-11T07:57:17Z</time>
      </trkpt>
      <trkpt lat="45.89654" lon="4.55832">
        <ele>301.2</ele>
        <time>2025-09-11T07:57:18Z</time>
      </trkpt>
      <trkpt lat="45.89657" lon="4.55833">
        <ele>300.8</ele>
        <time>2025-09-11T07:57:19Z</time>
      </trkpt>
      <trkpt lat="45.8966" lon="4.55835">
        <ele>300.4</ele>
        <time>2025-09-11T07:57:20Z</time>
      </trkpt>
      <trkpt lat="45.89663" lon="4.55837">
        <ele>300.8</ele>
        <time>2025-09-11T07:57:21Z</time>
      </trkpt>
      <trkpt lat="45.89666" lon="4.55839">
        <ele>300.8</ele>
        <time>2025-09-11T07:57:22Z</time>
      </trkpt>
      <trkpt lat="45.8967" lon="4.55842">
        <ele>300.6</ele>
        <time>2025-09-11T07:57:23Z</time>
      </trkpt>
      <trkpt lat="45.89675" lon="4.55847">
        <ele>300</ele>
        <time>2025-09-11T07:57:24Z</time>
      </trkpt>
      <trkpt lat="45.89679" lon="4.55847">
        <ele>299.8</ele>
        <time>2025-09-11T07:57:25Z</time>
      </trkpt>
      <trkpt lat="45.89683" lon="4.55852">
        <ele>299.8</ele>
        <time>2025-09-11T07:57:26Z</time>
      </trkpt>
      <trkpt lat="45.89688" lon="4.55854">
        <ele>299.4</ele>
        <time>2025-09-11T07:57:27Z</time>
      </trkpt>
      <trkpt lat="45.89691" lon="4.55858">
        <ele>299</ele>
        <time>2025-09-11T07:57:28Z</time>
      </trkpt>
      <trkpt lat="45.89693" lon="4.55864">
        <ele>299</ele>
        <time>2025-09-11T07:57:29Z</time>
      </trkpt>
      <trkpt lat="45.89696" lon="4.55868">
        <ele>299</ele>
        <time>2025-09-11T07:57:30Z</time>
      </trkpt>
      <trkpt lat="45.89697" lon="4.55876">
        <ele>299</ele>
        <time>2025-09-11T07:57:31Z</time>
      </trkpt>
      <trkpt lat="45.89696" lon="4.55884">
        <ele>298.8</ele>
        <time>2025-09-11T07:57:32Z</time>
      </trkpt>
      <trkpt lat="45.89697" lon="4.55889">
        <ele>298.2</ele>
        <time>2025-09-11T07:57:33Z</time>
      </trkpt>
      <trkpt lat="45.89698" lon="4.55895">
        <ele>297.6</ele>
        <time>2025-09-11T07:57:34Z</time>
      </trkpt>
      <trkpt lat="45.89699" lon="4.55904">
        <ele>297.6</ele>
        <time>2025-09-11T07:57:35Z</time>
      </trkpt>
      <trkpt lat="45.897" lon="4.55913">
        <ele>297.6</ele>
        <time>2025-09-11T07:57:36Z</time>
      </trkpt>
      <trkpt lat="45.897" lon="4.55919">
        <ele>297.4</ele>
        <time>2025-09-11T07:57:37Z</time>
      </trkpt>
      <trkpt lat="45.89699" lon="4.55927">
        <ele>297.4</ele>
        <time>2025-09-11T07:57:38Z</time>
      </trkpt>
      <trkpt lat="45.89699" lon="4.55935">
        <ele>297.4</ele>
        <time>2025-09-11T07:57:39Z</time>
      </trkpt>
      <trkpt lat="45.89701" lon="4.55943">
        <ele>297.4</ele>
        <time>2025-09-11T07:57:40Z</time>
      </trkpt>
      <trkpt lat="45.89702" lon="4.55951">
        <ele>297.4</ele>
        <time>2025-09-11T07:57:41Z</time>
      </trkpt>
      <trkpt lat="45.89702" lon="4.55957">
        <ele>297.2</ele>
        <time>2025-09-11T07:57:42Z</time>
      </trkpt>
      <trkpt lat="45.89701" lon="4.55964">
        <ele>297.2</ele>
        <time>2025-09-11T07:57:43Z</time>
      </trkpt>
      <trkpt lat="45.89704" lon="4.55971">
        <ele>296.8</ele>
        <time>2025-09-11T07:57:44Z</time>
      </trkpt>
      <trkpt lat="45.89708" lon="4.55978">
        <ele>296</ele>
        <time>2025-09-11T07:57:45Z</time>
      </trkpt>
      <trkpt lat="45.89711" lon="4.55983">
        <ele>296</ele>
        <time>2025-09-11T07:57:46Z</time>
      </trkpt>
      <trkpt lat="45.89715" lon="4.55989">
        <ele>296</ele>
        <time>2025-09-11T07:57:47Z</time>
      </trkpt>
      <trkpt lat="45.89719" lon="4.55995">
        <ele>296</ele>
        <time>2025-09-11T07:57:48Z</time>
      </trkpt>
      <trkpt lat="45.89723" lon="4.56">
        <ele>295.6</ele>
        <time>2025-09-11T07:57:49Z</time>
      </trkpt>
      <trkpt lat="45.89726" lon="4.56005">
        <ele>295.6</ele>
        <time>2025-09-11T07:57:50Z</time>
      </trkpt>
      <trkpt lat="45.89731" lon="4.5601">
        <ele>295.6</ele>
        <time>2025-09-11T07:57:51Z</time>
      </trkpt>
      <trkpt lat="45.89737" lon="4.56013">
        <ele>295.6</ele>
        <time>2025-09-11T07:57:52Z</time>
      </trkpt>
      <trkpt lat="45.89742" lon="4.56016">
        <ele>295.6</ele>
        <time>2025-09-11T07:57:53Z</time>
      </trkpt>
      <trkpt lat="45.89746" lon="4.56018">
        <ele>295.2</ele>
        <time>2025-09-11T07:57:54Z</time>
      </trkpt>
      <trkpt lat="45.89751" lon="4.5602">
        <ele>295.2</ele>
        <time>2025-09-11T07:57:55Z</time>
      </trkpt>
      <trkpt lat="45.89756" lon="4.56022">
        <ele>295.2</ele>
        <time>2025-09-11T07:57:56Z</time>
      </trkpt>
      <trkpt lat="45.89761" lon="4.56022">
        <ele>294.8</ele>
        <time>2025-09-11T07:57:57Z</time>
      </trkpt>
      <trkpt lat="45.89766" lon="4.56023">
        <ele>294.2</ele>
        <time>2025-09-11T07:57:58Z</time>
      </trkpt>
      <trkpt lat="45.8977" lon="4.56025">
        <ele>294</ele>
        <time>2025-09-11T07:57:59Z</time>
      </trkpt>
      <trkpt lat="45.89774" lon="4.56025">
        <ele>294</ele>
        <time>2025-09-11T07:58:00Z</time>
      </trkpt>
      <trkpt lat="45.89778" lon="4.56025">
        <ele>293.8</ele>
        <time>2025-09-11T07:58:01Z</time>
      </trkpt>
      <trkpt lat="45.89782" lon="4.56025">
        <ele>293.8</ele>
        <time>2025-09-11T07:58:02Z</time>
      </trkpt>
      <trkpt lat="45.89785" lon="4.56025">
        <ele>293.6</ele>
        <time>2025-09-11T07:58:03Z</time>
      </trkpt>
      <trkpt lat="45.89789" lon="4.56027">
        <ele>293.6</ele>
        <time>2025-09-11T07:58:04Z</time>
      </trkpt>
      <trkpt lat="45.89793" lon="4.56027">
        <ele>293.6</ele>
        <time>2025-09-11T07:58:05Z</time>
      </trkpt>
      <trkpt lat="45.89798" lon="4.56028">
        <ele>293.2</ele>
        <time>2025-09-11T07:58:06Z</time>
      </trkpt>
      <trkpt lat="45.89801" lon="4.56029">
        <ele>293.2</ele>
        <time>2025-09-11T07:58:07Z</time>
      </trkpt>
      <trkpt lat="45.89804" lon="4.5603">
        <ele>293.2</ele>
        <time>2025-09-11T07:58:08Z</time>
      </trkpt>
      <trkpt lat="45.89807" lon="4.56031">
        <ele>293.2</ele>
        <time>2025-09-11T07:58:09Z</time>
      </trkpt>
      <trkpt lat="45.8981" lon="4.56031">
        <ele>293</ele>
        <time>2025-09-11T07:58:10Z</time>
      </trkpt>
      <trkpt lat="45.89815" lon="4.56034">
        <ele>293</ele>
        <time>2025-09-11T07:58:11Z</time>
      </trkpt>
      <trkpt lat="45.89819" lon="4.56037">
        <ele>293</ele>
        <time>2025-09-11T07:58:12Z</time>
      </trkpt>
      <trkpt lat="45.89822" lon="4.5604">
        <ele>292.6</ele>
        <time>2025-09-11T07:58:13Z</time>
      </trkpt>
      <trkpt lat="45.89826" lon="4.56043">
        <ele>292.4</ele>
        <time>2025-09-11T07:58:14Z</time>
      </trkpt>
      <trkpt lat="45.8983" lon="4.56046">
        <ele>292.4</ele>
        <time>2025-09-11T07:58:15Z</time>
      </trkpt>
      <trkpt lat="45.89833" lon="4.56051">
        <ele>292.4</ele>
        <time>2025-09-11T07:58:16Z</time>
      </trkpt>
      <trkpt lat="45.89837" lon="4.56055">
        <ele>292</ele>
        <time>2025-09-11T07:58:17Z</time>
      </trkpt>
      <trkpt lat="45.89841" lon="4.56059">
        <ele>291.6</ele>
        <time>2025-09-11T07:58:18Z</time>
      </trkpt>
      <trkpt lat="45.89844" lon="4.56065">
        <ele>291.6</ele>
        <time>2025-09-11T07:58:19Z</time>
      </trkpt>
      <trkpt lat="45.89847" lon="4.5607">
        <ele>291.6</ele>
        <time>2025-09-11T07:58:20Z</time>
      </trkpt>
      <trkpt lat="45.89851" lon="4.56075">
        <ele>291.6</ele>
        <time>2025-09-11T07:58:21Z</time>
      </trkpt>
      <trkpt lat="45.89854" lon="4.56081">
        <ele>291.6</ele>
        <time>2025-09-11T07:58:22Z</time>
      </trkpt>
      <trkpt lat="45.89856" lon="4.56084">
        <ele>291.2</ele>
        <time>2025-09-11T07:58:23Z</time>
      </trkpt>
      <trkpt lat="45.89859" lon="4.5609">
        <ele>291.2</ele>
        <time>2025-09-11T07:58:24Z</time>
      </trkpt>
      <trkpt lat="45.8986" lon="4.56095">
        <ele>291.2</ele>
        <time>2025-09-11T07:58:25Z</time>
      </trkpt>
      <trkpt lat="45.89862" lon="4.561">
        <ele>290.6</ele>
        <time>2025-09-11T07:58:26Z</time>
      </trkpt>
      <trkpt lat="45.89864" lon="4.56105">
        <ele>290.6</ele>
        <time>2025-09-11T07:58:27Z</time>
      </trkpt>
      <trkpt lat="45.89866" lon="4.56111">
        <ele>290.6</ele>
        <time>2025-09-11T07:58:28Z</time>
      </trkpt>
      <trkpt lat="45.8987" lon="4.56116">
        <ele>290.6</ele>
        <time>2025-09-11T07:58:29Z</time>
      </trkpt>
      <trkpt lat="45.89873" lon="4.5612">
        <ele>290.2</ele>
        <time>2025-09-11T07:58:30Z</time>
      </trkpt>
      <trkpt lat="45.89876" lon="4.56127">
        <ele>290</ele>
        <time>2025-09-11T07:58:31Z</time>
      </trkpt>
      <trkpt lat="45.8988" lon="4.56132">
        <ele>290</ele>
        <time>2025-09-11T07:58:32Z</time>
      </trkpt>
      <trkpt lat="45.89885" lon="4.56136">
        <ele>289.4</ele>
        <time>2025-09-11T07:58:33Z</time>
      </trkpt>
      <trkpt lat="45.89889" lon="4.56141">
        <ele>289.4</ele>
        <time>2025-09-11T07:58:34Z</time>
      </trkpt>
      <trkpt lat="45.89893" lon="4.56142">
        <ele>289.2</ele>
        <time>2025-09-11T07:58:35Z</time>
      </trkpt>
      <trkpt lat="45.89896" lon="4.56145">
        <ele>289</ele>
        <time>2025-09-11T07:58:36Z</time>
      </trkpt>
      <trkpt lat="45.899" lon="4.56147">
        <ele>289</ele>
        <time>2025-09-11T07:58:37Z</time>
      </trkpt>
      <trkpt lat="45.89903" lon="4.56148">
        <ele>289.2</ele>
        <time>2025-09-11T07:58:38Z</time>
      </trkpt>
      <trkpt lat="45.89907" lon="4.5615">
        <ele>288.4</ele>
        <time>2025-09-11T07:58:39Z</time>
      </trkpt>
      <trkpt lat="45.89911" lon="4.56152">
        <ele>288.4</ele>
        <time>2025-09-11T07:58:40Z</time>
      </trkpt>
      <trkpt lat="45.89915" lon="4.56153">
        <ele>288.4</ele>
        <time>2025-09-11T07:58:41Z</time>
      </trkpt>
      <trkpt lat="45.8992" lon="4.56154">
        <ele>288.4</ele>
        <time>2025-09-11T07:58:42Z</time>
      </trkpt>
      <trkpt lat="45.89925" lon="4.56154">
        <ele>288.4</ele>
        <time>2025-09-11T07:58:43Z</time>
      </trkpt>
      <trkpt lat="45.8993" lon="4.56156">
        <ele>288.4</ele>
        <time>2025-09-11T07:58:44Z</time>
      </trkpt>
      <trkpt lat="45.89935" lon="4.56157">
        <ele>288.4</ele>
        <time>2025-09-11T07:58:45Z</time>
      </trkpt>
      <trkpt lat="45.8994" lon="4.56158">
        <ele>288</ele>
        <time>2025-09-11T07:58:46Z</time>
      </trkpt>
      <trkpt lat="45.89945" lon="4.5616">
        <ele>287.8</ele>
        <time>2025-09-11T07:58:47Z</time>
      </trkpt>
      <trkpt lat="45.89951" lon="4.56162">
        <ele>287.4</ele>
        <time>2025-09-11T07:58:48Z</time>
      </trkpt>
      <trkpt lat="45.89955" lon="4.56165">
        <ele>287.2</ele>
        <time>2025-09-11T07:58:49Z</time>
      </trkpt>
      <trkpt lat="45.8996" lon="4.56167">
        <ele>287.2</ele>
        <time>2025-09-11T07:58:50Z</time>
      </trkpt>
      <trkpt lat="45.89965" lon="4.5617">
        <ele>287.2</ele>
        <time>2025-09-11T07:58:51Z</time>
      </trkpt>
      <trkpt lat="45.89968" lon="4.56173">
        <ele>287.2</ele>
        <time>2025-09-11T07:58:52Z</time>
      </trkpt>
      <trkpt lat="45.89973" lon="4.56176">
        <ele>286.6</ele>
        <time>2025-09-11T07:58:53Z</time>
      </trkpt>
      <trkpt lat="45.89977" lon="4.56181">
        <ele>286.6</ele>
        <time>2025-09-11T07:58:54Z</time>
      </trkpt>
      <trkpt lat="45.89981" lon="4.56184">
        <ele>286.6</ele>
        <time>2025-09-11T07:58:55Z</time>
      </trkpt>
      <trkpt lat="45.89985" lon="4.56189">
        <ele>286.2</ele>
        <time>2025-09-11T07:58:56Z</time>
      </trkpt>
      <trkpt lat="45.89987" lon="4.56194">
        <ele>286</ele>
        <time>2025-09-11T07:58:57Z</time>
      </trkpt>
      <trkpt lat="45.8999" lon="4.56199">
        <ele>286</ele>
        <time>2025-09-11T07:58:58Z</time>
      </trkpt>
      <trkpt lat="45.89992" lon="4.56205">
        <ele>285.6</ele>
        <time>2025-09-11T07:58:59Z</time>
      </trkpt>
      <trkpt lat="45.89993" lon="4.56208">
        <ele>285.6</ele>
        <time>2025-09-11T07:59:00Z</time>
      </trkpt>
      <trkpt lat="45.89993" lon="4.56213">
        <ele>285.2</ele>
        <time>2025-09-11T07:59:01Z</time>
      </trkpt>
      <trkpt lat="45.89994" lon="4.56217">
        <ele>285.2</ele>
        <time>2025-09-11T07:59:02Z</time>
      </trkpt>
      <trkpt lat="45.89994" lon="4.56221">
        <ele>285.2</ele>
        <time>2025-09-11T07:59:03Z</time>
      </trkpt>
      <trkpt lat="45.89994" lon="4.56224">
        <ele>285.2</ele>
        <time>2025-09-11T07:59:04Z</time>
      </trkpt>
      <trkpt lat="45.89994" lon="4.56227">
        <ele>285.2</ele>
        <time>2025-09-11T07:59:05Z</time>
      </trkpt>
      <trkpt lat="45.89995" lon="4.5623">
        <ele>285.2</ele>
        <time>2025-09-11T07:59:06Z</time>
      </trkpt>
      <trkpt lat="45.89994" lon="4.56231">
        <ele>285.2</ele>
        <time>2025-09-11T07:59:07Z</time>
      </trkpt>
      <trkpt lat="45.89994" lon="4.56232">
        <ele>285.2</ele>
        <time>2025-09-11T07:59:08Z</time>
      </trkpt>
      <trkpt lat="45.89996" lon="4.56233">
        <ele>285.2</ele>
        <time>2025-09-11T07:59:09Z</time>
      </trkpt>
      <trkpt lat="45.89997" lon="4.56234">
        <ele>285.2</ele>
        <time>2025-09-11T07:59:10Z</time>
      </trkpt>
      <trkpt lat="45.9" lon="4.56237">
        <ele>285</ele>
        <time>2025-09-11T07:59:11Z</time>
      </trkpt>
      <trkpt lat="45.90002" lon="4.56239">
        <ele>285</ele>
        <time>2025-09-11T07:59:12Z</time>
      </trkpt>
      <trkpt lat="45.90003" lon="4.5624">
        <ele>284.6</ele>
        <time>2025-09-11T07:59:13Z</time>
      </trkpt>
      <trkpt lat="45.90003" lon="4.56241">
        <ele>284.6</ele>
        <time>2025-09-11T07:59:14Z</time>
      </trkpt>
      <trkpt lat="45.90003" lon="4.56241">
        <ele>284.6</ele>
        <time>2025-09-11T07:59:15Z</time>
      </trkpt>
      <trkpt lat="45.90003" lon="4.56241">
        <ele>284.4</ele>
        <time>2025-09-11T07:59:16Z</time>
      </trkpt>
      <trkpt lat="45.90003" lon="4.56241">
        <ele>284.4</ele>
        <time>2025-09-11T07:59:17Z</time>
      </trkpt>
      <trkpt lat="45.90002" lon="4.56243">
        <ele>284.6</ele>
        <time>2025-09-11T07:59:29Z</time>
      </trkpt>
      <trkpt lat="45.90003" lon="4.56245">
        <ele>284.2</ele>
        <time>2025-09-11T07:59:30Z</time>
      </trkpt>
      <trkpt lat="45.90003" lon="4.56246">
        <ele>284.2</ele>
        <time>2025-09-11T07:59:31Z</time>
      </trkpt>
      <trkpt lat="45.90004" lon="4.56248">
        <ele>284</ele>
        <time>2025-09-11T07:59:32Z</time>
      </trkpt>
      <trkpt lat="45.90003" lon="4.56248">
        <ele>284</ele>
        <time>2025-09-11T07:59:33Z</time>
      </trkpt>
      <trkpt lat="45.90003" lon="4.56248">
        <ele>284</ele>
        <time>2025-09-11T07:59:34Z</time>
      </trkpt>
      <trkpt lat="45.90002" lon="4.56248">
        <ele>283.8</ele>
        <time>2025-09-11T08:00:13Z</time>
      </trkpt>
      <trkpt lat="45.90002" lon="4.56251">
        <ele>283.8</ele>
        <time>2025-09-11T08:00:14Z</time>
      </trkpt>
      <trkpt lat="45.90002" lon="4.56254">
        <ele>283.8</ele>
        <time>2025-09-11T08:00:15Z</time>
      </trkpt>
      <trkpt lat="45.90002" lon="4.56256">
        <ele>283.8</ele>
        <time>2025-09-11T08:00:16Z</time>
      </trkpt>
      <trkpt lat="45.90002" lon="4.56259">
        <ele>283.8</ele>
        <time>2025-09-11T08:00:17Z</time>
      </trkpt>
      <trkpt lat="45.90002" lon="4.56265">
        <ele>283.8</ele>
        <time>2025-09-11T08:00:18Z</time>
      </trkpt>
      <trkpt lat="45.90001" lon="4.5627">
        <ele>283.4</ele>
        <time>2025-09-11T08:00:19Z</time>
      </trkpt>
      <trkpt lat="45.89998" lon="4.56277">
        <ele>283.4</ele>
        <time>2025-09-11T08:00:20Z</time>
      </trkpt>
      <trkpt lat="45.89997" lon="4.56282">
        <ele>283.2</ele>
        <time>2025-09-11T08:00:21Z</time>
      </trkpt>
      <trkpt lat="45.89995" lon="4.56289">
        <ele>283.2</ele>
        <time>2025-09-11T08:00:22Z</time>
      </trkpt>
      <trkpt lat="45.89994" lon="4.56295">
        <ele>283</ele>
        <time>2025-09-11T08:00:23Z</time>
      </trkpt>
      <trkpt lat="45.89991" lon="4.563">
        <ele>283</ele>
        <time>2025-09-11T08:00:24Z</time>
      </trkpt>
      <trkpt lat="45.89988" lon="4.56304">
        <ele>282.8</ele>
        <time>2025-09-11T08:00:25Z</time>
      </trkpt>
      <trkpt lat="45.89991" lon="4.56311">
        <ele>282.4</ele>
        <time>2025-09-11T08:00:26Z</time>
      </trkpt>
      <trkpt lat="45.89991" lon="4.56314">
        <ele>282.4</ele>
        <time>2025-09-11T08:00:27Z</time>
      </trkpt>
      <trkpt lat="45.89989" lon="4.56318">
        <ele>282</ele>
        <time>2025-09-11T08:00:28Z</time>
      </trkpt>
      <trkpt lat="45.89989" lon="4.56324">
        <ele>282</ele>
        <time>2025-09-11T08:00:29Z</time>
      </trkpt>
      <trkpt lat="45.89987" lon="4.56327">
        <ele>281.4</ele>
        <time>2025-09-11T08:00:30Z</time>
      </trkpt>
      <trkpt lat="45.89984" lon="4.56332">
        <ele>281.8</ele>
        <time>2025-09-11T08:00:31Z</time>
      </trkpt>
      <trkpt lat="45.89983" lon="4.56336">
        <ele>281</ele>
        <time>2025-09-11T08:00:32Z</time>
      </trkpt>
      <trkpt lat="45.89982" lon="4.56341">
        <ele>280.8</ele>
        <time>2025-09-11T08:00:33Z</time>
      </trkpt>
      <trkpt lat="45.89981" lon="4.56346">
        <ele>281</ele>
        <time>2025-09-11T08:00:34Z</time>
      </trkpt>
      <trkpt lat="45.8998" lon="4.56351">
        <ele>280.6</ele>
        <time>2025-09-11T08:00:35Z</time>
      </trkpt>
      <trkpt lat="45.89979" lon="4.56357">
        <ele>280.6</ele>
        <time>2025-09-11T08:00:36Z</time>
      </trkpt>
      <trkpt lat="45.89978" lon="4.56363">
        <ele>280.6</ele>
        <time>2025-09-11T08:00:37Z</time>
      </trkpt>
      <trkpt lat="45.89979" lon="4.5637">
        <ele>281</ele>
        <time>2025-09-11T08:00:38Z</time>
      </trkpt>
      <trkpt lat="45.89978" lon="4.56377">
        <ele>280.2</ele>
        <time>2025-09-11T08:00:39Z</time>
      </trkpt>
      <trkpt lat="45.89976" lon="4.56382">
        <ele>280.4</ele>
        <time>2025-09-11T08:00:40Z</time>
      </trkpt>
      <trkpt lat="45.89976" lon="4.56389">
        <ele>280.4</ele>
        <time>2025-09-11T08:00:41Z</time>
      </trkpt>
      <trkpt lat="45.89976" lon="4.56394">
        <ele>280.4</ele>
        <time>2025-09-11T08:00:42Z</time>
      </trkpt>
      <trkpt lat="45.89975" lon="4.56401">
        <ele>280.4</ele>
        <time>2025-09-11T08:00:43Z</time>
      </trkpt>
      <trkpt lat="45.89975" lon="4.56405">
        <ele>280.4</ele>
        <time>2025-09-11T08:00:44Z</time>
      </trkpt>
      <trkpt lat="45.89974" lon="4.56413">
        <ele>280.4</ele>
        <time>2025-09-11T08:00:45Z</time>
      </trkpt>
      <trkpt lat="45.89973" lon="4.56418">
        <ele>280.4</ele>
        <time>2025-09-11T08:00:46Z</time>
      </trkpt>
      <trkpt lat="45.89973" lon="4.56425">
        <ele>280.4</ele>
        <time>2025-09-11T08:00:47Z</time>
      </trkpt>
      <trkpt lat="45.89974" lon="4.56431">
        <ele>280.2</ele>
        <time>2025-09-11T08:00:48Z</time>
      </trkpt>
      <trkpt lat="45.89975" lon="4.56437">
        <ele>279.8</ele>
        <time>2025-09-11T08:00:49Z</time>
      </trkpt>
      <trkpt lat="45.89976" lon="4.56443">
        <ele>279.2</ele>
        <time>2025-09-11T08:00:50Z</time>
      </trkpt>
      <trkpt lat="45.89976" lon="4.56448">
        <ele>279.2</ele>
        <time>2025-09-11T08:00:51Z</time>
      </trkpt>
      <trkpt lat="45.89975" lon="4.56454">
        <ele>278.8</ele>
        <time>2025-09-11T08:00:52Z</time>
      </trkpt>
      <trkpt lat="45.89977" lon="4.56459">
        <ele>278.4</ele>
        <time>2025-09-11T08:00:53Z</time>
      </trkpt>
      <trkpt lat="45.8998" lon="4.56464">
        <ele>278.4</ele>
        <time>2025-09-11T08:00:54Z</time>
      </trkpt>
      <trkpt lat="45.89981" lon="4.56469">
        <ele>278</ele>
        <time>2025-09-11T08:00:55Z</time>
      </trkpt>
      <trkpt lat="45.89982" lon="4.56472">
        <ele>278</ele>
        <time>2025-09-11T08:00:56Z</time>
      </trkpt>
      <trkpt lat="45.89983" lon="4.56476">
        <ele>278</ele>
        <time>2025-09-11T08:00:57Z</time>
      </trkpt>
      <trkpt lat="45.89984" lon="4.56479">
        <ele>277.8</ele>
        <time>2025-09-11T08:00:58Z</time>
      </trkpt>
      <trkpt lat="45.89986" lon="4.56483">
        <ele>277.8</ele>
        <time>2025-09-11T08:00:59Z</time>
      </trkpt>
      <trkpt lat="45.89988" lon="4.56487">
        <ele>277.6</ele>
        <time>2025-09-11T08:01:00Z</time>
      </trkpt>
      <trkpt lat="45.89989" lon="4.5649">
        <ele>277.6</ele>
        <time>2025-09-11T08:01:01Z</time>
      </trkpt>
      <trkpt lat="45.8999" lon="4.56493">
        <ele>277.6</ele>
        <time>2025-09-11T08:01:02Z</time>
      </trkpt>
      <trkpt lat="45.89991" lon="4.56494">
        <ele>277.6</ele>
        <time>2025-09-11T08:01:03Z</time>
      </trkpt>
      <trkpt lat="45.89991" lon="4.56494">
        <ele>277.6</ele>
        <time>2025-09-11T08:01:04Z</time>
      </trkpt>
      <trkpt lat="45.8999" lon="4.56494">
        <ele>277.6</ele>
        <time>2025-09-11T08:01:05Z</time>
      </trkpt>
      <trkpt lat="45.89991" lon="4.56493">
        <ele>277.2</ele>
        <time>2025-09-11T08:01:11Z</time>
      </trkpt>
      <trkpt lat="45.89991" lon="4.56492">
        <ele>277.2</ele>
        <time>2025-09-11T08:01:12Z</time>
      </trkpt>
      <trkpt lat="45.89992" lon="4.56492">
        <ele>277.2</ele>
        <time>2025-09-11T08:01:13Z</time>
      </trkpt>
      <trkpt lat="45.89992" lon="4.56492">
        <ele>277.2</ele>
        <time>2025-09-11T08:01:14Z</time>
      </trkpt>
      <trkpt lat="45.89993" lon="4.56493">
        <ele>277.2</ele>
        <time>2025-09-11T08:01:15Z</time>
      </trkpt>
      <trkpt lat="45.89992" lon="4.56495">
        <ele>277.2</ele>
        <time>2025-09-11T08:03:08Z</time>
      </trkpt>
      <trkpt lat="45.89993" lon="4.56496">
        <ele>277.2</ele>
        <time>2025-09-11T08:03:09Z</time>
      </trkpt>
      <trkpt lat="45.89994" lon="4.56498">
        <ele>277</ele>
        <time>2025-09-11T08:03:10Z</time>
      </trkpt>
      <trkpt lat="45.89994" lon="4.56499">
        <ele>277</ele>
        <time>2025-09-11T08:03:11Z</time>
      </trkpt>
      <trkpt lat="45.89995" lon="4.565">
        <ele>276.8</ele>
        <time>2025-09-11T08:03:12Z</time>
      </trkpt>
      <trkpt lat="45.89997" lon="4.56502">
        <ele>276.8</ele>
        <time>2025-09-11T08:03:13Z</time>
      </trkpt>
      <trkpt lat="45.89998" lon="4.56503">
        <ele>276.8</ele>
        <time>2025-09-11T08:03:14Z</time>
      </trkpt>
      <trkpt lat="45.89998" lon="4.56505">
        <ele>276.8</ele>
        <time>2025-09-11T08:03:15Z</time>
      </trkpt>
      <trkpt lat="45.89999" lon="4.56507">
        <ele>276.8</ele>
        <time>2025-09-11T08:03:16Z</time>
      </trkpt>
      <trkpt lat="45.89999" lon="4.56507">
        <ele>276.8</ele>
        <time>2025-09-11T08:03:17Z</time>
      </trkpt>
      <trkpt lat="45.9" lon="4.56508">
        <ele>276.8</ele>
        <time>2025-09-11T08:03:18Z</time>
      </trkpt>
      <trkpt lat="45.90001" lon="4.56509">
        <ele>276.8</ele>
        <time>2025-09-11T08:03:19Z</time>
      </trkpt>
      <trkpt lat="45.90002" lon="4.5651">
        <ele>276.8</ele>
        <time>2025-09-11T08:03:20Z</time>
      </trkpt>
      <trkpt lat="45.90002" lon="4.5651">
        <ele>276.8</ele>
        <time>2025-09-11T08:03:21Z</time>
      </trkpt>
      <trkpt lat="45.90001" lon="4.5651">
        <ele>276.8</ele>
        <time>2025-09-11T08:03:22Z</time>
      </trkpt>
      <trkpt lat="45.9" lon="4.56504">
        <ele>276.8</ele>
        <time>2025-09-11T08:07:14Z</time>
      </trkpt>
      <trkpt lat="45.9" lon="4.56505">
        <ele>276.8</ele>
        <time>2025-09-11T08:07:15Z</time>
      </trkpt>
      <trkpt lat="45.9" lon="4.56506">
        <ele>276.4</ele>
        <time>2025-09-11T08:07:16Z</time>
      </trkpt>
      <trkpt lat="45.9" lon="4.56507">
        <ele>276.4</ele>
        <time>2025-09-11T08:07:17Z</time>
      </trkpt>
      <trkpt lat="45.9" lon="4.56508">
        <ele>276.4</ele>
        <time>2025-09-11T08:07:18Z</time>
      </trkpt>
      <trkpt lat="45.9" lon="4.56509">
        <ele>276.4</ele>
        <time>2025-09-11T08:07:19Z</time>
      </trkpt>
      <trkpt lat="45.9" lon="4.56509">
        <ele>276.4</ele>
        <time>2025-09-11T08:07:20Z</time>
      </trkpt>
      <trkpt lat="45.9" lon="4.56511">
        <ele>276.4</ele>
        <time>2025-09-11T08:07:21Z</time>
      </trkpt>
      <trkpt lat="45.9" lon="4.56511">
        <ele>276.4</ele>
        <time>2025-09-11T08:07:22Z</time>
      </trkpt>
      <trkpt lat="45.9" lon="4.56512">
        <ele>276.4</ele>
        <time>2025-09-11T08:07:23Z</time>
      </trkpt>
      <trkpt lat="45.9" lon="4.56513">
        <ele>276.2</ele>
        <time>2025-09-11T08:07:29Z</time>
      </trkpt>
      <trkpt lat="45.90002" lon="4.56514">
        <ele>276.2</ele>
        <time>2025-09-11T08:07:30Z</time>
      </trkpt>
      <trkpt lat="45.90004" lon="4.56517">
        <ele>276.2</ele>
        <time>2025-09-11T08:07:31Z</time>
      </trkpt>
      <trkpt lat="45.90005" lon="4.5652">
        <ele>276</ele>
        <time>2025-09-11T08:07:32Z</time>
      </trkpt>
      <trkpt lat="45.90007" lon="4.56522">
        <ele>275.8</ele>
        <time>2025-09-11T08:07:33Z</time>
      </trkpt>
      <trkpt lat="45.9001" lon="4.56526">
        <ele>275.8</ele>
        <time>2025-09-11T08:07:34Z</time>
      </trkpt>
      <trkpt lat="45.90012" lon="4.56529">
        <ele>275.8</ele>
        <time>2025-09-11T08:07:35Z</time>
      </trkpt>
      <trkpt lat="45.90015" lon="4.56533">
        <ele>275.4</ele>
        <time>2025-09-11T08:07:36Z</time>
      </trkpt>
      <trkpt lat="45.90017" lon="4.56536">
        <ele>275.4</ele>
        <time>2025-09-11T08:07:37Z</time>
      </trkpt>
      <trkpt lat="45.90021" lon="4.56539">
        <ele>275.4</ele>
        <time>2025-09-11T08:07:38Z</time>
      </trkpt>
      <trkpt lat="45.90025" lon="4.56542">
        <ele>275.4</ele>
        <time>2025-09-11T08:07:39Z</time>
      </trkpt>
      <trkpt lat="45.90029" lon="4.56545">
        <ele>275.4</ele>
        <time>2025-09-11T08:07:40Z</time>
      </trkpt>
      <trkpt lat="45.90033" lon="4.56547">
        <ele>275</ele>
        <time>2025-09-11T08:07:41Z</time>
      </trkpt>
      <trkpt lat="45.90037" lon="4.5655">
        <ele>275</ele>
        <time>2025-09-11T08:07:42Z</time>
      </trkpt>
      <trkpt lat="45.90041" lon="4.56552">
        <ele>274.8</ele>
        <time>2025-09-11T08:07:43Z</time>
      </trkpt>
      <trkpt lat="45.90045" lon="4.56553">
        <ele>274.8</ele>
        <time>2025-09-11T08:07:44Z</time>
      </trkpt>
      <trkpt lat="45.9005" lon="4.56553">
        <ele>274.4</ele>
        <time>2025-09-11T08:07:45Z</time>
      </trkpt>
      <trkpt lat="45.90054" lon="4.56554">
        <ele>274.2</ele>
        <time>2025-09-11T08:07:46Z</time>
      </trkpt>
      <trkpt lat="45.90058" lon="4.56555">
        <ele>274.2</ele>
        <time>2025-09-11T08:07:47Z</time>
      </trkpt>
      <trkpt lat="45.90062" lon="4.56556">
        <ele>273.6</ele>
        <time>2025-09-11T08:07:48Z</time>
      </trkpt>
      <trkpt lat="45.90067" lon="4.56558">
        <ele>273.6</ele>
        <time>2025-09-11T08:07:49Z</time>
      </trkpt>
      <trkpt lat="45.90071" lon="4.56558">
        <ele>273.4</ele>
        <time>2025-09-11T08:07:50Z</time>
      </trkpt>
      <trkpt lat="45.90074" lon="4.56559">
        <ele>273.4</ele>
        <time>2025-09-11T08:07:51Z</time>
      </trkpt>
      <trkpt lat="45.90077" lon="4.56559">
        <ele>273.4</ele>
        <time>2025-09-11T08:07:52Z</time>
      </trkpt>
      <trkpt lat="45.90081" lon="4.56561">
        <ele>273</ele>
        <time>2025-09-11T08:07:53Z</time>
      </trkpt>
      <trkpt lat="45.90085" lon="4.56562">
        <ele>273</ele>
        <time>2025-09-11T08:07:54Z</time>
      </trkpt>
      <trkpt lat="45.90088" lon="4.56563">
        <ele>273.4</ele>
        <time>2025-09-11T08:07:55Z</time>
      </trkpt>
      <trkpt lat="45.90091" lon="4.56565">
        <ele>273.4</ele>
        <time>2025-09-11T08:07:56Z</time>
      </trkpt>
      <trkpt lat="45.90094" lon="4.56566">
        <ele>273</ele>
        <time>2025-09-11T08:07:57Z</time>
      </trkpt>
      <trkpt lat="45.90097" lon="4.56568">
        <ele>272.8</ele>
        <time>2025-09-11T08:07:58Z</time>
      </trkpt>
      <trkpt lat="45.901" lon="4.5657">
        <ele>272.8</ele>
        <time>2025-09-11T08:07:59Z</time>
      </trkpt>
      <trkpt lat="45.90103" lon="4.56573">
        <ele>272.4</ele>
        <time>2025-09-11T08:08:00Z</time>
      </trkpt>
      <trkpt lat="45.90106" lon="4.56575">
        <ele>272.4</ele>
        <time>2025-09-11T08:08:01Z</time>
      </trkpt>
      <trkpt lat="45.90109" lon="4.56578">
        <ele>272.2</ele>
        <time>2025-09-11T08:08:02Z</time>
      </trkpt>
      <trkpt lat="45.90112" lon="4.56581">
        <ele>272</ele>
        <time>2025-09-11T08:08:03Z</time>
      </trkpt>
      <trkpt lat="45.90115" lon="4.56584">
        <ele>271.8</ele>
        <time>2025-09-11T08:08:04Z</time>
      </trkpt>
      <trkpt lat="45.90118" lon="4.56587">
        <ele>271.8</ele>
        <time>2025-09-11T08:08:05Z</time>
      </trkpt>
      <trkpt lat="45.90121" lon="4.5659">
        <ele>271.8</ele>
        <time>2025-09-11T08:08:06Z</time>
      </trkpt>
      <trkpt lat="45.90124" lon="4.56594">
        <ele>271.8</ele>
        <time>2025-09-11T08:08:07Z</time>
      </trkpt>
      <trkpt lat="45.90127" lon="4.56597">
        <ele>271.8</ele>
        <time>2025-09-11T08:08:08Z</time>
      </trkpt>
      <trkpt lat="45.90129" lon="4.56601">
        <ele>271.8</ele>
        <time>2025-09-11T08:08:09Z</time>
      </trkpt>
      <trkpt lat="45.90132" lon="4.56604">
        <ele>271.8</ele>
        <time>2025-09-11T08:08:10Z</time>
      </trkpt>
      <trkpt lat="45.90134" lon="4.56607">
        <ele>271.6</ele>
        <time>2025-09-11T08:08:11Z</time>
      </trkpt>
      <trkpt lat="45.90136" lon="4.56609">
        <ele>271.6</ele>
        <time>2025-09-11T08:08:12Z</time>
      </trkpt>
      <trkpt lat="45.90138" lon="4.56612">
        <ele>270.8</ele>
        <time>2025-09-11T08:08:13Z</time>
      </trkpt>
      <trkpt lat="45.9014" lon="4.56616">
        <ele>270.2</ele>
        <time>2025-09-11T08:08:14Z</time>
      </trkpt>
      <trkpt lat="45.90142" lon="4.56619">
        <ele>270.2</ele>
        <time>2025-09-11T08:08:15Z</time>
      </trkpt>
      <trkpt lat="45.90144" lon="4.56622">
        <ele>270.6</ele>
        <time>2025-09-11T08:08:16Z</time>
      </trkpt>
      <trkpt lat="45.90146" lon="4.56626">
        <ele>270.6</ele>
        <time>2025-09-11T08:08:17Z</time>
      </trkpt>
      <trkpt lat="45.90148" lon="4.56631">
        <ele>270.6</ele>
        <time>2025-09-11T08:08:18Z</time>
      </trkpt>
      <trkpt lat="45.9015" lon="4.56635">
        <ele>270.2</ele>
        <time>2025-09-11T08:08:19Z</time>
      </trkpt>
      <trkpt lat="45.90152" lon="4.5664">
        <ele>270.2</ele>
        <time>2025-09-11T08:08:20Z</time>
      </trkpt>
      <trkpt lat="45.90153" lon="4.56644">
        <ele>270.2</ele>
        <time>2025-09-11T08:08:21Z</time>
      </trkpt>
      <trkpt lat="45.90155" lon="4.56648">
        <ele>270</ele>
        <time>2025-09-11T08:08:22Z</time>
      </trkpt>
      <trkpt lat="45.90157" lon="4.56653">
        <ele>270</ele>
        <time>2025-09-11T08:08:23Z</time>
      </trkpt>
      <trkpt lat="45.90159" lon="4.56658">
        <ele>270</ele>
        <time>2025-09-11T08:08:24Z</time>
      </trkpt>
      <trkpt lat="45.90161" lon="4.56662">
        <ele>269.6</ele>
        <time>2025-09-11T08:08:25Z</time>
      </trkpt>
      <trkpt lat="45.90163" lon="4.56666">
        <ele>269.6</ele>
        <time>2025-09-11T08:08:26Z</time>
      </trkpt>
      <trkpt lat="45.90166" lon="4.56671">
        <ele>269.4</ele>
        <time>2025-09-11T08:08:27Z</time>
      </trkpt>
      <trkpt lat="45.90168" lon="4.56675">
        <ele>269.4</ele>
        <time>2025-09-11T08:08:28Z</time>
      </trkpt>
      <trkpt lat="45.90171" lon="4.56679">
        <ele>269</ele>
        <time>2025-09-11T08:08:29Z</time>
      </trkpt>
      <trkpt lat="45.90174" lon="4.56683">
        <ele>269</ele>
        <time>2025-09-11T08:08:30Z</time>
      </trkpt>
      <trkpt lat="45.90177" lon="4.56687">
        <ele>269</ele>
        <time>2025-09-11T08:08:31Z</time>
      </trkpt>
      <trkpt lat="45.9018" lon="4.56691">
        <ele>268.4</ele>
        <time>2025-09-11T08:08:32Z</time>
      </trkpt>
      <trkpt lat="45.90182" lon="4.56695">
        <ele>267.8</ele>
        <time>2025-09-11T08:08:33Z</time>
      </trkpt>
      <trkpt lat="45.90184" lon="4.567">
        <ele>267.8</ele>
        <time>2025-09-11T08:08:34Z</time>
      </trkpt>
      <trkpt lat="45.90186" lon="4.56705">
        <ele>267.8</ele>
        <time>2025-09-11T08:08:35Z</time>
      </trkpt>
      <trkpt lat="45.90188" lon="4.5671">
        <ele>267.8</ele>
        <time>2025-09-11T08:08:36Z</time>
      </trkpt>
      <trkpt lat="45.9019" lon="4.56715">
        <ele>267.6</ele>
        <time>2025-09-11T08:08:37Z</time>
      </trkpt>
      <trkpt lat="45.90192" lon="4.5672">
        <ele>267.6</ele>
        <time>2025-09-11T08:08:38Z</time>
      </trkpt>
      <trkpt lat="45.90194" lon="4.56725">
        <ele>267.4</ele>
        <time>2025-09-11T08:08:39Z</time>
      </trkpt>
      <trkpt lat="45.90197" lon="4.5673">
        <ele>267.4</ele>
        <time>2025-09-11T08:08:40Z</time>
      </trkpt>
      <trkpt lat="45.90199" lon="4.56734">
        <ele>267.4</ele>
        <time>2025-09-11T08:08:41Z</time>
      </trkpt>
      <trkpt lat="45.90201" lon="4.56739">
        <ele>266.8</ele>
        <time>2025-09-11T08:08:42Z</time>
      </trkpt>
      <trkpt lat="45.90203" lon="4.56742">
        <ele>265.8</ele>
        <time>2025-09-11T08:08:43Z</time>
      </trkpt>
      <trkpt lat="45.90205" lon="4.56745">
        <ele>266</ele>
        <time>2025-09-11T08:08:44Z</time>
      </trkpt>
      <trkpt lat="45.90207" lon="4.56748">
        <ele>266</ele>
        <time>2025-09-11T08:08:45Z</time>
      </trkpt>
      <trkpt lat="45.90209" lon="4.56752">
        <ele>266</ele>
        <time>2025-09-11T08:08:46Z</time>
      </trkpt>
      <trkpt lat="45.9021" lon="4.56756">
        <ele>265.6</ele>
        <time>2025-09-11T08:08:47Z</time>
      </trkpt>
      <trkpt lat="45.90211" lon="4.56759">
        <ele>265.6</ele>
        <time>2025-09-11T08:08:48Z</time>
      </trkpt>
      <trkpt lat="45.90213" lon="4.56763">
        <ele>265.6</ele>
        <time>2025-09-11T08:08:49Z</time>
      </trkpt>
      <trkpt lat="45.90215" lon="4.56769">
        <ele>265.6</ele>
        <time>2025-09-11T08:08:50Z</time>
      </trkpt>
      <trkpt lat="45.90218" lon="4.5678">
        <ele>265.6</ele>
        <time>2025-09-11T08:08:51Z</time>
      </trkpt>
      <trkpt lat="45.9022" lon="4.56785">
        <ele>265.6</ele>
        <time>2025-09-11T08:08:52Z</time>
      </trkpt>
      <trkpt lat="45.90222" lon="4.5679">
        <ele>265.6</ele>
        <time>2025-09-11T08:08:53Z</time>
      </trkpt>
      <trkpt lat="45.90225" lon="4.56795">
        <ele>265.4</ele>
        <time>2025-09-11T08:08:54Z</time>
      </trkpt>
      <trkpt lat="45.90227" lon="4.56798">
        <ele>265.2</ele>
        <time>2025-09-11T08:08:55Z</time>
      </trkpt>
      <trkpt lat="45.90229" lon="4.56801">
        <ele>265.2</ele>
        <time>2025-09-11T08:08:56Z</time>
      </trkpt>
      <trkpt lat="45.90231" lon="4.56804">
        <ele>265</ele>
        <time>2025-09-11T08:08:57Z</time>
      </trkpt>
      <trkpt lat="45.90234" lon="4.56807">
        <ele>265</ele>
        <time>2025-09-11T08:08:58Z</time>
      </trkpt>
      <trkpt lat="45.90237" lon="4.5681">
        <ele>265</ele>
        <time>2025-09-11T08:08:59Z</time>
      </trkpt>
      <trkpt lat="45.9024" lon="4.56814">
        <ele>265</ele>
        <time>2025-09-11T08:09:00Z</time>
      </trkpt>
      <trkpt lat="45.90243" lon="4.56817">
        <ele>264.8</ele>
        <time>2025-09-11T08:09:01Z</time>
      </trkpt>
      <trkpt lat="45.90246" lon="4.5682">
        <ele>264.8</ele>
        <time>2025-09-11T08:09:02Z</time>
      </trkpt>
      <trkpt lat="45.90249" lon="4.56823">
        <ele>264.4</ele>
        <time>2025-09-11T08:09:03Z</time>
      </trkpt>
      <trkpt lat="45.90252" lon="4.56825">
        <ele>264.4</ele>
        <time>2025-09-11T08:09:04Z</time>
      </trkpt>
      <trkpt lat="45.90254" lon="4.56828">
        <ele>264.2</ele>
        <time>2025-09-11T08:09:05Z</time>
      </trkpt>
      <trkpt lat="45.90255" lon="4.5683">
        <ele>264.2</ele>
        <time>2025-09-11T08:09:06Z</time>
      </trkpt>
      <trkpt lat="45.90258" lon="4.56833">
        <ele>264.2</ele>
        <time>2025-09-11T08:09:07Z</time>
      </trkpt>
      <trkpt lat="45.9026" lon="4.56834">
        <ele>263.8</ele>
        <time>2025-09-11T08:09:08Z</time>
      </trkpt>
      <trkpt lat="45.90263" lon="4.56836">
        <ele>263.6</ele>
        <time>2025-09-11T08:09:09Z</time>
      </trkpt>
      <trkpt lat="45.90265" lon="4.56838">
        <ele>263.6</ele>
        <time>2025-09-11T08:09:10Z</time>
      </trkpt>
      <trkpt lat="45.90268" lon="4.5684">
        <ele>263.6</ele>
        <time>2025-09-11T08:09:11Z</time>
      </trkpt>
      <trkpt lat="45.9027" lon="4.56842">
        <ele>263</ele>
        <time>2025-09-11T08:09:12Z</time>
      </trkpt>
      <trkpt lat="45.90273" lon="4.56844">
        <ele>263</ele>
        <time>2025-09-11T08:09:13Z</time>
      </trkpt>
      <trkpt lat="45.90273" lon="4.56844">
        <ele>263</ele>
        <time>2025-09-11T08:09:14Z</time>
      </trkpt>
      <trkpt lat="45.90277" lon="4.56847">
        <ele>263</ele>
        <time>2025-09-11T08:09:15Z</time>
      </trkpt>
      <trkpt lat="45.90281" lon="4.56849">
        <ele>263</ele>
        <time>2025-09-11T08:09:16Z</time>
      </trkpt>
      <trkpt lat="45.90284" lon="4.56851">
        <ele>262.8</ele>
        <time>2025-09-11T08:09:17Z</time>
      </trkpt>
      <trkpt lat="45.90286" lon="4.56852">
        <ele>262.6</ele>
        <time>2025-09-11T08:09:18Z</time>
      </trkpt>
      <trkpt lat="45.90289" lon="4.56854">
        <ele>262.8</ele>
        <time>2025-09-11T08:09:19Z</time>
      </trkpt>
      <trkpt lat="45.90292" lon="4.56855">
        <ele>262.8</ele>
        <time>2025-09-11T08:09:20Z</time>
      </trkpt>
      <trkpt lat="45.90295" lon="4.56855">
        <ele>262.6</ele>
        <time>2025-09-11T08:09:21Z</time>
      </trkpt>
      <trkpt lat="45.90297" lon="4.56855">
        <ele>262.6</ele>
        <time>2025-09-11T08:09:22Z</time>
      </trkpt>
      <trkpt lat="45.903" lon="4.56855">
        <ele>262.4</ele>
        <time>2025-09-11T08:09:23Z</time>
      </trkpt>
      <trkpt lat="45.90303" lon="4.56856">
        <ele>262</ele>
        <time>2025-09-11T08:09:24Z</time>
      </trkpt>
      <trkpt lat="45.90306" lon="4.56857">
        <ele>261.4</ele>
        <time>2025-09-11T08:09:25Z</time>
      </trkpt>
      <trkpt lat="45.9031" lon="4.56858">
        <ele>261.2</ele>
        <time>2025-09-11T08:09:26Z</time>
      </trkpt>
      <trkpt lat="45.90313" lon="4.5686">
        <ele>261.2</ele>
        <time>2025-09-11T08:09:27Z</time>
      </trkpt>
      <trkpt lat="45.90316" lon="4.56861">
        <ele>261.2</ele>
        <time>2025-09-11T08:09:28Z</time>
      </trkpt>
      <trkpt lat="45.9032" lon="4.56863">
        <ele>261.2</ele>
        <time>2025-09-11T08:09:29Z</time>
      </trkpt>
      <trkpt lat="45.90323" lon="4.56865">
        <ele>261.2</ele>
        <time>2025-09-11T08:09:30Z</time>
      </trkpt>
      <trkpt lat="45.90327" lon="4.56867">
        <ele>260.6</ele>
        <time>2025-09-11T08:09:31Z</time>
      </trkpt>
      <trkpt lat="45.90331" lon="4.56869">
        <ele>260.6</ele>
        <time>2025-09-11T08:09:32Z</time>
      </trkpt>
      <trkpt lat="45.90334" lon="4.56872">
        <ele>260</ele>
        <time>2025-09-11T08:09:33Z</time>
      </trkpt>
      <trkpt lat="45.90338" lon="4.56875">
        <ele>260</ele>
        <time>2025-09-11T08:09:34Z</time>
      </trkpt>
      <trkpt lat="45.90341" lon="4.56877">
        <ele>260</ele>
        <time>2025-09-11T08:09:35Z</time>
      </trkpt>
      <trkpt lat="45.90345" lon="4.56879">
        <ele>260</ele>
        <time>2025-09-11T08:09:36Z</time>
      </trkpt>
      <trkpt lat="45.90349" lon="4.56881">
        <ele>260</ele>
        <time>2025-09-11T08:09:37Z</time>
      </trkpt>
      <trkpt lat="45.90352" lon="4.56884">
        <ele>259.6</ele>
        <time>2025-09-11T08:09:38Z</time>
      </trkpt>
      <trkpt lat="45.90354" lon="4.56886">
        <ele>259.4</ele>
        <time>2025-09-11T08:09:39Z</time>
      </trkpt>
      <trkpt lat="45.90356" lon="4.56889">
        <ele>259.4</ele>
        <time>2025-09-11T08:09:40Z</time>
      </trkpt>
      <trkpt lat="45.90358" lon="4.56892">
        <ele>259.2</ele>
        <time>2025-09-11T08:09:41Z</time>
      </trkpt>
      <trkpt lat="45.9036" lon="4.56895">
        <ele>259.2</ele>
        <time>2025-09-11T08:09:42Z</time>
      </trkpt>
      <trkpt lat="45.90362" lon="4.56898">
        <ele>259</ele>
        <time>2025-09-11T08:09:43Z</time>
      </trkpt>
      <trkpt lat="45.90364" lon="4.569">
        <ele>258.6</ele>
        <time>2025-09-11T08:09:44Z</time>
      </trkpt>
      <trkpt lat="45.90366" lon="4.56903">
        <ele>258.6</ele>
        <time>2025-09-11T08:09:45Z</time>
      </trkpt>
      <trkpt lat="45.90368" lon="4.56903">
        <ele>259</ele>
        <time>2025-09-11T08:09:46Z</time>
      </trkpt>
      <trkpt lat="45.90371" lon="4.56906">
        <ele>258.6</ele>
        <time>2025-09-11T08:09:47Z</time>
      </trkpt>
      <trkpt lat="45.90374" lon="4.56909">
        <ele>258.6</ele>
        <time>2025-09-11T08:09:48Z</time>
      </trkpt>
      <trkpt lat="45.90376" lon="4.56911">
        <ele>258.2</ele>
        <time>2025-09-11T08:09:49Z</time>
      </trkpt>
      <trkpt lat="45.90378" lon="4.56914">
        <ele>258.8</ele>
        <time>2025-09-11T08:09:50Z</time>
      </trkpt>
      <trkpt lat="45.9038" lon="4.56918">
        <ele>258.2</ele>
        <time>2025-09-11T08:09:51Z</time>
      </trkpt>
      <trkpt lat="45.90382" lon="4.56922">
        <ele>258.2</ele>
        <time>2025-09-11T08:09:52Z</time>
      </trkpt>
      <trkpt lat="45.90383" lon="4.56927">
        <ele>258.2</ele>
        <time>2025-09-11T08:09:53Z</time>
      </trkpt>
      <trkpt lat="45.90385" lon="4.56932">
        <ele>258</ele>
        <time>2025-09-11T08:09:54Z</time>
      </trkpt>
      <trkpt lat="45.90387" lon="4.56936">
        <ele>258</ele>
        <time>2025-09-11T08:09:55Z</time>
      </trkpt>
      <trkpt lat="45.90388" lon="4.56941">
        <ele>258</ele>
        <time>2025-09-11T08:09:56Z</time>
      </trkpt>
      <trkpt lat="45.90389" lon="4.56945">
        <ele>257.6</ele>
        <time>2025-09-11T08:09:57Z</time>
      </trkpt>
      <trkpt lat="45.9039" lon="4.5695">
        <ele>257.6</ele>
        <time>2025-09-11T08:09:58Z</time>
      </trkpt>
      <trkpt lat="45.9039" lon="4.56954">
        <ele>257.6</ele>
        <time>2025-09-11T08:09:59Z</time>
      </trkpt>
      <trkpt lat="45.90391" lon="4.56959">
        <ele>257.6</ele>
        <time>2025-09-11T08:10:00Z</time>
      </trkpt>
      <trkpt lat="45.90392" lon="4.56963">
        <ele>258.2</ele>
        <time>2025-09-11T08:10:01Z</time>
      </trkpt>
      <trkpt lat="45.90393" lon="4.56967">
        <ele>257.8</ele>
        <time>2025-09-11T08:10:02Z</time>
      </trkpt>
      <trkpt lat="45.90394" lon="4.5697">
        <ele>257.8</ele>
        <time>2025-09-11T08:10:03Z</time>
      </trkpt>
      <trkpt lat="45.90395" lon="4.56973">
        <ele>257.2</ele>
        <time>2025-09-11T08:10:04Z</time>
      </trkpt>
      <trkpt lat="45.90396" lon="4.56977">
        <ele>257.4</ele>
        <time>2025-09-11T08:10:05Z</time>
      </trkpt>
      <trkpt lat="45.90396" lon="4.56981">
        <ele>257.4</ele>
        <time>2025-09-11T08:10:06Z</time>
      </trkpt>
      <trkpt lat="45.90396" lon="4.56985">
        <ele>256.8</ele>
        <time>2025-09-11T08:10:07Z</time>
      </trkpt>
      <trkpt lat="45.90397" lon="4.56988">
        <ele>256.8</ele>
        <time>2025-09-11T08:10:08Z</time>
      </trkpt>
      <trkpt lat="45.90397" lon="4.56992">
        <ele>256.6</ele>
        <time>2025-09-11T08:10:09Z</time>
      </trkpt>
      <trkpt lat="45.90398" lon="4.56998">
        <ele>256.6</ele>
        <time>2025-09-11T08:10:10Z</time>
      </trkpt>
      <trkpt lat="45.90399" lon="4.57003">
        <ele>256.2</ele>
        <time>2025-09-11T08:10:11Z</time>
      </trkpt>
      <trkpt lat="45.904" lon="4.57007">
        <ele>256.2</ele>
        <time>2025-09-11T08:10:12Z</time>
      </trkpt>
      <trkpt lat="45.90402" lon="4.57012">
        <ele>256.2</ele>
        <time>2025-09-11T08:10:13Z</time>
      </trkpt>
      <trkpt lat="45.90404" lon="4.57017">
        <ele>256.2</ele>
        <time>2025-09-11T08:10:14Z</time>
      </trkpt>
      <trkpt lat="45.90405" lon="4.57022">
        <ele>255.2</ele>
        <time>2025-09-11T08:10:15Z</time>
      </trkpt>
      <trkpt lat="45.90406" lon="4.57028">
        <ele>255.2</ele>
        <time>2025-09-11T08:10:16Z</time>
      </trkpt>
      <trkpt lat="45.90407" lon="4.57033">
        <ele>255.6</ele>
        <time>2025-09-11T08:10:17Z</time>
      </trkpt>
      <trkpt lat="45.90408" lon="4.57037">
        <ele>255.6</ele>
        <time>2025-09-11T08:10:18Z</time>
      </trkpt>
      <trkpt lat="45.90409" lon="4.57042">
        <ele>255.2</ele>
        <time>2025-09-11T08:10:19Z</time>
      </trkpt>
      <trkpt lat="45.9041" lon="4.57044">
        <ele>255.2</ele>
        <time>2025-09-11T08:10:20Z</time>
      </trkpt>
      <trkpt lat="45.90411" lon="4.57046">
        <ele>255</ele>
        <time>2025-09-11T08:10:21Z</time>
      </trkpt>
      <trkpt lat="45.90412" lon="4.57048">
        <ele>255</ele>
        <time>2025-09-11T08:10:22Z</time>
      </trkpt>
      <trkpt lat="45.90413" lon="4.5705">
        <ele>255</ele>
        <time>2025-09-11T08:10:23Z</time>
      </trkpt>
      <trkpt lat="45.90413" lon="4.5705">
        <ele>255</ele>
        <time>2025-09-11T08:10:24Z</time>
      </trkpt>
      <trkpt lat="45.90413" lon="4.5705">
        <ele>255</ele>
        <time>2025-09-11T08:10:25Z</time>
      </trkpt>
      <trkpt lat="45.90413" lon="4.5705">
        <ele>255</ele>
        <time>2025-09-11T08:10:26Z</time>
      </trkpt>
      <trkpt lat="45.90413" lon="4.5705">
        <ele>255</ele>
        <time>2025-09-11T08:10:27Z</time>
      </trkpt>
      <trkpt lat="45.90415" lon="4.57057">
        <ele>254.4</ele>
        <time>2025-09-11T08:11:14Z</time>
      </trkpt>
      <trkpt lat="45.90416" lon="4.57058">
        <ele>254.4</ele>
        <time>2025-09-11T08:11:15Z</time>
      </trkpt>
      <trkpt lat="45.90416" lon="4.5706">
        <ele>254.4</ele>
        <time>2025-09-11T08:11:16Z</time>
      </trkpt>
      <trkpt lat="45.90416" lon="4.5706">
        <ele>254.4</ele>
        <time>2025-09-11T08:11:17Z</time>
      </trkpt>
      <trkpt lat="45.90416" lon="4.57062">
        <ele>254.4</ele>
        <time>2025-09-11T08:11:18Z</time>
      </trkpt>
      <trkpt lat="45.90417" lon="4.57063">
        <ele>254.2</ele>
        <time>2025-09-11T08:11:19Z</time>
      </trkpt>
      <trkpt lat="45.90418" lon="4.57064">
        <ele>254</ele>
        <time>2025-09-11T08:11:20Z</time>
      </trkpt>
      <trkpt lat="45.90418" lon="4.57066">
        <ele>253.6</ele>
        <time>2025-09-11T08:11:21Z</time>
      </trkpt>
      <trkpt lat="45.90419" lon="4.57068">
        <ele>253.2</ele>
        <time>2025-09-11T08:11:22Z</time>
      </trkpt>
      <trkpt lat="45.9042" lon="4.57069">
        <ele>253</ele>
        <time>2025-09-11T08:11:23Z</time>
      </trkpt>
      <trkpt lat="45.90421" lon="4.57072">
        <ele>253</ele>
        <time>2025-09-11T08:11:24Z</time>
      </trkpt>
      <trkpt lat="45.90423" lon="4.57075">
        <ele>252.6</ele>
        <time>2025-09-11T08:11:25Z</time>
      </trkpt>
      <trkpt lat="45.90423" lon="4.57079">
        <ele>252</ele>
        <time>2025-09-11T08:11:26Z</time>
      </trkpt>
      <trkpt lat="45.90424" lon="4.57083">
        <ele>251.4</ele>
        <time>2025-09-11T08:11:27Z</time>
      </trkpt>
      <trkpt lat="45.90424" lon="4.57087">
        <ele>251</ele>
        <time>2025-09-11T08:11:28Z</time>
      </trkpt>
      <trkpt lat="45.90425" lon="4.57091">
        <ele>250.2</ele>
        <time>2025-09-11T08:11:29Z</time>
      </trkpt>
      <trkpt lat="45.90427" lon="4.57094">
        <ele>250</ele>
        <time>2025-09-11T08:11:30Z</time>
      </trkpt>
      <trkpt lat="45.90428" lon="4.57098">
        <ele>249.6</ele>
        <time>2025-09-11T08:11:31Z</time>
      </trkpt>
      <trkpt lat="45.9043" lon="4.57102">
        <ele>248.8</ele>
        <time>2025-09-11T08:11:32Z</time>
      </trkpt>
      <trkpt lat="45.90431" lon="4.57105">
        <ele>248.2</ele>
        <time>2025-09-11T08:11:33Z</time>
      </trkpt>
      <trkpt lat="45.90431" lon="4.5711">
        <ele>247.8</ele>
        <time>2025-09-11T08:11:34Z</time>
      </trkpt>
      <trkpt lat="45.90431" lon="4.57113">
        <ele>247.4</ele>
        <time>2025-09-11T08:11:35Z</time>
      </trkpt>
      <trkpt lat="45.9043" lon="4.57116">
        <ele>247</ele>
        <time>2025-09-11T08:11:36Z</time>
      </trkpt>
      <trkpt lat="45.9043" lon="4.57118">
        <ele>246.4</ele>
        <time>2025-09-11T08:11:37Z</time>
      </trkpt>
      <trkpt lat="45.9043" lon="4.57119">
        <ele>246.2</ele>
        <time>2025-09-11T08:11:38Z</time>
      </trkpt>
      <trkpt lat="45.9043" lon="4.57119">
        <ele>246.2</ele>
        <time>2025-09-11T08:11:39Z</time>
      </trkpt>
      <trkpt lat="45.90431" lon="4.5712">
        <ele>244.8</ele>
        <time>2025-09-11T08:12:51Z</time>
      </trkpt>
      <trkpt lat="45.90432" lon="4.57123">
        <ele>244.6</ele>
        <time>2025-09-11T08:12:52Z</time>
      </trkpt>
      <trkpt lat="45.90433" lon="4.57126">
        <ele>244.6</ele>
        <time>2025-09-11T08:12:53Z</time>
      </trkpt>
      <trkpt lat="45.90434" lon="4.5713">
        <ele>244.4</ele>
        <time>2025-09-11T08:12:54Z</time>
      </trkpt>
      <trkpt lat="45.90436" lon="4.57133">
        <ele>244.4</ele>
        <time>2025-09-11T08:12:55Z</time>
      </trkpt>
      <trkpt lat="45.90438" lon="4.57137">
        <ele>244</ele>
        <time>2025-09-11T08:12:56Z</time>
      </trkpt>
      <trkpt lat="45.9044" lon="4.57141">
        <ele>244</ele>
        <time>2025-09-11T08:12:57Z</time>
      </trkpt>
      <trkpt lat="45.90442" lon="4.57144">
        <ele>244</ele>
        <time>2025-09-11T08:12:58Z</time>
      </trkpt>
      <trkpt lat="45.90443" lon="4.57149">
        <ele>244</ele>
        <time>2025-09-11T08:12:59Z</time>
      </trkpt>
      <trkpt lat="45.90445" lon="4.57153">
        <ele>244</ele>
        <time>2025-09-11T08:13:00Z</time>
      </trkpt>
      <trkpt lat="45.90447" lon="4.57158">
        <ele>244</ele>
        <time>2025-09-11T08:13:01Z</time>
      </trkpt>
      <trkpt lat="45.90449" lon="4.57163">
        <ele>244</ele>
        <time>2025-09-11T08:13:02Z</time>
      </trkpt>
      <trkpt lat="45.9045" lon="4.57167">
        <ele>244</ele>
        <time>2025-09-11T08:13:03Z</time>
      </trkpt>
      <trkpt lat="45.90452" lon="4.5717">
        <ele>244</ele>
        <time>2025-09-11T08:13:04Z</time>
      </trkpt>
      <trkpt lat="45.90454" lon="4.57174">
        <ele>244</ele>
        <time>2025-09-11T08:13:05Z</time>
      </trkpt>
      <trkpt lat="45.90456" lon="4.57177">
        <ele>244</ele>
        <time>2025-09-11T08:13:06Z</time>
      </trkpt>
      <trkpt lat="45.90458" lon="4.5718">
        <ele>244</ele>
        <time>2025-09-11T08:13:07Z</time>
      </trkpt>
      <trkpt lat="45.90461" lon="4.57184">
        <ele>243.8</ele>
        <time>2025-09-11T08:13:08Z</time>
      </trkpt>
      <trkpt lat="45.90463" lon="4.57187">
        <ele>243.8</ele>
        <time>2025-09-11T08:13:09Z</time>
      </trkpt>
      <trkpt lat="45.90466" lon="4.57191">
        <ele>243.8</ele>
        <time>2025-09-11T08:13:10Z</time>
      </trkpt>
      <trkpt lat="45.90468" lon="4.57194">
        <ele>243.6</ele>
        <time>2025-09-11T08:13:11Z</time>
      </trkpt>
      <trkpt lat="45.90471" lon="4.57197">
        <ele>243.6</ele>
        <time>2025-09-11T08:13:12Z</time>
      </trkpt>
      <trkpt lat="45.90474" lon="4.572">
        <ele>243.8</ele>
        <time>2025-09-11T08:13:13Z</time>
      </trkpt>
      <trkpt lat="45.90476" lon="4.57202">
        <ele>243.8</ele>
        <time>2025-09-11T08:13:14Z</time>
      </trkpt>
      <trkpt lat="45.90478" lon="4.57204">
        <ele>243.8</ele>
        <time>2025-09-11T08:13:15Z</time>
      </trkpt>
      <trkpt lat="45.9048" lon="4.57206">
        <ele>243.8</ele>
        <time>2025-09-11T08:13:16Z</time>
      </trkpt>
      <trkpt lat="45.90481" lon="4.57208">
        <ele>244.2</ele>
        <time>2025-09-11T08:13:17Z</time>
      </trkpt>
      <trkpt lat="45.90482" lon="4.5721">
        <ele>244.2</ele>
        <time>2025-09-11T08:13:18Z</time>
      </trkpt>
      <trkpt lat="45.90483" lon="4.57212">
        <ele>244.4</ele>
        <time>2025-09-11T08:13:19Z</time>
      </trkpt>
      <trkpt lat="45.90484" lon="4.57213">
        <ele>244.8</ele>
        <time>2025-09-11T08:13:20Z</time>
      </trkpt>
      <trkpt lat="45.90485" lon="4.57215">
        <ele>244.8</ele>
        <time>2025-09-11T08:13:21Z</time>
      </trkpt>
      <trkpt lat="45.90485" lon="4.57217">
        <ele>245</ele>
        <time>2025-09-11T08:13:22Z</time>
      </trkpt>
      <trkpt lat="45.90486" lon="4.57219">
        <ele>245</ele>
        <time>2025-09-11T08:13:23Z</time>
      </trkpt>
      <trkpt lat="45.90486" lon="4.5722">
        <ele>245.4</ele>
        <time>2025-09-11T08:13:24Z</time>
      </trkpt>
      <trkpt lat="45.90487" lon="4.57222">
        <ele>245.4</ele>
        <time>2025-09-11T08:13:25Z</time>
      </trkpt>
      <trkpt lat="45.90488" lon="4.57224">
        <ele>245.8</ele>
        <time>2025-09-11T08:13:26Z</time>
      </trkpt>
      <trkpt lat="45.90489" lon="4.57225">
        <ele>245.8</ele>
        <time>2025-09-11T08:13:27Z</time>
      </trkpt>
      <trkpt lat="45.9049" lon="4.57227">
        <ele>245.6</ele>
        <time>2025-09-11T08:13:28Z</time>
      </trkpt>
      <trkpt lat="45.90492" lon="4.57229">
        <ele>245.6</ele>
        <time>2025-09-11T08:13:29Z</time>
      </trkpt>
      <trkpt lat="45.90493" lon="4.57231">
        <ele>245.6</ele>
        <time>2025-09-11T08:13:30Z</time>
      </trkpt>
      <trkpt lat="45.90495" lon="4.57233">
        <ele>245.6</ele>
        <time>2025-09-11T08:13:31Z</time>
      </trkpt>
      <trkpt lat="45.90497" lon="4.57235">
        <ele>245.6</ele>
        <time>2025-09-11T08:13:32Z</time>
      </trkpt>
      <trkpt lat="45.90498" lon="4.57238">
        <ele>245.6</ele>
        <time>2025-09-11T08:13:33Z</time>
      </trkpt>
      <trkpt lat="45.905" lon="4.5724">
        <ele>245.6</ele>
        <time>2025-09-11T08:13:34Z</time>
      </trkpt>
      <trkpt lat="45.90502" lon="4.57243">
        <ele>245.6</ele>
        <time>2025-09-11T08:13:35Z</time>
      </trkpt>
      <trkpt lat="45.90503" lon="4.57245">
        <ele>245.6</ele>
        <time>2025-09-11T08:13:36Z</time>
      </trkpt>
      <trkpt lat="45.90505" lon="4.57247">
        <ele>245.6</ele>
        <time>2025-09-11T08:13:37Z</time>
      </trkpt>
      <trkpt lat="45.90506" lon="4.57249">
        <ele>245.6</ele>
        <time>2025-09-11T08:13:38Z</time>
      </trkpt>
      <trkpt lat="45.90509" lon="4.57251">
        <ele>245.6</ele>
        <time>2025-09-11T08:13:39Z</time>
      </trkpt>
      <trkpt lat="45.90511" lon="4.57253">
        <ele>245.6</ele>
        <time>2025-09-11T08:13:40Z</time>
      </trkpt>
      <trkpt lat="45.90513" lon="4.57255">
        <ele>245.6</ele>
        <time>2025-09-11T08:13:41Z</time>
      </trkpt>
      <trkpt lat="45.90515" lon="4.57257">
        <ele>245.6</ele>
        <time>2025-09-11T08:13:42Z</time>
      </trkpt>
      <trkpt lat="45.90516" lon="4.57259">
        <ele>245.6</ele>
        <time>2025-09-11T08:13:43Z</time>
      </trkpt>
      <trkpt lat="45.90518" lon="4.57261">
        <ele>245.6</ele>
        <time>2025-09-11T08:13:44Z</time>
      </trkpt>
      <trkpt lat="45.9052" lon="4.57264">
        <ele>244.6</ele>
        <time>2025-09-11T08:13:45Z</time>
      </trkpt>
      <trkpt lat="45.90522" lon="4.57267">
        <ele>244.6</ele>
        <time>2025-09-11T08:13:46Z</time>
      </trkpt>
      <trkpt lat="45.90524" lon="4.57269">
        <ele>244.6</ele>
        <time>2025-09-11T08:13:47Z</time>
      </trkpt>
      <trkpt lat="45.90526" lon="4.57272">
        <ele>244.6</ele>
        <time>2025-09-11T08:13:48Z</time>
      </trkpt>
      <trkpt lat="45.90528" lon="4.57275">
        <ele>244.6</ele>
        <time>2025-09-11T08:13:49Z</time>
      </trkpt>
      <trkpt lat="45.9053" lon="4.57278">
        <ele>244.4</ele>
        <time>2025-09-11T08:13:50Z</time>
      </trkpt>
      <trkpt lat="45.90532" lon="4.57281">
        <ele>245.8</ele>
        <time>2025-09-11T08:13:51Z</time>
      </trkpt>
      <trkpt lat="45.90534" lon="4.57283">
        <ele>245.8</ele>
        <time>2025-09-11T08:13:52Z</time>
      </trkpt>
      <trkpt lat="45.90536" lon="4.57286">
        <ele>245.4</ele>
        <time>2025-09-11T08:13:53Z</time>
      </trkpt>
      <trkpt lat="45.90538" lon="4.57289">
        <ele>245.4</ele>
        <time>2025-09-11T08:13:54Z</time>
      </trkpt>
      <trkpt lat="45.9054" lon="4.57291">
        <ele>245.4</ele>
        <time>2025-09-11T08:13:55Z</time>
      </trkpt>
      <trkpt lat="45.90542" lon="4.57293">
        <ele>245.4</ele>
        <time>2025-09-11T08:13:56Z</time>
      </trkpt>
      <trkpt lat="45.90544" lon="4.57295">
        <ele>245</ele>
        <time>2025-09-11T08:13:57Z</time>
      </trkpt>
      <trkpt lat="45.90546" lon="4.57297">
        <ele>245</ele>
        <time>2025-09-11T08:13:58Z</time>
      </trkpt>
      <trkpt lat="45.90548" lon="4.57298">
        <ele>245</ele>
        <time>2025-09-11T08:13:59Z</time>
      </trkpt>
      <trkpt lat="45.9055" lon="4.57299">
        <ele>245</ele>
        <time>2025-09-11T08:14:00Z</time>
      </trkpt>
      <trkpt lat="45.90553" lon="4.57298">
        <ele>245</ele>
        <time>2025-09-11T08:14:01Z</time>
      </trkpt>
      <trkpt lat="45.90555" lon="4.57295">
        <ele>245</ele>
        <time>2025-09-11T08:14:02Z</time>
      </trkpt>
      <trkpt lat="45.90558" lon="4.57292">
        <ele>244.6</ele>
        <time>2025-09-11T08:14:03Z</time>
      </trkpt>
      <trkpt lat="45.90559" lon="4.5729">
        <ele>244.6</ele>
        <time>2025-09-11T08:14:04Z</time>
      </trkpt>
      <trkpt lat="45.9056" lon="4.57287">
        <ele>244.6</ele>
        <time>2025-09-11T08:14:05Z</time>
      </trkpt>
      <trkpt lat="45.90561" lon="4.57286">
        <ele>244.6</ele>
        <time>2025-09-11T08:14:06Z</time>
      </trkpt>
      <trkpt lat="45.90562" lon="4.57286">
        <ele>244.6</ele>
        <time>2025-09-11T08:14:07Z</time>
      </trkpt>
      <trkpt lat="45.90564" lon="4.57286">
        <ele>244.6</ele>
        <time>2025-09-11T08:14:08Z</time>
      </trkpt>
      <trkpt lat="45.90565" lon="4.57286">
        <ele>245</ele>
        <time>2025-09-11T08:14:09Z</time>
      </trkpt>
      <trkpt lat="45.90567" lon="4.57283">
        <ele>245</ele>
        <time>2025-09-11T08:14:10Z</time>
      </trkpt>
      <trkpt lat="45.90567" lon="4.57279">
        <ele>245</ele>
        <time>2025-09-11T08:14:11Z</time>
      </trkpt>
      <trkpt lat="45.90567" lon="4.57275">
        <ele>245</ele>
        <time>2025-09-11T08:14:12Z</time>
      </trkpt>
      <trkpt lat="45.90567" lon="4.5727">
        <ele>245</ele>
        <time>2025-09-11T08:14:13Z</time>
      </trkpt>
      <trkpt lat="45.90567" lon="4.57266">
        <ele>245</ele>
        <time>2025-09-11T08:14:14Z</time>
      </trkpt>
      <trkpt lat="45.90567" lon="4.57262">
        <ele>245</ele>
        <time>2025-09-11T08:14:15Z</time>
      </trkpt>
      <trkpt lat="45.90568" lon="4.57257">
        <ele>245.2</ele>
        <time>2025-09-11T08:14:16Z</time>
      </trkpt>
      <trkpt lat="45.90568" lon="4.57253">
        <ele>245.2</ele>
        <time>2025-09-11T08:14:17Z</time>
      </trkpt>
      <trkpt lat="45.90568" lon="4.57249">
        <ele>245.6</ele>
        <time>2025-09-11T08:14:18Z</time>
      </trkpt>
      <trkpt lat="45.90569" lon="4.57245">
        <ele>245.6</ele>
        <time>2025-09-11T08:14:19Z</time>
      </trkpt>
      <trkpt lat="45.90571" lon="4.57241">
        <ele>245.6</ele>
        <time>2025-09-11T08:14:20Z</time>
      </trkpt>
      <trkpt lat="45.90574" lon="4.5724">
        <ele>245.8</ele>
        <time>2025-09-11T08:14:21Z</time>
      </trkpt>
      <trkpt lat="45.90577" lon="4.57242">
        <ele>245.8</ele>
        <time>2025-09-11T08:14:22Z</time>
      </trkpt>
      <trkpt lat="45.90579" lon="4.57246">
        <ele>245.8</ele>
        <time>2025-09-11T08:14:23Z</time>
      </trkpt>
      <trkpt lat="45.90581" lon="4.57251">
        <ele>245.8</ele>
        <time>2025-09-11T08:14:24Z</time>
      </trkpt>
      <trkpt lat="45.90583" lon="4.57255">
        <ele>246</ele>
        <time>2025-09-11T08:14:25Z</time>
      </trkpt>
      <trkpt lat="45.90585" lon="4.5726">
        <ele>246</ele>
        <time>2025-09-11T08:14:26Z</time>
      </trkpt>
      <trkpt lat="45.90587" lon="4.57265">
        <ele>245.8</ele>
        <time>2025-09-11T08:14:27Z</time>
      </trkpt>
      <trkpt lat="45.90589" lon="4.5727">
        <ele>245.8</ele>
        <time>2025-09-11T08:14:28Z</time>
      </trkpt>
      <trkpt lat="45.90591" lon="4.57275">
        <ele>245.8</ele>
        <time>2025-09-11T08:14:29Z</time>
      </trkpt>
      <trkpt lat="45.90593" lon="4.57281">
        <ele>245.8</ele>
        <time>2025-09-11T08:14:30Z</time>
      </trkpt>
      <trkpt lat="45.90596" lon="4.57286">
        <ele>245.6</ele>
        <time>2025-09-11T08:14:31Z</time>
      </trkpt>
      <trkpt lat="45.90598" lon="4.57291">
        <ele>245.6</ele>
        <time>2025-09-11T08:14:32Z</time>
      </trkpt>
      <trkpt lat="45.90601" lon="4.57295">
        <ele>245.6</ele>
        <time>2025-09-11T08:14:33Z</time>
      </trkpt>
      <trkpt lat="45.90603" lon="4.57299">
        <ele>245.2</ele>
        <time>2025-09-11T08:14:34Z</time>
      </trkpt>
      <trkpt lat="45.90605" lon="4.57302">
        <ele>245.2</ele>
        <time>2025-09-11T08:14:35Z</time>
      </trkpt>
      <trkpt lat="45.90608" lon="4.57303">
        <ele>245</ele>
        <time>2025-09-11T08:14:36Z</time>
      </trkpt>
      <trkpt lat="45.9061" lon="4.57301">
        <ele>245</ele>
        <time>2025-09-11T08:14:37Z</time>
      </trkpt>
      <trkpt lat="45.90611" lon="4.57297">
        <ele>245</ele>
        <time>2025-09-11T08:14:38Z</time>
      </trkpt>
      <trkpt lat="45.90611" lon="4.57292">
        <ele>245</ele>
        <time>2025-09-11T08:14:39Z</time>
      </trkpt>
      <trkpt lat="45.9061" lon="4.57288">
        <ele>245</ele>
        <time>2025-09-11T08:14:40Z</time>
      </trkpt>
      <trkpt lat="45.9061" lon="4.57286">
        <ele>245</ele>
        <time>2025-09-11T08:14:41Z</time>
      </trkpt>
      <trkpt lat="45.90609" lon="4.57283">
        <ele>245.4</ele>
        <time>2025-09-11T08:14:42Z</time>
      </trkpt>
      <trkpt lat="45.90607" lon="4.5728">
        <ele>245.4</ele>
        <time>2025-09-11T08:14:43Z</time>
      </trkpt>
      <trkpt lat="45.90606" lon="4.57278">
        <ele>245.6</ele>
        <time>2025-09-11T08:14:44Z</time>
      </trkpt>
      <trkpt lat="45.90605" lon="4.57276">
        <ele>244.6</ele>
        <time>2025-09-11T08:14:45Z</time>
      </trkpt>
      <trkpt lat="45.90603" lon="4.57274">
        <ele>244.6</ele>
        <time>2025-09-11T08:14:46Z</time>
      </trkpt>
      <trkpt lat="45.90602" lon="4.57272">
        <ele>244.6</ele>
        <time>2025-09-11T08:14:47Z</time>
      </trkpt>
      <trkpt lat="45.906" lon="4.57269">
        <ele>245.2</ele>
        <time>2025-09-11T08:14:48Z</time>
      </trkpt>
      <trkpt lat="45.90599" lon="4.57266">
        <ele>246.2</ele>
        <time>2025-09-11T08:14:49Z</time>
      </trkpt>
      <trkpt lat="45.90598" lon="4.57264">
        <ele>246.6</ele>
        <time>2025-09-11T08:14:50Z</time>
      </trkpt>
      <trkpt lat="45.90596" lon="4.57262">
        <ele>247</ele>
        <time>2025-09-11T08:14:51Z</time>
      </trkpt>
      <trkpt lat="45.90595" lon="4.57261">
        <ele>247.6</ele>
        <time>2025-09-11T08:14:52Z</time>
      </trkpt>
      <trkpt lat="45.90594" lon="4.57259">
        <ele>247.8</ele>
        <time>2025-09-11T08:14:53Z</time>
      </trkpt>
      <trkpt lat="45.90593" lon="4.57258">
        <ele>248</ele>
        <time>2025-09-11T08:14:54Z</time>
      </trkpt>
      <trkpt lat="45.90592" lon="4.57256">
        <ele>248</ele>
        <time>2025-09-11T08:14:55Z</time>
      </trkpt>
      <trkpt lat="45.90591" lon="4.57254">
        <ele>248.2</ele>
        <time>2025-09-11T08:14:56Z</time>
      </trkpt>
      <trkpt lat="45.9059" lon="4.57252">
        <ele>248.2</ele>
        <time>2025-09-11T08:14:57Z</time>
      </trkpt>
      <trkpt lat="45.90589" lon="4.5725">
        <ele>248.2</ele>
        <time>2025-09-11T08:14:58Z</time>
      </trkpt>
      <trkpt lat="45.90589" lon="4.57248">
        <ele>248.6</ele>
        <time>2025-09-11T08:14:59Z</time>
      </trkpt>
      <trkpt lat="45.90588" lon="4.57246">
        <ele>248.6</ele>
        <time>2025-09-11T08:15:00Z</time>
      </trkpt>
      <trkpt lat="45.90587" lon="4.57243">
        <ele>248.8</ele>
        <time>2025-09-11T08:15:01Z</time>
      </trkpt>
      <trkpt lat="45.90587" lon="4.57242">
        <ele>249.2</ele>
        <time>2025-09-11T08:15:02Z</time>
      </trkpt>
      <trkpt lat="45.90586" lon="4.5724">
        <ele>249.4</ele>
        <time>2025-09-11T08:15:03Z</time>
      </trkpt>
      <trkpt lat="45.90585" lon="4.57238">
        <ele>249.6</ele>
        <time>2025-09-11T08:15:04Z</time>
      </trkpt>
      <trkpt lat="45.90584" lon="4.57237">
        <ele>250</ele>
        <time>2025-09-11T08:15:05Z</time>
      </trkpt>
      <trkpt lat="45.90583" lon="4.57235">
        <ele>250.4</ele>
        <time>2025-09-11T08:15:06Z</time>
      </trkpt>
      <trkpt lat="45.90583" lon="4.57233">
        <ele>250.6</ele>
        <time>2025-09-11T08:15:07Z</time>
      </trkpt>
      <trkpt lat="45.90582" lon="4.57231">
        <ele>250.6</ele>
        <time>2025-09-11T08:15:08Z</time>
      </trkpt>
      <trkpt lat="45.90583" lon="4.57229">
        <ele>250.6</ele>
        <time>2025-09-11T08:15:09Z</time>
      </trkpt>
      <trkpt lat="45.90584" lon="4.57227">
        <ele>251.2</ele>
        <time>2025-09-11T08:15:10Z</time>
      </trkpt>
      <trkpt lat="45.90585" lon="4.57226">
        <ele>251.2</ele>
        <time>2025-09-11T08:15:11Z</time>
      </trkpt>
      <trkpt lat="45.90586" lon="4.57225">
        <ele>251.4</ele>
        <time>2025-09-11T08:15:12Z</time>
      </trkpt>
      <trkpt lat="45.90588" lon="4.57225">
        <ele>251.4</ele>
        <time>2025-09-11T08:15:13Z</time>
      </trkpt>
      <trkpt lat="45.9059" lon="4.57225">
        <ele>251.4</ele>
        <time>2025-09-11T08:15:14Z</time>
      </trkpt>
      <trkpt lat="45.90591" lon="4.57226">
        <ele>252</ele>
        <time>2025-09-11T08:15:15Z</time>
      </trkpt>
      <trkpt lat="45.90593" lon="4.57226">
        <ele>252</ele>
        <time>2025-09-11T08:15:16Z</time>
      </trkpt>
      <trkpt lat="45.90595" lon="4.57227">
        <ele>252.2</ele>
        <time>2025-09-11T08:15:17Z</time>
      </trkpt>
      <trkpt lat="45.90596" lon="4.57227">
        <ele>252.2</ele>
        <time>2025-09-11T08:15:18Z</time>
      </trkpt>
      <trkpt lat="45.90597" lon="4.57228">
        <ele>252.6</ele>
        <time>2025-09-11T08:15:19Z</time>
      </trkpt>
      <trkpt lat="45.90598" lon="4.57229">
        <ele>252.6</ele>
        <time>2025-09-11T08:15:20Z</time>
      </trkpt>
      <trkpt lat="45.90599" lon="4.5723">
        <ele>253</ele>
        <time>2025-09-11T08:15:21Z</time>
      </trkpt>
      <trkpt lat="45.906" lon="4.57232">
        <ele>253</ele>
        <time>2025-09-11T08:15:22Z</time>
      </trkpt>
      <trkpt lat="45.90601" lon="4.57233">
        <ele>253.6</ele>
        <time>2025-09-11T08:15:23Z</time>
      </trkpt>
      <trkpt lat="45.90602" lon="4.57234">
        <ele>253.6</ele>
        <time>2025-09-11T08:15:24Z</time>
      </trkpt>
      <trkpt lat="45.90604" lon="4.57234">
        <ele>253.6</ele>
        <time>2025-09-11T08:15:25Z</time>
      </trkpt>
      <trkpt lat="45.90605" lon="4.57235">
        <ele>253.8</ele>
        <time>2025-09-11T08:15:26Z</time>
      </trkpt>
      <trkpt lat="45.90606" lon="4.57235">
        <ele>254</ele>
        <time>2025-09-11T08:15:27Z</time>
      </trkpt>
      <trkpt lat="45.90606" lon="4.57236">
        <ele>254</ele>
        <time>2025-09-11T08:15:28Z</time>
      </trkpt>
      <trkpt lat="45.90607" lon="4.57237">
        <ele>254.4</ele>
        <time>2025-09-11T08:15:29Z</time>
      </trkpt>
      <trkpt lat="45.90608" lon="4.57239">
        <ele>254.6</ele>
        <time>2025-09-11T08:15:30Z</time>
      </trkpt>
      <trkpt lat="45.90609" lon="4.57239">
        <ele>254.6</ele>
        <time>2025-09-11T08:15:31Z</time>
      </trkpt>
      <trkpt lat="45.90609" lon="4.57238">
        <ele>254.6</ele>
        <time>2025-09-11T08:15:32Z</time>
      </trkpt>
      <trkpt lat="45.9061" lon="4.57238">
        <ele>255.4</ele>
        <time>2025-09-11T08:15:45Z</time>
      </trkpt>
      <trkpt lat="45.90611" lon="4.57238">
        <ele>255.6</ele>
        <time>2025-09-11T08:15:46Z</time>
      </trkpt>
      <trkpt lat="45.90612" lon="4.57238">
        <ele>255.6</ele>
        <time>2025-09-11T08:15:47Z</time>
      </trkpt>
      <trkpt lat="45.90613" lon="4.57238">
        <ele>255.6</ele>
        <time>2025-09-11T08:15:48Z</time>
      </trkpt>
      <trkpt lat="45.90613" lon="4.57237">
        <ele>255.6</ele>
        <time>2025-09-11T08:15:49Z</time>
      </trkpt>
      <trkpt lat="45.90614" lon="4.57238">
        <ele>256</ele>
        <time>2025-09-11T08:15:50Z</time>
      </trkpt>
      <trkpt lat="45.90615" lon="4.57238">
        <ele>256</ele>
        <time>2025-09-11T08:15:51Z</time>
      </trkpt>
      <trkpt lat="45.90616" lon="4.57238">
        <ele>256</ele>
        <time>2025-09-11T08:15:52Z</time>
      </trkpt>
      <trkpt lat="45.90616" lon="4.57239">
        <ele>256.4</ele>
        <time>2025-09-11T08:15:53Z</time>
      </trkpt>
      <trkpt lat="45.90617" lon="4.57239">
        <ele>256.6</ele>
        <time>2025-09-11T08:15:54Z</time>
      </trkpt>
      <trkpt lat="45.90617" lon="4.5724">
        <ele>256.6</ele>
        <time>2025-09-11T08:15:55Z</time>
      </trkpt>
      <trkpt lat="45.90618" lon="4.5724">
        <ele>257</ele>
        <time>2025-09-11T08:15:56Z</time>
      </trkpt>
      <trkpt lat="45.90619" lon="4.57241">
        <ele>257.2</ele>
        <time>2025-09-11T08:15:57Z</time>
      </trkpt>
      <trkpt lat="45.9062" lon="4.57242">
        <ele>257.2</ele>
        <time>2025-09-11T08:15:58Z</time>
      </trkpt>
      <trkpt lat="45.90621" lon="4.57242">
        <ele>257.2</ele>
        <time>2025-09-11T08:15:59Z</time>
      </trkpt>
      <trkpt lat="45.90621" lon="4.57243">
        <ele>257.4</ele>
        <time>2025-09-11T08:16:00Z</time>
      </trkpt>
      <trkpt lat="45.90622" lon="4.57243">
        <ele>257.4</ele>
        <time>2025-09-11T08:16:01Z</time>
      </trkpt>
      <trkpt lat="45.90623" lon="4.57243">
        <ele>257.4</ele>
        <time>2025-09-11T08:16:02Z</time>
      </trkpt>
      <trkpt lat="45.90623" lon="4.57243">
        <ele>257.4</ele>
        <time>2025-09-11T08:16:03Z</time>
      </trkpt>
      <trkpt lat="45.90624" lon="4.57244">
        <ele>257.6</ele>
        <time>2025-09-11T08:16:04Z</time>
      </trkpt>
      <trkpt lat="45.90625" lon="4.57245">
        <ele>257.6</ele>
        <time>2025-09-11T08:16:05Z</time>
      </trkpt>
      <trkpt lat="45.90626" lon="4.57245">
        <ele>257.6</ele>
        <time>2025-09-11T08:16:06Z</time>
      </trkpt>
      <trkpt lat="45.90626" lon="4.57246">
        <ele>257.8</ele>
        <time>2025-09-11T08:16:07Z</time>
      </trkpt>
      <trkpt lat="45.90627" lon="4.57247">
        <ele>257.8</ele>
        <time>2025-09-11T08:16:08Z</time>
      </trkpt>
      <trkpt lat="45.90628" lon="4.57247">
        <ele>258.2</ele>
        <time>2025-09-11T08:16:09Z</time>
      </trkpt>
      <trkpt lat="45.9063" lon="4.57247">
        <ele>258.2</ele>
        <time>2025-09-11T08:16:10Z</time>
      </trkpt>
      <trkpt lat="45.9063" lon="4.57247">
        <ele>258.6</ele>
        <time>2025-09-11T08:16:11Z</time>
      </trkpt>
      <trkpt lat="45.90631" lon="4.57247">
        <ele>258.6</ele>
        <time>2025-09-11T08:16:12Z</time>
      </trkpt>
      <trkpt lat="45.90633" lon="4.57246">
        <ele>258.8</ele>
        <time>2025-09-11T08:16:13Z</time>
      </trkpt>
      <trkpt lat="45.90634" lon="4.57246">
        <ele>258.8</ele>
        <time>2025-09-11T08:16:14Z</time>
      </trkpt>
      <trkpt lat="45.90635" lon="4.57246">
        <ele>259.2</ele>
        <time>2025-09-11T08:16:15Z</time>
      </trkpt>
      <trkpt lat="45.90636" lon="4.57245">
        <ele>259.2</ele>
        <time>2025-09-11T08:16:16Z</time>
      </trkpt>
      <trkpt lat="45.90637" lon="4.57244">
        <ele>259.2</ele>
        <time>2025-09-11T08:16:17Z</time>
      </trkpt>
      <trkpt lat="45.90637" lon="4.57242">
        <ele>259.4</ele>
        <time>2025-09-11T08:16:18Z</time>
      </trkpt>
      <trkpt lat="45.90638" lon="4.57241">
        <ele>259.4</ele>
        <time>2025-09-11T08:16:19Z</time>
      </trkpt>
      <trkpt lat="45.90639" lon="4.5724">
        <ele>259.4</ele>
        <time>2025-09-11T08:16:20Z</time>
      </trkpt>
      <trkpt lat="45.9064" lon="4.57238">
        <ele>259.6</ele>
        <time>2025-09-11T08:16:21Z</time>
      </trkpt>
      <trkpt lat="45.90641" lon="4.57237">
        <ele>259.6</ele>
        <time>2025-09-11T08:16:22Z</time>
      </trkpt>
      <trkpt lat="45.90642" lon="4.57236">
        <ele>260</ele>
        <time>2025-09-11T08:16:23Z</time>
      </trkpt>
      <trkpt lat="45.90643" lon="4.57235">
        <ele>260</ele>
        <time>2025-09-11T08:16:24Z</time>
      </trkpt>
      <trkpt lat="45.90644" lon="4.57234">
        <ele>260</ele>
        <time>2025-09-11T08:16:25Z</time>
      </trkpt>
      <trkpt lat="45.90644" lon="4.57233">
        <ele>260.4</ele>
        <time>2025-09-11T08:16:26Z</time>
      </trkpt>
      <trkpt lat="45.90645" lon="4.57232">
        <ele>260.4</ele>
        <time>2025-09-11T08:16:27Z</time>
      </trkpt>
      <trkpt lat="45.90645" lon="4.57231">
        <ele>260.4</ele>
        <time>2025-09-11T08:16:28Z</time>
      </trkpt>
      <trkpt lat="45.90646" lon="4.5723">
        <ele>260.4</ele>
        <time>2025-09-11T08:16:29Z</time>
      </trkpt>
      <trkpt lat="45.90647" lon="4.57228">
        <ele>260.4</ele>
        <time>2025-09-11T08:16:30Z</time>
      </trkpt>
      <trkpt lat="45.90647" lon="4.57227">
        <ele>260.8</ele>
        <time>2025-09-11T08:16:31Z</time>
      </trkpt>
      <trkpt lat="45.90648" lon="4.57226">
        <ele>260.8</ele>
        <time>2025-09-11T08:16:32Z</time>
      </trkpt>
      <trkpt lat="45.90648" lon="4.57224">
        <ele>260.8</ele>
        <time>2025-09-11T08:16:33Z</time>
      </trkpt>
      <trkpt lat="45.90648" lon="4.57223">
        <ele>260.8</ele>
        <time>2025-09-11T08:16:34Z</time>
      </trkpt>
      <trkpt lat="45.90649" lon="4.57221">
        <ele>261.2</ele>
        <time>2025-09-11T08:16:35Z</time>
      </trkpt>
      <trkpt lat="45.90649" lon="4.57219">
        <ele>261.4</ele>
        <time>2025-09-11T08:16:36Z</time>
      </trkpt>
      <trkpt lat="45.90649" lon="4.57218">
        <ele>261.6</ele>
        <time>2025-09-11T08:16:37Z</time>
      </trkpt>
      <trkpt lat="45.90649" lon="4.57217">
        <ele>261.6</ele>
        <time>2025-09-11T08:16:38Z</time>
      </trkpt>
      <trkpt lat="45.9065" lon="4.57216">
        <ele>262</ele>
        <time>2025-09-11T08:16:39Z</time>
      </trkpt>
      <trkpt lat="45.90651" lon="4.57215">
        <ele>262</ele>
        <time>2025-09-11T08:16:40Z</time>
      </trkpt>
      <trkpt lat="45.90652" lon="4.57214">
        <ele>262.4</ele>
        <time>2025-09-11T08:16:41Z</time>
      </trkpt>
      <trkpt lat="45.90652" lon="4.57213">
        <ele>262.4</ele>
        <time>2025-09-11T08:16:42Z</time>
      </trkpt>
      <trkpt lat="45.90653" lon="4.57211">
        <ele>262.8</ele>
        <time>2025-09-11T08:16:43Z</time>
      </trkpt>
      <trkpt lat="45.90653" lon="4.5721">
        <ele>263.2</ele>
        <time>2025-09-11T08:16:44Z</time>
      </trkpt>
      <trkpt lat="45.90654" lon="4.57208">
        <ele>263.2</ele>
        <time>2025-09-11T08:16:45Z</time>
      </trkpt>
      <trkpt lat="45.90654" lon="4.57207">
        <ele>263.2</ele>
        <time>2025-09-11T08:16:46Z</time>
      </trkpt>
      <trkpt lat="45.90654" lon="4.57206">
        <ele>263.4</ele>
        <time>2025-09-11T08:16:47Z</time>
      </trkpt>
      <trkpt lat="45.90654" lon="4.57204">
        <ele>263.4</ele>
        <time>2025-09-11T08:16:48Z</time>
      </trkpt>
      <trkpt lat="45.90654" lon="4.57203">
        <ele>263.8</ele>
        <time>2025-09-11T08:16:49Z</time>
      </trkpt>
      <trkpt lat="45.90654" lon="4.57202">
        <ele>263.8</ele>
        <time>2025-09-11T08:16:50Z</time>
      </trkpt>
      <trkpt lat="45.90655" lon="4.572">
        <ele>263.8</ele>
        <time>2025-09-11T08:16:51Z</time>
      </trkpt>
      <trkpt lat="45.90655" lon="4.57199">
        <ele>264</ele>
        <time>2025-09-11T08:16:52Z</time>
      </trkpt>
      <trkpt lat="45.90655" lon="4.57197">
        <ele>264</ele>
        <time>2025-09-11T08:16:53Z</time>
      </trkpt>
      <trkpt lat="45.90655" lon="4.57196">
        <ele>264.2</ele>
        <time>2025-09-11T08:16:54Z</time>
      </trkpt>
      <trkpt lat="45.90655" lon="4.57194">
        <ele>264.2</ele>
        <time>2025-09-11T08:16:55Z</time>
      </trkpt>
      <trkpt lat="45.90655" lon="4.57192">
        <ele>264.2</ele>
        <time>2025-09-11T08:16:56Z</time>
      </trkpt>
      <trkpt lat="45.90655" lon="4.5719">
        <ele>264.6</ele>
        <time>2025-09-11T08:16:57Z</time>
      </trkpt>
      <trkpt lat="45.90655" lon="4.57189">
        <ele>264.8</ele>
        <time>2025-09-11T08:16:58Z</time>
      </trkpt>
      <trkpt lat="45.90655" lon="4.57188">
        <ele>265.2</ele>
        <time>2025-09-11T08:16:59Z</time>
      </trkpt>
      <trkpt lat="45.90655" lon="4.57187">
        <ele>265.2</ele>
        <time>2025-09-11T08:17:00Z</time>
      </trkpt>
      <trkpt lat="45.90655" lon="4.57186">
        <ele>265.2</ele>
        <time>2025-09-11T08:17:01Z</time>
      </trkpt>
      <trkpt lat="45.90655" lon="4.57184">
        <ele>265.4</ele>
        <time>2025-09-11T08:17:02Z</time>
      </trkpt>
      <trkpt lat="45.90655" lon="4.57183">
        <ele>265.4</ele>
        <time>2025-09-11T08:17:03Z</time>
      </trkpt>
      <trkpt lat="45.90655" lon="4.57183">
        <ele>265.4</ele>
        <time>2025-09-11T08:17:04Z</time>
      </trkpt>
      <trkpt lat="45.90654" lon="4.57183">
        <ele>265.4</ele>
        <time>2025-09-11T08:17:05Z</time>
      </trkpt>
      <trkpt lat="45.90654" lon="4.5718">
        <ele>265.8</ele>
        <time>2025-09-11T08:17:38Z</time>
      </trkpt>
      <trkpt lat="45.90654" lon="4.57179">
        <ele>265.8</ele>
        <time>2025-09-11T08:17:39Z</time>
      </trkpt>
      <trkpt lat="45.90653" lon="4.57178">
        <ele>265.8</ele>
        <time>2025-09-11T08:17:40Z</time>
      </trkpt>
      <trkpt lat="45.90653" lon="4.57177">
        <ele>265.8</ele>
        <time>2025-09-11T08:17:41Z</time>
      </trkpt>
      <trkpt lat="45.90652" lon="4.57176">
        <ele>265.8</ele>
        <time>2025-09-11T08:17:42Z</time>
      </trkpt>
      <trkpt lat="45.90652" lon="4.57174">
        <ele>265.8</ele>
        <time>2025-09-11T08:17:43Z</time>
      </trkpt>
      <trkpt lat="45.90652" lon="4.57172">
        <ele>266.2</ele>
        <time>2025-09-11T08:17:44Z</time>
      </trkpt>
      <trkpt lat="45.90653" lon="4.57171">
        <ele>266.4</ele>
        <time>2025-09-11T08:17:45Z</time>
      </trkpt>
      <trkpt lat="45.90653" lon="4.57169">
        <ele>266.6</ele>
        <time>2025-09-11T08:17:46Z</time>
      </trkpt>
      <trkpt lat="45.90653" lon="4.57168">
        <ele>266.6</ele>
        <time>2025-09-11T08:17:47Z</time>
      </trkpt>
      <trkpt lat="45.90653" lon="4.57167">
        <ele>266.6</ele>
        <time>2025-09-11T08:17:48Z</time>
      </trkpt>
      <trkpt lat="45.90652" lon="4.57165">
        <ele>267</ele>
        <time>2025-09-11T08:17:49Z</time>
      </trkpt>
      <trkpt lat="45.90652" lon="4.57163">
        <ele>267</ele>
        <time>2025-09-11T08:17:50Z</time>
      </trkpt>
      <trkpt lat="45.90652" lon="4.57162">
        <ele>267.2</ele>
        <time>2025-09-11T08:17:51Z</time>
      </trkpt>
      <trkpt lat="45.90651" lon="4.57161">
        <ele>267.2</ele>
        <time>2025-09-11T08:17:52Z</time>
      </trkpt>
      <trkpt lat="45.90651" lon="4.57159">
        <ele>267.4</ele>
        <time>2025-09-11T08:17:53Z</time>
      </trkpt>
      <trkpt lat="45.90651" lon="4.57157">
        <ele>267.6</ele>
        <time>2025-09-11T08:17:54Z</time>
      </trkpt>
      <trkpt lat="45.90651" lon="4.57155">
        <ele>267.6</ele>
        <time>2025-09-11T08:17:55Z</time>
      </trkpt>
      <trkpt lat="45.90651" lon="4.57154">
        <ele>268</ele>
        <time>2025-09-11T08:17:56Z</time>
      </trkpt>
      <trkpt lat="45.90651" lon="4.57153">
        <ele>268</ele>
        <time>2025-09-11T08:17:57Z</time>
      </trkpt>
      <trkpt lat="45.9065" lon="4.57152">
        <ele>268.4</ele>
        <time>2025-09-11T08:17:58Z</time>
      </trkpt>
      <trkpt lat="45.9065" lon="4.57151">
        <ele>268.4</ele>
        <time>2025-09-11T08:17:59Z</time>
      </trkpt>
      <trkpt lat="45.9065" lon="4.57149">
        <ele>268.8</ele>
        <time>2025-09-11T08:18:00Z</time>
      </trkpt>
      <trkpt lat="45.9065" lon="4.57147">
        <ele>268.8</ele>
        <time>2025-09-11T08:18:01Z</time>
      </trkpt>
      <trkpt lat="45.9065" lon="4.57145">
        <ele>269</ele>
        <time>2025-09-11T08:18:02Z</time>
      </trkpt>
      <trkpt lat="45.9065" lon="4.57143">
        <ele>269</ele>
        <time>2025-09-11T08:18:03Z</time>
      </trkpt>
      <trkpt lat="45.9065" lon="4.57142">
        <ele>269.4</ele>
        <time>2025-09-11T08:18:04Z</time>
      </trkpt>
      <trkpt lat="45.9065" lon="4.5714">
        <ele>269.4</ele>
        <time>2025-09-11T08:18:05Z</time>
      </trkpt>
      <trkpt lat="45.90649" lon="4.57139">
        <ele>269.8</ele>
        <time>2025-09-11T08:18:06Z</time>
      </trkpt>
      <trkpt lat="45.90649" lon="4.57138">
        <ele>269.8</ele>
        <time>2025-09-11T08:18:07Z</time>
      </trkpt>
      <trkpt lat="45.90649" lon="4.57136">
        <ele>270.2</ele>
        <time>2025-09-11T08:18:08Z</time>
      </trkpt>
      <trkpt lat="45.90649" lon="4.57134">
        <ele>270.2</ele>
        <time>2025-09-11T08:18:09Z</time>
      </trkpt>
      <trkpt lat="45.90648" lon="4.57132">
        <ele>270.4</ele>
        <time>2025-09-11T08:18:10Z</time>
      </trkpt>
      <trkpt lat="45.90648" lon="4.57131">
        <ele>270.4</ele>
        <time>2025-09-11T08:18:11Z</time>
      </trkpt>
      <trkpt lat="45.90647" lon="4.5713">
        <ele>270.4</ele>
        <time>2025-09-11T08:18:12Z</time>
      </trkpt>
      <trkpt lat="45.90647" lon="4.57129">
        <ele>271</ele>
        <time>2025-09-11T08:18:13Z</time>
      </trkpt>
      <trkpt lat="45.90647" lon="4.57128">
        <ele>271</ele>
        <time>2025-09-11T08:18:14Z</time>
      </trkpt>
      <trkpt lat="45.90647" lon="4.57126">
        <ele>271.4</ele>
        <time>2025-09-11T08:18:15Z</time>
      </trkpt>
      <trkpt lat="45.90647" lon="4.57124">
        <ele>271.6</ele>
        <time>2025-09-11T08:18:16Z</time>
      </trkpt>
      <trkpt lat="45.90646" lon="4.57121">
        <ele>271.6</ele>
        <time>2025-09-11T08:18:17Z</time>
      </trkpt>
      <trkpt lat="45.90646" lon="4.5712">
        <ele>272</ele>
        <time>2025-09-11T08:18:18Z</time>
      </trkpt>
      <trkpt lat="45.90646" lon="4.57118">
        <ele>272</ele>
        <time>2025-09-11T08:18:19Z</time>
      </trkpt>
      <trkpt lat="45.90645" lon="4.57116">
        <ele>272.2</ele>
        <time>2025-09-11T08:18:20Z</time>
      </trkpt>
      <trkpt lat="45.90645" lon="4.57115">
        <ele>272.2</ele>
        <time>2025-09-11T08:18:21Z</time>
      </trkpt>
      <trkpt lat="45.90645" lon="4.57113">
        <ele>272.4</ele>
        <time>2025-09-11T08:18:22Z</time>
      </trkpt>
      <trkpt lat="45.90645" lon="4.57112">
        <ele>272.4</ele>
        <time>2025-09-11T08:18:23Z</time>
      </trkpt>
      <trkpt lat="45.90645" lon="4.57111">
        <ele>272.4</ele>
        <time>2025-09-11T08:18:24Z</time>
      </trkpt>
      <trkpt lat="45.90645" lon="4.5711">
        <ele>272.4</ele>
        <time>2025-09-11T08:18:25Z</time>
      </trkpt>
      <trkpt lat="45.90645" lon="4.57108">
        <ele>272.8</ele>
        <time>2025-09-11T08:18:26Z</time>
      </trkpt>
      <trkpt lat="45.90645" lon="4.57107">
        <ele>272.8</ele>
        <time>2025-09-11T08:18:27Z</time>
      </trkpt>
      <trkpt lat="45.90644" lon="4.57107">
        <ele>273</ele>
        <time>2025-09-11T08:18:28Z</time>
      </trkpt>
      <trkpt lat="45.90644" lon="4.57105">
        <ele>273.2</ele>
        <time>2025-09-11T08:18:29Z</time>
      </trkpt>
      <trkpt lat="45.90644" lon="4.57103">
        <ele>273.2</ele>
        <time>2025-09-11T08:18:30Z</time>
      </trkpt>
      <trkpt lat="45.90643" lon="4.57102">
        <ele>273.4</ele>
        <time>2025-09-11T08:18:31Z</time>
      </trkpt>
      <trkpt lat="45.90643" lon="4.57101">
        <ele>273.4</ele>
        <time>2025-09-11T08:18:32Z</time>
      </trkpt>
      <trkpt lat="45.90643" lon="4.57099">
        <ele>273.6</ele>
        <time>2025-09-11T08:18:33Z</time>
      </trkpt>
      <trkpt lat="45.90643" lon="4.57098">
        <ele>274</ele>
        <time>2025-09-11T08:18:34Z</time>
      </trkpt>
      <trkpt lat="45.90643" lon="4.57097">
        <ele>274</ele>
        <time>2025-09-11T08:18:35Z</time>
      </trkpt>
      <trkpt lat="45.90642" lon="4.57095">
        <ele>274.2</ele>
        <time>2025-09-11T08:18:36Z</time>
      </trkpt>
      <trkpt lat="45.90642" lon="4.57094">
        <ele>274.2</ele>
        <time>2025-09-11T08:18:37Z</time>
      </trkpt>
      <trkpt lat="45.90642" lon="4.57093">
        <ele>274.2</ele>
        <time>2025-09-11T08:18:38Z</time>
      </trkpt>
      <trkpt lat="45.90642" lon="4.57092">
        <ele>274.4</ele>
        <time>2025-09-11T08:18:39Z</time>
      </trkpt>
      <trkpt lat="45.90642" lon="4.57091">
        <ele>274.4</ele>
        <time>2025-09-11T08:18:40Z</time>
      </trkpt>
      <trkpt lat="45.90642" lon="4.57089">
        <ele>274.8</ele>
        <time>2025-09-11T08:18:41Z</time>
      </trkpt>
      <trkpt lat="45.90642" lon="4.57088">
        <ele>274.8</ele>
        <time>2025-09-11T08:18:42Z</time>
      </trkpt>
      <trkpt lat="45.90642" lon="4.57086">
        <ele>275</ele>
        <time>2025-09-11T08:18:43Z</time>
      </trkpt>
      <trkpt lat="45.90642" lon="4.57085">
        <ele>275</ele>
        <time>2025-09-11T08:18:44Z</time>
      </trkpt>
      <trkpt lat="45.90643" lon="4.57083">
        <ele>275.4</ele>
        <time>2025-09-11T08:18:45Z</time>
      </trkpt>
      <trkpt lat="45.90643" lon="4.57082">
        <ele>275.4</ele>
        <time>2025-09-11T08:18:46Z</time>
      </trkpt>
      <trkpt lat="45.90642" lon="4.5708">
        <ele>275.8</ele>
        <time>2025-09-11T08:18:47Z</time>
      </trkpt>
      <trkpt lat="45.90642" lon="4.57079">
        <ele>275.8</ele>
        <time>2025-09-11T08:18:48Z</time>
      </trkpt>
      <trkpt lat="45.90642" lon="4.57078">
        <ele>275.8</ele>
        <time>2025-09-11T08:18:49Z</time>
      </trkpt>
      <trkpt lat="45.90642" lon="4.57076">
        <ele>276</ele>
        <time>2025-09-11T08:18:50Z</time>
      </trkpt>
      <trkpt lat="45.90642" lon="4.57075">
        <ele>276</ele>
        <time>2025-09-11T08:18:51Z</time>
      </trkpt>
      <trkpt lat="45.90642" lon="4.57073">
        <ele>276</ele>
        <time>2025-09-11T08:18:52Z</time>
      </trkpt>
      <trkpt lat="45.90642" lon="4.57072">
        <ele>276</ele>
        <time>2025-09-11T08:18:53Z</time>
      </trkpt>
      <trkpt lat="45.90642" lon="4.57072">
        <ele>276.4</ele>
        <time>2025-09-11T08:18:54Z</time>
      </trkpt>
      <trkpt lat="45.90642" lon="4.5707">
        <ele>276.4</ele>
        <time>2025-09-11T08:18:55Z</time>
      </trkpt>
      <trkpt lat="45.90642" lon="4.57069">
        <ele>276.4</ele>
        <time>2025-09-11T08:18:56Z</time>
      </trkpt>
      <trkpt lat="45.90642" lon="4.57067">
        <ele>276.4</ele>
        <time>2025-09-11T08:18:57Z</time>
      </trkpt>
      <trkpt lat="45.90642" lon="4.57066">
        <ele>276.4</ele>
        <time>2025-09-11T08:18:58Z</time>
      </trkpt>
      <trkpt lat="45.90643" lon="4.57064">
        <ele>276.6</ele>
        <time>2025-09-11T08:18:59Z</time>
      </trkpt>
      <trkpt lat="45.90643" lon="4.57062">
        <ele>276.6</ele>
        <time>2025-09-11T08:19:00Z</time>
      </trkpt>
      <trkpt lat="45.90642" lon="4.5706">
        <ele>277</ele>
        <time>2025-09-11T08:19:01Z</time>
      </trkpt>
      <trkpt lat="45.90643" lon="4.57058">
        <ele>277</ele>
        <time>2025-09-11T08:19:02Z</time>
      </trkpt>
      <trkpt lat="45.90643" lon="4.57057">
        <ele>277.2</ele>
        <time>2025-09-11T08:19:03Z</time>
      </trkpt>
      <trkpt lat="45.90643" lon="4.57056">
        <ele>277.2</ele>
        <time>2025-09-11T08:19:04Z</time>
      </trkpt>
      <trkpt lat="45.90643" lon="4.57054">
        <ele>277.6</ele>
        <time>2025-09-11T08:19:05Z</time>
      </trkpt>
      <trkpt lat="45.90643" lon="4.57053">
        <ele>277.6</ele>
        <time>2025-09-11T08:19:06Z</time>
      </trkpt>
      <trkpt lat="45.90643" lon="4.57052">
        <ele>277.6</ele>
        <time>2025-09-11T08:19:07Z</time>
      </trkpt>
      <trkpt lat="45.90643" lon="4.57051">
        <ele>277.8</ele>
        <time>2025-09-11T08:19:08Z</time>
      </trkpt>
      <trkpt lat="45.90643" lon="4.57049">
        <ele>277.8</ele>
        <time>2025-09-11T08:19:09Z</time>
      </trkpt>
      <trkpt lat="45.90644" lon="4.57048">
        <ele>277.8</ele>
        <time>2025-09-11T08:19:10Z</time>
      </trkpt>
      <trkpt lat="45.90644" lon="4.57047">
        <ele>277.8</ele>
        <time>2025-09-11T08:19:11Z</time>
      </trkpt>
      <trkpt lat="45.90644" lon="4.57045">
        <ele>277.8</ele>
        <time>2025-09-11T08:19:12Z</time>
      </trkpt>
      <trkpt lat="45.90645" lon="4.57044">
        <ele>277.8</ele>
        <time>2025-09-11T08:19:13Z</time>
      </trkpt>
      <trkpt lat="45.90645" lon="4.57045">
        <ele>277.8</ele>
        <time>2025-09-11T08:19:14Z</time>
      </trkpt>
      <trkpt lat="45.90645" lon="4.57044">
        <ele>277.8</ele>
        <time>2025-09-11T08:19:47Z</time>
      </trkpt>
      <trkpt lat="45.90646" lon="4.57043">
        <ele>277.8</ele>
        <time>2025-09-11T08:19:48Z</time>
      </trkpt>
      <trkpt lat="45.90647" lon="4.5704">
        <ele>277.8</ele>
        <time>2025-09-11T08:19:49Z</time>
      </trkpt>
      <trkpt lat="45.90647" lon="4.57038">
        <ele>278</ele>
        <time>2025-09-11T08:19:50Z</time>
      </trkpt>
      <trkpt lat="45.90647" lon="4.57036">
        <ele>278</ele>
        <time>2025-09-11T08:19:51Z</time>
      </trkpt>
      <trkpt lat="45.90648" lon="4.57033">
        <ele>278</ele>
        <time>2025-09-11T08:19:52Z</time>
      </trkpt>
      <trkpt lat="45.90649" lon="4.5703">
        <ele>278</ele>
        <time>2025-09-11T08:19:53Z</time>
      </trkpt>
      <trkpt lat="45.9065" lon="4.57027">
        <ele>278.4</ele>
        <time>2025-09-11T08:19:54Z</time>
      </trkpt>
      <trkpt lat="45.90651" lon="4.57025">
        <ele>278.4</ele>
        <time>2025-09-11T08:19:55Z</time>
      </trkpt>
      <trkpt lat="45.90652" lon="4.57023">
        <ele>278.4</ele>
        <time>2025-09-11T08:19:56Z</time>
      </trkpt>
      <trkpt lat="45.90653" lon="4.57021">
        <ele>278.4</ele>
        <time>2025-09-11T08:19:57Z</time>
      </trkpt>
      <trkpt lat="45.90654" lon="4.57019">
        <ele>278.8</ele>
        <time>2025-09-11T08:19:58Z</time>
      </trkpt>
      <trkpt lat="45.90655" lon="4.57017">
        <ele>278.8</ele>
        <time>2025-09-11T08:19:59Z</time>
      </trkpt>
      <trkpt lat="45.90656" lon="4.57015">
        <ele>279</ele>
        <time>2025-09-11T08:20:00Z</time>
      </trkpt>
      <trkpt lat="45.90656" lon="4.57012">
        <ele>279</ele>
        <time>2025-09-11T08:20:01Z</time>
      </trkpt>
      <trkpt lat="45.90657" lon="4.57009">
        <ele>279.4</ele>
        <time>2025-09-11T08:20:02Z</time>
      </trkpt>
      <trkpt lat="45.90657" lon="4.57007">
        <ele>279.4</ele>
        <time>2025-09-11T08:20:03Z</time>
      </trkpt>
      <trkpt lat="45.90657" lon="4.57005">
        <ele>279.8</ele>
        <time>2025-09-11T08:20:04Z</time>
      </trkpt>
      <trkpt lat="45.90658" lon="4.57003">
        <ele>279.8</ele>
        <time>2025-09-11T08:20:05Z</time>
      </trkpt>
      <trkpt lat="45.90658" lon="4.57">
        <ele>280.2</ele>
        <time>2025-09-11T08:20:06Z</time>
      </trkpt>
      <trkpt lat="45.90658" lon="4.56997">
        <ele>280</ele>
        <time>2025-09-11T08:20:07Z</time>
      </trkpt>
      <trkpt lat="45.90658" lon="4.56995">
        <ele>280.2</ele>
        <time>2025-09-11T08:20:08Z</time>
      </trkpt>
      <trkpt lat="45.90659" lon="4.56992">
        <ele>280.2</ele>
        <time>2025-09-11T08:20:09Z</time>
      </trkpt>
      <trkpt lat="45.90659" lon="4.56989">
        <ele>280.2</ele>
        <time>2025-09-11T08:20:10Z</time>
      </trkpt>
      <trkpt lat="45.90659" lon="4.56987">
        <ele>280.6</ele>
        <time>2025-09-11T08:20:11Z</time>
      </trkpt>
      <trkpt lat="45.90659" lon="4.56985">
        <ele>281</ele>
        <time>2025-09-11T08:20:12Z</time>
      </trkpt>
      <trkpt lat="45.90659" lon="4.56982">
        <ele>281</ele>
        <time>2025-09-11T08:20:13Z</time>
      </trkpt>
      <trkpt lat="45.90659" lon="4.5698">
        <ele>281</ele>
        <time>2025-09-11T08:20:14Z</time>
      </trkpt>
      <trkpt lat="45.90659" lon="4.56977">
        <ele>281.2</ele>
        <time>2025-09-11T08:20:15Z</time>
      </trkpt>
      <trkpt lat="45.90659" lon="4.56975">
        <ele>281.2</ele>
        <time>2025-09-11T08:20:16Z</time>
      </trkpt>
      <trkpt lat="45.90658" lon="4.56973">
        <ele>281.4</ele>
        <time>2025-09-11T08:20:17Z</time>
      </trkpt>
      <trkpt lat="45.90658" lon="4.56971">
        <ele>281.4</ele>
        <time>2025-09-11T08:20:18Z</time>
      </trkpt>
      <trkpt lat="45.90658" lon="4.56969">
        <ele>281.8</ele>
        <time>2025-09-11T08:20:19Z</time>
      </trkpt>
      <trkpt lat="45.90658" lon="4.56967">
        <ele>281.8</ele>
        <time>2025-09-11T08:20:20Z</time>
      </trkpt>
      <trkpt lat="45.90657" lon="4.56964">
        <ele>282.2</ele>
        <time>2025-09-11T08:20:21Z</time>
      </trkpt>
      <trkpt lat="45.90657" lon="4.56962">
        <ele>282.4</ele>
        <time>2025-09-11T08:20:22Z</time>
      </trkpt>
      <trkpt lat="45.90656" lon="4.5696">
        <ele>282.4</ele>
        <time>2025-09-11T08:20:23Z</time>
      </trkpt>
      <trkpt lat="45.90656" lon="4.56958">
        <ele>282.4</ele>
        <time>2025-09-11T08:20:24Z</time>
      </trkpt>
      <trkpt lat="45.90656" lon="4.56955">
        <ele>282.8</ele>
        <time>2025-09-11T08:20:25Z</time>
      </trkpt>
      <trkpt lat="45.90656" lon="4.56953">
        <ele>282.8</ele>
        <time>2025-09-11T08:20:26Z</time>
      </trkpt>
      <trkpt lat="45.90655" lon="4.56951">
        <ele>282.8</ele>
        <time>2025-09-11T08:20:27Z</time>
      </trkpt>
      <trkpt lat="45.90655" lon="4.56948">
        <ele>283.2</ele>
        <time>2025-09-11T08:20:28Z</time>
      </trkpt>
      <trkpt lat="45.90655" lon="4.56946">
        <ele>283.2</ele>
        <time>2025-09-11T08:20:29Z</time>
      </trkpt>
      <trkpt lat="45.90655" lon="4.56944">
        <ele>283.4</ele>
        <time>2025-09-11T08:20:30Z</time>
      </trkpt>
      <trkpt lat="45.90655" lon="4.56941">
        <ele>283.4</ele>
        <time>2025-09-11T08:20:31Z</time>
      </trkpt>
      <trkpt lat="45.90655" lon="4.56938">
        <ele>283.4</ele>
        <time>2025-09-11T08:20:32Z</time>
      </trkpt>
      <trkpt lat="45.90655" lon="4.56935">
        <ele>283.6</ele>
        <time>2025-09-11T08:20:33Z</time>
      </trkpt>
      <trkpt lat="45.90654" lon="4.56933">
        <ele>283.6</ele>
        <time>2025-09-11T08:20:34Z</time>
      </trkpt>
      <trkpt lat="45.90654" lon="4.5693">
        <ele>283.6</ele>
        <time>2025-09-11T08:20:35Z</time>
      </trkpt>
      <trkpt lat="45.90654" lon="4.56927">
        <ele>283.6</ele>
        <time>2025-09-11T08:20:36Z</time>
      </trkpt>
      <trkpt lat="45.90654" lon="4.56927">
        <ele>283</ele>
        <time>2025-09-11T08:20:37Z</time>
      </trkpt>
      <trkpt lat="45.90654" lon="4.56927">
        <ele>283.6</ele>
        <time>2025-09-11T08:20:38Z</time>
      </trkpt>
      <trkpt lat="45.90654" lon="4.56914">
        <ele>284</ele>
        <time>2025-09-11T08:20:40Z</time>
      </trkpt>
      <trkpt lat="45.90653" lon="4.56912">
        <ele>284</ele>
        <time>2025-09-11T08:20:41Z</time>
      </trkpt>
      <trkpt lat="45.90653" lon="4.56909">
        <ele>284.2</ele>
        <time>2025-09-11T08:20:42Z</time>
      </trkpt>
      <trkpt lat="45.90653" lon="4.56906">
        <ele>284.2</ele>
        <time>2025-09-11T08:20:43Z</time>
      </trkpt>
      <trkpt lat="45.90653" lon="4.56903">
        <ele>284.2</ele>
        <time>2025-09-11T08:20:44Z</time>
      </trkpt>
      <trkpt lat="45.90652" lon="4.56901">
        <ele>284.6</ele>
        <time>2025-09-11T08:20:45Z</time>
      </trkpt>
      <trkpt lat="45.90652" lon="4.56898">
        <ele>284.6</ele>
        <time>2025-09-11T08:20:46Z</time>
      </trkpt>
      <trkpt lat="45.90652" lon="4.56895">
        <ele>284.6</ele>
        <time>2025-09-11T08:20:47Z</time>
      </trkpt>
      <trkpt lat="45.90652" lon="4.56893">
        <ele>285</ele>
        <time>2025-09-11T08:20:48Z</time>
      </trkpt>
      <trkpt lat="45.90652" lon="4.56891">
        <ele>285.2</ele>
        <time>2025-09-11T08:20:49Z</time>
      </trkpt>
      <trkpt lat="45.90652" lon="4.56889">
        <ele>285.2</ele>
        <time>2025-09-11T08:20:50Z</time>
      </trkpt>
      <trkpt lat="45.90653" lon="4.56886">
        <ele>285.4</ele>
        <time>2025-09-11T08:20:51Z</time>
      </trkpt>
      <trkpt lat="45.90655" lon="4.56884">
        <ele>285.4</ele>
        <time>2025-09-11T08:20:52Z</time>
      </trkpt>
      <trkpt lat="45.90657" lon="4.56882">
        <ele>285.6</ele>
        <time>2025-09-11T08:20:53Z</time>
      </trkpt>
      <trkpt lat="45.90659" lon="4.56881">
        <ele>285.6</ele>
        <time>2025-09-11T08:20:54Z</time>
      </trkpt>
      <trkpt lat="45.90661" lon="4.56879">
        <ele>285.6</ele>
        <time>2025-09-11T08:20:55Z</time>
      </trkpt>
      <trkpt lat="45.90662" lon="4.56878">
        <ele>286</ele>
        <time>2025-09-11T08:20:56Z</time>
      </trkpt>
      <trkpt lat="45.90664" lon="4.56876">
        <ele>286</ele>
        <time>2025-09-11T08:20:57Z</time>
      </trkpt>
      <trkpt lat="45.90666" lon="4.56875">
        <ele>286</ele>
        <time>2025-09-11T08:20:58Z</time>
      </trkpt>
      <trkpt lat="45.90666" lon="4.56875">
        <ele>286</ele>
        <time>2025-09-11T08:20:59Z</time>
      </trkpt>
      <trkpt lat="45.90671" lon="4.56873">
        <ele>286</ele>
        <time>2025-09-11T08:21:00Z</time>
      </trkpt>
      <trkpt lat="45.90672" lon="4.56872">
        <ele>286.2</ele>
        <time>2025-09-11T08:21:01Z</time>
      </trkpt>
      <trkpt lat="45.90674" lon="4.56871">
        <ele>286.2</ele>
        <time>2025-09-11T08:21:02Z</time>
      </trkpt>
      <trkpt lat="45.90676" lon="4.56869">
        <ele>286.2</ele>
        <time>2025-09-11T08:21:03Z</time>
      </trkpt>
      <trkpt lat="45.90679" lon="4.56868">
        <ele>286.4</ele>
        <time>2025-09-11T08:21:04Z</time>
      </trkpt>
      <trkpt lat="45.9068" lon="4.56866">
        <ele>286.4</ele>
        <time>2025-09-11T08:21:05Z</time>
      </trkpt>
      <trkpt lat="45.90682" lon="4.56864">
        <ele>286.4</ele>
        <time>2025-09-11T08:21:06Z</time>
      </trkpt>
      <trkpt lat="45.90684" lon="4.56862">
        <ele>286.4</ele>
        <time>2025-09-11T08:21:07Z</time>
      </trkpt>
      <trkpt lat="45.90685" lon="4.5686">
        <ele>286.4</ele>
        <time>2025-09-11T08:21:08Z</time>
      </trkpt>
      <trkpt lat="45.90687" lon="4.56858">
        <ele>286.4</ele>
        <time>2025-09-11T08:21:09Z</time>
      </trkpt>
      <trkpt lat="45.90689" lon="4.56856">
        <ele>286.4</ele>
        <time>2025-09-11T08:21:10Z</time>
      </trkpt>
      <trkpt lat="45.9069" lon="4.56855">
        <ele>286.6</ele>
        <time>2025-09-11T08:21:11Z</time>
      </trkpt>
      <trkpt lat="45.90692" lon="4.56854">
        <ele>286.6</ele>
        <time>2025-09-11T08:21:12Z</time>
      </trkpt>
      <trkpt lat="45.90694" lon="4.56853">
        <ele>286.6</ele>
        <time>2025-09-11T08:21:13Z</time>
      </trkpt>
      <trkpt lat="45.90695" lon="4.56851">
        <ele>286.6</ele>
        <time>2025-09-11T08:21:14Z</time>
      </trkpt>
      <trkpt lat="45.90697" lon="4.56849">
        <ele>286.6</ele>
        <time>2025-09-11T08:21:15Z</time>
      </trkpt>
      <trkpt lat="45.90699" lon="4.56848">
        <ele>286.6</ele>
        <time>2025-09-11T08:21:16Z</time>
      </trkpt>
      <trkpt lat="45.90702" lon="4.56847">
        <ele>286.6</ele>
        <time>2025-09-11T08:21:17Z</time>
      </trkpt>
      <trkpt lat="45.90704" lon="4.56846">
        <ele>286.6</ele>
        <time>2025-09-11T08:21:18Z</time>
      </trkpt>
      <trkpt lat="45.90706" lon="4.56845">
        <ele>286.6</ele>
        <time>2025-09-11T08:21:19Z</time>
      </trkpt>
      <trkpt lat="45.90708" lon="4.56843">
        <ele>287</ele>
        <time>2025-09-11T08:21:20Z</time>
      </trkpt>
      <trkpt lat="45.9071" lon="4.56842">
        <ele>287</ele>
        <time>2025-09-11T08:21:21Z</time>
      </trkpt>
      <trkpt lat="45.90713" lon="4.56839">
        <ele>287</ele>
        <time>2025-09-11T08:21:22Z</time>
      </trkpt>
      <trkpt lat="45.90715" lon="4.56837">
        <ele>287</ele>
        <time>2025-09-11T08:21:23Z</time>
      </trkpt>
      <trkpt lat="45.90718" lon="4.56834">
        <ele>287.2</ele>
        <time>2025-09-11T08:21:24Z</time>
      </trkpt>
      <trkpt lat="45.90721" lon="4.56832">
        <ele>287.2</ele>
        <time>2025-09-11T08:21:25Z</time>
      </trkpt>
      <trkpt lat="45.90723" lon="4.5683">
        <ele>287.2</ele>
        <time>2025-09-11T08:21:26Z</time>
      </trkpt>
      <trkpt lat="45.90726" lon="4.56827">
        <ele>287.2</ele>
        <time>2025-09-11T08:21:27Z</time>
      </trkpt>
      <trkpt lat="45.90729" lon="4.56825">
        <ele>287.2</ele>
        <time>2025-09-11T08:21:28Z</time>
      </trkpt>
      <trkpt lat="45.90732" lon="4.56822">
        <ele>287.2</ele>
        <time>2025-09-11T08:21:29Z</time>
      </trkpt>
      <trkpt lat="45.90735" lon="4.5682">
        <ele>287.2</ele>
        <time>2025-09-11T08:21:30Z</time>
      </trkpt>
      <trkpt lat="45.90738" lon="4.56817">
        <ele>287.4</ele>
        <time>2025-09-11T08:21:31Z</time>
      </trkpt>
      <trkpt lat="45.90741" lon="4.56814">
        <ele>287.4</ele>
        <time>2025-09-11T08:21:32Z</time>
      </trkpt>
      <trkpt lat="45.90744" lon="4.56811">
        <ele>287.4</ele>
        <time>2025-09-11T08:21:33Z</time>
      </trkpt>
      <trkpt lat="45.90747" lon="4.56809">
        <ele>287</ele>
        <time>2025-09-11T08:21:34Z</time>
      </trkpt>
      <trkpt lat="45.9075" lon="4.56806">
        <ele>287.4</ele>
        <time>2025-09-11T08:21:35Z</time>
      </trkpt>
      <trkpt lat="45.90754" lon="4.56803">
        <ele>287.4</ele>
        <time>2025-09-11T08:21:36Z</time>
      </trkpt>
      <trkpt lat="45.90757" lon="4.568">
        <ele>287.4</ele>
        <time>2025-09-11T08:21:37Z</time>
      </trkpt>
      <trkpt lat="45.90761" lon="4.56797">
        <ele>287.4</ele>
        <time>2025-09-11T08:21:38Z</time>
      </trkpt>
      <trkpt lat="45.90764" lon="4.56794">
        <ele>287.2</ele>
        <time>2025-09-11T08:21:39Z</time>
      </trkpt>
      <trkpt lat="45.90767" lon="4.56792">
        <ele>287.2</ele>
        <time>2025-09-11T08:21:40Z</time>
      </trkpt>
      <trkpt lat="45.9077" lon="4.56789">
        <ele>287.2</ele>
        <time>2025-09-11T08:21:41Z</time>
      </trkpt>
      <trkpt lat="45.90772" lon="4.56786">
        <ele>287.2</ele>
        <time>2025-09-11T08:21:42Z</time>
      </trkpt>
      <trkpt lat="45.90775" lon="4.56783">
        <ele>287.2</ele>
        <time>2025-09-11T08:21:43Z</time>
      </trkpt>
      <trkpt lat="45.90776" lon="4.5678">
        <ele>287.4</ele>
        <time>2025-09-11T08:21:44Z</time>
      </trkpt>
      <trkpt lat="45.90777" lon="4.56776">
        <ele>287.4</ele>
        <time>2025-09-11T08:21:45Z</time>
      </trkpt>
      <trkpt lat="45.90778" lon="4.56773">
        <ele>287.4</ele>
        <time>2025-09-11T08:21:46Z</time>
      </trkpt>
      <trkpt lat="45.90779" lon="4.5677">
        <ele>287.4</ele>
        <time>2025-09-11T08:21:47Z</time>
      </trkpt>
      <trkpt lat="45.90782" lon="4.56769">
        <ele>287.4</ele>
        <time>2025-09-11T08:21:48Z</time>
      </trkpt>
      <trkpt lat="45.90784" lon="4.56768">
        <ele>287.4</ele>
        <time>2025-09-11T08:21:49Z</time>
      </trkpt>
      <trkpt lat="45.90787" lon="4.56768">
        <ele>287.4</ele>
        <time>2025-09-11T08:21:50Z</time>
      </trkpt>
      <trkpt lat="45.9079" lon="4.56766">
        <ele>287.4</ele>
        <time>2025-09-11T08:21:51Z</time>
      </trkpt>
      <trkpt lat="45.90792" lon="4.56763">
        <ele>287.8</ele>
        <time>2025-09-11T08:21:52Z</time>
      </trkpt>
      <trkpt lat="45.90794" lon="4.5676">
        <ele>287.8</ele>
        <time>2025-09-11T08:21:53Z</time>
      </trkpt>
      <trkpt lat="45.90796" lon="4.56756">
        <ele>288</ele>
        <time>2025-09-11T08:21:54Z</time>
      </trkpt>
      <trkpt lat="45.90798" lon="4.56752">
        <ele>287.8</ele>
        <time>2025-09-11T08:21:55Z</time>
      </trkpt>
      <trkpt lat="45.908" lon="4.56748">
        <ele>287.8</ele>
        <time>2025-09-11T08:21:56Z</time>
      </trkpt>
      <trkpt lat="45.90803" lon="4.56744">
        <ele>287.8</ele>
        <time>2025-09-11T08:21:57Z</time>
      </trkpt>
      <trkpt lat="45.90806" lon="4.56739">
        <ele>288.2</ele>
        <time>2025-09-11T08:21:58Z</time>
      </trkpt>
      <trkpt lat="45.90808" lon="4.56735">
        <ele>288.2</ele>
        <time>2025-09-11T08:21:59Z</time>
      </trkpt>
      <trkpt lat="45.90811" lon="4.5673">
        <ele>287.8</ele>
        <time>2025-09-11T08:22:00Z</time>
      </trkpt>
      <trkpt lat="45.90813" lon="4.56726">
        <ele>287.8</ele>
        <time>2025-09-11T08:22:01Z</time>
      </trkpt>
      <trkpt lat="45.90816" lon="4.56721">
        <ele>287.6</ele>
        <time>2025-09-11T08:22:02Z</time>
      </trkpt>
      <trkpt lat="45.90818" lon="4.56716">
        <ele>287.6</ele>
        <time>2025-09-11T08:22:03Z</time>
      </trkpt>
      <trkpt lat="45.9082" lon="4.56712">
        <ele>288</ele>
        <time>2025-09-11T08:22:04Z</time>
      </trkpt>
      <trkpt lat="45.90823" lon="4.56707">
        <ele>287.8</ele>
        <time>2025-09-11T08:22:05Z</time>
      </trkpt>
      <trkpt lat="45.90825" lon="4.56702">
        <ele>287.6</ele>
        <time>2025-09-11T08:22:06Z</time>
      </trkpt>
      <trkpt lat="45.90827" lon="4.56698">
        <ele>287.6</ele>
        <time>2025-09-11T08:22:07Z</time>
      </trkpt>
      <trkpt lat="45.9083" lon="4.56694">
        <ele>287.6</ele>
        <time>2025-09-11T08:22:08Z</time>
      </trkpt>
      <trkpt lat="45.90833" lon="4.5669">
        <ele>287.6</ele>
        <time>2025-09-11T08:22:09Z</time>
      </trkpt>
      <trkpt lat="45.90836" lon="4.56685">
        <ele>287.8</ele>
        <time>2025-09-11T08:22:10Z</time>
      </trkpt>
      <trkpt lat="45.90839" lon="4.56681">
        <ele>287.8</ele>
        <time>2025-09-11T08:22:11Z</time>
      </trkpt>
      <trkpt lat="45.90841" lon="4.56677">
        <ele>287.8</ele>
        <time>2025-09-11T08:22:12Z</time>
      </trkpt>
      <trkpt lat="45.90844" lon="4.56672">
        <ele>287.8</ele>
        <time>2025-09-11T08:22:13Z</time>
      </trkpt>
      <trkpt lat="45.90846" lon="4.56669">
        <ele>288</ele>
        <time>2025-09-11T08:22:14Z</time>
      </trkpt>
      <trkpt lat="45.90848" lon="4.56665">
        <ele>288</ele>
        <time>2025-09-11T08:22:15Z</time>
      </trkpt>
      <trkpt lat="45.90851" lon="4.5666">
        <ele>288</ele>
        <time>2025-09-11T08:22:16Z</time>
      </trkpt>
      <trkpt lat="45.90853" lon="4.56656">
        <ele>288</ele>
        <time>2025-09-11T08:22:17Z</time>
      </trkpt>
      <trkpt lat="45.90855" lon="4.56651">
        <ele>288</ele>
        <time>2025-09-11T08:22:18Z</time>
      </trkpt>
      <trkpt lat="45.90858" lon="4.56646">
        <ele>288</ele>
        <time>2025-09-11T08:22:19Z</time>
      </trkpt>
      <trkpt lat="45.9086" lon="4.56641">
        <ele>288</ele>
        <time>2025-09-11T08:22:20Z</time>
      </trkpt>
      <trkpt lat="45.90862" lon="4.56635">
        <ele>288.4</ele>
        <time>2025-09-11T08:22:21Z</time>
      </trkpt>
      <trkpt lat="45.90865" lon="4.5663">
        <ele>288.4</ele>
        <time>2025-09-11T08:22:22Z</time>
      </trkpt>
      <trkpt lat="45.90867" lon="4.56625">
        <ele>288.4</ele>
        <time>2025-09-11T08:22:23Z</time>
      </trkpt>
      <trkpt lat="45.90868" lon="4.56618">
        <ele>288.2</ele>
        <time>2025-09-11T08:22:24Z</time>
      </trkpt>
      <trkpt lat="45.9087" lon="4.56613">
        <ele>288.2</ele>
        <time>2025-09-11T08:22:25Z</time>
      </trkpt>
      <trkpt lat="45.90872" lon="4.56607">
        <ele>288.4</ele>
        <time>2025-09-11T08:22:26Z</time>
      </trkpt>
      <trkpt lat="45.90873" lon="4.56601">
        <ele>288.4</ele>
        <time>2025-09-11T08:22:27Z</time>
      </trkpt>
      <trkpt lat="45.90874" lon="4.56594">
        <ele>288.4</ele>
        <time>2025-09-11T08:22:28Z</time>
      </trkpt>
      <trkpt lat="45.90876" lon="4.56588">
        <ele>288.4</ele>
        <time>2025-09-11T08:22:29Z</time>
      </trkpt>
      <trkpt lat="45.90876" lon="4.56582">
        <ele>288.4</ele>
        <time>2025-09-11T08:22:30Z</time>
      </trkpt>
      <trkpt lat="45.90877" lon="4.56575">
        <ele>289.6</ele>
        <time>2025-09-11T08:22:31Z</time>
      </trkpt>
      <trkpt lat="45.90879" lon="4.56569">
        <ele>289.6</ele>
        <time>2025-09-11T08:22:32Z</time>
      </trkpt>
      <trkpt lat="45.90881" lon="4.56563">
        <ele>289.6</ele>
        <time>2025-09-11T08:22:33Z</time>
      </trkpt>
      <trkpt lat="45.90882" lon="4.56556">
        <ele>289.2</ele>
        <time>2025-09-11T08:22:34Z</time>
      </trkpt>
      <trkpt lat="45.90884" lon="4.56549">
        <ele>289.2</ele>
        <time>2025-09-11T08:22:35Z</time>
      </trkpt>
      <trkpt lat="45.90884" lon="4.56542">
        <ele>289</ele>
        <time>2025-09-11T08:22:36Z</time>
      </trkpt>
      <trkpt lat="45.90885" lon="4.56535">
        <ele>289</ele>
        <time>2025-09-11T08:22:37Z</time>
      </trkpt>
      <trkpt lat="45.90886" lon="4.56529">
        <ele>288.8</ele>
        <time>2025-09-11T08:22:38Z</time>
      </trkpt>
      <trkpt lat="45.90888" lon="4.56521">
        <ele>288.8</ele>
        <time>2025-09-11T08:22:39Z</time>
      </trkpt>
      <trkpt lat="45.90889" lon="4.56513">
        <ele>288.8</ele>
        <time>2025-09-11T08:22:40Z</time>
      </trkpt>
      <trkpt lat="45.90891" lon="4.56506">
        <ele>288.8</ele>
        <time>2025-09-11T08:22:41Z</time>
      </trkpt>
      <trkpt lat="45.90892" lon="4.56499">
        <ele>288.4</ele>
        <time>2025-09-11T08:22:42Z</time>
      </trkpt>
      <trkpt lat="45.90893" lon="4.56491">
        <ele>288.2</ele>
        <time>2025-09-11T08:22:43Z</time>
      </trkpt>
      <trkpt lat="45.90894" lon="4.56484">
        <ele>288.2</ele>
        <time>2025-09-11T08:22:44Z</time>
      </trkpt>
      <trkpt lat="45.90895" lon="4.56477">
        <ele>288.2</ele>
        <time>2025-09-11T08:22:45Z</time>
      </trkpt>
      <trkpt lat="45.90895" lon="4.56468">
        <ele>288.2</ele>
        <time>2025-09-11T08:22:46Z</time>
      </trkpt>
      <trkpt lat="45.90896" lon="4.56461">
        <ele>288.2</ele>
        <time>2025-09-11T08:22:47Z</time>
      </trkpt>
      <trkpt lat="45.90898" lon="4.56454">
        <ele>288.2</ele>
        <time>2025-09-11T08:22:48Z</time>
      </trkpt>
      <trkpt lat="45.90898" lon="4.56445">
        <ele>288.2</ele>
        <time>2025-09-11T08:22:49Z</time>
      </trkpt>
      <trkpt lat="45.909" lon="4.56436">
        <ele>288.2</ele>
        <time>2025-09-11T08:22:50Z</time>
      </trkpt>
      <trkpt lat="45.90903" lon="4.56431">
        <ele>288.2</ele>
        <time>2025-09-11T08:22:51Z</time>
      </trkpt>
      <trkpt lat="45.90902" lon="4.56424">
        <ele>288.2</ele>
        <time>2025-09-11T08:22:52Z</time>
      </trkpt>
      <trkpt lat="45.90908" lon="4.5642">
        <ele>288.2</ele>
        <time>2025-09-11T08:22:53Z</time>
      </trkpt>
      <trkpt lat="45.90909" lon="4.56414">
        <ele>288.4</ele>
        <time>2025-09-11T08:22:54Z</time>
      </trkpt>
      <trkpt lat="45.90912" lon="4.56408">
        <ele>288.4</ele>
        <time>2025-09-11T08:22:55Z</time>
      </trkpt>
      <trkpt lat="45.90915" lon="4.56402">
        <ele>288.4</ele>
        <time>2025-09-11T08:22:56Z</time>
      </trkpt>
      <trkpt lat="45.90917" lon="4.56397">
        <ele>288.4</ele>
        <time>2025-09-11T08:22:57Z</time>
      </trkpt>
      <trkpt lat="45.90919" lon="4.5639">
        <ele>288.8</ele>
        <time>2025-09-11T08:22:58Z</time>
      </trkpt>
      <trkpt lat="45.90922" lon="4.56385">
        <ele>288.8</ele>
        <time>2025-09-11T08:22:59Z</time>
      </trkpt>
      <trkpt lat="45.90925" lon="4.56379">
        <ele>288.8</ele>
        <time>2025-09-11T08:23:00Z</time>
      </trkpt>
      <trkpt lat="45.90926" lon="4.56372">
        <ele>289</ele>
        <time>2025-09-11T08:23:01Z</time>
      </trkpt>
      <trkpt lat="45.90928" lon="4.56365">
        <ele>289</ele>
        <time>2025-09-11T08:23:02Z</time>
      </trkpt>
      <trkpt lat="45.90928" lon="4.5636">
        <ele>289</ele>
        <time>2025-09-11T08:23:03Z</time>
      </trkpt>
      <trkpt lat="45.9093" lon="4.56354">
        <ele>289.4</ele>
        <time>2025-09-11T08:23:04Z</time>
      </trkpt>
      <trkpt lat="45.90931" lon="4.56349">
        <ele>289.4</ele>
        <time>2025-09-11T08:23:05Z</time>
      </trkpt>
      <trkpt lat="45.90933" lon="4.56342">
        <ele>289.6</ele>
        <time>2025-09-11T08:23:06Z</time>
      </trkpt>
      <trkpt lat="45.90933" lon="4.56335">
        <ele>289.6</ele>
        <time>2025-09-11T08:23:07Z</time>
      </trkpt>
      <trkpt lat="45.90935" lon="4.56329">
        <ele>289.4</ele>
        <time>2025-09-11T08:23:08Z</time>
      </trkpt>
      <trkpt lat="45.90936" lon="4.56322">
        <ele>289.4</ele>
        <time>2025-09-11T08:23:09Z</time>
      </trkpt>
      <trkpt lat="45.90937" lon="4.56316">
        <ele>289.4</ele>
        <time>2025-09-11T08:23:10Z</time>
      </trkpt>
      <trkpt lat="45.90938" lon="4.56311">
        <ele>289.4</ele>
        <time>2025-09-11T08:23:11Z</time>
      </trkpt>
      <trkpt lat="45.90939" lon="4.56305">
        <ele>289.4</ele>
        <time>2025-09-11T08:23:12Z</time>
      </trkpt>
      <trkpt lat="45.90939" lon="4.563">
        <ele>289.6</ele>
        <time>2025-09-11T08:23:13Z</time>
      </trkpt>
      <trkpt lat="45.90941" lon="4.56295">
        <ele>289.6</ele>
        <time>2025-09-11T08:23:14Z</time>
      </trkpt>
      <trkpt lat="45.90942" lon="4.5629">
        <ele>289.6</ele>
        <time>2025-09-11T08:23:15Z</time>
      </trkpt>
      <trkpt lat="45.90944" lon="4.56282">
        <ele>289.8</ele>
        <time>2025-09-11T08:23:16Z</time>
      </trkpt>
      <trkpt lat="45.90945" lon="4.56277">
        <ele>289.8</ele>
        <time>2025-09-11T08:23:17Z</time>
      </trkpt>
      <trkpt lat="45.90945" lon="4.56273">
        <ele>289.8</ele>
        <time>2025-09-11T08:23:18Z</time>
      </trkpt>
      <trkpt lat="45.90946" lon="4.56269">
        <ele>290.2</ele>
        <time>2025-09-11T08:23:19Z</time>
      </trkpt>
      <trkpt lat="45.90947" lon="4.56264">
        <ele>290.2</ele>
        <time>2025-09-11T08:23:20Z</time>
      </trkpt>
      <trkpt lat="45.90948" lon="4.5626">
        <ele>290.2</ele>
        <time>2025-09-11T08:23:21Z</time>
      </trkpt>
      <trkpt lat="45.90949" lon="4.56256">
        <ele>290.2</ele>
        <time>2025-09-11T08:23:22Z</time>
      </trkpt>
      <trkpt lat="45.9095" lon="4.56251">
        <ele>290.2</ele>
        <time>2025-09-11T08:23:23Z</time>
      </trkpt>
      <trkpt lat="45.9095" lon="4.56249">
        <ele>290.2</ele>
        <time>2025-09-11T08:23:24Z</time>
      </trkpt>
      <trkpt lat="45.9095" lon="4.56247">
        <ele>290.2</ele>
        <time>2025-09-11T08:23:25Z</time>
      </trkpt>
      <trkpt lat="45.90951" lon="4.56245">
        <ele>290.2</ele>
        <time>2025-09-11T08:23:26Z</time>
      </trkpt>
      <trkpt lat="45.90952" lon="4.5624">
        <ele>290.2</ele>
        <time>2025-09-11T08:23:27Z</time>
      </trkpt>
      <trkpt lat="45.90953" lon="4.56236">
        <ele>289.6</ele>
        <time>2025-09-11T08:23:28Z</time>
      </trkpt>
      <trkpt lat="45.90954" lon="4.56231">
        <ele>289.6</ele>
        <time>2025-09-11T08:23:29Z</time>
      </trkpt>
      <trkpt lat="45.90955" lon="4.56226">
        <ele>289.6</ele>
        <time>2025-09-11T08:23:30Z</time>
      </trkpt>
      <trkpt lat="45.90957" lon="4.5622">
        <ele>289.6</ele>
        <time>2025-09-11T08:23:31Z</time>
      </trkpt>
      <trkpt lat="45.90958" lon="4.56215">
        <ele>289.6</ele>
        <time>2025-09-11T08:23:32Z</time>
      </trkpt>
      <trkpt lat="45.90959" lon="4.5621">
        <ele>289.6</ele>
        <time>2025-09-11T08:23:33Z</time>
      </trkpt>
      <trkpt lat="45.9096" lon="4.56206">
        <ele>289.6</ele>
        <time>2025-09-11T08:23:34Z</time>
      </trkpt>
      <trkpt lat="45.90962" lon="4.56201">
        <ele>289.6</ele>
        <time>2025-09-11T08:23:35Z</time>
      </trkpt>
      <trkpt lat="45.90963" lon="4.56197">
        <ele>289.6</ele>
        <time>2025-09-11T08:23:36Z</time>
      </trkpt>
      <trkpt lat="45.90963" lon="4.56192">
        <ele>289.6</ele>
        <time>2025-09-11T08:23:37Z</time>
      </trkpt>
      <trkpt lat="45.90964" lon="4.56187">
        <ele>289.6</ele>
        <time>2025-09-11T08:23:38Z</time>
      </trkpt>
      <trkpt lat="45.90964" lon="4.56183">
        <ele>289.8</ele>
        <time>2025-09-11T08:23:39Z</time>
      </trkpt>
      <trkpt lat="45.90965" lon="4.56178">
        <ele>290.2</ele>
        <time>2025-09-11T08:23:40Z</time>
      </trkpt>
      <trkpt lat="45.90965" lon="4.56176">
        <ele>290.2</ele>
        <time>2025-09-11T08:23:41Z</time>
      </trkpt>
      <trkpt lat="45.90966" lon="4.56173">
        <ele>290.2</ele>
        <time>2025-09-11T08:23:42Z</time>
      </trkpt>
      <trkpt lat="45.90966" lon="4.56168">
        <ele>290.4</ele>
        <time>2025-09-11T08:23:43Z</time>
      </trkpt>
      <trkpt lat="45.90967" lon="4.56163">
        <ele>290.4</ele>
        <time>2025-09-11T08:23:44Z</time>
      </trkpt>
      <trkpt lat="45.90968" lon="4.56158">
        <ele>290.4</ele>
        <time>2025-09-11T08:23:45Z</time>
      </trkpt>
      <trkpt lat="45.90969" lon="4.56154">
        <ele>290.8</ele>
        <time>2025-09-11T08:23:46Z</time>
      </trkpt>
      <trkpt lat="45.90969" lon="4.5615">
        <ele>291</ele>
        <time>2025-09-11T08:23:47Z</time>
      </trkpt>
      <trkpt lat="45.9097" lon="4.56146">
        <ele>291</ele>
        <time>2025-09-11T08:23:48Z</time>
      </trkpt>
      <trkpt lat="45.90971" lon="4.56141">
        <ele>291</ele>
        <time>2025-09-11T08:23:49Z</time>
      </trkpt>
      <trkpt lat="45.90971" lon="4.56137">
        <ele>291.2</ele>
        <time>2025-09-11T08:23:50Z</time>
      </trkpt>
      <trkpt lat="45.90971" lon="4.56133">
        <ele>291.2</ele>
        <time>2025-09-11T08:23:51Z</time>
      </trkpt>
      <trkpt lat="45.90972" lon="4.56129">
        <ele>291.2</ele>
        <time>2025-09-11T08:23:52Z</time>
      </trkpt>
      <trkpt lat="45.90972" lon="4.56126">
        <ele>291.6</ele>
        <time>2025-09-11T08:23:53Z</time>
      </trkpt>
      <trkpt lat="45.90972" lon="4.56122">
        <ele>291.8</ele>
        <time>2025-09-11T08:23:54Z</time>
      </trkpt>
      <trkpt lat="45.90972" lon="4.56119">
        <ele>291.8</ele>
        <time>2025-09-11T08:23:55Z</time>
      </trkpt>
      <trkpt lat="45.90972" lon="4.56115">
        <ele>292</ele>
        <time>2025-09-11T08:23:56Z</time>
      </trkpt>
      <trkpt lat="45.90971" lon="4.56112">
        <ele>292</ele>
        <time>2025-09-11T08:23:57Z</time>
      </trkpt>
      <trkpt lat="45.9097" lon="4.56109">
        <ele>292</ele>
        <time>2025-09-11T08:23:58Z</time>
      </trkpt>
      <trkpt lat="45.90969" lon="4.56107">
        <ele>292</ele>
        <time>2025-09-11T08:23:59Z</time>
      </trkpt>
      <trkpt lat="45.90969" lon="4.56105">
        <ele>292.4</ele>
        <time>2025-09-11T08:24:00Z</time>
      </trkpt>
      <trkpt lat="45.90969" lon="4.56102">
        <ele>292.6</ele>
        <time>2025-09-11T08:24:01Z</time>
      </trkpt>
      <trkpt lat="45.90969" lon="4.56098">
        <ele>292.6</ele>
        <time>2025-09-11T08:24:02Z</time>
      </trkpt>
      <trkpt lat="45.90968" lon="4.56094">
        <ele>292.6</ele>
        <time>2025-09-11T08:24:03Z</time>
      </trkpt>
      <trkpt lat="45.90968" lon="4.5609">
        <ele>292.6</ele>
        <time>2025-09-11T08:24:04Z</time>
      </trkpt>
      <trkpt lat="45.90967" lon="4.56087">
        <ele>292.6</ele>
        <time>2025-09-11T08:24:05Z</time>
      </trkpt>
      <trkpt lat="45.90967" lon="4.56084">
        <ele>292.6</ele>
        <time>2025-09-11T08:24:06Z</time>
      </trkpt>
      <trkpt lat="45.90967" lon="4.56081">
        <ele>293</ele>
        <time>2025-09-11T08:24:07Z</time>
      </trkpt>
      <trkpt lat="45.90967" lon="4.56078">
        <ele>293</ele>
        <time>2025-09-11T08:24:08Z</time>
      </trkpt>
      <trkpt lat="45.90967" lon="4.56075">
        <ele>293.2</ele>
        <time>2025-09-11T08:24:09Z</time>
      </trkpt>
      <trkpt lat="45.90967" lon="4.56072">
        <ele>293.2</ele>
        <time>2025-09-11T08:24:10Z</time>
      </trkpt>
      <trkpt lat="45.90968" lon="4.56069">
        <ele>293.2</ele>
        <time>2025-09-11T08:24:11Z</time>
      </trkpt>
      <trkpt lat="45.90968" lon="4.56067">
        <ele>293.6</ele>
        <time>2025-09-11T08:24:12Z</time>
      </trkpt>
      <trkpt lat="45.90968" lon="4.56064">
        <ele>293.6</ele>
        <time>2025-09-11T08:24:13Z</time>
      </trkpt>
      <trkpt lat="45.90969" lon="4.56061">
        <ele>293.8</ele>
        <time>2025-09-11T08:24:14Z</time>
      </trkpt>
      <trkpt lat="45.9097" lon="4.56059">
        <ele>293.8</ele>
        <time>2025-09-11T08:24:15Z</time>
      </trkpt>
      <trkpt lat="45.90971" lon="4.56057">
        <ele>293.8</ele>
        <time>2025-09-11T08:24:16Z</time>
      </trkpt>
      <trkpt lat="45.90972" lon="4.56056">
        <ele>294.2</ele>
        <time>2025-09-11T08:24:17Z</time>
      </trkpt>
      <trkpt lat="45.90973" lon="4.56054">
        <ele>294.2</ele>
        <time>2025-09-11T08:24:18Z</time>
      </trkpt>
      <trkpt lat="45.90975" lon="4.56052">
        <ele>294.2</ele>
        <time>2025-09-11T08:24:19Z</time>
      </trkpt>
      <trkpt lat="45.90976" lon="4.5605">
        <ele>294.4</ele>
        <time>2025-09-11T08:24:20Z</time>
      </trkpt>
      <trkpt lat="45.90977" lon="4.56048">
        <ele>294.4</ele>
        <time>2025-09-11T08:24:21Z</time>
      </trkpt>
      <trkpt lat="45.90979" lon="4.56047">
        <ele>294.6</ele>
        <time>2025-09-11T08:24:22Z</time>
      </trkpt>
      <trkpt lat="45.9098" lon="4.56045">
        <ele>294.8</ele>
        <time>2025-09-11T08:24:23Z</time>
      </trkpt>
      <trkpt lat="45.90981" lon="4.56043">
        <ele>294.8</ele>
        <time>2025-09-11T08:24:24Z</time>
      </trkpt>
      <trkpt lat="45.90983" lon="4.56041">
        <ele>295.2</ele>
        <time>2025-09-11T08:24:25Z</time>
      </trkpt>
      <trkpt lat="45.90985" lon="4.56039">
        <ele>295.2</ele>
        <time>2025-09-11T08:24:26Z</time>
      </trkpt>
      <trkpt lat="45.90987" lon="4.56036">
        <ele>295.2</ele>
        <time>2025-09-11T08:24:27Z</time>
      </trkpt>
      <trkpt lat="45.90988" lon="4.56034">
        <ele>295.4</ele>
        <time>2025-09-11T08:24:28Z</time>
      </trkpt>
      <trkpt lat="45.90989" lon="4.56032">
        <ele>295.4</ele>
        <time>2025-09-11T08:24:29Z</time>
      </trkpt>
      <trkpt lat="45.9099" lon="4.5603">
        <ele>295.4</ele>
        <time>2025-09-11T08:24:30Z</time>
      </trkpt>
      <trkpt lat="45.90992" lon="4.56028">
        <ele>295.4</ele>
        <time>2025-09-11T08:24:31Z</time>
      </trkpt>
      <trkpt lat="45.90994" lon="4.56027">
        <ele>295.8</ele>
        <time>2025-09-11T08:24:32Z</time>
      </trkpt>
      <trkpt lat="45.90995" lon="4.56026">
        <ele>296</ele>
        <time>2025-09-11T08:24:33Z</time>
      </trkpt>
      <trkpt lat="45.90997" lon="4.56026">
        <ele>296</ele>
        <time>2025-09-11T08:24:34Z</time>
      </trkpt>
      <trkpt lat="45.90998" lon="4.56025">
        <ele>296</ele>
        <time>2025-09-11T08:24:35Z</time>
      </trkpt>
      <trkpt lat="45.91" lon="4.56024">
        <ele>296.2</ele>
        <time>2025-09-11T08:24:36Z</time>
      </trkpt>
      <trkpt lat="45.91001" lon="4.56023">
        <ele>296.2</ele>
        <time>2025-09-11T08:24:37Z</time>
      </trkpt>
      <trkpt lat="45.91002" lon="4.56023">
        <ele>296.4</ele>
        <time>2025-09-11T08:24:38Z</time>
      </trkpt>
      <trkpt lat="45.91003" lon="4.56022">
        <ele>296.4</ele>
        <time>2025-09-11T08:24:39Z</time>
      </trkpt>
      <trkpt lat="45.91005" lon="4.56021">
        <ele>296.4</ele>
        <time>2025-09-11T08:24:40Z</time>
      </trkpt>
      <trkpt lat="45.91007" lon="4.5602">
        <ele>296.4</ele>
        <time>2025-09-11T08:24:41Z</time>
      </trkpt>
      <trkpt lat="45.91009" lon="4.5602">
        <ele>296.4</ele>
        <time>2025-09-11T08:24:42Z</time>
      </trkpt>
      <trkpt lat="45.91011" lon="4.5602">
        <ele>296.4</ele>
        <time>2025-09-11T08:24:43Z</time>
      </trkpt>
      <trkpt lat="45.91013" lon="4.56019">
        <ele>296.8</ele>
        <time>2025-09-11T08:24:44Z</time>
      </trkpt>
      <trkpt lat="45.91014" lon="4.56018">
        <ele>297</ele>
        <time>2025-09-11T08:24:45Z</time>
      </trkpt>
      <trkpt lat="45.91016" lon="4.56018">
        <ele>297.2</ele>
        <time>2025-09-11T08:24:46Z</time>
      </trkpt>
      <trkpt lat="45.91019" lon="4.56017">
        <ele>297.2</ele>
        <time>2025-09-11T08:24:47Z</time>
      </trkpt>
      <trkpt lat="45.9102" lon="4.56016">
        <ele>297.2</ele>
        <time>2025-09-11T08:24:48Z</time>
      </trkpt>
      <trkpt lat="45.91021" lon="4.56015">
        <ele>297.4</ele>
        <time>2025-09-11T08:24:49Z</time>
      </trkpt>
      <trkpt lat="45.91021" lon="4.56015">
        <ele>297.4</ele>
        <time>2025-09-11T08:24:50Z</time>
      </trkpt>
      <trkpt lat="45.91021" lon="4.56014">
        <ele>297.4</ele>
        <time>2025-09-11T08:24:51Z</time>
      </trkpt>
      <trkpt lat="45.91021" lon="4.56012">
        <ele>297.8</ele>
        <time>2025-09-11T08:24:54Z</time>
      </trkpt>
      <trkpt lat="45.91021" lon="4.56011">
        <ele>297.8</ele>
        <time>2025-09-11T08:24:55Z</time>
      </trkpt>
      <trkpt lat="45.91021" lon="4.56011">
        <ele>297.6</ele>
        <time>2025-09-11T08:24:56Z</time>
      </trkpt>
      <trkpt lat="45.91021" lon="4.56011">
        <ele>297.6</ele>
        <time>2025-09-11T08:24:57Z</time>
      </trkpt>
      <trkpt lat="45.9102" lon="4.56011">
        <ele>297.2</ele>
        <time>2025-09-11T08:24:58Z</time>
      </trkpt>
      <trkpt lat="45.9102" lon="4.56011">
        <ele>297.4</ele>
        <time>2025-09-11T08:24:59Z</time>
      </trkpt>
      <trkpt lat="45.91019" lon="4.5601">
        <ele>297.4</ele>
        <time>2025-09-11T08:25:00Z</time>
      </trkpt>
      <trkpt lat="45.91019" lon="4.5601">
        <ele>297.4</ele>
        <time>2025-09-11T08:25:01Z</time>
      </trkpt>
      <trkpt lat="45.91018" lon="4.5601">
        <ele>297.4</ele>
        <time>2025-09-11T08:25:02Z</time>
      </trkpt>
      <trkpt lat="45.91044" lon="4.56005">
        <ele>296.6</ele>
        <time>2025-09-11T08:32:42Z</time>
      </trkpt>
      <trkpt lat="45.91046" lon="4.56005">
        <ele>296.6</ele>
        <time>2025-09-11T08:32:43Z</time>
      </trkpt>
      <trkpt lat="45.91049" lon="4.56004">
        <ele>296.6</ele>
        <time>2025-09-11T08:32:44Z</time>
      </trkpt>
      <trkpt lat="45.91051" lon="4.56003">
        <ele>296.6</ele>
        <time>2025-09-11T08:32:45Z</time>
      </trkpt>
      <trkpt lat="45.91053" lon="4.56002">
        <ele>297</ele>
        <time>2025-09-11T08:32:46Z</time>
      </trkpt>
      <trkpt lat="45.91056" lon="4.56001">
        <ele>297</ele>
        <time>2025-09-11T08:32:47Z</time>
      </trkpt>
      <trkpt lat="45.91058" lon="4.56002">
        <ele>297.2</ele>
        <time>2025-09-11T08:32:48Z</time>
      </trkpt>
      <trkpt lat="45.9106" lon="4.56002">
        <ele>297.6</ele>
        <time>2025-09-11T08:32:49Z</time>
      </trkpt>
      <trkpt lat="45.91061" lon="4.56003">
        <ele>297.6</ele>
        <time>2025-09-11T08:32:50Z</time>
      </trkpt>
      <trkpt lat="45.91062" lon="4.56003">
        <ele>298</ele>
        <time>2025-09-11T08:32:51Z</time>
      </trkpt>
      <trkpt lat="45.91063" lon="4.56003">
        <ele>298</ele>
        <time>2025-09-11T08:32:52Z</time>
      </trkpt>
      <trkpt lat="45.91065" lon="4.56003">
        <ele>298</ele>
        <time>2025-09-11T08:32:53Z</time>
      </trkpt>
      <trkpt lat="45.91068" lon="4.56003">
        <ele>298.4</ele>
        <time>2025-09-11T08:32:54Z</time>
      </trkpt>
      <trkpt lat="45.9107" lon="4.56004">
        <ele>298.4</ele>
        <time>2025-09-11T08:32:55Z</time>
      </trkpt>
      <trkpt lat="45.91072" lon="4.56004">
        <ele>298.4</ele>
        <time>2025-09-11T08:32:56Z</time>
      </trkpt>
      <trkpt lat="45.91074" lon="4.56004">
        <ele>299</ele>
        <time>2025-09-11T08:32:57Z</time>
      </trkpt>
      <trkpt lat="45.91076" lon="4.56003">
        <ele>299</ele>
        <time>2025-09-11T08:32:58Z</time>
      </trkpt>
      <trkpt lat="45.91076" lon="4.56003">
        <ele>299.6</ele>
        <time>2025-09-11T08:32:59Z</time>
      </trkpt>
      <trkpt lat="45.9108" lon="4.56003">
        <ele>299.8</ele>
        <time>2025-09-11T08:33:00Z</time>
      </trkpt>
      <trkpt lat="45.91083" lon="4.56003">
        <ele>299.8</ele>
        <time>2025-09-11T08:33:01Z</time>
      </trkpt>
      <trkpt lat="45.91084" lon="4.56004">
        <ele>299.8</ele>
        <time>2025-09-11T08:33:02Z</time>
      </trkpt>
      <trkpt lat="45.91085" lon="4.56004">
        <ele>300.2</ele>
        <time>2025-09-11T08:33:03Z</time>
      </trkpt>
      <trkpt lat="45.91087" lon="4.56005">
        <ele>300.2</ele>
        <time>2025-09-11T08:33:04Z</time>
      </trkpt>
      <trkpt lat="45.91088" lon="4.56005">
        <ele>300.8</ele>
        <time>2025-09-11T08:33:05Z</time>
      </trkpt>
      <trkpt lat="45.91089" lon="4.56005">
        <ele>300.8</ele>
        <time>2025-09-11T08:33:06Z</time>
      </trkpt>
      <trkpt lat="45.91091" lon="4.56005">
        <ele>300.8</ele>
        <time>2025-09-11T08:33:07Z</time>
      </trkpt>
      <trkpt lat="45.91092" lon="4.56005">
        <ele>300.8</ele>
        <time>2025-09-11T08:33:08Z</time>
      </trkpt>
      <trkpt lat="45.91094" lon="4.56006">
        <ele>300.8</ele>
        <time>2025-09-11T08:33:09Z</time>
      </trkpt>
      <trkpt lat="45.91095" lon="4.56006">
        <ele>300.8</ele>
        <time>2025-09-11T08:33:10Z</time>
      </trkpt>
      <trkpt lat="45.91096" lon="4.56007">
        <ele>300.8</ele>
        <time>2025-09-11T08:33:11Z</time>
      </trkpt>
      <trkpt lat="45.91097" lon="4.56007">
        <ele>300.8</ele>
        <time>2025-09-11T08:33:12Z</time>
      </trkpt>
      <trkpt lat="45.91099" lon="4.56007">
        <ele>300.8</ele>
        <time>2025-09-11T08:33:13Z</time>
      </trkpt>
      <trkpt lat="45.911" lon="4.56007">
        <ele>301</ele>
        <time>2025-09-11T08:33:14Z</time>
      </trkpt>
      <trkpt lat="45.911" lon="4.56007">
        <ele>301.2</ele>
        <time>2025-09-11T08:33:15Z</time>
      </trkpt>
      <trkpt lat="45.91102" lon="4.56007">
        <ele>301.2</ele>
        <time>2025-09-11T08:33:16Z</time>
      </trkpt>
      <trkpt lat="45.91104" lon="4.56008">
        <ele>301.4</ele>
        <time>2025-09-11T08:33:17Z</time>
      </trkpt>
      <trkpt lat="45.91106" lon="4.56008">
        <ele>301.4</ele>
        <time>2025-09-11T08:33:18Z</time>
      </trkpt>
      <trkpt lat="45.91108" lon="4.56008">
        <ele>301.8</ele>
        <time>2025-09-11T08:33:19Z</time>
      </trkpt>
      <trkpt lat="45.91109" lon="4.56009">
        <ele>301.8</ele>
        <time>2025-09-11T08:33:20Z</time>
      </trkpt>
      <trkpt lat="45.9111" lon="4.56009">
        <ele>301.8</ele>
        <time>2025-09-11T08:33:21Z</time>
      </trkpt>
      <trkpt lat="45.91112" lon="4.5601">
        <ele>301.8</ele>
        <time>2025-09-11T08:33:22Z</time>
      </trkpt>
      <trkpt lat="45.91113" lon="4.56011">
        <ele>302</ele>
        <time>2025-09-11T08:33:23Z</time>
      </trkpt>
      <trkpt lat="45.91115" lon="4.56011">
        <ele>302</ele>
        <time>2025-09-11T08:33:24Z</time>
      </trkpt>
      <trkpt lat="45.91116" lon="4.56011">
        <ele>302</ele>
        <time>2025-09-11T08:33:25Z</time>
      </trkpt>
      <trkpt lat="45.91118" lon="4.56011">
        <ele>302.6</ele>
        <time>2025-09-11T08:33:26Z</time>
      </trkpt>
      <trkpt lat="45.9112" lon="4.5601">
        <ele>302.6</ele>
        <time>2025-09-11T08:33:27Z</time>
      </trkpt>
      <trkpt lat="45.91122" lon="4.5601">
        <ele>302.6</ele>
        <time>2025-09-11T08:33:28Z</time>
      </trkpt>
      <trkpt lat="45.91124" lon="4.56011">
        <ele>302.8</ele>
        <time>2025-09-11T08:33:29Z</time>
      </trkpt>
      <trkpt lat="45.91126" lon="4.56011">
        <ele>302.8</ele>
        <time>2025-09-11T08:33:30Z</time>
      </trkpt>
      <trkpt lat="45.91128" lon="4.56012">
        <ele>302.8</ele>
        <time>2025-09-11T08:33:31Z</time>
      </trkpt>
      <trkpt lat="45.9113" lon="4.56012">
        <ele>303</ele>
        <time>2025-09-11T08:33:32Z</time>
      </trkpt>
      <trkpt lat="45.91131" lon="4.56011">
        <ele>303</ele>
        <time>2025-09-11T08:33:33Z</time>
      </trkpt>
      <trkpt lat="45.91134" lon="4.5601">
        <ele>303.4</ele>
        <time>2025-09-11T08:33:34Z</time>
      </trkpt>
      <trkpt lat="45.91135" lon="4.5601">
        <ele>303.6</ele>
        <time>2025-09-11T08:33:35Z</time>
      </trkpt>
      <trkpt lat="45.91136" lon="4.5601">
        <ele>303.8</ele>
        <time>2025-09-11T08:33:36Z</time>
      </trkpt>
      <trkpt lat="45.91138" lon="4.5601">
        <ele>303.8</ele>
        <time>2025-09-11T08:33:37Z</time>
      </trkpt>
      <trkpt lat="45.91139" lon="4.56011">
        <ele>303.8</ele>
        <time>2025-09-11T08:33:38Z</time>
      </trkpt>
      <trkpt lat="45.91141" lon="4.56011">
        <ele>303.8</ele>
        <time>2025-09-11T08:33:39Z</time>
      </trkpt>
      <trkpt lat="45.91144" lon="4.56011">
        <ele>304.2</ele>
        <time>2025-09-11T08:33:40Z</time>
      </trkpt>
      <trkpt lat="45.91147" lon="4.56011">
        <ele>304.2</ele>
        <time>2025-09-11T08:33:41Z</time>
      </trkpt>
      <trkpt lat="45.91149" lon="4.56012">
        <ele>304.2</ele>
        <time>2025-09-11T08:33:42Z</time>
      </trkpt>
      <trkpt lat="45.91151" lon="4.56013">
        <ele>304.2</ele>
        <time>2025-09-11T08:33:43Z</time>
      </trkpt>
      <trkpt lat="45.91153" lon="4.56014">
        <ele>304.6</ele>
        <time>2025-09-11T08:33:44Z</time>
      </trkpt>
      <trkpt lat="45.91155" lon="4.56014">
        <ele>304.6</ele>
        <time>2025-09-11T08:33:45Z</time>
      </trkpt>
      <trkpt lat="45.91157" lon="4.56015">
        <ele>304.8</ele>
        <time>2025-09-11T08:33:46Z</time>
      </trkpt>
      <trkpt lat="45.9116" lon="4.56015">
        <ele>305</ele>
        <time>2025-09-11T08:33:47Z</time>
      </trkpt>
      <trkpt lat="45.91161" lon="4.56016">
        <ele>305</ele>
        <time>2025-09-11T08:33:48Z</time>
      </trkpt>
      <trkpt lat="45.91163" lon="4.56016">
        <ele>305</ele>
        <time>2025-09-11T08:33:49Z</time>
      </trkpt>
      <trkpt lat="45.91164" lon="4.56015">
        <ele>305</ele>
        <time>2025-09-11T08:33:50Z</time>
      </trkpt>
      <trkpt lat="45.91165" lon="4.56015">
        <ele>305</ele>
        <time>2025-09-11T08:33:51Z</time>
      </trkpt>
      <trkpt lat="45.91166" lon="4.56014">
        <ele>305</ele>
        <time>2025-09-11T08:33:52Z</time>
      </trkpt>
      <trkpt lat="45.91168" lon="4.56013">
        <ele>305</ele>
        <time>2025-09-11T08:33:53Z</time>
      </trkpt>
      <trkpt lat="45.91169" lon="4.56013">
        <ele>305</ele>
        <time>2025-09-11T08:33:54Z</time>
      </trkpt>
      <trkpt lat="45.91171" lon="4.56013">
        <ele>305.6</ele>
        <time>2025-09-11T08:33:55Z</time>
      </trkpt>
      <trkpt lat="45.91173" lon="4.56012">
        <ele>305.8</ele>
        <time>2025-09-11T08:33:56Z</time>
      </trkpt>
      <trkpt lat="45.91174" lon="4.56012">
        <ele>305.8</ele>
        <time>2025-09-11T08:33:57Z</time>
      </trkpt>
      <trkpt lat="45.91176" lon="4.56011">
        <ele>306.2</ele>
        <time>2025-09-11T08:33:58Z</time>
      </trkpt>
      <trkpt lat="45.91177" lon="4.5601">
        <ele>306.8</ele>
        <time>2025-09-11T08:33:59Z</time>
      </trkpt>
      <trkpt lat="45.91178" lon="4.5601">
        <ele>306.8</ele>
        <time>2025-09-11T08:34:00Z</time>
      </trkpt>
      <trkpt lat="45.9118" lon="4.5601">
        <ele>306.8</ele>
        <time>2025-09-11T08:34:01Z</time>
      </trkpt>
      <trkpt lat="45.91181" lon="4.56009">
        <ele>307</ele>
        <time>2025-09-11T08:34:02Z</time>
      </trkpt>
      <trkpt lat="45.91181" lon="4.56008">
        <ele>307</ele>
        <time>2025-09-11T08:34:03Z</time>
      </trkpt>
      <trkpt lat="45.91183" lon="4.56007">
        <ele>307.2</ele>
        <time>2025-09-11T08:34:04Z</time>
      </trkpt>
      <trkpt lat="45.91185" lon="4.56006">
        <ele>307.2</ele>
        <time>2025-09-11T08:34:05Z</time>
      </trkpt>
      <trkpt lat="45.91187" lon="4.56006">
        <ele>307.2</ele>
        <time>2025-09-11T08:34:06Z</time>
      </trkpt>
      <trkpt lat="45.91188" lon="4.56006">
        <ele>307.2</ele>
        <time>2025-09-11T08:34:07Z</time>
      </trkpt>
      <trkpt lat="45.9119" lon="4.56005">
        <ele>307.2</ele>
        <time>2025-09-11T08:34:08Z</time>
      </trkpt>
      <trkpt lat="45.91192" lon="4.56005">
        <ele>307.4</ele>
        <time>2025-09-11T08:34:09Z</time>
      </trkpt>
      <trkpt lat="45.91193" lon="4.56004">
        <ele>307.8</ele>
        <time>2025-09-11T08:34:10Z</time>
      </trkpt>
      <trkpt lat="45.91195" lon="4.56003">
        <ele>308</ele>
        <time>2025-09-11T08:34:11Z</time>
      </trkpt>
      <trkpt lat="45.91196" lon="4.56003">
        <ele>308</ele>
        <time>2025-09-11T08:34:12Z</time>
      </trkpt>
      <trkpt lat="45.91197" lon="4.56002">
        <ele>308</ele>
        <time>2025-09-11T08:34:13Z</time>
      </trkpt>
      <trkpt lat="45.91198" lon="4.56001">
        <ele>308.2</ele>
        <time>2025-09-11T08:34:14Z</time>
      </trkpt>
      <trkpt lat="45.91199" lon="4.56">
        <ele>308.6</ele>
        <time>2025-09-11T08:34:15Z</time>
      </trkpt>
      <trkpt lat="45.912" lon="4.55999">
        <ele>308.6</ele>
        <time>2025-09-11T08:34:16Z</time>
      </trkpt>
      <trkpt lat="45.91203" lon="4.55998">
        <ele>308.8</ele>
        <time>2025-09-11T08:34:17Z</time>
      </trkpt>
      <trkpt lat="45.91205" lon="4.55997">
        <ele>308.8</ele>
        <time>2025-09-11T08:34:18Z</time>
      </trkpt>
      <trkpt lat="45.91207" lon="4.55997">
        <ele>309</ele>
        <time>2025-09-11T08:34:19Z</time>
      </trkpt>
      <trkpt lat="45.91209" lon="4.55996">
        <ele>309</ele>
        <time>2025-09-11T08:34:20Z</time>
      </trkpt>
      <trkpt lat="45.9121" lon="4.55996">
        <ele>309</ele>
        <time>2025-09-11T08:34:21Z</time>
      </trkpt>
      <trkpt lat="45.91212" lon="4.55995">
        <ele>309</ele>
        <time>2025-09-11T08:34:22Z</time>
      </trkpt>
      <trkpt lat="45.91214" lon="4.55994">
        <ele>309</ele>
        <time>2025-09-11T08:34:23Z</time>
      </trkpt>
      <trkpt lat="45.91215" lon="4.55992">
        <ele>309.2</ele>
        <time>2025-09-11T08:34:24Z</time>
      </trkpt>
      <trkpt lat="45.91217" lon="4.55991">
        <ele>309.4</ele>
        <time>2025-09-11T08:34:25Z</time>
      </trkpt>
      <trkpt lat="45.91218" lon="4.55989">
        <ele>309.4</ele>
        <time>2025-09-11T08:34:26Z</time>
      </trkpt>
      <trkpt lat="45.9122" lon="4.55988">
        <ele>309.4</ele>
        <time>2025-09-11T08:34:27Z</time>
      </trkpt>
      <trkpt lat="45.91221" lon="4.55987">
        <ele>310</ele>
        <time>2025-09-11T08:34:28Z</time>
      </trkpt>
      <trkpt lat="45.91222" lon="4.55985">
        <ele>310</ele>
        <time>2025-09-11T08:34:29Z</time>
      </trkpt>
      <trkpt lat="45.91224" lon="4.55984">
        <ele>310</ele>
        <time>2025-09-11T08:34:30Z</time>
      </trkpt>
      <trkpt lat="45.91226" lon="4.55983">
        <ele>310</ele>
        <time>2025-09-11T08:34:31Z</time>
      </trkpt>
      <trkpt lat="45.91228" lon="4.55982">
        <ele>310.2</ele>
        <time>2025-09-11T08:34:32Z</time>
      </trkpt>
      <trkpt lat="45.91229" lon="4.55981">
        <ele>310.2</ele>
        <time>2025-09-11T08:34:33Z</time>
      </trkpt>
      <trkpt lat="45.91231" lon="4.5598">
        <ele>310.2</ele>
        <time>2025-09-11T08:34:34Z</time>
      </trkpt>
      <trkpt lat="45.91233" lon="4.55978">
        <ele>310.2</ele>
        <time>2025-09-11T08:34:35Z</time>
      </trkpt>
      <trkpt lat="45.91234" lon="4.55977">
        <ele>310.6</ele>
        <time>2025-09-11T08:34:36Z</time>
      </trkpt>
      <trkpt lat="45.91236" lon="4.55975">
        <ele>310.6</ele>
        <time>2025-09-11T08:34:37Z</time>
      </trkpt>
      <trkpt lat="45.91237" lon="4.55974">
        <ele>310.6</ele>
        <time>2025-09-11T08:34:38Z</time>
      </trkpt>
      <trkpt lat="45.91239" lon="4.55972">
        <ele>311</ele>
        <time>2025-09-11T08:34:39Z</time>
      </trkpt>
      <trkpt lat="45.9124" lon="4.5597">
        <ele>311.2</ele>
        <time>2025-09-11T08:34:40Z</time>
      </trkpt>
      <trkpt lat="45.91241" lon="4.55968">
        <ele>311.2</ele>
        <time>2025-09-11T08:34:41Z</time>
      </trkpt>
      <trkpt lat="45.91242" lon="4.55966">
        <ele>311.2</ele>
        <time>2025-09-11T08:34:42Z</time>
      </trkpt>
      <trkpt lat="45.91243" lon="4.55964">
        <ele>311.2</ele>
        <time>2025-09-11T08:34:43Z</time>
      </trkpt>
      <trkpt lat="45.91244" lon="4.55962">
        <ele>311.4</ele>
        <time>2025-09-11T08:34:44Z</time>
      </trkpt>
      <trkpt lat="45.91245" lon="4.55961">
        <ele>311.4</ele>
        <time>2025-09-11T08:34:45Z</time>
      </trkpt>
      <trkpt lat="45.91245" lon="4.5596">
        <ele>311.6</ele>
        <time>2025-09-11T08:34:46Z</time>
      </trkpt>
      <trkpt lat="45.91246" lon="4.55957">
        <ele>311.6</ele>
        <time>2025-09-11T08:34:47Z</time>
      </trkpt>
      <trkpt lat="45.91248" lon="4.55955">
        <ele>311.6</ele>
        <time>2025-09-11T08:34:48Z</time>
      </trkpt>
      <trkpt lat="45.9125" lon="4.55954">
        <ele>312</ele>
        <time>2025-09-11T08:34:49Z</time>
      </trkpt>
      <trkpt lat="45.91252" lon="4.55953">
        <ele>312.4</ele>
        <time>2025-09-11T08:34:50Z</time>
      </trkpt>
      <trkpt lat="45.91254" lon="4.55951">
        <ele>312.4</ele>
        <time>2025-09-11T08:34:51Z</time>
      </trkpt>
      <trkpt lat="45.91256" lon="4.5595">
        <ele>312.4</ele>
        <time>2025-09-11T08:34:52Z</time>
      </trkpt>
      <trkpt lat="45.91258" lon="4.55949">
        <ele>312.2</ele>
        <time>2025-09-11T08:34:53Z</time>
      </trkpt>
      <trkpt lat="45.9126" lon="4.55948">
        <ele>312.2</ele>
        <time>2025-09-11T08:34:54Z</time>
      </trkpt>
      <trkpt lat="45.91263" lon="4.55947">
        <ele>312.2</ele>
        <time>2025-09-11T08:34:55Z</time>
      </trkpt>
      <trkpt lat="45.91265" lon="4.55947">
        <ele>312.2</ele>
        <time>2025-09-11T08:34:56Z</time>
      </trkpt>
      <trkpt lat="45.91268" lon="4.55946">
        <ele>312.2</ele>
        <time>2025-09-11T08:34:57Z</time>
      </trkpt>
      <trkpt lat="45.91271" lon="4.55946">
        <ele>312.2</ele>
        <time>2025-09-11T08:34:58Z</time>
      </trkpt>
      <trkpt lat="45.91273" lon="4.55945">
        <ele>312.2</ele>
        <time>2025-09-11T08:34:59Z</time>
      </trkpt>
      <trkpt lat="45.91276" lon="4.55944">
        <ele>312.2</ele>
        <time>2025-09-11T08:35:00Z</time>
      </trkpt>
      <trkpt lat="45.91278" lon="4.55943">
        <ele>312.2</ele>
        <time>2025-09-11T08:35:01Z</time>
      </trkpt>
      <trkpt lat="45.9128" lon="4.55942">
        <ele>311.2</ele>
        <time>2025-09-11T08:35:02Z</time>
      </trkpt>
      <trkpt lat="45.91282" lon="4.55941">
        <ele>311.2</ele>
        <time>2025-09-11T08:35:03Z</time>
      </trkpt>
      <trkpt lat="45.91284" lon="4.55941">
        <ele>311.2</ele>
        <time>2025-09-11T08:35:04Z</time>
      </trkpt>
      <trkpt lat="45.91286" lon="4.5594">
        <ele>311.2</ele>
        <time>2025-09-11T08:35:05Z</time>
      </trkpt>
      <trkpt lat="45.91289" lon="4.55939">
        <ele>311.2</ele>
        <time>2025-09-11T08:35:06Z</time>
      </trkpt>
      <trkpt lat="45.91291" lon="4.55938">
        <ele>311.2</ele>
        <time>2025-09-11T08:35:07Z</time>
      </trkpt>
      <trkpt lat="45.91294" lon="4.55938">
        <ele>311.2</ele>
        <time>2025-09-11T08:35:08Z</time>
      </trkpt>
      <trkpt lat="45.91295" lon="4.55938">
        <ele>311.2</ele>
        <time>2025-09-11T08:35:09Z</time>
      </trkpt>
      <trkpt lat="45.91298" lon="4.55937">
        <ele>311.2</ele>
        <time>2025-09-11T08:35:10Z</time>
      </trkpt>
      <trkpt lat="45.91301" lon="4.55936">
        <ele>311.2</ele>
        <time>2025-09-11T08:35:11Z</time>
      </trkpt>
      <trkpt lat="45.91303" lon="4.55935">
        <ele>311.2</ele>
        <time>2025-09-11T08:35:12Z</time>
      </trkpt>
      <trkpt lat="45.91306" lon="4.55935">
        <ele>311</ele>
        <time>2025-09-11T08:35:13Z</time>
      </trkpt>
      <trkpt lat="45.91309" lon="4.55935">
        <ele>311</ele>
        <time>2025-09-11T08:35:14Z</time>
      </trkpt>
      <trkpt lat="45.91313" lon="4.55934">
        <ele>310.6</ele>
        <time>2025-09-11T08:35:15Z</time>
      </trkpt>
      <trkpt lat="45.91316" lon="4.55934">
        <ele>310</ele>
        <time>2025-09-11T08:35:16Z</time>
      </trkpt>
      <trkpt lat="45.9132" lon="4.55933">
        <ele>309.8</ele>
        <time>2025-09-11T08:35:17Z</time>
      </trkpt>
      <trkpt lat="45.91324" lon="4.55934">
        <ele>309.8</ele>
        <time>2025-09-11T08:35:18Z</time>
      </trkpt>
      <trkpt lat="45.91327" lon="4.55933">
        <ele>309.4</ele>
        <time>2025-09-11T08:35:19Z</time>
      </trkpt>
      <trkpt lat="45.91329" lon="4.55934">
        <ele>309</ele>
        <time>2025-09-11T08:35:20Z</time>
      </trkpt>
      <trkpt lat="45.91335" lon="4.55933">
        <ele>308.8</ele>
        <time>2025-09-11T08:35:21Z</time>
      </trkpt>
      <trkpt lat="45.91338" lon="4.55934">
        <ele>308.6</ele>
        <time>2025-09-11T08:35:22Z</time>
      </trkpt>
      <trkpt lat="45.91342" lon="4.55936">
        <ele>308.2</ele>
        <time>2025-09-11T08:35:23Z</time>
      </trkpt>
      <trkpt lat="45.91348" lon="4.55938">
        <ele>308</ele>
        <time>2025-09-11T08:35:24Z</time>
      </trkpt>
      <trkpt lat="45.91352" lon="4.5594">
        <ele>307.8</ele>
        <time>2025-09-11T08:35:25Z</time>
      </trkpt>
      <trkpt lat="45.91357" lon="4.5594">
        <ele>307.2</ele>
        <time>2025-09-11T08:35:26Z</time>
      </trkpt>
      <trkpt lat="45.91361" lon="4.55941">
        <ele>307.2</ele>
        <time>2025-09-11T08:35:27Z</time>
      </trkpt>
      <trkpt lat="45.91365" lon="4.55939">
        <ele>306.6</ele>
        <time>2025-09-11T08:35:28Z</time>
      </trkpt>
      <trkpt lat="45.91369" lon="4.55939">
        <ele>306.2</ele>
        <time>2025-09-11T08:35:29Z</time>
      </trkpt>
      <trkpt lat="45.9137" lon="4.5594">
        <ele>305.8</ele>
        <time>2025-09-11T08:35:30Z</time>
      </trkpt>
      <trkpt lat="45.91377" lon="4.55939">
        <ele>305.8</ele>
        <time>2025-09-11T08:35:31Z</time>
      </trkpt>
      <trkpt lat="45.91381" lon="4.55939">
        <ele>305.4</ele>
        <time>2025-09-11T08:35:32Z</time>
      </trkpt>
      <trkpt lat="45.91381" lon="4.55941">
        <ele>305.2</ele>
        <time>2025-09-11T08:35:33Z</time>
      </trkpt>
      <trkpt lat="45.91384" lon="4.55939">
        <ele>305.2</ele>
        <time>2025-09-11T08:35:34Z</time>
      </trkpt>
      <trkpt lat="45.91387" lon="4.55938">
        <ele>304.8</ele>
        <time>2025-09-11T08:35:35Z</time>
      </trkpt>
      <trkpt lat="45.91389" lon="4.55937">
        <ele>304.4</ele>
        <time>2025-09-11T08:35:36Z</time>
      </trkpt>
      <trkpt lat="45.91393" lon="4.55935">
        <ele>304.2</ele>
        <time>2025-09-11T08:35:37Z</time>
      </trkpt>
      <trkpt lat="45.91396" lon="4.55935">
        <ele>304</ele>
        <time>2025-09-11T08:35:38Z</time>
      </trkpt>
      <trkpt lat="45.91398" lon="4.55937">
        <ele>303.8</ele>
        <time>2025-09-11T08:35:39Z</time>
      </trkpt>
      <trkpt lat="45.91401" lon="4.55939">
        <ele>303.8</ele>
        <time>2025-09-11T08:35:40Z</time>
      </trkpt>
      <trkpt lat="45.91402" lon="4.55939">
        <ele>303.6</ele>
        <time>2025-09-11T08:35:41Z</time>
      </trkpt>
      <trkpt lat="45.91403" lon="4.55938">
        <ele>303.6</ele>
        <time>2025-09-11T08:35:42Z</time>
      </trkpt>
      <trkpt lat="45.91404" lon="4.55938">
        <ele>303.6</ele>
        <time>2025-09-11T08:35:43Z</time>
      </trkpt>
      <trkpt lat="45.91404" lon="4.55938">
        <ele>303.6</ele>
        <time>2025-09-11T08:35:44Z</time>
      </trkpt>
      <trkpt lat="45.91404" lon="4.55938">
        <ele>303.6</ele>
        <time>2025-09-11T08:35:45Z</time>
      </trkpt>
      <trkpt lat="45.91407" lon="4.55942">
        <ele>303.4</ele>
        <time>2025-09-11T08:38:13Z</time>
      </trkpt>
      <trkpt lat="45.91409" lon="4.55943">
        <ele>303.4</ele>
        <time>2025-09-11T08:38:14Z</time>
      </trkpt>
      <trkpt lat="45.91411" lon="4.55945">
        <ele>303.4</ele>
        <time>2025-09-11T08:38:15Z</time>
      </trkpt>
      <trkpt lat="45.91413" lon="4.55946">
        <ele>303.4</ele>
        <time>2025-09-11T08:38:16Z</time>
      </trkpt>
      <trkpt lat="45.91415" lon="4.55948">
        <ele>303.4</ele>
        <time>2025-09-11T08:38:17Z</time>
      </trkpt>
      <trkpt lat="45.91416" lon="4.5595">
        <ele>303</ele>
        <time>2025-09-11T08:38:18Z</time>
      </trkpt>
      <trkpt lat="45.91419" lon="4.55952">
        <ele>303</ele>
        <time>2025-09-11T08:38:19Z</time>
      </trkpt>
      <trkpt lat="45.9142" lon="4.55955">
        <ele>303</ele>
        <time>2025-09-11T08:38:20Z</time>
      </trkpt>
      <trkpt lat="45.91421" lon="4.55957">
        <ele>303</ele>
        <time>2025-09-11T08:38:21Z</time>
      </trkpt>
      <trkpt lat="45.91423" lon="4.5596">
        <ele>303</ele>
        <time>2025-09-11T08:38:22Z</time>
      </trkpt>
      <trkpt lat="45.91425" lon="4.55963">
        <ele>303.2</ele>
        <time>2025-09-11T08:38:23Z</time>
      </trkpt>
      <trkpt lat="45.91427" lon="4.55965">
        <ele>303.2</ele>
        <time>2025-09-11T08:38:24Z</time>
      </trkpt>
      <trkpt lat="45.91429" lon="4.55968">
        <ele>303.4</ele>
        <time>2025-09-11T08:38:25Z</time>
      </trkpt>
      <trkpt lat="45.91431" lon="4.5597">
        <ele>303.4</ele>
        <time>2025-09-11T08:38:26Z</time>
      </trkpt>
      <trkpt lat="45.91433" lon="4.55972">
        <ele>303.4</ele>
        <time>2025-09-11T08:38:27Z</time>
      </trkpt>
      <trkpt lat="45.91435" lon="4.55974">
        <ele>303.8</ele>
        <time>2025-09-11T08:38:28Z</time>
      </trkpt>
      <trkpt lat="45.91436" lon="4.55976">
        <ele>304</ele>
        <time>2025-09-11T08:38:29Z</time>
      </trkpt>
      <trkpt lat="45.91438" lon="4.55978">
        <ele>304</ele>
        <time>2025-09-11T08:38:30Z</time>
      </trkpt>
      <trkpt lat="45.9144" lon="4.55979">
        <ele>304.4</ele>
        <time>2025-09-11T08:38:31Z</time>
      </trkpt>
      <trkpt lat="45.91441" lon="4.55981">
        <ele>304.4</ele>
        <time>2025-09-11T08:38:32Z</time>
      </trkpt>
      <trkpt lat="45.91443" lon="4.55983">
        <ele>304.4</ele>
        <time>2025-09-11T08:38:33Z</time>
      </trkpt>
      <trkpt lat="45.91445" lon="4.55984">
        <ele>304.6</ele>
        <time>2025-09-11T08:38:34Z</time>
      </trkpt>
      <trkpt lat="45.91447" lon="4.55985">
        <ele>304.6</ele>
        <time>2025-09-11T08:38:35Z</time>
      </trkpt>
      <trkpt lat="45.91449" lon="4.55987">
        <ele>305</ele>
        <time>2025-09-11T08:38:36Z</time>
      </trkpt>
      <trkpt lat="45.9145" lon="4.55987">
        <ele>305.2</ele>
        <time>2025-09-11T08:38:37Z</time>
      </trkpt>
      <trkpt lat="45.91451" lon="4.55988">
        <ele>305.4</ele>
        <time>2025-09-11T08:38:38Z</time>
      </trkpt>
      <trkpt lat="45.91453" lon="4.55989">
        <ele>305.8</ele>
        <time>2025-09-11T08:38:39Z</time>
      </trkpt>
      <trkpt lat="45.91454" lon="4.55991">
        <ele>305.8</ele>
        <time>2025-09-11T08:38:40Z</time>
      </trkpt>
      <trkpt lat="45.91455" lon="4.55992">
        <ele>306.2</ele>
        <time>2025-09-11T08:38:41Z</time>
      </trkpt>
      <trkpt lat="45.91457" lon="4.55993">
        <ele>306.4</ele>
        <time>2025-09-11T08:38:42Z</time>
      </trkpt>
      <trkpt lat="45.91459" lon="4.55993">
        <ele>306.4</ele>
        <time>2025-09-11T08:38:43Z</time>
      </trkpt>
      <trkpt lat="45.9146" lon="4.55995">
        <ele>306.8</ele>
        <time>2025-09-11T08:38:44Z</time>
      </trkpt>
      <trkpt lat="45.91462" lon="4.55996">
        <ele>306.8</ele>
        <time>2025-09-11T08:38:45Z</time>
      </trkpt>
      <trkpt lat="45.91463" lon="4.55997">
        <ele>307</ele>
        <time>2025-09-11T08:38:46Z</time>
      </trkpt>
      <trkpt lat="45.91465" lon="4.55998">
        <ele>307.2</ele>
        <time>2025-09-11T08:38:47Z</time>
      </trkpt>
      <trkpt lat="45.91466" lon="4.55999">
        <ele>307.2</ele>
        <time>2025-09-11T08:38:48Z</time>
      </trkpt>
      <trkpt lat="45.91468" lon="4.56001">
        <ele>307.6</ele>
        <time>2025-09-11T08:38:49Z</time>
      </trkpt>
      <trkpt lat="45.91469" lon="4.56002">
        <ele>307.6</ele>
        <time>2025-09-11T08:38:50Z</time>
      </trkpt>
      <trkpt lat="45.9147" lon="4.56003">
        <ele>307.6</ele>
        <time>2025-09-11T08:38:51Z</time>
      </trkpt>
      <trkpt lat="45.91471" lon="4.56004">
        <ele>307.6</ele>
        <time>2025-09-11T08:38:52Z</time>
      </trkpt>
      <trkpt lat="45.91472" lon="4.56006">
        <ele>308</ele>
        <time>2025-09-11T08:38:53Z</time>
      </trkpt>
      <trkpt lat="45.91474" lon="4.56007">
        <ele>308</ele>
        <time>2025-09-11T08:38:54Z</time>
      </trkpt>
      <trkpt lat="45.91475" lon="4.56008">
        <ele>308</ele>
        <time>2025-09-11T08:38:55Z</time>
      </trkpt>
      <trkpt lat="45.91477" lon="4.56009">
        <ele>308</ele>
        <time>2025-09-11T08:38:56Z</time>
      </trkpt>
      <trkpt lat="45.91479" lon="4.56011">
        <ele>308.4</ele>
        <time>2025-09-11T08:38:57Z</time>
      </trkpt>
      <trkpt lat="45.9148" lon="4.56012">
        <ele>308.4</ele>
        <time>2025-09-11T08:38:58Z</time>
      </trkpt>
      <trkpt lat="45.91482" lon="4.56013">
        <ele>308.6</ele>
        <time>2025-09-11T08:38:59Z</time>
      </trkpt>
      <trkpt lat="45.91483" lon="4.56014">
        <ele>308.6</ele>
        <time>2025-09-11T08:39:00Z</time>
      </trkpt>
      <trkpt lat="45.91485" lon="4.56014">
        <ele>308.6</ele>
        <time>2025-09-11T08:39:01Z</time>
      </trkpt>
      <trkpt lat="45.91487" lon="4.56015">
        <ele>308.6</ele>
        <time>2025-09-11T08:39:02Z</time>
      </trkpt>
      <trkpt lat="45.9149" lon="4.56016">
        <ele>308.6</ele>
        <time>2025-09-11T08:39:03Z</time>
      </trkpt>
      <trkpt lat="45.91493" lon="4.56017">
        <ele>308.8</ele>
        <time>2025-09-11T08:39:04Z</time>
      </trkpt>
      <trkpt lat="45.91496" lon="4.56019">
        <ele>308.6</ele>
        <time>2025-09-11T08:39:05Z</time>
      </trkpt>
      <trkpt lat="45.91498" lon="4.56022">
        <ele>308.6</ele>
        <time>2025-09-11T08:39:06Z</time>
      </trkpt>
      <trkpt lat="45.91501" lon="4.56025">
        <ele>308.2</ele>
        <time>2025-09-11T08:39:07Z</time>
      </trkpt>
      <trkpt lat="45.91504" lon="4.56028">
        <ele>307.8</ele>
        <time>2025-09-11T08:39:08Z</time>
      </trkpt>
      <trkpt lat="45.91508" lon="4.56031">
        <ele>307.6</ele>
        <time>2025-09-11T08:39:09Z</time>
      </trkpt>
      <trkpt lat="45.91511" lon="4.56034">
        <ele>307.4</ele>
        <time>2025-09-11T08:39:10Z</time>
      </trkpt>
      <trkpt lat="45.91514" lon="4.56037">
        <ele>307</ele>
        <time>2025-09-11T08:39:11Z</time>
      </trkpt>
      <trkpt lat="45.91519" lon="4.5604">
        <ele>306.4</ele>
        <time>2025-09-11T08:39:12Z</time>
      </trkpt>
      <trkpt lat="45.91523" lon="4.56043">
        <ele>306</ele>
        <time>2025-09-11T08:39:13Z</time>
      </trkpt>
      <trkpt lat="45.91527" lon="4.56047">
        <ele>305.4</ele>
        <time>2025-09-11T08:39:14Z</time>
      </trkpt>
      <trkpt lat="45.91531" lon="4.56051">
        <ele>304.8</ele>
        <time>2025-09-11T08:39:15Z</time>
      </trkpt>
      <trkpt lat="45.91537" lon="4.56055">
        <ele>304</ele>
        <time>2025-09-11T08:39:16Z</time>
      </trkpt>
      <trkpt lat="45.91542" lon="4.56058">
        <ele>303.4</ele>
        <time>2025-09-11T08:39:17Z</time>
      </trkpt>
      <trkpt lat="45.91547" lon="4.56061">
        <ele>302.8</ele>
        <time>2025-09-11T08:39:18Z</time>
      </trkpt>
      <trkpt lat="45.91552" lon="4.56064">
        <ele>302.4</ele>
        <time>2025-09-11T08:39:19Z</time>
      </trkpt>
      <trkpt lat="45.91557" lon="4.56067">
        <ele>301.8</ele>
        <time>2025-09-11T08:39:20Z</time>
      </trkpt>
      <trkpt lat="45.91563" lon="4.5607">
        <ele>301.2</ele>
        <time>2025-09-11T08:39:21Z</time>
      </trkpt>
      <trkpt lat="45.91568" lon="4.56072">
        <ele>300.6</ele>
        <time>2025-09-11T08:39:22Z</time>
      </trkpt>
      <trkpt lat="45.91575" lon="4.56075">
        <ele>300.2</ele>
        <time>2025-09-11T08:39:23Z</time>
      </trkpt>
      <trkpt lat="45.9158" lon="4.56078">
        <ele>299.6</ele>
        <time>2025-09-11T08:39:24Z</time>
      </trkpt>
      <trkpt lat="45.91585" lon="4.5608">
        <ele>298.8</ele>
        <time>2025-09-11T08:39:25Z</time>
      </trkpt>
      <trkpt lat="45.9159" lon="4.56081">
        <ele>298.2</ele>
        <time>2025-09-11T08:39:26Z</time>
      </trkpt>
      <trkpt lat="45.91595" lon="4.56082">
        <ele>297.8</ele>
        <time>2025-09-11T08:39:27Z</time>
      </trkpt>
      <trkpt lat="45.916" lon="4.56085">
        <ele>297</ele>
        <time>2025-09-11T08:39:28Z</time>
      </trkpt>
      <trkpt lat="45.91605" lon="4.56089">
        <ele>296.2</ele>
        <time>2025-09-11T08:39:29Z</time>
      </trkpt>
      <trkpt lat="45.91609" lon="4.5609">
        <ele>295.8</ele>
        <time>2025-09-11T08:39:30Z</time>
      </trkpt>
      <trkpt lat="45.91613" lon="4.56092">
        <ele>295.2</ele>
        <time>2025-09-11T08:39:31Z</time>
      </trkpt>
      <trkpt lat="45.91617" lon="4.56092">
        <ele>294.6</ele>
        <time>2025-09-11T08:39:32Z</time>
      </trkpt>
      <trkpt lat="45.91622" lon="4.56096">
        <ele>293.8</ele>
        <time>2025-09-11T08:39:33Z</time>
      </trkpt>
      <trkpt lat="45.91628" lon="4.56098">
        <ele>293</ele>
        <time>2025-09-11T08:39:34Z</time>
      </trkpt>
      <trkpt lat="45.91633" lon="4.56102">
        <ele>292.4</ele>
        <time>2025-09-11T08:39:35Z</time>
      </trkpt>
      <trkpt lat="45.91638" lon="4.56105">
        <ele>291.8</ele>
        <time>2025-09-11T08:39:36Z</time>
      </trkpt>
      <trkpt lat="45.91641" lon="4.56108">
        <ele>291</ele>
        <time>2025-09-11T08:39:37Z</time>
      </trkpt>
      <trkpt lat="45.91649" lon="4.56111">
        <ele>290.6</ele>
        <time>2025-09-11T08:39:38Z</time>
      </trkpt>
      <trkpt lat="45.91656" lon="4.56115">
        <ele>290.2</ele>
        <time>2025-09-11T08:39:39Z</time>
      </trkpt>
      <trkpt lat="45.91663" lon="4.56118">
        <ele>289.6</ele>
        <time>2025-09-11T08:39:40Z</time>
      </trkpt>
      <trkpt lat="45.91668" lon="4.56117">
        <ele>288.8</ele>
        <time>2025-09-11T08:39:41Z</time>
      </trkpt>
      <trkpt lat="45.91674" lon="4.56119">
        <ele>288</ele>
        <time>2025-09-11T08:39:42Z</time>
      </trkpt>
      <trkpt lat="45.9168" lon="4.5612">
        <ele>287.2</ele>
        <time>2025-09-11T08:39:43Z</time>
      </trkpt>
      <trkpt lat="45.91687" lon="4.5612">
        <ele>285.8</ele>
        <time>2025-09-11T08:39:44Z</time>
      </trkpt>
      <trkpt lat="45.91692" lon="4.56122">
        <ele>285.2</ele>
        <time>2025-09-11T08:39:45Z</time>
      </trkpt>
      <trkpt lat="45.91698" lon="4.56123">
        <ele>284.4</ele>
        <time>2025-09-11T08:39:46Z</time>
      </trkpt>
      <trkpt lat="45.91704" lon="4.56124">
        <ele>283.8</ele>
        <time>2025-09-11T08:39:47Z</time>
      </trkpt>
      <trkpt lat="45.9171" lon="4.56125">
        <ele>283.2</ele>
        <time>2025-09-11T08:39:48Z</time>
      </trkpt>
      <trkpt lat="45.91715" lon="4.56127">
        <ele>283</ele>
        <time>2025-09-11T08:39:49Z</time>
      </trkpt>
      <trkpt lat="45.91719" lon="4.56126">
        <ele>282.6</ele>
        <time>2025-09-11T08:39:50Z</time>
      </trkpt>
      <trkpt lat="45.91724" lon="4.56126">
        <ele>282.2</ele>
        <time>2025-09-11T08:39:51Z</time>
      </trkpt>
      <trkpt lat="45.91727" lon="4.56128">
        <ele>281.8</ele>
        <time>2025-09-11T08:39:52Z</time>
      </trkpt>
      <trkpt lat="45.91731" lon="4.56126">
        <ele>281.8</ele>
        <time>2025-09-11T08:39:53Z</time>
      </trkpt>
      <trkpt lat="45.91734" lon="4.56124">
        <ele>281.4</ele>
        <time>2025-09-11T08:39:54Z</time>
      </trkpt>
      <trkpt lat="45.91737" lon="4.56123">
        <ele>281.2</ele>
        <time>2025-09-11T08:39:55Z</time>
      </trkpt>
      <trkpt lat="45.9174" lon="4.56122">
        <ele>281.2</ele>
        <time>2025-09-11T08:39:56Z</time>
      </trkpt>
      <trkpt lat="45.91743" lon="4.56124">
        <ele>280.8</ele>
        <time>2025-09-11T08:39:57Z</time>
      </trkpt>
      <trkpt lat="45.91747" lon="4.56127">
        <ele>280.4</ele>
        <time>2025-09-11T08:39:58Z</time>
      </trkpt>
      <trkpt lat="45.91752" lon="4.56129">
        <ele>280.4</ele>
        <time>2025-09-11T08:39:59Z</time>
      </trkpt>
      <trkpt lat="45.91757" lon="4.56132">
        <ele>280</ele>
        <time>2025-09-11T08:40:00Z</time>
      </trkpt>
      <trkpt lat="45.91762" lon="4.56133">
        <ele>279.6</ele>
        <time>2025-09-11T08:40:01Z</time>
      </trkpt>
      <trkpt lat="45.91768" lon="4.56135">
        <ele>279.4</ele>
        <time>2025-09-11T08:40:02Z</time>
      </trkpt>
      <trkpt lat="45.91774" lon="4.56137">
        <ele>279</ele>
        <time>2025-09-11T08:40:03Z</time>
      </trkpt>
      <trkpt lat="45.91781" lon="4.56138">
        <ele>278.8</ele>
        <time>2025-09-11T08:40:04Z</time>
      </trkpt>
      <trkpt lat="45.91788" lon="4.56139">
        <ele>278.4</ele>
        <time>2025-09-11T08:40:05Z</time>
      </trkpt>
      <trkpt lat="45.91795" lon="4.56139">
        <ele>277.8</ele>
        <time>2025-09-11T08:40:06Z</time>
      </trkpt>
      <trkpt lat="45.91801" lon="4.5614">
        <ele>277.4</ele>
        <time>2025-09-11T08:40:07Z</time>
      </trkpt>
      <trkpt lat="45.91807" lon="4.56139">
        <ele>277</ele>
        <time>2025-09-11T08:40:08Z</time>
      </trkpt>
      <trkpt lat="45.91814" lon="4.56138">
        <ele>276.4</ele>
        <time>2025-09-11T08:40:09Z</time>
      </trkpt>
      <trkpt lat="45.9182" lon="4.56137">
        <ele>275.8</ele>
        <time>2025-09-11T08:40:10Z</time>
      </trkpt>
      <trkpt lat="45.91825" lon="4.56137">
        <ele>275.6</ele>
        <time>2025-09-11T08:40:11Z</time>
      </trkpt>
      <trkpt lat="45.91831" lon="4.56139">
        <ele>275.2</ele>
        <time>2025-09-11T08:40:12Z</time>
      </trkpt>
      <trkpt lat="45.91836" lon="4.56142">
        <ele>274.6</ele>
        <time>2025-09-11T08:40:13Z</time>
      </trkpt>
      <trkpt lat="45.91842" lon="4.56145">
        <ele>274.2</ele>
        <time>2025-09-11T08:40:14Z</time>
      </trkpt>
      <trkpt lat="45.91846" lon="4.56149">
        <ele>273.8</ele>
        <time>2025-09-11T08:40:15Z</time>
      </trkpt>
      <trkpt lat="45.91851" lon="4.56152">
        <ele>273.2</ele>
        <time>2025-09-11T08:40:16Z</time>
      </trkpt>
      <trkpt lat="45.91856" lon="4.56154">
        <ele>272.8</ele>
        <time>2025-09-11T08:40:17Z</time>
      </trkpt>
      <trkpt lat="45.91861" lon="4.56156">
        <ele>272.4</ele>
        <time>2025-09-11T08:40:18Z</time>
      </trkpt>
      <trkpt lat="45.91864" lon="4.56162">
        <ele>271.6</ele>
        <time>2025-09-11T08:40:19Z</time>
      </trkpt>
      <trkpt lat="45.91868" lon="4.56167">
        <ele>271.2</ele>
        <time>2025-09-11T08:40:20Z</time>
      </trkpt>
      <trkpt lat="45.91872" lon="4.56171">
        <ele>270.6</ele>
        <time>2025-09-11T08:40:21Z</time>
      </trkpt>
      <trkpt lat="45.91876" lon="4.56176">
        <ele>269.8</ele>
        <time>2025-09-11T08:40:22Z</time>
      </trkpt>
      <trkpt lat="45.91881" lon="4.56181">
        <ele>269.4</ele>
        <time>2025-09-11T08:40:23Z</time>
      </trkpt>
      <trkpt lat="45.91886" lon="4.56184">
        <ele>268.8</ele>
        <time>2025-09-11T08:40:24Z</time>
      </trkpt>
      <trkpt lat="45.91892" lon="4.56185">
        <ele>268.2</ele>
        <time>2025-09-11T08:40:25Z</time>
      </trkpt>
      <trkpt lat="45.91899" lon="4.56185">
        <ele>267.6</ele>
        <time>2025-09-11T08:40:26Z</time>
      </trkpt>
      <trkpt lat="45.91906" lon="4.56183">
        <ele>267</ele>
        <time>2025-09-11T08:40:27Z</time>
      </trkpt>
      <trkpt lat="45.91915" lon="4.5618">
        <ele>266.2</ele>
        <time>2025-09-11T08:40:28Z</time>
      </trkpt>
      <trkpt lat="45.91923" lon="4.56177">
        <ele>265.6</ele>
        <time>2025-09-11T08:40:29Z</time>
      </trkpt>
      <trkpt lat="45.91932" lon="4.56176">
        <ele>264.4</ele>
        <time>2025-09-11T08:40:30Z</time>
      </trkpt>
      <trkpt lat="45.91941" lon="4.56175">
        <ele>263.4</ele>
        <time>2025-09-11T08:40:31Z</time>
      </trkpt>
      <trkpt lat="45.9195" lon="4.56176">
        <ele>262.4</ele>
        <time>2025-09-11T08:40:32Z</time>
      </trkpt>
      <trkpt lat="45.91958" lon="4.56176">
        <ele>261.4</ele>
        <time>2025-09-11T08:40:33Z</time>
      </trkpt>
      <trkpt lat="45.91967" lon="4.56178">
        <ele>260.6</ele>
        <time>2025-09-11T08:40:34Z</time>
      </trkpt>
      <trkpt lat="45.91976" lon="4.5618">
        <ele>259.6</ele>
        <time>2025-09-11T08:40:35Z</time>
      </trkpt>
      <trkpt lat="45.91982" lon="4.56179">
        <ele>258.6</ele>
        <time>2025-09-11T08:40:36Z</time>
      </trkpt>
      <trkpt lat="45.91989" lon="4.5618">
        <ele>257.8</ele>
        <time>2025-09-11T08:40:37Z</time>
      </trkpt>
      <trkpt lat="45.91996" lon="4.56181">
        <ele>257.2</ele>
        <time>2025-09-11T08:40:38Z</time>
      </trkpt>
      <trkpt lat="45.92002" lon="4.56181">
        <ele>256.2</ele>
        <time>2025-09-11T08:40:39Z</time>
      </trkpt>
      <trkpt lat="45.92007" lon="4.56183">
        <ele>255.4</ele>
        <time>2025-09-11T08:40:40Z</time>
      </trkpt>
      <trkpt lat="45.92012" lon="4.56184">
        <ele>254.6</ele>
        <time>2025-09-11T08:40:41Z</time>
      </trkpt>
      <trkpt lat="45.92015" lon="4.56184">
        <ele>254</ele>
        <time>2025-09-11T08:40:42Z</time>
      </trkpt>
      <trkpt lat="45.9202" lon="4.56184">
        <ele>253.6</ele>
        <time>2025-09-11T08:40:43Z</time>
      </trkpt>
      <trkpt lat="45.92019" lon="4.56184">
        <ele>253.2</ele>
        <time>2025-09-11T08:40:44Z</time>
      </trkpt>
      <trkpt lat="45.9202" lon="4.56185">
        <ele>252.8</ele>
        <time>2025-09-11T08:40:45Z</time>
      </trkpt>
      <trkpt lat="45.92022" lon="4.56185">
        <ele>252.6</ele>
        <time>2025-09-11T08:40:46Z</time>
      </trkpt>
      <trkpt lat="45.92022" lon="4.56185">
        <ele>252.4</ele>
        <time>2025-09-11T08:40:47Z</time>
      </trkpt>
      <trkpt lat="45.92022" lon="4.56185">
        <ele>252</ele>
        <time>2025-09-11T08:40:48Z</time>
      </trkpt>
      <trkpt lat="45.92026" lon="4.56185">
        <ele>251.4</ele>
        <time>2025-09-11T08:40:54Z</time>
      </trkpt>
      <trkpt lat="45.92028" lon="4.56186">
        <ele>251.4</ele>
        <time>2025-09-11T08:40:55Z</time>
      </trkpt>
      <trkpt lat="45.92029" lon="4.56186">
        <ele>251.2</ele>
        <time>2025-09-11T08:40:56Z</time>
      </trkpt>
      <trkpt lat="45.9203" lon="4.56186">
        <ele>251</ele>
        <time>2025-09-11T08:40:57Z</time>
      </trkpt>
      <trkpt lat="45.92032" lon="4.56186">
        <ele>250.8</ele>
        <time>2025-09-11T08:40:58Z</time>
      </trkpt>
      <trkpt lat="45.92035" lon="4.56186">
        <ele>250.8</ele>
        <time>2025-09-11T08:40:59Z</time>
      </trkpt>
      <trkpt lat="45.92038" lon="4.56185">
        <ele>250.4</ele>
        <time>2025-09-11T08:41:00Z</time>
      </trkpt>
      <trkpt lat="45.9204" lon="4.56185">
        <ele>250.2</ele>
        <time>2025-09-11T08:41:01Z</time>
      </trkpt>
      <trkpt lat="45.92043" lon="4.56184">
        <ele>250.2</ele>
        <time>2025-09-11T08:41:02Z</time>
      </trkpt>
      <trkpt lat="45.92045" lon="4.56183">
        <ele>249.8</ele>
        <time>2025-09-11T08:41:03Z</time>
      </trkpt>
      <trkpt lat="45.92046" lon="4.56183">
        <ele>249.8</ele>
        <time>2025-09-11T08:41:04Z</time>
      </trkpt>
      <trkpt lat="45.92047" lon="4.56183">
        <ele>249.8</ele>
        <time>2025-09-11T08:41:05Z</time>
      </trkpt>
      <trkpt lat="45.92048" lon="4.56183">
        <ele>249.8</ele>
        <time>2025-09-11T08:41:06Z</time>
      </trkpt>
      <trkpt lat="45.92054" lon="4.56177">
        <ele>249.4</ele>
        <time>2025-09-11T08:43:37Z</time>
      </trkpt>
      <trkpt lat="45.92055" lon="4.56178">
        <ele>249.4</ele>
        <time>2025-09-11T08:43:38Z</time>
      </trkpt>
      <trkpt lat="45.92057" lon="4.56178">
        <ele>249.4</ele>
        <time>2025-09-11T08:43:39Z</time>
      </trkpt>
      <trkpt lat="45.92058" lon="4.56177">
        <ele>249.4</ele>
        <time>2025-09-11T08:43:40Z</time>
      </trkpt>
      <trkpt lat="45.9206" lon="4.56175">
        <ele>249.4</ele>
        <time>2025-09-11T08:43:41Z</time>
      </trkpt>
      <trkpt lat="45.92062" lon="4.56174">
        <ele>249.4</ele>
        <time>2025-09-11T08:43:42Z</time>
      </trkpt>
      <trkpt lat="45.92064" lon="4.56171">
        <ele>249.4</ele>
        <time>2025-09-11T08:43:43Z</time>
      </trkpt>
      <trkpt lat="45.92065" lon="4.56169">
        <ele>249.4</ele>
        <time>2025-09-11T08:43:44Z</time>
      </trkpt>
      <trkpt lat="45.92066" lon="4.56166">
        <ele>249.4</ele>
        <time>2025-09-11T08:43:45Z</time>
      </trkpt>
      <trkpt lat="45.92067" lon="4.56163">
        <ele>249.4</ele>
        <time>2025-09-11T08:43:46Z</time>
      </trkpt>
      <trkpt lat="45.92067" lon="4.5616">
        <ele>249.4</ele>
        <time>2025-09-11T08:43:47Z</time>
      </trkpt>
      <trkpt lat="45.92068" lon="4.56158">
        <ele>250</ele>
        <time>2025-09-11T08:43:48Z</time>
      </trkpt>
      <trkpt lat="45.92068" lon="4.56156">
        <ele>250</ele>
        <time>2025-09-11T08:43:49Z</time>
      </trkpt>
      <trkpt lat="45.92069" lon="4.56152">
        <ele>250.4</ele>
        <time>2025-09-11T08:43:50Z</time>
      </trkpt>
      <trkpt lat="45.9207" lon="4.56149">
        <ele>250.4</ele>
        <time>2025-09-11T08:43:51Z</time>
      </trkpt>
      <trkpt lat="45.9207" lon="4.56146">
        <ele>250.4</ele>
        <time>2025-09-11T08:43:52Z</time>
      </trkpt>
      <trkpt lat="45.92071" lon="4.56143">
        <ele>250.4</ele>
        <time>2025-09-11T08:43:53Z</time>
      </trkpt>
      <trkpt lat="45.92073" lon="4.56141">
        <ele>250.4</ele>
        <time>2025-09-11T08:43:54Z</time>
      </trkpt>
      <trkpt lat="45.92074" lon="4.56139">
        <ele>250.8</ele>
        <time>2025-09-11T08:43:55Z</time>
      </trkpt>
      <trkpt lat="45.92076" lon="4.56137">
        <ele>250.8</ele>
        <time>2025-09-11T08:43:56Z</time>
      </trkpt>
      <trkpt lat="45.92077" lon="4.56135">
        <ele>251</ele>
        <time>2025-09-11T08:43:57Z</time>
      </trkpt>
      <trkpt lat="45.92078" lon="4.56133">
        <ele>251</ele>
        <time>2025-09-11T08:43:58Z</time>
      </trkpt>
      <trkpt lat="45.9208" lon="4.56131">
        <ele>251.2</ele>
        <time>2025-09-11T08:43:59Z</time>
      </trkpt>
      <trkpt lat="45.92081" lon="4.56128">
        <ele>251.2</ele>
        <time>2025-09-11T08:44:00Z</time>
      </trkpt>
      <trkpt lat="45.92083" lon="4.56126">
        <ele>251.6</ele>
        <time>2025-09-11T08:44:01Z</time>
      </trkpt>
      <trkpt lat="45.92084" lon="4.56124">
        <ele>251.8</ele>
        <time>2025-09-11T08:44:02Z</time>
      </trkpt>
      <trkpt lat="45.92086" lon="4.56123">
        <ele>251.8</ele>
        <time>2025-09-11T08:44:03Z</time>
      </trkpt>
      <trkpt lat="45.92087" lon="4.56122">
        <ele>252.2</ele>
        <time>2025-09-11T08:44:04Z</time>
      </trkpt>
      <trkpt lat="45.92089" lon="4.5612">
        <ele>252.6</ele>
        <time>2025-09-11T08:44:05Z</time>
      </trkpt>
      <trkpt lat="45.9209" lon="4.56119">
        <ele>252.6</ele>
        <time>2025-09-11T08:44:06Z</time>
      </trkpt>
      <trkpt lat="45.92091" lon="4.56117">
        <ele>252.6</ele>
        <time>2025-09-11T08:44:07Z</time>
      </trkpt>
      <trkpt lat="45.92092" lon="4.56116">
        <ele>253</ele>
        <time>2025-09-11T08:44:08Z</time>
      </trkpt>
      <trkpt lat="45.92093" lon="4.56115">
        <ele>253.2</ele>
        <time>2025-09-11T08:44:09Z</time>
      </trkpt>
      <trkpt lat="45.92094" lon="4.56115">
        <ele>253.2</ele>
        <time>2025-09-11T08:44:10Z</time>
      </trkpt>
      <trkpt lat="45.92096" lon="4.56114">
        <ele>253.6</ele>
        <time>2025-09-11T08:44:11Z</time>
      </trkpt>
      <trkpt lat="45.92097" lon="4.56113">
        <ele>254</ele>
        <time>2025-09-11T08:44:12Z</time>
      </trkpt>
      <trkpt lat="45.92098" lon="4.56113">
        <ele>254</ele>
        <time>2025-09-11T08:44:13Z</time>
      </trkpt>
      <trkpt lat="45.92099" lon="4.56112">
        <ele>254.2</ele>
        <time>2025-09-11T08:44:14Z</time>
      </trkpt>
      <trkpt lat="45.92101" lon="4.56112">
        <ele>254.6</ele>
        <time>2025-09-11T08:44:15Z</time>
      </trkpt>
      <trkpt lat="45.92102" lon="4.56111">
        <ele>254.6</ele>
        <time>2025-09-11T08:44:16Z</time>
      </trkpt>
      <trkpt lat="45.92103" lon="4.56109">
        <ele>255</ele>
        <time>2025-09-11T08:44:17Z</time>
      </trkpt>
      <trkpt lat="45.92103" lon="4.56108">
        <ele>255</ele>
        <time>2025-09-11T08:44:18Z</time>
      </trkpt>
      <trkpt lat="45.92104" lon="4.56108">
        <ele>255.2</ele>
        <time>2025-09-11T08:44:19Z</time>
      </trkpt>
      <trkpt lat="45.92106" lon="4.56107">
        <ele>255.6</ele>
        <time>2025-09-11T08:44:20Z</time>
      </trkpt>
      <trkpt lat="45.92107" lon="4.56106">
        <ele>255.6</ele>
        <time>2025-09-11T08:44:21Z</time>
      </trkpt>
      <trkpt lat="45.92108" lon="4.56105">
        <ele>255.6</ele>
        <time>2025-09-11T08:44:22Z</time>
      </trkpt>
      <trkpt lat="45.92109" lon="4.56104">
        <ele>255.6</ele>
        <time>2025-09-11T08:44:23Z</time>
      </trkpt>
      <trkpt lat="45.9211" lon="4.56104">
        <ele>255.6</ele>
        <time>2025-09-11T08:44:24Z</time>
      </trkpt>
      <trkpt lat="45.92111" lon="4.56103">
        <ele>256</ele>
        <time>2025-09-11T08:44:25Z</time>
      </trkpt>
      <trkpt lat="45.92112" lon="4.56103">
        <ele>256.6</ele>
        <time>2025-09-11T08:44:26Z</time>
      </trkpt>
      <trkpt lat="45.92114" lon="4.56102">
        <ele>256.8</ele>
        <time>2025-09-11T08:44:27Z</time>
      </trkpt>
      <trkpt lat="45.92115" lon="4.56102">
        <ele>257</ele>
        <time>2025-09-11T08:44:28Z</time>
      </trkpt>
      <trkpt lat="45.92116" lon="4.56102">
        <ele>257</ele>
        <time>2025-09-11T08:44:29Z</time>
      </trkpt>
      <trkpt lat="45.92117" lon="4.56102">
        <ele>257.4</ele>
        <time>2025-09-11T08:44:30Z</time>
      </trkpt>
      <trkpt lat="45.92119" lon="4.56101">
        <ele>257.4</ele>
        <time>2025-09-11T08:44:31Z</time>
      </trkpt>
      <trkpt lat="45.9212" lon="4.56101">
        <ele>257.6</ele>
        <time>2025-09-11T08:44:32Z</time>
      </trkpt>
      <trkpt lat="45.92121" lon="4.561">
        <ele>257.8</ele>
        <time>2025-09-11T08:44:33Z</time>
      </trkpt>
      <trkpt lat="45.92122" lon="4.56101">
        <ele>257.8</ele>
        <time>2025-09-11T08:44:34Z</time>
      </trkpt>
      <trkpt lat="45.92124" lon="4.561">
        <ele>257.8</ele>
        <time>2025-09-11T08:44:35Z</time>
      </trkpt>
      <trkpt lat="45.92125" lon="4.56099">
        <ele>258</ele>
        <time>2025-09-11T08:44:36Z</time>
      </trkpt>
      <trkpt lat="45.92125" lon="4.56099">
        <ele>258</ele>
        <time>2025-09-11T08:44:37Z</time>
      </trkpt>
      <trkpt lat="45.92126" lon="4.56098">
        <ele>258.4</ele>
        <time>2025-09-11T08:44:38Z</time>
      </trkpt>
      <trkpt lat="45.92127" lon="4.56098">
        <ele>258.4</ele>
        <time>2025-09-11T08:44:39Z</time>
      </trkpt>
      <trkpt lat="45.92129" lon="4.56097">
        <ele>258.8</ele>
        <time>2025-09-11T08:44:40Z</time>
      </trkpt>
      <trkpt lat="45.9213" lon="4.56096">
        <ele>259</ele>
        <time>2025-09-11T08:44:41Z</time>
      </trkpt>
      <trkpt lat="45.92131" lon="4.56095">
        <ele>259.4</ele>
        <time>2025-09-11T08:44:42Z</time>
      </trkpt>
      <trkpt lat="45.92132" lon="4.56095">
        <ele>259.4</ele>
        <time>2025-09-11T08:44:43Z</time>
      </trkpt>
      <trkpt lat="45.92133" lon="4.56094">
        <ele>259.6</ele>
        <time>2025-09-11T08:44:44Z</time>
      </trkpt>
      <trkpt lat="45.92134" lon="4.56093">
        <ele>259.8</ele>
        <time>2025-09-11T08:44:45Z</time>
      </trkpt>
      <trkpt lat="45.92135" lon="4.56092">
        <ele>259.8</ele>
        <time>2025-09-11T08:44:46Z</time>
      </trkpt>
      <trkpt lat="45.92136" lon="4.5609">
        <ele>260.2</ele>
        <time>2025-09-11T08:44:47Z</time>
      </trkpt>
      <trkpt lat="45.92136" lon="4.56088">
        <ele>260.4</ele>
        <time>2025-09-11T08:44:48Z</time>
      </trkpt>
      <trkpt lat="45.92137" lon="4.56087">
        <ele>260.4</ele>
        <time>2025-09-11T08:44:49Z</time>
      </trkpt>
      <trkpt lat="45.92138" lon="4.56086">
        <ele>260.8</ele>
        <time>2025-09-11T08:44:50Z</time>
      </trkpt>
      <trkpt lat="45.92139" lon="4.56086">
        <ele>260.8</ele>
        <time>2025-09-11T08:44:51Z</time>
      </trkpt>
      <trkpt lat="45.9214" lon="4.56085">
        <ele>260.8</ele>
        <time>2025-09-11T08:44:52Z</time>
      </trkpt>
      <trkpt lat="45.9214" lon="4.56084">
        <ele>261</ele>
        <time>2025-09-11T08:44:53Z</time>
      </trkpt>
      <trkpt lat="45.92141" lon="4.56083">
        <ele>261</ele>
        <time>2025-09-11T08:44:54Z</time>
      </trkpt>
      <trkpt lat="45.92142" lon="4.56082">
        <ele>261</ele>
        <time>2025-09-11T08:44:55Z</time>
      </trkpt>
      <trkpt lat="45.92143" lon="4.56081">
        <ele>260.8</ele>
        <time>2025-09-11T08:44:56Z</time>
      </trkpt>
      <trkpt lat="45.92145" lon="4.5608">
        <ele>260.8</ele>
        <time>2025-09-11T08:44:57Z</time>
      </trkpt>
      <trkpt lat="45.92146" lon="4.56079">
        <ele>261.8</ele>
        <time>2025-09-11T08:44:58Z</time>
      </trkpt>
      <trkpt lat="45.92147" lon="4.56077">
        <ele>261.8</ele>
        <time>2025-09-11T08:44:59Z</time>
      </trkpt>
      <trkpt lat="45.92147" lon="4.56075">
        <ele>262</ele>
        <time>2025-09-11T08:45:00Z</time>
      </trkpt>
      <trkpt lat="45.92148" lon="4.56074">
        <ele>262</ele>
        <time>2025-09-11T08:45:01Z</time>
      </trkpt>
      <trkpt lat="45.92148" lon="4.56072">
        <ele>262</ele>
        <time>2025-09-11T08:45:02Z</time>
      </trkpt>
      <trkpt lat="45.92149" lon="4.5607">
        <ele>262</ele>
        <time>2025-09-11T08:45:03Z</time>
      </trkpt>
      <trkpt lat="45.92151" lon="4.56069">
        <ele>262.4</ele>
        <time>2025-09-11T08:45:04Z</time>
      </trkpt>
      <trkpt lat="45.92152" lon="4.56068">
        <ele>262.4</ele>
        <time>2025-09-11T08:45:05Z</time>
      </trkpt>
      <trkpt lat="45.92153" lon="4.56067">
        <ele>262.6</ele>
        <time>2025-09-11T08:45:06Z</time>
      </trkpt>
      <trkpt lat="45.92154" lon="4.56066">
        <ele>262.6</ele>
        <time>2025-09-11T08:45:07Z</time>
      </trkpt>
      <trkpt lat="45.92155" lon="4.56065">
        <ele>262.8</ele>
        <time>2025-09-11T08:45:08Z</time>
      </trkpt>
      <trkpt lat="45.92157" lon="4.56064">
        <ele>262.8</ele>
        <time>2025-09-11T08:45:09Z</time>
      </trkpt>
      <trkpt lat="45.92158" lon="4.56063">
        <ele>263.2</ele>
        <time>2025-09-11T08:45:10Z</time>
      </trkpt>
      <trkpt lat="45.92159" lon="4.56062">
        <ele>263.2</ele>
        <time>2025-09-11T08:45:11Z</time>
      </trkpt>
      <trkpt lat="45.9216" lon="4.5606">
        <ele>263.4</ele>
        <time>2025-09-11T08:45:12Z</time>
      </trkpt>
      <trkpt lat="45.92161" lon="4.56058">
        <ele>263.4</ele>
        <time>2025-09-11T08:45:13Z</time>
      </trkpt>
      <trkpt lat="45.92162" lon="4.56056">
        <ele>263.6</ele>
        <time>2025-09-11T08:45:14Z</time>
      </trkpt>
      <trkpt lat="45.92162" lon="4.56054">
        <ele>263.6</ele>
        <time>2025-09-11T08:45:15Z</time>
      </trkpt>
      <trkpt lat="45.92163" lon="4.56053">
        <ele>263.6</ele>
        <time>2025-09-11T08:45:16Z</time>
      </trkpt>
      <trkpt lat="45.92164" lon="4.56051">
        <ele>264.2</ele>
        <time>2025-09-11T08:45:17Z</time>
      </trkpt>
      <trkpt lat="45.92165" lon="4.5605">
        <ele>264.2</ele>
        <time>2025-09-11T08:45:18Z</time>
      </trkpt>
      <trkpt lat="45.92166" lon="4.56049">
        <ele>264.2</ele>
        <time>2025-09-11T08:45:19Z</time>
      </trkpt>
      <trkpt lat="45.92167" lon="4.56048">
        <ele>264.6</ele>
        <time>2025-09-11T08:45:20Z</time>
      </trkpt>
      <trkpt lat="45.92168" lon="4.56046">
        <ele>264.6</ele>
        <time>2025-09-11T08:45:21Z</time>
      </trkpt>
      <trkpt lat="45.92169" lon="4.56044">
        <ele>264.6</ele>
        <time>2025-09-11T08:45:22Z</time>
      </trkpt>
      <trkpt lat="45.9217" lon="4.56043">
        <ele>264.6</ele>
        <time>2025-09-11T08:45:23Z</time>
      </trkpt>
      <trkpt lat="45.92171" lon="4.56041">
        <ele>263.8</ele>
        <time>2025-09-11T08:45:24Z</time>
      </trkpt>
      <trkpt lat="45.92172" lon="4.56039">
        <ele>263.8</ele>
        <time>2025-09-11T08:45:25Z</time>
      </trkpt>
      <trkpt lat="45.92173" lon="4.56038">
        <ele>265.4</ele>
        <time>2025-09-11T08:45:26Z</time>
      </trkpt>
      <trkpt lat="45.92174" lon="4.56036">
        <ele>265.4</ele>
        <time>2025-09-11T08:45:27Z</time>
      </trkpt>
      <trkpt lat="45.92175" lon="4.56034">
        <ele>265.4</ele>
        <time>2025-09-11T08:45:28Z</time>
      </trkpt>
      <trkpt lat="45.92175" lon="4.56032">
        <ele>265.4</ele>
        <time>2025-09-11T08:45:29Z</time>
      </trkpt>
      <trkpt lat="45.92176" lon="4.5603">
        <ele>265.4</ele>
        <time>2025-09-11T08:45:30Z</time>
      </trkpt>
      <trkpt lat="45.92177" lon="4.56028">
        <ele>265.4</ele>
        <time>2025-09-11T08:45:31Z</time>
      </trkpt>
      <trkpt lat="45.92179" lon="4.56026">
        <ele>265.4</ele>
        <time>2025-09-11T08:45:32Z</time>
      </trkpt>
      <trkpt lat="45.9218" lon="4.56024">
        <ele>265.6</ele>
        <time>2025-09-11T08:45:33Z</time>
      </trkpt>
      <trkpt lat="45.92181" lon="4.56023">
        <ele>265.6</ele>
        <time>2025-09-11T08:45:34Z</time>
      </trkpt>
      <trkpt lat="45.92183" lon="4.5602">
        <ele>265.6</ele>
        <time>2025-09-11T08:45:35Z</time>
      </trkpt>
      <trkpt lat="45.92184" lon="4.56017">
        <ele>265.6</ele>
        <time>2025-09-11T08:45:36Z</time>
      </trkpt>
      <trkpt lat="45.92185" lon="4.56014">
        <ele>266</ele>
        <time>2025-09-11T08:45:37Z</time>
      </trkpt>
      <trkpt lat="45.92186" lon="4.56011">
        <ele>266</ele>
        <time>2025-09-11T08:45:38Z</time>
      </trkpt>
      <trkpt lat="45.92188" lon="4.56009">
        <ele>266</ele>
        <time>2025-09-11T08:45:39Z</time>
      </trkpt>
      <trkpt lat="45.92189" lon="4.56006">
        <ele>266.2</ele>
        <time>2025-09-11T08:45:40Z</time>
      </trkpt>
      <trkpt lat="45.92191" lon="4.56004">
        <ele>266.2</ele>
        <time>2025-09-11T08:45:41Z</time>
      </trkpt>
      <trkpt lat="45.92193" lon="4.56001">
        <ele>266.2</ele>
        <time>2025-09-11T08:45:42Z</time>
      </trkpt>
      <trkpt lat="45.92195" lon="4.55999">
        <ele>266.2</ele>
        <time>2025-09-11T08:45:43Z</time>
      </trkpt>
      <trkpt lat="45.92196" lon="4.55996">
        <ele>266.2</ele>
        <time>2025-09-11T08:45:44Z</time>
      </trkpt>
      <trkpt lat="45.92197" lon="4.55994">
        <ele>266.4</ele>
        <time>2025-09-11T08:45:45Z</time>
      </trkpt>
      <trkpt lat="45.92198" lon="4.55992">
        <ele>266.4</ele>
        <time>2025-09-11T08:45:46Z</time>
      </trkpt>
      <trkpt lat="45.92199" lon="4.5599">
        <ele>266.4</ele>
        <time>2025-09-11T08:45:47Z</time>
      </trkpt>
      <trkpt lat="45.92199" lon="4.55989">
        <ele>266.4</ele>
        <time>2025-09-11T08:45:48Z</time>
      </trkpt>
      <trkpt lat="45.922" lon="4.55989">
        <ele>266.4</ele>
        <time>2025-09-11T08:45:49Z</time>
      </trkpt>
      <trkpt lat="45.922" lon="4.55989">
        <ele>266.4</ele>
        <time>2025-09-11T08:45:50Z</time>
      </trkpt>
      <trkpt lat="45.92203" lon="4.55987">
        <ele>266.8</ele>
        <time>2025-09-11T08:46:31Z</time>
      </trkpt>
      <trkpt lat="45.92205" lon="4.55985">
        <ele>266.8</ele>
        <time>2025-09-11T08:46:32Z</time>
      </trkpt>
      <trkpt lat="45.92207" lon="4.55983">
        <ele>266.8</ele>
        <time>2025-09-11T08:46:33Z</time>
      </trkpt>
      <trkpt lat="45.92209" lon="4.55981">
        <ele>266.8</ele>
        <time>2025-09-11T08:46:34Z</time>
      </trkpt>
      <trkpt lat="45.92212" lon="4.55979">
        <ele>266.8</ele>
        <time>2025-09-11T08:46:35Z</time>
      </trkpt>
      <trkpt lat="45.92214" lon="4.55977">
        <ele>267.2</ele>
        <time>2025-09-11T08:46:36Z</time>
      </trkpt>
      <trkpt lat="45.92216" lon="4.55974">
        <ele>267.4</ele>
        <time>2025-09-11T08:46:37Z</time>
      </trkpt>
      <trkpt lat="45.92218" lon="4.55972">
        <ele>267.6</ele>
        <time>2025-09-11T08:46:38Z</time>
      </trkpt>
      <trkpt lat="45.92219" lon="4.55969">
        <ele>267.6</ele>
        <time>2025-09-11T08:46:39Z</time>
      </trkpt>
      <trkpt lat="45.92221" lon="4.55966">
        <ele>268</ele>
        <time>2025-09-11T08:46:40Z</time>
      </trkpt>
      <trkpt lat="45.92222" lon="4.55963">
        <ele>268.2</ele>
        <time>2025-09-11T08:46:41Z</time>
      </trkpt>
      <trkpt lat="45.92224" lon="4.55961">
        <ele>268.2</ele>
        <time>2025-09-11T08:46:42Z</time>
      </trkpt>
      <trkpt lat="45.92225" lon="4.55958">
        <ele>268.2</ele>
        <time>2025-09-11T08:46:43Z</time>
      </trkpt>
      <trkpt lat="45.92226" lon="4.55955">
        <ele>268.2</ele>
        <time>2025-09-11T08:46:44Z</time>
      </trkpt>
      <trkpt lat="45.92227" lon="4.55952">
        <ele>268.2</ele>
        <time>2025-09-11T08:46:45Z</time>
      </trkpt>
      <trkpt lat="45.92228" lon="4.5595">
        <ele>268.6</ele>
        <time>2025-09-11T08:46:46Z</time>
      </trkpt>
      <trkpt lat="45.92229" lon="4.55947">
        <ele>268.6</ele>
        <time>2025-09-11T08:46:47Z</time>
      </trkpt>
      <trkpt lat="45.9223" lon="4.55944">
        <ele>268.8</ele>
        <time>2025-09-11T08:46:48Z</time>
      </trkpt>
      <trkpt lat="45.92231" lon="4.55942">
        <ele>269</ele>
        <time>2025-09-11T08:46:49Z</time>
      </trkpt>
      <trkpt lat="45.92232" lon="4.5594">
        <ele>268.8</ele>
        <time>2025-09-11T08:46:50Z</time>
      </trkpt>
      <trkpt lat="45.92234" lon="4.55937">
        <ele>269</ele>
        <time>2025-09-11T08:46:51Z</time>
      </trkpt>
      <trkpt lat="45.92235" lon="4.55935">
        <ele>269.4</ele>
        <time>2025-09-11T08:46:52Z</time>
      </trkpt>
      <trkpt lat="45.92236" lon="4.55933">
        <ele>269.6</ele>
        <time>2025-09-11T08:46:53Z</time>
      </trkpt>
      <trkpt lat="45.92236" lon="4.55931">
        <ele>270</ele>
        <time>2025-09-11T08:46:54Z</time>
      </trkpt>
      <trkpt lat="45.92237" lon="4.55929">
        <ele>270.2</ele>
        <time>2025-09-11T08:46:55Z</time>
      </trkpt>
      <trkpt lat="45.92238" lon="4.55927">
        <ele>270.4</ele>
        <time>2025-09-11T08:46:56Z</time>
      </trkpt>
      <trkpt lat="45.92239" lon="4.55925">
        <ele>270.6</ele>
        <time>2025-09-11T08:46:57Z</time>
      </trkpt>
      <trkpt lat="45.9224" lon="4.55923">
        <ele>270.6</ele>
        <time>2025-09-11T08:46:58Z</time>
      </trkpt>
      <trkpt lat="45.9224" lon="4.55923">
        <ele>271</ele>
        <time>2025-09-11T08:46:59Z</time>
      </trkpt>
      <trkpt lat="45.92241" lon="4.5592">
        <ele>271.2</ele>
        <time>2025-09-11T08:47:00Z</time>
      </trkpt>
      <trkpt lat="45.92242" lon="4.55917">
        <ele>271.2</ele>
        <time>2025-09-11T08:47:01Z</time>
      </trkpt>
      <trkpt lat="45.92243" lon="4.55915">
        <ele>271.6</ele>
        <time>2025-09-11T08:47:02Z</time>
      </trkpt>
      <trkpt lat="45.92244" lon="4.55913">
        <ele>271.6</ele>
        <time>2025-09-11T08:47:03Z</time>
      </trkpt>
      <trkpt lat="45.92245" lon="4.5591">
        <ele>272</ele>
        <time>2025-09-11T08:47:04Z</time>
      </trkpt>
      <trkpt lat="45.92246" lon="4.55908">
        <ele>272</ele>
        <time>2025-09-11T08:47:05Z</time>
      </trkpt>
      <trkpt lat="45.92246" lon="4.55907">
        <ele>272.2</ele>
        <time>2025-09-11T08:47:06Z</time>
      </trkpt>
      <trkpt lat="45.92247" lon="4.55905">
        <ele>272.2</ele>
        <time>2025-09-11T08:47:07Z</time>
      </trkpt>
      <trkpt lat="45.92248" lon="4.55903">
        <ele>272.6</ele>
        <time>2025-09-11T08:47:08Z</time>
      </trkpt>
      <trkpt lat="45.92248" lon="4.55901">
        <ele>272.6</ele>
        <time>2025-09-11T08:47:09Z</time>
      </trkpt>
      <trkpt lat="45.92249" lon="4.55898">
        <ele>272.8</ele>
        <time>2025-09-11T08:47:10Z</time>
      </trkpt>
      <trkpt lat="45.92249" lon="4.55896">
        <ele>273.2</ele>
        <time>2025-09-11T08:47:11Z</time>
      </trkpt>
      <trkpt lat="45.9225" lon="4.55894">
        <ele>273.2</ele>
        <time>2025-09-11T08:47:12Z</time>
      </trkpt>
      <trkpt lat="45.9225" lon="4.55891">
        <ele>273.2</ele>
        <time>2025-09-11T08:47:13Z</time>
      </trkpt>
      <trkpt lat="45.9225" lon="4.55888">
        <ele>273.4</ele>
        <time>2025-09-11T08:47:14Z</time>
      </trkpt>
      <trkpt lat="45.92251" lon="4.55886">
        <ele>273.4</ele>
        <time>2025-09-11T08:47:15Z</time>
      </trkpt>
      <trkpt lat="45.92251" lon="4.55883">
        <ele>273.8</ele>
        <time>2025-09-11T08:47:16Z</time>
      </trkpt>
      <trkpt lat="45.92252" lon="4.55881">
        <ele>273.8</ele>
        <time>2025-09-11T08:47:17Z</time>
      </trkpt>
      <trkpt lat="45.92253" lon="4.55879">
        <ele>274</ele>
        <time>2025-09-11T08:47:18Z</time>
      </trkpt>
      <trkpt lat="45.92254" lon="4.55877">
        <ele>274</ele>
        <time>2025-09-11T08:47:19Z</time>
      </trkpt>
      <trkpt lat="45.92255" lon="4.55875">
        <ele>274.2</ele>
        <time>2025-09-11T08:47:20Z</time>
      </trkpt>
      <trkpt lat="45.92256" lon="4.55873">
        <ele>274.2</ele>
        <time>2025-09-11T08:47:21Z</time>
      </trkpt>
      <trkpt lat="45.92257" lon="4.5587">
        <ele>274.6</ele>
        <time>2025-09-11T08:47:22Z</time>
      </trkpt>
      <trkpt lat="45.92257" lon="4.55868">
        <ele>274.6</ele>
        <time>2025-09-11T08:47:23Z</time>
      </trkpt>
      <trkpt lat="45.92258" lon="4.55865">
        <ele>274.6</ele>
        <time>2025-09-11T08:47:24Z</time>
      </trkpt>
      <trkpt lat="45.92259" lon="4.55862">
        <ele>274.6</ele>
        <time>2025-09-11T08:47:25Z</time>
      </trkpt>
      <trkpt lat="45.9226" lon="4.5586">
        <ele>275</ele>
        <time>2025-09-11T08:47:26Z</time>
      </trkpt>
      <trkpt lat="45.92261" lon="4.55858">
        <ele>275</ele>
        <time>2025-09-11T08:47:27Z</time>
      </trkpt>
      <trkpt lat="45.92262" lon="4.55855">
        <ele>275</ele>
        <time>2025-09-11T08:47:28Z</time>
      </trkpt>
      <trkpt lat="45.92262" lon="4.55853">
        <ele>275.2</ele>
        <time>2025-09-11T08:47:29Z</time>
      </trkpt>
      <trkpt lat="45.92263" lon="4.55851">
        <ele>275.2</ele>
        <time>2025-09-11T08:47:30Z</time>
      </trkpt>
      <trkpt lat="45.92263" lon="4.55848">
        <ele>275.6</ele>
        <time>2025-09-11T08:47:31Z</time>
      </trkpt>
      <trkpt lat="45.92263" lon="4.55845">
        <ele>275.6</ele>
        <time>2025-09-11T08:47:32Z</time>
      </trkpt>
      <trkpt lat="45.92264" lon="4.55842">
        <ele>275.8</ele>
        <time>2025-09-11T08:47:33Z</time>
      </trkpt>
      <trkpt lat="45.92265" lon="4.5584">
        <ele>275.8</ele>
        <time>2025-09-11T08:47:34Z</time>
      </trkpt>
      <trkpt lat="45.92265" lon="4.55837">
        <ele>276</ele>
        <time>2025-09-11T08:47:35Z</time>
      </trkpt>
      <trkpt lat="45.92266" lon="4.55835">
        <ele>276</ele>
        <time>2025-09-11T08:47:36Z</time>
      </trkpt>
      <trkpt lat="45.92266" lon="4.55832">
        <ele>276.4</ele>
        <time>2025-09-11T08:47:37Z</time>
      </trkpt>
      <trkpt lat="45.92267" lon="4.55827">
        <ele>276.4</ele>
        <time>2025-09-11T08:47:38Z</time>
      </trkpt>
      <trkpt lat="45.92267" lon="4.55824">
        <ele>276.6</ele>
        <time>2025-09-11T08:47:39Z</time>
      </trkpt>
      <trkpt lat="45.92268" lon="4.55821">
        <ele>276.6</ele>
        <time>2025-09-11T08:47:40Z</time>
      </trkpt>
      <trkpt lat="45.92268" lon="4.55818">
        <ele>276.8</ele>
        <time>2025-09-11T08:47:41Z</time>
      </trkpt>
      <trkpt lat="45.92269" lon="4.55816">
        <ele>276.8</ele>
        <time>2025-09-11T08:47:42Z</time>
      </trkpt>
      <trkpt lat="45.92269" lon="4.55812">
        <ele>277</ele>
        <time>2025-09-11T08:47:43Z</time>
      </trkpt>
      <trkpt lat="45.92269" lon="4.55809">
        <ele>277</ele>
        <time>2025-09-11T08:47:44Z</time>
      </trkpt>
      <trkpt lat="45.9227" lon="4.55806">
        <ele>277</ele>
        <time>2025-09-11T08:47:45Z</time>
      </trkpt>
      <trkpt lat="45.9227" lon="4.55803">
        <ele>277</ele>
        <time>2025-09-11T08:47:46Z</time>
      </trkpt>
      <trkpt lat="45.9227" lon="4.558">
        <ele>277</ele>
        <time>2025-09-11T08:47:47Z</time>
      </trkpt>
      <trkpt lat="45.92271" lon="4.55797">
        <ele>277.4</ele>
        <time>2025-09-11T08:47:48Z</time>
      </trkpt>
      <trkpt lat="45.92271" lon="4.55795">
        <ele>277.4</ele>
        <time>2025-09-11T08:47:49Z</time>
      </trkpt>
      <trkpt lat="45.92272" lon="4.55792">
        <ele>277.8</ele>
        <time>2025-09-11T08:47:50Z</time>
      </trkpt>
      <trkpt lat="45.92272" lon="4.55789">
        <ele>277.8</ele>
        <time>2025-09-11T08:47:51Z</time>
      </trkpt>
      <trkpt lat="45.92272" lon="4.55786">
        <ele>277.8</ele>
        <time>2025-09-11T08:47:52Z</time>
      </trkpt>
      <trkpt lat="45.92272" lon="4.55783">
        <ele>278</ele>
        <time>2025-09-11T08:47:53Z</time>
      </trkpt>
      <trkpt lat="45.92272" lon="4.55779">
        <ele>278</ele>
        <time>2025-09-11T08:47:54Z</time>
      </trkpt>
      <trkpt lat="45.92273" lon="4.55776">
        <ele>278.2</ele>
        <time>2025-09-11T08:47:55Z</time>
      </trkpt>
      <trkpt lat="45.92273" lon="4.55773">
        <ele>278.2</ele>
        <time>2025-09-11T08:47:56Z</time>
      </trkpt>
      <trkpt lat="45.92273" lon="4.5577">
        <ele>278.2</ele>
        <time>2025-09-11T08:47:57Z</time>
      </trkpt>
      <trkpt lat="45.92273" lon="4.55767">
        <ele>278.4</ele>
        <time>2025-09-11T08:47:58Z</time>
      </trkpt>
      <trkpt lat="45.92274" lon="4.55764">
        <ele>278.4</ele>
        <time>2025-09-11T08:47:59Z</time>
      </trkpt>
      <trkpt lat="45.92274" lon="4.55761">
        <ele>278.4</ele>
        <time>2025-09-11T08:48:00Z</time>
      </trkpt>
      <trkpt lat="45.92275" lon="4.55757">
        <ele>278.8</ele>
        <time>2025-09-11T08:48:01Z</time>
      </trkpt>
      <trkpt lat="45.92276" lon="4.55754">
        <ele>278.8</ele>
        <time>2025-09-11T08:48:02Z</time>
      </trkpt>
      <trkpt lat="45.92276" lon="4.55751">
        <ele>278.8</ele>
        <time>2025-09-11T08:48:03Z</time>
      </trkpt>
      <trkpt lat="45.92277" lon="4.55747">
        <ele>279</ele>
        <time>2025-09-11T08:48:04Z</time>
      </trkpt>
      <trkpt lat="45.92278" lon="4.55744">
        <ele>279</ele>
        <time>2025-09-11T08:48:05Z</time>
      </trkpt>
      <trkpt lat="45.92279" lon="4.55741">
        <ele>279</ele>
        <time>2025-09-11T08:48:06Z</time>
      </trkpt>
      <trkpt lat="45.92279" lon="4.55738">
        <ele>279.4</ele>
        <time>2025-09-11T08:48:07Z</time>
      </trkpt>
      <trkpt lat="45.9228" lon="4.55735">
        <ele>279.4</ele>
        <time>2025-09-11T08:48:08Z</time>
      </trkpt>
      <trkpt lat="45.92281" lon="4.55731">
        <ele>279.4</ele>
        <time>2025-09-11T08:48:09Z</time>
      </trkpt>
      <trkpt lat="45.92282" lon="4.55728">
        <ele>279.4</ele>
        <time>2025-09-11T08:48:10Z</time>
      </trkpt>
      <trkpt lat="45.92283" lon="4.55725">
        <ele>279.6</ele>
        <time>2025-09-11T08:48:11Z</time>
      </trkpt>
      <trkpt lat="45.92284" lon="4.55722">
        <ele>279.6</ele>
        <time>2025-09-11T08:48:12Z</time>
      </trkpt>
      <trkpt lat="45.92286" lon="4.55718">
        <ele>279.6</ele>
        <time>2025-09-11T08:48:13Z</time>
      </trkpt>
      <trkpt lat="45.92287" lon="4.55715">
        <ele>279.6</ele>
        <time>2025-09-11T08:48:14Z</time>
      </trkpt>
      <trkpt lat="45.92288" lon="4.55711">
        <ele>280</ele>
        <time>2025-09-11T08:48:15Z</time>
      </trkpt>
      <trkpt lat="45.92289" lon="4.55707">
        <ele>280</ele>
        <time>2025-09-11T08:48:16Z</time>
      </trkpt>
      <trkpt lat="45.92289" lon="4.55704">
        <ele>280</ele>
        <time>2025-09-11T08:48:17Z</time>
      </trkpt>
      <trkpt lat="45.92291" lon="4.557">
        <ele>280</ele>
        <time>2025-09-11T08:48:18Z</time>
      </trkpt>
      <trkpt lat="45.92292" lon="4.55696">
        <ele>280</ele>
        <time>2025-09-11T08:48:19Z</time>
      </trkpt>
      <trkpt lat="45.92294" lon="4.55692">
        <ele>280</ele>
        <time>2025-09-11T08:48:20Z</time>
      </trkpt>
      <trkpt lat="45.92294" lon="4.55692">
        <ele>280</ele>
        <time>2025-09-11T08:48:21Z</time>
      </trkpt>
      <trkpt lat="45.92295" lon="4.55688">
        <ele>279.8</ele>
        <time>2025-09-11T08:48:22Z</time>
      </trkpt>
      <trkpt lat="45.92297" lon="4.55684">
        <ele>279.8</ele>
        <time>2025-09-11T08:48:23Z</time>
      </trkpt>
      <trkpt lat="45.92299" lon="4.55679">
        <ele>279.8</ele>
        <time>2025-09-11T08:48:24Z</time>
      </trkpt>
      <trkpt lat="45.92301" lon="4.55674">
        <ele>279.4</ele>
        <time>2025-09-11T08:48:25Z</time>
      </trkpt>
      <trkpt lat="45.92303" lon="4.55669">
        <ele>279.4</ele>
        <time>2025-09-11T08:48:26Z</time>
      </trkpt>
      <trkpt lat="45.92305" lon="4.55664">
        <ele>279.2</ele>
        <time>2025-09-11T08:48:27Z</time>
      </trkpt>
      <trkpt lat="45.92308" lon="4.55659">
        <ele>279.2</ele>
        <time>2025-09-11T08:48:28Z</time>
      </trkpt>
      <trkpt lat="45.9231" lon="4.55654">
        <ele>279.2</ele>
        <time>2025-09-11T08:48:29Z</time>
      </trkpt>
      <trkpt lat="45.92312" lon="4.55649">
        <ele>279.2</ele>
        <time>2025-09-11T08:48:30Z</time>
      </trkpt>
      <trkpt lat="45.92315" lon="4.55644">
        <ele>279.2</ele>
        <time>2025-09-11T08:48:31Z</time>
      </trkpt>
      <trkpt lat="45.92317" lon="4.5564">
        <ele>279.6</ele>
        <time>2025-09-11T08:48:32Z</time>
      </trkpt>
      <trkpt lat="45.92319" lon="4.55635">
        <ele>279.6</ele>
        <time>2025-09-11T08:48:33Z</time>
      </trkpt>
      <trkpt lat="45.92321" lon="4.55631">
        <ele>279.4</ele>
        <time>2025-09-11T08:48:34Z</time>
      </trkpt>
      <trkpt lat="45.92323" lon="4.55626">
        <ele>279.4</ele>
        <time>2025-09-11T08:48:35Z</time>
      </trkpt>
      <trkpt lat="45.92326" lon="4.55621">
        <ele>279.2</ele>
        <time>2025-09-11T08:48:36Z</time>
      </trkpt>
      <trkpt lat="45.92328" lon="4.55616">
        <ele>279.2</ele>
        <time>2025-09-11T08:48:37Z</time>
      </trkpt>
      <trkpt lat="45.92331" lon="4.55611">
        <ele>279.2</ele>
        <time>2025-09-11T08:48:38Z</time>
      </trkpt>
      <trkpt lat="45.92334" lon="4.55606">
        <ele>279.2</ele>
        <time>2025-09-11T08:48:39Z</time>
      </trkpt>
      <trkpt lat="45.92337" lon="4.55601">
        <ele>279.2</ele>
        <time>2025-09-11T08:48:40Z</time>
      </trkpt>
      <trkpt lat="45.9234" lon="4.55596">
        <ele>279.2</ele>
        <time>2025-09-11T08:48:41Z</time>
      </trkpt>
      <trkpt lat="45.92343" lon="4.5559">
        <ele>279.2</ele>
        <time>2025-09-11T08:48:42Z</time>
      </trkpt>
      <trkpt lat="45.92346" lon="4.55586">
        <ele>279.2</ele>
        <time>2025-09-11T08:48:43Z</time>
      </trkpt>
      <trkpt lat="45.9235" lon="4.55581">
        <ele>279.2</ele>
        <time>2025-09-11T08:48:44Z</time>
      </trkpt>
      <trkpt lat="45.92353" lon="4.55575">
        <ele>279</ele>
        <time>2025-09-11T08:48:45Z</time>
      </trkpt>
      <trkpt lat="45.92357" lon="4.55569">
        <ele>279</ele>
        <time>2025-09-11T08:48:46Z</time>
      </trkpt>
      <trkpt lat="45.92361" lon="4.55564">
        <ele>279</ele>
        <time>2025-09-11T08:48:47Z</time>
      </trkpt>
      <trkpt lat="45.92365" lon="4.55559">
        <ele>279</ele>
        <time>2025-09-11T08:48:48Z</time>
      </trkpt>
      <trkpt lat="45.92368" lon="4.55554">
        <ele>279</ele>
        <time>2025-09-11T08:48:49Z</time>
      </trkpt>
      <trkpt lat="45.92372" lon="4.5555">
        <ele>279</ele>
        <time>2025-09-11T08:48:50Z</time>
      </trkpt>
      <trkpt lat="45.92375" lon="4.55545">
        <ele>279</ele>
        <time>2025-09-11T08:48:51Z</time>
      </trkpt>
      <trkpt lat="45.92378" lon="4.55541">
        <ele>279</ele>
        <time>2025-09-11T08:48:52Z</time>
      </trkpt>
      <trkpt lat="45.92381" lon="4.55536">
        <ele>279</ele>
        <time>2025-09-11T08:48:53Z</time>
      </trkpt>
      <trkpt lat="45.92384" lon="4.55531">
        <ele>279</ele>
        <time>2025-09-11T08:48:54Z</time>
      </trkpt>
      <trkpt lat="45.92387" lon="4.55527">
        <ele>279.2</ele>
        <time>2025-09-11T08:48:55Z</time>
      </trkpt>
      <trkpt lat="45.9239" lon="4.55524">
        <ele>279.2</ele>
        <time>2025-09-11T08:48:56Z</time>
      </trkpt>
      <trkpt lat="45.92391" lon="4.55519">
        <ele>279.2</ele>
        <time>2025-09-11T08:48:57Z</time>
      </trkpt>
      <trkpt lat="45.92394" lon="4.55517">
        <ele>279.4</ele>
        <time>2025-09-11T08:48:58Z</time>
      </trkpt>
      <trkpt lat="45.92396" lon="4.55514">
        <ele>279.4</ele>
        <time>2025-09-11T08:48:59Z</time>
      </trkpt>
      <trkpt lat="45.92397" lon="4.5551">
        <ele>279.4</ele>
        <time>2025-09-11T08:49:00Z</time>
      </trkpt>
      <trkpt lat="45.92399" lon="4.55507">
        <ele>279.4</ele>
        <time>2025-09-11T08:49:01Z</time>
      </trkpt>
      <trkpt lat="45.92401" lon="4.55504">
        <ele>279.4</ele>
        <time>2025-09-11T08:49:02Z</time>
      </trkpt>
      <trkpt lat="45.92403" lon="4.555">
        <ele>279.4</ele>
        <time>2025-09-11T08:49:03Z</time>
      </trkpt>
      <trkpt lat="45.92405" lon="4.55496">
        <ele>279.4</ele>
        <time>2025-09-11T08:49:04Z</time>
      </trkpt>
      <trkpt lat="45.92407" lon="4.55492">
        <ele>279.8</ele>
        <time>2025-09-11T08:49:05Z</time>
      </trkpt>
      <trkpt lat="45.9241" lon="4.55487">
        <ele>279.8</ele>
        <time>2025-09-11T08:49:06Z</time>
      </trkpt>
      <trkpt lat="45.92413" lon="4.55483">
        <ele>279.8</ele>
        <time>2025-09-11T08:49:07Z</time>
      </trkpt>
      <trkpt lat="45.92415" lon="4.55478">
        <ele>279.8</ele>
        <time>2025-09-11T08:49:08Z</time>
      </trkpt>
      <trkpt lat="45.92418" lon="4.55473">
        <ele>279.8</ele>
        <time>2025-09-11T08:49:09Z</time>
      </trkpt>
      <trkpt lat="45.92421" lon="4.55468">
        <ele>279.8</ele>
        <time>2025-09-11T08:49:10Z</time>
      </trkpt>
      <trkpt lat="45.92424" lon="4.55463">
        <ele>279.8</ele>
        <time>2025-09-11T08:49:11Z</time>
      </trkpt>
      <trkpt lat="45.92427" lon="4.55458">
        <ele>279.8</ele>
        <time>2025-09-11T08:49:12Z</time>
      </trkpt>
      <trkpt lat="45.92432" lon="4.55453">
        <ele>279.4</ele>
        <time>2025-09-11T08:49:13Z</time>
      </trkpt>
      <trkpt lat="45.92436" lon="4.55449">
        <ele>279.4</ele>
        <time>2025-09-11T08:49:14Z</time>
      </trkpt>
      <trkpt lat="45.9244" lon="4.55444">
        <ele>279.4</ele>
        <time>2025-09-11T08:49:15Z</time>
      </trkpt>
      <trkpt lat="45.92443" lon="4.5544">
        <ele>279.4</ele>
        <time>2025-09-11T08:49:16Z</time>
      </trkpt>
      <trkpt lat="45.92447" lon="4.55437">
        <ele>279.6</ele>
        <time>2025-09-11T08:49:17Z</time>
      </trkpt>
      <trkpt lat="45.92451" lon="4.55433">
        <ele>279.6</ele>
        <time>2025-09-11T08:49:18Z</time>
      </trkpt>
      <trkpt lat="45.92454" lon="4.55429">
        <ele>279.6</ele>
        <time>2025-09-11T08:49:19Z</time>
      </trkpt>
      <trkpt lat="45.92458" lon="4.55426">
        <ele>279.8</ele>
        <time>2025-09-11T08:49:20Z</time>
      </trkpt>
      <trkpt lat="45.92461" lon="4.55422">
        <ele>279.8</ele>
        <time>2025-09-11T08:49:21Z</time>
      </trkpt>
      <trkpt lat="45.92464" lon="4.55418">
        <ele>280</ele>
        <time>2025-09-11T08:49:22Z</time>
      </trkpt>
      <trkpt lat="45.92467" lon="4.55415">
        <ele>280.4</ele>
        <time>2025-09-11T08:49:23Z</time>
      </trkpt>
      <trkpt lat="45.9247" lon="4.55411">
        <ele>280.4</ele>
        <time>2025-09-11T08:49:24Z</time>
      </trkpt>
      <trkpt lat="45.92473" lon="4.55408">
        <ele>280.4</ele>
        <time>2025-09-11T08:49:25Z</time>
      </trkpt>
      <trkpt lat="45.92476" lon="4.55403">
        <ele>280.4</ele>
        <time>2025-09-11T08:49:26Z</time>
      </trkpt>
      <trkpt lat="45.92479" lon="4.55398">
        <ele>280.4</ele>
        <time>2025-09-11T08:49:27Z</time>
      </trkpt>
      <trkpt lat="45.92482" lon="4.55393">
        <ele>280.4</ele>
        <time>2025-09-11T08:49:28Z</time>
      </trkpt>
      <trkpt lat="45.92484" lon="4.55387">
        <ele>280.4</ele>
        <time>2025-09-11T08:49:29Z</time>
      </trkpt>
      <trkpt lat="45.92485" lon="4.55381">
        <ele>280.4</ele>
        <time>2025-09-11T08:49:30Z</time>
      </trkpt>
      <trkpt lat="45.92487" lon="4.55375">
        <ele>280.4</ele>
        <time>2025-09-11T08:49:31Z</time>
      </trkpt>
      <trkpt lat="45.92489" lon="4.55368">
        <ele>280</ele>
        <time>2025-09-11T08:49:32Z</time>
      </trkpt>
      <trkpt lat="45.9249" lon="4.55361">
        <ele>279.8</ele>
        <time>2025-09-11T08:49:33Z</time>
      </trkpt>
      <trkpt lat="45.92492" lon="4.55355">
        <ele>279.8</ele>
        <time>2025-09-11T08:49:34Z</time>
      </trkpt>
      <trkpt lat="45.92493" lon="4.55347">
        <ele>279.8</ele>
        <time>2025-09-11T08:49:35Z</time>
      </trkpt>
      <trkpt lat="45.92494" lon="4.55341">
        <ele>279.8</ele>
        <time>2025-09-11T08:49:36Z</time>
      </trkpt>
      <trkpt lat="45.92495" lon="4.55335">
        <ele>279.8</ele>
        <time>2025-09-11T08:49:37Z</time>
      </trkpt>
      <trkpt lat="45.92497" lon="4.55328">
        <ele>279.8</ele>
        <time>2025-09-11T08:49:38Z</time>
      </trkpt>
      <trkpt lat="45.92498" lon="4.55322">
        <ele>279.8</ele>
        <time>2025-09-11T08:49:39Z</time>
      </trkpt>
      <trkpt lat="45.92501" lon="4.55317">
        <ele>279.8</ele>
        <time>2025-09-11T08:49:40Z</time>
      </trkpt>
      <trkpt lat="45.92502" lon="4.55312">
        <ele>280</ele>
        <time>2025-09-11T08:49:41Z</time>
      </trkpt>
      <trkpt lat="45.92504" lon="4.55307">
        <ele>280</ele>
        <time>2025-09-11T08:49:42Z</time>
      </trkpt>
      <trkpt lat="45.92505" lon="4.55302">
        <ele>280</ele>
        <time>2025-09-11T08:49:43Z</time>
      </trkpt>
      <trkpt lat="45.92507" lon="4.55298">
        <ele>279.8</ele>
        <time>2025-09-11T08:49:44Z</time>
      </trkpt>
      <trkpt lat="45.92508" lon="4.55295">
        <ele>279.8</ele>
        <time>2025-09-11T08:49:45Z</time>
      </trkpt>
      <trkpt lat="45.92511" lon="4.55292">
        <ele>280</ele>
        <time>2025-09-11T08:49:46Z</time>
      </trkpt>
      <trkpt lat="45.92513" lon="4.55289">
        <ele>280.2</ele>
        <time>2025-09-11T08:49:47Z</time>
      </trkpt>
      <trkpt lat="45.92515" lon="4.55287">
        <ele>280.4</ele>
        <time>2025-09-11T08:49:48Z</time>
      </trkpt>
      <trkpt lat="45.92517" lon="4.55285">
        <ele>280.4</ele>
        <time>2025-09-11T08:49:49Z</time>
      </trkpt>
      <trkpt lat="45.92519" lon="4.55282">
        <ele>280.8</ele>
        <time>2025-09-11T08:49:50Z</time>
      </trkpt>
      <trkpt lat="45.92521" lon="4.5528">
        <ele>280.8</ele>
        <time>2025-09-11T08:49:51Z</time>
      </trkpt>
      <trkpt lat="45.92523" lon="4.55278">
        <ele>281</ele>
        <time>2025-09-11T08:49:52Z</time>
      </trkpt>
      <trkpt lat="45.92525" lon="4.55276">
        <ele>281.2</ele>
        <time>2025-09-11T08:49:53Z</time>
      </trkpt>
      <trkpt lat="45.92527" lon="4.55273">
        <ele>281.2</ele>
        <time>2025-09-11T08:49:54Z</time>
      </trkpt>
      <trkpt lat="45.92528" lon="4.5527">
        <ele>281.6</ele>
        <time>2025-09-11T08:49:55Z</time>
      </trkpt>
      <trkpt lat="45.9253" lon="4.55267">
        <ele>281.8</ele>
        <time>2025-09-11T08:49:56Z</time>
      </trkpt>
      <trkpt lat="45.92532" lon="4.55265">
        <ele>281.8</ele>
        <time>2025-09-11T08:49:57Z</time>
      </trkpt>
      <trkpt lat="45.92534" lon="4.55263">
        <ele>282</ele>
        <time>2025-09-11T08:49:58Z</time>
      </trkpt>
      <trkpt lat="45.92536" lon="4.55261">
        <ele>282.2</ele>
        <time>2025-09-11T08:49:59Z</time>
      </trkpt>
      <trkpt lat="45.92538" lon="4.55258">
        <ele>282.2</ele>
        <time>2025-09-11T08:50:00Z</time>
      </trkpt>
      <trkpt lat="45.9254" lon="4.55255">
        <ele>282.6</ele>
        <time>2025-09-11T08:50:01Z</time>
      </trkpt>
      <trkpt lat="45.92542" lon="4.55253">
        <ele>282.6</ele>
        <time>2025-09-11T08:50:02Z</time>
      </trkpt>
      <trkpt lat="45.92544" lon="4.5525">
        <ele>282.6</ele>
        <time>2025-09-11T08:50:03Z</time>
      </trkpt>
      <trkpt lat="45.92546" lon="4.55247">
        <ele>282.8</ele>
        <time>2025-09-11T08:50:04Z</time>
      </trkpt>
      <trkpt lat="45.92548" lon="4.55245">
        <ele>282.8</ele>
        <time>2025-09-11T08:50:05Z</time>
      </trkpt>
      <trkpt lat="45.9255" lon="4.55242">
        <ele>282.8</ele>
        <time>2025-09-11T08:50:06Z</time>
      </trkpt>
      <trkpt lat="45.92552" lon="4.5524">
        <ele>283</ele>
        <time>2025-09-11T08:50:07Z</time>
      </trkpt>
      <trkpt lat="45.92554" lon="4.55238">
        <ele>283</ele>
        <time>2025-09-11T08:50:08Z</time>
      </trkpt>
      <trkpt lat="45.92556" lon="4.55236">
        <ele>283.4</ele>
        <time>2025-09-11T08:50:09Z</time>
      </trkpt>
      <trkpt lat="45.92558" lon="4.55233">
        <ele>283.4</ele>
        <time>2025-09-11T08:50:10Z</time>
      </trkpt>
      <trkpt lat="45.92559" lon="4.55231">
        <ele>283.6</ele>
        <time>2025-09-11T08:50:11Z</time>
      </trkpt>
      <trkpt lat="45.92561" lon="4.55228">
        <ele>283.6</ele>
        <time>2025-09-11T08:50:12Z</time>
      </trkpt>
      <trkpt lat="45.92562" lon="4.55225">
        <ele>284</ele>
        <time>2025-09-11T08:50:13Z</time>
      </trkpt>
      <trkpt lat="45.92564" lon="4.55223">
        <ele>284</ele>
        <time>2025-09-11T08:50:14Z</time>
      </trkpt>
      <trkpt lat="45.92566" lon="4.5522">
        <ele>284</ele>
        <time>2025-09-11T08:50:15Z</time>
      </trkpt>
      <trkpt lat="45.92567" lon="4.55218">
        <ele>284</ele>
        <time>2025-09-11T08:50:16Z</time>
      </trkpt>
      <trkpt lat="45.92569" lon="4.55216">
        <ele>284.2</ele>
        <time>2025-09-11T08:50:17Z</time>
      </trkpt>
      <trkpt lat="45.9257" lon="4.55213">
        <ele>284.2</ele>
        <time>2025-09-11T08:50:18Z</time>
      </trkpt>
      <trkpt lat="45.92572" lon="4.5521">
        <ele>284.2</ele>
        <time>2025-09-11T08:50:19Z</time>
      </trkpt>
      <trkpt lat="45.92573" lon="4.55207">
        <ele>284.2</ele>
        <time>2025-09-11T08:50:20Z</time>
      </trkpt>
      <trkpt lat="45.92575" lon="4.55204">
        <ele>284.4</ele>
        <time>2025-09-11T08:50:21Z</time>
      </trkpt>
      <trkpt lat="45.92577" lon="4.55201">
        <ele>284.4</ele>
        <time>2025-09-11T08:50:22Z</time>
      </trkpt>
      <trkpt lat="45.92578" lon="4.55198">
        <ele>284.6</ele>
        <time>2025-09-11T08:50:23Z</time>
      </trkpt>
      <trkpt lat="45.92579" lon="4.55195">
        <ele>284.6</ele>
        <time>2025-09-11T08:50:24Z</time>
      </trkpt>
      <trkpt lat="45.9258" lon="4.55192">
        <ele>284.6</ele>
        <time>2025-09-11T08:50:25Z</time>
      </trkpt>
      <trkpt lat="45.92581" lon="4.55188">
        <ele>284.8</ele>
        <time>2025-09-11T08:50:26Z</time>
      </trkpt>
      <trkpt lat="45.92582" lon="4.55185">
        <ele>284.8</ele>
        <time>2025-09-11T08:50:27Z</time>
      </trkpt>
      <trkpt lat="45.92583" lon="4.55182">
        <ele>284.8</ele>
        <time>2025-09-11T08:50:28Z</time>
      </trkpt>
      <trkpt lat="45.92585" lon="4.55179">
        <ele>285.2</ele>
        <time>2025-09-11T08:50:29Z</time>
      </trkpt>
      <trkpt lat="45.92586" lon="4.55176">
        <ele>285.2</ele>
        <time>2025-09-11T08:50:30Z</time>
      </trkpt>
      <trkpt lat="45.92588" lon="4.55173">
        <ele>285.2</ele>
        <time>2025-09-11T08:50:31Z</time>
      </trkpt>
      <trkpt lat="45.92589" lon="4.5517">
        <ele>285.2</ele>
        <time>2025-09-11T08:50:32Z</time>
      </trkpt>
      <trkpt lat="45.9259" lon="4.55167">
        <ele>285.4</ele>
        <time>2025-09-11T08:50:33Z</time>
      </trkpt>
      <trkpt lat="45.92591" lon="4.55164">
        <ele>285.4</ele>
        <time>2025-09-11T08:50:34Z</time>
      </trkpt>
      <trkpt lat="45.92592" lon="4.55161">
        <ele>285.6</ele>
        <time>2025-09-11T08:50:35Z</time>
      </trkpt>
      <trkpt lat="45.92593" lon="4.55158">
        <ele>285.6</ele>
        <time>2025-09-11T08:50:36Z</time>
      </trkpt>
      <trkpt lat="45.92594" lon="4.55155">
        <ele>285.8</ele>
        <time>2025-09-11T08:50:37Z</time>
      </trkpt>
      <trkpt lat="45.92596" lon="4.55153">
        <ele>285.8</ele>
        <time>2025-09-11T08:50:38Z</time>
      </trkpt>
      <trkpt lat="45.92597" lon="4.5515">
        <ele>285.8</ele>
        <time>2025-09-11T08:50:39Z</time>
      </trkpt>
      <trkpt lat="45.92598" lon="4.55148">
        <ele>286</ele>
        <time>2025-09-11T08:50:40Z</time>
      </trkpt>
      <trkpt lat="45.926" lon="4.55145">
        <ele>286</ele>
        <time>2025-09-11T08:50:41Z</time>
      </trkpt>
      <trkpt lat="45.92601" lon="4.55142">
        <ele>286.2</ele>
        <time>2025-09-11T08:50:42Z</time>
      </trkpt>
      <trkpt lat="45.92602" lon="4.5514">
        <ele>286.2</ele>
        <time>2025-09-11T08:50:43Z</time>
      </trkpt>
      <trkpt lat="45.92603" lon="4.55138">
        <ele>286.2</ele>
        <time>2025-09-11T08:50:44Z</time>
      </trkpt>
      <trkpt lat="45.92604" lon="4.55135">
        <ele>286.2</ele>
        <time>2025-09-11T08:50:45Z</time>
      </trkpt>
      <trkpt lat="45.92606" lon="4.55132">
        <ele>286.2</ele>
        <time>2025-09-11T08:50:46Z</time>
      </trkpt>
      <trkpt lat="45.92607" lon="4.5513">
        <ele>286.6</ele>
        <time>2025-09-11T08:50:47Z</time>
      </trkpt>
      <trkpt lat="45.92608" lon="4.55127">
        <ele>286.8</ele>
        <time>2025-09-11T08:50:48Z</time>
      </trkpt>
      <trkpt lat="45.92608" lon="4.55123">
        <ele>286.8</ele>
        <time>2025-09-11T08:50:49Z</time>
      </trkpt>
      <trkpt lat="45.92609" lon="4.5512">
        <ele>286.8</ele>
        <time>2025-09-11T08:50:50Z</time>
      </trkpt>
      <trkpt lat="45.9261" lon="4.55117">
        <ele>286.8</ele>
        <time>2025-09-11T08:50:51Z</time>
      </trkpt>
      <trkpt lat="45.92611" lon="4.55114">
        <ele>287</ele>
        <time>2025-09-11T08:50:52Z</time>
      </trkpt>
      <trkpt lat="45.92613" lon="4.55112">
        <ele>287</ele>
        <time>2025-09-11T08:50:53Z</time>
      </trkpt>
      <trkpt lat="45.92615" lon="4.55109">
        <ele>287</ele>
        <time>2025-09-11T08:50:54Z</time>
      </trkpt>
      <trkpt lat="45.92617" lon="4.55106">
        <ele>287</ele>
        <time>2025-09-11T08:50:55Z</time>
      </trkpt>
      <trkpt lat="45.92618" lon="4.55103">
        <ele>287</ele>
        <time>2025-09-11T08:50:56Z</time>
      </trkpt>
      <trkpt lat="45.9262" lon="4.551">
        <ele>287</ele>
        <time>2025-09-11T08:50:57Z</time>
      </trkpt>
      <trkpt lat="45.92621" lon="4.55096">
        <ele>287.2</ele>
        <time>2025-09-11T08:50:58Z</time>
      </trkpt>
      <trkpt lat="45.92622" lon="4.55093">
        <ele>287.2</ele>
        <time>2025-09-11T08:50:59Z</time>
      </trkpt>
      <trkpt lat="45.92624" lon="4.5509">
        <ele>287.2</ele>
        <time>2025-09-11T08:51:00Z</time>
      </trkpt>
      <trkpt lat="45.92625" lon="4.55087">
        <ele>287.6</ele>
        <time>2025-09-11T08:51:01Z</time>
      </trkpt>
      <trkpt lat="45.92626" lon="4.55084">
        <ele>287.6</ele>
        <time>2025-09-11T08:51:02Z</time>
      </trkpt>
      <trkpt lat="45.92627" lon="4.5508">
        <ele>287.6</ele>
        <time>2025-09-11T08:51:03Z</time>
      </trkpt>
      <trkpt lat="45.92628" lon="4.55077">
        <ele>287.6</ele>
        <time>2025-09-11T08:51:04Z</time>
      </trkpt>
      <trkpt lat="45.92629" lon="4.55073">
        <ele>287.6</ele>
        <time>2025-09-11T08:51:05Z</time>
      </trkpt>
      <trkpt lat="45.92631" lon="4.55069">
        <ele>287.8</ele>
        <time>2025-09-11T08:51:06Z</time>
      </trkpt>
      <trkpt lat="45.92632" lon="4.55065">
        <ele>287.8</ele>
        <time>2025-09-11T08:51:07Z</time>
      </trkpt>
      <trkpt lat="45.92634" lon="4.55062">
        <ele>287.8</ele>
        <time>2025-09-11T08:51:08Z</time>
      </trkpt>
      <trkpt lat="45.92636" lon="4.55059">
        <ele>287.8</ele>
        <time>2025-09-11T08:51:09Z</time>
      </trkpt>
      <trkpt lat="45.92637" lon="4.55055">
        <ele>288.2</ele>
        <time>2025-09-11T08:51:10Z</time>
      </trkpt>
      <trkpt lat="45.92639" lon="4.55052">
        <ele>288.2</ele>
        <time>2025-09-11T08:51:11Z</time>
      </trkpt>
      <trkpt lat="45.92641" lon="4.55048">
        <ele>288.2</ele>
        <time>2025-09-11T08:51:12Z</time>
      </trkpt>
      <trkpt lat="45.92642" lon="4.55045">
        <ele>288.4</ele>
        <time>2025-09-11T08:51:13Z</time>
      </trkpt>
      <trkpt lat="45.92644" lon="4.55041">
        <ele>288.4</ele>
        <time>2025-09-11T08:51:14Z</time>
      </trkpt>
      <trkpt lat="45.92645" lon="4.55037">
        <ele>288.4</ele>
        <time>2025-09-11T08:51:15Z</time>
      </trkpt>
      <trkpt lat="45.92647" lon="4.55034">
        <ele>288.4</ele>
        <time>2025-09-11T08:51:16Z</time>
      </trkpt>
      <trkpt lat="45.92649" lon="4.5503">
        <ele>288.4</ele>
        <time>2025-09-11T08:51:17Z</time>
      </trkpt>
      <trkpt lat="45.92651" lon="4.55027">
        <ele>288.8</ele>
        <time>2025-09-11T08:51:18Z</time>
      </trkpt>
      <trkpt lat="45.92653" lon="4.55023">
        <ele>288.8</ele>
        <time>2025-09-11T08:51:19Z</time>
      </trkpt>
      <trkpt lat="45.92655" lon="4.55019">
        <ele>289</ele>
        <time>2025-09-11T08:51:20Z</time>
      </trkpt>
      <trkpt lat="45.92657" lon="4.55016">
        <ele>289</ele>
        <time>2025-09-11T08:51:21Z</time>
      </trkpt>
      <trkpt lat="45.92659" lon="4.55012">
        <ele>289</ele>
        <time>2025-09-11T08:51:22Z</time>
      </trkpt>
      <trkpt lat="45.9266" lon="4.55008">
        <ele>289</ele>
        <time>2025-09-11T08:51:23Z</time>
      </trkpt>
      <trkpt lat="45.92662" lon="4.55005">
        <ele>289</ele>
        <time>2025-09-11T08:51:24Z</time>
      </trkpt>
      <trkpt lat="45.92664" lon="4.55001">
        <ele>289</ele>
        <time>2025-09-11T08:51:25Z</time>
      </trkpt>
      <trkpt lat="45.92666" lon="4.54997">
        <ele>289.2</ele>
        <time>2025-09-11T08:51:26Z</time>
      </trkpt>
      <trkpt lat="45.92669" lon="4.54994">
        <ele>289.2</ele>
        <time>2025-09-11T08:51:27Z</time>
      </trkpt>
      <trkpt lat="45.92671" lon="4.5499">
        <ele>289.2</ele>
        <time>2025-09-11T08:51:28Z</time>
      </trkpt>
      <trkpt lat="45.92673" lon="4.54986">
        <ele>289.2</ele>
        <time>2025-09-11T08:51:29Z</time>
      </trkpt>
      <trkpt lat="45.92675" lon="4.54982">
        <ele>289.2</ele>
        <time>2025-09-11T08:51:30Z</time>
      </trkpt>
      <trkpt lat="45.92677" lon="4.54979">
        <ele>289.6</ele>
        <time>2025-09-11T08:51:31Z</time>
      </trkpt>
      <trkpt lat="45.92679" lon="4.54975">
        <ele>289.6</ele>
        <time>2025-09-11T08:51:32Z</time>
      </trkpt>
      <trkpt lat="45.92681" lon="4.54972">
        <ele>289.6</ele>
        <time>2025-09-11T08:51:33Z</time>
      </trkpt>
      <trkpt lat="45.92683" lon="4.54968">
        <ele>289.6</ele>
        <time>2025-09-11T08:51:34Z</time>
      </trkpt>
      <trkpt lat="45.92685" lon="4.54965">
        <ele>289.6</ele>
        <time>2025-09-11T08:51:35Z</time>
      </trkpt>
      <trkpt lat="45.92687" lon="4.54961">
        <ele>289.8</ele>
        <time>2025-09-11T08:51:36Z</time>
      </trkpt>
      <trkpt lat="45.92689" lon="4.54958">
        <ele>289.8</ele>
        <time>2025-09-11T08:51:37Z</time>
      </trkpt>
      <trkpt lat="45.92691" lon="4.54954">
        <ele>289.8</ele>
        <time>2025-09-11T08:51:38Z</time>
      </trkpt>
      <trkpt lat="45.92693" lon="4.5495">
        <ele>289.8</ele>
        <time>2025-09-11T08:51:39Z</time>
      </trkpt>
      <trkpt lat="45.92695" lon="4.54946">
        <ele>289.8</ele>
        <time>2025-09-11T08:51:40Z</time>
      </trkpt>
      <trkpt lat="45.92697" lon="4.54942">
        <ele>289.8</ele>
        <time>2025-09-11T08:51:41Z</time>
      </trkpt>
      <trkpt lat="45.92699" lon="4.54938">
        <ele>289.8</ele>
        <time>2025-09-11T08:51:42Z</time>
      </trkpt>
      <trkpt lat="45.92702" lon="4.54934">
        <ele>289.8</ele>
        <time>2025-09-11T08:51:43Z</time>
      </trkpt>
      <trkpt lat="45.92704" lon="4.5493">
        <ele>289.8</ele>
        <time>2025-09-11T08:51:44Z</time>
      </trkpt>
      <trkpt lat="45.92706" lon="4.54926">
        <ele>289.8</ele>
        <time>2025-09-11T08:51:45Z</time>
      </trkpt>
      <trkpt lat="45.92708" lon="4.54922">
        <ele>289.8</ele>
        <time>2025-09-11T08:51:46Z</time>
      </trkpt>
      <trkpt lat="45.92711" lon="4.54918">
        <ele>290</ele>
        <time>2025-09-11T08:51:47Z</time>
      </trkpt>
      <trkpt lat="45.92713" lon="4.54914">
        <ele>290</ele>
        <time>2025-09-11T08:51:48Z</time>
      </trkpt>
      <trkpt lat="45.92715" lon="4.54909">
        <ele>290</ele>
        <time>2025-09-11T08:51:49Z</time>
      </trkpt>
      <trkpt lat="45.92718" lon="4.54905">
        <ele>290.4</ele>
        <time>2025-09-11T08:51:50Z</time>
      </trkpt>
      <trkpt lat="45.9272" lon="4.54901">
        <ele>290.4</ele>
        <time>2025-09-11T08:51:51Z</time>
      </trkpt>
      <trkpt lat="45.92723" lon="4.54897">
        <ele>290.4</ele>
        <time>2025-09-11T08:51:52Z</time>
      </trkpt>
      <trkpt lat="45.92726" lon="4.54893">
        <ele>290.6</ele>
        <time>2025-09-11T08:51:53Z</time>
      </trkpt>
      <trkpt lat="45.92729" lon="4.54889">
        <ele>290.6</ele>
        <time>2025-09-11T08:51:54Z</time>
      </trkpt>
      <trkpt lat="45.92731" lon="4.54885">
        <ele>290.6</ele>
        <time>2025-09-11T08:51:55Z</time>
      </trkpt>
      <trkpt lat="45.92734" lon="4.54881">
        <ele>290.6</ele>
        <time>2025-09-11T08:51:56Z</time>
      </trkpt>
      <trkpt lat="45.92737" lon="4.54877">
        <ele>290.6</ele>
        <time>2025-09-11T08:51:57Z</time>
      </trkpt>
      <trkpt lat="45.92739" lon="4.54873">
        <ele>290.6</ele>
        <time>2025-09-11T08:51:58Z</time>
      </trkpt>
      <trkpt lat="45.92743" lon="4.5487">
        <ele>290.6</ele>
        <time>2025-09-11T08:51:59Z</time>
      </trkpt>
      <trkpt lat="45.92746" lon="4.54866">
        <ele>290.6</ele>
        <time>2025-09-11T08:52:00Z</time>
      </trkpt>
      <trkpt lat="45.92748" lon="4.54862">
        <ele>290.6</ele>
        <time>2025-09-11T08:52:01Z</time>
      </trkpt>
      <trkpt lat="45.92751" lon="4.54858">
        <ele>290.6</ele>
        <time>2025-09-11T08:52:02Z</time>
      </trkpt>
      <trkpt lat="45.92754" lon="4.54854">
        <ele>290.6</ele>
        <time>2025-09-11T08:52:03Z</time>
      </trkpt>
      <trkpt lat="45.92757" lon="4.5485">
        <ele>290.6</ele>
        <time>2025-09-11T08:52:04Z</time>
      </trkpt>
      <trkpt lat="45.92761" lon="4.54846">
        <ele>290.8</ele>
        <time>2025-09-11T08:52:05Z</time>
      </trkpt>
      <trkpt lat="45.92764" lon="4.54842">
        <ele>290.8</ele>
        <time>2025-09-11T08:52:06Z</time>
      </trkpt>
      <trkpt lat="45.92767" lon="4.54837">
        <ele>290.8</ele>
        <time>2025-09-11T08:52:07Z</time>
      </trkpt>
      <trkpt lat="45.9277" lon="4.54833">
        <ele>290.8</ele>
        <time>2025-09-11T08:52:08Z</time>
      </trkpt>
      <trkpt lat="45.92773" lon="4.54829">
        <ele>290.8</ele>
        <time>2025-09-11T08:52:09Z</time>
      </trkpt>
      <trkpt lat="45.92776" lon="4.54825">
        <ele>290.8</ele>
        <time>2025-09-11T08:52:10Z</time>
      </trkpt>
      <trkpt lat="45.92779" lon="4.54821">
        <ele>290.8</ele>
        <time>2025-09-11T08:52:11Z</time>
      </trkpt>
      <trkpt lat="45.92783" lon="4.54818">
        <ele>290.8</ele>
        <time>2025-09-11T08:52:12Z</time>
      </trkpt>
      <trkpt lat="45.92786" lon="4.54814">
        <ele>290.8</ele>
        <time>2025-09-11T08:52:13Z</time>
      </trkpt>
      <trkpt lat="45.9279" lon="4.54811">
        <ele>290.8</ele>
        <time>2025-09-11T08:52:14Z</time>
      </trkpt>
      <trkpt lat="45.92793" lon="4.54806">
        <ele>290.8</ele>
        <time>2025-09-11T08:52:15Z</time>
      </trkpt>
      <trkpt lat="45.92797" lon="4.54801">
        <ele>290.8</ele>
        <time>2025-09-11T08:52:16Z</time>
      </trkpt>
      <trkpt lat="45.928" lon="4.54797">
        <ele>290.4</ele>
        <time>2025-09-11T08:52:17Z</time>
      </trkpt>
      <trkpt lat="45.92804" lon="4.54792">
        <ele>290.4</ele>
        <time>2025-09-11T08:52:18Z</time>
      </trkpt>
      <trkpt lat="45.92807" lon="4.54788">
        <ele>290.4</ele>
        <time>2025-09-11T08:52:19Z</time>
      </trkpt>
      <trkpt lat="45.92811" lon="4.54783">
        <ele>290.4</ele>
        <time>2025-09-11T08:52:20Z</time>
      </trkpt>
      <trkpt lat="45.92815" lon="4.54779">
        <ele>290.4</ele>
        <time>2025-09-11T08:52:21Z</time>
      </trkpt>
      <trkpt lat="45.92819" lon="4.54773">
        <ele>290.4</ele>
        <time>2025-09-11T08:52:22Z</time>
      </trkpt>
      <trkpt lat="45.92824" lon="4.54768">
        <ele>290.2</ele>
        <time>2025-09-11T08:52:23Z</time>
      </trkpt>
      <trkpt lat="45.92828" lon="4.54763">
        <ele>290.2</ele>
        <time>2025-09-11T08:52:24Z</time>
      </trkpt>
      <trkpt lat="45.92833" lon="4.54757">
        <ele>290</ele>
        <time>2025-09-11T08:52:25Z</time>
      </trkpt>
      <trkpt lat="45.92837" lon="4.54752">
        <ele>290</ele>
        <time>2025-09-11T08:52:26Z</time>
      </trkpt>
      <trkpt lat="45.92842" lon="4.54747">
        <ele>289.6</ele>
        <time>2025-09-11T08:52:27Z</time>
      </trkpt>
      <trkpt lat="45.92847" lon="4.54741">
        <ele>289.4</ele>
        <time>2025-09-11T08:52:28Z</time>
      </trkpt>
      <trkpt lat="45.92852" lon="4.54735">
        <ele>288.8</ele>
        <time>2025-09-11T08:52:29Z</time>
      </trkpt>
      <trkpt lat="45.92856" lon="4.54729">
        <ele>288.6</ele>
        <time>2025-09-11T08:52:30Z</time>
      </trkpt>
      <trkpt lat="45.9286" lon="4.54721">
        <ele>288</ele>
        <time>2025-09-11T08:52:31Z</time>
      </trkpt>
      <trkpt lat="45.92864" lon="4.54714">
        <ele>288</ele>
        <time>2025-09-11T08:52:32Z</time>
      </trkpt>
      <trkpt lat="45.92867" lon="4.54707">
        <ele>288</ele>
        <time>2025-09-11T08:52:33Z</time>
      </trkpt>
      <trkpt lat="45.92871" lon="4.547">
        <ele>288</ele>
        <time>2025-09-11T08:52:34Z</time>
      </trkpt>
      <trkpt lat="45.92874" lon="4.54693">
        <ele>287.8</ele>
        <time>2025-09-11T08:52:35Z</time>
      </trkpt>
      <trkpt lat="45.92878" lon="4.54686">
        <ele>287.8</ele>
        <time>2025-09-11T08:52:36Z</time>
      </trkpt>
      <trkpt lat="45.92881" lon="4.54679">
        <ele>287.6</ele>
        <time>2025-09-11T08:52:37Z</time>
      </trkpt>
      <trkpt lat="45.92885" lon="4.54672">
        <ele>287.6</ele>
        <time>2025-09-11T08:52:38Z</time>
      </trkpt>
      <trkpt lat="45.92888" lon="4.54665">
        <ele>287.2</ele>
        <time>2025-09-11T08:52:39Z</time>
      </trkpt>
      <trkpt lat="45.92891" lon="4.54658">
        <ele>287.2</ele>
        <time>2025-09-11T08:52:40Z</time>
      </trkpt>
      <trkpt lat="45.92895" lon="4.54652">
        <ele>287.2</ele>
        <time>2025-09-11T08:52:41Z</time>
      </trkpt>
      <trkpt lat="45.92898" lon="4.54646">
        <ele>286.8</ele>
        <time>2025-09-11T08:52:42Z</time>
      </trkpt>
      <trkpt lat="45.929" lon="4.54642">
        <ele>286.8</ele>
        <time>2025-09-11T08:52:43Z</time>
      </trkpt>
      <trkpt lat="45.92903" lon="4.5464">
        <ele>286.8</ele>
        <time>2025-09-11T08:52:44Z</time>
      </trkpt>
      <trkpt lat="45.92903" lon="4.54642">
        <ele>286.6</ele>
        <time>2025-09-11T08:52:45Z</time>
      </trkpt>
      <trkpt lat="45.92902" lon="4.54641">
        <ele>286.6</ele>
        <time>2025-09-11T08:52:46Z</time>
      </trkpt>
      <trkpt lat="45.92903" lon="4.54641">
        <ele>286.6</ele>
        <time>2025-09-11T08:52:47Z</time>
      </trkpt>
      <trkpt lat="45.92903" lon="4.54638">
        <ele>286.4</ele>
        <time>2025-09-11T08:53:35Z</time>
      </trkpt>
      <trkpt lat="45.92904" lon="4.54636">
        <ele>286.6</ele>
        <time>2025-09-11T08:53:36Z</time>
      </trkpt>
      <trkpt lat="45.92905" lon="4.54634">
        <ele>286.6</ele>
        <time>2025-09-11T08:53:37Z</time>
      </trkpt>
      <trkpt lat="45.92906" lon="4.54631">
        <ele>286.6</ele>
        <time>2025-09-11T08:53:38Z</time>
      </trkpt>
      <trkpt lat="45.92907" lon="4.54629">
        <ele>286.6</ele>
        <time>2025-09-11T08:53:39Z</time>
      </trkpt>
      <trkpt lat="45.92908" lon="4.54626">
        <ele>286.6</ele>
        <time>2025-09-11T08:53:40Z</time>
      </trkpt>
      <trkpt lat="45.92909" lon="4.54623">
        <ele>286.6</ele>
        <time>2025-09-11T08:53:41Z</time>
      </trkpt>
      <trkpt lat="45.9291" lon="4.54621">
        <ele>286.6</ele>
        <time>2025-09-11T08:53:42Z</time>
      </trkpt>
      <trkpt lat="45.92912" lon="4.54618">
        <ele>286.6</ele>
        <time>2025-09-11T08:53:43Z</time>
      </trkpt>
      <trkpt lat="45.92914" lon="4.54615">
        <ele>286.8</ele>
        <time>2025-09-11T08:53:44Z</time>
      </trkpt>
      <trkpt lat="45.92917" lon="4.54613">
        <ele>286.8</ele>
        <time>2025-09-11T08:53:45Z</time>
      </trkpt>
      <trkpt lat="45.9292" lon="4.5461">
        <ele>286.8</ele>
        <time>2025-09-11T08:53:46Z</time>
      </trkpt>
      <trkpt lat="45.92922" lon="4.54608">
        <ele>287</ele>
        <time>2025-09-11T08:53:47Z</time>
      </trkpt>
      <trkpt lat="45.92925" lon="4.54605">
        <ele>287</ele>
        <time>2025-09-11T08:53:48Z</time>
      </trkpt>
      <trkpt lat="45.92928" lon="4.54602">
        <ele>287</ele>
        <time>2025-09-11T08:53:49Z</time>
      </trkpt>
      <trkpt lat="45.92931" lon="4.546">
        <ele>287</ele>
        <time>2025-09-11T08:53:50Z</time>
      </trkpt>
      <trkpt lat="45.92934" lon="4.54598">
        <ele>287.4</ele>
        <time>2025-09-11T08:53:51Z</time>
      </trkpt>
      <trkpt lat="45.92936" lon="4.54595">
        <ele>287.4</ele>
        <time>2025-09-11T08:53:52Z</time>
      </trkpt>
      <trkpt lat="45.92939" lon="4.54594">
        <ele>287.8</ele>
        <time>2025-09-11T08:53:53Z</time>
      </trkpt>
      <trkpt lat="45.92941" lon="4.54592">
        <ele>288.2</ele>
        <time>2025-09-11T08:53:54Z</time>
      </trkpt>
      <trkpt lat="45.92943" lon="4.54591">
        <ele>288.4</ele>
        <time>2025-09-11T08:53:55Z</time>
      </trkpt>
      <trkpt lat="45.92946" lon="4.5459">
        <ele>288.6</ele>
        <time>2025-09-11T08:53:56Z</time>
      </trkpt>
      <trkpt lat="45.92948" lon="4.54589">
        <ele>288.8</ele>
        <time>2025-09-11T08:53:57Z</time>
      </trkpt>
      <trkpt lat="45.92951" lon="4.54588">
        <ele>288.8</ele>
        <time>2025-09-11T08:53:58Z</time>
      </trkpt>
      <trkpt lat="45.92953" lon="4.54588">
        <ele>289.2</ele>
        <time>2025-09-11T08:53:59Z</time>
      </trkpt>
      <trkpt lat="45.92956" lon="4.54587">
        <ele>289.2</ele>
        <time>2025-09-11T08:54:00Z</time>
      </trkpt>
      <trkpt lat="45.92958" lon="4.54586">
        <ele>289.6</ele>
        <time>2025-09-11T08:54:01Z</time>
      </trkpt>
      <trkpt lat="45.9296" lon="4.54586">
        <ele>289.8</ele>
        <time>2025-09-11T08:54:02Z</time>
      </trkpt>
      <trkpt lat="45.92963" lon="4.54586">
        <ele>290.2</ele>
        <time>2025-09-11T08:54:03Z</time>
      </trkpt>
      <trkpt lat="45.92965" lon="4.54586">
        <ele>290.4</ele>
        <time>2025-09-11T08:54:04Z</time>
      </trkpt>
      <trkpt lat="45.92967" lon="4.54585">
        <ele>290.4</ele>
        <time>2025-09-11T08:54:05Z</time>
      </trkpt>
      <trkpt lat="45.92969" lon="4.54584">
        <ele>290.8</ele>
        <time>2025-09-11T08:54:06Z</time>
      </trkpt>
      <trkpt lat="45.92971" lon="4.54584">
        <ele>290.8</ele>
        <time>2025-09-11T08:54:07Z</time>
      </trkpt>
      <trkpt lat="45.92974" lon="4.54582">
        <ele>290.8</ele>
        <time>2025-09-11T08:54:08Z</time>
      </trkpt>
      <trkpt lat="45.92976" lon="4.54581">
        <ele>290.8</ele>
        <time>2025-09-11T08:54:09Z</time>
      </trkpt>
      <trkpt lat="45.92978" lon="4.5458">
        <ele>291.2</ele>
        <time>2025-09-11T08:54:10Z</time>
      </trkpt>
      <trkpt lat="45.9298" lon="4.54578">
        <ele>291.6</ele>
        <time>2025-09-11T08:54:11Z</time>
      </trkpt>
      <trkpt lat="45.92982" lon="4.54578">
        <ele>291.8</ele>
        <time>2025-09-11T08:54:12Z</time>
      </trkpt>
      <trkpt lat="45.92984" lon="4.54577">
        <ele>292</ele>
        <time>2025-09-11T08:54:13Z</time>
      </trkpt>
      <trkpt lat="45.92986" lon="4.54575">
        <ele>292</ele>
        <time>2025-09-11T08:54:14Z</time>
      </trkpt>
      <trkpt lat="45.92988" lon="4.54573">
        <ele>292.6</ele>
        <time>2025-09-11T08:54:15Z</time>
      </trkpt>
      <trkpt lat="45.9299" lon="4.54571">
        <ele>292.6</ele>
        <time>2025-09-11T08:54:16Z</time>
      </trkpt>
      <trkpt lat="45.92992" lon="4.54568">
        <ele>292.8</ele>
        <time>2025-09-11T08:54:17Z</time>
      </trkpt>
      <trkpt lat="45.92993" lon="4.54565">
        <ele>293</ele>
        <time>2025-09-11T08:54:18Z</time>
      </trkpt>
      <trkpt lat="45.92995" lon="4.54563">
        <ele>293</ele>
        <time>2025-09-11T08:54:19Z</time>
      </trkpt>
      <trkpt lat="45.92996" lon="4.5456">
        <ele>293</ele>
        <time>2025-09-11T08:54:20Z</time>
      </trkpt>
      <trkpt lat="45.92997" lon="4.54557">
        <ele>293</ele>
        <time>2025-09-11T08:54:21Z</time>
      </trkpt>
      <trkpt lat="45.92999" lon="4.54554">
        <ele>293.4</ele>
        <time>2025-09-11T08:54:22Z</time>
      </trkpt>
      <trkpt lat="45.93" lon="4.54552">
        <ele>293.4</ele>
        <time>2025-09-11T08:54:23Z</time>
      </trkpt>
      <trkpt lat="45.93001" lon="4.54549">
        <ele>293.6</ele>
        <time>2025-09-11T08:54:24Z</time>
      </trkpt>
      <trkpt lat="45.93003" lon="4.54546">
        <ele>293.6</ele>
        <time>2025-09-11T08:54:25Z</time>
      </trkpt>
      <trkpt lat="45.93004" lon="4.54543">
        <ele>293.6</ele>
        <time>2025-09-11T08:54:26Z</time>
      </trkpt>
      <trkpt lat="45.93006" lon="4.5454">
        <ele>293.6</ele>
        <time>2025-09-11T08:54:27Z</time>
      </trkpt>
      <trkpt lat="45.93007" lon="4.54537">
        <ele>293.6</ele>
        <time>2025-09-11T08:54:28Z</time>
      </trkpt>
      <trkpt lat="45.93009" lon="4.54534">
        <ele>293.6</ele>
        <time>2025-09-11T08:54:29Z</time>
      </trkpt>
      <trkpt lat="45.93011" lon="4.54531">
        <ele>294</ele>
        <time>2025-09-11T08:54:30Z</time>
      </trkpt>
      <trkpt lat="45.93013" lon="4.54528">
        <ele>294</ele>
        <time>2025-09-11T08:54:31Z</time>
      </trkpt>
      <trkpt lat="45.93015" lon="4.54525">
        <ele>294</ele>
        <time>2025-09-11T08:54:32Z</time>
      </trkpt>
      <trkpt lat="45.93017" lon="4.54522">
        <ele>294</ele>
        <time>2025-09-11T08:54:33Z</time>
      </trkpt>
      <trkpt lat="45.93018" lon="4.54519">
        <ele>294.2</ele>
        <time>2025-09-11T08:54:34Z</time>
      </trkpt>
      <trkpt lat="45.9302" lon="4.54517">
        <ele>294.2</ele>
        <time>2025-09-11T08:54:35Z</time>
      </trkpt>
      <trkpt lat="45.93022" lon="4.54515">
        <ele>293.8</ele>
        <time>2025-09-11T08:54:36Z</time>
      </trkpt>
      <trkpt lat="45.93024" lon="4.54513">
        <ele>293.8</ele>
        <time>2025-09-11T08:54:37Z</time>
      </trkpt>
      <trkpt lat="45.93027" lon="4.54511">
        <ele>293.8</ele>
        <time>2025-09-11T08:54:38Z</time>
      </trkpt>
      <trkpt lat="45.93029" lon="4.5451">
        <ele>294</ele>
        <time>2025-09-11T08:54:39Z</time>
      </trkpt>
      <trkpt lat="45.93032" lon="4.54508">
        <ele>293.6</ele>
        <time>2025-09-11T08:54:40Z</time>
      </trkpt>
      <trkpt lat="45.93034" lon="4.54507">
        <ele>294</ele>
        <time>2025-09-11T08:54:41Z</time>
      </trkpt>
      <trkpt lat="45.93037" lon="4.54507">
        <ele>294</ele>
        <time>2025-09-11T08:54:42Z</time>
      </trkpt>
      <trkpt lat="45.9304" lon="4.54507">
        <ele>294</ele>
        <time>2025-09-11T08:54:43Z</time>
      </trkpt>
      <trkpt lat="45.93043" lon="4.54506">
        <ele>294</ele>
        <time>2025-09-11T08:54:44Z</time>
      </trkpt>
      <trkpt lat="45.93046" lon="4.54505">
        <ele>294</ele>
        <time>2025-09-11T08:54:45Z</time>
      </trkpt>
      <trkpt lat="45.93048" lon="4.54504">
        <ele>294</ele>
        <time>2025-09-11T08:54:46Z</time>
      </trkpt>
      <trkpt lat="45.93051" lon="4.54503">
        <ele>294</ele>
        <time>2025-09-11T08:54:47Z</time>
      </trkpt>
      <trkpt lat="45.93054" lon="4.54503">
        <ele>294</ele>
        <time>2025-09-11T08:54:48Z</time>
      </trkpt>
      <trkpt lat="45.93057" lon="4.54502">
        <ele>294</ele>
        <time>2025-09-11T08:54:49Z</time>
      </trkpt>
      <trkpt lat="45.9306" lon="4.54502">
        <ele>294.2</ele>
        <time>2025-09-11T08:54:50Z</time>
      </trkpt>
      <trkpt lat="45.93062" lon="4.54502">
        <ele>294.2</ele>
        <time>2025-09-11T08:54:51Z</time>
      </trkpt>
      <trkpt lat="45.93066" lon="4.54502">
        <ele>294.2</ele>
        <time>2025-09-11T08:54:52Z</time>
      </trkpt>
      <trkpt lat="45.93069" lon="4.54503">
        <ele>294.4</ele>
        <time>2025-09-11T08:54:53Z</time>
      </trkpt>
      <trkpt lat="45.93072" lon="4.54503">
        <ele>294.4</ele>
        <time>2025-09-11T08:54:54Z</time>
      </trkpt>
      <trkpt lat="45.93075" lon="4.54503">
        <ele>294.6</ele>
        <time>2025-09-11T08:54:55Z</time>
      </trkpt>
      <trkpt lat="45.93078" lon="4.54503">
        <ele>294.6</ele>
        <time>2025-09-11T08:54:56Z</time>
      </trkpt>
      <trkpt lat="45.9308" lon="4.54503">
        <ele>295</ele>
        <time>2025-09-11T08:54:57Z</time>
      </trkpt>
      <trkpt lat="45.93083" lon="4.54502">
        <ele>295</ele>
        <time>2025-09-11T08:54:58Z</time>
      </trkpt>
      <trkpt lat="45.93085" lon="4.54502">
        <ele>295.4</ele>
        <time>2025-09-11T08:54:59Z</time>
      </trkpt>
      <trkpt lat="45.93088" lon="4.54501">
        <ele>295.4</ele>
        <time>2025-09-11T08:55:00Z</time>
      </trkpt>
      <trkpt lat="45.9309" lon="4.545">
        <ele>295.4</ele>
        <time>2025-09-11T08:55:01Z</time>
      </trkpt>
      <trkpt lat="45.93093" lon="4.54499">
        <ele>295.4</ele>
        <time>2025-09-11T08:55:02Z</time>
      </trkpt>
      <trkpt lat="45.93096" lon="4.54498">
        <ele>295.6</ele>
        <time>2025-09-11T08:55:03Z</time>
      </trkpt>
      <trkpt lat="45.93099" lon="4.54496">
        <ele>295.6</ele>
        <time>2025-09-11T08:55:04Z</time>
      </trkpt>
      <trkpt lat="45.93101" lon="4.54494">
        <ele>296</ele>
        <time>2025-09-11T08:55:05Z</time>
      </trkpt>
      <trkpt lat="45.93104" lon="4.54491">
        <ele>296</ele>
        <time>2025-09-11T08:55:06Z</time>
      </trkpt>
      <trkpt lat="45.93106" lon="4.54489">
        <ele>296</ele>
        <time>2025-09-11T08:55:07Z</time>
      </trkpt>
      <trkpt lat="45.93108" lon="4.54488">
        <ele>296.4</ele>
        <time>2025-09-11T08:55:08Z</time>
      </trkpt>
      <trkpt lat="45.9311" lon="4.54486">
        <ele>296.4</ele>
        <time>2025-09-11T08:55:09Z</time>
      </trkpt>
      <trkpt lat="45.93112" lon="4.54485">
        <ele>296.8</ele>
        <time>2025-09-11T08:55:10Z</time>
      </trkpt>
      <trkpt lat="45.93114" lon="4.54483">
        <ele>296.8</ele>
        <time>2025-09-11T08:55:11Z</time>
      </trkpt>
      <trkpt lat="45.93116" lon="4.54481">
        <ele>296.8</ele>
        <time>2025-09-11T08:55:12Z</time>
      </trkpt>
      <trkpt lat="45.93118" lon="4.54479">
        <ele>296.8</ele>
        <time>2025-09-11T08:55:13Z</time>
      </trkpt>
      <trkpt lat="45.93119" lon="4.54478">
        <ele>297.2</ele>
        <time>2025-09-11T08:55:14Z</time>
      </trkpt>
      <trkpt lat="45.93121" lon="4.54476">
        <ele>297.2</ele>
        <time>2025-09-11T08:55:15Z</time>
      </trkpt>
      <trkpt lat="45.93123" lon="4.54474">
        <ele>297.2</ele>
        <time>2025-09-11T08:55:16Z</time>
      </trkpt>
      <trkpt lat="45.93124" lon="4.54472">
        <ele>297.4</ele>
        <time>2025-09-11T08:55:17Z</time>
      </trkpt>
      <trkpt lat="45.93126" lon="4.54471">
        <ele>297.4</ele>
        <time>2025-09-11T08:55:18Z</time>
      </trkpt>
      <trkpt lat="45.93128" lon="4.54469">
        <ele>297.8</ele>
        <time>2025-09-11T08:55:19Z</time>
      </trkpt>
      <trkpt lat="45.9313" lon="4.54468">
        <ele>298</ele>
        <time>2025-09-11T08:55:20Z</time>
      </trkpt>
      <trkpt lat="45.93131" lon="4.54466">
        <ele>298.4</ele>
        <time>2025-09-11T08:55:21Z</time>
      </trkpt>
      <trkpt lat="45.93133" lon="4.54464">
        <ele>298.6</ele>
        <time>2025-09-11T08:55:22Z</time>
      </trkpt>
      <trkpt lat="45.93135" lon="4.54463">
        <ele>298.6</ele>
        <time>2025-09-11T08:55:23Z</time>
      </trkpt>
      <trkpt lat="45.93136" lon="4.54461">
        <ele>299</ele>
        <time>2025-09-11T08:55:24Z</time>
      </trkpt>
      <trkpt lat="45.93138" lon="4.5446">
        <ele>299</ele>
        <time>2025-09-11T08:55:25Z</time>
      </trkpt>
      <trkpt lat="45.9314" lon="4.54458">
        <ele>299.2</ele>
        <time>2025-09-11T08:55:26Z</time>
      </trkpt>
      <trkpt lat="45.93142" lon="4.54456">
        <ele>299.2</ele>
        <time>2025-09-11T08:55:27Z</time>
      </trkpt>
      <trkpt lat="45.93143" lon="4.54455">
        <ele>299.6</ele>
        <time>2025-09-11T08:55:28Z</time>
      </trkpt>
      <trkpt lat="45.93145" lon="4.54453">
        <ele>299.6</ele>
        <time>2025-09-11T08:55:29Z</time>
      </trkpt>
      <trkpt lat="45.93146" lon="4.54452">
        <ele>299.6</ele>
        <time>2025-09-11T08:55:30Z</time>
      </trkpt>
      <trkpt lat="45.93148" lon="4.54451">
        <ele>300</ele>
        <time>2025-09-11T08:55:31Z</time>
      </trkpt>
      <trkpt lat="45.9315" lon="4.5445">
        <ele>300</ele>
        <time>2025-09-11T08:55:32Z</time>
      </trkpt>
      <trkpt lat="45.93152" lon="4.54449">
        <ele>300</ele>
        <time>2025-09-11T08:55:33Z</time>
      </trkpt>
      <trkpt lat="45.93154" lon="4.54449">
        <ele>300.4</ele>
        <time>2025-09-11T08:55:34Z</time>
      </trkpt>
      <trkpt lat="45.93155" lon="4.54447">
        <ele>300.4</ele>
        <time>2025-09-11T08:55:35Z</time>
      </trkpt>
      <trkpt lat="45.93156" lon="4.54447">
        <ele>300.4</ele>
        <time>2025-09-11T08:55:36Z</time>
      </trkpt>
      <trkpt lat="45.93156" lon="4.54446">
        <ele>300.6</ele>
        <time>2025-09-11T08:55:37Z</time>
      </trkpt>
      <trkpt lat="45.93156" lon="4.54445">
        <ele>300.6</ele>
        <time>2025-09-11T08:55:38Z</time>
      </trkpt>
      <trkpt lat="45.93156" lon="4.54445">
        <ele>300.6</ele>
        <time>2025-09-11T08:55:39Z</time>
      </trkpt>
      <trkpt lat="45.93157" lon="4.54448">
        <ele>301.2</ele>
        <time>2025-09-11T08:58:32Z</time>
      </trkpt>
      <trkpt lat="45.93159" lon="4.54449">
        <ele>301</ele>
        <time>2025-09-11T08:58:33Z</time>
      </trkpt>
      <trkpt lat="45.93159" lon="4.54449">
        <ele>300.8</ele>
        <time>2025-09-11T08:58:34Z</time>
      </trkpt>
      <trkpt lat="45.93159" lon="4.54449">
        <ele>300.6</ele>
        <time>2025-09-11T08:58:35Z</time>
      </trkpt>
      <trkpt lat="45.93171" lon="4.54448">
        <ele>300.2</ele>
        <time>2025-09-11T08:58:37Z</time>
      </trkpt>
      <trkpt lat="45.93174" lon="4.54448">
        <ele>300</ele>
        <time>2025-09-11T08:58:38Z</time>
      </trkpt>
      <trkpt lat="45.93178" lon="4.54447">
        <ele>299.8</ele>
        <time>2025-09-11T08:58:39Z</time>
      </trkpt>
      <trkpt lat="45.93182" lon="4.54447">
        <ele>299.4</ele>
        <time>2025-09-11T08:58:40Z</time>
      </trkpt>
      <trkpt lat="45.93186" lon="4.54447">
        <ele>299.4</ele>
        <time>2025-09-11T08:58:41Z</time>
      </trkpt>
      <trkpt lat="45.9319" lon="4.54446">
        <ele>299.4</ele>
        <time>2025-09-11T08:58:42Z</time>
      </trkpt>
      <trkpt lat="45.93194" lon="4.54445">
        <ele>299.4</ele>
        <time>2025-09-11T08:58:43Z</time>
      </trkpt>
      <trkpt lat="45.93198" lon="4.54442">
        <ele>299.2</ele>
        <time>2025-09-11T08:58:44Z</time>
      </trkpt>
      <trkpt lat="45.93203" lon="4.54442">
        <ele>299.2</ele>
        <time>2025-09-11T08:58:45Z</time>
      </trkpt>
      <trkpt lat="45.93208" lon="4.54441">
        <ele>299.2</ele>
        <time>2025-09-11T08:58:46Z</time>
      </trkpt>
      <trkpt lat="45.93212" lon="4.5444">
        <ele>299.2</ele>
        <time>2025-09-11T08:58:47Z</time>
      </trkpt>
      <trkpt lat="45.93218" lon="4.54439">
        <ele>299.2</ele>
        <time>2025-09-11T08:58:48Z</time>
      </trkpt>
      <trkpt lat="45.93222" lon="4.54437">
        <ele>299</ele>
        <time>2025-09-11T08:58:49Z</time>
      </trkpt>
      <trkpt lat="45.93227" lon="4.54437">
        <ele>299</ele>
        <time>2025-09-11T08:58:50Z</time>
      </trkpt>
      <trkpt lat="45.93233" lon="4.54436">
        <ele>298.2</ele>
        <time>2025-09-11T08:58:51Z</time>
      </trkpt>
      <trkpt lat="45.93238" lon="4.54434">
        <ele>298</ele>
        <time>2025-09-11T08:58:52Z</time>
      </trkpt>
      <trkpt lat="45.93243" lon="4.54432">
        <ele>297.6</ele>
        <time>2025-09-11T08:58:53Z</time>
      </trkpt>
      <trkpt lat="45.93243" lon="4.54432">
        <ele>297.2</ele>
        <time>2025-09-11T08:58:54Z</time>
      </trkpt>
      <trkpt lat="45.93253" lon="4.54429">
        <ele>296.6</ele>
        <time>2025-09-11T08:58:55Z</time>
      </trkpt>
      <trkpt lat="45.93259" lon="4.54426">
        <ele>296.4</ele>
        <time>2025-09-11T08:58:56Z</time>
      </trkpt>
      <trkpt lat="45.93265" lon="4.54423">
        <ele>295.6</ele>
        <time>2025-09-11T08:58:57Z</time>
      </trkpt>
      <trkpt lat="45.9327" lon="4.5442">
        <ele>295.4</ele>
        <time>2025-09-11T08:58:58Z</time>
      </trkpt>
      <trkpt lat="45.93278" lon="4.54415">
        <ele>294.8</ele>
        <time>2025-09-11T08:58:59Z</time>
      </trkpt>
      <trkpt lat="45.93284" lon="4.54409">
        <ele>294.2</ele>
        <time>2025-09-11T08:59:00Z</time>
      </trkpt>
      <trkpt lat="45.9329" lon="4.54404">
        <ele>294</ele>
        <time>2025-09-11T08:59:01Z</time>
      </trkpt>
      <trkpt lat="45.93295" lon="4.54398">
        <ele>293.6</ele>
        <time>2025-09-11T08:59:02Z</time>
      </trkpt>
      <trkpt lat="45.93301" lon="4.54393">
        <ele>293.6</ele>
        <time>2025-09-11T08:59:03Z</time>
      </trkpt>
      <trkpt lat="45.93306" lon="4.54388">
        <ele>293.6</ele>
        <time>2025-09-11T08:59:04Z</time>
      </trkpt>
      <trkpt lat="45.9331" lon="4.54383">
        <ele>294</ele>
        <time>2025-09-11T08:59:05Z</time>
      </trkpt>
      <trkpt lat="45.93314" lon="4.54377">
        <ele>294.4</ele>
        <time>2025-09-11T08:59:06Z</time>
      </trkpt>
      <trkpt lat="45.93317" lon="4.54373">
        <ele>294.4</ele>
        <time>2025-09-11T08:59:07Z</time>
      </trkpt>
      <trkpt lat="45.9332" lon="4.54369">
        <ele>294.4</ele>
        <time>2025-09-11T08:59:08Z</time>
      </trkpt>
      <trkpt lat="45.93323" lon="4.54365">
        <ele>294.6</ele>
        <time>2025-09-11T08:59:09Z</time>
      </trkpt>
      <trkpt lat="45.93326" lon="4.54362">
        <ele>294.8</ele>
        <time>2025-09-11T08:59:10Z</time>
      </trkpt>
      <trkpt lat="45.93325" lon="4.54359">
        <ele>294.8</ele>
        <time>2025-09-11T08:59:11Z</time>
      </trkpt>
      <trkpt lat="45.93326" lon="4.54356">
        <ele>295.2</ele>
        <time>2025-09-11T08:59:12Z</time>
      </trkpt>
      <trkpt lat="45.93326" lon="4.54353">
        <ele>295.4</ele>
        <time>2025-09-11T08:59:13Z</time>
      </trkpt>
      <trkpt lat="45.93327" lon="4.54352">
        <ele>295.6</ele>
        <time>2025-09-11T08:59:14Z</time>
      </trkpt>
      <trkpt lat="45.93327" lon="4.54349">
        <ele>295.6</ele>
        <time>2025-09-11T08:59:15Z</time>
      </trkpt>
      <trkpt lat="45.93327" lon="4.54346">
        <ele>295.6</ele>
        <time>2025-09-11T08:59:16Z</time>
      </trkpt>
      <trkpt lat="45.93328" lon="4.54344">
        <ele>296</ele>
        <time>2025-09-11T08:59:17Z</time>
      </trkpt>
      <trkpt lat="45.93328" lon="4.54341">
        <ele>296</ele>
        <time>2025-09-11T08:59:18Z</time>
      </trkpt>
      <trkpt lat="45.93328" lon="4.54338">
        <ele>296</ele>
        <time>2025-09-11T08:59:19Z</time>
      </trkpt>
      <trkpt lat="45.93329" lon="4.54335">
        <ele>296.4</ele>
        <time>2025-09-11T08:59:20Z</time>
      </trkpt>
      <trkpt lat="45.93329" lon="4.54333">
        <ele>296.6</ele>
        <time>2025-09-11T08:59:21Z</time>
      </trkpt>
      <trkpt lat="45.9333" lon="4.5433">
        <ele>296.8</ele>
        <time>2025-09-11T08:59:22Z</time>
      </trkpt>
      <trkpt lat="45.9333" lon="4.54328">
        <ele>296.8</ele>
        <time>2025-09-11T08:59:23Z</time>
      </trkpt>
      <trkpt lat="45.93331" lon="4.54325">
        <ele>297.2</ele>
        <time>2025-09-11T08:59:24Z</time>
      </trkpt>
      <trkpt lat="45.93331" lon="4.54322">
        <ele>297.2</ele>
        <time>2025-09-11T08:59:25Z</time>
      </trkpt>
      <trkpt lat="45.93331" lon="4.54319">
        <ele>297.4</ele>
        <time>2025-09-11T08:59:26Z</time>
      </trkpt>
      <trkpt lat="45.9333" lon="4.54317">
        <ele>297.4</ele>
        <time>2025-09-11T08:59:27Z</time>
      </trkpt>
      <trkpt lat="45.9333" lon="4.54314">
        <ele>297.6</ele>
        <time>2025-09-11T08:59:28Z</time>
      </trkpt>
      <trkpt lat="45.93331" lon="4.54312">
        <ele>297.6</ele>
        <time>2025-09-11T08:59:29Z</time>
      </trkpt>
      <trkpt lat="45.93331" lon="4.5431">
        <ele>297.6</ele>
        <time>2025-09-11T08:59:30Z</time>
      </trkpt>
      <trkpt lat="45.9333" lon="4.54307">
        <ele>297.8</ele>
        <time>2025-09-11T08:59:31Z</time>
      </trkpt>
      <trkpt lat="45.93331" lon="4.54305">
        <ele>297.8</ele>
        <time>2025-09-11T08:59:32Z</time>
      </trkpt>
      <trkpt lat="45.93331" lon="4.54303">
        <ele>298.2</ele>
        <time>2025-09-11T08:59:33Z</time>
      </trkpt>
      <trkpt lat="45.93331" lon="4.54301">
        <ele>298.4</ele>
        <time>2025-09-11T08:59:34Z</time>
      </trkpt>
      <trkpt lat="45.93331" lon="4.54299">
        <ele>298.4</ele>
        <time>2025-09-11T08:59:35Z</time>
      </trkpt>
      <trkpt lat="45.93331" lon="4.54297">
        <ele>298.8</ele>
        <time>2025-09-11T08:59:36Z</time>
      </trkpt>
      <trkpt lat="45.93331" lon="4.54295">
        <ele>298.8</ele>
        <time>2025-09-11T08:59:37Z</time>
      </trkpt>
      <trkpt lat="45.93332" lon="4.54292">
        <ele>299.2</ele>
        <time>2025-09-11T08:59:38Z</time>
      </trkpt>
      <trkpt lat="45.93332" lon="4.54291">
        <ele>299.4</ele>
        <time>2025-09-11T08:59:39Z</time>
      </trkpt>
      <trkpt lat="45.93332" lon="4.54289">
        <ele>299.4</ele>
        <time>2025-09-11T08:59:40Z</time>
      </trkpt>
      <trkpt lat="45.93332" lon="4.54287">
        <ele>299.6</ele>
        <time>2025-09-11T08:59:41Z</time>
      </trkpt>
      <trkpt lat="45.93332" lon="4.54285">
        <ele>299.8</ele>
        <time>2025-09-11T08:59:42Z</time>
      </trkpt>
      <trkpt lat="45.93332" lon="4.54283">
        <ele>299.8</ele>
        <time>2025-09-11T08:59:43Z</time>
      </trkpt>
      <trkpt lat="45.93333" lon="4.54281">
        <ele>300.2</ele>
        <time>2025-09-11T08:59:44Z</time>
      </trkpt>
      <trkpt lat="45.93333" lon="4.5428">
        <ele>300.4</ele>
        <time>2025-09-11T08:59:45Z</time>
      </trkpt>
      <trkpt lat="45.93333" lon="4.54278">
        <ele>300.6</ele>
        <time>2025-09-11T08:59:46Z</time>
      </trkpt>
      <trkpt lat="45.93333" lon="4.54276">
        <ele>300.6</ele>
        <time>2025-09-11T08:59:47Z</time>
      </trkpt>
      <trkpt lat="45.93333" lon="4.54275">
        <ele>301</ele>
        <time>2025-09-11T08:59:48Z</time>
      </trkpt>
      <trkpt lat="45.93333" lon="4.54273">
        <ele>301</ele>
        <time>2025-09-11T08:59:49Z</time>
      </trkpt>
      <trkpt lat="45.93334" lon="4.54271">
        <ele>301.4</ele>
        <time>2025-09-11T08:59:50Z</time>
      </trkpt>
      <trkpt lat="45.93334" lon="4.54269">
        <ele>301.4</ele>
        <time>2025-09-11T08:59:51Z</time>
      </trkpt>
      <trkpt lat="45.93334" lon="4.54268">
        <ele>301.6</ele>
        <time>2025-09-11T08:59:52Z</time>
      </trkpt>
      <trkpt lat="45.93334" lon="4.54266">
        <ele>301.6</ele>
        <time>2025-09-11T08:59:53Z</time>
      </trkpt>
      <trkpt lat="45.93334" lon="4.54264">
        <ele>302</ele>
        <time>2025-09-11T08:59:54Z</time>
      </trkpt>
      <trkpt lat="45.93334" lon="4.54263">
        <ele>302</ele>
        <time>2025-09-11T08:59:55Z</time>
      </trkpt>
      <trkpt lat="45.93334" lon="4.54261">
        <ele>302.2</ele>
        <time>2025-09-11T08:59:56Z</time>
      </trkpt>
      <trkpt lat="45.93334" lon="4.54259">
        <ele>302.2</ele>
        <time>2025-09-11T08:59:57Z</time>
      </trkpt>
      <trkpt lat="45.93335" lon="4.54258">
        <ele>302.2</ele>
        <time>2025-09-11T08:59:58Z</time>
      </trkpt>
      <trkpt lat="45.93335" lon="4.54256">
        <ele>302.6</ele>
        <time>2025-09-11T08:59:59Z</time>
      </trkpt>
      <trkpt lat="45.93335" lon="4.54254">
        <ele>303</ele>
        <time>2025-09-11T09:00:00Z</time>
      </trkpt>
      <trkpt lat="45.93336" lon="4.54253">
        <ele>303.4</ele>
        <time>2025-09-11T09:00:01Z</time>
      </trkpt>
      <trkpt lat="45.93336" lon="4.54252">
        <ele>303.4</ele>
        <time>2025-09-11T09:00:02Z</time>
      </trkpt>
      <trkpt lat="45.93336" lon="4.5425">
        <ele>303.4</ele>
        <time>2025-09-11T09:00:03Z</time>
      </trkpt>
      <trkpt lat="45.93336" lon="4.54249">
        <ele>303.6</ele>
        <time>2025-09-11T09:00:04Z</time>
      </trkpt>
      <trkpt lat="45.93336" lon="4.54247">
        <ele>303.6</ele>
        <time>2025-09-11T09:00:05Z</time>
      </trkpt>
      <trkpt lat="45.93337" lon="4.54246">
        <ele>304</ele>
        <time>2025-09-11T09:00:06Z</time>
      </trkpt>
      <trkpt lat="45.93337" lon="4.54245">
        <ele>304</ele>
        <time>2025-09-11T09:00:07Z</time>
      </trkpt>
      <trkpt lat="45.93338" lon="4.54243">
        <ele>304.2</ele>
        <time>2025-09-11T09:00:08Z</time>
      </trkpt>
      <trkpt lat="45.93339" lon="4.54242">
        <ele>304.2</ele>
        <time>2025-09-11T09:00:09Z</time>
      </trkpt>
      <trkpt lat="45.93339" lon="4.5424">
        <ele>304.4</ele>
        <time>2025-09-11T09:00:10Z</time>
      </trkpt>
      <trkpt lat="45.93339" lon="4.54239">
        <ele>304.4</ele>
        <time>2025-09-11T09:00:11Z</time>
      </trkpt>
      <trkpt lat="45.93339" lon="4.54237">
        <ele>304.8</ele>
        <time>2025-09-11T09:00:12Z</time>
      </trkpt>
      <trkpt lat="45.9334" lon="4.54235">
        <ele>304.8</ele>
        <time>2025-09-11T09:00:13Z</time>
      </trkpt>
      <trkpt lat="45.93341" lon="4.54234">
        <ele>305</ele>
        <time>2025-09-11T09:00:14Z</time>
      </trkpt>
      <trkpt lat="45.93342" lon="4.54232">
        <ele>305</ele>
        <time>2025-09-11T09:00:15Z</time>
      </trkpt>
      <trkpt lat="45.93343" lon="4.54231">
        <ele>305.2</ele>
        <time>2025-09-11T09:00:16Z</time>
      </trkpt>
      <trkpt lat="45.93344" lon="4.5423">
        <ele>305.2</ele>
        <time>2025-09-11T09:00:17Z</time>
      </trkpt>
      <trkpt lat="45.93344" lon="4.54229">
        <ele>305.2</ele>
        <time>2025-09-11T09:00:18Z</time>
      </trkpt>
      <trkpt lat="45.93344" lon="4.54229">
        <ele>305.6</ele>
        <time>2025-09-11T09:00:19Z</time>
      </trkpt>
      <trkpt lat="45.93346" lon="4.54227">
        <ele>305.2</ele>
        <time>2025-09-11T09:02:28Z</time>
      </trkpt>
      <trkpt lat="45.93347" lon="4.54226">
        <ele>305.2</ele>
        <time>2025-09-11T09:02:29Z</time>
      </trkpt>
      <trkpt lat="45.93347" lon="4.54225">
        <ele>305.2</ele>
        <time>2025-09-11T09:02:30Z</time>
      </trkpt>
      <trkpt lat="45.93348" lon="4.54225">
        <ele>305.2</ele>
        <time>2025-09-11T09:02:31Z</time>
      </trkpt>
      <trkpt lat="45.93348" lon="4.54225">
        <ele>305.2</ele>
        <time>2025-09-11T09:02:32Z</time>
      </trkpt>
      <trkpt lat="45.93348" lon="4.54227">
        <ele>305</ele>
        <time>2025-09-11T09:02:58Z</time>
      </trkpt>
      <trkpt lat="45.93349" lon="4.54226">
        <ele>305</ele>
        <time>2025-09-11T09:02:59Z</time>
      </trkpt>
      <trkpt lat="45.93351" lon="4.54225">
        <ele>305</ele>
        <time>2025-09-11T09:03:00Z</time>
      </trkpt>
      <trkpt lat="45.93353" lon="4.54225">
        <ele>305</ele>
        <time>2025-09-11T09:03:01Z</time>
      </trkpt>
      <trkpt lat="45.93356" lon="4.54224">
        <ele>305</ele>
        <time>2025-09-11T09:03:02Z</time>
      </trkpt>
      <trkpt lat="45.93359" lon="4.54223">
        <ele>305</ele>
        <time>2025-09-11T09:03:03Z</time>
      </trkpt>
      <trkpt lat="45.93362" lon="4.54222">
        <ele>304.6</ele>
        <time>2025-09-11T09:03:04Z</time>
      </trkpt>
      <trkpt lat="45.93366" lon="4.5422">
        <ele>304.6</ele>
        <time>2025-09-11T09:03:05Z</time>
      </trkpt>
      <trkpt lat="45.9337" lon="4.54218">
        <ele>304.6</ele>
        <time>2025-09-11T09:03:06Z</time>
      </trkpt>
      <trkpt lat="45.93375" lon="4.54216">
        <ele>304.2</ele>
        <time>2025-09-11T09:03:07Z</time>
      </trkpt>
      <trkpt lat="45.9338" lon="4.54215">
        <ele>304.2</ele>
        <time>2025-09-11T09:03:08Z</time>
      </trkpt>
      <trkpt lat="45.93386" lon="4.54213">
        <ele>304</ele>
        <time>2025-09-11T09:03:09Z</time>
      </trkpt>
      <trkpt lat="45.93391" lon="4.5421">
        <ele>304</ele>
        <time>2025-09-11T09:03:10Z</time>
      </trkpt>
      <trkpt lat="45.93397" lon="4.54208">
        <ele>303.4</ele>
        <time>2025-09-11T09:03:11Z</time>
      </trkpt>
      <trkpt lat="45.93403" lon="4.54206">
        <ele>303</ele>
        <time>2025-09-11T09:03:12Z</time>
      </trkpt>
      <trkpt lat="45.93409" lon="4.54203">
        <ele>302.6</ele>
        <time>2025-09-11T09:03:13Z</time>
      </trkpt>
      <trkpt lat="45.93416" lon="4.54201">
        <ele>302.2</ele>
        <time>2025-09-11T09:03:14Z</time>
      </trkpt>
      <trkpt lat="45.93422" lon="4.54198">
        <ele>302.2</ele>
        <time>2025-09-11T09:03:15Z</time>
      </trkpt>
      <trkpt lat="45.93429" lon="4.54197">
        <ele>301.6</ele>
        <time>2025-09-11T09:03:16Z</time>
      </trkpt>
      <trkpt lat="45.93435" lon="4.54195">
        <ele>301.6</ele>
        <time>2025-09-11T09:03:17Z</time>
      </trkpt>
      <trkpt lat="45.93442" lon="4.54194">
        <ele>301.4</ele>
        <time>2025-09-11T09:03:18Z</time>
      </trkpt>
      <trkpt lat="45.93448" lon="4.54193">
        <ele>301.2</ele>
        <time>2025-09-11T09:03:19Z</time>
      </trkpt>
      <trkpt lat="45.93453" lon="4.54192">
        <ele>300.8</ele>
        <time>2025-09-11T09:03:20Z</time>
      </trkpt>
      <trkpt lat="45.93457" lon="4.54191">
        <ele>300.6</ele>
        <time>2025-09-11T09:03:21Z</time>
      </trkpt>
      <trkpt lat="45.93459" lon="4.54189">
        <ele>300.2</ele>
        <time>2025-09-11T09:03:22Z</time>
      </trkpt>
      <trkpt lat="45.93461" lon="4.54187">
        <ele>300.2</ele>
        <time>2025-09-11T09:03:23Z</time>
      </trkpt>
      <trkpt lat="45.93462" lon="4.54185">
        <ele>300.2</ele>
        <time>2025-09-11T09:03:24Z</time>
      </trkpt>
      <trkpt lat="45.93463" lon="4.54185">
        <ele>300</ele>
        <time>2025-09-11T09:03:25Z</time>
      </trkpt>
      <trkpt lat="45.93464" lon="4.54185">
        <ele>300</ele>
        <time>2025-09-11T09:03:26Z</time>
      </trkpt>
      <trkpt lat="45.93465" lon="4.54185">
        <ele>300</ele>
        <time>2025-09-11T09:03:27Z</time>
      </trkpt>
      <trkpt lat="45.93465" lon="4.54185">
        <ele>300</ele>
        <time>2025-09-11T09:03:28Z</time>
      </trkpt>
      <trkpt lat="45.93466" lon="4.54183">
        <ele>299.8</ele>
        <time>2025-09-11T09:03:50Z</time>
      </trkpt>
      <trkpt lat="45.93469" lon="4.54183">
        <ele>299.4</ele>
        <time>2025-09-11T09:03:51Z</time>
      </trkpt>
      <trkpt lat="45.93472" lon="4.54183">
        <ele>299.4</ele>
        <time>2025-09-11T09:03:52Z</time>
      </trkpt>
      <trkpt lat="45.93475" lon="4.54183">
        <ele>299.2</ele>
        <time>2025-09-11T09:03:53Z</time>
      </trkpt>
      <trkpt lat="45.93478" lon="4.54183">
        <ele>299.2</ele>
        <time>2025-09-11T09:03:54Z</time>
      </trkpt>
      <trkpt lat="45.93482" lon="4.54182">
        <ele>299</ele>
        <time>2025-09-11T09:03:55Z</time>
      </trkpt>
      <trkpt lat="45.93486" lon="4.54182">
        <ele>299</ele>
        <time>2025-09-11T09:03:56Z</time>
      </trkpt>
      <trkpt lat="45.93491" lon="4.54181">
        <ele>298.6</ele>
        <time>2025-09-11T09:03:57Z</time>
      </trkpt>
      <trkpt lat="45.93495" lon="4.54181">
        <ele>298.4</ele>
        <time>2025-09-11T09:03:58Z</time>
      </trkpt>
      <trkpt lat="45.93501" lon="4.54182">
        <ele>297.8</ele>
        <time>2025-09-11T09:03:59Z</time>
      </trkpt>
      <trkpt lat="45.93506" lon="4.54184">
        <ele>297.4</ele>
        <time>2025-09-11T09:04:00Z</time>
      </trkpt>
      <trkpt lat="45.93513" lon="4.54183">
        <ele>297.2</ele>
        <time>2025-09-11T09:04:01Z</time>
      </trkpt>
      <trkpt lat="45.93519" lon="4.54184">
        <ele>297.2</ele>
        <time>2025-09-11T09:04:02Z</time>
      </trkpt>
      <trkpt lat="45.93526" lon="4.54185">
        <ele>297.2</ele>
        <time>2025-09-11T09:04:03Z</time>
      </trkpt>
      <trkpt lat="45.93532" lon="4.54185">
        <ele>296.8</ele>
        <time>2025-09-11T09:04:04Z</time>
      </trkpt>
      <trkpt lat="45.93538" lon="4.54185">
        <ele>296.6</ele>
        <time>2025-09-11T09:04:05Z</time>
      </trkpt>
      <trkpt lat="45.93544" lon="4.54185">
        <ele>296.4</ele>
        <time>2025-09-11T09:04:06Z</time>
      </trkpt>
      <trkpt lat="45.9355" lon="4.54185">
        <ele>296.6</ele>
        <time>2025-09-11T09:04:07Z</time>
      </trkpt>
      <trkpt lat="45.93556" lon="4.54185">
        <ele>296.6</ele>
        <time>2025-09-11T09:04:08Z</time>
      </trkpt>
      <trkpt lat="45.93563" lon="4.54184">
        <ele>296.2</ele>
        <time>2025-09-11T09:04:09Z</time>
      </trkpt>
      <trkpt lat="45.9357" lon="4.54184">
        <ele>295.8</ele>
        <time>2025-09-11T09:04:10Z</time>
      </trkpt>
      <trkpt lat="45.93575" lon="4.54183">
        <ele>295.8</ele>
        <time>2025-09-11T09:04:11Z</time>
      </trkpt>
      <trkpt lat="45.93581" lon="4.54182">
        <ele>295.8</ele>
        <time>2025-09-11T09:04:12Z</time>
      </trkpt>
      <trkpt lat="45.93588" lon="4.54182">
        <ele>295.8</ele>
        <time>2025-09-11T09:04:13Z</time>
      </trkpt>
      <trkpt lat="45.93594" lon="4.5418">
        <ele>295.6</ele>
        <time>2025-09-11T09:04:14Z</time>
      </trkpt>
      <trkpt lat="45.93599" lon="4.54179">
        <ele>295.6</ele>
        <time>2025-09-11T09:04:15Z</time>
      </trkpt>
      <trkpt lat="45.93605" lon="4.54178">
        <ele>295.2</ele>
        <time>2025-09-11T09:04:16Z</time>
      </trkpt>
      <trkpt lat="45.9361" lon="4.54177">
        <ele>295.2</ele>
        <time>2025-09-11T09:04:17Z</time>
      </trkpt>
      <trkpt lat="45.93615" lon="4.54175">
        <ele>295</ele>
        <time>2025-09-11T09:04:18Z</time>
      </trkpt>
      <trkpt lat="45.9362" lon="4.54173">
        <ele>295</ele>
        <time>2025-09-11T09:04:19Z</time>
      </trkpt>
      <trkpt lat="45.93625" lon="4.54172">
        <ele>295</ele>
        <time>2025-09-11T09:04:20Z</time>
      </trkpt>
      <trkpt lat="45.9363" lon="4.5417">
        <ele>294.8</ele>
        <time>2025-09-11T09:04:21Z</time>
      </trkpt>
      <trkpt lat="45.93635" lon="4.54167">
        <ele>294.8</ele>
        <time>2025-09-11T09:04:22Z</time>
      </trkpt>
      <trkpt lat="45.93639" lon="4.54164">
        <ele>294.8</ele>
        <time>2025-09-11T09:04:23Z</time>
      </trkpt>
      <trkpt lat="45.93643" lon="4.54159">
        <ele>294.8</ele>
        <time>2025-09-11T09:04:24Z</time>
      </trkpt>
      <trkpt lat="45.93648" lon="4.54156">
        <ele>294.8</ele>
        <time>2025-09-11T09:04:25Z</time>
      </trkpt>
      <trkpt lat="45.93651" lon="4.54151">
        <ele>294.8</ele>
        <time>2025-09-11T09:04:26Z</time>
      </trkpt>
      <trkpt lat="45.93656" lon="4.54149">
        <ele>294.8</ele>
        <time>2025-09-11T09:04:27Z</time>
      </trkpt>
      <trkpt lat="45.9366" lon="4.54146">
        <ele>294.8</ele>
        <time>2025-09-11T09:04:28Z</time>
      </trkpt>
      <trkpt lat="45.93664" lon="4.54143">
        <ele>294.8</ele>
        <time>2025-09-11T09:04:29Z</time>
      </trkpt>
      <trkpt lat="45.93668" lon="4.54139">
        <ele>295</ele>
        <time>2025-09-11T09:04:30Z</time>
      </trkpt>
      <trkpt lat="45.93672" lon="4.54136">
        <ele>295.4</ele>
        <time>2025-09-11T09:04:31Z</time>
      </trkpt>
      <trkpt lat="45.93676" lon="4.54133">
        <ele>295.4</ele>
        <time>2025-09-11T09:04:32Z</time>
      </trkpt>
      <trkpt lat="45.9368" lon="4.54131">
        <ele>295.6</ele>
        <time>2025-09-11T09:04:33Z</time>
      </trkpt>
      <trkpt lat="45.93684" lon="4.54129">
        <ele>295.6</ele>
        <time>2025-09-11T09:04:34Z</time>
      </trkpt>
      <trkpt lat="45.93687" lon="4.54126">
        <ele>295.6</ele>
        <time>2025-09-11T09:04:35Z</time>
      </trkpt>
      <trkpt lat="45.93692" lon="4.54124">
        <ele>295.6</ele>
        <time>2025-09-11T09:04:36Z</time>
      </trkpt>
      <trkpt lat="45.93695" lon="4.54121">
        <ele>295.6</ele>
        <time>2025-09-11T09:04:37Z</time>
      </trkpt>
      <trkpt lat="45.937" lon="4.5412">
        <ele>295.6</ele>
        <time>2025-09-11T09:04:38Z</time>
      </trkpt>
      <trkpt lat="45.93703" lon="4.54118">
        <ele>295.8</ele>
        <time>2025-09-11T09:04:39Z</time>
      </trkpt>
      <trkpt lat="45.93707" lon="4.54117">
        <ele>296.2</ele>
        <time>2025-09-11T09:04:40Z</time>
      </trkpt>
      <trkpt lat="45.9371" lon="4.54116">
        <ele>296.6</ele>
        <time>2025-09-11T09:04:41Z</time>
      </trkpt>
      <trkpt lat="45.93713" lon="4.54114">
        <ele>296.8</ele>
        <time>2025-09-11T09:04:42Z</time>
      </trkpt>
      <trkpt lat="45.93716" lon="4.54112">
        <ele>297.2</ele>
        <time>2025-09-11T09:04:43Z</time>
      </trkpt>
      <trkpt lat="45.93719" lon="4.54111">
        <ele>297.4</ele>
        <time>2025-09-11T09:04:44Z</time>
      </trkpt>
      <trkpt lat="45.93721" lon="4.54109">
        <ele>297.8</ele>
        <time>2025-09-11T09:04:45Z</time>
      </trkpt>
      <trkpt lat="45.93724" lon="4.54109">
        <ele>298</ele>
        <time>2025-09-11T09:04:46Z</time>
      </trkpt>
      <trkpt lat="45.93726" lon="4.54108">
        <ele>298</ele>
        <time>2025-09-11T09:04:47Z</time>
      </trkpt>
      <trkpt lat="45.93729" lon="4.54107">
        <ele>298.4</ele>
        <time>2025-09-11T09:04:48Z</time>
      </trkpt>
      <trkpt lat="45.93732" lon="4.54106">
        <ele>298.4</ele>
        <time>2025-09-11T09:04:49Z</time>
      </trkpt>
      <trkpt lat="45.93735" lon="4.54104">
        <ele>298.6</ele>
        <time>2025-09-11T09:04:50Z</time>
      </trkpt>
      <trkpt lat="45.93737" lon="4.54103">
        <ele>298.6</ele>
        <time>2025-09-11T09:04:51Z</time>
      </trkpt>
      <trkpt lat="45.9374" lon="4.54101">
        <ele>299</ele>
        <time>2025-09-11T09:04:52Z</time>
      </trkpt>
      <trkpt lat="45.93742" lon="4.541">
        <ele>299</ele>
        <time>2025-09-11T09:04:53Z</time>
      </trkpt>
      <trkpt lat="45.93748" lon="4.54097">
        <ele>299</ele>
        <time>2025-09-11T09:04:54Z</time>
      </trkpt>
      <trkpt lat="45.93751" lon="4.54096">
        <ele>299.4</ele>
        <time>2025-09-11T09:04:55Z</time>
      </trkpt>
      <trkpt lat="45.93753" lon="4.54095">
        <ele>299.4</ele>
        <time>2025-09-11T09:04:56Z</time>
      </trkpt>
      <trkpt lat="45.93755" lon="4.54093">
        <ele>299.6</ele>
        <time>2025-09-11T09:04:57Z</time>
      </trkpt>
      <trkpt lat="45.93757" lon="4.54091">
        <ele>299.6</ele>
        <time>2025-09-11T09:04:58Z</time>
      </trkpt>
      <trkpt lat="45.9376" lon="4.5409">
        <ele>299.6</ele>
        <time>2025-09-11T09:04:59Z</time>
      </trkpt>
      <trkpt lat="45.93762" lon="4.54088">
        <ele>299.8</ele>
        <time>2025-09-11T09:05:00Z</time>
      </trkpt>
      <trkpt lat="45.93765" lon="4.54087">
        <ele>299.8</ele>
        <time>2025-09-11T09:05:01Z</time>
      </trkpt>
      <trkpt lat="45.93768" lon="4.54085">
        <ele>299.8</ele>
        <time>2025-09-11T09:05:02Z</time>
      </trkpt>
      <trkpt lat="45.93772" lon="4.54083">
        <ele>299.8</ele>
        <time>2025-09-11T09:05:03Z</time>
      </trkpt>
      <trkpt lat="45.93776" lon="4.54081">
        <ele>299.8</ele>
        <time>2025-09-11T09:05:04Z</time>
      </trkpt>
      <trkpt lat="45.93779" lon="4.54078">
        <ele>299.8</ele>
        <time>2025-09-11T09:05:05Z</time>
      </trkpt>
      <trkpt lat="45.93783" lon="4.54075">
        <ele>299.6</ele>
        <time>2025-09-11T09:05:06Z</time>
      </trkpt>
      <trkpt lat="45.93788" lon="4.54072">
        <ele>299.6</ele>
        <time>2025-09-11T09:05:07Z</time>
      </trkpt>
      <trkpt lat="45.93792" lon="4.54069">
        <ele>299.6</ele>
        <time>2025-09-11T09:05:08Z</time>
      </trkpt>
      <trkpt lat="45.93797" lon="4.54065">
        <ele>299.6</ele>
        <time>2025-09-11T09:05:09Z</time>
      </trkpt>
      <trkpt lat="45.93801" lon="4.54061">
        <ele>299.4</ele>
        <time>2025-09-11T09:05:10Z</time>
      </trkpt>
      <trkpt lat="45.93806" lon="4.54057">
        <ele>299.4</ele>
        <time>2025-09-11T09:05:11Z</time>
      </trkpt>
      <trkpt lat="45.9381" lon="4.54053">
        <ele>299</ele>
        <time>2025-09-11T09:05:12Z</time>
      </trkpt>
      <trkpt lat="45.93815" lon="4.54048">
        <ele>299</ele>
        <time>2025-09-11T09:05:13Z</time>
      </trkpt>
      <trkpt lat="45.93819" lon="4.54043">
        <ele>298.8</ele>
        <time>2025-09-11T09:05:14Z</time>
      </trkpt>
      <trkpt lat="45.93824" lon="4.54038">
        <ele>298.8</ele>
        <time>2025-09-11T09:05:15Z</time>
      </trkpt>
      <trkpt lat="45.93828" lon="4.54033">
        <ele>298.8</ele>
        <time>2025-09-11T09:05:16Z</time>
      </trkpt>
      <trkpt lat="45.93833" lon="4.54029">
        <ele>298.8</ele>
        <time>2025-09-11T09:05:17Z</time>
      </trkpt>
      <trkpt lat="45.93837" lon="4.54023">
        <ele>298.4</ele>
        <time>2025-09-11T09:05:18Z</time>
      </trkpt>
      <trkpt lat="45.93842" lon="4.54017">
        <ele>298.4</ele>
        <time>2025-09-11T09:05:19Z</time>
      </trkpt>
      <trkpt lat="45.93847" lon="4.54012">
        <ele>298.2</ele>
        <time>2025-09-11T09:05:20Z</time>
      </trkpt>
      <trkpt lat="45.93852" lon="4.54006">
        <ele>298</ele>
        <time>2025-09-11T09:05:21Z</time>
      </trkpt>
      <trkpt lat="45.93857" lon="4.54">
        <ele>298</ele>
        <time>2025-09-11T09:05:22Z</time>
      </trkpt>
      <trkpt lat="45.93863" lon="4.53994">
        <ele>297.4</ele>
        <time>2025-09-11T09:05:23Z</time>
      </trkpt>
      <trkpt lat="45.93868" lon="4.53988">
        <ele>297.2</ele>
        <time>2025-09-11T09:05:24Z</time>
      </trkpt>
      <trkpt lat="45.93873" lon="4.53981">
        <ele>297.2</ele>
        <time>2025-09-11T09:05:25Z</time>
      </trkpt>
      <trkpt lat="45.93879" lon="4.53974">
        <ele>297</ele>
        <time>2025-09-11T09:05:26Z</time>
      </trkpt>
      <trkpt lat="45.93885" lon="4.53968">
        <ele>296.6</ele>
        <time>2025-09-11T09:05:27Z</time>
      </trkpt>
      <trkpt lat="45.93891" lon="4.53961">
        <ele>296.2</ele>
        <time>2025-09-11T09:05:28Z</time>
      </trkpt>
      <trkpt lat="45.93897" lon="4.53954">
        <ele>296.2</ele>
        <time>2025-09-11T09:05:29Z</time>
      </trkpt>
      <trkpt lat="45.93903" lon="4.53947">
        <ele>295.8</ele>
        <time>2025-09-11T09:05:30Z</time>
      </trkpt>
      <trkpt lat="45.93909" lon="4.53939">
        <ele>295.4</ele>
        <time>2025-09-11T09:05:31Z</time>
      </trkpt>
      <trkpt lat="45.93909" lon="4.53939">
        <ele>295.4</ele>
        <time>2025-09-11T09:05:32Z</time>
      </trkpt>
      <trkpt lat="45.93914" lon="4.5393">
        <ele>294.8</ele>
        <time>2025-09-11T09:05:33Z</time>
      </trkpt>
      <trkpt lat="45.9392" lon="4.53921">
        <ele>294.4</ele>
        <time>2025-09-11T09:05:34Z</time>
      </trkpt>
      <trkpt lat="45.93925" lon="4.53912">
        <ele>294</ele>
        <time>2025-09-11T09:05:35Z</time>
      </trkpt>
      <trkpt lat="45.93931" lon="4.53903">
        <ele>293.6</ele>
        <time>2025-09-11T09:05:36Z</time>
      </trkpt>
      <trkpt lat="45.93936" lon="4.53893">
        <ele>292.6</ele>
        <time>2025-09-11T09:05:37Z</time>
      </trkpt>
      <trkpt lat="45.93942" lon="4.53884">
        <ele>292.2</ele>
        <time>2025-09-11T09:05:38Z</time>
      </trkpt>
      <trkpt lat="45.93947" lon="4.53877">
        <ele>291.8</ele>
        <time>2025-09-11T09:05:39Z</time>
      </trkpt>
      <trkpt lat="45.9395" lon="4.5387">
        <ele>291.2</ele>
        <time>2025-09-11T09:05:40Z</time>
      </trkpt>
      <trkpt lat="45.93953" lon="4.53865">
        <ele>291.2</ele>
        <time>2025-09-11T09:05:41Z</time>
      </trkpt>
      <trkpt lat="45.93956" lon="4.53862">
        <ele>290.8</ele>
        <time>2025-09-11T09:05:42Z</time>
      </trkpt>
      <trkpt lat="45.93957" lon="4.53858">
        <ele>290.6</ele>
        <time>2025-09-11T09:05:43Z</time>
      </trkpt>
      <trkpt lat="45.93955" lon="4.53857">
        <ele>290.6</ele>
        <time>2025-09-11T09:05:44Z</time>
      </trkpt>
      <trkpt lat="45.93956" lon="4.53855">
        <ele>290.4</ele>
        <time>2025-09-11T09:05:45Z</time>
      </trkpt>
      <trkpt lat="45.93955" lon="4.53855">
        <ele>290.4</ele>
        <time>2025-09-11T09:05:46Z</time>
      </trkpt>
      <trkpt lat="45.93953" lon="4.53853">
        <ele>289.2</ele>
        <time>2025-09-11T09:06:10Z</time>
      </trkpt>
      <trkpt lat="45.93953" lon="4.53853">
        <ele>289.2</ele>
        <time>2025-09-11T09:06:11Z</time>
      </trkpt>
      <trkpt lat="45.93952" lon="4.53852">
        <ele>289.2</ele>
        <time>2025-09-11T09:06:12Z</time>
      </trkpt>
      <trkpt lat="45.93952" lon="4.53852">
        <ele>289.2</ele>
        <time>2025-09-11T09:06:13Z</time>
      </trkpt>
      <trkpt lat="45.93952" lon="4.53851">
        <ele>289.2</ele>
        <time>2025-09-11T09:06:18Z</time>
      </trkpt>
      <trkpt lat="45.93951" lon="4.53849">
        <ele>289.2</ele>
        <time>2025-09-11T09:06:19Z</time>
      </trkpt>
      <trkpt lat="45.93951" lon="4.53847">
        <ele>289.2</ele>
        <time>2025-09-11T09:06:20Z</time>
      </trkpt>
      <trkpt lat="45.93951" lon="4.53846">
        <ele>289.2</ele>
        <time>2025-09-11T09:06:21Z</time>
      </trkpt>
      <trkpt lat="45.93951" lon="4.53846">
        <ele>289.4</ele>
        <time>2025-09-11T09:06:22Z</time>
      </trkpt>
      <trkpt lat="45.93952" lon="4.53846">
        <ele>289.4</ele>
        <time>2025-09-11T09:06:23Z</time>
      </trkpt>
      <trkpt lat="45.93952" lon="4.53845">
        <ele>289.6</ele>
        <time>2025-09-11T09:11:34Z</time>
      </trkpt>
      <trkpt lat="45.93952" lon="4.53842">
        <ele>289.6</ele>
        <time>2025-09-11T09:11:35Z</time>
      </trkpt>
      <trkpt lat="45.93952" lon="4.53842">
        <ele>289.6</ele>
        <time>2025-09-11T09:11:36Z</time>
      </trkpt>
      <trkpt lat="45.93952" lon="4.53842">
        <ele>289.6</ele>
        <time>2025-09-11T09:11:37Z</time>
      </trkpt>
      <trkpt lat="45.93951" lon="4.53832">
        <ele>289.4</ele>
        <time>2025-09-11T09:11:39Z</time>
      </trkpt>
      <trkpt lat="45.93951" lon="4.5383">
        <ele>289.4</ele>
        <time>2025-09-11T09:11:40Z</time>
      </trkpt>
      <trkpt lat="45.93951" lon="4.53827">
        <ele>290</ele>
        <time>2025-09-11T09:11:41Z</time>
      </trkpt>
      <trkpt lat="45.93951" lon="4.53824">
        <ele>290.4</ele>
        <time>2025-09-11T09:11:42Z</time>
      </trkpt>
      <trkpt lat="45.93951" lon="4.53821">
        <ele>290.6</ele>
        <time>2025-09-11T09:11:43Z</time>
      </trkpt>
      <trkpt lat="45.93951" lon="4.53819">
        <ele>290.8</ele>
        <time>2025-09-11T09:11:44Z</time>
      </trkpt>
      <trkpt lat="45.93951" lon="4.53816">
        <ele>291</ele>
        <time>2025-09-11T09:11:45Z</time>
      </trkpt>
      <trkpt lat="45.93951" lon="4.53814">
        <ele>291.2</ele>
        <time>2025-09-11T09:11:46Z</time>
      </trkpt>
      <trkpt lat="45.93951" lon="4.53811">
        <ele>291.2</ele>
        <time>2025-09-11T09:11:47Z</time>
      </trkpt>
      <trkpt lat="45.93951" lon="4.53809">
        <ele>291.6</ele>
        <time>2025-09-11T09:11:48Z</time>
      </trkpt>
      <trkpt lat="45.93951" lon="4.53807">
        <ele>291.8</ele>
        <time>2025-09-11T09:11:49Z</time>
      </trkpt>
      <trkpt lat="45.93951" lon="4.53804">
        <ele>292.2</ele>
        <time>2025-09-11T09:11:50Z</time>
      </trkpt>
      <trkpt lat="45.9395" lon="4.53801">
        <ele>292.4</ele>
        <time>2025-09-11T09:11:51Z</time>
      </trkpt>
      <trkpt lat="45.9395" lon="4.53799">
        <ele>292.4</ele>
        <time>2025-09-11T09:11:52Z</time>
      </trkpt>
      <trkpt lat="45.9395" lon="4.53797">
        <ele>292.6</ele>
        <time>2025-09-11T09:11:53Z</time>
      </trkpt>
      <trkpt lat="45.9395" lon="4.53795">
        <ele>292.6</ele>
        <time>2025-09-11T09:11:54Z</time>
      </trkpt>
      <trkpt lat="45.9395" lon="4.53793">
        <ele>292.8</ele>
        <time>2025-09-11T09:11:55Z</time>
      </trkpt>
      <trkpt lat="45.9395" lon="4.53791">
        <ele>292.8</ele>
        <time>2025-09-11T09:11:56Z</time>
      </trkpt>
      <trkpt lat="45.9395" lon="4.53788">
        <ele>292.8</ele>
        <time>2025-09-11T09:11:57Z</time>
      </trkpt>
      <trkpt lat="45.93949" lon="4.53785">
        <ele>293</ele>
        <time>2025-09-11T09:11:58Z</time>
      </trkpt>
      <trkpt lat="45.93949" lon="4.53785">
        <ele>293</ele>
        <time>2025-09-11T09:11:59Z</time>
      </trkpt>
      <trkpt lat="45.93949" lon="4.53781">
        <ele>293</ele>
        <time>2025-09-11T09:12:00Z</time>
      </trkpt>
      <trkpt lat="45.93949" lon="4.53779">
        <ele>293.4</ele>
        <time>2025-09-11T09:12:01Z</time>
      </trkpt>
      <trkpt lat="45.93949" lon="4.53777">
        <ele>293.4</ele>
        <time>2025-09-11T09:12:02Z</time>
      </trkpt>
      <trkpt lat="45.9395" lon="4.53775">
        <ele>293.8</ele>
        <time>2025-09-11T09:12:03Z</time>
      </trkpt>
      <trkpt lat="45.93951" lon="4.53773">
        <ele>293.8</ele>
        <time>2025-09-11T09:12:04Z</time>
      </trkpt>
      <trkpt lat="45.93951" lon="4.53771">
        <ele>294</ele>
        <time>2025-09-11T09:12:05Z</time>
      </trkpt>
      <trkpt lat="45.93951" lon="4.53769">
        <ele>294</ele>
        <time>2025-09-11T09:12:06Z</time>
      </trkpt>
      <trkpt lat="45.93951" lon="4.53766">
        <ele>294</ele>
        <time>2025-09-11T09:12:07Z</time>
      </trkpt>
      <trkpt lat="45.93952" lon="4.53764">
        <ele>294.4</ele>
        <time>2025-09-11T09:12:08Z</time>
      </trkpt>
      <trkpt lat="45.93951" lon="4.53762">
        <ele>294.8</ele>
        <time>2025-09-11T09:12:09Z</time>
      </trkpt>
      <trkpt lat="45.93951" lon="4.5376">
        <ele>294.8</ele>
        <time>2025-09-11T09:12:10Z</time>
      </trkpt>
      <trkpt lat="45.93951" lon="4.53758">
        <ele>295</ele>
        <time>2025-09-11T09:12:11Z</time>
      </trkpt>
      <trkpt lat="45.93951" lon="4.53756">
        <ele>295</ele>
        <time>2025-09-11T09:12:12Z</time>
      </trkpt>
      <trkpt lat="45.93952" lon="4.53753">
        <ele>295.2</ele>
        <time>2025-09-11T09:12:13Z</time>
      </trkpt>
      <trkpt lat="45.93952" lon="4.5375">
        <ele>295.2</ele>
        <time>2025-09-11T09:12:14Z</time>
      </trkpt>
      <trkpt lat="45.93953" lon="4.53749">
        <ele>295.4</ele>
        <time>2025-09-11T09:12:15Z</time>
      </trkpt>
      <trkpt lat="45.93953" lon="4.53746">
        <ele>295.4</ele>
        <time>2025-09-11T09:12:16Z</time>
      </trkpt>
      <trkpt lat="45.93953" lon="4.53744">
        <ele>295.4</ele>
        <time>2025-09-11T09:12:17Z</time>
      </trkpt>
      <trkpt lat="45.93952" lon="4.53742">
        <ele>295.8</ele>
        <time>2025-09-11T09:12:18Z</time>
      </trkpt>
      <trkpt lat="45.93952" lon="4.5374">
        <ele>295.8</ele>
        <time>2025-09-11T09:12:19Z</time>
      </trkpt>
      <trkpt lat="45.93952" lon="4.53739">
        <ele>295.8</ele>
        <time>2025-09-11T09:12:20Z</time>
      </trkpt>
      <trkpt lat="45.93951" lon="4.53737">
        <ele>295.8</ele>
        <time>2025-09-11T09:12:21Z</time>
      </trkpt>
      <trkpt lat="45.9395" lon="4.53735">
        <ele>296.2</ele>
        <time>2025-09-11T09:12:22Z</time>
      </trkpt>
      <trkpt lat="45.9395" lon="4.53733">
        <ele>296.4</ele>
        <time>2025-09-11T09:12:23Z</time>
      </trkpt>
      <trkpt lat="45.93948" lon="4.53731">
        <ele>296.4</ele>
        <time>2025-09-11T09:12:24Z</time>
      </trkpt>
      <trkpt lat="45.93947" lon="4.5373">
        <ele>296.4</ele>
        <time>2025-09-11T09:12:25Z</time>
      </trkpt>
      <trkpt lat="45.93945" lon="4.53729">
        <ele>296.8</ele>
        <time>2025-09-11T09:12:26Z</time>
      </trkpt>
      <trkpt lat="45.93944" lon="4.53727">
        <ele>296.8</ele>
        <time>2025-09-11T09:12:27Z</time>
      </trkpt>
      <trkpt lat="45.93943" lon="4.53726">
        <ele>296.8</ele>
        <time>2025-09-11T09:12:28Z</time>
      </trkpt>
      <trkpt lat="45.93942" lon="4.53724">
        <ele>297</ele>
        <time>2025-09-11T09:12:29Z</time>
      </trkpt>
      <trkpt lat="45.93941" lon="4.53722">
        <ele>297</ele>
        <time>2025-09-11T09:12:30Z</time>
      </trkpt>
      <trkpt lat="45.9394" lon="4.53721">
        <ele>297.2</ele>
        <time>2025-09-11T09:12:31Z</time>
      </trkpt>
      <trkpt lat="45.93939" lon="4.5372">
        <ele>297.2</ele>
        <time>2025-09-11T09:12:32Z</time>
      </trkpt>
      <trkpt lat="45.93937" lon="4.53719">
        <ele>297.6</ele>
        <time>2025-09-11T09:12:33Z</time>
      </trkpt>
      <trkpt lat="45.93935" lon="4.53718">
        <ele>297.6</ele>
        <time>2025-09-11T09:12:34Z</time>
      </trkpt>
      <trkpt lat="45.93934" lon="4.53716">
        <ele>297.6</ele>
        <time>2025-09-11T09:12:35Z</time>
      </trkpt>
      <trkpt lat="45.93933" lon="4.53714">
        <ele>297.8</ele>
        <time>2025-09-11T09:12:36Z</time>
      </trkpt>
      <trkpt lat="45.93932" lon="4.53711">
        <ele>297.8</ele>
        <time>2025-09-11T09:12:37Z</time>
      </trkpt>
      <trkpt lat="45.93932" lon="4.53709">
        <ele>297.8</ele>
        <time>2025-09-11T09:12:38Z</time>
      </trkpt>
      <trkpt lat="45.93931" lon="4.53706">
        <ele>298.2</ele>
        <time>2025-09-11T09:12:39Z</time>
      </trkpt>
      <trkpt lat="45.93931" lon="4.53704">
        <ele>298.2</ele>
        <time>2025-09-11T09:12:40Z</time>
      </trkpt>
      <trkpt lat="45.93931" lon="4.53702">
        <ele>298.4</ele>
        <time>2025-09-11T09:12:41Z</time>
      </trkpt>
      <trkpt lat="45.93931" lon="4.537">
        <ele>298.4</ele>
        <time>2025-09-11T09:12:42Z</time>
      </trkpt>
      <trkpt lat="45.93931" lon="4.53697">
        <ele>298.4</ele>
        <time>2025-09-11T09:12:43Z</time>
      </trkpt>
      <trkpt lat="45.93931" lon="4.53695">
        <ele>298.6</ele>
        <time>2025-09-11T09:12:44Z</time>
      </trkpt>
      <trkpt lat="45.93931" lon="4.53692">
        <ele>298.6</ele>
        <time>2025-09-11T09:12:45Z</time>
      </trkpt>
      <trkpt lat="45.93932" lon="4.5369">
        <ele>298.6</ele>
        <time>2025-09-11T09:12:46Z</time>
      </trkpt>
      <trkpt lat="45.93932" lon="4.53687">
        <ele>298.8</ele>
        <time>2025-09-11T09:12:47Z</time>
      </trkpt>
      <trkpt lat="45.93933" lon="4.53684">
        <ele>299.2</ele>
        <time>2025-09-11T09:12:48Z</time>
      </trkpt>
      <trkpt lat="45.93933" lon="4.53681">
        <ele>299.6</ele>
        <time>2025-09-11T09:12:49Z</time>
      </trkpt>
      <trkpt lat="45.93933" lon="4.53679">
        <ele>299.8</ele>
        <time>2025-09-11T09:12:50Z</time>
      </trkpt>
      <trkpt lat="45.93933" lon="4.53677">
        <ele>299.8</ele>
        <time>2025-09-11T09:12:51Z</time>
      </trkpt>
      <trkpt lat="45.93933" lon="4.53674">
        <ele>300.2</ele>
        <time>2025-09-11T09:12:52Z</time>
      </trkpt>
      <trkpt lat="45.93933" lon="4.53671">
        <ele>300.2</ele>
        <time>2025-09-11T09:12:53Z</time>
      </trkpt>
      <trkpt lat="45.93933" lon="4.53669">
        <ele>300.2</ele>
        <time>2025-09-11T09:12:54Z</time>
      </trkpt>
      <trkpt lat="45.93933" lon="4.53666">
        <ele>300.6</ele>
        <time>2025-09-11T09:12:55Z</time>
      </trkpt>
      <trkpt lat="45.93934" lon="4.53664">
        <ele>300.6</ele>
        <time>2025-09-11T09:12:56Z</time>
      </trkpt>
      <trkpt lat="45.93934" lon="4.53661">
        <ele>300.8</ele>
        <time>2025-09-11T09:12:57Z</time>
      </trkpt>
      <trkpt lat="45.93934" lon="4.53658">
        <ele>300.8</ele>
        <time>2025-09-11T09:12:58Z</time>
      </trkpt>
      <trkpt lat="45.93934" lon="4.53656">
        <ele>301.2</ele>
        <time>2025-09-11T09:12:59Z</time>
      </trkpt>
      <trkpt lat="45.93934" lon="4.53653">
        <ele>301.2</ele>
        <time>2025-09-11T09:13:00Z</time>
      </trkpt>
      <trkpt lat="45.93934" lon="4.5365">
        <ele>301.4</ele>
        <time>2025-09-11T09:13:01Z</time>
      </trkpt>
      <trkpt lat="45.93934" lon="4.53648">
        <ele>301.4</ele>
        <time>2025-09-11T09:13:02Z</time>
      </trkpt>
      <trkpt lat="45.93933" lon="4.53645">
        <ele>301.4</ele>
        <time>2025-09-11T09:13:03Z</time>
      </trkpt>
      <trkpt lat="45.93933" lon="4.53642">
        <ele>301.8</ele>
        <time>2025-09-11T09:13:04Z</time>
      </trkpt>
      <trkpt lat="45.93933" lon="4.5364">
        <ele>301.8</ele>
        <time>2025-09-11T09:13:05Z</time>
      </trkpt>
      <trkpt lat="45.93934" lon="4.53637">
        <ele>301.8</ele>
        <time>2025-09-11T09:13:06Z</time>
      </trkpt>
      <trkpt lat="45.93934" lon="4.53634">
        <ele>301.8</ele>
        <time>2025-09-11T09:13:07Z</time>
      </trkpt>
      <trkpt lat="45.93934" lon="4.53632">
        <ele>302</ele>
        <time>2025-09-11T09:13:08Z</time>
      </trkpt>
      <trkpt lat="45.93935" lon="4.53629">
        <ele>302</ele>
        <time>2025-09-11T09:13:09Z</time>
      </trkpt>
      <trkpt lat="45.93935" lon="4.53627">
        <ele>302</ele>
        <time>2025-09-11T09:13:10Z</time>
      </trkpt>
      <trkpt lat="45.93935" lon="4.53625">
        <ele>302</ele>
        <time>2025-09-11T09:13:11Z</time>
      </trkpt>
      <trkpt lat="45.93935" lon="4.53623">
        <ele>302.2</ele>
        <time>2025-09-11T09:13:12Z</time>
      </trkpt>
      <trkpt lat="45.93935" lon="4.53622">
        <ele>302.2</ele>
        <time>2025-09-11T09:13:13Z</time>
      </trkpt>
      <trkpt lat="45.93935" lon="4.53622">
        <ele>302.2</ele>
        <time>2025-09-11T09:13:14Z</time>
      </trkpt>
      <trkpt lat="45.93935" lon="4.53622">
        <ele>302.2</ele>
        <time>2025-09-11T09:14:19Z</time>
      </trkpt>
      <trkpt lat="45.93935" lon="4.53619">
        <ele>302.2</ele>
        <time>2025-09-11T09:14:20Z</time>
      </trkpt>
      <trkpt lat="45.93935" lon="4.53616">
        <ele>302.2</ele>
        <time>2025-09-11T09:14:21Z</time>
      </trkpt>
      <trkpt lat="45.93936" lon="4.53613">
        <ele>302.2</ele>
        <time>2025-09-11T09:14:22Z</time>
      </trkpt>
      <trkpt lat="45.93936" lon="4.5361">
        <ele>302.2</ele>
        <time>2025-09-11T09:14:23Z</time>
      </trkpt>
      <trkpt lat="45.93937" lon="4.53607">
        <ele>302.2</ele>
        <time>2025-09-11T09:14:24Z</time>
      </trkpt>
      <trkpt lat="45.93937" lon="4.53606">
        <ele>302.4</ele>
        <time>2025-09-11T09:14:25Z</time>
      </trkpt>
      <trkpt lat="45.93937" lon="4.53605">
        <ele>302.4</ele>
        <time>2025-09-11T09:14:26Z</time>
      </trkpt>
      <trkpt lat="45.93937" lon="4.53605">
        <ele>302.4</ele>
        <time>2025-09-11T09:14:27Z</time>
      </trkpt>
      <trkpt lat="45.93935" lon="4.53604">
        <ele>302.2</ele>
        <time>2025-09-11T09:17:45Z</time>
      </trkpt>
      <trkpt lat="45.93935" lon="4.53602">
        <ele>302.2</ele>
        <time>2025-09-11T09:17:46Z</time>
      </trkpt>
      <trkpt lat="45.93934" lon="4.53599">
        <ele>302.2</ele>
        <time>2025-09-11T09:17:47Z</time>
      </trkpt>
      <trkpt lat="45.93934" lon="4.53595">
        <ele>302.2</ele>
        <time>2025-09-11T09:17:48Z</time>
      </trkpt>
      <trkpt lat="45.93934" lon="4.5359">
        <ele>302.2</ele>
        <time>2025-09-11T09:17:49Z</time>
      </trkpt>
      <trkpt lat="45.93935" lon="4.53586">
        <ele>302.4</ele>
        <time>2025-09-11T09:17:50Z</time>
      </trkpt>
      <trkpt lat="45.93935" lon="4.53582">
        <ele>302.4</ele>
        <time>2025-09-11T09:17:51Z</time>
      </trkpt>
      <trkpt lat="45.93936" lon="4.53578">
        <ele>302.4</ele>
        <time>2025-09-11T09:17:52Z</time>
      </trkpt>
      <trkpt lat="45.93936" lon="4.53573">
        <ele>302.4</ele>
        <time>2025-09-11T09:17:53Z</time>
      </trkpt>
      <trkpt lat="45.93936" lon="4.53568">
        <ele>302.4</ele>
        <time>2025-09-11T09:17:54Z</time>
      </trkpt>
      <trkpt lat="45.93937" lon="4.53563">
        <ele>302.4</ele>
        <time>2025-09-11T09:17:55Z</time>
      </trkpt>
      <trkpt lat="45.93937" lon="4.53558">
        <ele>302.4</ele>
        <time>2025-09-11T09:17:56Z</time>
      </trkpt>
      <trkpt lat="45.93938" lon="4.53553">
        <ele>302.6</ele>
        <time>2025-09-11T09:17:57Z</time>
      </trkpt>
      <trkpt lat="45.93938" lon="4.53549">
        <ele>302.6</ele>
        <time>2025-09-11T09:17:58Z</time>
      </trkpt>
      <trkpt lat="45.93938" lon="4.53544">
        <ele>302.6</ele>
        <time>2025-09-11T09:17:59Z</time>
      </trkpt>
      <trkpt lat="45.93939" lon="4.53539">
        <ele>302.6</ele>
        <time>2025-09-11T09:18:00Z</time>
      </trkpt>
      <trkpt lat="45.93939" lon="4.53534">
        <ele>303</ele>
        <time>2025-09-11T09:18:01Z</time>
      </trkpt>
      <trkpt lat="45.93939" lon="4.53529">
        <ele>303</ele>
        <time>2025-09-11T09:18:02Z</time>
      </trkpt>
      <trkpt lat="45.9394" lon="4.53524">
        <ele>303</ele>
        <time>2025-09-11T09:18:03Z</time>
      </trkpt>
      <trkpt lat="45.9394" lon="4.53518">
        <ele>303</ele>
        <time>2025-09-11T09:18:04Z</time>
      </trkpt>
      <trkpt lat="45.93941" lon="4.53513">
        <ele>303</ele>
        <time>2025-09-11T09:18:05Z</time>
      </trkpt>
      <trkpt lat="45.93942" lon="4.53507">
        <ele>303</ele>
        <time>2025-09-11T09:18:06Z</time>
      </trkpt>
      <trkpt lat="45.93943" lon="4.53501">
        <ele>302.6</ele>
        <time>2025-09-11T09:18:07Z</time>
      </trkpt>
      <trkpt lat="45.93944" lon="4.53495">
        <ele>302.6</ele>
        <time>2025-09-11T09:18:08Z</time>
      </trkpt>
      <trkpt lat="45.93944" lon="4.53489">
        <ele>302.6</ele>
        <time>2025-09-11T09:18:09Z</time>
      </trkpt>
      <trkpt lat="45.93944" lon="4.53484">
        <ele>302.6</ele>
        <time>2025-09-11T09:18:10Z</time>
      </trkpt>
      <trkpt lat="45.93945" lon="4.53476">
        <ele>302.6</ele>
        <time>2025-09-11T09:18:11Z</time>
      </trkpt>
      <trkpt lat="45.93945" lon="4.5347">
        <ele>302.6</ele>
        <time>2025-09-11T09:18:12Z</time>
      </trkpt>
      <trkpt lat="45.93945" lon="4.53464">
        <ele>302.6</ele>
        <time>2025-09-11T09:18:13Z</time>
      </trkpt>
      <trkpt lat="45.93945" lon="4.53457">
        <ele>302.4</ele>
        <time>2025-09-11T09:18:14Z</time>
      </trkpt>
      <trkpt lat="45.93944" lon="4.5345">
        <ele>302.4</ele>
        <time>2025-09-11T09:18:15Z</time>
      </trkpt>
      <trkpt lat="45.93944" lon="4.53443">
        <ele>302.4</ele>
        <time>2025-09-11T09:18:16Z</time>
      </trkpt>
      <trkpt lat="45.93944" lon="4.53437">
        <ele>302.4</ele>
        <time>2025-09-11T09:18:17Z</time>
      </trkpt>
      <trkpt lat="45.93943" lon="4.5343">
        <ele>302.4</ele>
        <time>2025-09-11T09:18:18Z</time>
      </trkpt>
      <trkpt lat="45.93943" lon="4.5343">
        <ele>302.2</ele>
        <time>2025-09-11T09:18:19Z</time>
      </trkpt>
      <trkpt lat="45.93942" lon="4.53423">
        <ele>302</ele>
        <time>2025-09-11T09:18:20Z</time>
      </trkpt>
      <trkpt lat="45.93938" lon="4.53418">
        <ele>301.4</ele>
        <time>2025-09-11T09:18:21Z</time>
      </trkpt>
      <trkpt lat="45.93939" lon="4.5341">
        <ele>301.2</ele>
        <time>2025-09-11T09:18:22Z</time>
      </trkpt>
      <trkpt lat="45.93942" lon="4.53402">
        <ele>301.2</ele>
        <time>2025-09-11T09:18:23Z</time>
      </trkpt>
      <trkpt lat="45.93946" lon="4.53397">
        <ele>301.2</ele>
        <time>2025-09-11T09:18:24Z</time>
      </trkpt>
      <trkpt lat="45.93951" lon="4.53394">
        <ele>301.2</ele>
        <time>2025-09-11T09:18:25Z</time>
      </trkpt>
      <trkpt lat="45.93955" lon="4.53392">
        <ele>301.4</ele>
        <time>2025-09-11T09:18:26Z</time>
      </trkpt>
      <trkpt lat="45.93959" lon="4.53388">
        <ele>301.4</ele>
        <time>2025-09-11T09:18:27Z</time>
      </trkpt>
      <trkpt lat="45.93961" lon="4.53384">
        <ele>301.4</ele>
        <time>2025-09-11T09:18:28Z</time>
      </trkpt>
      <trkpt lat="45.93963" lon="4.53378">
        <ele>301.6</ele>
        <time>2025-09-11T09:18:29Z</time>
      </trkpt>
      <trkpt lat="45.93964" lon="4.53374">
        <ele>301.6</ele>
        <time>2025-09-11T09:18:30Z</time>
      </trkpt>
      <trkpt lat="45.93963" lon="4.5337">
        <ele>302.2</ele>
        <time>2025-09-11T09:18:31Z</time>
      </trkpt>
      <trkpt lat="45.93963" lon="4.53366">
        <ele>302.6</ele>
        <time>2025-09-11T09:18:32Z</time>
      </trkpt>
      <trkpt lat="45.93962" lon="4.53362">
        <ele>302.8</ele>
        <time>2025-09-11T09:18:33Z</time>
      </trkpt>
      <trkpt lat="45.93962" lon="4.53359">
        <ele>303.2</ele>
        <time>2025-09-11T09:18:34Z</time>
      </trkpt>
      <trkpt lat="45.93961" lon="4.53355">
        <ele>303.4</ele>
        <time>2025-09-11T09:18:35Z</time>
      </trkpt>
      <trkpt lat="45.93961" lon="4.53352">
        <ele>303.8</ele>
        <time>2025-09-11T09:18:36Z</time>
      </trkpt>
      <trkpt lat="45.9396" lon="4.53349">
        <ele>304</ele>
        <time>2025-09-11T09:18:37Z</time>
      </trkpt>
      <trkpt lat="45.9396" lon="4.53347">
        <ele>304.2</ele>
        <time>2025-09-11T09:18:38Z</time>
      </trkpt>
      <trkpt lat="45.9396" lon="4.53343">
        <ele>304.2</ele>
        <time>2025-09-11T09:18:39Z</time>
      </trkpt>
      <trkpt lat="45.93959" lon="4.53341">
        <ele>304.4</ele>
        <time>2025-09-11T09:18:40Z</time>
      </trkpt>
      <trkpt lat="45.93959" lon="4.53338">
        <ele>304.4</ele>
        <time>2025-09-11T09:18:41Z</time>
      </trkpt>
      <trkpt lat="45.93959" lon="4.53336">
        <ele>304.8</ele>
        <time>2025-09-11T09:18:42Z</time>
      </trkpt>
      <trkpt lat="45.93958" lon="4.53333">
        <ele>304.8</ele>
        <time>2025-09-11T09:18:43Z</time>
      </trkpt>
      <trkpt lat="45.93958" lon="4.53331">
        <ele>305</ele>
        <time>2025-09-11T09:18:44Z</time>
      </trkpt>
      <trkpt lat="45.93958" lon="4.53328">
        <ele>305</ele>
        <time>2025-09-11T09:18:45Z</time>
      </trkpt>
      <trkpt lat="45.93958" lon="4.53325">
        <ele>305</ele>
        <time>2025-09-11T09:18:46Z</time>
      </trkpt>
      <trkpt lat="45.93958" lon="4.53323">
        <ele>305.4</ele>
        <time>2025-09-11T09:18:47Z</time>
      </trkpt>
      <trkpt lat="45.93958" lon="4.53322">
        <ele>305.4</ele>
        <time>2025-09-11T09:18:48Z</time>
      </trkpt>
      <trkpt lat="45.93957" lon="4.5332">
        <ele>305.8</ele>
        <time>2025-09-11T09:18:49Z</time>
      </trkpt>
      <trkpt lat="45.93957" lon="4.53318">
        <ele>305.8</ele>
        <time>2025-09-11T09:18:50Z</time>
      </trkpt>
      <trkpt lat="45.93957" lon="4.53316">
        <ele>306.2</ele>
        <time>2025-09-11T09:18:51Z</time>
      </trkpt>
      <trkpt lat="45.93957" lon="4.53314">
        <ele>306.2</ele>
        <time>2025-09-11T09:18:52Z</time>
      </trkpt>
      <trkpt lat="45.93956" lon="4.53313">
        <ele>306.6</ele>
        <time>2025-09-11T09:18:53Z</time>
      </trkpt>
      <trkpt lat="45.93956" lon="4.53311">
        <ele>306.6</ele>
        <time>2025-09-11T09:18:54Z</time>
      </trkpt>
      <trkpt lat="45.93956" lon="4.53309">
        <ele>306.8</ele>
        <time>2025-09-11T09:18:55Z</time>
      </trkpt>
      <trkpt lat="45.93956" lon="4.53308">
        <ele>306.8</ele>
        <time>2025-09-11T09:18:56Z</time>
      </trkpt>
      <trkpt lat="45.93956" lon="4.53306">
        <ele>307</ele>
        <time>2025-09-11T09:18:57Z</time>
      </trkpt>
      <trkpt lat="45.93956" lon="4.53305">
        <ele>307</ele>
        <time>2025-09-11T09:18:58Z</time>
      </trkpt>
      <trkpt lat="45.93956" lon="4.53304">
        <ele>307</ele>
        <time>2025-09-11T09:18:59Z</time>
      </trkpt>
      <trkpt lat="45.93957" lon="4.53301">
        <ele>307.2</ele>
        <time>2025-09-11T09:19:00Z</time>
      </trkpt>
      <trkpt lat="45.93957" lon="4.533">
        <ele>307.2</ele>
        <time>2025-09-11T09:19:01Z</time>
      </trkpt>
      <trkpt lat="45.93958" lon="4.53298">
        <ele>307.6</ele>
        <time>2025-09-11T09:19:02Z</time>
      </trkpt>
      <trkpt lat="45.93958" lon="4.53296">
        <ele>307.8</ele>
        <time>2025-09-11T09:19:03Z</time>
      </trkpt>
      <trkpt lat="45.93959" lon="4.53294">
        <ele>307.8</ele>
        <time>2025-09-11T09:19:04Z</time>
      </trkpt>
      <trkpt lat="45.93959" lon="4.53292">
        <ele>308.2</ele>
        <time>2025-09-11T09:19:05Z</time>
      </trkpt>
      <trkpt lat="45.93959" lon="4.53291">
        <ele>308.6</ele>
        <time>2025-09-11T09:19:06Z</time>
      </trkpt>
      <trkpt lat="45.9396" lon="4.53289">
        <ele>308.6</ele>
        <time>2025-09-11T09:19:07Z</time>
      </trkpt>
      <trkpt lat="45.93961" lon="4.53287">
        <ele>308.6</ele>
        <time>2025-09-11T09:19:08Z</time>
      </trkpt>
      <trkpt lat="45.93962" lon="4.53286">
        <ele>308.6</ele>
        <time>2025-09-11T09:19:09Z</time>
      </trkpt>
      <trkpt lat="45.93964" lon="4.53284">
        <ele>308.8</ele>
        <time>2025-09-11T09:19:10Z</time>
      </trkpt>
      <trkpt lat="45.93965" lon="4.53283">
        <ele>308.8</ele>
        <time>2025-09-11T09:19:11Z</time>
      </trkpt>
      <trkpt lat="45.93966" lon="4.53282">
        <ele>309</ele>
        <time>2025-09-11T09:19:12Z</time>
      </trkpt>
      <trkpt lat="45.93967" lon="4.53281">
        <ele>309</ele>
        <time>2025-09-11T09:19:13Z</time>
      </trkpt>
      <trkpt lat="45.93968" lon="4.53281">
        <ele>309.4</ele>
        <time>2025-09-11T09:19:14Z</time>
      </trkpt>
      <trkpt lat="45.93969" lon="4.53279">
        <ele>309.4</ele>
        <time>2025-09-11T09:19:15Z</time>
      </trkpt>
      <trkpt lat="45.9397" lon="4.53278">
        <ele>309.6</ele>
        <time>2025-09-11T09:19:16Z</time>
      </trkpt>
      <trkpt lat="45.9397" lon="4.53276">
        <ele>309.6</ele>
        <time>2025-09-11T09:19:17Z</time>
      </trkpt>
      <trkpt lat="45.9397" lon="4.53274">
        <ele>310.2</ele>
        <time>2025-09-11T09:19:18Z</time>
      </trkpt>
      <trkpt lat="45.93971" lon="4.53272">
        <ele>310.4</ele>
        <time>2025-09-11T09:19:19Z</time>
      </trkpt>
      <trkpt lat="45.93972" lon="4.53271">
        <ele>310.4</ele>
        <time>2025-09-11T09:19:20Z</time>
      </trkpt>
      <trkpt lat="45.93973" lon="4.5327">
        <ele>310.4</ele>
        <time>2025-09-11T09:19:21Z</time>
      </trkpt>
      <trkpt lat="45.93974" lon="4.53268">
        <ele>310.8</ele>
        <time>2025-09-11T09:19:22Z</time>
      </trkpt>
      <trkpt lat="45.93975" lon="4.53267">
        <ele>310.8</ele>
        <time>2025-09-11T09:19:23Z</time>
      </trkpt>
      <trkpt lat="45.93975" lon="4.53265">
        <ele>310.8</ele>
        <time>2025-09-11T09:19:24Z</time>
      </trkpt>
      <trkpt lat="45.93976" lon="4.53264">
        <ele>310.4</ele>
        <time>2025-09-11T09:19:25Z</time>
      </trkpt>
      <trkpt lat="45.93976" lon="4.53262">
        <ele>311.2</ele>
        <time>2025-09-11T09:19:26Z</time>
      </trkpt>
      <trkpt lat="45.93977" lon="4.5326">
        <ele>311.4</ele>
        <time>2025-09-11T09:19:27Z</time>
      </trkpt>
      <trkpt lat="45.93977" lon="4.53258">
        <ele>311.4</ele>
        <time>2025-09-11T09:19:28Z</time>
      </trkpt>
      <trkpt lat="45.93978" lon="4.53256">
        <ele>311.6</ele>
        <time>2025-09-11T09:19:29Z</time>
      </trkpt>
      <trkpt lat="45.93979" lon="4.53254">
        <ele>311.6</ele>
        <time>2025-09-11T09:19:30Z</time>
      </trkpt>
      <trkpt lat="45.93979" lon="4.53252">
        <ele>311.6</ele>
        <time>2025-09-11T09:19:31Z</time>
      </trkpt>
      <trkpt lat="45.93979" lon="4.5325">
        <ele>311.8</ele>
        <time>2025-09-11T09:19:32Z</time>
      </trkpt>
      <trkpt lat="45.9398" lon="4.53249">
        <ele>311.8</ele>
        <time>2025-09-11T09:19:33Z</time>
      </trkpt>
      <trkpt lat="45.9398" lon="4.53247">
        <ele>312.2</ele>
        <time>2025-09-11T09:19:34Z</time>
      </trkpt>
      <trkpt lat="45.93981" lon="4.53244">
        <ele>312.2</ele>
        <time>2025-09-11T09:19:35Z</time>
      </trkpt>
      <trkpt lat="45.93981" lon="4.53242">
        <ele>312.4</ele>
        <time>2025-09-11T09:19:36Z</time>
      </trkpt>
      <trkpt lat="45.93982" lon="4.5324">
        <ele>312.4</ele>
        <time>2025-09-11T09:19:37Z</time>
      </trkpt>
      <trkpt lat="45.93983" lon="4.53238">
        <ele>312.8</ele>
        <time>2025-09-11T09:19:38Z</time>
      </trkpt>
      <trkpt lat="45.93984" lon="4.53236">
        <ele>312.8</ele>
        <time>2025-09-11T09:19:39Z</time>
      </trkpt>
      <trkpt lat="45.93985" lon="4.53233">
        <ele>313</ele>
        <time>2025-09-11T09:19:40Z</time>
      </trkpt>
      <trkpt lat="45.93986" lon="4.53231">
        <ele>313</ele>
        <time>2025-09-11T09:19:41Z</time>
      </trkpt>
      <trkpt lat="45.93987" lon="4.53229">
        <ele>313</ele>
        <time>2025-09-11T09:19:42Z</time>
      </trkpt>
      <trkpt lat="45.93988" lon="4.53227">
        <ele>313</ele>
        <time>2025-09-11T09:19:43Z</time>
      </trkpt>
      <trkpt lat="45.93989" lon="4.53226">
        <ele>313.2</ele>
        <time>2025-09-11T09:19:44Z</time>
      </trkpt>
      <trkpt lat="45.93991" lon="4.53224">
        <ele>313.2</ele>
        <time>2025-09-11T09:19:45Z</time>
      </trkpt>
      <trkpt lat="45.93992" lon="4.53221">
        <ele>313.4</ele>
        <time>2025-09-11T09:19:46Z</time>
      </trkpt>
      <trkpt lat="45.93994" lon="4.53219">
        <ele>313.4</ele>
        <time>2025-09-11T09:19:47Z</time>
      </trkpt>
      <trkpt lat="45.93995" lon="4.53217">
        <ele>313.4</ele>
        <time>2025-09-11T09:19:48Z</time>
      </trkpt>
      <trkpt lat="45.93996" lon="4.53215">
        <ele>313.2</ele>
        <time>2025-09-11T09:19:49Z</time>
      </trkpt>
      <trkpt lat="45.93998" lon="4.53214">
        <ele>313.2</ele>
        <time>2025-09-11T09:19:50Z</time>
      </trkpt>
      <trkpt lat="45.94" lon="4.53212">
        <ele>313.2</ele>
        <time>2025-09-11T09:19:51Z</time>
      </trkpt>
      <trkpt lat="45.94001" lon="4.53211">
        <ele>313.2</ele>
        <time>2025-09-11T09:19:52Z</time>
      </trkpt>
      <trkpt lat="45.94003" lon="4.53209">
        <ele>313.2</ele>
        <time>2025-09-11T09:19:53Z</time>
      </trkpt>
      <trkpt lat="45.94004" lon="4.53208">
        <ele>313.2</ele>
        <time>2025-09-11T09:19:54Z</time>
      </trkpt>
      <trkpt lat="45.94005" lon="4.53206">
        <ele>313.2</ele>
        <time>2025-09-11T09:19:55Z</time>
      </trkpt>
      <trkpt lat="45.94007" lon="4.53204">
        <ele>313.2</ele>
        <time>2025-09-11T09:19:56Z</time>
      </trkpt>
      <trkpt lat="45.94008" lon="4.53203">
        <ele>313.2</ele>
        <time>2025-09-11T09:19:57Z</time>
      </trkpt>
      <trkpt lat="45.94008" lon="4.53203">
        <ele>313.2</ele>
        <time>2025-09-11T09:19:58Z</time>
      </trkpt>
      <trkpt lat="45.94008" lon="4.53202">
        <ele>313.2</ele>
        <time>2025-09-11T09:19:59Z</time>
      </trkpt>
      <trkpt lat="45.94008" lon="4.53203">
        <ele>313.2</ele>
        <time>2025-09-11T09:20:00Z</time>
      </trkpt>
      <trkpt lat="45.94008" lon="4.53203">
        <ele>313.4</ele>
        <time>2025-09-11T09:22:23Z</time>
      </trkpt>
      <trkpt lat="45.94009" lon="4.53202">
        <ele>313.4</ele>
        <time>2025-09-11T09:22:24Z</time>
      </trkpt>
      <trkpt lat="45.94009" lon="4.53202">
        <ele>313</ele>
        <time>2025-09-11T09:22:25Z</time>
      </trkpt>
      <trkpt lat="45.94009" lon="4.53202">
        <ele>313</ele>
        <time>2025-09-11T09:22:26Z</time>
      </trkpt>
      <trkpt lat="45.94016" lon="4.53196">
        <ele>313</ele>
        <time>2025-09-11T09:22:28Z</time>
      </trkpt>
      <trkpt lat="45.94018" lon="4.53193">
        <ele>313</ele>
        <time>2025-09-11T09:22:29Z</time>
      </trkpt>
      <trkpt lat="45.9402" lon="4.53191">
        <ele>313</ele>
        <time>2025-09-11T09:22:30Z</time>
      </trkpt>
      <trkpt lat="45.94022" lon="4.53189">
        <ele>312.6</ele>
        <time>2025-09-11T09:22:31Z</time>
      </trkpt>
      <trkpt lat="45.94024" lon="4.53187">
        <ele>312.6</ele>
        <time>2025-09-11T09:22:32Z</time>
      </trkpt>
      <trkpt lat="45.94026" lon="4.53185">
        <ele>312.4</ele>
        <time>2025-09-11T09:22:33Z</time>
      </trkpt>
      <trkpt lat="45.94029" lon="4.53183">
        <ele>312.4</ele>
        <time>2025-09-11T09:22:34Z</time>
      </trkpt>
      <trkpt lat="45.94031" lon="4.5318">
        <ele>312.4</ele>
        <time>2025-09-11T09:22:35Z</time>
      </trkpt>
      <trkpt lat="45.94033" lon="4.53178">
        <ele>312.4</ele>
        <time>2025-09-11T09:22:36Z</time>
      </trkpt>
      <trkpt lat="45.94035" lon="4.53175">
        <ele>312.4</ele>
        <time>2025-09-11T09:22:37Z</time>
      </trkpt>
      <trkpt lat="45.94037" lon="4.53172">
        <ele>312.4</ele>
        <time>2025-09-11T09:22:38Z</time>
      </trkpt>
      <trkpt lat="45.94039" lon="4.53168">
        <ele>312.2</ele>
        <time>2025-09-11T09:22:39Z</time>
      </trkpt>
      <trkpt lat="45.94041" lon="4.53165">
        <ele>312.2</ele>
        <time>2025-09-11T09:22:40Z</time>
      </trkpt>
      <trkpt lat="45.94043" lon="4.53162">
        <ele>312.2</ele>
        <time>2025-09-11T09:22:41Z</time>
      </trkpt>
      <trkpt lat="45.94045" lon="4.53159">
        <ele>312.2</ele>
        <time>2025-09-11T09:22:42Z</time>
      </trkpt>
      <trkpt lat="45.94047" lon="4.53156">
        <ele>312.2</ele>
        <time>2025-09-11T09:22:43Z</time>
      </trkpt>
      <trkpt lat="45.94049" lon="4.53153">
        <ele>312.2</ele>
        <time>2025-09-11T09:22:44Z</time>
      </trkpt>
      <trkpt lat="45.94051" lon="4.53149">
        <ele>312.2</ele>
        <time>2025-09-11T09:22:45Z</time>
      </trkpt>
      <trkpt lat="45.94052" lon="4.53145">
        <ele>312.2</ele>
        <time>2025-09-11T09:22:46Z</time>
      </trkpt>
      <trkpt lat="45.94054" lon="4.53141">
        <ele>312.2</ele>
        <time>2025-09-11T09:22:47Z</time>
      </trkpt>
      <trkpt lat="45.94055" lon="4.53136">
        <ele>312.2</ele>
        <time>2025-09-11T09:22:48Z</time>
      </trkpt>
      <trkpt lat="45.94056" lon="4.53132">
        <ele>312.2</ele>
        <time>2025-09-11T09:22:49Z</time>
      </trkpt>
      <trkpt lat="45.94057" lon="4.53127">
        <ele>312.4</ele>
        <time>2025-09-11T09:22:50Z</time>
      </trkpt>
      <trkpt lat="45.94058" lon="4.53123">
        <ele>312.4</ele>
        <time>2025-09-11T09:22:51Z</time>
      </trkpt>
      <trkpt lat="45.9406" lon="4.53118">
        <ele>312.6</ele>
        <time>2025-09-11T09:22:52Z</time>
      </trkpt>
      <trkpt lat="45.94061" lon="4.53114">
        <ele>312.6</ele>
        <time>2025-09-11T09:22:53Z</time>
      </trkpt>
      <trkpt lat="45.94062" lon="4.53109">
        <ele>312.6</ele>
        <time>2025-09-11T09:22:54Z</time>
      </trkpt>
      <trkpt lat="45.94064" lon="4.53104">
        <ele>312.6</ele>
        <time>2025-09-11T09:22:55Z</time>
      </trkpt>
      <trkpt lat="45.94065" lon="4.53099">
        <ele>312.6</ele>
        <time>2025-09-11T09:22:56Z</time>
      </trkpt>
      <trkpt lat="45.94066" lon="4.53094">
        <ele>312.6</ele>
        <time>2025-09-11T09:22:57Z</time>
      </trkpt>
      <trkpt lat="45.94067" lon="4.53089">
        <ele>312.6</ele>
        <time>2025-09-11T09:22:58Z</time>
      </trkpt>
      <trkpt lat="45.94067" lon="4.53089">
        <ele>312.6</ele>
        <time>2025-09-11T09:22:59Z</time>
      </trkpt>
      <trkpt lat="45.94067" lon="4.53089">
        <ele>312.6</ele>
        <time>2025-09-11T09:23:00Z</time>
      </trkpt>
      <trkpt lat="45.9407" lon="4.53072">
        <ele>312.6</ele>
        <time>2025-09-11T09:23:01Z</time>
      </trkpt>
      <trkpt lat="45.94071" lon="4.53066">
        <ele>312.6</ele>
        <time>2025-09-11T09:23:02Z</time>
      </trkpt>
      <trkpt lat="45.94072" lon="4.5306">
        <ele>312.6</ele>
        <time>2025-09-11T09:23:03Z</time>
      </trkpt>
      <trkpt lat="45.94073" lon="4.53055">
        <ele>312.8</ele>
        <time>2025-09-11T09:23:04Z</time>
      </trkpt>
      <trkpt lat="45.94075" lon="4.53049">
        <ele>312.8</ele>
        <time>2025-09-11T09:23:05Z</time>
      </trkpt>
      <trkpt lat="45.94076" lon="4.53043">
        <ele>312.8</ele>
        <time>2025-09-11T09:23:06Z</time>
      </trkpt>
      <trkpt lat="45.94077" lon="4.53038">
        <ele>313.2</ele>
        <time>2025-09-11T09:23:07Z</time>
      </trkpt>
      <trkpt lat="45.94078" lon="4.53032">
        <ele>313.2</ele>
        <time>2025-09-11T09:23:08Z</time>
      </trkpt>
      <trkpt lat="45.94079" lon="4.53027">
        <ele>313.4</ele>
        <time>2025-09-11T09:23:09Z</time>
      </trkpt>
      <trkpt lat="45.94079" lon="4.53022">
        <ele>313.4</ele>
        <time>2025-09-11T09:23:10Z</time>
      </trkpt>
      <trkpt lat="45.9408" lon="4.53016">
        <ele>313.4</ele>
        <time>2025-09-11T09:23:11Z</time>
      </trkpt>
      <trkpt lat="45.94081" lon="4.53012">
        <ele>313.4</ele>
        <time>2025-09-11T09:23:12Z</time>
      </trkpt>
      <trkpt lat="45.94082" lon="4.53007">
        <ele>313.4</ele>
        <time>2025-09-11T09:23:13Z</time>
      </trkpt>
      <trkpt lat="45.94082" lon="4.53002">
        <ele>313.4</ele>
        <time>2025-09-11T09:23:14Z</time>
      </trkpt>
      <trkpt lat="45.94082" lon="4.52997">
        <ele>313.8</ele>
        <time>2025-09-11T09:23:15Z</time>
      </trkpt>
      <trkpt lat="45.94083" lon="4.52992">
        <ele>313.8</ele>
        <time>2025-09-11T09:23:16Z</time>
      </trkpt>
      <trkpt lat="45.94083" lon="4.52987">
        <ele>313.8</ele>
        <time>2025-09-11T09:23:17Z</time>
      </trkpt>
      <trkpt lat="45.94083" lon="4.52983">
        <ele>314</ele>
        <time>2025-09-11T09:23:18Z</time>
      </trkpt>
      <trkpt lat="45.94083" lon="4.52979">
        <ele>314</ele>
        <time>2025-09-11T09:23:19Z</time>
      </trkpt>
      <trkpt lat="45.94083" lon="4.52975">
        <ele>314</ele>
        <time>2025-09-11T09:23:20Z</time>
      </trkpt>
      <trkpt lat="45.94083" lon="4.52971">
        <ele>314.2</ele>
        <time>2025-09-11T09:23:21Z</time>
      </trkpt>
      <trkpt lat="45.94082" lon="4.52967">
        <ele>314.2</ele>
        <time>2025-09-11T09:23:22Z</time>
      </trkpt>
      <trkpt lat="45.94082" lon="4.52963">
        <ele>314.6</ele>
        <time>2025-09-11T09:23:23Z</time>
      </trkpt>
      <trkpt lat="45.94082" lon="4.52959">
        <ele>314.6</ele>
        <time>2025-09-11T09:23:24Z</time>
      </trkpt>
      <trkpt lat="45.94082" lon="4.52955">
        <ele>314.8</ele>
        <time>2025-09-11T09:23:25Z</time>
      </trkpt>
      <trkpt lat="45.94082" lon="4.52952">
        <ele>314.8</ele>
        <time>2025-09-11T09:23:26Z</time>
      </trkpt>
      <trkpt lat="45.94082" lon="4.52947">
        <ele>314.8</ele>
        <time>2025-09-11T09:23:27Z</time>
      </trkpt>
      <trkpt lat="45.94082" lon="4.52943">
        <ele>315.2</ele>
        <time>2025-09-11T09:23:28Z</time>
      </trkpt>
      <trkpt lat="45.94082" lon="4.52938">
        <ele>315.2</ele>
        <time>2025-09-11T09:23:29Z</time>
      </trkpt>
      <trkpt lat="45.94083" lon="4.52934">
        <ele>315.2</ele>
        <time>2025-09-11T09:23:30Z</time>
      </trkpt>
      <trkpt lat="45.94083" lon="4.52929">
        <ele>315.2</ele>
        <time>2025-09-11T09:23:31Z</time>
      </trkpt>
      <trkpt lat="45.94083" lon="4.52925">
        <ele>314.8</ele>
        <time>2025-09-11T09:23:32Z</time>
      </trkpt>
      <trkpt lat="45.94083" lon="4.5292">
        <ele>314.8</ele>
        <time>2025-09-11T09:23:33Z</time>
      </trkpt>
      <trkpt lat="45.94083" lon="4.52917">
        <ele>314.8</ele>
        <time>2025-09-11T09:23:34Z</time>
      </trkpt>
      <trkpt lat="45.94084" lon="4.52911">
        <ele>314.8</ele>
        <time>2025-09-11T09:23:35Z</time>
      </trkpt>
      <trkpt lat="45.94085" lon="4.52906">
        <ele>314.8</ele>
        <time>2025-09-11T09:23:36Z</time>
      </trkpt>
      <trkpt lat="45.94086" lon="4.52901">
        <ele>314.8</ele>
        <time>2025-09-11T09:23:37Z</time>
      </trkpt>
      <trkpt lat="45.94087" lon="4.52896">
        <ele>314.8</ele>
        <time>2025-09-11T09:23:38Z</time>
      </trkpt>
      <trkpt lat="45.94088" lon="4.52892">
        <ele>314.8</ele>
        <time>2025-09-11T09:23:39Z</time>
      </trkpt>
      <trkpt lat="45.94088" lon="4.52888">
        <ele>314.8</ele>
        <time>2025-09-11T09:23:40Z</time>
      </trkpt>
      <trkpt lat="45.94089" lon="4.52884">
        <ele>315</ele>
        <time>2025-09-11T09:23:41Z</time>
      </trkpt>
      <trkpt lat="45.94089" lon="4.52881">
        <ele>315</ele>
        <time>2025-09-11T09:23:42Z</time>
      </trkpt>
      <trkpt lat="45.94089" lon="4.52877">
        <ele>315</ele>
        <time>2025-09-11T09:23:43Z</time>
      </trkpt>
      <trkpt lat="45.94089" lon="4.52874">
        <ele>315</ele>
        <time>2025-09-11T09:23:44Z</time>
      </trkpt>
      <trkpt lat="45.9409" lon="4.52872">
        <ele>315</ele>
        <time>2025-09-11T09:23:45Z</time>
      </trkpt>
      <trkpt lat="45.9409" lon="4.5287">
        <ele>315</ele>
        <time>2025-09-11T09:23:46Z</time>
      </trkpt>
      <trkpt lat="45.94089" lon="4.52868">
        <ele>315</ele>
        <time>2025-09-11T09:23:47Z</time>
      </trkpt>
      <trkpt lat="45.94089" lon="4.52867">
        <ele>315</ele>
        <time>2025-09-11T09:23:48Z</time>
      </trkpt>
      <trkpt lat="45.94089" lon="4.52865">
        <ele>315</ele>
        <time>2025-09-11T09:23:49Z</time>
      </trkpt>
      <trkpt lat="45.94089" lon="4.52863">
        <ele>315</ele>
        <time>2025-09-11T09:23:50Z</time>
      </trkpt>
      <trkpt lat="45.94089" lon="4.5286">
        <ele>315</ele>
        <time>2025-09-11T09:23:51Z</time>
      </trkpt>
      <trkpt lat="45.94089" lon="4.52857">
        <ele>315</ele>
        <time>2025-09-11T09:23:52Z</time>
      </trkpt>
      <trkpt lat="45.94089" lon="4.52854">
        <ele>315</ele>
        <time>2025-09-11T09:23:53Z</time>
      </trkpt>
      <trkpt lat="45.94089" lon="4.52852">
        <ele>315</ele>
        <time>2025-09-11T09:23:54Z</time>
      </trkpt>
      <trkpt lat="45.94089" lon="4.52852">
        <ele>315</ele>
        <time>2025-09-11T09:23:55Z</time>
      </trkpt>
      <trkpt lat="45.94088" lon="4.52851">
        <ele>314.8</ele>
        <time>2025-09-11T09:24:11Z</time>
      </trkpt>
      <trkpt lat="45.94089" lon="4.52848">
        <ele>314.8</ele>
        <time>2025-09-11T09:24:12Z</time>
      </trkpt>
      <trkpt lat="45.9409" lon="4.52845">
        <ele>314.8</ele>
        <time>2025-09-11T09:24:13Z</time>
      </trkpt>
      <trkpt lat="45.94091" lon="4.52842">
        <ele>314.2</ele>
        <time>2025-09-11T09:24:14Z</time>
      </trkpt>
      <trkpt lat="45.94092" lon="4.5284">
        <ele>314</ele>
        <time>2025-09-11T09:24:15Z</time>
      </trkpt>
      <trkpt lat="45.94092" lon="4.52836">
        <ele>313.4</ele>
        <time>2025-09-11T09:24:16Z</time>
      </trkpt>
      <trkpt lat="45.94093" lon="4.52831">
        <ele>313</ele>
        <time>2025-09-11T09:24:17Z</time>
      </trkpt>
      <trkpt lat="45.94095" lon="4.52827">
        <ele>312.6</ele>
        <time>2025-09-11T09:24:18Z</time>
      </trkpt>
      <trkpt lat="45.94097" lon="4.52822">
        <ele>311.8</ele>
        <time>2025-09-11T09:24:19Z</time>
      </trkpt>
      <trkpt lat="45.94099" lon="4.52819">
        <ele>311.6</ele>
        <time>2025-09-11T09:24:20Z</time>
      </trkpt>
      <trkpt lat="45.941" lon="4.52815">
        <ele>311.2</ele>
        <time>2025-09-11T09:24:21Z</time>
      </trkpt>
      <trkpt lat="45.94102" lon="4.52813">
        <ele>310.8</ele>
        <time>2025-09-11T09:24:22Z</time>
      </trkpt>
      <trkpt lat="45.94103" lon="4.5281">
        <ele>310.4</ele>
        <time>2025-09-11T09:24:23Z</time>
      </trkpt>
      <trkpt lat="45.94104" lon="4.52808">
        <ele>310.2</ele>
        <time>2025-09-11T09:24:24Z</time>
      </trkpt>
      <trkpt lat="45.94104" lon="4.52807">
        <ele>309.8</ele>
        <time>2025-09-11T09:24:25Z</time>
      </trkpt>
      <trkpt lat="45.94105" lon="4.52806">
        <ele>309.6</ele>
        <time>2025-09-11T09:24:26Z</time>
      </trkpt>
      <trkpt lat="45.94105" lon="4.52804">
        <ele>309.4</ele>
        <time>2025-09-11T09:24:27Z</time>
      </trkpt>
      <trkpt lat="45.94106" lon="4.52801">
        <ele>309</ele>
        <time>2025-09-11T09:24:28Z</time>
      </trkpt>
      <trkpt lat="45.94106" lon="4.52799">
        <ele>308.8</ele>
        <time>2025-09-11T09:24:29Z</time>
      </trkpt>
      <trkpt lat="45.94107" lon="4.52797">
        <ele>308.8</ele>
        <time>2025-09-11T09:24:30Z</time>
      </trkpt>
      <trkpt lat="45.94108" lon="4.52795">
        <ele>308.2</ele>
        <time>2025-09-11T09:24:31Z</time>
      </trkpt>
      <trkpt lat="45.9411" lon="4.52792">
        <ele>308</ele>
        <time>2025-09-11T09:24:32Z</time>
      </trkpt>
      <trkpt lat="45.94111" lon="4.5279">
        <ele>307.8</ele>
        <time>2025-09-11T09:24:33Z</time>
      </trkpt>
      <trkpt lat="45.94113" lon="4.52788">
        <ele>307.4</ele>
        <time>2025-09-11T09:24:34Z</time>
      </trkpt>
      <trkpt lat="45.94115" lon="4.52785">
        <ele>307.4</ele>
        <time>2025-09-11T09:24:35Z</time>
      </trkpt>
      <trkpt lat="45.94117" lon="4.52784">
        <ele>306.8</ele>
        <time>2025-09-11T09:24:36Z</time>
      </trkpt>
      <trkpt lat="45.94119" lon="4.52782">
        <ele>306.2</ele>
        <time>2025-09-11T09:24:37Z</time>
      </trkpt>
      <trkpt lat="45.94121" lon="4.52781">
        <ele>306</ele>
        <time>2025-09-11T09:24:38Z</time>
      </trkpt>
      <trkpt lat="45.94124" lon="4.52779">
        <ele>305.6</ele>
        <time>2025-09-11T09:24:39Z</time>
      </trkpt>
      <trkpt lat="45.94126" lon="4.52777">
        <ele>305.2</ele>
        <time>2025-09-11T09:24:40Z</time>
      </trkpt>
      <trkpt lat="45.94127" lon="4.52776">
        <ele>305</ele>
        <time>2025-09-11T09:24:41Z</time>
      </trkpt>
      <trkpt lat="45.9413" lon="4.52775">
        <ele>304.8</ele>
        <time>2025-09-11T09:24:42Z</time>
      </trkpt>
      <trkpt lat="45.94132" lon="4.52774">
        <ele>304.2</ele>
        <time>2025-09-11T09:24:43Z</time>
      </trkpt>
      <trkpt lat="45.94134" lon="4.52773">
        <ele>304.2</ele>
        <time>2025-09-11T09:24:44Z</time>
      </trkpt>
      <trkpt lat="45.94135" lon="4.52773">
        <ele>303.8</ele>
        <time>2025-09-11T09:24:45Z</time>
      </trkpt>
      <trkpt lat="45.94137" lon="4.52773">
        <ele>303.4</ele>
        <time>2025-09-11T09:24:46Z</time>
      </trkpt>
      <trkpt lat="45.94139" lon="4.52774">
        <ele>303.2</ele>
        <time>2025-09-11T09:24:47Z</time>
      </trkpt>
      <trkpt lat="45.94141" lon="4.52776">
        <ele>303</ele>
        <time>2025-09-11T09:24:48Z</time>
      </trkpt>
      <trkpt lat="45.94142" lon="4.52777">
        <ele>302.8</ele>
        <time>2025-09-11T09:24:49Z</time>
      </trkpt>
      <trkpt lat="45.94143" lon="4.52779">
        <ele>302.6</ele>
        <time>2025-09-11T09:24:50Z</time>
      </trkpt>
      <trkpt lat="45.94144" lon="4.52781">
        <ele>302</ele>
        <time>2025-09-11T09:24:51Z</time>
      </trkpt>
      <trkpt lat="45.94145" lon="4.52784">
        <ele>302</ele>
        <time>2025-09-11T09:24:52Z</time>
      </trkpt>
      <trkpt lat="45.94146" lon="4.52786">
        <ele>301.6</ele>
        <time>2025-09-11T09:24:53Z</time>
      </trkpt>
      <trkpt lat="45.94147" lon="4.52788">
        <ele>301.4</ele>
        <time>2025-09-11T09:24:54Z</time>
      </trkpt>
      <trkpt lat="45.94149" lon="4.5279">
        <ele>301</ele>
        <time>2025-09-11T09:24:55Z</time>
      </trkpt>
      <trkpt lat="45.94151" lon="4.52792">
        <ele>300.8</ele>
        <time>2025-09-11T09:24:56Z</time>
      </trkpt>
      <trkpt lat="45.94152" lon="4.52793">
        <ele>300.4</ele>
        <time>2025-09-11T09:24:57Z</time>
      </trkpt>
      <trkpt lat="45.94154" lon="4.52794">
        <ele>300</ele>
        <time>2025-09-11T09:24:58Z</time>
      </trkpt>
      <trkpt lat="45.94156" lon="4.52795">
        <ele>299.4</ele>
        <time>2025-09-11T09:24:59Z</time>
      </trkpt>
      <trkpt lat="45.94158" lon="4.52793">
        <ele>299.2</ele>
        <time>2025-09-11T09:25:00Z</time>
      </trkpt>
      <trkpt lat="45.94159" lon="4.52791">
        <ele>298.8</ele>
        <time>2025-09-11T09:25:01Z</time>
      </trkpt>
      <trkpt lat="45.94161" lon="4.52789">
        <ele>298.2</ele>
        <time>2025-09-11T09:25:02Z</time>
      </trkpt>
      <trkpt lat="45.94162" lon="4.52786">
        <ele>298.2</ele>
        <time>2025-09-11T09:25:03Z</time>
      </trkpt>
      <trkpt lat="45.94162" lon="4.52782">
        <ele>298</ele>
        <time>2025-09-11T09:25:04Z</time>
      </trkpt>
      <trkpt lat="45.94162" lon="4.52777">
        <ele>297.6</ele>
        <time>2025-09-11T09:25:05Z</time>
      </trkpt>
      <trkpt lat="45.94161" lon="4.52773">
        <ele>297.4</ele>
        <time>2025-09-11T09:25:06Z</time>
      </trkpt>
      <trkpt lat="45.94159" lon="4.5277">
        <ele>297</ele>
        <time>2025-09-11T09:25:07Z</time>
      </trkpt>
      <trkpt lat="45.94158" lon="4.52766">
        <ele>296.6</ele>
        <time>2025-09-11T09:25:08Z</time>
      </trkpt>
      <trkpt lat="45.94157" lon="4.52761">
        <ele>296.4</ele>
        <time>2025-09-11T09:25:09Z</time>
      </trkpt>
      <trkpt lat="45.94156" lon="4.52757">
        <ele>296.2</ele>
        <time>2025-09-11T09:25:10Z</time>
      </trkpt>
      <trkpt lat="45.94156" lon="4.52754">
        <ele>296.2</ele>
        <time>2025-09-11T09:25:11Z</time>
      </trkpt>
      <trkpt lat="45.94156" lon="4.52751">
        <ele>295.8</ele>
        <time>2025-09-11T09:25:12Z</time>
      </trkpt>
      <trkpt lat="45.94156" lon="4.52747">
        <ele>295.8</ele>
        <time>2025-09-11T09:25:13Z</time>
      </trkpt>
      <trkpt lat="45.94157" lon="4.52743">
        <ele>295.6</ele>
        <time>2025-09-11T09:25:14Z</time>
      </trkpt>
      <trkpt lat="45.94157" lon="4.52739">
        <ele>295.2</ele>
        <time>2025-09-11T09:25:15Z</time>
      </trkpt>
      <trkpt lat="45.94158" lon="4.52735">
        <ele>295</ele>
        <time>2025-09-11T09:25:16Z</time>
      </trkpt>
      <trkpt lat="45.94159" lon="4.52732">
        <ele>294.6</ele>
        <time>2025-09-11T09:25:17Z</time>
      </trkpt>
      <trkpt lat="45.94161" lon="4.52728">
        <ele>294.6</ele>
        <time>2025-09-11T09:25:18Z</time>
      </trkpt>
      <trkpt lat="45.94164" lon="4.52725">
        <ele>294.4</ele>
        <time>2025-09-11T09:25:19Z</time>
      </trkpt>
      <trkpt lat="45.94167" lon="4.52722">
        <ele>294.4</ele>
        <time>2025-09-11T09:25:20Z</time>
      </trkpt>
      <trkpt lat="45.9417" lon="4.5272">
        <ele>294</ele>
        <time>2025-09-11T09:25:21Z</time>
      </trkpt>
      <trkpt lat="45.94173" lon="4.52719">
        <ele>294</ele>
        <time>2025-09-11T09:25:22Z</time>
      </trkpt>
      <trkpt lat="45.94175" lon="4.52718">
        <ele>293.6</ele>
        <time>2025-09-11T09:25:23Z</time>
      </trkpt>
      <trkpt lat="45.94177" lon="4.52717">
        <ele>293.6</ele>
        <time>2025-09-11T09:25:24Z</time>
      </trkpt>
      <trkpt lat="45.94179" lon="4.52716">
        <ele>293.2</ele>
        <time>2025-09-11T09:25:25Z</time>
      </trkpt>
      <trkpt lat="45.94181" lon="4.52716">
        <ele>293.2</ele>
        <time>2025-09-11T09:25:26Z</time>
      </trkpt>
      <trkpt lat="45.94185" lon="4.52715">
        <ele>293.2</ele>
        <time>2025-09-11T09:25:27Z</time>
      </trkpt>
      <trkpt lat="45.94188" lon="4.52714">
        <ele>293.2</ele>
        <time>2025-09-11T09:25:28Z</time>
      </trkpt>
      <trkpt lat="45.94191" lon="4.52713">
        <ele>293.2</ele>
        <time>2025-09-11T09:25:29Z</time>
      </trkpt>
      <trkpt lat="45.94194" lon="4.52711">
        <ele>292.8</ele>
        <time>2025-09-11T09:25:30Z</time>
      </trkpt>
      <trkpt lat="45.94198" lon="4.5271">
        <ele>292.8</ele>
        <time>2025-09-11T09:25:31Z</time>
      </trkpt>
      <trkpt lat="45.94201" lon="4.52708">
        <ele>292.8</ele>
        <time>2025-09-11T09:25:32Z</time>
      </trkpt>
      <trkpt lat="45.94204" lon="4.52706">
        <ele>292.8</ele>
        <time>2025-09-11T09:25:33Z</time>
      </trkpt>
      <trkpt lat="45.94208" lon="4.52703">
        <ele>292</ele>
        <time>2025-09-11T09:25:34Z</time>
      </trkpt>
      <trkpt lat="45.94211" lon="4.527">
        <ele>292</ele>
        <time>2025-09-11T09:25:35Z</time>
      </trkpt>
      <trkpt lat="45.94214" lon="4.52697">
        <ele>292.4</ele>
        <time>2025-09-11T09:25:36Z</time>
      </trkpt>
      <trkpt lat="45.94217" lon="4.52694">
        <ele>292</ele>
        <time>2025-09-11T09:25:37Z</time>
      </trkpt>
      <trkpt lat="45.94219" lon="4.52691">
        <ele>292</ele>
        <time>2025-09-11T09:25:38Z</time>
      </trkpt>
      <trkpt lat="45.94222" lon="4.52687">
        <ele>291.8</ele>
        <time>2025-09-11T09:25:39Z</time>
      </trkpt>
      <trkpt lat="45.94224" lon="4.52684">
        <ele>291.6</ele>
        <time>2025-09-11T09:25:40Z</time>
      </trkpt>
      <trkpt lat="45.94226" lon="4.52681">
        <ele>291.6</ele>
        <time>2025-09-11T09:25:41Z</time>
      </trkpt>
      <trkpt lat="45.94229" lon="4.52678">
        <ele>291.6</ele>
        <time>2025-09-11T09:25:42Z</time>
      </trkpt>
      <trkpt lat="45.94231" lon="4.52675">
        <ele>291.2</ele>
        <time>2025-09-11T09:25:43Z</time>
      </trkpt>
      <trkpt lat="45.94233" lon="4.52672">
        <ele>291.2</ele>
        <time>2025-09-11T09:25:44Z</time>
      </trkpt>
      <trkpt lat="45.94236" lon="4.52668">
        <ele>291.2</ele>
        <time>2025-09-11T09:25:45Z</time>
      </trkpt>
      <trkpt lat="45.94238" lon="4.52665">
        <ele>291.2</ele>
        <time>2025-09-11T09:25:46Z</time>
      </trkpt>
      <trkpt lat="45.94241" lon="4.52662">
        <ele>291.4</ele>
        <time>2025-09-11T09:25:47Z</time>
      </trkpt>
      <trkpt lat="45.94243" lon="4.52659">
        <ele>291.4</ele>
        <time>2025-09-11T09:25:48Z</time>
      </trkpt>
      <trkpt lat="45.94245" lon="4.52656">
        <ele>291.2</ele>
        <time>2025-09-11T09:25:49Z</time>
      </trkpt>
      <trkpt lat="45.94247" lon="4.52652">
        <ele>291.2</ele>
        <time>2025-09-11T09:25:50Z</time>
      </trkpt>
      <trkpt lat="45.9425" lon="4.52649">
        <ele>291.2</ele>
        <time>2025-09-11T09:25:51Z</time>
      </trkpt>
      <trkpt lat="45.94253" lon="4.52646">
        <ele>291.2</ele>
        <time>2025-09-11T09:25:52Z</time>
      </trkpt>
      <trkpt lat="45.94256" lon="4.52644">
        <ele>291.2</ele>
        <time>2025-09-11T09:25:53Z</time>
      </trkpt>
      <trkpt lat="45.94259" lon="4.52642">
        <ele>291.2</ele>
        <time>2025-09-11T09:25:54Z</time>
      </trkpt>
      <trkpt lat="45.94262" lon="4.5264">
        <ele>290.8</ele>
        <time>2025-09-11T09:25:55Z</time>
      </trkpt>
      <trkpt lat="45.94265" lon="4.52639">
        <ele>290.8</ele>
        <time>2025-09-11T09:25:56Z</time>
      </trkpt>
      <trkpt lat="45.94268" lon="4.52637">
        <ele>290.8</ele>
        <time>2025-09-11T09:25:57Z</time>
      </trkpt>
      <trkpt lat="45.94271" lon="4.52635">
        <ele>291.2</ele>
        <time>2025-09-11T09:25:58Z</time>
      </trkpt>
      <trkpt lat="45.94273" lon="4.52634">
        <ele>291</ele>
        <time>2025-09-11T09:25:59Z</time>
      </trkpt>
      <trkpt lat="45.94275" lon="4.52632">
        <ele>291</ele>
        <time>2025-09-11T09:26:00Z</time>
      </trkpt>
      <trkpt lat="45.94277" lon="4.52631">
        <ele>291.2</ele>
        <time>2025-09-11T09:26:01Z</time>
      </trkpt>
      <trkpt lat="45.94279" lon="4.52629">
        <ele>291.2</ele>
        <time>2025-09-11T09:26:02Z</time>
      </trkpt>
      <trkpt lat="45.9428" lon="4.52628">
        <ele>291.6</ele>
        <time>2025-09-11T09:26:03Z</time>
      </trkpt>
      <trkpt lat="45.94281" lon="4.52626">
        <ele>291.8</ele>
        <time>2025-09-11T09:26:04Z</time>
      </trkpt>
      <trkpt lat="45.94282" lon="4.52625">
        <ele>291.8</ele>
        <time>2025-09-11T09:26:05Z</time>
      </trkpt>
      <trkpt lat="45.94283" lon="4.52623">
        <ele>292.2</ele>
        <time>2025-09-11T09:26:06Z</time>
      </trkpt>
      <trkpt lat="45.94283" lon="4.5262">
        <ele>292.2</ele>
        <time>2025-09-11T09:26:07Z</time>
      </trkpt>
      <trkpt lat="45.94283" lon="4.52618">
        <ele>292.2</ele>
        <time>2025-09-11T09:26:08Z</time>
      </trkpt>
      <trkpt lat="45.94284" lon="4.52615">
        <ele>292.2</ele>
        <time>2025-09-11T09:26:09Z</time>
      </trkpt>
      <trkpt lat="45.94285" lon="4.52612">
        <ele>292.2</ele>
        <time>2025-09-11T09:26:10Z</time>
      </trkpt>
      <trkpt lat="45.94285" lon="4.52612">
        <ele>292.6</ele>
        <time>2025-09-11T09:26:11Z</time>
      </trkpt>
      <trkpt lat="45.94285" lon="4.52613">
        <ele>292.6</ele>
        <time>2025-09-11T09:26:12Z</time>
      </trkpt>
      <trkpt lat="45.94284" lon="4.52609">
        <ele>292.6</ele>
        <time>2025-09-11T09:27:13Z</time>
      </trkpt>
      <trkpt lat="45.94285" lon="4.52607">
        <ele>292.6</ele>
        <time>2025-09-11T09:27:14Z</time>
      </trkpt>
      <trkpt lat="45.94286" lon="4.52606">
        <ele>292.6</ele>
        <time>2025-09-11T09:27:15Z</time>
      </trkpt>
      <trkpt lat="45.94287" lon="4.52605">
        <ele>292.6</ele>
        <time>2025-09-11T09:27:16Z</time>
      </trkpt>
      <trkpt lat="45.94288" lon="4.52604">
        <ele>292.6</ele>
        <time>2025-09-11T09:27:17Z</time>
      </trkpt>
      <trkpt lat="45.94288" lon="4.52603">
        <ele>292.6</ele>
        <time>2025-09-11T09:27:18Z</time>
      </trkpt>
      <trkpt lat="45.94288" lon="4.52603">
        <ele>292.6</ele>
        <time>2025-09-11T09:27:19Z</time>
      </trkpt>
      <trkpt lat="45.94287" lon="4.52604">
        <ele>292.6</ele>
        <time>2025-09-11T09:27:20Z</time>
      </trkpt>
      <trkpt lat="45.94285" lon="4.52606">
        <ele>292.6</ele>
        <time>2025-09-11T09:27:21Z</time>
      </trkpt>
      <trkpt lat="45.94285" lon="4.52609">
        <ele>292.6</ele>
        <time>2025-09-11T09:27:22Z</time>
      </trkpt>
      <trkpt lat="45.94284" lon="4.52613">
        <ele>292.6</ele>
        <time>2025-09-11T09:27:23Z</time>
      </trkpt>
      <trkpt lat="45.94284" lon="4.52617">
        <ele>292.6</ele>
        <time>2025-09-11T09:27:24Z</time>
      </trkpt>
      <trkpt lat="45.94283" lon="4.5262">
        <ele>292.6</ele>
        <time>2025-09-11T09:27:25Z</time>
      </trkpt>
      <trkpt lat="45.94283" lon="4.52623">
        <ele>292.8</ele>
        <time>2025-09-11T09:27:26Z</time>
      </trkpt>
      <trkpt lat="45.94283" lon="4.52627">
        <ele>292.8</ele>
        <time>2025-09-11T09:27:27Z</time>
      </trkpt>
      <trkpt lat="45.94282" lon="4.5263">
        <ele>292.8</ele>
        <time>2025-09-11T09:27:28Z</time>
      </trkpt>
      <trkpt lat="45.94282" lon="4.52633">
        <ele>292.8</ele>
        <time>2025-09-11T09:27:29Z</time>
      </trkpt>
      <trkpt lat="45.94282" lon="4.52635">
        <ele>292.8</ele>
        <time>2025-09-11T09:27:30Z</time>
      </trkpt>
      <trkpt lat="45.94282" lon="4.52638">
        <ele>292.8</ele>
        <time>2025-09-11T09:27:31Z</time>
      </trkpt>
      <trkpt lat="45.94282" lon="4.5264">
        <ele>292.8</ele>
        <time>2025-09-11T09:27:32Z</time>
      </trkpt>
      <trkpt lat="45.94282" lon="4.52643">
        <ele>292.8</ele>
        <time>2025-09-11T09:27:33Z</time>
      </trkpt>
      <trkpt lat="45.94282" lon="4.52644">
        <ele>293</ele>
        <time>2025-09-11T09:27:34Z</time>
      </trkpt>
      <trkpt lat="45.94282" lon="4.52646">
        <ele>293</ele>
        <time>2025-09-11T09:27:35Z</time>
      </trkpt>
      <trkpt lat="45.94281" lon="4.52649">
        <ele>293</ele>
        <time>2025-09-11T09:27:36Z</time>
      </trkpt>
      <trkpt lat="45.94281" lon="4.52651">
        <ele>293</ele>
        <time>2025-09-11T09:27:37Z</time>
      </trkpt>
      <trkpt lat="45.94281" lon="4.52653">
        <ele>293.2</ele>
        <time>2025-09-11T09:27:38Z</time>
      </trkpt>
      <trkpt lat="45.94282" lon="4.52656">
        <ele>293.4</ele>
        <time>2025-09-11T09:27:39Z</time>
      </trkpt>
      <trkpt lat="45.94282" lon="4.52658">
        <ele>293.4</ele>
        <time>2025-09-11T09:27:40Z</time>
      </trkpt>
      <trkpt lat="45.94283" lon="4.52661">
        <ele>293.4</ele>
        <time>2025-09-11T09:27:41Z</time>
      </trkpt>
      <trkpt lat="45.94283" lon="4.52663">
        <ele>293.4</ele>
        <time>2025-09-11T09:27:42Z</time>
      </trkpt>
      <trkpt lat="45.94283" lon="4.52666">
        <ele>293.4</ele>
        <time>2025-09-11T09:27:43Z</time>
      </trkpt>
      <trkpt lat="45.94283" lon="4.52669">
        <ele>293.8</ele>
        <time>2025-09-11T09:27:44Z</time>
      </trkpt>
      <trkpt lat="45.94282" lon="4.52672">
        <ele>293.8</ele>
        <time>2025-09-11T09:27:45Z</time>
      </trkpt>
      <trkpt lat="45.94282" lon="4.52674">
        <ele>294</ele>
        <time>2025-09-11T09:27:46Z</time>
      </trkpt>
      <trkpt lat="45.94282" lon="4.52676">
        <ele>294.2</ele>
        <time>2025-09-11T09:27:47Z</time>
      </trkpt>
      <trkpt lat="45.94281" lon="4.52678">
        <ele>294.2</ele>
        <time>2025-09-11T09:27:48Z</time>
      </trkpt>
      <trkpt lat="45.94281" lon="4.52681">
        <ele>294.2</ele>
        <time>2025-09-11T09:27:49Z</time>
      </trkpt>
      <trkpt lat="45.9428" lon="4.52683">
        <ele>294.6</ele>
        <time>2025-09-11T09:27:50Z</time>
      </trkpt>
      <trkpt lat="45.9428" lon="4.52685">
        <ele>294.8</ele>
        <time>2025-09-11T09:27:51Z</time>
      </trkpt>
      <trkpt lat="45.94279" lon="4.52688">
        <ele>295.2</ele>
        <time>2025-09-11T09:27:52Z</time>
      </trkpt>
      <trkpt lat="45.94279" lon="4.5269">
        <ele>295.2</ele>
        <time>2025-09-11T09:27:53Z</time>
      </trkpt>
      <trkpt lat="45.94279" lon="4.52693">
        <ele>295.2</ele>
        <time>2025-09-11T09:27:54Z</time>
      </trkpt>
      <trkpt lat="45.94279" lon="4.52695">
        <ele>295.2</ele>
        <time>2025-09-11T09:27:55Z</time>
      </trkpt>
      <trkpt lat="45.94278" lon="4.52697">
        <ele>295.2</ele>
        <time>2025-09-11T09:27:56Z</time>
      </trkpt>
      <trkpt lat="45.94278" lon="4.52699">
        <ele>295.6</ele>
        <time>2025-09-11T09:27:57Z</time>
      </trkpt>
      <trkpt lat="45.94278" lon="4.52701">
        <ele>295.6</ele>
        <time>2025-09-11T09:27:58Z</time>
      </trkpt>
      <trkpt lat="45.94278" lon="4.52702">
        <ele>295.8</ele>
        <time>2025-09-11T09:27:59Z</time>
      </trkpt>
      <trkpt lat="45.94277" lon="4.52704">
        <ele>295.8</ele>
        <time>2025-09-11T09:28:00Z</time>
      </trkpt>
      <trkpt lat="45.94276" lon="4.52706">
        <ele>296.2</ele>
        <time>2025-09-11T09:28:01Z</time>
      </trkpt>
      <trkpt lat="45.94276" lon="4.52709">
        <ele>296.4</ele>
        <time>2025-09-11T09:28:02Z</time>
      </trkpt>
      <trkpt lat="45.94274" lon="4.52714">
        <ele>296.4</ele>
        <time>2025-09-11T09:28:03Z</time>
      </trkpt>
      <trkpt lat="45.94274" lon="4.52716">
        <ele>296.4</ele>
        <time>2025-09-11T09:28:04Z</time>
      </trkpt>
      <trkpt lat="45.94274" lon="4.52719">
        <ele>296.8</ele>
        <time>2025-09-11T09:28:05Z</time>
      </trkpt>
      <trkpt lat="45.94274" lon="4.52721">
        <ele>296.8</ele>
        <time>2025-09-11T09:28:06Z</time>
      </trkpt>
      <trkpt lat="45.94273" lon="4.52723">
        <ele>297.2</ele>
        <time>2025-09-11T09:28:07Z</time>
      </trkpt>
      <trkpt lat="45.94273" lon="4.52726">
        <ele>297.2</ele>
        <time>2025-09-11T09:28:08Z</time>
      </trkpt>
      <trkpt lat="45.94272" lon="4.52729">
        <ele>297.2</ele>
        <time>2025-09-11T09:28:09Z</time>
      </trkpt>
      <trkpt lat="45.94271" lon="4.52732">
        <ele>297.4</ele>
        <time>2025-09-11T09:28:10Z</time>
      </trkpt>
      <trkpt lat="45.94271" lon="4.52735">
        <ele>297.4</ele>
        <time>2025-09-11T09:28:11Z</time>
      </trkpt>
      <trkpt lat="45.9427" lon="4.52737">
        <ele>297.4</ele>
        <time>2025-09-11T09:28:12Z</time>
      </trkpt>
      <trkpt lat="45.9427" lon="4.5274">
        <ele>297.8</ele>
        <time>2025-09-11T09:28:13Z</time>
      </trkpt>
      <trkpt lat="45.94269" lon="4.52743">
        <ele>297.8</ele>
        <time>2025-09-11T09:28:14Z</time>
      </trkpt>
      <trkpt lat="45.94269" lon="4.52743">
        <ele>298</ele>
        <time>2025-09-11T09:28:15Z</time>
      </trkpt>
      <trkpt lat="45.94268" lon="4.52746">
        <ele>298</ele>
        <time>2025-09-11T09:28:16Z</time>
      </trkpt>
      <trkpt lat="45.94268" lon="4.52749">
        <ele>298</ele>
        <time>2025-09-11T09:28:17Z</time>
      </trkpt>
      <trkpt lat="45.94269" lon="4.5275">
        <ele>298.4</ele>
        <time>2025-09-11T09:28:18Z</time>
      </trkpt>
      <trkpt lat="45.9427" lon="4.52752">
        <ele>298.4</ele>
        <time>2025-09-11T09:28:19Z</time>
      </trkpt>
      <trkpt lat="45.9427" lon="4.52754">
        <ele>298.4</ele>
        <time>2025-09-11T09:28:20Z</time>
      </trkpt>
      <trkpt lat="45.9427" lon="4.52757">
        <ele>298.4</ele>
        <time>2025-09-11T09:28:21Z</time>
      </trkpt>
      <trkpt lat="45.94271" lon="4.52759">
        <ele>298.6</ele>
        <time>2025-09-11T09:28:22Z</time>
      </trkpt>
      <trkpt lat="45.94271" lon="4.52762">
        <ele>298.6</ele>
        <time>2025-09-11T09:28:23Z</time>
      </trkpt>
      <trkpt lat="45.94271" lon="4.52764">
        <ele>298.8</ele>
        <time>2025-09-11T09:28:24Z</time>
      </trkpt>
      <trkpt lat="45.94272" lon="4.52766">
        <ele>298.8</ele>
        <time>2025-09-11T09:28:25Z</time>
      </trkpt>
      <trkpt lat="45.94272" lon="4.52769">
        <ele>299.2</ele>
        <time>2025-09-11T09:28:26Z</time>
      </trkpt>
      <trkpt lat="45.94272" lon="4.52771">
        <ele>299.4</ele>
        <time>2025-09-11T09:28:27Z</time>
      </trkpt>
      <trkpt lat="45.94273" lon="4.52774">
        <ele>299.6</ele>
        <time>2025-09-11T09:28:28Z</time>
      </trkpt>
      <trkpt lat="45.94273" lon="4.52776">
        <ele>300</ele>
        <time>2025-09-11T09:28:29Z</time>
      </trkpt>
      <trkpt lat="45.94273" lon="4.52778">
        <ele>300.2</ele>
        <time>2025-09-11T09:28:30Z</time>
      </trkpt>
      <trkpt lat="45.94273" lon="4.5278">
        <ele>300.4</ele>
        <time>2025-09-11T09:28:31Z</time>
      </trkpt>
      <trkpt lat="45.94274" lon="4.52783">
        <ele>300.4</ele>
        <time>2025-09-11T09:28:32Z</time>
      </trkpt>
      <trkpt lat="45.94274" lon="4.52785">
        <ele>300.8</ele>
        <time>2025-09-11T09:28:33Z</time>
      </trkpt>
      <trkpt lat="45.94274" lon="4.52787">
        <ele>300.8</ele>
        <time>2025-09-11T09:28:34Z</time>
      </trkpt>
      <trkpt lat="45.94274" lon="4.5279">
        <ele>300.8</ele>
        <time>2025-09-11T09:28:35Z</time>
      </trkpt>
      <trkpt lat="45.94274" lon="4.52792">
        <ele>301</ele>
        <time>2025-09-11T09:28:36Z</time>
      </trkpt>
      <trkpt lat="45.94275" lon="4.52795">
        <ele>301</ele>
        <time>2025-09-11T09:28:37Z</time>
      </trkpt>
      <trkpt lat="45.94275" lon="4.52797">
        <ele>301.4</ele>
        <time>2025-09-11T09:28:38Z</time>
      </trkpt>
      <trkpt lat="45.94275" lon="4.52799">
        <ele>301.4</ele>
        <time>2025-09-11T09:28:39Z</time>
      </trkpt>
      <trkpt lat="45.94275" lon="4.52801">
        <ele>301.4</ele>
        <time>2025-09-11T09:28:40Z</time>
      </trkpt>
      <trkpt lat="45.94275" lon="4.52803">
        <ele>301.8</ele>
        <time>2025-09-11T09:28:41Z</time>
      </trkpt>
      <trkpt lat="45.94275" lon="4.52805">
        <ele>302.2</ele>
        <time>2025-09-11T09:28:42Z</time>
      </trkpt>
      <trkpt lat="45.94276" lon="4.52807">
        <ele>302.2</ele>
        <time>2025-09-11T09:28:43Z</time>
      </trkpt>
      <trkpt lat="45.94276" lon="4.52809">
        <ele>302.4</ele>
        <time>2025-09-11T09:28:44Z</time>
      </trkpt>
      <trkpt lat="45.94276" lon="4.52812">
        <ele>302.6</ele>
        <time>2025-09-11T09:28:45Z</time>
      </trkpt>
      <trkpt lat="45.94276" lon="4.52814">
        <ele>302.6</ele>
        <time>2025-09-11T09:28:46Z</time>
      </trkpt>
      <trkpt lat="45.94276" lon="4.52816">
        <ele>302.6</ele>
        <time>2025-09-11T09:28:47Z</time>
      </trkpt>
      <trkpt lat="45.94277" lon="4.52818">
        <ele>302.8</ele>
        <time>2025-09-11T09:28:48Z</time>
      </trkpt>
      <trkpt lat="45.94277" lon="4.5282">
        <ele>302.8</ele>
        <time>2025-09-11T09:28:49Z</time>
      </trkpt>
      <trkpt lat="45.94277" lon="4.52822">
        <ele>302.8</ele>
        <time>2025-09-11T09:28:50Z</time>
      </trkpt>
      <trkpt lat="45.94277" lon="4.52824">
        <ele>303</ele>
        <time>2025-09-11T09:28:51Z</time>
      </trkpt>
      <trkpt lat="45.94277" lon="4.52826">
        <ele>303</ele>
        <time>2025-09-11T09:28:52Z</time>
      </trkpt>
      <trkpt lat="45.94277" lon="4.52828">
        <ele>303.4</ele>
        <time>2025-09-11T09:28:53Z</time>
      </trkpt>
      <trkpt lat="45.94277" lon="4.5283">
        <ele>303.4</ele>
        <time>2025-09-11T09:28:54Z</time>
      </trkpt>
      <trkpt lat="45.94277" lon="4.52832">
        <ele>303.4</ele>
        <time>2025-09-11T09:28:55Z</time>
      </trkpt>
      <trkpt lat="45.94277" lon="4.52835">
        <ele>303.6</ele>
        <time>2025-09-11T09:28:56Z</time>
      </trkpt>
      <trkpt lat="45.94278" lon="4.52837">
        <ele>303.6</ele>
        <time>2025-09-11T09:28:57Z</time>
      </trkpt>
      <trkpt lat="45.94278" lon="4.52839">
        <ele>303.6</ele>
        <time>2025-09-11T09:28:58Z</time>
      </trkpt>
      <trkpt lat="45.94278" lon="4.52842">
        <ele>303.8</ele>
        <time>2025-09-11T09:28:59Z</time>
      </trkpt>
      <trkpt lat="45.94278" lon="4.52844">
        <ele>303.8</ele>
        <time>2025-09-11T09:29:00Z</time>
      </trkpt>
      <trkpt lat="45.94278" lon="4.52847">
        <ele>303.8</ele>
        <time>2025-09-11T09:29:01Z</time>
      </trkpt>
      <trkpt lat="45.94278" lon="4.52849">
        <ele>304.2</ele>
        <time>2025-09-11T09:29:02Z</time>
      </trkpt>
      <trkpt lat="45.94278" lon="4.52852">
        <ele>304.2</ele>
        <time>2025-09-11T09:29:03Z</time>
      </trkpt>
      <trkpt lat="45.94278" lon="4.52854">
        <ele>304.6</ele>
        <time>2025-09-11T09:29:04Z</time>
      </trkpt>
      <trkpt lat="45.94278" lon="4.52857">
        <ele>304.6</ele>
        <time>2025-09-11T09:29:05Z</time>
      </trkpt>
      <trkpt lat="45.94279" lon="4.52859">
        <ele>304.8</ele>
        <time>2025-09-11T09:29:06Z</time>
      </trkpt>
      <trkpt lat="45.94279" lon="4.52861">
        <ele>305</ele>
        <time>2025-09-11T09:29:07Z</time>
      </trkpt>
      <trkpt lat="45.9428" lon="4.52863">
        <ele>305</ele>
        <time>2025-09-11T09:29:08Z</time>
      </trkpt>
      <trkpt lat="45.9428" lon="4.52865">
        <ele>305.4</ele>
        <time>2025-09-11T09:29:09Z</time>
      </trkpt>
      <trkpt lat="45.9428" lon="4.52867">
        <ele>305.4</ele>
        <time>2025-09-11T09:29:10Z</time>
      </trkpt>
      <trkpt lat="45.94281" lon="4.5287">
        <ele>305.6</ele>
        <time>2025-09-11T09:29:11Z</time>
      </trkpt>
      <trkpt lat="45.94282" lon="4.52872">
        <ele>305.6</ele>
        <time>2025-09-11T09:29:12Z</time>
      </trkpt>
      <trkpt lat="45.94284" lon="4.52875">
        <ele>305.6</ele>
        <time>2025-09-11T09:29:13Z</time>
      </trkpt>
      <trkpt lat="45.94285" lon="4.52877">
        <ele>305.8</ele>
        <time>2025-09-11T09:29:14Z</time>
      </trkpt>
      <trkpt lat="45.94286" lon="4.52877">
        <ele>305.8</ele>
        <time>2025-09-11T09:29:15Z</time>
      </trkpt>
      <trkpt lat="45.94288" lon="4.52876">
        <ele>306.2</ele>
        <time>2025-09-11T09:29:16Z</time>
      </trkpt>
      <trkpt lat="45.9429" lon="4.52874">
        <ele>306.2</ele>
        <time>2025-09-11T09:29:17Z</time>
      </trkpt>
      <trkpt lat="45.9429" lon="4.52871">
        <ele>306.4</ele>
        <time>2025-09-11T09:29:18Z</time>
      </trkpt>
      <trkpt lat="45.94291" lon="4.52868">
        <ele>306.4</ele>
        <time>2025-09-11T09:29:19Z</time>
      </trkpt>
      <trkpt lat="45.94291" lon="4.52865">
        <ele>306.4</ele>
        <time>2025-09-11T09:29:20Z</time>
      </trkpt>
      <trkpt lat="45.94291" lon="4.52863">
        <ele>306.8</ele>
        <time>2025-09-11T09:29:21Z</time>
      </trkpt>
      <trkpt lat="45.9429" lon="4.5286">
        <ele>306.8</ele>
        <time>2025-09-11T09:29:22Z</time>
      </trkpt>
      <trkpt lat="45.9429" lon="4.52857">
        <ele>307.2</ele>
        <time>2025-09-11T09:29:23Z</time>
      </trkpt>
      <trkpt lat="45.9429" lon="4.52855">
        <ele>307.2</ele>
        <time>2025-09-11T09:29:24Z</time>
      </trkpt>
      <trkpt lat="45.94289" lon="4.52853">
        <ele>307.2</ele>
        <time>2025-09-11T09:29:25Z</time>
      </trkpt>
      <trkpt lat="45.94289" lon="4.5285">
        <ele>307.4</ele>
        <time>2025-09-11T09:29:26Z</time>
      </trkpt>
      <trkpt lat="45.94288" lon="4.52848">
        <ele>307.8</ele>
        <time>2025-09-11T09:29:27Z</time>
      </trkpt>
      <trkpt lat="45.94288" lon="4.52845">
        <ele>307.8</ele>
        <time>2025-09-11T09:29:28Z</time>
      </trkpt>
      <trkpt lat="45.94288" lon="4.52843">
        <ele>308</ele>
        <time>2025-09-11T09:29:29Z</time>
      </trkpt>
      <trkpt lat="45.94288" lon="4.5284">
        <ele>308</ele>
        <time>2025-09-11T09:29:30Z</time>
      </trkpt>
      <trkpt lat="45.94289" lon="4.52838">
        <ele>308.2</ele>
        <time>2025-09-11T09:29:31Z</time>
      </trkpt>
      <trkpt lat="45.94289" lon="4.52835">
        <ele>308.2</ele>
        <time>2025-09-11T09:29:32Z</time>
      </trkpt>
      <trkpt lat="45.94289" lon="4.52832">
        <ele>308.4</ele>
        <time>2025-09-11T09:29:33Z</time>
      </trkpt>
      <trkpt lat="45.94289" lon="4.5283">
        <ele>308.4</ele>
        <time>2025-09-11T09:29:34Z</time>
      </trkpt>
      <trkpt lat="45.94288" lon="4.52827">
        <ele>308.8</ele>
        <time>2025-09-11T09:29:35Z</time>
      </trkpt>
      <trkpt lat="45.94288" lon="4.52825">
        <ele>308.8</ele>
        <time>2025-09-11T09:29:36Z</time>
      </trkpt>
      <trkpt lat="45.94288" lon="4.52822">
        <ele>308.8</ele>
        <time>2025-09-11T09:29:37Z</time>
      </trkpt>
      <trkpt lat="45.94288" lon="4.5282">
        <ele>308.8</ele>
        <time>2025-09-11T09:29:38Z</time>
      </trkpt>
      <trkpt lat="45.94288" lon="4.52817">
        <ele>309</ele>
        <time>2025-09-11T09:29:39Z</time>
      </trkpt>
      <trkpt lat="45.94288" lon="4.52815">
        <ele>309</ele>
        <time>2025-09-11T09:29:40Z</time>
      </trkpt>
      <trkpt lat="45.94288" lon="4.52812">
        <ele>309</ele>
        <time>2025-09-11T09:29:41Z</time>
      </trkpt>
      <trkpt lat="45.94288" lon="4.5281">
        <ele>309.4</ele>
        <time>2025-09-11T09:29:42Z</time>
      </trkpt>
      <trkpt lat="45.94288" lon="4.52808">
        <ele>309.6</ele>
        <time>2025-09-11T09:29:43Z</time>
      </trkpt>
      <trkpt lat="45.94288" lon="4.52805">
        <ele>309.6</ele>
        <time>2025-09-11T09:29:44Z</time>
      </trkpt>
      <trkpt lat="45.94288" lon="4.52803">
        <ele>309.6</ele>
        <time>2025-09-11T09:29:45Z</time>
      </trkpt>
      <trkpt lat="45.94289" lon="4.52801">
        <ele>309.6</ele>
        <time>2025-09-11T09:29:46Z</time>
      </trkpt>
      <trkpt lat="45.94289" lon="4.52798">
        <ele>310</ele>
        <time>2025-09-11T09:29:47Z</time>
      </trkpt>
      <trkpt lat="45.9429" lon="4.52795">
        <ele>310</ele>
        <time>2025-09-11T09:29:48Z</time>
      </trkpt>
      <trkpt lat="45.9429" lon="4.52793">
        <ele>310</ele>
        <time>2025-09-11T09:29:49Z</time>
      </trkpt>
      <trkpt lat="45.94291" lon="4.5279">
        <ele>310.2</ele>
        <time>2025-09-11T09:29:50Z</time>
      </trkpt>
      <trkpt lat="45.94291" lon="4.52788">
        <ele>310.2</ele>
        <time>2025-09-11T09:29:51Z</time>
      </trkpt>
      <trkpt lat="45.94292" lon="4.52785">
        <ele>310.6</ele>
        <time>2025-09-11T09:29:52Z</time>
      </trkpt>
      <trkpt lat="45.94292" lon="4.52782">
        <ele>310.6</ele>
        <time>2025-09-11T09:29:53Z</time>
      </trkpt>
      <trkpt lat="45.94292" lon="4.5278">
        <ele>310.8</ele>
        <time>2025-09-11T09:29:54Z</time>
      </trkpt>
      <trkpt lat="45.94293" lon="4.52777">
        <ele>310.8</ele>
        <time>2025-09-11T09:29:55Z</time>
      </trkpt>
      <trkpt lat="45.94293" lon="4.52775">
        <ele>310.8</ele>
        <time>2025-09-11T09:29:56Z</time>
      </trkpt>
      <trkpt lat="45.94294" lon="4.52772">
        <ele>310.8</ele>
        <time>2025-09-11T09:29:57Z</time>
      </trkpt>
      <trkpt lat="45.94294" lon="4.5277">
        <ele>311.2</ele>
        <time>2025-09-11T09:29:58Z</time>
      </trkpt>
      <trkpt lat="45.94295" lon="4.52767">
        <ele>311.2</ele>
        <time>2025-09-11T09:29:59Z</time>
      </trkpt>
      <trkpt lat="45.94295" lon="4.52765">
        <ele>311.6</ele>
        <time>2025-09-11T09:30:00Z</time>
      </trkpt>
      <trkpt lat="45.94296" lon="4.52762">
        <ele>311.8</ele>
        <time>2025-09-11T09:30:01Z</time>
      </trkpt>
      <trkpt lat="45.94297" lon="4.52759">
        <ele>312</ele>
        <time>2025-09-11T09:30:02Z</time>
      </trkpt>
      <trkpt lat="45.94298" lon="4.52757">
        <ele>312</ele>
        <time>2025-09-11T09:30:03Z</time>
      </trkpt>
      <trkpt lat="45.94299" lon="4.52754">
        <ele>312.4</ele>
        <time>2025-09-11T09:30:04Z</time>
      </trkpt>
      <trkpt lat="45.943" lon="4.52752">
        <ele>312.4</ele>
        <time>2025-09-11T09:30:05Z</time>
      </trkpt>
      <trkpt lat="45.94301" lon="4.52749">
        <ele>312.8</ele>
        <time>2025-09-11T09:30:06Z</time>
      </trkpt>
      <trkpt lat="45.94302" lon="4.52747">
        <ele>312.8</ele>
        <time>2025-09-11T09:30:07Z</time>
      </trkpt>
      <trkpt lat="45.94304" lon="4.52745">
        <ele>313.2</ele>
        <time>2025-09-11T09:30:08Z</time>
      </trkpt>
      <trkpt lat="45.94305" lon="4.52743">
        <ele>313.2</ele>
        <time>2025-09-11T09:30:09Z</time>
      </trkpt>
      <trkpt lat="45.94307" lon="4.52741">
        <ele>313.4</ele>
        <time>2025-09-11T09:30:10Z</time>
      </trkpt>
      <trkpt lat="45.94308" lon="4.5274">
        <ele>313.4</ele>
        <time>2025-09-11T09:30:11Z</time>
      </trkpt>
      <trkpt lat="45.94309" lon="4.52738">
        <ele>313.8</ele>
        <time>2025-09-11T09:30:12Z</time>
      </trkpt>
      <trkpt lat="45.94311" lon="4.52736">
        <ele>313.8</ele>
        <time>2025-09-11T09:30:13Z</time>
      </trkpt>
      <trkpt lat="45.94313" lon="4.52734">
        <ele>314</ele>
        <time>2025-09-11T09:30:14Z</time>
      </trkpt>
      <trkpt lat="45.94314" lon="4.52732">
        <ele>314</ele>
        <time>2025-09-11T09:30:15Z</time>
      </trkpt>
      <trkpt lat="45.94316" lon="4.5273">
        <ele>314.4</ele>
        <time>2025-09-11T09:30:16Z</time>
      </trkpt>
      <trkpt lat="45.94317" lon="4.52729">
        <ele>314.4</ele>
        <time>2025-09-11T09:30:17Z</time>
      </trkpt>
      <trkpt lat="45.94319" lon="4.52727">
        <ele>314.6</ele>
        <time>2025-09-11T09:30:18Z</time>
      </trkpt>
      <trkpt lat="45.9432" lon="4.52726">
        <ele>314.6</ele>
        <time>2025-09-11T09:30:19Z</time>
      </trkpt>
      <trkpt lat="45.94322" lon="4.52724">
        <ele>314.6</ele>
        <time>2025-09-11T09:30:20Z</time>
      </trkpt>
      <trkpt lat="45.94323" lon="4.52723">
        <ele>314.8</ele>
        <time>2025-09-11T09:30:21Z</time>
      </trkpt>
      <trkpt lat="45.94324" lon="4.52721">
        <ele>314.8</ele>
        <time>2025-09-11T09:30:22Z</time>
      </trkpt>
      <trkpt lat="45.94326" lon="4.5272">
        <ele>314.8</ele>
        <time>2025-09-11T09:30:23Z</time>
      </trkpt>
      <trkpt lat="45.94328" lon="4.52719">
        <ele>315.2</ele>
        <time>2025-09-11T09:30:24Z</time>
      </trkpt>
      <trkpt lat="45.94329" lon="4.52718">
        <ele>315.2</ele>
        <time>2025-09-11T09:30:25Z</time>
      </trkpt>
      <trkpt lat="45.94331" lon="4.52717">
        <ele>315.4</ele>
        <time>2025-09-11T09:30:26Z</time>
      </trkpt>
      <trkpt lat="45.94333" lon="4.52717">
        <ele>315.4</ele>
        <time>2025-09-11T09:30:27Z</time>
      </trkpt>
      <trkpt lat="45.94335" lon="4.52716">
        <ele>315.8</ele>
        <time>2025-09-11T09:30:28Z</time>
      </trkpt>
      <trkpt lat="45.94336" lon="4.52715">
        <ele>315.8</ele>
        <time>2025-09-11T09:30:29Z</time>
      </trkpt>
      <trkpt lat="45.94338" lon="4.52715">
        <ele>315.8</ele>
        <time>2025-09-11T09:30:30Z</time>
      </trkpt>
      <trkpt lat="45.9434" lon="4.52715">
        <ele>316.2</ele>
        <time>2025-09-11T09:30:31Z</time>
      </trkpt>
      <trkpt lat="45.94342" lon="4.52714">
        <ele>316.2</ele>
        <time>2025-09-11T09:30:32Z</time>
      </trkpt>
      <trkpt lat="45.94344" lon="4.52714">
        <ele>316.4</ele>
        <time>2025-09-11T09:30:33Z</time>
      </trkpt>
      <trkpt lat="45.94346" lon="4.52714">
        <ele>316.4</ele>
        <time>2025-09-11T09:30:34Z</time>
      </trkpt>
      <trkpt lat="45.94348" lon="4.52713">
        <ele>316.4</ele>
        <time>2025-09-11T09:30:35Z</time>
      </trkpt>
      <trkpt lat="45.94349" lon="4.52713">
        <ele>316.4</ele>
        <time>2025-09-11T09:30:36Z</time>
      </trkpt>
      <trkpt lat="45.94351" lon="4.52713">
        <ele>316.6</ele>
        <time>2025-09-11T09:30:37Z</time>
      </trkpt>
      <trkpt lat="45.94353" lon="4.52713">
        <ele>316.8</ele>
        <time>2025-09-11T09:30:38Z</time>
      </trkpt>
      <trkpt lat="45.94355" lon="4.52713">
        <ele>316.8</ele>
        <time>2025-09-11T09:30:39Z</time>
      </trkpt>
      <trkpt lat="45.94356" lon="4.52713">
        <ele>317.2</ele>
        <time>2025-09-11T09:30:40Z</time>
      </trkpt>
      <trkpt lat="45.94358" lon="4.52713">
        <ele>317.2</ele>
        <time>2025-09-11T09:30:41Z</time>
      </trkpt>
      <trkpt lat="45.9436" lon="4.52713">
        <ele>317.2</ele>
        <time>2025-09-11T09:30:42Z</time>
      </trkpt>
      <trkpt lat="45.94362" lon="4.52712">
        <ele>317.4</ele>
        <time>2025-09-11T09:30:43Z</time>
      </trkpt>
      <trkpt lat="45.94364" lon="4.52712">
        <ele>317.4</ele>
        <time>2025-09-11T09:30:44Z</time>
      </trkpt>
      <trkpt lat="45.94365" lon="4.52712">
        <ele>317.8</ele>
        <time>2025-09-11T09:30:45Z</time>
      </trkpt>
      <trkpt lat="45.94367" lon="4.52712">
        <ele>317.8</ele>
        <time>2025-09-11T09:30:46Z</time>
      </trkpt>
      <trkpt lat="45.94369" lon="4.52712">
        <ele>318</ele>
        <time>2025-09-11T09:30:47Z</time>
      </trkpt>
      <trkpt lat="45.94371" lon="4.52712">
        <ele>318.2</ele>
        <time>2025-09-11T09:30:48Z</time>
      </trkpt>
      <trkpt lat="45.94372" lon="4.52712">
        <ele>318.2</ele>
        <time>2025-09-11T09:30:49Z</time>
      </trkpt>
      <trkpt lat="45.94374" lon="4.52712">
        <ele>318</ele>
        <time>2025-09-11T09:30:50Z</time>
      </trkpt>
      <trkpt lat="45.94376" lon="4.52712">
        <ele>318.2</ele>
        <time>2025-09-11T09:30:51Z</time>
      </trkpt>
      <trkpt lat="45.94377" lon="4.52712">
        <ele>318.2</ele>
        <time>2025-09-11T09:30:52Z</time>
      </trkpt>
      <trkpt lat="45.94379" lon="4.52711">
        <ele>318.2</ele>
        <time>2025-09-11T09:30:53Z</time>
      </trkpt>
      <trkpt lat="45.94381" lon="4.52711">
        <ele>318.2</ele>
        <time>2025-09-11T09:30:54Z</time>
      </trkpt>
      <trkpt lat="45.94382" lon="4.5271">
        <ele>318.2</ele>
        <time>2025-09-11T09:30:55Z</time>
      </trkpt>
      <trkpt lat="45.94384" lon="4.5271">
        <ele>318.6</ele>
        <time>2025-09-11T09:30:56Z</time>
      </trkpt>
      <trkpt lat="45.94386" lon="4.5271">
        <ele>318.6</ele>
        <time>2025-09-11T09:30:57Z</time>
      </trkpt>
      <trkpt lat="45.94388" lon="4.5271">
        <ele>319</ele>
        <time>2025-09-11T09:30:58Z</time>
      </trkpt>
      <trkpt lat="45.9439" lon="4.5271">
        <ele>319.2</ele>
        <time>2025-09-11T09:30:59Z</time>
      </trkpt>
      <trkpt lat="45.94391" lon="4.5271">
        <ele>319.6</ele>
        <time>2025-09-11T09:31:00Z</time>
      </trkpt>
      <trkpt lat="45.94393" lon="4.5271">
        <ele>319.8</ele>
        <time>2025-09-11T09:31:01Z</time>
      </trkpt>
      <trkpt lat="45.94395" lon="4.5271">
        <ele>319.8</ele>
        <time>2025-09-11T09:31:02Z</time>
      </trkpt>
      <trkpt lat="45.94396" lon="4.5271">
        <ele>319.8</ele>
        <time>2025-09-11T09:31:03Z</time>
      </trkpt>
      <trkpt lat="45.94398" lon="4.5271">
        <ele>319.8</ele>
        <time>2025-09-11T09:31:04Z</time>
      </trkpt>
      <trkpt lat="45.944" lon="4.5271">
        <ele>319.8</ele>
        <time>2025-09-11T09:31:05Z</time>
      </trkpt>
      <trkpt lat="45.94401" lon="4.52709">
        <ele>319.8</ele>
        <time>2025-09-11T09:31:06Z</time>
      </trkpt>
      <trkpt lat="45.94403" lon="4.52709">
        <ele>319.4</ele>
        <time>2025-09-11T09:31:07Z</time>
      </trkpt>
      <trkpt lat="45.94405" lon="4.52709">
        <ele>320</ele>
        <time>2025-09-11T09:31:08Z</time>
      </trkpt>
      <trkpt lat="45.94406" lon="4.52708">
        <ele>320.2</ele>
        <time>2025-09-11T09:31:09Z</time>
      </trkpt>
      <trkpt lat="45.94408" lon="4.52708">
        <ele>320.2</ele>
        <time>2025-09-11T09:31:10Z</time>
      </trkpt>
      <trkpt lat="45.94409" lon="4.52707">
        <ele>320.6</ele>
        <time>2025-09-11T09:31:11Z</time>
      </trkpt>
      <trkpt lat="45.94411" lon="4.52706">
        <ele>320.8</ele>
        <time>2025-09-11T09:31:12Z</time>
      </trkpt>
      <trkpt lat="45.94412" lon="4.52706">
        <ele>320.8</ele>
        <time>2025-09-11T09:31:13Z</time>
      </trkpt>
      <trkpt lat="45.94414" lon="4.52706">
        <ele>321.2</ele>
        <time>2025-09-11T09:31:14Z</time>
      </trkpt>
      <trkpt lat="45.94415" lon="4.52705">
        <ele>321.2</ele>
        <time>2025-09-11T09:31:15Z</time>
      </trkpt>
      <trkpt lat="45.94417" lon="4.52704">
        <ele>321.4</ele>
        <time>2025-09-11T09:31:16Z</time>
      </trkpt>
      <trkpt lat="45.94418" lon="4.52703">
        <ele>321.4</ele>
        <time>2025-09-11T09:31:17Z</time>
      </trkpt>
      <trkpt lat="45.9442" lon="4.52702">
        <ele>321.4</ele>
        <time>2025-09-11T09:31:18Z</time>
      </trkpt>
      <trkpt lat="45.94422" lon="4.52701">
        <ele>321.6</ele>
        <time>2025-09-11T09:31:19Z</time>
      </trkpt>
      <trkpt lat="45.94423" lon="4.527">
        <ele>321.6</ele>
        <time>2025-09-11T09:31:20Z</time>
      </trkpt>
      <trkpt lat="45.94425" lon="4.52699">
        <ele>322</ele>
        <time>2025-09-11T09:31:21Z</time>
      </trkpt>
      <trkpt lat="45.94426" lon="4.52698">
        <ele>322.2</ele>
        <time>2025-09-11T09:31:22Z</time>
      </trkpt>
      <trkpt lat="45.94428" lon="4.52697">
        <ele>322.2</ele>
        <time>2025-09-11T09:31:23Z</time>
      </trkpt>
      <trkpt lat="45.9443" lon="4.52695">
        <ele>322.2</ele>
        <time>2025-09-11T09:31:24Z</time>
      </trkpt>
      <trkpt lat="45.94431" lon="4.52693">
        <ele>322.4</ele>
        <time>2025-09-11T09:31:25Z</time>
      </trkpt>
      <trkpt lat="45.94433" lon="4.52692">
        <ele>322.4</ele>
        <time>2025-09-11T09:31:26Z</time>
      </trkpt>
      <trkpt lat="45.94434" lon="4.5269">
        <ele>322.4</ele>
        <time>2025-09-11T09:31:27Z</time>
      </trkpt>
      <trkpt lat="45.94436" lon="4.52689">
        <ele>322.4</ele>
        <time>2025-09-11T09:31:28Z</time>
      </trkpt>
      <trkpt lat="45.94437" lon="4.52688">
        <ele>322.6</ele>
        <time>2025-09-11T09:31:29Z</time>
      </trkpt>
      <trkpt lat="45.94439" lon="4.52687">
        <ele>322.6</ele>
        <time>2025-09-11T09:31:30Z</time>
      </trkpt>
      <trkpt lat="45.9444" lon="4.52686">
        <ele>323.2</ele>
        <time>2025-09-11T09:31:31Z</time>
      </trkpt>
      <trkpt lat="45.94441" lon="4.52684">
        <ele>323.2</ele>
        <time>2025-09-11T09:31:32Z</time>
      </trkpt>
      <trkpt lat="45.94442" lon="4.52683">
        <ele>323.6</ele>
        <time>2025-09-11T09:31:33Z</time>
      </trkpt>
      <trkpt lat="45.94444" lon="4.52682">
        <ele>323.6</ele>
        <time>2025-09-11T09:31:34Z</time>
      </trkpt>
      <trkpt lat="45.94445" lon="4.52681">
        <ele>323.8</ele>
        <time>2025-09-11T09:31:35Z</time>
      </trkpt>
      <trkpt lat="45.94446" lon="4.5268">
        <ele>323.8</ele>
        <time>2025-09-11T09:31:36Z</time>
      </trkpt>
      <trkpt lat="45.94448" lon="4.52678">
        <ele>323.8</ele>
        <time>2025-09-11T09:31:37Z</time>
      </trkpt>
      <trkpt lat="45.94449" lon="4.52677">
        <ele>324</ele>
        <time>2025-09-11T09:31:38Z</time>
      </trkpt>
      <trkpt lat="45.9445" lon="4.52677">
        <ele>324</ele>
        <time>2025-09-11T09:31:39Z</time>
      </trkpt>
      <trkpt lat="45.94451" lon="4.52675">
        <ele>324.2</ele>
        <time>2025-09-11T09:31:40Z</time>
      </trkpt>
      <trkpt lat="45.94453" lon="4.52674">
        <ele>324.2</ele>
        <time>2025-09-11T09:31:41Z</time>
      </trkpt>
      <trkpt lat="45.94454" lon="4.52673">
        <ele>324.2</ele>
        <time>2025-09-11T09:31:42Z</time>
      </trkpt>
      <trkpt lat="45.94455" lon="4.52672">
        <ele>324.6</ele>
        <time>2025-09-11T09:31:43Z</time>
      </trkpt>
      <trkpt lat="45.94457" lon="4.5267">
        <ele>324.6</ele>
        <time>2025-09-11T09:31:44Z</time>
      </trkpt>
      <trkpt lat="45.94458" lon="4.5267">
        <ele>324.8</ele>
        <time>2025-09-11T09:31:45Z</time>
      </trkpt>
      <trkpt lat="45.9446" lon="4.52669">
        <ele>324.8</ele>
        <time>2025-09-11T09:31:46Z</time>
      </trkpt>
      <trkpt lat="45.94461" lon="4.52667">
        <ele>325.2</ele>
        <time>2025-09-11T09:31:47Z</time>
      </trkpt>
      <trkpt lat="45.94463" lon="4.52666">
        <ele>325.2</ele>
        <time>2025-09-11T09:31:48Z</time>
      </trkpt>
      <trkpt lat="45.94464" lon="4.52665">
        <ele>325.2</ele>
        <time>2025-09-11T09:31:49Z</time>
      </trkpt>
      <trkpt lat="45.94466" lon="4.52664">
        <ele>325.2</ele>
        <time>2025-09-11T09:31:50Z</time>
      </trkpt>
      <trkpt lat="45.94467" lon="4.52663">
        <ele>325.6</ele>
        <time>2025-09-11T09:31:51Z</time>
      </trkpt>
      <trkpt lat="45.94469" lon="4.52663">
        <ele>326</ele>
        <time>2025-09-11T09:31:52Z</time>
      </trkpt>
      <trkpt lat="45.94471" lon="4.52662">
        <ele>326</ele>
        <time>2025-09-11T09:31:53Z</time>
      </trkpt>
      <trkpt lat="45.94473" lon="4.52661">
        <ele>326.2</ele>
        <time>2025-09-11T09:31:54Z</time>
      </trkpt>
      <trkpt lat="45.94474" lon="4.5266">
        <ele>326.2</ele>
        <time>2025-09-11T09:31:55Z</time>
      </trkpt>
      <trkpt lat="45.94476" lon="4.52659">
        <ele>326.6</ele>
        <time>2025-09-11T09:31:56Z</time>
      </trkpt>
      <trkpt lat="45.94477" lon="4.52658">
        <ele>326.6</ele>
        <time>2025-09-11T09:31:57Z</time>
      </trkpt>
      <trkpt lat="45.94479" lon="4.52656">
        <ele>326.8</ele>
        <time>2025-09-11T09:31:58Z</time>
      </trkpt>
      <trkpt lat="45.94481" lon="4.52655">
        <ele>326.8</ele>
        <time>2025-09-11T09:31:59Z</time>
      </trkpt>
      <trkpt lat="45.94482" lon="4.52654">
        <ele>326.8</ele>
        <time>2025-09-11T09:32:00Z</time>
      </trkpt>
      <trkpt lat="45.94484" lon="4.52653">
        <ele>327</ele>
        <time>2025-09-11T09:32:01Z</time>
      </trkpt>
      <trkpt lat="45.94486" lon="4.52652">
        <ele>327</ele>
        <time>2025-09-11T09:32:02Z</time>
      </trkpt>
      <trkpt lat="45.94487" lon="4.52651">
        <ele>327.4</ele>
        <time>2025-09-11T09:32:03Z</time>
      </trkpt>
      <trkpt lat="45.94489" lon="4.5265">
        <ele>327.4</ele>
        <time>2025-09-11T09:32:04Z</time>
      </trkpt>
      <trkpt lat="45.9449" lon="4.52648">
        <ele>327.6</ele>
        <time>2025-09-11T09:32:05Z</time>
      </trkpt>
      <trkpt lat="45.94492" lon="4.52646">
        <ele>327.6</ele>
        <time>2025-09-11T09:32:06Z</time>
      </trkpt>
      <trkpt lat="45.94493" lon="4.52645">
        <ele>327.6</ele>
        <time>2025-09-11T09:32:07Z</time>
      </trkpt>
      <trkpt lat="45.94495" lon="4.52643">
        <ele>327.6</ele>
        <time>2025-09-11T09:32:08Z</time>
      </trkpt>
      <trkpt lat="45.94496" lon="4.52641">
        <ele>327.8</ele>
        <time>2025-09-11T09:32:09Z</time>
      </trkpt>
      <trkpt lat="45.94497" lon="4.52639">
        <ele>327.8</ele>
        <time>2025-09-11T09:32:10Z</time>
      </trkpt>
      <trkpt lat="45.94499" lon="4.52637">
        <ele>327.8</ele>
        <time>2025-09-11T09:32:11Z</time>
      </trkpt>
      <trkpt lat="45.945" lon="4.52635">
        <ele>327.8</ele>
        <time>2025-09-11T09:32:12Z</time>
      </trkpt>
      <trkpt lat="45.94501" lon="4.52633">
        <ele>327.8</ele>
        <time>2025-09-11T09:32:13Z</time>
      </trkpt>
      <trkpt lat="45.94502" lon="4.5263">
        <ele>327.8</ele>
        <time>2025-09-11T09:32:14Z</time>
      </trkpt>
      <trkpt lat="45.94503" lon="4.52628">
        <ele>328</ele>
        <time>2025-09-11T09:32:15Z</time>
      </trkpt>
      <trkpt lat="45.94504" lon="4.52625">
        <ele>328</ele>
        <time>2025-09-11T09:32:16Z</time>
      </trkpt>
      <trkpt lat="45.94505" lon="4.52623">
        <ele>328.4</ele>
        <time>2025-09-11T09:32:17Z</time>
      </trkpt>
      <trkpt lat="45.94506" lon="4.52621">
        <ele>328.4</ele>
        <time>2025-09-11T09:32:18Z</time>
      </trkpt>
      <trkpt lat="45.94507" lon="4.52619">
        <ele>328.4</ele>
        <time>2025-09-11T09:32:19Z</time>
      </trkpt>
      <trkpt lat="45.94508" lon="4.52617">
        <ele>328.6</ele>
        <time>2025-09-11T09:32:20Z</time>
      </trkpt>
      <trkpt lat="45.94509" lon="4.52615">
        <ele>328.6</ele>
        <time>2025-09-11T09:32:21Z</time>
      </trkpt>
      <trkpt lat="45.94509" lon="4.52613">
        <ele>328.8</ele>
        <time>2025-09-11T09:32:22Z</time>
      </trkpt>
      <trkpt lat="45.9451" lon="4.52612">
        <ele>328.8</ele>
        <time>2025-09-11T09:32:23Z</time>
      </trkpt>
      <trkpt lat="45.94511" lon="4.5261">
        <ele>329.2</ele>
        <time>2025-09-11T09:32:24Z</time>
      </trkpt>
      <trkpt lat="45.94513" lon="4.52608">
        <ele>329.4</ele>
        <time>2025-09-11T09:32:25Z</time>
      </trkpt>
      <trkpt lat="45.94514" lon="4.52606">
        <ele>329.6</ele>
        <time>2025-09-11T09:32:26Z</time>
      </trkpt>
      <trkpt lat="45.94515" lon="4.52604">
        <ele>329.8</ele>
        <time>2025-09-11T09:32:27Z</time>
      </trkpt>
      <trkpt lat="45.94516" lon="4.52602">
        <ele>329.8</ele>
        <time>2025-09-11T09:32:28Z</time>
      </trkpt>
      <trkpt lat="45.94517" lon="4.526">
        <ele>330.2</ele>
        <time>2025-09-11T09:32:29Z</time>
      </trkpt>
      <trkpt lat="45.94519" lon="4.52595">
        <ele>330.2</ele>
        <time>2025-09-11T09:32:30Z</time>
      </trkpt>
      <trkpt lat="45.9452" lon="4.52593">
        <ele>330.4</ele>
        <time>2025-09-11T09:32:31Z</time>
      </trkpt>
      <trkpt lat="45.94521" lon="4.52591">
        <ele>330.4</ele>
        <time>2025-09-11T09:32:32Z</time>
      </trkpt>
      <trkpt lat="45.94523" lon="4.52589">
        <ele>330.8</ele>
        <time>2025-09-11T09:32:33Z</time>
      </trkpt>
      <trkpt lat="45.94524" lon="4.52587">
        <ele>330.8</ele>
        <time>2025-09-11T09:32:34Z</time>
      </trkpt>
      <trkpt lat="45.94525" lon="4.52585">
        <ele>331</ele>
        <time>2025-09-11T09:32:35Z</time>
      </trkpt>
      <trkpt lat="45.94527" lon="4.52583">
        <ele>331</ele>
        <time>2025-09-11T09:32:36Z</time>
      </trkpt>
      <trkpt lat="45.94528" lon="4.52581">
        <ele>331.2</ele>
        <time>2025-09-11T09:32:37Z</time>
      </trkpt>
      <trkpt lat="45.94529" lon="4.52579">
        <ele>331.2</ele>
        <time>2025-09-11T09:32:38Z</time>
      </trkpt>
      <trkpt lat="45.9453" lon="4.52577">
        <ele>331.6</ele>
        <time>2025-09-11T09:32:39Z</time>
      </trkpt>
      <trkpt lat="45.94531" lon="4.52575">
        <ele>331.6</ele>
        <time>2025-09-11T09:32:40Z</time>
      </trkpt>
      <trkpt lat="45.94531" lon="4.52575">
        <ele>331.6</ele>
        <time>2025-09-11T09:32:41Z</time>
      </trkpt>
      <trkpt lat="45.94532" lon="4.52573">
        <ele>331.8</ele>
        <time>2025-09-11T09:32:42Z</time>
      </trkpt>
      <trkpt lat="45.94533" lon="4.52571">
        <ele>331.8</ele>
        <time>2025-09-11T09:32:43Z</time>
      </trkpt>
      <trkpt lat="45.94534" lon="4.52569">
        <ele>331.8</ele>
        <time>2025-09-11T09:32:44Z</time>
      </trkpt>
      <trkpt lat="45.94535" lon="4.52568">
        <ele>331.8</ele>
        <time>2025-09-11T09:32:45Z</time>
      </trkpt>
      <trkpt lat="45.94537" lon="4.52566">
        <ele>332</ele>
        <time>2025-09-11T09:32:46Z</time>
      </trkpt>
      <trkpt lat="45.94538" lon="4.52564">
        <ele>332</ele>
        <time>2025-09-11T09:32:47Z</time>
      </trkpt>
      <trkpt lat="45.94539" lon="4.52562">
        <ele>332.2</ele>
        <time>2025-09-11T09:32:48Z</time>
      </trkpt>
      <trkpt lat="45.94539" lon="4.52562">
        <ele>332.6</ele>
        <time>2025-09-11T09:32:49Z</time>
      </trkpt>
      <trkpt lat="45.94539" lon="4.52562">
        <ele>332.6</ele>
        <time>2025-09-11T09:32:50Z</time>
      </trkpt>
      <trkpt lat="45.94544" lon="4.52555">
        <ele>333.2</ele>
        <time>2025-09-11T09:32:52Z</time>
      </trkpt>
      <trkpt lat="45.94545" lon="4.52554">
        <ele>333.2</ele>
        <time>2025-09-11T09:32:53Z</time>
      </trkpt>
      <trkpt lat="45.94547" lon="4.52552">
        <ele>333.2</ele>
        <time>2025-09-11T09:32:54Z</time>
      </trkpt>
      <trkpt lat="45.94548" lon="4.52551">
        <ele>333.4</ele>
        <time>2025-09-11T09:32:55Z</time>
      </trkpt>
      <trkpt lat="45.9455" lon="4.52549">
        <ele>333.4</ele>
        <time>2025-09-11T09:32:56Z</time>
      </trkpt>
      <trkpt lat="45.94551" lon="4.52548">
        <ele>333.8</ele>
        <time>2025-09-11T09:32:57Z</time>
      </trkpt>
      <trkpt lat="45.94552" lon="4.52547">
        <ele>334</ele>
        <time>2025-09-11T09:32:58Z</time>
      </trkpt>
      <trkpt lat="45.94554" lon="4.52545">
        <ele>334</ele>
        <time>2025-09-11T09:32:59Z</time>
      </trkpt>
      <trkpt lat="45.94555" lon="4.52544">
        <ele>334</ele>
        <time>2025-09-11T09:33:00Z</time>
      </trkpt>
      <trkpt lat="45.94557" lon="4.52543">
        <ele>334</ele>
        <time>2025-09-11T09:33:01Z</time>
      </trkpt>
      <trkpt lat="45.94558" lon="4.52541">
        <ele>334</ele>
        <time>2025-09-11T09:33:02Z</time>
      </trkpt>
      <trkpt lat="45.9456" lon="4.5254">
        <ele>334.2</ele>
        <time>2025-09-11T09:33:03Z</time>
      </trkpt>
      <trkpt lat="45.94561" lon="4.52539">
        <ele>334.4</ele>
        <time>2025-09-11T09:33:04Z</time>
      </trkpt>
      <trkpt lat="45.94563" lon="4.52538">
        <ele>334.4</ele>
        <time>2025-09-11T09:33:05Z</time>
      </trkpt>
      <trkpt lat="45.94564" lon="4.52536">
        <ele>334.4</ele>
        <time>2025-09-11T09:33:06Z</time>
      </trkpt>
      <trkpt lat="45.94566" lon="4.52535">
        <ele>334.6</ele>
        <time>2025-09-11T09:33:07Z</time>
      </trkpt>
      <trkpt lat="45.94567" lon="4.52533">
        <ele>334.6</ele>
        <time>2025-09-11T09:33:08Z</time>
      </trkpt>
      <trkpt lat="45.94569" lon="4.52532">
        <ele>334.6</ele>
        <time>2025-09-11T09:33:09Z</time>
      </trkpt>
      <trkpt lat="45.9457" lon="4.52531">
        <ele>334.6</ele>
        <time>2025-09-11T09:33:10Z</time>
      </trkpt>
      <trkpt lat="45.94572" lon="4.52529">
        <ele>334.8</ele>
        <time>2025-09-11T09:33:11Z</time>
      </trkpt>
      <trkpt lat="45.94573" lon="4.52528">
        <ele>334.8</ele>
        <time>2025-09-11T09:33:12Z</time>
      </trkpt>
      <trkpt lat="45.94575" lon="4.52527">
        <ele>334.8</ele>
        <time>2025-09-11T09:33:13Z</time>
      </trkpt>
      <trkpt lat="45.94577" lon="4.52526">
        <ele>335.2</ele>
        <time>2025-09-11T09:33:14Z</time>
      </trkpt>
      <trkpt lat="45.94578" lon="4.52526">
        <ele>335.2</ele>
        <time>2025-09-11T09:33:15Z</time>
      </trkpt>
      <trkpt lat="45.9458" lon="4.52525">
        <ele>335.6</ele>
        <time>2025-09-11T09:33:16Z</time>
      </trkpt>
      <trkpt lat="45.94582" lon="4.52526">
        <ele>335.8</ele>
        <time>2025-09-11T09:33:17Z</time>
      </trkpt>
      <trkpt lat="45.94584" lon="4.52527">
        <ele>336</ele>
        <time>2025-09-11T09:33:18Z</time>
      </trkpt>
      <trkpt lat="45.94586" lon="4.52529">
        <ele>336</ele>
        <time>2025-09-11T09:33:19Z</time>
      </trkpt>
      <trkpt lat="45.94587" lon="4.52532">
        <ele>336</ele>
        <time>2025-09-11T09:33:20Z</time>
      </trkpt>
      <trkpt lat="45.94587" lon="4.52534">
        <ele>336.4</ele>
        <time>2025-09-11T09:33:21Z</time>
      </trkpt>
      <trkpt lat="45.94587" lon="4.52538">
        <ele>336.4</ele>
        <time>2025-09-11T09:33:22Z</time>
      </trkpt>
      <trkpt lat="45.94586" lon="4.52541">
        <ele>336.8</ele>
        <time>2025-09-11T09:33:23Z</time>
      </trkpt>
      <trkpt lat="45.94585" lon="4.52543">
        <ele>336.8</ele>
        <time>2025-09-11T09:33:24Z</time>
      </trkpt>
      <trkpt lat="45.94583" lon="4.52545">
        <ele>337</ele>
        <time>2025-09-11T09:33:25Z</time>
      </trkpt>
      <trkpt lat="45.94581" lon="4.52546">
        <ele>337.2</ele>
        <time>2025-09-11T09:33:26Z</time>
      </trkpt>
      <trkpt lat="45.94579" lon="4.52547">
        <ele>337.2</ele>
        <time>2025-09-11T09:33:27Z</time>
      </trkpt>
      <trkpt lat="45.94578" lon="4.52548">
        <ele>337.2</ele>
        <time>2025-09-11T09:33:28Z</time>
      </trkpt>
      <trkpt lat="45.94576" lon="4.52548">
        <ele>337.6</ele>
        <time>2025-09-11T09:33:29Z</time>
      </trkpt>
      <trkpt lat="45.94574" lon="4.52549">
        <ele>337.6</ele>
        <time>2025-09-11T09:33:30Z</time>
      </trkpt>
      <trkpt lat="45.94572" lon="4.52549">
        <ele>338</ele>
        <time>2025-09-11T09:33:31Z</time>
      </trkpt>
      <trkpt lat="45.9457" lon="4.5255">
        <ele>338.2</ele>
        <time>2025-09-11T09:33:32Z</time>
      </trkpt>
      <trkpt lat="45.94568" lon="4.5255">
        <ele>338.2</ele>
        <time>2025-09-11T09:33:33Z</time>
      </trkpt>
      <trkpt lat="45.94566" lon="4.52551">
        <ele>338.4</ele>
        <time>2025-09-11T09:33:34Z</time>
      </trkpt>
      <trkpt lat="45.94565" lon="4.52552">
        <ele>338.4</ele>
        <time>2025-09-11T09:33:35Z</time>
      </trkpt>
      <trkpt lat="45.94563" lon="4.52554">
        <ele>338.4</ele>
        <time>2025-09-11T09:33:36Z</time>
      </trkpt>
      <trkpt lat="45.94562" lon="4.52555">
        <ele>338.8</ele>
        <time>2025-09-11T09:33:37Z</time>
      </trkpt>
      <trkpt lat="45.9456" lon="4.52557">
        <ele>338.8</ele>
        <time>2025-09-11T09:33:38Z</time>
      </trkpt>
      <trkpt lat="45.94559" lon="4.52558">
        <ele>339</ele>
        <time>2025-09-11T09:33:39Z</time>
      </trkpt>
      <trkpt lat="45.94558" lon="4.5256">
        <ele>339</ele>
        <time>2025-09-11T09:33:40Z</time>
      </trkpt>
      <trkpt lat="45.94556" lon="4.52562">
        <ele>339.2</ele>
        <time>2025-09-11T09:33:41Z</time>
      </trkpt>
      <trkpt lat="45.94555" lon="4.52565">
        <ele>339.2</ele>
        <time>2025-09-11T09:33:42Z</time>
      </trkpt>
      <trkpt lat="45.94555" lon="4.52565">
        <ele>339.2</ele>
        <time>2025-09-11T09:33:43Z</time>
      </trkpt>
      <trkpt lat="45.94553" lon="4.52569">
        <ele>339.2</ele>
        <time>2025-09-11T09:33:44Z</time>
      </trkpt>
      <trkpt lat="45.94552" lon="4.52572">
        <ele>339.4</ele>
        <time>2025-09-11T09:33:45Z</time>
      </trkpt>
      <trkpt lat="45.94551" lon="4.52574">
        <ele>339.4</ele>
        <time>2025-09-11T09:33:46Z</time>
      </trkpt>
      <trkpt lat="45.9455" lon="4.52577">
        <ele>339.4</ele>
        <time>2025-09-11T09:33:47Z</time>
      </trkpt>
      <trkpt lat="45.9455" lon="4.52579">
        <ele>339.4</ele>
        <time>2025-09-11T09:33:48Z</time>
      </trkpt>
      <trkpt lat="45.94549" lon="4.52582">
        <ele>339.4</ele>
        <time>2025-09-11T09:33:49Z</time>
      </trkpt>
      <trkpt lat="45.94548" lon="4.52585">
        <ele>339.4</ele>
        <time>2025-09-11T09:33:50Z</time>
      </trkpt>
      <trkpt lat="45.94548" lon="4.52588">
        <ele>339.4</ele>
        <time>2025-09-11T09:33:51Z</time>
      </trkpt>
      <trkpt lat="45.94547" lon="4.5259">
        <ele>339.6</ele>
        <time>2025-09-11T09:33:52Z</time>
      </trkpt>
      <trkpt lat="45.94546" lon="4.52593">
        <ele>340</ele>
        <time>2025-09-11T09:33:53Z</time>
      </trkpt>
      <trkpt lat="45.94545" lon="4.52596">
        <ele>340</ele>
        <time>2025-09-11T09:33:54Z</time>
      </trkpt>
      <trkpt lat="45.94545" lon="4.52599">
        <ele>340.2</ele>
        <time>2025-09-11T09:33:55Z</time>
      </trkpt>
      <trkpt lat="45.94544" lon="4.52601">
        <ele>340.2</ele>
        <time>2025-09-11T09:33:56Z</time>
      </trkpt>
      <trkpt lat="45.94544" lon="4.52604">
        <ele>340.2</ele>
        <time>2025-09-11T09:33:57Z</time>
      </trkpt>
      <trkpt lat="45.94544" lon="4.52607">
        <ele>340.2</ele>
        <time>2025-09-11T09:33:58Z</time>
      </trkpt>
      <trkpt lat="45.94544" lon="4.52609">
        <ele>340.6</ele>
        <time>2025-09-11T09:33:59Z</time>
      </trkpt>
      <trkpt lat="45.94543" lon="4.52611">
        <ele>340.6</ele>
        <time>2025-09-11T09:34:00Z</time>
      </trkpt>
      <trkpt lat="45.94543" lon="4.52614">
        <ele>340.6</ele>
        <time>2025-09-11T09:34:01Z</time>
      </trkpt>
      <trkpt lat="45.94543" lon="4.52616">
        <ele>341</ele>
        <time>2025-09-11T09:34:02Z</time>
      </trkpt>
      <trkpt lat="45.94542" lon="4.52619">
        <ele>341</ele>
        <time>2025-09-11T09:34:03Z</time>
      </trkpt>
      <trkpt lat="45.94541" lon="4.52622">
        <ele>341.2</ele>
        <time>2025-09-11T09:34:04Z</time>
      </trkpt>
      <trkpt lat="45.94541" lon="4.52624">
        <ele>341.2</ele>
        <time>2025-09-11T09:34:05Z</time>
      </trkpt>
      <trkpt lat="45.9454" lon="4.52627">
        <ele>341.2</ele>
        <time>2025-09-11T09:34:06Z</time>
      </trkpt>
      <trkpt lat="45.9454" lon="4.5263">
        <ele>341.2</ele>
        <time>2025-09-11T09:34:07Z</time>
      </trkpt>
      <trkpt lat="45.9454" lon="4.52633">
        <ele>341.2</ele>
        <time>2025-09-11T09:34:08Z</time>
      </trkpt>
      <trkpt lat="45.9454" lon="4.52636">
        <ele>341.4</ele>
        <time>2025-09-11T09:34:09Z</time>
      </trkpt>
      <trkpt lat="45.9454" lon="4.52638">
        <ele>341.4</ele>
        <time>2025-09-11T09:34:10Z</time>
      </trkpt>
      <trkpt lat="45.94539" lon="4.52641">
        <ele>341.4</ele>
        <time>2025-09-11T09:34:11Z</time>
      </trkpt>
      <trkpt lat="45.94539" lon="4.52644">
        <ele>341.8</ele>
        <time>2025-09-11T09:34:12Z</time>
      </trkpt>
      <trkpt lat="45.94539" lon="4.52646">
        <ele>341.8</ele>
        <time>2025-09-11T09:34:13Z</time>
      </trkpt>
      <trkpt lat="45.94539" lon="4.52649">
        <ele>342</ele>
        <time>2025-09-11T09:34:14Z</time>
      </trkpt>
      <trkpt lat="45.94539" lon="4.52651">
        <ele>342</ele>
        <time>2025-09-11T09:34:15Z</time>
      </trkpt>
      <trkpt lat="45.94539" lon="4.52653">
        <ele>342.4</ele>
        <time>2025-09-11T09:34:16Z</time>
      </trkpt>
      <trkpt lat="45.94538" lon="4.52656">
        <ele>342.6</ele>
        <time>2025-09-11T09:34:17Z</time>
      </trkpt>
      <trkpt lat="45.94538" lon="4.52658">
        <ele>342.8</ele>
        <time>2025-09-11T09:34:18Z</time>
      </trkpt>
      <trkpt lat="45.94538" lon="4.52661">
        <ele>342.8</ele>
        <time>2025-09-11T09:34:19Z</time>
      </trkpt>
      <trkpt lat="45.94537" lon="4.52664">
        <ele>343</ele>
        <time>2025-09-11T09:34:20Z</time>
      </trkpt>
      <trkpt lat="45.94537" lon="4.52666">
        <ele>343</ele>
        <time>2025-09-11T09:34:21Z</time>
      </trkpt>
      <trkpt lat="45.94537" lon="4.52669">
        <ele>343</ele>
        <time>2025-09-11T09:34:22Z</time>
      </trkpt>
      <trkpt lat="45.94537" lon="4.52671">
        <ele>343.4</ele>
        <time>2025-09-11T09:34:23Z</time>
      </trkpt>
      <trkpt lat="45.94537" lon="4.52674">
        <ele>343.4</ele>
        <time>2025-09-11T09:34:24Z</time>
      </trkpt>
      <trkpt lat="45.94537" lon="4.52676">
        <ele>343.8</ele>
        <time>2025-09-11T09:34:25Z</time>
      </trkpt>
      <trkpt lat="45.94537" lon="4.52679">
        <ele>343.8</ele>
        <time>2025-09-11T09:34:26Z</time>
      </trkpt>
      <trkpt lat="45.94537" lon="4.52681">
        <ele>343.8</ele>
        <time>2025-09-11T09:34:27Z</time>
      </trkpt>
      <trkpt lat="45.94537" lon="4.52683">
        <ele>343.8</ele>
        <time>2025-09-11T09:34:28Z</time>
      </trkpt>
      <trkpt lat="45.94536" lon="4.52686">
        <ele>344</ele>
        <time>2025-09-11T09:34:29Z</time>
      </trkpt>
      <trkpt lat="45.94536" lon="4.52688">
        <ele>344</ele>
        <time>2025-09-11T09:34:30Z</time>
      </trkpt>
      <trkpt lat="45.94535" lon="4.52691">
        <ele>344.4</ele>
        <time>2025-09-11T09:34:31Z</time>
      </trkpt>
      <trkpt lat="45.94535" lon="4.52693">
        <ele>344.6</ele>
        <time>2025-09-11T09:34:32Z</time>
      </trkpt>
      <trkpt lat="45.94535" lon="4.52696">
        <ele>344.6</ele>
        <time>2025-09-11T09:34:33Z</time>
      </trkpt>
      <trkpt lat="45.94535" lon="4.52699">
        <ele>344.8</ele>
        <time>2025-09-11T09:34:34Z</time>
      </trkpt>
      <trkpt lat="45.94535" lon="4.52701">
        <ele>344.8</ele>
        <time>2025-09-11T09:34:35Z</time>
      </trkpt>
      <trkpt lat="45.94535" lon="4.52703">
        <ele>345.2</ele>
        <time>2025-09-11T09:34:36Z</time>
      </trkpt>
      <trkpt lat="45.94535" lon="4.52706">
        <ele>345.2</ele>
        <time>2025-09-11T09:34:37Z</time>
      </trkpt>
      <trkpt lat="45.94535" lon="4.52708">
        <ele>345.6</ele>
        <time>2025-09-11T09:34:38Z</time>
      </trkpt>
      <trkpt lat="45.94535" lon="4.5271">
        <ele>345.6</ele>
        <time>2025-09-11T09:34:39Z</time>
      </trkpt>
      <trkpt lat="45.94535" lon="4.52712">
        <ele>345.6</ele>
        <time>2025-09-11T09:34:40Z</time>
      </trkpt>
      <trkpt lat="45.94535" lon="4.52715">
        <ele>345.8</ele>
        <time>2025-09-11T09:34:41Z</time>
      </trkpt>
      <trkpt lat="45.94535" lon="4.52717">
        <ele>345.8</ele>
        <time>2025-09-11T09:34:42Z</time>
      </trkpt>
      <trkpt lat="45.94535" lon="4.5272">
        <ele>345.8</ele>
        <time>2025-09-11T09:34:43Z</time>
      </trkpt>
      <trkpt lat="45.94535" lon="4.52722">
        <ele>346.4</ele>
        <time>2025-09-11T09:34:44Z</time>
      </trkpt>
      <trkpt lat="45.94535" lon="4.52724">
        <ele>346.6</ele>
        <time>2025-09-11T09:34:45Z</time>
      </trkpt>
      <trkpt lat="45.94535" lon="4.52727">
        <ele>346.6</ele>
        <time>2025-09-11T09:34:46Z</time>
      </trkpt>
      <trkpt lat="45.94535" lon="4.5273">
        <ele>347</ele>
        <time>2025-09-11T09:34:47Z</time>
      </trkpt>
      <trkpt lat="45.94535" lon="4.52733">
        <ele>347</ele>
        <time>2025-09-11T09:34:48Z</time>
      </trkpt>
      <trkpt lat="45.94535" lon="4.52735">
        <ele>347.4</ele>
        <time>2025-09-11T09:34:49Z</time>
      </trkpt>
      <trkpt lat="45.94535" lon="4.52738">
        <ele>347.6</ele>
        <time>2025-09-11T09:34:50Z</time>
      </trkpt>
      <trkpt lat="45.94536" lon="4.5274">
        <ele>347.8</ele>
        <time>2025-09-11T09:34:51Z</time>
      </trkpt>
      <trkpt lat="45.94536" lon="4.52743">
        <ele>347.8</ele>
        <time>2025-09-11T09:34:52Z</time>
      </trkpt>
      <trkpt lat="45.94537" lon="4.52745">
        <ele>348</ele>
        <time>2025-09-11T09:34:53Z</time>
      </trkpt>
      <trkpt lat="45.94537" lon="4.52748">
        <ele>348</ele>
        <time>2025-09-11T09:34:54Z</time>
      </trkpt>
      <trkpt lat="45.94537" lon="4.5275">
        <ele>348.2</ele>
        <time>2025-09-11T09:34:55Z</time>
      </trkpt>
      <trkpt lat="45.94537" lon="4.52753">
        <ele>348.2</ele>
        <time>2025-09-11T09:34:56Z</time>
      </trkpt>
      <trkpt lat="45.94536" lon="4.52756">
        <ele>348.6</ele>
        <time>2025-09-11T09:34:57Z</time>
      </trkpt>
      <trkpt lat="45.94535" lon="4.52758">
        <ele>348.6</ele>
        <time>2025-09-11T09:34:58Z</time>
      </trkpt>
      <trkpt lat="45.94533" lon="4.5276">
        <ele>348.6</ele>
        <time>2025-09-11T09:34:59Z</time>
      </trkpt>
      <trkpt lat="45.94531" lon="4.52762">
        <ele>348.6</ele>
        <time>2025-09-11T09:35:00Z</time>
      </trkpt>
      <trkpt lat="45.9453" lon="4.52764">
        <ele>348.8</ele>
        <time>2025-09-11T09:35:01Z</time>
      </trkpt>
      <trkpt lat="45.9453" lon="4.52766">
        <ele>348.8</ele>
        <time>2025-09-11T09:35:02Z</time>
      </trkpt>
      <trkpt lat="45.9453" lon="4.52768">
        <ele>348.8</ele>
        <time>2025-09-11T09:35:03Z</time>
      </trkpt>
      <trkpt lat="45.94529" lon="4.52771">
        <ele>349.2</ele>
        <time>2025-09-11T09:35:04Z</time>
      </trkpt>
      <trkpt lat="45.94527" lon="4.52773">
        <ele>349.2</ele>
        <time>2025-09-11T09:35:05Z</time>
      </trkpt>
      <trkpt lat="45.94526" lon="4.52774">
        <ele>349.2</ele>
        <time>2025-09-11T09:35:06Z</time>
      </trkpt>
      <trkpt lat="45.94524" lon="4.52775">
        <ele>349.2</ele>
        <time>2025-09-11T09:35:07Z</time>
      </trkpt>
      <trkpt lat="45.94523" lon="4.52776">
        <ele>349.4</ele>
        <time>2025-09-11T09:35:08Z</time>
      </trkpt>
      <trkpt lat="45.94521" lon="4.52777">
        <ele>349.4</ele>
        <time>2025-09-11T09:35:09Z</time>
      </trkpt>
      <trkpt lat="45.94519" lon="4.52779">
        <ele>349.4</ele>
        <time>2025-09-11T09:35:10Z</time>
      </trkpt>
      <trkpt lat="45.94518" lon="4.52781">
        <ele>349.4</ele>
        <time>2025-09-11T09:35:11Z</time>
      </trkpt>
      <trkpt lat="45.94517" lon="4.52783">
        <ele>349.4</ele>
        <time>2025-09-11T09:35:12Z</time>
      </trkpt>
      <trkpt lat="45.94516" lon="4.52785">
        <ele>349.4</ele>
        <time>2025-09-11T09:35:13Z</time>
      </trkpt>
      <trkpt lat="45.94514" lon="4.52788">
        <ele>349.6</ele>
        <time>2025-09-11T09:35:14Z</time>
      </trkpt>
      <trkpt lat="45.94512" lon="4.52791">
        <ele>349.6</ele>
        <time>2025-09-11T09:35:15Z</time>
      </trkpt>
      <trkpt lat="45.94511" lon="4.52793">
        <ele>349.8</ele>
        <time>2025-09-11T09:35:16Z</time>
      </trkpt>
      <trkpt lat="45.94509" lon="4.52794">
        <ele>349.8</ele>
        <time>2025-09-11T09:35:17Z</time>
      </trkpt>
      <trkpt lat="45.94507" lon="4.52796">
        <ele>350.2</ele>
        <time>2025-09-11T09:35:18Z</time>
      </trkpt>
      <trkpt lat="45.94505" lon="4.52797">
        <ele>350.2</ele>
        <time>2025-09-11T09:35:19Z</time>
      </trkpt>
      <trkpt lat="45.94504" lon="4.52797">
        <ele>350.4</ele>
        <time>2025-09-11T09:35:20Z</time>
      </trkpt>
      <trkpt lat="45.94504" lon="4.52798">
        <ele>350.4</ele>
        <time>2025-09-11T09:35:21Z</time>
      </trkpt>
      <trkpt lat="45.94503" lon="4.52799">
        <ele>350.4</ele>
        <time>2025-09-11T09:35:22Z</time>
      </trkpt>
      <trkpt lat="45.94503" lon="4.52799">
        <ele>350.4</ele>
        <time>2025-09-11T09:35:23Z</time>
      </trkpt>
      <trkpt lat="45.94503" lon="4.52799">
        <ele>350.4</ele>
        <time>2025-09-11T09:35:24Z</time>
      </trkpt>
      <trkpt lat="45.94504" lon="4.52798">
        <ele>350.4</ele>
        <time>2025-09-11T09:35:36Z</time>
      </trkpt>
      <trkpt lat="45.94504" lon="4.52799">
        <ele>350.4</ele>
        <time>2025-09-11T09:35:37Z</time>
      </trkpt>
      <trkpt lat="45.94504" lon="4.528">
        <ele>350.4</ele>
        <time>2025-09-11T09:35:38Z</time>
      </trkpt>
      <trkpt lat="45.94503" lon="4.52802">
        <ele>350.4</ele>
        <time>2025-09-11T09:35:39Z</time>
      </trkpt>
      <trkpt lat="45.94502" lon="4.52804">
        <ele>350.6</ele>
        <time>2025-09-11T09:35:40Z</time>
      </trkpt>
      <trkpt lat="45.94501" lon="4.52806">
        <ele>350.6</ele>
        <time>2025-09-11T09:35:41Z</time>
      </trkpt>
      <trkpt lat="45.94499" lon="4.52809">
        <ele>350.6</ele>
        <time>2025-09-11T09:35:42Z</time>
      </trkpt>
      <trkpt lat="45.94498" lon="4.52811">
        <ele>349.6</ele>
        <time>2025-09-11T09:35:43Z</time>
      </trkpt>
      <trkpt lat="45.94496" lon="4.52813">
        <ele>349.6</ele>
        <time>2025-09-11T09:35:44Z</time>
      </trkpt>
      <trkpt lat="45.94495" lon="4.52815">
        <ele>351</ele>
        <time>2025-09-11T09:35:45Z</time>
      </trkpt>
      <trkpt lat="45.94493" lon="4.52816">
        <ele>350.4</ele>
        <time>2025-09-11T09:35:46Z</time>
      </trkpt>
      <trkpt lat="45.94491" lon="4.52818">
        <ele>351.2</ele>
        <time>2025-09-11T09:35:47Z</time>
      </trkpt>
      <trkpt lat="45.9449" lon="4.5282">
        <ele>351.2</ele>
        <time>2025-09-11T09:35:48Z</time>
      </trkpt>
      <trkpt lat="45.94488" lon="4.52822">
        <ele>351.2</ele>
        <time>2025-09-11T09:35:49Z</time>
      </trkpt>
      <trkpt lat="45.94487" lon="4.52824">
        <ele>351.2</ele>
        <time>2025-09-11T09:35:50Z</time>
      </trkpt>
      <trkpt lat="45.94485" lon="4.52826">
        <ele>351</ele>
        <time>2025-09-11T09:35:51Z</time>
      </trkpt>
      <trkpt lat="45.94483" lon="4.52827">
        <ele>351</ele>
        <time>2025-09-11T09:35:52Z</time>
      </trkpt>
      <trkpt lat="45.94482" lon="4.52828">
        <ele>351.2</ele>
        <time>2025-09-11T09:35:53Z</time>
      </trkpt>
      <trkpt lat="45.9448" lon="4.52828">
        <ele>351.2</ele>
        <time>2025-09-11T09:35:54Z</time>
      </trkpt>
      <trkpt lat="45.94478" lon="4.52827">
        <ele>351.4</ele>
        <time>2025-09-11T09:35:55Z</time>
      </trkpt>
      <trkpt lat="45.94476" lon="4.52827">
        <ele>351.4</ele>
        <time>2025-09-11T09:35:56Z</time>
      </trkpt>
      <trkpt lat="45.94474" lon="4.52826">
        <ele>351.8</ele>
        <time>2025-09-11T09:35:57Z</time>
      </trkpt>
      <trkpt lat="45.94472" lon="4.52826">
        <ele>351.8</ele>
        <time>2025-09-11T09:35:58Z</time>
      </trkpt>
      <trkpt lat="45.9447" lon="4.52826">
        <ele>352</ele>
        <time>2025-09-11T09:35:59Z</time>
      </trkpt>
      <trkpt lat="45.94468" lon="4.52825">
        <ele>352</ele>
        <time>2025-09-11T09:36:00Z</time>
      </trkpt>
      <trkpt lat="45.94466" lon="4.52825">
        <ele>352</ele>
        <time>2025-09-11T09:36:01Z</time>
      </trkpt>
      <trkpt lat="45.94464" lon="4.52824">
        <ele>352.4</ele>
        <time>2025-09-11T09:36:02Z</time>
      </trkpt>
      <trkpt lat="45.94462" lon="4.52824">
        <ele>352.4</ele>
        <time>2025-09-11T09:36:03Z</time>
      </trkpt>
      <trkpt lat="45.9446" lon="4.52824">
        <ele>352.6</ele>
        <time>2025-09-11T09:36:04Z</time>
      </trkpt>
      <trkpt lat="45.94457" lon="4.52823">
        <ele>352.6</ele>
        <time>2025-09-11T09:36:05Z</time>
      </trkpt>
      <trkpt lat="45.94454" lon="4.52822">
        <ele>352.6</ele>
        <time>2025-09-11T09:36:06Z</time>
      </trkpt>
      <trkpt lat="45.94452" lon="4.52822">
        <ele>352.6</ele>
        <time>2025-09-11T09:36:07Z</time>
      </trkpt>
      <trkpt lat="45.9445" lon="4.52822">
        <ele>352.2</ele>
        <time>2025-09-11T09:36:08Z</time>
      </trkpt>
      <trkpt lat="45.94448" lon="4.52822">
        <ele>352.6</ele>
        <time>2025-09-11T09:36:09Z</time>
      </trkpt>
      <trkpt lat="45.94446" lon="4.52822">
        <ele>352.6</ele>
        <time>2025-09-11T09:36:10Z</time>
      </trkpt>
      <trkpt lat="45.94443" lon="4.52821">
        <ele>352.2</ele>
        <time>2025-09-11T09:36:11Z</time>
      </trkpt>
      <trkpt lat="45.94441" lon="4.5282">
        <ele>352.2</ele>
        <time>2025-09-11T09:36:12Z</time>
      </trkpt>
      <trkpt lat="45.94439" lon="4.52819">
        <ele>352.2</ele>
        <time>2025-09-11T09:36:13Z</time>
      </trkpt>
      <trkpt lat="45.94439" lon="4.52819">
        <ele>352</ele>
        <time>2025-09-11T09:36:14Z</time>
      </trkpt>
      <trkpt lat="45.94437" lon="4.52818">
        <ele>351.8</ele>
        <time>2025-09-11T09:36:15Z</time>
      </trkpt>
      <trkpt lat="45.94436" lon="4.52818">
        <ele>351.6</ele>
        <time>2025-09-11T09:36:16Z</time>
      </trkpt>
      <trkpt lat="45.94435" lon="4.52818">
        <ele>351.6</ele>
        <time>2025-09-11T09:36:17Z</time>
      </trkpt>
      <trkpt lat="45.94435" lon="4.52819">
        <ele>351.2</ele>
        <time>2025-09-11T09:36:18Z</time>
      </trkpt>
      <trkpt lat="45.94437" lon="4.5282">
        <ele>351.2</ele>
        <time>2025-09-11T09:36:19Z</time>
      </trkpt>
      <trkpt lat="45.94439" lon="4.5282">
        <ele>351.2</ele>
        <time>2025-09-11T09:36:20Z</time>
      </trkpt>
      <trkpt lat="45.94442" lon="4.5282">
        <ele>351.2</ele>
        <time>2025-09-11T09:36:21Z</time>
      </trkpt>
      <trkpt lat="45.94444" lon="4.52821">
        <ele>351.6</ele>
        <time>2025-09-11T09:36:22Z</time>
      </trkpt>
      <trkpt lat="45.94446" lon="4.52821">
        <ele>351.2</ele>
        <time>2025-09-11T09:36:23Z</time>
      </trkpt>
      <trkpt lat="45.94448" lon="4.52821">
        <ele>351.2</ele>
        <time>2025-09-11T09:36:24Z</time>
      </trkpt>
      <trkpt lat="45.94451" lon="4.52821">
        <ele>351.8</ele>
        <time>2025-09-11T09:36:25Z</time>
      </trkpt>
      <trkpt lat="45.94453" lon="4.52821">
        <ele>352</ele>
        <time>2025-09-11T09:36:26Z</time>
      </trkpt>
      <trkpt lat="45.94455" lon="4.52822">
        <ele>352</ele>
        <time>2025-09-11T09:36:27Z</time>
      </trkpt>
      <trkpt lat="45.94458" lon="4.52822">
        <ele>352.4</ele>
        <time>2025-09-11T09:36:28Z</time>
      </trkpt>
      <trkpt lat="45.9446" lon="4.52822">
        <ele>352.6</ele>
        <time>2025-09-11T09:36:29Z</time>
      </trkpt>
      <trkpt lat="45.94462" lon="4.52823">
        <ele>352.6</ele>
        <time>2025-09-11T09:36:30Z</time>
      </trkpt>
      <trkpt lat="45.94465" lon="4.52823">
        <ele>352.6</ele>
        <time>2025-09-11T09:36:31Z</time>
      </trkpt>
      <trkpt lat="45.94468" lon="4.52824">
        <ele>352.6</ele>
        <time>2025-09-11T09:36:32Z</time>
      </trkpt>
      <trkpt lat="45.94471" lon="4.52825">
        <ele>352.2</ele>
        <time>2025-09-11T09:36:33Z</time>
      </trkpt>
      <trkpt lat="45.94474" lon="4.52827">
        <ele>352.2</ele>
        <time>2025-09-11T09:36:34Z</time>
      </trkpt>
      <trkpt lat="45.94477" lon="4.5283">
        <ele>352</ele>
        <time>2025-09-11T09:36:35Z</time>
      </trkpt>
      <trkpt lat="45.94477" lon="4.5283">
        <ele>352</ele>
        <time>2025-09-11T09:36:36Z</time>
      </trkpt>
      <trkpt lat="45.9448" lon="4.52838">
        <ele>351.6</ele>
        <time>2025-09-11T09:36:37Z</time>
      </trkpt>
      <trkpt lat="45.9448" lon="4.52838">
        <ele>351.6</ele>
        <time>2025-09-11T09:36:38Z</time>
      </trkpt>
      <trkpt lat="45.94479" lon="4.52843">
        <ele>351.6</ele>
        <time>2025-09-11T09:36:39Z</time>
      </trkpt>
      <trkpt lat="45.94479" lon="4.52846">
        <ele>351.6</ele>
        <time>2025-09-11T09:36:40Z</time>
      </trkpt>
      <trkpt lat="45.94479" lon="4.52849">
        <ele>351.6</ele>
        <time>2025-09-11T09:36:41Z</time>
      </trkpt>
      <trkpt lat="45.94478" lon="4.52853">
        <ele>351.6</ele>
        <time>2025-09-11T09:36:42Z</time>
      </trkpt>
      <trkpt lat="45.94477" lon="4.52857">
        <ele>352</ele>
        <time>2025-09-11T09:36:43Z</time>
      </trkpt>
      <trkpt lat="45.94475" lon="4.52861">
        <ele>352.2</ele>
        <time>2025-09-11T09:36:44Z</time>
      </trkpt>
      <trkpt lat="45.94474" lon="4.52864">
        <ele>352.4</ele>
        <time>2025-09-11T09:36:45Z</time>
      </trkpt>
      <trkpt lat="45.94473" lon="4.52867">
        <ele>352.4</ele>
        <time>2025-09-11T09:36:46Z</time>
      </trkpt>
      <trkpt lat="45.94472" lon="4.5287">
        <ele>352.6</ele>
        <time>2025-09-11T09:36:47Z</time>
      </trkpt>
      <trkpt lat="45.94471" lon="4.52874">
        <ele>352.6</ele>
        <time>2025-09-11T09:36:48Z</time>
      </trkpt>
      <trkpt lat="45.94469" lon="4.52877">
        <ele>353</ele>
        <time>2025-09-11T09:36:49Z</time>
      </trkpt>
      <trkpt lat="45.94468" lon="4.5288">
        <ele>353</ele>
        <time>2025-09-11T09:36:50Z</time>
      </trkpt>
      <trkpt lat="45.94467" lon="4.52882">
        <ele>353.2</ele>
        <time>2025-09-11T09:36:51Z</time>
      </trkpt>
      <trkpt lat="45.94465" lon="4.52884">
        <ele>353.2</ele>
        <time>2025-09-11T09:36:52Z</time>
      </trkpt>
      <trkpt lat="45.94463" lon="4.52887">
        <ele>353.2</ele>
        <time>2025-09-11T09:36:53Z</time>
      </trkpt>
      <trkpt lat="45.94461" lon="4.5289">
        <ele>353.4</ele>
        <time>2025-09-11T09:36:54Z</time>
      </trkpt>
      <trkpt lat="45.94458" lon="4.52891">
        <ele>353.4</ele>
        <time>2025-09-11T09:36:55Z</time>
      </trkpt>
      <trkpt lat="45.94456" lon="4.52891">
        <ele>353.4</ele>
        <time>2025-09-11T09:36:56Z</time>
      </trkpt>
      <trkpt lat="45.94454" lon="4.5289">
        <ele>353.4</ele>
        <time>2025-09-11T09:36:57Z</time>
      </trkpt>
      <trkpt lat="45.94451" lon="4.52889">
        <ele>353.8</ele>
        <time>2025-09-11T09:36:58Z</time>
      </trkpt>
      <trkpt lat="45.94449" lon="4.52889">
        <ele>353.8</ele>
        <time>2025-09-11T09:36:59Z</time>
      </trkpt>
      <trkpt lat="45.94447" lon="4.52887">
        <ele>353.8</ele>
        <time>2025-09-11T09:37:00Z</time>
      </trkpt>
      <trkpt lat="45.94444" lon="4.52886">
        <ele>353.8</ele>
        <time>2025-09-11T09:37:01Z</time>
      </trkpt>
      <trkpt lat="45.94442" lon="4.52886">
        <ele>354</ele>
        <time>2025-09-11T09:37:02Z</time>
      </trkpt>
      <trkpt lat="45.9444" lon="4.52886">
        <ele>354</ele>
        <time>2025-09-11T09:37:03Z</time>
      </trkpt>
      <trkpt lat="45.94438" lon="4.52888">
        <ele>354.2</ele>
        <time>2025-09-11T09:37:04Z</time>
      </trkpt>
      <trkpt lat="45.94436" lon="4.52889">
        <ele>354.2</ele>
        <time>2025-09-11T09:37:05Z</time>
      </trkpt>
      <trkpt lat="45.94434" lon="4.52891">
        <ele>354.2</ele>
        <time>2025-09-11T09:37:06Z</time>
      </trkpt>
      <trkpt lat="45.94432" lon="4.52893">
        <ele>354.4</ele>
        <time>2025-09-11T09:37:07Z</time>
      </trkpt>
      <trkpt lat="45.94431" lon="4.52895">
        <ele>354.4</ele>
        <time>2025-09-11T09:37:08Z</time>
      </trkpt>
      <trkpt lat="45.9443" lon="4.52897">
        <ele>354.6</ele>
        <time>2025-09-11T09:37:09Z</time>
      </trkpt>
      <trkpt lat="45.94428" lon="4.52899">
        <ele>354.6</ele>
        <time>2025-09-11T09:37:10Z</time>
      </trkpt>
      <trkpt lat="45.94427" lon="4.52902">
        <ele>355.2</ele>
        <time>2025-09-11T09:37:11Z</time>
      </trkpt>
      <trkpt lat="45.94425" lon="4.52905">
        <ele>355.2</ele>
        <time>2025-09-11T09:37:12Z</time>
      </trkpt>
      <trkpt lat="45.94424" lon="4.52907">
        <ele>355.2</ele>
        <time>2025-09-11T09:37:13Z</time>
      </trkpt>
      <trkpt lat="45.94423" lon="4.52909">
        <ele>355.4</ele>
        <time>2025-09-11T09:37:14Z</time>
      </trkpt>
      <trkpt lat="45.94421" lon="4.52909">
        <ele>355.4</ele>
        <time>2025-09-11T09:37:15Z</time>
      </trkpt>
      <trkpt lat="45.94419" lon="4.5291">
        <ele>355.4</ele>
        <time>2025-09-11T09:37:16Z</time>
      </trkpt>
      <trkpt lat="45.94418" lon="4.5291">
        <ele>355.8</ele>
        <time>2025-09-11T09:37:17Z</time>
      </trkpt>
      <trkpt lat="45.94416" lon="4.52911">
        <ele>355.8</ele>
        <time>2025-09-11T09:37:18Z</time>
      </trkpt>
      <trkpt lat="45.94415" lon="4.52911">
        <ele>356.2</ele>
        <time>2025-09-11T09:37:19Z</time>
      </trkpt>
      <trkpt lat="45.94413" lon="4.52911">
        <ele>356.2</ele>
        <time>2025-09-11T09:37:20Z</time>
      </trkpt>
      <trkpt lat="45.94411" lon="4.52911">
        <ele>356.6</ele>
        <time>2025-09-11T09:37:21Z</time>
      </trkpt>
      <trkpt lat="45.94409" lon="4.52911">
        <ele>356.6</ele>
        <time>2025-09-11T09:37:22Z</time>
      </trkpt>
      <trkpt lat="45.94407" lon="4.52911">
        <ele>356.8</ele>
        <time>2025-09-11T09:37:23Z</time>
      </trkpt>
      <trkpt lat="45.94405" lon="4.5291">
        <ele>356.8</ele>
        <time>2025-09-11T09:37:24Z</time>
      </trkpt>
      <trkpt lat="45.94403" lon="4.52909">
        <ele>357.2</ele>
        <time>2025-09-11T09:37:25Z</time>
      </trkpt>
      <trkpt lat="45.94401" lon="4.52909">
        <ele>357.2</ele>
        <time>2025-09-11T09:37:26Z</time>
      </trkpt>
      <trkpt lat="45.94399" lon="4.52909">
        <ele>357.2</ele>
        <time>2025-09-11T09:37:27Z</time>
      </trkpt>
      <trkpt lat="45.94398" lon="4.5291">
        <ele>357.2</ele>
        <time>2025-09-11T09:37:28Z</time>
      </trkpt>
      <trkpt lat="45.94397" lon="4.5291">
        <ele>357.4</ele>
        <time>2025-09-11T09:37:29Z</time>
      </trkpt>
      <trkpt lat="45.94396" lon="4.5291">
        <ele>357.4</ele>
        <time>2025-09-11T09:37:30Z</time>
      </trkpt>
      <trkpt lat="45.94396" lon="4.52911">
        <ele>357.6</ele>
        <time>2025-09-11T09:37:31Z</time>
      </trkpt>
      <trkpt lat="45.94396" lon="4.52911">
        <ele>357.6</ele>
        <time>2025-09-11T09:37:32Z</time>
      </trkpt>
      <trkpt lat="45.94397" lon="4.52914">
        <ele>357.6</ele>
        <time>2025-09-11T09:37:37Z</time>
      </trkpt>
      <trkpt lat="45.94396" lon="4.52916">
        <ele>357.6</ele>
        <time>2025-09-11T09:37:38Z</time>
      </trkpt>
      <trkpt lat="45.94394" lon="4.52918">
        <ele>357.6</ele>
        <time>2025-09-11T09:37:39Z</time>
      </trkpt>
      <trkpt lat="45.94393" lon="4.52921">
        <ele>357.4</ele>
        <time>2025-09-11T09:37:40Z</time>
      </trkpt>
      <trkpt lat="45.94391" lon="4.52924">
        <ele>357.2</ele>
        <time>2025-09-11T09:37:41Z</time>
      </trkpt>
      <trkpt lat="45.94389" lon="4.52926">
        <ele>357</ele>
        <time>2025-09-11T09:37:42Z</time>
      </trkpt>
      <trkpt lat="45.94388" lon="4.52928">
        <ele>356.6</ele>
        <time>2025-09-11T09:37:43Z</time>
      </trkpt>
      <trkpt lat="45.94385" lon="4.5293">
        <ele>356.4</ele>
        <time>2025-09-11T09:37:44Z</time>
      </trkpt>
      <trkpt lat="45.94383" lon="4.52932">
        <ele>356</ele>
        <time>2025-09-11T09:37:45Z</time>
      </trkpt>
      <trkpt lat="45.9438" lon="4.52934">
        <ele>355.8</ele>
        <time>2025-09-11T09:37:46Z</time>
      </trkpt>
      <trkpt lat="45.94378" lon="4.52935">
        <ele>355.8</ele>
        <time>2025-09-11T09:37:47Z</time>
      </trkpt>
      <trkpt lat="45.94376" lon="4.52935">
        <ele>355.6</ele>
        <time>2025-09-11T09:37:48Z</time>
      </trkpt>
      <trkpt lat="45.94375" lon="4.52935">
        <ele>355.4</ele>
        <time>2025-09-11T09:37:49Z</time>
      </trkpt>
      <trkpt lat="45.94374" lon="4.52934">
        <ele>355.4</ele>
        <time>2025-09-11T09:37:50Z</time>
      </trkpt>
      <trkpt lat="45.94373" lon="4.52933">
        <ele>355.4</ele>
        <time>2025-09-11T09:37:51Z</time>
      </trkpt>
      <trkpt lat="45.94373" lon="4.52933">
        <ele>355.4</ele>
        <time>2025-09-11T09:37:52Z</time>
      </trkpt>
      <trkpt lat="45.94374" lon="4.52933">
        <ele>355.4</ele>
        <time>2025-09-11T09:37:53Z</time>
      </trkpt>
      <trkpt lat="45.94378" lon="4.52932">
        <ele>355</ele>
        <time>2025-09-11T09:38:01Z</time>
      </trkpt>
      <trkpt lat="45.94377" lon="4.52931">
        <ele>355</ele>
        <time>2025-09-11T09:38:02Z</time>
      </trkpt>
      <trkpt lat="45.94377" lon="4.5293">
        <ele>355</ele>
        <time>2025-09-11T09:38:03Z</time>
      </trkpt>
      <trkpt lat="45.94377" lon="4.5293">
        <ele>355</ele>
        <time>2025-09-11T09:38:04Z</time>
      </trkpt>
      <trkpt lat="45.94386" lon="4.52932">
        <ele>355.6</ele>
        <time>2025-09-11T09:43:00Z</time>
      </trkpt>
      <trkpt lat="45.94386" lon="4.52934">
        <ele>355.6</ele>
        <time>2025-09-11T09:43:01Z</time>
      </trkpt>
      <trkpt lat="45.94386" lon="4.52934">
        <ele>355.6</ele>
        <time>2025-09-11T09:43:02Z</time>
      </trkpt>
      <trkpt lat="45.94386" lon="4.52934">
        <ele>355.6</ele>
        <time>2025-09-11T09:43:03Z</time>
      </trkpt>
      <trkpt lat="45.94386" lon="4.52934">
        <ele>355.2</ele>
        <time>2025-09-11T09:43:04Z</time>
      </trkpt>
      <trkpt lat="45.94384" lon="4.52944">
        <ele>355</ele>
        <time>2025-09-11T09:43:05Z</time>
      </trkpt>
      <trkpt lat="45.94383" lon="4.52946">
        <ele>354.6</ele>
        <time>2025-09-11T09:43:06Z</time>
      </trkpt>
      <trkpt lat="45.94383" lon="4.52947">
        <ele>354.2</ele>
        <time>2025-09-11T09:43:07Z</time>
      </trkpt>
      <trkpt lat="45.94383" lon="4.5295">
        <ele>353.8</ele>
        <time>2025-09-11T09:43:08Z</time>
      </trkpt>
      <trkpt lat="45.94383" lon="4.52954">
        <ele>353.4</ele>
        <time>2025-09-11T09:43:09Z</time>
      </trkpt>
      <trkpt lat="45.94383" lon="4.52957">
        <ele>353.4</ele>
        <time>2025-09-11T09:43:10Z</time>
      </trkpt>
      <trkpt lat="45.94384" lon="4.5296">
        <ele>353</ele>
        <time>2025-09-11T09:43:11Z</time>
      </trkpt>
      <trkpt lat="45.94385" lon="4.52962">
        <ele>352.8</ele>
        <time>2025-09-11T09:43:12Z</time>
      </trkpt>
      <trkpt lat="45.94387" lon="4.52964">
        <ele>352.6</ele>
        <time>2025-09-11T09:43:13Z</time>
      </trkpt>
      <trkpt lat="45.94389" lon="4.52966">
        <ele>352.4</ele>
        <time>2025-09-11T09:43:14Z</time>
      </trkpt>
      <trkpt lat="45.94391" lon="4.52967">
        <ele>352.4</ele>
        <time>2025-09-11T09:43:15Z</time>
      </trkpt>
      <trkpt lat="45.94392" lon="4.52969">
        <ele>351.8</ele>
        <time>2025-09-11T09:43:16Z</time>
      </trkpt>
      <trkpt lat="45.94394" lon="4.5297">
        <ele>351.8</ele>
        <time>2025-09-11T09:43:17Z</time>
      </trkpt>
      <trkpt lat="45.94396" lon="4.52972">
        <ele>351.6</ele>
        <time>2025-09-11T09:43:18Z</time>
      </trkpt>
      <trkpt lat="45.94399" lon="4.52973">
        <ele>351.6</ele>
        <time>2025-09-11T09:43:19Z</time>
      </trkpt>
      <trkpt lat="45.94403" lon="4.52974">
        <ele>351</ele>
        <time>2025-09-11T09:43:20Z</time>
      </trkpt>
      <trkpt lat="45.94406" lon="4.52974">
        <ele>351</ele>
        <time>2025-09-11T09:43:21Z</time>
      </trkpt>
      <trkpt lat="45.94409" lon="4.52973">
        <ele>351</ele>
        <time>2025-09-11T09:43:22Z</time>
      </trkpt>
      <trkpt lat="45.94411" lon="4.52971">
        <ele>350.8</ele>
        <time>2025-09-11T09:43:23Z</time>
      </trkpt>
      <trkpt lat="45.94414" lon="4.52968">
        <ele>350.8</ele>
        <time>2025-09-11T09:43:24Z</time>
      </trkpt>
      <trkpt lat="45.94417" lon="4.52965">
        <ele>350.8</ele>
        <time>2025-09-11T09:43:25Z</time>
      </trkpt>
      <trkpt lat="45.9442" lon="4.52963">
        <ele>350.8</ele>
        <time>2025-09-11T09:43:26Z</time>
      </trkpt>
      <trkpt lat="45.94424" lon="4.52961">
        <ele>350.8</ele>
        <time>2025-09-11T09:43:27Z</time>
      </trkpt>
      <trkpt lat="45.94425" lon="4.52959">
        <ele>350.8</ele>
        <time>2025-09-11T09:43:28Z</time>
      </trkpt>
      <trkpt lat="45.94427" lon="4.52957">
        <ele>350.8</ele>
        <time>2025-09-11T09:43:29Z</time>
      </trkpt>
      <trkpt lat="45.94427" lon="4.52955">
        <ele>351</ele>
        <time>2025-09-11T09:43:30Z</time>
      </trkpt>
      <trkpt lat="45.94428" lon="4.52952">
        <ele>351</ele>
        <time>2025-09-11T09:43:31Z</time>
      </trkpt>
      <trkpt lat="45.94428" lon="4.52948">
        <ele>351.4</ele>
        <time>2025-09-11T09:43:32Z</time>
      </trkpt>
      <trkpt lat="45.94428" lon="4.52945">
        <ele>351.4</ele>
        <time>2025-09-11T09:43:33Z</time>
      </trkpt>
      <trkpt lat="45.94428" lon="4.52941">
        <ele>351.4</ele>
        <time>2025-09-11T09:43:34Z</time>
      </trkpt>
      <trkpt lat="45.94429" lon="4.52938">
        <ele>351.6</ele>
        <time>2025-09-11T09:43:35Z</time>
      </trkpt>
      <trkpt lat="45.94431" lon="4.52936">
        <ele>351.8</ele>
        <time>2025-09-11T09:43:36Z</time>
      </trkpt>
      <trkpt lat="45.94432" lon="4.52934">
        <ele>351.8</ele>
        <time>2025-09-11T09:43:37Z</time>
      </trkpt>
      <trkpt lat="45.94433" lon="4.52932">
        <ele>352</ele>
        <time>2025-09-11T09:43:38Z</time>
      </trkpt>
      <trkpt lat="45.94434" lon="4.5293">
        <ele>352</ele>
        <time>2025-09-11T09:43:39Z</time>
      </trkpt>
      <trkpt lat="45.94435" lon="4.52928">
        <ele>352</ele>
        <time>2025-09-11T09:43:40Z</time>
      </trkpt>
      <trkpt lat="45.94437" lon="4.52925">
        <ele>352.4</ele>
        <time>2025-09-11T09:43:41Z</time>
      </trkpt>
      <trkpt lat="45.94439" lon="4.52923">
        <ele>352.4</ele>
        <time>2025-09-11T09:43:42Z</time>
      </trkpt>
      <trkpt lat="45.9444" lon="4.52921">
        <ele>352.4</ele>
        <time>2025-09-11T09:43:43Z</time>
      </trkpt>
      <trkpt lat="45.94441" lon="4.5292">
        <ele>352.6</ele>
        <time>2025-09-11T09:43:44Z</time>
      </trkpt>
      <trkpt lat="45.94439" lon="4.52919">
        <ele>352.6</ele>
        <time>2025-09-11T09:43:45Z</time>
      </trkpt>
      <trkpt lat="45.94439" lon="4.52919">
        <ele>352.8</ele>
        <time>2025-09-11T09:43:46Z</time>
      </trkpt>
      <trkpt lat="45.94436" lon="4.5292">
        <ele>353</ele>
        <time>2025-09-11T09:43:55Z</time>
      </trkpt>
      <trkpt lat="45.94436" lon="4.52919">
        <ele>353</ele>
        <time>2025-09-11T09:43:56Z</time>
      </trkpt>
      <trkpt lat="45.94435" lon="4.52917">
        <ele>353</ele>
        <time>2025-09-11T09:43:57Z</time>
      </trkpt>
      <trkpt lat="45.94435" lon="4.52916">
        <ele>353.2</ele>
        <time>2025-09-11T09:43:58Z</time>
      </trkpt>
      <trkpt lat="45.94435" lon="4.52916">
        <ele>353.2</ele>
        <time>2025-09-11T09:43:59Z</time>
      </trkpt>
      <trkpt lat="45.94435" lon="4.52916">
        <ele>353.2</ele>
        <time>2025-09-11T09:44:00Z</time>
      </trkpt>
      <trkpt lat="45.94433" lon="4.52917">
        <ele>353.2</ele>
        <time>2025-09-11T09:44:03Z</time>
      </trkpt>
      <trkpt lat="45.94433" lon="4.52918">
        <ele>353.2</ele>
        <time>2025-09-11T09:44:04Z</time>
      </trkpt>
      <trkpt lat="45.94434" lon="4.52919">
        <ele>353.2</ele>
        <time>2025-09-11T09:44:05Z</time>
      </trkpt>
      <trkpt lat="45.94435" lon="4.52919">
        <ele>353.2</ele>
        <time>2025-09-11T09:44:06Z</time>
      </trkpt>
      <trkpt lat="45.94434" lon="4.52919">
        <ele>353.2</ele>
        <time>2025-09-11T09:44:07Z</time>
      </trkpt>
      <trkpt lat="45.94433" lon="4.52916">
        <ele>353</ele>
        <time>2025-09-11T09:44:26Z</time>
      </trkpt>
      <trkpt lat="45.94434" lon="4.52916">
        <ele>353</ele>
        <time>2025-09-11T09:44:27Z</time>
      </trkpt>
      <trkpt lat="45.94435" lon="4.52916">
        <ele>353</ele>
        <time>2025-09-11T09:44:28Z</time>
      </trkpt>
      <trkpt lat="45.94432" lon="4.5292">
        <ele>353.6</ele>
        <time>2025-09-11T09:46:55Z</time>
      </trkpt>
      <trkpt lat="45.94431" lon="4.52919">
        <ele>353.8</ele>
        <time>2025-09-11T09:46:56Z</time>
      </trkpt>
      <trkpt lat="45.94431" lon="4.52918">
        <ele>353.8</ele>
        <time>2025-09-11T09:46:57Z</time>
      </trkpt>
      <trkpt lat="45.94431" lon="4.52917">
        <ele>353.6</ele>
        <time>2025-09-11T09:46:58Z</time>
      </trkpt>
      <trkpt lat="45.94431" lon="4.52917">
        <ele>353.6</ele>
        <time>2025-09-11T09:46:59Z</time>
      </trkpt>
      <trkpt lat="45.94431" lon="4.52916">
        <ele>353.6</ele>
        <time>2025-09-11T09:47:00Z</time>
      </trkpt>
      <trkpt lat="45.94431" lon="4.52914">
        <ele>353.6</ele>
        <time>2025-09-11T09:47:01Z</time>
      </trkpt>
      <trkpt lat="45.94431" lon="4.52913">
        <ele>353.6</ele>
        <time>2025-09-11T09:47:02Z</time>
      </trkpt>
      <trkpt lat="45.94431" lon="4.52911">
        <ele>353.6</ele>
        <time>2025-09-11T09:47:03Z</time>
      </trkpt>
      <trkpt lat="45.94431" lon="4.5291">
        <ele>353.6</ele>
        <time>2025-09-11T09:47:04Z</time>
      </trkpt>
      <trkpt lat="45.94431" lon="4.52909">
        <ele>353.8</ele>
        <time>2025-09-11T09:47:05Z</time>
      </trkpt>
      <trkpt lat="45.94431" lon="4.52908">
        <ele>353.8</ele>
        <time>2025-09-11T09:47:06Z</time>
      </trkpt>
      <trkpt lat="45.94431" lon="4.52907">
        <ele>354</ele>
        <time>2025-09-11T09:47:07Z</time>
      </trkpt>
      <trkpt lat="45.94432" lon="4.52905">
        <ele>354</ele>
        <time>2025-09-11T09:47:08Z</time>
      </trkpt>
      <trkpt lat="45.94432" lon="4.52904">
        <ele>354</ele>
        <time>2025-09-11T09:47:09Z</time>
      </trkpt>
      <trkpt lat="45.94432" lon="4.52903">
        <ele>354</ele>
        <time>2025-09-11T09:47:10Z</time>
      </trkpt>
      <trkpt lat="45.94431" lon="4.52902">
        <ele>354.4</ele>
        <time>2025-09-11T09:47:11Z</time>
      </trkpt>
      <trkpt lat="45.94431" lon="4.52902">
        <ele>354.6</ele>
        <time>2025-09-11T09:47:12Z</time>
      </trkpt>
      <trkpt lat="45.94431" lon="4.52901">
        <ele>354.6</ele>
        <time>2025-09-11T09:47:13Z</time>
      </trkpt>
      <trkpt lat="45.94432" lon="4.529">
        <ele>354.8</ele>
        <time>2025-09-11T09:47:14Z</time>
      </trkpt>
      <trkpt lat="45.94433" lon="4.529">
        <ele>354.8</ele>
        <time>2025-09-11T09:47:15Z</time>
      </trkpt>
      <trkpt lat="45.94433" lon="4.529">
        <ele>354.8</ele>
        <time>2025-09-11T09:47:16Z</time>
      </trkpt>
      <trkpt lat="45.94433" lon="4.52899">
        <ele>354.8</ele>
        <time>2025-09-11T09:47:17Z</time>
      </trkpt>
      <trkpt lat="45.94435" lon="4.52899">
        <ele>355</ele>
        <time>2025-09-11T09:47:18Z</time>
      </trkpt>
      <trkpt lat="45.94437" lon="4.52898">
        <ele>355</ele>
        <time>2025-09-11T09:47:19Z</time>
      </trkpt>
      <trkpt lat="45.94439" lon="4.52896">
        <ele>355</ele>
        <time>2025-09-11T09:47:20Z</time>
      </trkpt>
      <trkpt lat="45.9444" lon="4.52894">
        <ele>355</ele>
        <time>2025-09-11T09:47:21Z</time>
      </trkpt>
      <trkpt lat="45.94442" lon="4.52892">
        <ele>355</ele>
        <time>2025-09-11T09:47:22Z</time>
      </trkpt>
      <trkpt lat="45.94444" lon="4.5289">
        <ele>354.8</ele>
        <time>2025-09-11T09:47:23Z</time>
      </trkpt>
      <trkpt lat="45.94447" lon="4.52889">
        <ele>354.8</ele>
        <time>2025-09-11T09:47:24Z</time>
      </trkpt>
      <trkpt lat="45.94449" lon="4.52888">
        <ele>354.8</ele>
        <time>2025-09-11T09:47:25Z</time>
      </trkpt>
      <trkpt lat="45.9445" lon="4.52888">
        <ele>354.8</ele>
        <time>2025-09-11T09:47:26Z</time>
      </trkpt>
      <trkpt lat="45.94451" lon="4.52888">
        <ele>354.8</ele>
        <time>2025-09-11T09:47:27Z</time>
      </trkpt>
      <trkpt lat="45.94452" lon="4.52887">
        <ele>354.8</ele>
        <time>2025-09-11T09:47:28Z</time>
      </trkpt>
      <trkpt lat="45.94452" lon="4.52885">
        <ele>354.4</ele>
        <time>2025-09-11T09:47:29Z</time>
      </trkpt>
      <trkpt lat="45.9445" lon="4.52883">
        <ele>354.4</ele>
        <time>2025-09-11T09:47:30Z</time>
      </trkpt>
      <trkpt lat="45.94448" lon="4.52881">
        <ele>354.4</ele>
        <time>2025-09-11T09:47:31Z</time>
      </trkpt>
      <trkpt lat="45.94446" lon="4.5288">
        <ele>354.4</ele>
        <time>2025-09-11T09:47:32Z</time>
      </trkpt>
      <trkpt lat="45.94445" lon="4.52879">
        <ele>354.4</ele>
        <time>2025-09-11T09:47:33Z</time>
      </trkpt>
      <trkpt lat="45.94443" lon="4.52877">
        <ele>354.4</ele>
        <time>2025-09-11T09:47:34Z</time>
      </trkpt>
      <trkpt lat="45.94441" lon="4.52875">
        <ele>354.4</ele>
        <time>2025-09-11T09:47:35Z</time>
      </trkpt>
      <trkpt lat="45.9444" lon="4.52873">
        <ele>354.4</ele>
        <time>2025-09-11T09:47:36Z</time>
      </trkpt>
      <trkpt lat="45.94438" lon="4.52871">
        <ele>354.4</ele>
        <time>2025-09-11T09:47:37Z</time>
      </trkpt>
      <trkpt lat="45.94437" lon="4.52869">
        <ele>354.6</ele>
        <time>2025-09-11T09:47:38Z</time>
      </trkpt>
      <trkpt lat="45.94436" lon="4.52868">
        <ele>354.6</ele>
        <time>2025-09-11T09:47:39Z</time>
      </trkpt>
      <trkpt lat="45.94434" lon="4.52868">
        <ele>354.6</ele>
        <time>2025-09-11T09:47:40Z</time>
      </trkpt>
      <trkpt lat="45.94432" lon="4.5287">
        <ele>354.6</ele>
        <time>2025-09-11T09:47:41Z</time>
      </trkpt>
      <trkpt lat="45.94432" lon="4.52872">
        <ele>355</ele>
        <time>2025-09-11T09:47:42Z</time>
      </trkpt>
      <trkpt lat="45.94432" lon="4.52875">
        <ele>355</ele>
        <time>2025-09-11T09:47:43Z</time>
      </trkpt>
      <trkpt lat="45.94434" lon="4.52877">
        <ele>355</ele>
        <time>2025-09-11T09:47:44Z</time>
      </trkpt>
      <trkpt lat="45.94436" lon="4.52879">
        <ele>355.4</ele>
        <time>2025-09-11T09:47:45Z</time>
      </trkpt>
      <trkpt lat="45.94438" lon="4.5288">
        <ele>355.4</ele>
        <time>2025-09-11T09:47:46Z</time>
      </trkpt>
      <trkpt lat="45.9444" lon="4.52883">
        <ele>355.4</ele>
        <time>2025-09-11T09:47:47Z</time>
      </trkpt>
      <trkpt lat="45.94442" lon="4.52885">
        <ele>355.4</ele>
        <time>2025-09-11T09:47:48Z</time>
      </trkpt>
      <trkpt lat="45.94444" lon="4.52888">
        <ele>355.4</ele>
        <time>2025-09-11T09:47:49Z</time>
      </trkpt>
      <trkpt lat="45.94446" lon="4.5289">
        <ele>355.4</ele>
        <time>2025-09-11T09:47:50Z</time>
      </trkpt>
      <trkpt lat="45.94448" lon="4.52891">
        <ele>355.4</ele>
        <time>2025-09-11T09:47:51Z</time>
      </trkpt>
      <trkpt lat="45.94451" lon="4.52891">
        <ele>355.4</ele>
        <time>2025-09-11T09:47:52Z</time>
      </trkpt>
      <trkpt lat="45.94453" lon="4.5289">
        <ele>355.4</ele>
        <time>2025-09-11T09:47:53Z</time>
      </trkpt>
      <trkpt lat="45.94456" lon="4.52889">
        <ele>355.4</ele>
        <time>2025-09-11T09:47:54Z</time>
      </trkpt>
      <trkpt lat="45.94458" lon="4.52889">
        <ele>355.4</ele>
        <time>2025-09-11T09:47:55Z</time>
      </trkpt>
      <trkpt lat="45.94459" lon="4.5289">
        <ele>355.4</ele>
        <time>2025-09-11T09:47:56Z</time>
      </trkpt>
      <trkpt lat="45.94461" lon="4.5289">
        <ele>355</ele>
        <time>2025-09-11T09:47:57Z</time>
      </trkpt>
      <trkpt lat="45.94463" lon="4.5289">
        <ele>355</ele>
        <time>2025-09-11T09:47:58Z</time>
      </trkpt>
      <trkpt lat="45.94465" lon="4.52889">
        <ele>355</ele>
        <time>2025-09-11T09:47:59Z</time>
      </trkpt>
      <trkpt lat="45.94467" lon="4.52888">
        <ele>355</ele>
        <time>2025-09-11T09:48:00Z</time>
      </trkpt>
      <trkpt lat="45.94469" lon="4.52886">
        <ele>355</ele>
        <time>2025-09-11T09:48:01Z</time>
      </trkpt>
      <trkpt lat="45.9447" lon="4.52885">
        <ele>355</ele>
        <time>2025-09-11T09:48:02Z</time>
      </trkpt>
      <trkpt lat="45.9447" lon="4.52885">
        <ele>355</ele>
        <time>2025-09-11T09:48:03Z</time>
      </trkpt>
      <trkpt lat="45.9447" lon="4.52885">
        <ele>355</ele>
        <time>2025-09-11T09:48:04Z</time>
      </trkpt>
      <trkpt lat="45.94468" lon="4.52883">
        <ele>354.2</ele>
        <time>2025-09-11T09:52:16Z</time>
      </trkpt>
      <trkpt lat="45.94468" lon="4.52882">
        <ele>354.2</ele>
        <time>2025-09-11T09:52:17Z</time>
      </trkpt>
      <trkpt lat="45.94469" lon="4.52881">
        <ele>354.2</ele>
        <time>2025-09-11T09:52:18Z</time>
      </trkpt>
      <trkpt lat="45.9447" lon="4.52878">
        <ele>352.8</ele>
        <time>2025-09-11T09:52:19Z</time>
      </trkpt>
      <trkpt lat="45.94471" lon="4.52876">
        <ele>353.2</ele>
        <time>2025-09-11T09:52:20Z</time>
      </trkpt>
      <trkpt lat="45.94472" lon="4.52873">
        <ele>353.2</ele>
        <time>2025-09-11T09:52:21Z</time>
      </trkpt>
      <trkpt lat="45.94473" lon="4.5287">
        <ele>353.2</ele>
        <time>2025-09-11T09:52:22Z</time>
      </trkpt>
      <trkpt lat="45.94474" lon="4.52866">
        <ele>353.2</ele>
        <time>2025-09-11T09:52:23Z</time>
      </trkpt>
      <trkpt lat="45.94475" lon="4.52862">
        <ele>352.8</ele>
        <time>2025-09-11T09:52:24Z</time>
      </trkpt>
      <trkpt lat="45.94476" lon="4.52858">
        <ele>352.8</ele>
        <time>2025-09-11T09:52:25Z</time>
      </trkpt>
      <trkpt lat="45.94477" lon="4.52854">
        <ele>352.8</ele>
        <time>2025-09-11T09:52:26Z</time>
      </trkpt>
      <trkpt lat="45.94477" lon="4.52851">
        <ele>352.8</ele>
        <time>2025-09-11T09:52:27Z</time>
      </trkpt>
      <trkpt lat="45.94478" lon="4.52848">
        <ele>352.8</ele>
        <time>2025-09-11T09:52:28Z</time>
      </trkpt>
      <trkpt lat="45.94479" lon="4.52845">
        <ele>352.8</ele>
        <time>2025-09-11T09:52:29Z</time>
      </trkpt>
      <trkpt lat="45.94481" lon="4.52842">
        <ele>352.6</ele>
        <time>2025-09-11T09:52:30Z</time>
      </trkpt>
      <trkpt lat="45.94482" lon="4.5284">
        <ele>352.6</ele>
        <time>2025-09-11T09:52:31Z</time>
      </trkpt>
      <trkpt lat="45.94483" lon="4.52837">
        <ele>352.6</ele>
        <time>2025-09-11T09:52:32Z</time>
      </trkpt>
      <trkpt lat="45.94485" lon="4.52835">
        <ele>352.6</ele>
        <time>2025-09-11T09:52:33Z</time>
      </trkpt>
      <trkpt lat="45.94486" lon="4.52832">
        <ele>352.6</ele>
        <time>2025-09-11T09:52:34Z</time>
      </trkpt>
      <trkpt lat="45.94488" lon="4.52829">
        <ele>352.4</ele>
        <time>2025-09-11T09:52:35Z</time>
      </trkpt>
      <trkpt lat="45.9449" lon="4.52825">
        <ele>352.4</ele>
        <time>2025-09-11T09:52:36Z</time>
      </trkpt>
      <trkpt lat="45.94491" lon="4.52821">
        <ele>352.2</ele>
        <time>2025-09-11T09:52:37Z</time>
      </trkpt>
      <trkpt lat="45.94494" lon="4.52817">
        <ele>352.2</ele>
        <time>2025-09-11T09:52:38Z</time>
      </trkpt>
      <trkpt lat="45.94497" lon="4.52813">
        <ele>351.8</ele>
        <time>2025-09-11T09:52:39Z</time>
      </trkpt>
      <trkpt lat="45.945" lon="4.52809">
        <ele>351.8</ele>
        <time>2025-09-11T09:52:40Z</time>
      </trkpt>
      <trkpt lat="45.94503" lon="4.52805">
        <ele>351.8</ele>
        <time>2025-09-11T09:52:41Z</time>
      </trkpt>
      <trkpt lat="45.94506" lon="4.52801">
        <ele>351.4</ele>
        <time>2025-09-11T09:52:42Z</time>
      </trkpt>
      <trkpt lat="45.9451" lon="4.52797">
        <ele>351.2</ele>
        <time>2025-09-11T09:52:43Z</time>
      </trkpt>
      <trkpt lat="45.94513" lon="4.52792">
        <ele>351</ele>
        <time>2025-09-11T09:52:44Z</time>
      </trkpt>
      <trkpt lat="45.94517" lon="4.52787">
        <ele>351</ele>
        <time>2025-09-11T09:52:45Z</time>
      </trkpt>
      <trkpt lat="45.9452" lon="4.52783">
        <ele>350.6</ele>
        <time>2025-09-11T09:52:46Z</time>
      </trkpt>
      <trkpt lat="45.94524" lon="4.52779">
        <ele>350.6</ele>
        <time>2025-09-11T09:52:47Z</time>
      </trkpt>
      <trkpt lat="45.94529" lon="4.52774">
        <ele>350</ele>
        <time>2025-09-11T09:52:48Z</time>
      </trkpt>
      <trkpt lat="45.94533" lon="4.5277">
        <ele>350</ele>
        <time>2025-09-11T09:52:49Z</time>
      </trkpt>
      <trkpt lat="45.94536" lon="4.52764">
        <ele>349.8</ele>
        <time>2025-09-11T09:52:50Z</time>
      </trkpt>
      <trkpt lat="45.94539" lon="4.52758">
        <ele>349.6</ele>
        <time>2025-09-11T09:52:51Z</time>
      </trkpt>
      <trkpt lat="45.94541" lon="4.52754">
        <ele>349.6</ele>
        <time>2025-09-11T09:52:52Z</time>
      </trkpt>
      <trkpt lat="45.94542" lon="4.5275">
        <ele>349.6</ele>
        <time>2025-09-11T09:52:53Z</time>
      </trkpt>
      <trkpt lat="45.94543" lon="4.52748">
        <ele>349.6</ele>
        <time>2025-09-11T09:52:54Z</time>
      </trkpt>
      <trkpt lat="45.94543" lon="4.52746">
        <ele>349.6</ele>
        <time>2025-09-11T09:52:55Z</time>
      </trkpt>
      <trkpt lat="45.94543" lon="4.52744">
        <ele>349.6</ele>
        <time>2025-09-11T09:52:56Z</time>
      </trkpt>
      <trkpt lat="45.94542" lon="4.52739">
        <ele>349</ele>
        <time>2025-09-11T09:52:57Z</time>
      </trkpt>
      <trkpt lat="45.94541" lon="4.52735">
        <ele>350.2</ele>
        <time>2025-09-11T09:52:58Z</time>
      </trkpt>
      <trkpt lat="45.94539" lon="4.52732">
        <ele>350.2</ele>
        <time>2025-09-11T09:52:59Z</time>
      </trkpt>
      <trkpt lat="45.94538" lon="4.52727">
        <ele>349.8</ele>
        <time>2025-09-11T09:53:00Z</time>
      </trkpt>
      <trkpt lat="45.94538" lon="4.52721">
        <ele>349.4</ele>
        <time>2025-09-11T09:53:01Z</time>
      </trkpt>
      <trkpt lat="45.94537" lon="4.52714">
        <ele>349.2</ele>
        <time>2025-09-11T09:53:02Z</time>
      </trkpt>
      <trkpt lat="45.94537" lon="4.52706">
        <ele>348.8</ele>
        <time>2025-09-11T09:53:03Z</time>
      </trkpt>
      <trkpt lat="45.94537" lon="4.52698">
        <ele>348.4</ele>
        <time>2025-09-11T09:53:04Z</time>
      </trkpt>
      <trkpt lat="45.94537" lon="4.52691">
        <ele>348</ele>
        <time>2025-09-11T09:53:05Z</time>
      </trkpt>
      <trkpt lat="45.94537" lon="4.52681">
        <ele>347.8</ele>
        <time>2025-09-11T09:53:06Z</time>
      </trkpt>
      <trkpt lat="45.94538" lon="4.52672">
        <ele>347.6</ele>
        <time>2025-09-11T09:53:07Z</time>
      </trkpt>
      <trkpt lat="45.94538" lon="4.52662">
        <ele>346.8</ele>
        <time>2025-09-11T09:53:08Z</time>
      </trkpt>
      <trkpt lat="45.94539" lon="4.52652">
        <ele>345.8</ele>
        <time>2025-09-11T09:53:09Z</time>
      </trkpt>
      <trkpt lat="45.9454" lon="4.52641">
        <ele>345.4</ele>
        <time>2025-09-11T09:53:10Z</time>
      </trkpt>
      <trkpt lat="45.94542" lon="4.52631">
        <ele>344.8</ele>
        <time>2025-09-11T09:53:11Z</time>
      </trkpt>
      <trkpt lat="45.94543" lon="4.5262">
        <ele>344.4</ele>
        <time>2025-09-11T09:53:12Z</time>
      </trkpt>
      <trkpt lat="45.94545" lon="4.52609">
        <ele>343.8</ele>
        <time>2025-09-11T09:53:13Z</time>
      </trkpt>
      <trkpt lat="45.94548" lon="4.52597">
        <ele>343.6</ele>
        <time>2025-09-11T09:53:14Z</time>
      </trkpt>
      <trkpt lat="45.9455" lon="4.52587">
        <ele>343.2</ele>
        <time>2025-09-11T09:53:15Z</time>
      </trkpt>
      <trkpt lat="45.94553" lon="4.52578">
        <ele>342.6</ele>
        <time>2025-09-11T09:53:16Z</time>
      </trkpt>
      <trkpt lat="45.94557" lon="4.52569">
        <ele>341.8</ele>
        <time>2025-09-11T09:53:17Z</time>
      </trkpt>
      <trkpt lat="45.94562" lon="4.52563">
        <ele>341.4</ele>
        <time>2025-09-11T09:53:18Z</time>
      </trkpt>
      <trkpt lat="45.94568" lon="4.52557">
        <ele>341</ele>
        <time>2025-09-11T09:53:19Z</time>
      </trkpt>
      <trkpt lat="45.94574" lon="4.52552">
        <ele>340.4</ele>
        <time>2025-09-11T09:53:20Z</time>
      </trkpt>
      <trkpt lat="45.94579" lon="4.5255">
        <ele>340.2</ele>
        <time>2025-09-11T09:53:21Z</time>
      </trkpt>
      <trkpt lat="45.94585" lon="4.52547">
        <ele>339.6</ele>
        <time>2025-09-11T09:53:22Z</time>
      </trkpt>
      <trkpt lat="45.94588" lon="4.52543">
        <ele>339.2</ele>
        <time>2025-09-11T09:53:23Z</time>
      </trkpt>
      <trkpt lat="45.94591" lon="4.52538">
        <ele>338.8</ele>
        <time>2025-09-11T09:53:24Z</time>
      </trkpt>
      <trkpt lat="45.9459" lon="4.52533">
        <ele>338.6</ele>
        <time>2025-09-11T09:53:25Z</time>
      </trkpt>
      <trkpt lat="45.94588" lon="4.52527">
        <ele>338.4</ele>
        <time>2025-09-11T09:53:26Z</time>
      </trkpt>
      <trkpt lat="45.94584" lon="4.52524">
        <ele>338.4</ele>
        <time>2025-09-11T09:53:27Z</time>
      </trkpt>
      <trkpt lat="45.9458" lon="4.52524">
        <ele>338</ele>
        <time>2025-09-11T09:53:28Z</time>
      </trkpt>
      <trkpt lat="45.94574" lon="4.52521">
        <ele>338</ele>
        <time>2025-09-11T09:53:29Z</time>
      </trkpt>
      <trkpt lat="45.9457" lon="4.52528">
        <ele>338</ele>
        <time>2025-09-11T09:53:30Z</time>
      </trkpt>
      <trkpt lat="45.94565" lon="4.52531">
        <ele>337.6</ele>
        <time>2025-09-11T09:53:31Z</time>
      </trkpt>
      <trkpt lat="45.9456" lon="4.52536">
        <ele>337.2</ele>
        <time>2025-09-11T09:53:32Z</time>
      </trkpt>
      <trkpt lat="45.94555" lon="4.5254">
        <ele>337.2</ele>
        <time>2025-09-11T09:53:33Z</time>
      </trkpt>
      <trkpt lat="45.94548" lon="4.52545">
        <ele>337</ele>
        <time>2025-09-11T09:53:34Z</time>
      </trkpt>
      <trkpt lat="45.94542" lon="4.52551">
        <ele>336.4</ele>
        <time>2025-09-11T09:53:35Z</time>
      </trkpt>
      <trkpt lat="45.94537" lon="4.52558">
        <ele>336</ele>
        <time>2025-09-11T09:53:36Z</time>
      </trkpt>
      <trkpt lat="45.94531" lon="4.52566">
        <ele>335.4</ele>
        <time>2025-09-11T09:53:37Z</time>
      </trkpt>
      <trkpt lat="45.94526" lon="4.52574">
        <ele>335</ele>
        <time>2025-09-11T09:53:38Z</time>
      </trkpt>
      <trkpt lat="45.94521" lon="4.52582">
        <ele>334.4</ele>
        <time>2025-09-11T09:53:39Z</time>
      </trkpt>
      <trkpt lat="45.94516" lon="4.52591">
        <ele>334</ele>
        <time>2025-09-11T09:53:40Z</time>
      </trkpt>
      <trkpt lat="45.94512" lon="4.526">
        <ele>333.6</ele>
        <time>2025-09-11T09:53:41Z</time>
      </trkpt>
      <trkpt lat="45.94508" lon="4.52609">
        <ele>333</ele>
        <time>2025-09-11T09:53:42Z</time>
      </trkpt>
      <trkpt lat="45.94503" lon="4.5262">
        <ele>332.6</ele>
        <time>2025-09-11T09:53:43Z</time>
      </trkpt>
      <trkpt lat="45.94498" lon="4.52628">
        <ele>331.4</ele>
        <time>2025-09-11T09:53:44Z</time>
      </trkpt>
      <trkpt lat="45.94494" lon="4.52636">
        <ele>330.8</ele>
        <time>2025-09-11T09:53:45Z</time>
      </trkpt>
      <trkpt lat="45.94489" lon="4.52644">
        <ele>330.2</ele>
        <time>2025-09-11T09:53:46Z</time>
      </trkpt>
      <trkpt lat="45.94482" lon="4.5265">
        <ele>329.8</ele>
        <time>2025-09-11T09:53:47Z</time>
      </trkpt>
      <trkpt lat="45.94475" lon="4.52655">
        <ele>329.4</ele>
        <time>2025-09-11T09:53:48Z</time>
      </trkpt>
      <trkpt lat="45.94469" lon="4.52658">
        <ele>328.8</ele>
        <time>2025-09-11T09:53:49Z</time>
      </trkpt>
      <trkpt lat="45.94463" lon="4.52662">
        <ele>328.2</ele>
        <time>2025-09-11T09:53:50Z</time>
      </trkpt>
      <trkpt lat="45.94457" lon="4.52666">
        <ele>327.6</ele>
        <time>2025-09-11T09:53:51Z</time>
      </trkpt>
      <trkpt lat="45.94451" lon="4.52671">
        <ele>327</ele>
        <time>2025-09-11T09:53:52Z</time>
      </trkpt>
      <trkpt lat="45.94445" lon="4.52676">
        <ele>326.6</ele>
        <time>2025-09-11T09:53:53Z</time>
      </trkpt>
      <trkpt lat="45.94439" lon="4.52682">
        <ele>326</ele>
        <time>2025-09-11T09:53:54Z</time>
      </trkpt>
      <trkpt lat="45.94433" lon="4.52688">
        <ele>325.4</ele>
        <time>2025-09-11T09:53:55Z</time>
      </trkpt>
      <trkpt lat="45.94427" lon="4.52693">
        <ele>324.8</ele>
        <time>2025-09-11T09:53:56Z</time>
      </trkpt>
      <trkpt lat="45.94427" lon="4.52693">
        <ele>324.2</ele>
        <time>2025-09-11T09:53:57Z</time>
      </trkpt>
      <trkpt lat="45.94427" lon="4.52693">
        <ele>323.6</ele>
        <time>2025-09-11T09:53:58Z</time>
      </trkpt>
      <trkpt lat="45.944" lon="4.52705">
        <ele>322.6</ele>
        <time>2025-09-11T09:54:00Z</time>
      </trkpt>
      <trkpt lat="45.94393" lon="4.52706">
        <ele>322.2</ele>
        <time>2025-09-11T09:54:01Z</time>
      </trkpt>
      <trkpt lat="45.94387" lon="4.52707">
        <ele>321.4</ele>
        <time>2025-09-11T09:54:02Z</time>
      </trkpt>
      <trkpt lat="45.94379" lon="4.52708">
        <ele>321</ele>
        <time>2025-09-11T09:54:03Z</time>
      </trkpt>
      <trkpt lat="45.94373" lon="4.52708">
        <ele>320.6</ele>
        <time>2025-09-11T09:54:04Z</time>
      </trkpt>
      <trkpt lat="45.94366" lon="4.52708">
        <ele>320.4</ele>
        <time>2025-09-11T09:54:05Z</time>
      </trkpt>
      <trkpt lat="45.94359" lon="4.52708">
        <ele>319.6</ele>
        <time>2025-09-11T09:54:06Z</time>
      </trkpt>
      <trkpt lat="45.94352" lon="4.52708">
        <ele>319.2</ele>
        <time>2025-09-11T09:54:07Z</time>
      </trkpt>
      <trkpt lat="45.94345" lon="4.52709">
        <ele>318.6</ele>
        <time>2025-09-11T09:54:08Z</time>
      </trkpt>
      <trkpt lat="45.94338" lon="4.5271">
        <ele>318.4</ele>
        <time>2025-09-11T09:54:09Z</time>
      </trkpt>
      <trkpt lat="45.94332" lon="4.52712">
        <ele>317.6</ele>
        <time>2025-09-11T09:54:10Z</time>
      </trkpt>
      <trkpt lat="45.94325" lon="4.52715">
        <ele>317.2</ele>
        <time>2025-09-11T09:54:11Z</time>
      </trkpt>
      <trkpt lat="45.94319" lon="4.5272">
        <ele>316.8</ele>
        <time>2025-09-11T09:54:12Z</time>
      </trkpt>
      <trkpt lat="45.94314" lon="4.52727">
        <ele>316.2</ele>
        <time>2025-09-11T09:54:13Z</time>
      </trkpt>
      <trkpt lat="45.94309" lon="4.52733">
        <ele>315.6</ele>
        <time>2025-09-11T09:54:14Z</time>
      </trkpt>
      <trkpt lat="45.94304" lon="4.52741">
        <ele>315.2</ele>
        <time>2025-09-11T09:54:15Z</time>
      </trkpt>
      <trkpt lat="45.943" lon="4.5275">
        <ele>314.4</ele>
        <time>2025-09-11T09:54:16Z</time>
      </trkpt>
      <trkpt lat="45.94297" lon="4.52759">
        <ele>314</ele>
        <time>2025-09-11T09:54:17Z</time>
      </trkpt>
      <trkpt lat="45.94294" lon="4.52768">
        <ele>313.4</ele>
        <time>2025-09-11T09:54:18Z</time>
      </trkpt>
      <trkpt lat="45.94291" lon="4.52777">
        <ele>313</ele>
        <time>2025-09-11T09:54:19Z</time>
      </trkpt>
      <trkpt lat="45.9429" lon="4.52786">
        <ele>312.4</ele>
        <time>2025-09-11T09:54:20Z</time>
      </trkpt>
      <trkpt lat="45.94288" lon="4.52796">
        <ele>312</ele>
        <time>2025-09-11T09:54:21Z</time>
      </trkpt>
      <trkpt lat="45.94288" lon="4.52806">
        <ele>311.4</ele>
        <time>2025-09-11T09:54:22Z</time>
      </trkpt>
      <trkpt lat="45.94287" lon="4.52816">
        <ele>311</ele>
        <time>2025-09-11T09:54:23Z</time>
      </trkpt>
      <trkpt lat="45.94287" lon="4.52826">
        <ele>310.6</ele>
        <time>2025-09-11T09:54:24Z</time>
      </trkpt>
      <trkpt lat="45.94287" lon="4.52836">
        <ele>310.2</ele>
        <time>2025-09-11T09:54:25Z</time>
      </trkpt>
      <trkpt lat="45.94287" lon="4.52846">
        <ele>309.8</ele>
        <time>2025-09-11T09:54:26Z</time>
      </trkpt>
      <trkpt lat="45.94287" lon="4.52855">
        <ele>309.4</ele>
        <time>2025-09-11T09:54:27Z</time>
      </trkpt>
      <trkpt lat="45.94288" lon="4.52865">
        <ele>309</ele>
        <time>2025-09-11T09:54:28Z</time>
      </trkpt>
      <trkpt lat="45.94288" lon="4.52875">
        <ele>308.6</ele>
        <time>2025-09-11T09:54:29Z</time>
      </trkpt>
      <trkpt lat="45.94289" lon="4.52884">
        <ele>308</ele>
        <time>2025-09-11T09:54:30Z</time>
      </trkpt>
      <trkpt lat="45.9429" lon="4.52893">
        <ele>307.6</ele>
        <time>2025-09-11T09:54:31Z</time>
      </trkpt>
      <trkpt lat="45.94292" lon="4.52903">
        <ele>307</ele>
        <time>2025-09-11T09:54:32Z</time>
      </trkpt>
      <trkpt lat="45.94293" lon="4.52912">
        <ele>306.4</ele>
        <time>2025-09-11T09:54:33Z</time>
      </trkpt>
      <trkpt lat="45.94294" lon="4.52921">
        <ele>306</ele>
        <time>2025-09-11T09:54:34Z</time>
      </trkpt>
      <trkpt lat="45.94294" lon="4.5293">
        <ele>305.4</ele>
        <time>2025-09-11T09:54:35Z</time>
      </trkpt>
      <trkpt lat="45.94295" lon="4.5294">
        <ele>305.2</ele>
        <time>2025-09-11T09:54:36Z</time>
      </trkpt>
      <trkpt lat="45.94296" lon="4.52951">
        <ele>304.6</ele>
        <time>2025-09-11T09:54:37Z</time>
      </trkpt>
      <trkpt lat="45.94297" lon="4.5296">
        <ele>304</ele>
        <time>2025-09-11T09:54:38Z</time>
      </trkpt>
      <trkpt lat="45.94297" lon="4.5297">
        <ele>303.4</ele>
        <time>2025-09-11T09:54:39Z</time>
      </trkpt>
      <trkpt lat="45.94297" lon="4.52979">
        <ele>303</ele>
        <time>2025-09-11T09:54:40Z</time>
      </trkpt>
      <trkpt lat="45.94297" lon="4.52989">
        <ele>302.6</ele>
        <time>2025-09-11T09:54:41Z</time>
      </trkpt>
      <trkpt lat="45.94297" lon="4.52998">
        <ele>301.8</ele>
        <time>2025-09-11T09:54:42Z</time>
      </trkpt>
      <trkpt lat="45.94297" lon="4.53008">
        <ele>301.4</ele>
        <time>2025-09-11T09:54:43Z</time>
      </trkpt>
      <trkpt lat="45.94298" lon="4.53017">
        <ele>300.8</ele>
        <time>2025-09-11T09:54:44Z</time>
      </trkpt>
      <trkpt lat="45.94298" lon="4.53028">
        <ele>300.4</ele>
        <time>2025-09-11T09:54:45Z</time>
      </trkpt>
      <trkpt lat="45.943" lon="4.53037">
        <ele>300</ele>
        <time>2025-09-11T09:54:46Z</time>
      </trkpt>
      <trkpt lat="45.94302" lon="4.53047">
        <ele>299.6</ele>
        <time>2025-09-11T09:54:47Z</time>
      </trkpt>
      <trkpt lat="45.94305" lon="4.53056">
        <ele>299</ele>
        <time>2025-09-11T09:54:48Z</time>
      </trkpt>
      <trkpt lat="45.94308" lon="4.53063">
        <ele>298.4</ele>
        <time>2025-09-11T09:54:49Z</time>
      </trkpt>
      <trkpt lat="45.94312" lon="4.53071">
        <ele>297.8</ele>
        <time>2025-09-11T09:54:50Z</time>
      </trkpt>
      <trkpt lat="45.94318" lon="4.53077">
        <ele>297.4</ele>
        <time>2025-09-11T09:54:51Z</time>
      </trkpt>
      <trkpt lat="45.94323" lon="4.53083">
        <ele>297</ele>
        <time>2025-09-11T09:54:52Z</time>
      </trkpt>
      <trkpt lat="45.94329" lon="4.53089">
        <ele>296.6</ele>
        <time>2025-09-11T09:54:53Z</time>
      </trkpt>
      <trkpt lat="45.94334" lon="4.53097">
        <ele>296</ele>
        <time>2025-09-11T09:54:54Z</time>
      </trkpt>
      <trkpt lat="45.94339" lon="4.53103">
        <ele>295.6</ele>
        <time>2025-09-11T09:54:55Z</time>
      </trkpt>
      <trkpt lat="45.94344" lon="4.5311">
        <ele>295.2</ele>
        <time>2025-09-11T09:54:56Z</time>
      </trkpt>
      <trkpt lat="45.94349" lon="4.53118">
        <ele>294.8</ele>
        <time>2025-09-11T09:54:57Z</time>
      </trkpt>
      <trkpt lat="45.94354" lon="4.53127">
        <ele>294</ele>
        <time>2025-09-11T09:54:58Z</time>
      </trkpt>
      <trkpt lat="45.94359" lon="4.53135">
        <ele>293.8</ele>
        <time>2025-09-11T09:54:59Z</time>
      </trkpt>
      <trkpt lat="45.94364" lon="4.53143">
        <ele>293</ele>
        <time>2025-09-11T09:55:00Z</time>
      </trkpt>
      <trkpt lat="45.94369" lon="4.53152">
        <ele>292.6</ele>
        <time>2025-09-11T09:55:01Z</time>
      </trkpt>
      <trkpt lat="45.94374" lon="4.5316">
        <ele>291.8</ele>
        <time>2025-09-11T09:55:02Z</time>
      </trkpt>
      <trkpt lat="45.94377" lon="4.5317">
        <ele>291.2</ele>
        <time>2025-09-11T09:55:03Z</time>
      </trkpt>
      <trkpt lat="45.94382" lon="4.53178">
        <ele>290.4</ele>
        <time>2025-09-11T09:55:04Z</time>
      </trkpt>
      <trkpt lat="45.94382" lon="4.53178">
        <ele>289.6</ele>
        <time>2025-09-11T09:55:05Z</time>
      </trkpt>
      <trkpt lat="45.9439" lon="4.53197">
        <ele>289</ele>
        <time>2025-09-11T09:55:06Z</time>
      </trkpt>
      <trkpt lat="45.94394" lon="4.53207">
        <ele>288.6</ele>
        <time>2025-09-11T09:55:07Z</time>
      </trkpt>
      <trkpt lat="45.94397" lon="4.53216">
        <ele>288.2</ele>
        <time>2025-09-11T09:55:08Z</time>
      </trkpt>
      <trkpt lat="45.944" lon="4.53225">
        <ele>287.6</ele>
        <time>2025-09-11T09:55:09Z</time>
      </trkpt>
      <trkpt lat="45.94404" lon="4.53234">
        <ele>287.2</ele>
        <time>2025-09-11T09:55:10Z</time>
      </trkpt>
      <trkpt lat="45.94407" lon="4.53244">
        <ele>286.6</ele>
        <time>2025-09-11T09:55:11Z</time>
      </trkpt>
      <trkpt lat="45.9441" lon="4.53254">
        <ele>285.8</ele>
        <time>2025-09-11T09:55:12Z</time>
      </trkpt>
      <trkpt lat="45.94414" lon="4.53264">
        <ele>285.4</ele>
        <time>2025-09-11T09:55:13Z</time>
      </trkpt>
      <trkpt lat="45.94418" lon="4.53272">
        <ele>284.8</ele>
        <time>2025-09-11T09:55:14Z</time>
      </trkpt>
      <trkpt lat="45.94422" lon="4.53281">
        <ele>284.2</ele>
        <time>2025-09-11T09:55:15Z</time>
      </trkpt>
      <trkpt lat="45.94426" lon="4.53288">
        <ele>283.8</ele>
        <time>2025-09-11T09:55:16Z</time>
      </trkpt>
      <trkpt lat="45.94432" lon="4.53294">
        <ele>283.4</ele>
        <time>2025-09-11T09:55:17Z</time>
      </trkpt>
      <trkpt lat="45.94439" lon="4.53297">
        <ele>283</ele>
        <time>2025-09-11T09:55:18Z</time>
      </trkpt>
      <trkpt lat="45.94445" lon="4.533">
        <ele>282.4</ele>
        <time>2025-09-11T09:55:19Z</time>
      </trkpt>
      <trkpt lat="45.9445" lon="4.53303">
        <ele>281.6</ele>
        <time>2025-09-11T09:55:20Z</time>
      </trkpt>
      <trkpt lat="45.94454" lon="4.53308">
        <ele>281.2</ele>
        <time>2025-09-11T09:55:21Z</time>
      </trkpt>
      <trkpt lat="45.94458" lon="4.53314">
        <ele>280.8</ele>
        <time>2025-09-11T09:55:22Z</time>
      </trkpt>
      <trkpt lat="45.94459" lon="4.53322">
        <ele>280</ele>
        <time>2025-09-11T09:55:23Z</time>
      </trkpt>
      <trkpt lat="45.94459" lon="4.53331">
        <ele>279.4</ele>
        <time>2025-09-11T09:55:24Z</time>
      </trkpt>
      <trkpt lat="45.94457" lon="4.53339">
        <ele>278.8</ele>
        <time>2025-09-11T09:55:25Z</time>
      </trkpt>
      <trkpt lat="45.94453" lon="4.53344">
        <ele>278.4</ele>
        <time>2025-09-11T09:55:26Z</time>
      </trkpt>
      <trkpt lat="45.94449" lon="4.53349">
        <ele>277.8</ele>
        <time>2025-09-11T09:55:27Z</time>
      </trkpt>
      <trkpt lat="45.94444" lon="4.53354">
        <ele>277.2</ele>
        <time>2025-09-11T09:55:28Z</time>
      </trkpt>
      <trkpt lat="45.94438" lon="4.5336">
        <ele>276.8</ele>
        <time>2025-09-11T09:55:29Z</time>
      </trkpt>
      <trkpt lat="45.94432" lon="4.53364">
        <ele>276.4</ele>
        <time>2025-09-11T09:55:30Z</time>
      </trkpt>
      <trkpt lat="45.94427" lon="4.5337">
        <ele>276.2</ele>
        <time>2025-09-11T09:55:31Z</time>
      </trkpt>
      <trkpt lat="45.94422" lon="4.53375">
        <ele>275.6</ele>
        <time>2025-09-11T09:55:32Z</time>
      </trkpt>
      <trkpt lat="45.94418" lon="4.53381">
        <ele>275.2</ele>
        <time>2025-09-11T09:55:33Z</time>
      </trkpt>
      <trkpt lat="45.94415" lon="4.53388">
        <ele>274.8</ele>
        <time>2025-09-11T09:55:34Z</time>
      </trkpt>
      <trkpt lat="45.94413" lon="4.53396">
        <ele>274.4</ele>
        <time>2025-09-11T09:55:35Z</time>
      </trkpt>
      <trkpt lat="45.94413" lon="4.53404">
        <ele>274</ele>
        <time>2025-09-11T09:55:36Z</time>
      </trkpt>
      <trkpt lat="45.94414" lon="4.5341">
        <ele>273.4</ele>
        <time>2025-09-11T09:55:37Z</time>
      </trkpt>
      <trkpt lat="45.94415" lon="4.53415">
        <ele>273</ele>
        <time>2025-09-11T09:55:38Z</time>
      </trkpt>
      <trkpt lat="45.94417" lon="4.5342">
        <ele>272.8</ele>
        <time>2025-09-11T09:55:39Z</time>
      </trkpt>
      <trkpt lat="45.9442" lon="4.53424">
        <ele>272.6</ele>
        <time>2025-09-11T09:55:40Z</time>
      </trkpt>
      <trkpt lat="45.94424" lon="4.53428">
        <ele>272.2</ele>
        <time>2025-09-11T09:55:41Z</time>
      </trkpt>
      <trkpt lat="45.94428" lon="4.53432">
        <ele>272</ele>
        <time>2025-09-11T09:55:42Z</time>
      </trkpt>
      <trkpt lat="45.94432" lon="4.53436">
        <ele>272</ele>
        <time>2025-09-11T09:55:43Z</time>
      </trkpt>
      <trkpt lat="45.94436" lon="4.53441">
        <ele>271.8</ele>
        <time>2025-09-11T09:55:44Z</time>
      </trkpt>
      <trkpt lat="45.94439" lon="4.53447">
        <ele>271.4</ele>
        <time>2025-09-11T09:55:45Z</time>
      </trkpt>
      <trkpt lat="45.94441" lon="4.53453">
        <ele>271.4</ele>
        <time>2025-09-11T09:55:46Z</time>
      </trkpt>
      <trkpt lat="45.94444" lon="4.53459">
        <ele>271.4</ele>
        <time>2025-09-11T09:55:47Z</time>
      </trkpt>
      <trkpt lat="45.94446" lon="4.53464">
        <ele>270.8</ele>
        <time>2025-09-11T09:55:48Z</time>
      </trkpt>
      <trkpt lat="45.94449" lon="4.5347">
        <ele>270.8</ele>
        <time>2025-09-11T09:55:49Z</time>
      </trkpt>
      <trkpt lat="45.94451" lon="4.53476">
        <ele>271</ele>
        <time>2025-09-11T09:55:50Z</time>
      </trkpt>
      <trkpt lat="45.94453" lon="4.53483">
        <ele>271</ele>
        <time>2025-09-11T09:55:51Z</time>
      </trkpt>
      <trkpt lat="45.94455" lon="4.5349">
        <ele>271</ele>
        <time>2025-09-11T09:55:52Z</time>
      </trkpt>
      <trkpt lat="45.94457" lon="4.53498">
        <ele>270.8</ele>
        <time>2025-09-11T09:55:53Z</time>
      </trkpt>
      <trkpt lat="45.9446" lon="4.53505">
        <ele>270.4</ele>
        <time>2025-09-11T09:55:54Z</time>
      </trkpt>
      <trkpt lat="45.94463" lon="4.53512">
        <ele>270.4</ele>
        <time>2025-09-11T09:55:55Z</time>
      </trkpt>
      <trkpt lat="45.94466" lon="4.53519">
        <ele>270.2</ele>
        <time>2025-09-11T09:55:56Z</time>
      </trkpt>
      <trkpt lat="45.94468" lon="4.53525">
        <ele>270</ele>
        <time>2025-09-11T09:55:57Z</time>
      </trkpt>
      <trkpt lat="45.94469" lon="4.5353">
        <ele>270</ele>
        <time>2025-09-11T09:55:58Z</time>
      </trkpt>
      <trkpt lat="45.94469" lon="4.53534">
        <ele>270</ele>
        <time>2025-09-11T09:55:59Z</time>
      </trkpt>
      <trkpt lat="45.94469" lon="4.53537">
        <ele>270</ele>
        <time>2025-09-11T09:56:00Z</time>
      </trkpt>
      <trkpt lat="45.9447" lon="4.5354">
        <ele>269.8</ele>
        <time>2025-09-11T09:56:01Z</time>
      </trkpt>
      <trkpt lat="45.9447" lon="4.53542">
        <ele>269.8</ele>
        <time>2025-09-11T09:56:02Z</time>
      </trkpt>
      <trkpt lat="45.94471" lon="4.53542">
        <ele>269.8</ele>
        <time>2025-09-11T09:56:03Z</time>
      </trkpt>
      <trkpt lat="45.94472" lon="4.53542">
        <ele>269.8</ele>
        <time>2025-09-11T09:56:04Z</time>
      </trkpt>
      <trkpt lat="45.94471" lon="4.53541">
        <ele>269.8</ele>
        <time>2025-09-11T09:56:05Z</time>
      </trkpt>
      <trkpt lat="45.94473" lon="4.53543">
        <ele>269.8</ele>
        <time>2025-09-11T09:56:06Z</time>
      </trkpt>
      <trkpt lat="45.94473" lon="4.53545">
        <ele>269.8</ele>
        <time>2025-09-11T09:56:07Z</time>
      </trkpt>
      <trkpt lat="45.94474" lon="4.53547">
        <ele>269.8</ele>
        <time>2025-09-11T09:56:08Z</time>
      </trkpt>
      <trkpt lat="45.94475" lon="4.53549">
        <ele>269.8</ele>
        <time>2025-09-11T09:56:09Z</time>
      </trkpt>
      <trkpt lat="45.94476" lon="4.53552">
        <ele>269.8</ele>
        <time>2025-09-11T09:56:10Z</time>
      </trkpt>
      <trkpt lat="45.94477" lon="4.53555">
        <ele>269.6</ele>
        <time>2025-09-11T09:56:11Z</time>
      </trkpt>
      <trkpt lat="45.94478" lon="4.53559">
        <ele>269.6</ele>
        <time>2025-09-11T09:56:12Z</time>
      </trkpt>
      <trkpt lat="45.9448" lon="4.53563">
        <ele>269.6</ele>
        <time>2025-09-11T09:56:13Z</time>
      </trkpt>
      <trkpt lat="45.94482" lon="4.53567">
        <ele>269.6</ele>
        <time>2025-09-11T09:56:14Z</time>
      </trkpt>
      <trkpt lat="45.94484" lon="4.53571">
        <ele>269.6</ele>
        <time>2025-09-11T09:56:15Z</time>
      </trkpt>
      <trkpt lat="45.94486" lon="4.53575">
        <ele>269.6</ele>
        <time>2025-09-11T09:56:16Z</time>
      </trkpt>
      <trkpt lat="45.94488" lon="4.53579">
        <ele>269.6</ele>
        <time>2025-09-11T09:56:17Z</time>
      </trkpt>
      <trkpt lat="45.9449" lon="4.53584">
        <ele>269.6</ele>
        <time>2025-09-11T09:56:18Z</time>
      </trkpt>
      <trkpt lat="45.94491" lon="4.53588">
        <ele>269.6</ele>
        <time>2025-09-11T09:56:19Z</time>
      </trkpt>
      <trkpt lat="45.94493" lon="4.53591">
        <ele>269.2</ele>
        <time>2025-09-11T09:56:20Z</time>
      </trkpt>
      <trkpt lat="45.94495" lon="4.53595">
        <ele>269.2</ele>
        <time>2025-09-11T09:56:21Z</time>
      </trkpt>
      <trkpt lat="45.94496" lon="4.53598">
        <ele>269.2</ele>
        <time>2025-09-11T09:56:22Z</time>
      </trkpt>
      <trkpt lat="45.94498" lon="4.53601">
        <ele>269.6</ele>
        <time>2025-09-11T09:56:23Z</time>
      </trkpt>
      <trkpt lat="45.945" lon="4.53603">
        <ele>269.6</ele>
        <time>2025-09-11T09:56:24Z</time>
      </trkpt>
      <trkpt lat="45.94502" lon="4.53606">
        <ele>269.2</ele>
        <time>2025-09-11T09:56:25Z</time>
      </trkpt>
      <trkpt lat="45.94504" lon="4.53609">
        <ele>269.6</ele>
        <time>2025-09-11T09:56:26Z</time>
      </trkpt>
      <trkpt lat="45.94506" lon="4.53613">
        <ele>269.8</ele>
        <time>2025-09-11T09:56:27Z</time>
      </trkpt>
      <trkpt lat="45.94508" lon="4.53615">
        <ele>270.2</ele>
        <time>2025-09-11T09:56:28Z</time>
      </trkpt>
      <trkpt lat="45.9451" lon="4.53618">
        <ele>270.2</ele>
        <time>2025-09-11T09:56:29Z</time>
      </trkpt>
      <trkpt lat="45.94512" lon="4.53621">
        <ele>270.2</ele>
        <time>2025-09-11T09:56:30Z</time>
      </trkpt>
      <trkpt lat="45.94514" lon="4.53623">
        <ele>270.2</ele>
        <time>2025-09-11T09:56:31Z</time>
      </trkpt>
      <trkpt lat="45.94516" lon="4.53626">
        <ele>270.6</ele>
        <time>2025-09-11T09:56:32Z</time>
      </trkpt>
      <trkpt lat="45.94518" lon="4.53628">
        <ele>270.6</ele>
        <time>2025-09-11T09:56:33Z</time>
      </trkpt>
      <trkpt lat="45.9452" lon="4.53631">
        <ele>270.8</ele>
        <time>2025-09-11T09:56:34Z</time>
      </trkpt>
      <trkpt lat="45.94521" lon="4.53633">
        <ele>271</ele>
        <time>2025-09-11T09:56:35Z</time>
      </trkpt>
      <trkpt lat="45.94523" lon="4.53636">
        <ele>270.8</ele>
        <time>2025-09-11T09:56:36Z</time>
      </trkpt>
      <trkpt lat="45.94525" lon="4.53638">
        <ele>271.6</ele>
        <time>2025-09-11T09:56:37Z</time>
      </trkpt>
      <trkpt lat="45.94527" lon="4.5364">
        <ele>271.6</ele>
        <time>2025-09-11T09:56:38Z</time>
      </trkpt>
      <trkpt lat="45.94529" lon="4.53642">
        <ele>271.8</ele>
        <time>2025-09-11T09:56:39Z</time>
      </trkpt>
      <trkpt lat="45.94531" lon="4.53644">
        <ele>271.8</ele>
        <time>2025-09-11T09:56:40Z</time>
      </trkpt>
      <trkpt lat="45.94532" lon="4.53647">
        <ele>271.8</ele>
        <time>2025-09-11T09:56:41Z</time>
      </trkpt>
      <trkpt lat="45.94534" lon="4.53649">
        <ele>271.8</ele>
        <time>2025-09-11T09:56:42Z</time>
      </trkpt>
      <trkpt lat="45.94536" lon="4.53652">
        <ele>271.8</ele>
        <time>2025-09-11T09:56:43Z</time>
      </trkpt>
      <trkpt lat="45.94537" lon="4.53654">
        <ele>271.8</ele>
        <time>2025-09-11T09:56:44Z</time>
      </trkpt>
      <trkpt lat="45.94539" lon="4.53656">
        <ele>271.8</ele>
        <time>2025-09-11T09:56:45Z</time>
      </trkpt>
      <trkpt lat="45.94541" lon="4.53658">
        <ele>271.8</ele>
        <time>2025-09-11T09:56:46Z</time>
      </trkpt>
      <trkpt lat="45.94543" lon="4.53661">
        <ele>271.8</ele>
        <time>2025-09-11T09:56:47Z</time>
      </trkpt>
      <trkpt lat="45.94545" lon="4.53663">
        <ele>272</ele>
        <time>2025-09-11T09:56:48Z</time>
      </trkpt>
      <trkpt lat="45.94547" lon="4.53665">
        <ele>272</ele>
        <time>2025-09-11T09:56:49Z</time>
      </trkpt>
      <trkpt lat="45.94549" lon="4.53668">
        <ele>272</ele>
        <time>2025-09-11T09:56:50Z</time>
      </trkpt>
      <trkpt lat="45.9455" lon="4.5367">
        <ele>272</ele>
        <time>2025-09-11T09:56:51Z</time>
      </trkpt>
      <trkpt lat="45.94552" lon="4.53672">
        <ele>272</ele>
        <time>2025-09-11T09:56:52Z</time>
      </trkpt>
      <trkpt lat="45.94554" lon="4.53674">
        <ele>272</ele>
        <time>2025-09-11T09:56:53Z</time>
      </trkpt>
      <trkpt lat="45.94556" lon="4.53677">
        <ele>272</ele>
        <time>2025-09-11T09:56:54Z</time>
      </trkpt>
      <trkpt lat="45.94558" lon="4.53679">
        <ele>272</ele>
        <time>2025-09-11T09:56:55Z</time>
      </trkpt>
      <trkpt lat="45.94559" lon="4.53681">
        <ele>272.4</ele>
        <time>2025-09-11T09:56:56Z</time>
      </trkpt>
      <trkpt lat="45.94561" lon="4.53683">
        <ele>272.4</ele>
        <time>2025-09-11T09:56:57Z</time>
      </trkpt>
      <trkpt lat="45.94563" lon="4.53685">
        <ele>272.4</ele>
        <time>2025-09-11T09:56:58Z</time>
      </trkpt>
      <trkpt lat="45.94564" lon="4.53687">
        <ele>272.4</ele>
        <time>2025-09-11T09:56:59Z</time>
      </trkpt>
      <trkpt lat="45.94565" lon="4.53689">
        <ele>272.6</ele>
        <time>2025-09-11T09:57:00Z</time>
      </trkpt>
      <trkpt lat="45.94567" lon="4.53691">
        <ele>272.6</ele>
        <time>2025-09-11T09:57:01Z</time>
      </trkpt>
      <trkpt lat="45.94568" lon="4.53693">
        <ele>273</ele>
        <time>2025-09-11T09:57:02Z</time>
      </trkpt>
      <trkpt lat="45.94569" lon="4.53696">
        <ele>273.2</ele>
        <time>2025-09-11T09:57:03Z</time>
      </trkpt>
      <trkpt lat="45.94569" lon="4.53698">
        <ele>273.2</ele>
        <time>2025-09-11T09:57:04Z</time>
      </trkpt>
      <trkpt lat="45.9457" lon="4.53701">
        <ele>273.2</ele>
        <time>2025-09-11T09:57:05Z</time>
      </trkpt>
      <trkpt lat="45.94571" lon="4.53702">
        <ele>273.2</ele>
        <time>2025-09-11T09:57:06Z</time>
      </trkpt>
      <trkpt lat="45.94572" lon="4.53703">
        <ele>273.4</ele>
        <time>2025-09-11T09:57:07Z</time>
      </trkpt>
      <trkpt lat="45.94572" lon="4.53704">
        <ele>273.4</ele>
        <time>2025-09-11T09:57:08Z</time>
      </trkpt>
      <trkpt lat="45.94573" lon="4.53705">
        <ele>273.4</ele>
        <time>2025-09-11T09:57:09Z</time>
      </trkpt>
      <trkpt lat="45.94574" lon="4.53707">
        <ele>273.4</ele>
        <time>2025-09-11T09:57:10Z</time>
      </trkpt>
      <trkpt lat="45.94574" lon="4.53707">
        <ele>273.8</ele>
        <time>2025-09-11T09:57:11Z</time>
      </trkpt>
      <trkpt lat="45.94574" lon="4.53706">
        <ele>273.8</ele>
        <time>2025-09-11T09:57:12Z</time>
      </trkpt>
      <trkpt lat="45.94573" lon="4.53708">
        <ele>274.4</ele>
        <time>2025-09-11T09:57:26Z</time>
      </trkpt>
      <trkpt lat="45.94573" lon="4.53709">
        <ele>274</ele>
        <time>2025-09-11T09:57:27Z</time>
      </trkpt>
      <trkpt lat="45.94573" lon="4.5371">
        <ele>274</ele>
        <time>2025-09-11T09:57:28Z</time>
      </trkpt>
      <trkpt lat="45.94573" lon="4.5371">
        <ele>274</ele>
        <time>2025-09-11T09:57:29Z</time>
      </trkpt>
      <trkpt lat="45.94572" lon="4.53707">
        <ele>274.6</ele>
        <time>2025-09-11T10:03:13Z</time>
      </trkpt>
      <trkpt lat="45.94572" lon="4.53707">
        <ele>274.8</ele>
        <time>2025-09-11T10:03:14Z</time>
      </trkpt>
      <trkpt lat="45.94573" lon="4.53707">
        <ele>274.8</ele>
        <time>2025-09-11T10:03:15Z</time>
      </trkpt>
      <trkpt lat="45.94573" lon="4.53709">
        <ele>274.8</ele>
        <time>2025-09-11T10:03:16Z</time>
      </trkpt>
      <trkpt lat="45.94574" lon="4.53713">
        <ele>274.8</ele>
        <time>2025-09-11T10:03:22Z</time>
      </trkpt>
      <trkpt lat="45.94573" lon="4.53716">
        <ele>274.8</ele>
        <time>2025-09-11T10:03:23Z</time>
      </trkpt>
      <trkpt lat="45.94571" lon="4.53719">
        <ele>274.8</ele>
        <time>2025-09-11T10:03:24Z</time>
      </trkpt>
      <trkpt lat="45.94569" lon="4.53721">
        <ele>274.8</ele>
        <time>2025-09-11T10:03:25Z</time>
      </trkpt>
      <trkpt lat="45.94567" lon="4.53724">
        <ele>274.8</ele>
        <time>2025-09-11T10:03:26Z</time>
      </trkpt>
      <trkpt lat="45.94566" lon="4.53727">
        <ele>274.8</ele>
        <time>2025-09-11T10:03:27Z</time>
      </trkpt>
      <trkpt lat="45.94563" lon="4.5373">
        <ele>274.8</ele>
        <time>2025-09-11T10:03:28Z</time>
      </trkpt>
      <trkpt lat="45.94561" lon="4.53733">
        <ele>274.8</ele>
        <time>2025-09-11T10:03:29Z</time>
      </trkpt>
      <trkpt lat="45.94559" lon="4.53735">
        <ele>274.8</ele>
        <time>2025-09-11T10:03:30Z</time>
      </trkpt>
      <trkpt lat="45.94556" lon="4.53737">
        <ele>275</ele>
        <time>2025-09-11T10:03:31Z</time>
      </trkpt>
      <trkpt lat="45.94553" lon="4.5374">
        <ele>275</ele>
        <time>2025-09-11T10:03:32Z</time>
      </trkpt>
      <trkpt lat="45.9455" lon="4.53742">
        <ele>275</ele>
        <time>2025-09-11T10:03:33Z</time>
      </trkpt>
      <trkpt lat="45.94548" lon="4.53743">
        <ele>275.4</ele>
        <time>2025-09-11T10:03:34Z</time>
      </trkpt>
      <trkpt lat="45.94545" lon="4.53744">
        <ele>275.4</ele>
        <time>2025-09-11T10:03:35Z</time>
      </trkpt>
      <trkpt lat="45.94542" lon="4.53745">
        <ele>275.4</ele>
        <time>2025-09-11T10:03:36Z</time>
      </trkpt>
      <trkpt lat="45.9454" lon="4.53745">
        <ele>275.4</ele>
        <time>2025-09-11T10:03:37Z</time>
      </trkpt>
      <trkpt lat="45.94537" lon="4.53746">
        <ele>275.8</ele>
        <time>2025-09-11T10:03:38Z</time>
      </trkpt>
      <trkpt lat="45.94534" lon="4.53747">
        <ele>275.8</ele>
        <time>2025-09-11T10:03:39Z</time>
      </trkpt>
      <trkpt lat="45.94532" lon="4.53748">
        <ele>275.8</ele>
        <time>2025-09-11T10:03:40Z</time>
      </trkpt>
      <trkpt lat="45.94528" lon="4.53749">
        <ele>275.8</ele>
        <time>2025-09-11T10:03:41Z</time>
      </trkpt>
      <trkpt lat="45.94525" lon="4.5375">
        <ele>275.8</ele>
        <time>2025-09-11T10:03:42Z</time>
      </trkpt>
      <trkpt lat="45.94522" lon="4.53751">
        <ele>275.8</ele>
        <time>2025-09-11T10:03:43Z</time>
      </trkpt>
      <trkpt lat="45.9452" lon="4.53752">
        <ele>275.8</ele>
        <time>2025-09-11T10:03:44Z</time>
      </trkpt>
      <trkpt lat="45.94517" lon="4.53753">
        <ele>276</ele>
        <time>2025-09-11T10:03:45Z</time>
      </trkpt>
      <trkpt lat="45.94515" lon="4.53754">
        <ele>276</ele>
        <time>2025-09-11T10:03:46Z</time>
      </trkpt>
      <trkpt lat="45.94512" lon="4.53756">
        <ele>276.2</ele>
        <time>2025-09-11T10:03:47Z</time>
      </trkpt>
      <trkpt lat="45.94509" lon="4.53758">
        <ele>276.2</ele>
        <time>2025-09-11T10:03:48Z</time>
      </trkpt>
      <trkpt lat="45.94507" lon="4.5376">
        <ele>276.4</ele>
        <time>2025-09-11T10:03:49Z</time>
      </trkpt>
      <trkpt lat="45.94505" lon="4.53761">
        <ele>276.4</ele>
        <time>2025-09-11T10:03:50Z</time>
      </trkpt>
      <trkpt lat="45.94502" lon="4.53763">
        <ele>275.6</ele>
        <time>2025-09-11T10:03:51Z</time>
      </trkpt>
      <trkpt lat="45.945" lon="4.53765">
        <ele>276.2</ele>
        <time>2025-09-11T10:03:52Z</time>
      </trkpt>
      <trkpt lat="45.94498" lon="4.53767">
        <ele>275.6</ele>
        <time>2025-09-11T10:03:53Z</time>
      </trkpt>
      <trkpt lat="45.94495" lon="4.53769">
        <ele>276.4</ele>
        <time>2025-09-11T10:03:54Z</time>
      </trkpt>
      <trkpt lat="45.94493" lon="4.53771">
        <ele>276.4</ele>
        <time>2025-09-11T10:03:55Z</time>
      </trkpt>
      <trkpt lat="45.9449" lon="4.53774">
        <ele>276.4</ele>
        <time>2025-09-11T10:03:56Z</time>
      </trkpt>
      <trkpt lat="45.94488" lon="4.53776">
        <ele>276.4</ele>
        <time>2025-09-11T10:03:57Z</time>
      </trkpt>
      <trkpt lat="45.94486" lon="4.53778">
        <ele>276.6</ele>
        <time>2025-09-11T10:03:58Z</time>
      </trkpt>
      <trkpt lat="45.94483" lon="4.5378">
        <ele>276.6</ele>
        <time>2025-09-11T10:03:59Z</time>
      </trkpt>
      <trkpt lat="45.94481" lon="4.53783">
        <ele>276.6</ele>
        <time>2025-09-11T10:04:00Z</time>
      </trkpt>
      <trkpt lat="45.94478" lon="4.53785">
        <ele>276.8</ele>
        <time>2025-09-11T10:04:01Z</time>
      </trkpt>
      <trkpt lat="45.94476" lon="4.53788">
        <ele>276.8</ele>
        <time>2025-09-11T10:04:02Z</time>
      </trkpt>
      <trkpt lat="45.94474" lon="4.5379">
        <ele>276.8</ele>
        <time>2025-09-11T10:04:03Z</time>
      </trkpt>
      <trkpt lat="45.94472" lon="4.53793">
        <ele>277</ele>
        <time>2025-09-11T10:04:04Z</time>
      </trkpt>
      <trkpt lat="45.94469" lon="4.53795">
        <ele>277</ele>
        <time>2025-09-11T10:04:05Z</time>
      </trkpt>
      <trkpt lat="45.94467" lon="4.53798">
        <ele>277</ele>
        <time>2025-09-11T10:04:06Z</time>
      </trkpt>
      <trkpt lat="45.94465" lon="4.53801">
        <ele>277</ele>
        <time>2025-09-11T10:04:07Z</time>
      </trkpt>
      <trkpt lat="45.94463" lon="4.53804">
        <ele>277</ele>
        <time>2025-09-11T10:04:08Z</time>
      </trkpt>
      <trkpt lat="45.94461" lon="4.53807">
        <ele>277</ele>
        <time>2025-09-11T10:04:09Z</time>
      </trkpt>
      <trkpt lat="45.94459" lon="4.53809">
        <ele>277</ele>
        <time>2025-09-11T10:04:10Z</time>
      </trkpt>
      <trkpt lat="45.94457" lon="4.53812">
        <ele>277</ele>
        <time>2025-09-11T10:04:11Z</time>
      </trkpt>
      <trkpt lat="45.94454" lon="4.53816">
        <ele>277</ele>
        <time>2025-09-11T10:04:12Z</time>
      </trkpt>
      <trkpt lat="45.94452" lon="4.53819">
        <ele>277</ele>
        <time>2025-09-11T10:04:13Z</time>
      </trkpt>
      <trkpt lat="45.94449" lon="4.53823">
        <ele>277</ele>
        <time>2025-09-11T10:04:14Z</time>
      </trkpt>
      <trkpt lat="45.94447" lon="4.53826">
        <ele>277</ele>
        <time>2025-09-11T10:04:15Z</time>
      </trkpt>
      <trkpt lat="45.94444" lon="4.5383">
        <ele>277.4</ele>
        <time>2025-09-11T10:04:16Z</time>
      </trkpt>
      <trkpt lat="45.94442" lon="4.53834">
        <ele>277.4</ele>
        <time>2025-09-11T10:04:17Z</time>
      </trkpt>
      <trkpt lat="45.9444" lon="4.53837">
        <ele>277.4</ele>
        <time>2025-09-11T10:04:18Z</time>
      </trkpt>
      <trkpt lat="45.94437" lon="4.53841">
        <ele>277.4</ele>
        <time>2025-09-11T10:04:19Z</time>
      </trkpt>
      <trkpt lat="45.94435" lon="4.53845">
        <ele>277.4</ele>
        <time>2025-09-11T10:04:20Z</time>
      </trkpt>
      <trkpt lat="45.94433" lon="4.53849">
        <ele>277.6</ele>
        <time>2025-09-11T10:04:21Z</time>
      </trkpt>
      <trkpt lat="45.94431" lon="4.53853">
        <ele>277.6</ele>
        <time>2025-09-11T10:04:22Z</time>
      </trkpt>
      <trkpt lat="45.94429" lon="4.53856">
        <ele>277.6</ele>
        <time>2025-09-11T10:04:23Z</time>
      </trkpt>
      <trkpt lat="45.94427" lon="4.5386">
        <ele>277.6</ele>
        <time>2025-09-11T10:04:24Z</time>
      </trkpt>
      <trkpt lat="45.94425" lon="4.53863">
        <ele>277.6</ele>
        <time>2025-09-11T10:04:25Z</time>
      </trkpt>
      <trkpt lat="45.94421" lon="4.53871">
        <ele>277.6</ele>
        <time>2025-09-11T10:04:26Z</time>
      </trkpt>
      <trkpt lat="45.94419" lon="4.53875">
        <ele>277.6</ele>
        <time>2025-09-11T10:04:27Z</time>
      </trkpt>
      <trkpt lat="45.94416" lon="4.53879">
        <ele>278</ele>
        <time>2025-09-11T10:04:28Z</time>
      </trkpt>
      <trkpt lat="45.94414" lon="4.53884">
        <ele>278</ele>
        <time>2025-09-11T10:04:29Z</time>
      </trkpt>
      <trkpt lat="45.94414" lon="4.53884">
        <ele>278.4</ele>
        <time>2025-09-11T10:04:30Z</time>
      </trkpt>
      <trkpt lat="45.94414" lon="4.53884">
        <ele>278.4</ele>
        <time>2025-09-11T10:04:31Z</time>
      </trkpt>
      <trkpt lat="45.94414" lon="4.53884">
        <ele>278.4</ele>
        <time>2025-09-11T10:04:32Z</time>
      </trkpt>
      <trkpt lat="45.94409" lon="4.53903">
        <ele>278.4</ele>
        <time>2025-09-11T10:04:34Z</time>
      </trkpt>
      <trkpt lat="45.94408" lon="4.53907">
        <ele>278.8</ele>
        <time>2025-09-11T10:04:35Z</time>
      </trkpt>
      <trkpt lat="45.94406" lon="4.53911">
        <ele>279.4</ele>
        <time>2025-09-11T10:04:36Z</time>
      </trkpt>
      <trkpt lat="45.94404" lon="4.53913">
        <ele>279.4</ele>
        <time>2025-09-11T10:04:37Z</time>
      </trkpt>
      <trkpt lat="45.94402" lon="4.53915">
        <ele>279.4</ele>
        <time>2025-09-11T10:04:38Z</time>
      </trkpt>
      <trkpt lat="45.944" lon="4.53917">
        <ele>279.6</ele>
        <time>2025-09-11T10:04:39Z</time>
      </trkpt>
      <trkpt lat="45.94397" lon="4.53919">
        <ele>279.6</ele>
        <time>2025-09-11T10:04:40Z</time>
      </trkpt>
      <trkpt lat="45.94395" lon="4.53921">
        <ele>279.6</ele>
        <time>2025-09-11T10:04:41Z</time>
      </trkpt>
      <trkpt lat="45.94393" lon="4.53923">
        <ele>280</ele>
        <time>2025-09-11T10:04:42Z</time>
      </trkpt>
      <trkpt lat="45.94391" lon="4.53924">
        <ele>279</ele>
        <time>2025-09-11T10:04:43Z</time>
      </trkpt>
      <trkpt lat="45.94389" lon="4.53926">
        <ele>279.6</ele>
        <time>2025-09-11T10:04:44Z</time>
      </trkpt>
      <trkpt lat="45.94388" lon="4.53927">
        <ele>279</ele>
        <time>2025-09-11T10:04:45Z</time>
      </trkpt>
      <trkpt lat="45.94386" lon="4.53929">
        <ele>279.4</ele>
        <time>2025-09-11T10:04:46Z</time>
      </trkpt>
      <trkpt lat="45.94384" lon="4.5393">
        <ele>280</ele>
        <time>2025-09-11T10:04:47Z</time>
      </trkpt>
      <trkpt lat="45.94382" lon="4.53932">
        <ele>280.4</ele>
        <time>2025-09-11T10:04:48Z</time>
      </trkpt>
      <trkpt lat="45.94381" lon="4.53933">
        <ele>280.4</ele>
        <time>2025-09-11T10:04:49Z</time>
      </trkpt>
      <trkpt lat="45.94381" lon="4.53934">
        <ele>280.6</ele>
        <time>2025-09-11T10:04:50Z</time>
      </trkpt>
      <trkpt lat="45.9438" lon="4.53936">
        <ele>281</ele>
        <time>2025-09-11T10:04:51Z</time>
      </trkpt>
      <trkpt lat="45.94379" lon="4.53938">
        <ele>281</ele>
        <time>2025-09-11T10:04:52Z</time>
      </trkpt>
      <trkpt lat="45.94377" lon="4.5394">
        <ele>281.2</ele>
        <time>2025-09-11T10:04:53Z</time>
      </trkpt>
      <trkpt lat="45.94375" lon="4.53941">
        <ele>281.2</ele>
        <time>2025-09-11T10:04:54Z</time>
      </trkpt>
      <trkpt lat="45.94374" lon="4.53942">
        <ele>281.4</ele>
        <time>2025-09-11T10:04:55Z</time>
      </trkpt>
      <trkpt lat="45.94372" lon="4.53943">
        <ele>281.4</ele>
        <time>2025-09-11T10:04:56Z</time>
      </trkpt>
      <trkpt lat="45.94369" lon="4.53945">
        <ele>281.6</ele>
        <time>2025-09-11T10:04:57Z</time>
      </trkpt>
      <trkpt lat="45.94368" lon="4.53947">
        <ele>281.6</ele>
        <time>2025-09-11T10:04:58Z</time>
      </trkpt>
      <trkpt lat="45.94368" lon="4.53947">
        <ele>281.8</ele>
        <time>2025-09-11T10:04:59Z</time>
      </trkpt>
      <trkpt lat="45.94365" lon="4.53949">
        <ele>281.8</ele>
        <time>2025-09-11T10:05:00Z</time>
      </trkpt>
      <trkpt lat="45.94363" lon="4.53951">
        <ele>281.8</ele>
        <time>2025-09-11T10:05:01Z</time>
      </trkpt>
      <trkpt lat="45.94362" lon="4.53952">
        <ele>281.8</ele>
        <time>2025-09-11T10:05:02Z</time>
      </trkpt>
      <trkpt lat="45.94361" lon="4.53953">
        <ele>282.2</ele>
        <time>2025-09-11T10:05:03Z</time>
      </trkpt>
      <trkpt lat="45.94359" lon="4.53954">
        <ele>282.2</ele>
        <time>2025-09-11T10:05:04Z</time>
      </trkpt>
      <trkpt lat="45.94358" lon="4.53955">
        <ele>282.4</ele>
        <time>2025-09-11T10:05:05Z</time>
      </trkpt>
      <trkpt lat="45.94356" lon="4.53957">
        <ele>282.4</ele>
        <time>2025-09-11T10:05:06Z</time>
      </trkpt>
      <trkpt lat="45.94355" lon="4.53958">
        <ele>282.8</ele>
        <time>2025-09-11T10:05:07Z</time>
      </trkpt>
      <trkpt lat="45.94353" lon="4.53959">
        <ele>282.8</ele>
        <time>2025-09-11T10:05:08Z</time>
      </trkpt>
      <trkpt lat="45.94351" lon="4.5396">
        <ele>283</ele>
        <time>2025-09-11T10:05:09Z</time>
      </trkpt>
      <trkpt lat="45.9435" lon="4.53961">
        <ele>283</ele>
        <time>2025-09-11T10:05:10Z</time>
      </trkpt>
      <trkpt lat="45.94348" lon="4.53962">
        <ele>283</ele>
        <time>2025-09-11T10:05:11Z</time>
      </trkpt>
      <trkpt lat="45.94346" lon="4.53963">
        <ele>283.2</ele>
        <time>2025-09-11T10:05:12Z</time>
      </trkpt>
      <trkpt lat="45.94345" lon="4.53964">
        <ele>283.2</ele>
        <time>2025-09-11T10:05:13Z</time>
      </trkpt>
      <trkpt lat="45.94343" lon="4.53965">
        <ele>283.4</ele>
        <time>2025-09-11T10:05:14Z</time>
      </trkpt>
      <trkpt lat="45.94341" lon="4.53966">
        <ele>283.4</ele>
        <time>2025-09-11T10:05:15Z</time>
      </trkpt>
      <trkpt lat="45.9434" lon="4.53967">
        <ele>283.4</ele>
        <time>2025-09-11T10:05:16Z</time>
      </trkpt>
      <trkpt lat="45.94338" lon="4.53968">
        <ele>283.6</ele>
        <time>2025-09-11T10:05:17Z</time>
      </trkpt>
      <trkpt lat="45.94337" lon="4.53969">
        <ele>284</ele>
        <time>2025-09-11T10:05:18Z</time>
      </trkpt>
      <trkpt lat="45.94335" lon="4.53969">
        <ele>284.2</ele>
        <time>2025-09-11T10:05:19Z</time>
      </trkpt>
      <trkpt lat="45.94334" lon="4.53971">
        <ele>284.2</ele>
        <time>2025-09-11T10:05:20Z</time>
      </trkpt>
      <trkpt lat="45.94332" lon="4.53972">
        <ele>284.2</ele>
        <time>2025-09-11T10:05:21Z</time>
      </trkpt>
      <trkpt lat="45.94331" lon="4.53973">
        <ele>284.6</ele>
        <time>2025-09-11T10:05:22Z</time>
      </trkpt>
      <trkpt lat="45.94329" lon="4.53974">
        <ele>284.6</ele>
        <time>2025-09-11T10:05:23Z</time>
      </trkpt>
      <trkpt lat="45.94328" lon="4.53975">
        <ele>284.8</ele>
        <time>2025-09-11T10:05:24Z</time>
      </trkpt>
      <trkpt lat="45.94326" lon="4.53976">
        <ele>284.8</ele>
        <time>2025-09-11T10:05:25Z</time>
      </trkpt>
      <trkpt lat="45.94324" lon="4.53978">
        <ele>285.2</ele>
        <time>2025-09-11T10:05:26Z</time>
      </trkpt>
      <trkpt lat="45.94323" lon="4.53979">
        <ele>285.4</ele>
        <time>2025-09-11T10:05:27Z</time>
      </trkpt>
      <trkpt lat="45.94321" lon="4.5398">
        <ele>285.4</ele>
        <time>2025-09-11T10:05:28Z</time>
      </trkpt>
      <trkpt lat="45.9432" lon="4.53981">
        <ele>285.8</ele>
        <time>2025-09-11T10:05:29Z</time>
      </trkpt>
      <trkpt lat="45.94319" lon="4.53981">
        <ele>286</ele>
        <time>2025-09-11T10:05:30Z</time>
      </trkpt>
      <trkpt lat="45.94318" lon="4.53982">
        <ele>286</ele>
        <time>2025-09-11T10:05:31Z</time>
      </trkpt>
      <trkpt lat="45.94316" lon="4.53983">
        <ele>286</ele>
        <time>2025-09-11T10:05:32Z</time>
      </trkpt>
      <trkpt lat="45.94315" lon="4.53985">
        <ele>286.4</ele>
        <time>2025-09-11T10:05:33Z</time>
      </trkpt>
      <trkpt lat="45.94314" lon="4.53985">
        <ele>286.4</ele>
        <time>2025-09-11T10:05:34Z</time>
      </trkpt>
      <trkpt lat="45.94312" lon="4.53986">
        <ele>286.6</ele>
        <time>2025-09-11T10:05:35Z</time>
      </trkpt>
      <trkpt lat="45.94311" lon="4.53986">
        <ele>286.6</ele>
        <time>2025-09-11T10:05:36Z</time>
      </trkpt>
      <trkpt lat="45.94309" lon="4.53987">
        <ele>286.6</ele>
        <time>2025-09-11T10:05:37Z</time>
      </trkpt>
      <trkpt lat="45.94308" lon="4.53988">
        <ele>286.6</ele>
        <time>2025-09-11T10:05:38Z</time>
      </trkpt>
      <trkpt lat="45.94306" lon="4.53989">
        <ele>287</ele>
        <time>2025-09-11T10:05:39Z</time>
      </trkpt>
      <trkpt lat="45.94305" lon="4.53989">
        <ele>287</ele>
        <time>2025-09-11T10:05:40Z</time>
      </trkpt>
      <trkpt lat="45.94303" lon="4.5399">
        <ele>287</ele>
        <time>2025-09-11T10:05:41Z</time>
      </trkpt>
      <trkpt lat="45.94301" lon="4.53991">
        <ele>287.2</ele>
        <time>2025-09-11T10:05:42Z</time>
      </trkpt>
      <trkpt lat="45.943" lon="4.53992">
        <ele>287.2</ele>
        <time>2025-09-11T10:05:43Z</time>
      </trkpt>
      <trkpt lat="45.94299" lon="4.53992">
        <ele>287.4</ele>
        <time>2025-09-11T10:05:44Z</time>
      </trkpt>
      <trkpt lat="45.94297" lon="4.53993">
        <ele>287.4</ele>
        <time>2025-09-11T10:05:45Z</time>
      </trkpt>
      <trkpt lat="45.94296" lon="4.53994">
        <ele>287.8</ele>
        <time>2025-09-11T10:05:46Z</time>
      </trkpt>
      <trkpt lat="45.94294" lon="4.53994">
        <ele>288</ele>
        <time>2025-09-11T10:05:47Z</time>
      </trkpt>
      <trkpt lat="45.94293" lon="4.53995">
        <ele>288</ele>
        <time>2025-09-11T10:05:48Z</time>
      </trkpt>
      <trkpt lat="45.94291" lon="4.53996">
        <ele>288.4</ele>
        <time>2025-09-11T10:05:49Z</time>
      </trkpt>
      <trkpt lat="45.9429" lon="4.53996">
        <ele>288.4</ele>
        <time>2025-09-11T10:05:50Z</time>
      </trkpt>
      <trkpt lat="45.94288" lon="4.53997">
        <ele>288.4</ele>
        <time>2025-09-11T10:05:51Z</time>
      </trkpt>
      <trkpt lat="45.94286" lon="4.53998">
        <ele>288.6</ele>
        <time>2025-09-11T10:05:52Z</time>
      </trkpt>
      <trkpt lat="45.94285" lon="4.53999">
        <ele>288.6</ele>
        <time>2025-09-11T10:05:53Z</time>
      </trkpt>
      <trkpt lat="45.94283" lon="4.54">
        <ele>289</ele>
        <time>2025-09-11T10:05:54Z</time>
      </trkpt>
      <trkpt lat="45.94282" lon="4.54001">
        <ele>289</ele>
        <time>2025-09-11T10:05:55Z</time>
      </trkpt>
      <trkpt lat="45.9428" lon="4.54003">
        <ele>289</ele>
        <time>2025-09-11T10:05:56Z</time>
      </trkpt>
      <trkpt lat="45.94279" lon="4.54004">
        <ele>289.2</ele>
        <time>2025-09-11T10:05:57Z</time>
      </trkpt>
      <trkpt lat="45.94277" lon="4.54005">
        <ele>289.2</ele>
        <time>2025-09-11T10:05:58Z</time>
      </trkpt>
      <trkpt lat="45.94276" lon="4.54006">
        <ele>289.2</ele>
        <time>2025-09-11T10:05:59Z</time>
      </trkpt>
      <trkpt lat="45.94275" lon="4.54007">
        <ele>289.4</ele>
        <time>2025-09-11T10:06:00Z</time>
      </trkpt>
      <trkpt lat="45.94273" lon="4.54008">
        <ele>289.4</ele>
        <time>2025-09-11T10:06:01Z</time>
      </trkpt>
      <trkpt lat="45.94272" lon="4.54009">
        <ele>289.4</ele>
        <time>2025-09-11T10:06:02Z</time>
      </trkpt>
      <trkpt lat="45.9427" lon="4.54009">
        <ele>289.4</ele>
        <time>2025-09-11T10:06:03Z</time>
      </trkpt>
      <trkpt lat="45.94269" lon="4.5401">
        <ele>289.8</ele>
        <time>2025-09-11T10:06:04Z</time>
      </trkpt>
      <trkpt lat="45.94267" lon="4.5401">
        <ele>289.8</ele>
        <time>2025-09-11T10:06:05Z</time>
      </trkpt>
      <trkpt lat="45.94266" lon="4.54011">
        <ele>290</ele>
        <time>2025-09-11T10:06:06Z</time>
      </trkpt>
      <trkpt lat="45.94265" lon="4.54012">
        <ele>290</ele>
        <time>2025-09-11T10:06:07Z</time>
      </trkpt>
      <trkpt lat="45.94263" lon="4.54012">
        <ele>290.2</ele>
        <time>2025-09-11T10:06:08Z</time>
      </trkpt>
      <trkpt lat="45.94262" lon="4.54013">
        <ele>290.2</ele>
        <time>2025-09-11T10:06:09Z</time>
      </trkpt>
      <trkpt lat="45.9426" lon="4.54013">
        <ele>290.2</ele>
        <time>2025-09-11T10:06:10Z</time>
      </trkpt>
      <trkpt lat="45.94259" lon="4.54014">
        <ele>290.2</ele>
        <time>2025-09-11T10:06:11Z</time>
      </trkpt>
      <trkpt lat="45.94257" lon="4.54015">
        <ele>290.6</ele>
        <time>2025-09-11T10:06:12Z</time>
      </trkpt>
      <trkpt lat="45.94255" lon="4.54015">
        <ele>290.6</ele>
        <time>2025-09-11T10:06:13Z</time>
      </trkpt>
      <trkpt lat="45.94254" lon="4.54016">
        <ele>290.6</ele>
        <time>2025-09-11T10:06:14Z</time>
      </trkpt>
      <trkpt lat="45.94252" lon="4.54016">
        <ele>291.2</ele>
        <time>2025-09-11T10:06:15Z</time>
      </trkpt>
      <trkpt lat="45.94251" lon="4.54017">
        <ele>291.4</ele>
        <time>2025-09-11T10:06:16Z</time>
      </trkpt>
      <trkpt lat="45.94249" lon="4.54017">
        <ele>291.4</ele>
        <time>2025-09-11T10:06:17Z</time>
      </trkpt>
      <trkpt lat="45.94248" lon="4.54018">
        <ele>291.4</ele>
        <time>2025-09-11T10:06:18Z</time>
      </trkpt>
      <trkpt lat="45.94247" lon="4.54018">
        <ele>291.8</ele>
        <time>2025-09-11T10:06:19Z</time>
      </trkpt>
      <trkpt lat="45.94245" lon="4.54019">
        <ele>291.8</ele>
        <time>2025-09-11T10:06:20Z</time>
      </trkpt>
      <trkpt lat="45.94244" lon="4.5402">
        <ele>292</ele>
        <time>2025-09-11T10:06:21Z</time>
      </trkpt>
      <trkpt lat="45.94242" lon="4.54021">
        <ele>292.2</ele>
        <time>2025-09-11T10:06:22Z</time>
      </trkpt>
      <trkpt lat="45.94241" lon="4.54022">
        <ele>292.2</ele>
        <time>2025-09-11T10:06:23Z</time>
      </trkpt>
      <trkpt lat="45.94239" lon="4.54023">
        <ele>292.2</ele>
        <time>2025-09-11T10:06:24Z</time>
      </trkpt>
      <trkpt lat="45.94238" lon="4.54024">
        <ele>292.6</ele>
        <time>2025-09-11T10:06:25Z</time>
      </trkpt>
      <trkpt lat="45.94237" lon="4.54026">
        <ele>292.6</ele>
        <time>2025-09-11T10:06:26Z</time>
      </trkpt>
      <trkpt lat="45.94235" lon="4.54027">
        <ele>292.6</ele>
        <time>2025-09-11T10:06:27Z</time>
      </trkpt>
      <trkpt lat="45.94234" lon="4.54027">
        <ele>292.8</ele>
        <time>2025-09-11T10:06:28Z</time>
      </trkpt>
      <trkpt lat="45.94232" lon="4.54028">
        <ele>293</ele>
        <time>2025-09-11T10:06:29Z</time>
      </trkpt>
      <trkpt lat="45.94231" lon="4.5403">
        <ele>293</ele>
        <time>2025-09-11T10:06:30Z</time>
      </trkpt>
      <trkpt lat="45.9423" lon="4.54031">
        <ele>293</ele>
        <time>2025-09-11T10:06:31Z</time>
      </trkpt>
      <trkpt lat="45.94229" lon="4.54032">
        <ele>293</ele>
        <time>2025-09-11T10:06:32Z</time>
      </trkpt>
      <trkpt lat="45.94228" lon="4.54034">
        <ele>293.4</ele>
        <time>2025-09-11T10:06:33Z</time>
      </trkpt>
      <trkpt lat="45.94227" lon="4.54035">
        <ele>293.6</ele>
        <time>2025-09-11T10:06:34Z</time>
      </trkpt>
      <trkpt lat="45.94226" lon="4.54037">
        <ele>293.8</ele>
        <time>2025-09-11T10:06:35Z</time>
      </trkpt>
      <trkpt lat="45.94225" lon="4.5404">
        <ele>293.8</ele>
        <time>2025-09-11T10:06:36Z</time>
      </trkpt>
      <trkpt lat="45.94225" lon="4.54042">
        <ele>293.8</ele>
        <time>2025-09-11T10:06:37Z</time>
      </trkpt>
      <trkpt lat="45.94224" lon="4.54044">
        <ele>293.8</ele>
        <time>2025-09-11T10:06:38Z</time>
      </trkpt>
      <trkpt lat="45.94223" lon="4.54047">
        <ele>293.8</ele>
        <time>2025-09-11T10:06:39Z</time>
      </trkpt>
      <trkpt lat="45.94222" lon="4.54049">
        <ele>294</ele>
        <time>2025-09-11T10:06:40Z</time>
      </trkpt>
      <trkpt lat="45.94222" lon="4.54052">
        <ele>294</ele>
        <time>2025-09-11T10:06:41Z</time>
      </trkpt>
      <trkpt lat="45.94221" lon="4.54055">
        <ele>294.2</ele>
        <time>2025-09-11T10:06:42Z</time>
      </trkpt>
      <trkpt lat="45.94221" lon="4.54058">
        <ele>294</ele>
        <time>2025-09-11T10:06:43Z</time>
      </trkpt>
      <trkpt lat="45.94221" lon="4.5406">
        <ele>294.4</ele>
        <time>2025-09-11T10:06:44Z</time>
      </trkpt>
      <trkpt lat="45.9422" lon="4.54063">
        <ele>294.6</ele>
        <time>2025-09-11T10:06:45Z</time>
      </trkpt>
      <trkpt lat="45.9422" lon="4.54066">
        <ele>294.6</ele>
        <time>2025-09-11T10:06:46Z</time>
      </trkpt>
      <trkpt lat="45.9422" lon="4.54069">
        <ele>294.8</ele>
        <time>2025-09-11T10:06:47Z</time>
      </trkpt>
      <trkpt lat="45.94221" lon="4.54072">
        <ele>294.8</ele>
        <time>2025-09-11T10:06:48Z</time>
      </trkpt>
      <trkpt lat="45.94221" lon="4.54074">
        <ele>294.8</ele>
        <time>2025-09-11T10:06:49Z</time>
      </trkpt>
      <trkpt lat="45.94221" lon="4.54076">
        <ele>295.2</ele>
        <time>2025-09-11T10:06:50Z</time>
      </trkpt>
      <trkpt lat="45.94221" lon="4.54079">
        <ele>295.4</ele>
        <time>2025-09-11T10:06:51Z</time>
      </trkpt>
      <trkpt lat="45.94222" lon="4.54082">
        <ele>295.4</ele>
        <time>2025-09-11T10:06:52Z</time>
      </trkpt>
      <trkpt lat="45.94223" lon="4.54085">
        <ele>295.4</ele>
        <time>2025-09-11T10:06:53Z</time>
      </trkpt>
      <trkpt lat="45.94223" lon="4.54087">
        <ele>295.4</ele>
        <time>2025-09-11T10:06:54Z</time>
      </trkpt>
      <trkpt lat="45.94224" lon="4.5409">
        <ele>295.4</ele>
        <time>2025-09-11T10:06:55Z</time>
      </trkpt>
      <trkpt lat="45.94224" lon="4.54092">
        <ele>296</ele>
        <time>2025-09-11T10:06:56Z</time>
      </trkpt>
      <trkpt lat="45.94225" lon="4.54094">
        <ele>296.2</ele>
        <time>2025-09-11T10:06:57Z</time>
      </trkpt>
      <trkpt lat="45.94226" lon="4.54096">
        <ele>296.2</ele>
        <time>2025-09-11T10:06:58Z</time>
      </trkpt>
      <trkpt lat="45.94227" lon="4.54098">
        <ele>296.2</ele>
        <time>2025-09-11T10:06:59Z</time>
      </trkpt>
      <trkpt lat="45.94229" lon="4.541">
        <ele>296.2</ele>
        <time>2025-09-11T10:07:00Z</time>
      </trkpt>
      <trkpt lat="45.9423" lon="4.54101">
        <ele>296.2</ele>
        <time>2025-09-11T10:07:01Z</time>
      </trkpt>
      <trkpt lat="45.94231" lon="4.54103">
        <ele>296</ele>
        <time>2025-09-11T10:07:02Z</time>
      </trkpt>
      <trkpt lat="45.94233" lon="4.54104">
        <ele>296</ele>
        <time>2025-09-11T10:07:03Z</time>
      </trkpt>
      <trkpt lat="45.94234" lon="4.54106">
        <ele>296</ele>
        <time>2025-09-11T10:07:04Z</time>
      </trkpt>
      <trkpt lat="45.94236" lon="4.54107">
        <ele>296</ele>
        <time>2025-09-11T10:07:05Z</time>
      </trkpt>
      <trkpt lat="45.94237" lon="4.54108">
        <ele>296</ele>
        <time>2025-09-11T10:07:06Z</time>
      </trkpt>
      <trkpt lat="45.94239" lon="4.54108">
        <ele>296</ele>
        <time>2025-09-11T10:07:07Z</time>
      </trkpt>
      <trkpt lat="45.9424" lon="4.54109">
        <ele>296.2</ele>
        <time>2025-09-11T10:07:08Z</time>
      </trkpt>
      <trkpt lat="45.94242" lon="4.5411">
        <ele>295.6</ele>
        <time>2025-09-11T10:07:09Z</time>
      </trkpt>
      <trkpt lat="45.94244" lon="4.5411">
        <ele>296.2</ele>
        <time>2025-09-11T10:07:10Z</time>
      </trkpt>
      <trkpt lat="45.94246" lon="4.54111">
        <ele>297.4</ele>
        <time>2025-09-11T10:07:11Z</time>
      </trkpt>
      <trkpt lat="45.94248" lon="4.54111">
        <ele>297.4</ele>
        <time>2025-09-11T10:07:12Z</time>
      </trkpt>
      <trkpt lat="45.9425" lon="4.54111">
        <ele>297.4</ele>
        <time>2025-09-11T10:07:13Z</time>
      </trkpt>
      <trkpt lat="45.94252" lon="4.54111">
        <ele>297.6</ele>
        <time>2025-09-11T10:07:14Z</time>
      </trkpt>
      <trkpt lat="45.94254" lon="4.54111">
        <ele>297.6</ele>
        <time>2025-09-11T10:07:15Z</time>
      </trkpt>
      <trkpt lat="45.94256" lon="4.54111">
        <ele>297.6</ele>
        <time>2025-09-11T10:07:16Z</time>
      </trkpt>
      <trkpt lat="45.94257" lon="4.54111">
        <ele>297.4</ele>
        <time>2025-09-11T10:07:17Z</time>
      </trkpt>
      <trkpt lat="45.94259" lon="4.54112">
        <ele>297.8</ele>
        <time>2025-09-11T10:07:18Z</time>
      </trkpt>
      <trkpt lat="45.94261" lon="4.54112">
        <ele>297.8</ele>
        <time>2025-09-11T10:07:19Z</time>
      </trkpt>
      <trkpt lat="45.94262" lon="4.54111">
        <ele>298</ele>
        <time>2025-09-11T10:07:20Z</time>
      </trkpt>
      <trkpt lat="45.94262" lon="4.54111">
        <ele>298</ele>
        <time>2025-09-11T10:07:21Z</time>
      </trkpt>
      <trkpt lat="45.94262" lon="4.54111">
        <ele>298</ele>
        <time>2025-09-11T10:07:22Z</time>
      </trkpt>
      <trkpt lat="45.94262" lon="4.54106">
        <ele>298.8</ele>
        <time>2025-09-11T10:10:17Z</time>
      </trkpt>
      <trkpt lat="45.94263" lon="4.54105">
        <ele>298.8</ele>
        <time>2025-09-11T10:10:18Z</time>
      </trkpt>
      <trkpt lat="45.94264" lon="4.54105">
        <ele>298.8</ele>
        <time>2025-09-11T10:10:19Z</time>
      </trkpt>
      <trkpt lat="45.94266" lon="4.54104">
        <ele>298.8</ele>
        <time>2025-09-11T10:10:20Z</time>
      </trkpt>
      <trkpt lat="45.94269" lon="4.54103">
        <ele>298.8</ele>
        <time>2025-09-11T10:10:21Z</time>
      </trkpt>
      <trkpt lat="45.94271" lon="4.54103">
        <ele>299</ele>
        <time>2025-09-11T10:10:22Z</time>
      </trkpt>
      <trkpt lat="45.94274" lon="4.54103">
        <ele>299</ele>
        <time>2025-09-11T10:10:23Z</time>
      </trkpt>
      <trkpt lat="45.94276" lon="4.54102">
        <ele>299</ele>
        <time>2025-09-11T10:10:24Z</time>
      </trkpt>
      <trkpt lat="45.94279" lon="4.54102">
        <ele>299</ele>
        <time>2025-09-11T10:10:25Z</time>
      </trkpt>
      <trkpt lat="45.94281" lon="4.54102">
        <ele>299.2</ele>
        <time>2025-09-11T10:10:26Z</time>
      </trkpt>
      <trkpt lat="45.94283" lon="4.54102">
        <ele>299.2</ele>
        <time>2025-09-11T10:10:27Z</time>
      </trkpt>
      <trkpt lat="45.94286" lon="4.54101">
        <ele>299.2</ele>
        <time>2025-09-11T10:10:28Z</time>
      </trkpt>
      <trkpt lat="45.94288" lon="4.54101">
        <ele>299.6</ele>
        <time>2025-09-11T10:10:29Z</time>
      </trkpt>
      <trkpt lat="45.9429" lon="4.54101">
        <ele>299.6</ele>
        <time>2025-09-11T10:10:30Z</time>
      </trkpt>
      <trkpt lat="45.94293" lon="4.541">
        <ele>299.6</ele>
        <time>2025-09-11T10:10:31Z</time>
      </trkpt>
      <trkpt lat="45.94295" lon="4.541">
        <ele>299.8</ele>
        <time>2025-09-11T10:10:32Z</time>
      </trkpt>
      <trkpt lat="45.94297" lon="4.54099">
        <ele>299.8</ele>
        <time>2025-09-11T10:10:33Z</time>
      </trkpt>
      <trkpt lat="45.94299" lon="4.54099">
        <ele>300.2</ele>
        <time>2025-09-11T10:10:34Z</time>
      </trkpt>
      <trkpt lat="45.94301" lon="4.54098">
        <ele>300.2</ele>
        <time>2025-09-11T10:10:35Z</time>
      </trkpt>
      <trkpt lat="45.94303" lon="4.54098">
        <ele>300.4</ele>
        <time>2025-09-11T10:10:36Z</time>
      </trkpt>
      <trkpt lat="45.94305" lon="4.54098">
        <ele>300.4</ele>
        <time>2025-09-11T10:10:37Z</time>
      </trkpt>
      <trkpt lat="45.94307" lon="4.54098">
        <ele>300.4</ele>
        <time>2025-09-11T10:10:38Z</time>
      </trkpt>
      <trkpt lat="45.94309" lon="4.54097">
        <ele>300.6</ele>
        <time>2025-09-11T10:10:39Z</time>
      </trkpt>
      <trkpt lat="45.9431" lon="4.54097">
        <ele>300.6</ele>
        <time>2025-09-11T10:10:40Z</time>
      </trkpt>
      <trkpt lat="45.94312" lon="4.54097">
        <ele>301</ele>
        <time>2025-09-11T10:10:41Z</time>
      </trkpt>
      <trkpt lat="45.94314" lon="4.54096">
        <ele>301</ele>
        <time>2025-09-11T10:10:42Z</time>
      </trkpt>
      <trkpt lat="45.94317" lon="4.54096">
        <ele>301</ele>
        <time>2025-09-11T10:10:43Z</time>
      </trkpt>
      <trkpt lat="45.94319" lon="4.54095">
        <ele>301.2</ele>
        <time>2025-09-11T10:10:44Z</time>
      </trkpt>
      <trkpt lat="45.94321" lon="4.54095">
        <ele>301.2</ele>
        <time>2025-09-11T10:10:45Z</time>
      </trkpt>
      <trkpt lat="45.94323" lon="4.54094">
        <ele>301.4</ele>
        <time>2025-09-11T10:10:46Z</time>
      </trkpt>
      <trkpt lat="45.94325" lon="4.54094">
        <ele>301.6</ele>
        <time>2025-09-11T10:10:47Z</time>
      </trkpt>
      <trkpt lat="45.94326" lon="4.54094">
        <ele>301.6</ele>
        <time>2025-09-11T10:10:48Z</time>
      </trkpt>
      <trkpt lat="45.94328" lon="4.54093">
        <ele>302</ele>
        <time>2025-09-11T10:10:49Z</time>
      </trkpt>
      <trkpt lat="45.9433" lon="4.54093">
        <ele>302</ele>
        <time>2025-09-11T10:10:50Z</time>
      </trkpt>
      <trkpt lat="45.94332" lon="4.54092">
        <ele>303.2</ele>
        <time>2025-09-11T10:10:51Z</time>
      </trkpt>
      <trkpt lat="45.94334" lon="4.54092">
        <ele>303.2</ele>
        <time>2025-09-11T10:10:52Z</time>
      </trkpt>
      <trkpt lat="45.94335" lon="4.54092">
        <ele>303.2</ele>
        <time>2025-09-11T10:10:53Z</time>
      </trkpt>
      <trkpt lat="45.94337" lon="4.54092">
        <ele>303.2</ele>
        <time>2025-09-11T10:10:54Z</time>
      </trkpt>
      <trkpt lat="45.94339" lon="4.54091">
        <ele>303.2</ele>
        <time>2025-09-11T10:10:55Z</time>
      </trkpt>
      <trkpt lat="45.94341" lon="4.54091">
        <ele>303.2</ele>
        <time>2025-09-11T10:10:56Z</time>
      </trkpt>
      <trkpt lat="45.94342" lon="4.54091">
        <ele>303.2</ele>
        <time>2025-09-11T10:10:57Z</time>
      </trkpt>
      <trkpt lat="45.94344" lon="4.5409">
        <ele>303.4</ele>
        <time>2025-09-11T10:10:58Z</time>
      </trkpt>
      <trkpt lat="45.94345" lon="4.54089">
        <ele>303.4</ele>
        <time>2025-09-11T10:10:59Z</time>
      </trkpt>
      <trkpt lat="45.94347" lon="4.54089">
        <ele>303.4</ele>
        <time>2025-09-11T10:11:00Z</time>
      </trkpt>
      <trkpt lat="45.94349" lon="4.54089">
        <ele>303.4</ele>
        <time>2025-09-11T10:11:01Z</time>
      </trkpt>
      <trkpt lat="45.9435" lon="4.54089">
        <ele>303.4</ele>
        <time>2025-09-11T10:11:02Z</time>
      </trkpt>
      <trkpt lat="45.94352" lon="4.54089">
        <ele>303.6</ele>
        <time>2025-09-11T10:11:03Z</time>
      </trkpt>
      <trkpt lat="45.94354" lon="4.54089">
        <ele>303.8</ele>
        <time>2025-09-11T10:11:04Z</time>
      </trkpt>
      <trkpt lat="45.94356" lon="4.54088">
        <ele>304</ele>
        <time>2025-09-11T10:11:05Z</time>
      </trkpt>
      <trkpt lat="45.94357" lon="4.54088">
        <ele>304</ele>
        <time>2025-09-11T10:11:06Z</time>
      </trkpt>
      <trkpt lat="45.94359" lon="4.54087">
        <ele>304</ele>
        <time>2025-09-11T10:11:07Z</time>
      </trkpt>
      <trkpt lat="45.94361" lon="4.54087">
        <ele>304.4</ele>
        <time>2025-09-11T10:11:08Z</time>
      </trkpt>
      <trkpt lat="45.94363" lon="4.54086">
        <ele>304.6</ele>
        <time>2025-09-11T10:11:09Z</time>
      </trkpt>
      <trkpt lat="45.94365" lon="4.54085">
        <ele>304.8</ele>
        <time>2025-09-11T10:11:10Z</time>
      </trkpt>
      <trkpt lat="45.94366" lon="4.54084">
        <ele>304.8</ele>
        <time>2025-09-11T10:11:11Z</time>
      </trkpt>
      <trkpt lat="45.94368" lon="4.54084">
        <ele>305.2</ele>
        <time>2025-09-11T10:11:12Z</time>
      </trkpt>
      <trkpt lat="45.9437" lon="4.54083">
        <ele>305.2</ele>
        <time>2025-09-11T10:11:13Z</time>
      </trkpt>
      <trkpt lat="45.94371" lon="4.54082">
        <ele>305.6</ele>
        <time>2025-09-11T10:11:14Z</time>
      </trkpt>
      <trkpt lat="45.94373" lon="4.54081">
        <ele>305.6</ele>
        <time>2025-09-11T10:11:15Z</time>
      </trkpt>
      <trkpt lat="45.94375" lon="4.5408">
        <ele>305.8</ele>
        <time>2025-09-11T10:11:16Z</time>
      </trkpt>
      <trkpt lat="45.94377" lon="4.5408">
        <ele>305.8</ele>
        <time>2025-09-11T10:11:17Z</time>
      </trkpt>
      <trkpt lat="45.94378" lon="4.54079">
        <ele>306.2</ele>
        <time>2025-09-11T10:11:18Z</time>
      </trkpt>
      <trkpt lat="45.9438" lon="4.54079">
        <ele>306.2</ele>
        <time>2025-09-11T10:11:19Z</time>
      </trkpt>
      <trkpt lat="45.94382" lon="4.54078">
        <ele>306.4</ele>
        <time>2025-09-11T10:11:20Z</time>
      </trkpt>
      <trkpt lat="45.94383" lon="4.54077">
        <ele>306.4</ele>
        <time>2025-09-11T10:11:21Z</time>
      </trkpt>
      <trkpt lat="45.94385" lon="4.54076">
        <ele>306.4</ele>
        <time>2025-09-11T10:11:22Z</time>
      </trkpt>
      <trkpt lat="45.94387" lon="4.54076">
        <ele>306.8</ele>
        <time>2025-09-11T10:11:23Z</time>
      </trkpt>
      <trkpt lat="45.94389" lon="4.54075">
        <ele>306.8</ele>
        <time>2025-09-11T10:11:24Z</time>
      </trkpt>
      <trkpt lat="45.94391" lon="4.54074">
        <ele>307</ele>
        <time>2025-09-11T10:11:25Z</time>
      </trkpt>
      <trkpt lat="45.94392" lon="4.54073">
        <ele>307</ele>
        <time>2025-09-11T10:11:26Z</time>
      </trkpt>
      <trkpt lat="45.94394" lon="4.54072">
        <ele>307</ele>
        <time>2025-09-11T10:11:27Z</time>
      </trkpt>
      <trkpt lat="45.94396" lon="4.54071">
        <ele>307.4</ele>
        <time>2025-09-11T10:11:28Z</time>
      </trkpt>
      <trkpt lat="45.94398" lon="4.5407">
        <ele>307.4</ele>
        <time>2025-09-11T10:11:29Z</time>
      </trkpt>
      <trkpt lat="45.944" lon="4.54069">
        <ele>307.6</ele>
        <time>2025-09-11T10:11:30Z</time>
      </trkpt>
      <trkpt lat="45.94401" lon="4.54069">
        <ele>307.6</ele>
        <time>2025-09-11T10:11:31Z</time>
      </trkpt>
      <trkpt lat="45.94403" lon="4.54068">
        <ele>307.8</ele>
        <time>2025-09-11T10:11:32Z</time>
      </trkpt>
      <trkpt lat="45.94405" lon="4.54067">
        <ele>307.8</ele>
        <time>2025-09-11T10:11:33Z</time>
      </trkpt>
      <trkpt lat="45.94406" lon="4.54067">
        <ele>308.2</ele>
        <time>2025-09-11T10:11:34Z</time>
      </trkpt>
      <trkpt lat="45.94408" lon="4.54066">
        <ele>308.4</ele>
        <time>2025-09-11T10:11:35Z</time>
      </trkpt>
      <trkpt lat="45.9441" lon="4.54065">
        <ele>308.4</ele>
        <time>2025-09-11T10:11:36Z</time>
      </trkpt>
      <trkpt lat="45.94412" lon="4.54065">
        <ele>308.4</ele>
        <time>2025-09-11T10:11:37Z</time>
      </trkpt>
      <trkpt lat="45.94414" lon="4.54064">
        <ele>308.4</ele>
        <time>2025-09-11T10:11:38Z</time>
      </trkpt>
      <trkpt lat="45.94416" lon="4.54063">
        <ele>308.6</ele>
        <time>2025-09-11T10:11:39Z</time>
      </trkpt>
      <trkpt lat="45.94418" lon="4.54062">
        <ele>308.6</ele>
        <time>2025-09-11T10:11:40Z</time>
      </trkpt>
      <trkpt lat="45.94419" lon="4.54061">
        <ele>308.6</ele>
        <time>2025-09-11T10:11:41Z</time>
      </trkpt>
      <trkpt lat="45.94421" lon="4.54061">
        <ele>309.2</ele>
        <time>2025-09-11T10:11:42Z</time>
      </trkpt>
      <trkpt lat="45.94423" lon="4.5406">
        <ele>309.2</ele>
        <time>2025-09-11T10:11:43Z</time>
      </trkpt>
      <trkpt lat="45.94425" lon="4.5406">
        <ele>309.2</ele>
        <time>2025-09-11T10:11:44Z</time>
      </trkpt>
      <trkpt lat="45.94427" lon="4.54059">
        <ele>309.4</ele>
        <time>2025-09-11T10:11:45Z</time>
      </trkpt>
      <trkpt lat="45.94429" lon="4.54059">
        <ele>309.4</ele>
        <time>2025-09-11T10:11:46Z</time>
      </trkpt>
      <trkpt lat="45.94431" lon="4.54058">
        <ele>309.4</ele>
        <time>2025-09-11T10:11:47Z</time>
      </trkpt>
      <trkpt lat="45.94432" lon="4.54057">
        <ele>309.8</ele>
        <time>2025-09-11T10:11:48Z</time>
      </trkpt>
      <trkpt lat="45.94434" lon="4.54057">
        <ele>309.8</ele>
        <time>2025-09-11T10:11:49Z</time>
      </trkpt>
      <trkpt lat="45.94436" lon="4.54056">
        <ele>310</ele>
        <time>2025-09-11T10:11:50Z</time>
      </trkpt>
      <trkpt lat="45.94438" lon="4.54056">
        <ele>310</ele>
        <time>2025-09-11T10:11:51Z</time>
      </trkpt>
      <trkpt lat="45.9444" lon="4.54056">
        <ele>310</ele>
        <time>2025-09-11T10:11:52Z</time>
      </trkpt>
      <trkpt lat="45.94442" lon="4.54056">
        <ele>310.2</ele>
        <time>2025-09-11T10:11:53Z</time>
      </trkpt>
      <trkpt lat="45.94444" lon="4.54055">
        <ele>310.2</ele>
        <time>2025-09-11T10:11:54Z</time>
      </trkpt>
      <trkpt lat="45.94446" lon="4.54055">
        <ele>310.4</ele>
        <time>2025-09-11T10:11:55Z</time>
      </trkpt>
      <trkpt lat="45.94448" lon="4.54054">
        <ele>310.4</ele>
        <time>2025-09-11T10:11:56Z</time>
      </trkpt>
      <trkpt lat="45.9445" lon="4.54054">
        <ele>310.4</ele>
        <time>2025-09-11T10:11:57Z</time>
      </trkpt>
      <trkpt lat="45.94452" lon="4.54054">
        <ele>310.4</ele>
        <time>2025-09-11T10:11:58Z</time>
      </trkpt>
      <trkpt lat="45.94454" lon="4.54054">
        <ele>310.6</ele>
        <time>2025-09-11T10:11:59Z</time>
      </trkpt>
      <trkpt lat="45.94457" lon="4.54054">
        <ele>310.6</ele>
        <time>2025-09-11T10:12:00Z</time>
      </trkpt>
      <trkpt lat="45.94459" lon="4.54055">
        <ele>310.6</ele>
        <time>2025-09-11T10:12:01Z</time>
      </trkpt>
      <trkpt lat="45.9446" lon="4.54055">
        <ele>311</ele>
        <time>2025-09-11T10:12:02Z</time>
      </trkpt>
      <trkpt lat="45.94462" lon="4.54054">
        <ele>311.2</ele>
        <time>2025-09-11T10:12:03Z</time>
      </trkpt>
      <trkpt lat="45.94464" lon="4.54054">
        <ele>311.2</ele>
        <time>2025-09-11T10:12:04Z</time>
      </trkpt>
      <trkpt lat="45.94466" lon="4.54053">
        <ele>311.6</ele>
        <time>2025-09-11T10:12:05Z</time>
      </trkpt>
      <trkpt lat="45.94468" lon="4.54053">
        <ele>311.6</ele>
        <time>2025-09-11T10:12:06Z</time>
      </trkpt>
      <trkpt lat="45.9447" lon="4.54053">
        <ele>311.8</ele>
        <time>2025-09-11T10:12:07Z</time>
      </trkpt>
      <trkpt lat="45.94472" lon="4.54054">
        <ele>311.8</ele>
        <time>2025-09-11T10:12:08Z</time>
      </trkpt>
      <trkpt lat="45.94474" lon="4.54054">
        <ele>312.2</ele>
        <time>2025-09-11T10:12:09Z</time>
      </trkpt>
      <trkpt lat="45.94475" lon="4.54054">
        <ele>312.2</ele>
        <time>2025-09-11T10:12:10Z</time>
      </trkpt>
      <trkpt lat="45.94477" lon="4.54055">
        <ele>312.2</ele>
        <time>2025-09-11T10:12:11Z</time>
      </trkpt>
      <trkpt lat="45.94479" lon="4.54055">
        <ele>312.4</ele>
        <time>2025-09-11T10:12:12Z</time>
      </trkpt>
      <trkpt lat="45.9448" lon="4.54055">
        <ele>312.4</ele>
        <time>2025-09-11T10:12:13Z</time>
      </trkpt>
      <trkpt lat="45.94482" lon="4.54056">
        <ele>312.8</ele>
        <time>2025-09-11T10:12:14Z</time>
      </trkpt>
      <trkpt lat="45.94484" lon="4.54056">
        <ele>312.8</ele>
        <time>2025-09-11T10:12:15Z</time>
      </trkpt>
      <trkpt lat="45.94485" lon="4.54057">
        <ele>313.2</ele>
        <time>2025-09-11T10:12:16Z</time>
      </trkpt>
      <trkpt lat="45.94486" lon="4.54057">
        <ele>313.2</ele>
        <time>2025-09-11T10:12:17Z</time>
      </trkpt>
      <trkpt lat="45.94488" lon="4.54058">
        <ele>313.4</ele>
        <time>2025-09-11T10:12:18Z</time>
      </trkpt>
      <trkpt lat="45.9449" lon="4.54058">
        <ele>313.4</ele>
        <time>2025-09-11T10:12:19Z</time>
      </trkpt>
      <trkpt lat="45.94491" lon="4.54058">
        <ele>313.4</ele>
        <time>2025-09-11T10:12:20Z</time>
      </trkpt>
      <trkpt lat="45.94493" lon="4.54058">
        <ele>313.4</ele>
        <time>2025-09-11T10:12:21Z</time>
      </trkpt>
      <trkpt lat="45.94495" lon="4.54058">
        <ele>313.6</ele>
        <time>2025-09-11T10:12:22Z</time>
      </trkpt>
      <trkpt lat="45.94496" lon="4.54058">
        <ele>313.6</ele>
        <time>2025-09-11T10:12:23Z</time>
      </trkpt>
      <trkpt lat="45.94498" lon="4.54059">
        <ele>313.8</ele>
        <time>2025-09-11T10:12:24Z</time>
      </trkpt>
      <trkpt lat="45.945" lon="4.54059">
        <ele>313.8</ele>
        <time>2025-09-11T10:12:25Z</time>
      </trkpt>
      <trkpt lat="45.94501" lon="4.54059">
        <ele>313.8</ele>
        <time>2025-09-11T10:12:26Z</time>
      </trkpt>
      <trkpt lat="45.94503" lon="4.5406">
        <ele>314</ele>
        <time>2025-09-11T10:12:27Z</time>
      </trkpt>
      <trkpt lat="45.94505" lon="4.54061">
        <ele>314</ele>
        <time>2025-09-11T10:12:28Z</time>
      </trkpt>
      <trkpt lat="45.94507" lon="4.54061">
        <ele>314</ele>
        <time>2025-09-11T10:12:29Z</time>
      </trkpt>
      <trkpt lat="45.94508" lon="4.54062">
        <ele>314.2</ele>
        <time>2025-09-11T10:12:30Z</time>
      </trkpt>
      <trkpt lat="45.9451" lon="4.54062">
        <ele>314.6</ele>
        <time>2025-09-11T10:12:31Z</time>
      </trkpt>
      <trkpt lat="45.94511" lon="4.54063">
        <ele>314.6</ele>
        <time>2025-09-11T10:12:32Z</time>
      </trkpt>
      <trkpt lat="45.94513" lon="4.54064">
        <ele>314.8</ele>
        <time>2025-09-11T10:12:33Z</time>
      </trkpt>
      <trkpt lat="45.94514" lon="4.54065">
        <ele>314.8</ele>
        <time>2025-09-11T10:12:34Z</time>
      </trkpt>
      <trkpt lat="45.94516" lon="4.54065">
        <ele>314.8</ele>
        <time>2025-09-11T10:12:35Z</time>
      </trkpt>
      <trkpt lat="45.94517" lon="4.54064">
        <ele>315.2</ele>
        <time>2025-09-11T10:12:36Z</time>
      </trkpt>
      <trkpt lat="45.94518" lon="4.54062">
        <ele>315.2</ele>
        <time>2025-09-11T10:12:37Z</time>
      </trkpt>
      <trkpt lat="45.94518" lon="4.54061">
        <ele>315.2</ele>
        <time>2025-09-11T10:12:38Z</time>
      </trkpt>
      <trkpt lat="45.94519" lon="4.54059">
        <ele>315</ele>
        <time>2025-09-11T10:12:39Z</time>
      </trkpt>
      <trkpt lat="45.9452" lon="4.54057">
        <ele>315</ele>
        <time>2025-09-11T10:12:40Z</time>
      </trkpt>
      <trkpt lat="45.94521" lon="4.54056">
        <ele>315</ele>
        <time>2025-09-11T10:12:41Z</time>
      </trkpt>
      <trkpt lat="45.94521" lon="4.54056">
        <ele>315</ele>
        <time>2025-09-11T10:12:42Z</time>
      </trkpt>
      <trkpt lat="45.94521" lon="4.54056">
        <ele>315</ele>
        <time>2025-09-11T10:12:43Z</time>
      </trkpt>
      <trkpt lat="45.94531" lon="4.54074">
        <ele>314.8</ele>
        <time>2025-09-11T10:19:16Z</time>
      </trkpt>
      <trkpt lat="45.94533" lon="4.54074">
        <ele>314.8</ele>
        <time>2025-09-11T10:19:17Z</time>
      </trkpt>
      <trkpt lat="45.94535" lon="4.54074">
        <ele>314.8</ele>
        <time>2025-09-11T10:19:18Z</time>
      </trkpt>
      <trkpt lat="45.94537" lon="4.54074">
        <ele>315.2</ele>
        <time>2025-09-11T10:19:19Z</time>
      </trkpt>
      <trkpt lat="45.94538" lon="4.54075">
        <ele>315.2</ele>
        <time>2025-09-11T10:19:20Z</time>
      </trkpt>
      <trkpt lat="45.9454" lon="4.54076">
        <ele>315.2</ele>
        <time>2025-09-11T10:19:21Z</time>
      </trkpt>
      <trkpt lat="45.94542" lon="4.54077">
        <ele>315.4</ele>
        <time>2025-09-11T10:19:22Z</time>
      </trkpt>
      <trkpt lat="45.94544" lon="4.54078">
        <ele>315.4</ele>
        <time>2025-09-11T10:19:23Z</time>
      </trkpt>
      <trkpt lat="45.94545" lon="4.54078">
        <ele>315.4</ele>
        <time>2025-09-11T10:19:24Z</time>
      </trkpt>
      <trkpt lat="45.94547" lon="4.54079">
        <ele>315.8</ele>
        <time>2025-09-11T10:19:25Z</time>
      </trkpt>
      <trkpt lat="45.94549" lon="4.5408">
        <ele>316.2</ele>
        <time>2025-09-11T10:19:26Z</time>
      </trkpt>
      <trkpt lat="45.94551" lon="4.54081">
        <ele>316.2</ele>
        <time>2025-09-11T10:19:27Z</time>
      </trkpt>
      <trkpt lat="45.94553" lon="4.54082">
        <ele>316.6</ele>
        <time>2025-09-11T10:19:28Z</time>
      </trkpt>
      <trkpt lat="45.94554" lon="4.54083">
        <ele>316.8</ele>
        <time>2025-09-11T10:19:29Z</time>
      </trkpt>
      <trkpt lat="45.94556" lon="4.54084">
        <ele>317</ele>
        <time>2025-09-11T10:19:30Z</time>
      </trkpt>
      <trkpt lat="45.94558" lon="4.54085">
        <ele>317.2</ele>
        <time>2025-09-11T10:19:31Z</time>
      </trkpt>
      <trkpt lat="45.9456" lon="4.54086">
        <ele>317.4</ele>
        <time>2025-09-11T10:19:32Z</time>
      </trkpt>
      <trkpt lat="45.94562" lon="4.54086">
        <ele>317.4</ele>
        <time>2025-09-11T10:19:33Z</time>
      </trkpt>
      <trkpt lat="45.94564" lon="4.54087">
        <ele>317.6</ele>
        <time>2025-09-11T10:19:34Z</time>
      </trkpt>
      <trkpt lat="45.94565" lon="4.54089">
        <ele>317.6</ele>
        <time>2025-09-11T10:19:35Z</time>
      </trkpt>
      <trkpt lat="45.94567" lon="4.5409">
        <ele>317.6</ele>
        <time>2025-09-11T10:19:36Z</time>
      </trkpt>
      <trkpt lat="45.94569" lon="4.54091">
        <ele>317.6</ele>
        <time>2025-09-11T10:19:37Z</time>
      </trkpt>
      <trkpt lat="45.9457" lon="4.54092">
        <ele>318</ele>
        <time>2025-09-11T10:19:38Z</time>
      </trkpt>
      <trkpt lat="45.94572" lon="4.54093">
        <ele>318</ele>
        <time>2025-09-11T10:19:39Z</time>
      </trkpt>
      <trkpt lat="45.94574" lon="4.54095">
        <ele>318.4</ele>
        <time>2025-09-11T10:19:40Z</time>
      </trkpt>
      <trkpt lat="45.94576" lon="4.54096">
        <ele>318.4</ele>
        <time>2025-09-11T10:19:41Z</time>
      </trkpt>
      <trkpt lat="45.94578" lon="4.54097">
        <ele>318.6</ele>
        <time>2025-09-11T10:19:42Z</time>
      </trkpt>
      <trkpt lat="45.9458" lon="4.54099">
        <ele>318.8</ele>
        <time>2025-09-11T10:19:43Z</time>
      </trkpt>
      <trkpt lat="45.94581" lon="4.541">
        <ele>318.8</ele>
        <time>2025-09-11T10:19:44Z</time>
      </trkpt>
      <trkpt lat="45.94583" lon="4.54102">
        <ele>319.2</ele>
        <time>2025-09-11T10:19:45Z</time>
      </trkpt>
      <trkpt lat="45.94584" lon="4.54104">
        <ele>319.2</ele>
        <time>2025-09-11T10:19:46Z</time>
      </trkpt>
      <trkpt lat="45.94584" lon="4.54104">
        <ele>319.2</ele>
        <time>2025-09-11T10:19:47Z</time>
      </trkpt>
      <trkpt lat="45.94584" lon="4.54104">
        <ele>319.4</ele>
        <time>2025-09-11T10:19:48Z</time>
      </trkpt>
      <trkpt lat="45.94589" lon="4.5411">
        <ele>319.4</ele>
        <time>2025-09-11T10:19:49Z</time>
      </trkpt>
      <trkpt lat="45.94591" lon="4.54112">
        <ele>319.8</ele>
        <time>2025-09-11T10:19:50Z</time>
      </trkpt>
      <trkpt lat="45.94592" lon="4.54114">
        <ele>319.8</ele>
        <time>2025-09-11T10:19:51Z</time>
      </trkpt>
      <trkpt lat="45.94594" lon="4.54116">
        <ele>320</ele>
        <time>2025-09-11T10:19:52Z</time>
      </trkpt>
      <trkpt lat="45.94595" lon="4.54118">
        <ele>320</ele>
        <time>2025-09-11T10:19:53Z</time>
      </trkpt>
      <trkpt lat="45.94597" lon="4.5412">
        <ele>320</ele>
        <time>2025-09-11T10:19:54Z</time>
      </trkpt>
      <trkpt lat="45.94598" lon="4.54122">
        <ele>320.2</ele>
        <time>2025-09-11T10:19:55Z</time>
      </trkpt>
      <trkpt lat="45.94599" lon="4.54124">
        <ele>320.2</ele>
        <time>2025-09-11T10:19:56Z</time>
      </trkpt>
      <trkpt lat="45.946" lon="4.54126">
        <ele>320.8</ele>
        <time>2025-09-11T10:19:57Z</time>
      </trkpt>
      <trkpt lat="45.94602" lon="4.54128">
        <ele>321</ele>
        <time>2025-09-11T10:19:58Z</time>
      </trkpt>
      <trkpt lat="45.94603" lon="4.5413">
        <ele>321.2</ele>
        <time>2025-09-11T10:19:59Z</time>
      </trkpt>
      <trkpt lat="45.94604" lon="4.54133">
        <ele>321.2</ele>
        <time>2025-09-11T10:20:00Z</time>
      </trkpt>
      <trkpt lat="45.94605" lon="4.54134">
        <ele>321.2</ele>
        <time>2025-09-11T10:20:01Z</time>
      </trkpt>
      <trkpt lat="45.94606" lon="4.54137">
        <ele>321.6</ele>
        <time>2025-09-11T10:20:02Z</time>
      </trkpt>
      <trkpt lat="45.94607" lon="4.54139">
        <ele>321.6</ele>
        <time>2025-09-11T10:20:03Z</time>
      </trkpt>
      <trkpt lat="45.94608" lon="4.54141">
        <ele>321.8</ele>
        <time>2025-09-11T10:20:04Z</time>
      </trkpt>
      <trkpt lat="45.9461" lon="4.54143">
        <ele>321.8</ele>
        <time>2025-09-11T10:20:05Z</time>
      </trkpt>
      <trkpt lat="45.94611" lon="4.54145">
        <ele>321.8</ele>
        <time>2025-09-11T10:20:06Z</time>
      </trkpt>
      <trkpt lat="45.94612" lon="4.54148">
        <ele>322.2</ele>
        <time>2025-09-11T10:20:07Z</time>
      </trkpt>
      <trkpt lat="45.94613" lon="4.5415">
        <ele>322.4</ele>
        <time>2025-09-11T10:20:08Z</time>
      </trkpt>
      <trkpt lat="45.94614" lon="4.54153">
        <ele>322.4</ele>
        <time>2025-09-11T10:20:09Z</time>
      </trkpt>
      <trkpt lat="45.94615" lon="4.54155">
        <ele>322.4</ele>
        <time>2025-09-11T10:20:10Z</time>
      </trkpt>
      <trkpt lat="45.94616" lon="4.54157">
        <ele>322.8</ele>
        <time>2025-09-11T10:20:11Z</time>
      </trkpt>
      <trkpt lat="45.94617" lon="4.5416">
        <ele>322.8</ele>
        <time>2025-09-11T10:20:12Z</time>
      </trkpt>
      <trkpt lat="45.94618" lon="4.54162">
        <ele>323</ele>
        <time>2025-09-11T10:20:13Z</time>
      </trkpt>
      <trkpt lat="45.94619" lon="4.54164">
        <ele>323.2</ele>
        <time>2025-09-11T10:20:14Z</time>
      </trkpt>
      <trkpt lat="45.9462" lon="4.54167">
        <ele>323.2</ele>
        <time>2025-09-11T10:20:15Z</time>
      </trkpt>
      <trkpt lat="45.94621" lon="4.54169">
        <ele>323.2</ele>
        <time>2025-09-11T10:20:16Z</time>
      </trkpt>
      <trkpt lat="45.94622" lon="4.54171">
        <ele>323.4</ele>
        <time>2025-09-11T10:20:17Z</time>
      </trkpt>
      <trkpt lat="45.94622" lon="4.54173">
        <ele>323.4</ele>
        <time>2025-09-11T10:20:18Z</time>
      </trkpt>
      <trkpt lat="45.94623" lon="4.54175">
        <ele>323.4</ele>
        <time>2025-09-11T10:20:19Z</time>
      </trkpt>
      <trkpt lat="45.94624" lon="4.54177">
        <ele>323.8</ele>
        <time>2025-09-11T10:20:20Z</time>
      </trkpt>
      <trkpt lat="45.94625" lon="4.54179">
        <ele>324</ele>
        <time>2025-09-11T10:20:21Z</time>
      </trkpt>
      <trkpt lat="45.94626" lon="4.54181">
        <ele>324</ele>
        <time>2025-09-11T10:20:22Z</time>
      </trkpt>
      <trkpt lat="45.94627" lon="4.54183">
        <ele>324</ele>
        <time>2025-09-11T10:20:23Z</time>
      </trkpt>
      <trkpt lat="45.94628" lon="4.54185">
        <ele>324.4</ele>
        <time>2025-09-11T10:20:24Z</time>
      </trkpt>
      <trkpt lat="45.94629" lon="4.54187">
        <ele>324.4</ele>
        <time>2025-09-11T10:20:25Z</time>
      </trkpt>
      <trkpt lat="45.9463" lon="4.54189">
        <ele>324.6</ele>
        <time>2025-09-11T10:20:26Z</time>
      </trkpt>
      <trkpt lat="45.94631" lon="4.54191">
        <ele>324.8</ele>
        <time>2025-09-11T10:20:27Z</time>
      </trkpt>
      <trkpt lat="45.94632" lon="4.54193">
        <ele>324.8</ele>
        <time>2025-09-11T10:20:28Z</time>
      </trkpt>
      <trkpt lat="45.94633" lon="4.54195">
        <ele>324.8</ele>
        <time>2025-09-11T10:20:29Z</time>
      </trkpt>
      <trkpt lat="45.94634" lon="4.54197">
        <ele>325</ele>
        <time>2025-09-11T10:20:30Z</time>
      </trkpt>
      <trkpt lat="45.94636" lon="4.54199">
        <ele>325</ele>
        <time>2025-09-11T10:20:31Z</time>
      </trkpt>
      <trkpt lat="45.94637" lon="4.54201">
        <ele>325</ele>
        <time>2025-09-11T10:20:32Z</time>
      </trkpt>
      <trkpt lat="45.94638" lon="4.54204">
        <ele>325.4</ele>
        <time>2025-09-11T10:20:33Z</time>
      </trkpt>
      <trkpt lat="45.94639" lon="4.54206">
        <ele>325.4</ele>
        <time>2025-09-11T10:20:34Z</time>
      </trkpt>
      <trkpt lat="45.9464" lon="4.54207">
        <ele>325.6</ele>
        <time>2025-09-11T10:20:35Z</time>
      </trkpt>
      <trkpt lat="45.94642" lon="4.54209">
        <ele>326</ele>
        <time>2025-09-11T10:20:36Z</time>
      </trkpt>
      <trkpt lat="45.94643" lon="4.54211">
        <ele>326</ele>
        <time>2025-09-11T10:20:37Z</time>
      </trkpt>
      <trkpt lat="45.94644" lon="4.54213">
        <ele>326</ele>
        <time>2025-09-11T10:20:38Z</time>
      </trkpt>
      <trkpt lat="45.94645" lon="4.54214">
        <ele>326.2</ele>
        <time>2025-09-11T10:20:39Z</time>
      </trkpt>
      <trkpt lat="45.94647" lon="4.54216">
        <ele>326.2</ele>
        <time>2025-09-11T10:20:40Z</time>
      </trkpt>
      <trkpt lat="45.94648" lon="4.54217">
        <ele>326.4</ele>
        <time>2025-09-11T10:20:41Z</time>
      </trkpt>
      <trkpt lat="45.9465" lon="4.54218">
        <ele>326.4</ele>
        <time>2025-09-11T10:20:42Z</time>
      </trkpt>
      <trkpt lat="45.94651" lon="4.5422">
        <ele>326.4</ele>
        <time>2025-09-11T10:20:43Z</time>
      </trkpt>
      <trkpt lat="45.94652" lon="4.54222">
        <ele>326.4</ele>
        <time>2025-09-11T10:20:44Z</time>
      </trkpt>
      <trkpt lat="45.94653" lon="4.54224">
        <ele>326.8</ele>
        <time>2025-09-11T10:20:45Z</time>
      </trkpt>
      <trkpt lat="45.94654" lon="4.54225">
        <ele>326.8</ele>
        <time>2025-09-11T10:20:46Z</time>
      </trkpt>
      <trkpt lat="45.94655" lon="4.54227">
        <ele>327.2</ele>
        <time>2025-09-11T10:20:47Z</time>
      </trkpt>
      <trkpt lat="45.94657" lon="4.54228">
        <ele>327.4</ele>
        <time>2025-09-11T10:20:48Z</time>
      </trkpt>
      <trkpt lat="45.94658" lon="4.54229">
        <ele>327.4</ele>
        <time>2025-09-11T10:20:49Z</time>
      </trkpt>
      <trkpt lat="45.94659" lon="4.54231">
        <ele>327.4</ele>
        <time>2025-09-11T10:20:50Z</time>
      </trkpt>
      <trkpt lat="45.9466" lon="4.54232">
        <ele>327.4</ele>
        <time>2025-09-11T10:20:51Z</time>
      </trkpt>
      <trkpt lat="45.94662" lon="4.54234">
        <ele>327.4</ele>
        <time>2025-09-11T10:20:52Z</time>
      </trkpt>
      <trkpt lat="45.94663" lon="4.54235">
        <ele>327.4</ele>
        <time>2025-09-11T10:20:53Z</time>
      </trkpt>
      <trkpt lat="45.94664" lon="4.54237">
        <ele>327.8</ele>
        <time>2025-09-11T10:20:54Z</time>
      </trkpt>
      <trkpt lat="45.94665" lon="4.54239">
        <ele>327.8</ele>
        <time>2025-09-11T10:20:55Z</time>
      </trkpt>
      <trkpt lat="45.94667" lon="4.5424">
        <ele>328.2</ele>
        <time>2025-09-11T10:20:56Z</time>
      </trkpt>
      <trkpt lat="45.94668" lon="4.54242">
        <ele>328.2</ele>
        <time>2025-09-11T10:20:57Z</time>
      </trkpt>
      <trkpt lat="45.94669" lon="4.54243">
        <ele>328.6</ele>
        <time>2025-09-11T10:20:58Z</time>
      </trkpt>
      <trkpt lat="45.94671" lon="4.54244">
        <ele>328.6</ele>
        <time>2025-09-11T10:20:59Z</time>
      </trkpt>
      <trkpt lat="45.94672" lon="4.54246">
        <ele>328.8</ele>
        <time>2025-09-11T10:21:00Z</time>
      </trkpt>
      <trkpt lat="45.94673" lon="4.54247">
        <ele>328.8</ele>
        <time>2025-09-11T10:21:01Z</time>
      </trkpt>
      <trkpt lat="45.94675" lon="4.54248">
        <ele>329.2</ele>
        <time>2025-09-11T10:21:02Z</time>
      </trkpt>
      <trkpt lat="45.94676" lon="4.5425">
        <ele>329.2</ele>
        <time>2025-09-11T10:21:03Z</time>
      </trkpt>
      <trkpt lat="45.94677" lon="4.54251">
        <ele>329.4</ele>
        <time>2025-09-11T10:21:04Z</time>
      </trkpt>
      <trkpt lat="45.94679" lon="4.54252">
        <ele>329.4</ele>
        <time>2025-09-11T10:21:05Z</time>
      </trkpt>
      <trkpt lat="45.9468" lon="4.54253">
        <ele>329.4</ele>
        <time>2025-09-11T10:21:06Z</time>
      </trkpt>
      <trkpt lat="45.94681" lon="4.54254">
        <ele>329.8</ele>
        <time>2025-09-11T10:21:07Z</time>
      </trkpt>
      <trkpt lat="45.94682" lon="4.54255">
        <ele>329.8</ele>
        <time>2025-09-11T10:21:08Z</time>
      </trkpt>
      <trkpt lat="45.94684" lon="4.54256">
        <ele>330</ele>
        <time>2025-09-11T10:21:09Z</time>
      </trkpt>
      <trkpt lat="45.94685" lon="4.54257">
        <ele>330</ele>
        <time>2025-09-11T10:21:10Z</time>
      </trkpt>
      <trkpt lat="45.94686" lon="4.54258">
        <ele>330.4</ele>
        <time>2025-09-11T10:21:11Z</time>
      </trkpt>
      <trkpt lat="45.94687" lon="4.54259">
        <ele>330.4</ele>
        <time>2025-09-11T10:21:12Z</time>
      </trkpt>
      <trkpt lat="45.94688" lon="4.5426">
        <ele>330.4</ele>
        <time>2025-09-11T10:21:13Z</time>
      </trkpt>
      <trkpt lat="45.94689" lon="4.54261">
        <ele>330.6</ele>
        <time>2025-09-11T10:21:14Z</time>
      </trkpt>
      <trkpt lat="45.94691" lon="4.54262">
        <ele>330.6</ele>
        <time>2025-09-11T10:21:15Z</time>
      </trkpt>
      <trkpt lat="45.94692" lon="4.54263">
        <ele>330.6</ele>
        <time>2025-09-11T10:21:16Z</time>
      </trkpt>
      <trkpt lat="45.94693" lon="4.54264">
        <ele>331</ele>
        <time>2025-09-11T10:21:17Z</time>
      </trkpt>
      <trkpt lat="45.94695" lon="4.54265">
        <ele>331</ele>
        <time>2025-09-11T10:21:18Z</time>
      </trkpt>
      <trkpt lat="45.94696" lon="4.54266">
        <ele>331.2</ele>
        <time>2025-09-11T10:21:19Z</time>
      </trkpt>
      <trkpt lat="45.94698" lon="4.54267">
        <ele>331.2</ele>
        <time>2025-09-11T10:21:20Z</time>
      </trkpt>
      <trkpt lat="45.94699" lon="4.54269">
        <ele>331.4</ele>
        <time>2025-09-11T10:21:21Z</time>
      </trkpt>
      <trkpt lat="45.947" lon="4.5427">
        <ele>331.4</ele>
        <time>2025-09-11T10:21:22Z</time>
      </trkpt>
      <trkpt lat="45.94702" lon="4.54271">
        <ele>331.8</ele>
        <time>2025-09-11T10:21:23Z</time>
      </trkpt>
      <trkpt lat="45.94704" lon="4.54273">
        <ele>331.8</ele>
        <time>2025-09-11T10:21:24Z</time>
      </trkpt>
      <trkpt lat="45.94705" lon="4.54274">
        <ele>331.8</ele>
        <time>2025-09-11T10:21:25Z</time>
      </trkpt>
      <trkpt lat="45.94707" lon="4.54275">
        <ele>331.8</ele>
        <time>2025-09-11T10:21:26Z</time>
      </trkpt>
      <trkpt lat="45.94708" lon="4.54276">
        <ele>332</ele>
        <time>2025-09-11T10:21:27Z</time>
      </trkpt>
      <trkpt lat="45.94709" lon="4.54278">
        <ele>332.4</ele>
        <time>2025-09-11T10:21:28Z</time>
      </trkpt>
      <trkpt lat="45.94711" lon="4.54279">
        <ele>332.6</ele>
        <time>2025-09-11T10:21:29Z</time>
      </trkpt>
      <trkpt lat="45.94713" lon="4.54281">
        <ele>332.6</ele>
        <time>2025-09-11T10:21:30Z</time>
      </trkpt>
      <trkpt lat="45.94715" lon="4.54282">
        <ele>332.8</ele>
        <time>2025-09-11T10:21:31Z</time>
      </trkpt>
      <trkpt lat="45.94716" lon="4.54283">
        <ele>332.8</ele>
        <time>2025-09-11T10:21:32Z</time>
      </trkpt>
      <trkpt lat="45.94718" lon="4.54283">
        <ele>333</ele>
        <time>2025-09-11T10:21:33Z</time>
      </trkpt>
      <trkpt lat="45.94719" lon="4.54284">
        <ele>333</ele>
        <time>2025-09-11T10:21:34Z</time>
      </trkpt>
      <trkpt lat="45.94721" lon="4.54286">
        <ele>333.4</ele>
        <time>2025-09-11T10:21:35Z</time>
      </trkpt>
      <trkpt lat="45.94722" lon="4.54286">
        <ele>333.4</ele>
        <time>2025-09-11T10:21:36Z</time>
      </trkpt>
      <trkpt lat="45.94723" lon="4.54288">
        <ele>333.4</ele>
        <time>2025-09-11T10:21:37Z</time>
      </trkpt>
      <trkpt lat="45.94724" lon="4.54289">
        <ele>333.6</ele>
        <time>2025-09-11T10:21:38Z</time>
      </trkpt>
      <trkpt lat="45.94726" lon="4.54291">
        <ele>333.6</ele>
        <time>2025-09-11T10:21:39Z</time>
      </trkpt>
      <trkpt lat="45.94727" lon="4.54292">
        <ele>333.6</ele>
        <time>2025-09-11T10:21:40Z</time>
      </trkpt>
      <trkpt lat="45.94728" lon="4.54294">
        <ele>333.6</ele>
        <time>2025-09-11T10:21:41Z</time>
      </trkpt>
      <trkpt lat="45.94729" lon="4.54296">
        <ele>333.6</ele>
        <time>2025-09-11T10:21:42Z</time>
      </trkpt>
      <trkpt lat="45.94731" lon="4.54298">
        <ele>333.8</ele>
        <time>2025-09-11T10:21:43Z</time>
      </trkpt>
      <trkpt lat="45.94732" lon="4.54299">
        <ele>334.2</ele>
        <time>2025-09-11T10:21:44Z</time>
      </trkpt>
      <trkpt lat="45.94734" lon="4.543">
        <ele>334.2</ele>
        <time>2025-09-11T10:21:45Z</time>
      </trkpt>
      <trkpt lat="45.94735" lon="4.54302">
        <ele>334.4</ele>
        <time>2025-09-11T10:21:46Z</time>
      </trkpt>
      <trkpt lat="45.94736" lon="4.54303">
        <ele>334.4</ele>
        <time>2025-09-11T10:21:47Z</time>
      </trkpt>
      <trkpt lat="45.94738" lon="4.54305">
        <ele>334.8</ele>
        <time>2025-09-11T10:21:48Z</time>
      </trkpt>
      <trkpt lat="45.94739" lon="4.54306">
        <ele>334.8</ele>
        <time>2025-09-11T10:21:49Z</time>
      </trkpt>
      <trkpt lat="45.9474" lon="4.54308">
        <ele>335</ele>
        <time>2025-09-11T10:21:50Z</time>
      </trkpt>
      <trkpt lat="45.94741" lon="4.5431">
        <ele>335</ele>
        <time>2025-09-11T10:21:51Z</time>
      </trkpt>
      <trkpt lat="45.94742" lon="4.54311">
        <ele>335.2</ele>
        <time>2025-09-11T10:21:52Z</time>
      </trkpt>
      <trkpt lat="45.94743" lon="4.54313">
        <ele>335.2</ele>
        <time>2025-09-11T10:21:53Z</time>
      </trkpt>
      <trkpt lat="45.94744" lon="4.54315">
        <ele>335.2</ele>
        <time>2025-09-11T10:21:54Z</time>
      </trkpt>
      <trkpt lat="45.94745" lon="4.54316">
        <ele>335.4</ele>
        <time>2025-09-11T10:21:55Z</time>
      </trkpt>
      <trkpt lat="45.94746" lon="4.54318">
        <ele>335.4</ele>
        <time>2025-09-11T10:21:56Z</time>
      </trkpt>
      <trkpt lat="45.94748" lon="4.5432">
        <ele>335.8</ele>
        <time>2025-09-11T10:21:57Z</time>
      </trkpt>
      <trkpt lat="45.94749" lon="4.54321">
        <ele>335.8</ele>
        <time>2025-09-11T10:21:58Z</time>
      </trkpt>
      <trkpt lat="45.9475" lon="4.54323">
        <ele>335.8</ele>
        <time>2025-09-11T10:21:59Z</time>
      </trkpt>
      <trkpt lat="45.94751" lon="4.54325">
        <ele>335.8</ele>
        <time>2025-09-11T10:22:00Z</time>
      </trkpt>
      <trkpt lat="45.94752" lon="4.54327">
        <ele>336</ele>
        <time>2025-09-11T10:22:01Z</time>
      </trkpt>
      <trkpt lat="45.94754" lon="4.54329">
        <ele>336</ele>
        <time>2025-09-11T10:22:02Z</time>
      </trkpt>
      <trkpt lat="45.94755" lon="4.5433">
        <ele>336.4</ele>
        <time>2025-09-11T10:22:03Z</time>
      </trkpt>
      <trkpt lat="45.94757" lon="4.54332">
        <ele>336.4</ele>
        <time>2025-09-11T10:22:04Z</time>
      </trkpt>
      <trkpt lat="45.94758" lon="4.54334">
        <ele>336.6</ele>
        <time>2025-09-11T10:22:05Z</time>
      </trkpt>
      <trkpt lat="45.94759" lon="4.54336">
        <ele>336.6</ele>
        <time>2025-09-11T10:22:06Z</time>
      </trkpt>
      <trkpt lat="45.9476" lon="4.54338">
        <ele>336.6</ele>
        <time>2025-09-11T10:22:07Z</time>
      </trkpt>
      <trkpt lat="45.94761" lon="4.5434">
        <ele>336.8</ele>
        <time>2025-09-11T10:22:08Z</time>
      </trkpt>
      <trkpt lat="45.94762" lon="4.54341">
        <ele>336.8</ele>
        <time>2025-09-11T10:22:09Z</time>
      </trkpt>
      <trkpt lat="45.94764" lon="4.54343">
        <ele>336.8</ele>
        <time>2025-09-11T10:22:10Z</time>
      </trkpt>
      <trkpt lat="45.94765" lon="4.54345">
        <ele>336.8</ele>
        <time>2025-09-11T10:22:11Z</time>
      </trkpt>
      <trkpt lat="45.94766" lon="4.54347">
        <ele>337</ele>
        <time>2025-09-11T10:22:12Z</time>
      </trkpt>
      <trkpt lat="45.94767" lon="4.54349">
        <ele>337</ele>
        <time>2025-09-11T10:22:13Z</time>
      </trkpt>
      <trkpt lat="45.94769" lon="4.54351">
        <ele>337.4</ele>
        <time>2025-09-11T10:22:14Z</time>
      </trkpt>
      <trkpt lat="45.9477" lon="4.54353">
        <ele>337.4</ele>
        <time>2025-09-11T10:22:15Z</time>
      </trkpt>
      <trkpt lat="45.94771" lon="4.54355">
        <ele>337.6</ele>
        <time>2025-09-11T10:22:16Z</time>
      </trkpt>
      <trkpt lat="45.94772" lon="4.54357">
        <ele>337.8</ele>
        <time>2025-09-11T10:22:17Z</time>
      </trkpt>
      <trkpt lat="45.94773" lon="4.54359">
        <ele>338</ele>
        <time>2025-09-11T10:22:18Z</time>
      </trkpt>
      <trkpt lat="45.94775" lon="4.54361">
        <ele>338</ele>
        <time>2025-09-11T10:22:19Z</time>
      </trkpt>
      <trkpt lat="45.94776" lon="4.54362">
        <ele>338.4</ele>
        <time>2025-09-11T10:22:20Z</time>
      </trkpt>
      <trkpt lat="45.94777" lon="4.54364">
        <ele>338.4</ele>
        <time>2025-09-11T10:22:21Z</time>
      </trkpt>
      <trkpt lat="45.94778" lon="4.54366">
        <ele>338.4</ele>
        <time>2025-09-11T10:22:22Z</time>
      </trkpt>
      <trkpt lat="45.94779" lon="4.54368">
        <ele>338.4</ele>
        <time>2025-09-11T10:22:23Z</time>
      </trkpt>
      <trkpt lat="45.9478" lon="4.5437">
        <ele>338.6</ele>
        <time>2025-09-11T10:22:24Z</time>
      </trkpt>
      <trkpt lat="45.94781" lon="4.54371">
        <ele>338.6</ele>
        <time>2025-09-11T10:22:25Z</time>
      </trkpt>
      <trkpt lat="45.94782" lon="4.54373">
        <ele>339</ele>
        <time>2025-09-11T10:22:26Z</time>
      </trkpt>
      <trkpt lat="45.94783" lon="4.54375">
        <ele>339</ele>
        <time>2025-09-11T10:22:27Z</time>
      </trkpt>
      <trkpt lat="45.94784" lon="4.54377">
        <ele>339</ele>
        <time>2025-09-11T10:22:28Z</time>
      </trkpt>
      <trkpt lat="45.94785" lon="4.54379">
        <ele>339.2</ele>
        <time>2025-09-11T10:22:29Z</time>
      </trkpt>
      <trkpt lat="45.94786" lon="4.54381">
        <ele>339.4</ele>
        <time>2025-09-11T10:22:30Z</time>
      </trkpt>
      <trkpt lat="45.94788" lon="4.54384">
        <ele>339.4</ele>
        <time>2025-09-11T10:22:31Z</time>
      </trkpt>
      <trkpt lat="45.94789" lon="4.54386">
        <ele>339.6</ele>
        <time>2025-09-11T10:22:32Z</time>
      </trkpt>
      <trkpt lat="45.9479" lon="4.54387">
        <ele>339.6</ele>
        <time>2025-09-11T10:22:33Z</time>
      </trkpt>
      <trkpt lat="45.94791" lon="4.54389">
        <ele>340</ele>
        <time>2025-09-11T10:22:34Z</time>
      </trkpt>
      <trkpt lat="45.94793" lon="4.54391">
        <ele>340</ele>
        <time>2025-09-11T10:22:35Z</time>
      </trkpt>
      <trkpt lat="45.94794" lon="4.54393">
        <ele>340.2</ele>
        <time>2025-09-11T10:22:36Z</time>
      </trkpt>
      <trkpt lat="45.94795" lon="4.54395">
        <ele>340.2</ele>
        <time>2025-09-11T10:22:37Z</time>
      </trkpt>
      <trkpt lat="45.94796" lon="4.54397">
        <ele>340.4</ele>
        <time>2025-09-11T10:22:38Z</time>
      </trkpt>
      <trkpt lat="45.94797" lon="4.54399">
        <ele>340.4</ele>
        <time>2025-09-11T10:22:39Z</time>
      </trkpt>
      <trkpt lat="45.94798" lon="4.54401">
        <ele>340.4</ele>
        <time>2025-09-11T10:22:40Z</time>
      </trkpt>
      <trkpt lat="45.948" lon="4.54403">
        <ele>340.6</ele>
        <time>2025-09-11T10:22:41Z</time>
      </trkpt>
      <trkpt lat="45.94801" lon="4.54405">
        <ele>341</ele>
        <time>2025-09-11T10:22:42Z</time>
      </trkpt>
      <trkpt lat="45.94802" lon="4.54407">
        <ele>341</ele>
        <time>2025-09-11T10:22:43Z</time>
      </trkpt>
      <trkpt lat="45.94803" lon="4.54409">
        <ele>341.2</ele>
        <time>2025-09-11T10:22:44Z</time>
      </trkpt>
      <trkpt lat="45.94804" lon="4.54411">
        <ele>341.2</ele>
        <time>2025-09-11T10:22:45Z</time>
      </trkpt>
      <trkpt lat="45.94805" lon="4.54413">
        <ele>341.2</ele>
        <time>2025-09-11T10:22:46Z</time>
      </trkpt>
      <trkpt lat="45.94806" lon="4.54414">
        <ele>341.2</ele>
        <time>2025-09-11T10:22:47Z</time>
      </trkpt>
      <trkpt lat="45.94807" lon="4.54416">
        <ele>341.2</ele>
        <time>2025-09-11T10:22:48Z</time>
      </trkpt>
      <trkpt lat="45.94808" lon="4.54419">
        <ele>341.4</ele>
        <time>2025-09-11T10:22:49Z</time>
      </trkpt>
      <trkpt lat="45.94809" lon="4.5442">
        <ele>341.4</ele>
        <time>2025-09-11T10:22:50Z</time>
      </trkpt>
      <trkpt lat="45.9481" lon="4.54422">
        <ele>341.6</ele>
        <time>2025-09-11T10:22:51Z</time>
      </trkpt>
      <trkpt lat="45.94811" lon="4.54424">
        <ele>341.6</ele>
        <time>2025-09-11T10:22:52Z</time>
      </trkpt>
      <trkpt lat="45.94812" lon="4.54426">
        <ele>342</ele>
        <time>2025-09-11T10:22:53Z</time>
      </trkpt>
      <trkpt lat="45.94813" lon="4.54428">
        <ele>342</ele>
        <time>2025-09-11T10:22:54Z</time>
      </trkpt>
      <trkpt lat="45.94814" lon="4.5443">
        <ele>342.2</ele>
        <time>2025-09-11T10:22:55Z</time>
      </trkpt>
      <trkpt lat="45.94815" lon="4.54432">
        <ele>342.2</ele>
        <time>2025-09-11T10:22:56Z</time>
      </trkpt>
      <trkpt lat="45.94817" lon="4.54434">
        <ele>342.2</ele>
        <time>2025-09-11T10:22:57Z</time>
      </trkpt>
      <trkpt lat="45.94818" lon="4.54436">
        <ele>342.6</ele>
        <time>2025-09-11T10:22:58Z</time>
      </trkpt>
      <trkpt lat="45.94819" lon="4.54438">
        <ele>342.6</ele>
        <time>2025-09-11T10:22:59Z</time>
      </trkpt>
      <trkpt lat="45.9482" lon="4.54439">
        <ele>342.6</ele>
        <time>2025-09-11T10:23:00Z</time>
      </trkpt>
      <trkpt lat="45.94821" lon="4.54441">
        <ele>343</ele>
        <time>2025-09-11T10:23:01Z</time>
      </trkpt>
      <trkpt lat="45.94822" lon="4.54443">
        <ele>343</ele>
        <time>2025-09-11T10:23:02Z</time>
      </trkpt>
      <trkpt lat="45.94823" lon="4.54444">
        <ele>343</ele>
        <time>2025-09-11T10:23:03Z</time>
      </trkpt>
      <trkpt lat="45.94825" lon="4.54446">
        <ele>343.2</ele>
        <time>2025-09-11T10:23:04Z</time>
      </trkpt>
      <trkpt lat="45.94826" lon="4.54447">
        <ele>343.2</ele>
        <time>2025-09-11T10:23:05Z</time>
      </trkpt>
      <trkpt lat="45.94827" lon="4.54449">
        <ele>343.2</ele>
        <time>2025-09-11T10:23:06Z</time>
      </trkpt>
      <trkpt lat="45.94828" lon="4.54451">
        <ele>343.4</ele>
        <time>2025-09-11T10:23:07Z</time>
      </trkpt>
      <trkpt lat="45.9483" lon="4.54452">
        <ele>343.4</ele>
        <time>2025-09-11T10:23:08Z</time>
      </trkpt>
      <trkpt lat="45.94831" lon="4.54453">
        <ele>343.4</ele>
        <time>2025-09-11T10:23:09Z</time>
      </trkpt>
      <trkpt lat="45.94832" lon="4.54455">
        <ele>343.4</ele>
        <time>2025-09-11T10:23:10Z</time>
      </trkpt>
      <trkpt lat="45.94834" lon="4.54456">
        <ele>343.4</ele>
        <time>2025-09-11T10:23:11Z</time>
      </trkpt>
      <trkpt lat="45.94835" lon="4.54457">
        <ele>343.8</ele>
        <time>2025-09-11T10:23:12Z</time>
      </trkpt>
      <trkpt lat="45.94837" lon="4.54458">
        <ele>343.8</ele>
        <time>2025-09-11T10:23:13Z</time>
      </trkpt>
      <trkpt lat="45.94838" lon="4.54458">
        <ele>344.2</ele>
        <time>2025-09-11T10:23:14Z</time>
      </trkpt>
      <trkpt lat="45.9484" lon="4.54458">
        <ele>344.2</ele>
        <time>2025-09-11T10:23:15Z</time>
      </trkpt>
      <trkpt lat="45.94842" lon="4.54458">
        <ele>344.4</ele>
        <time>2025-09-11T10:23:16Z</time>
      </trkpt>
      <trkpt lat="45.94843" lon="4.54459">
        <ele>344.4</ele>
        <time>2025-09-11T10:23:17Z</time>
      </trkpt>
      <trkpt lat="45.94845" lon="4.54459">
        <ele>344.4</ele>
        <time>2025-09-11T10:23:18Z</time>
      </trkpt>
      <trkpt lat="45.94847" lon="4.5446">
        <ele>344.8</ele>
        <time>2025-09-11T10:23:19Z</time>
      </trkpt>
      <trkpt lat="45.94849" lon="4.5446">
        <ele>344.8</ele>
        <time>2025-09-11T10:23:20Z</time>
      </trkpt>
      <trkpt lat="45.9485" lon="4.5446">
        <ele>345</ele>
        <time>2025-09-11T10:23:21Z</time>
      </trkpt>
      <trkpt lat="45.94852" lon="4.54461">
        <ele>345</ele>
        <time>2025-09-11T10:23:22Z</time>
      </trkpt>
      <trkpt lat="45.94853" lon="4.54461">
        <ele>345.2</ele>
        <time>2025-09-11T10:23:23Z</time>
      </trkpt>
      <trkpt lat="45.94855" lon="4.54461">
        <ele>345.2</ele>
        <time>2025-09-11T10:23:24Z</time>
      </trkpt>
      <trkpt lat="45.94856" lon="4.54462">
        <ele>345.4</ele>
        <time>2025-09-11T10:23:25Z</time>
      </trkpt>
      <trkpt lat="45.94858" lon="4.54462">
        <ele>345.4</ele>
        <time>2025-09-11T10:23:26Z</time>
      </trkpt>
      <trkpt lat="45.9486" lon="4.54463">
        <ele>345.8</ele>
        <time>2025-09-11T10:23:27Z</time>
      </trkpt>
      <trkpt lat="45.94861" lon="4.54463">
        <ele>346</ele>
        <time>2025-09-11T10:23:28Z</time>
      </trkpt>
      <trkpt lat="45.94862" lon="4.54464">
        <ele>346.2</ele>
        <time>2025-09-11T10:23:29Z</time>
      </trkpt>
      <trkpt lat="45.94864" lon="4.54464">
        <ele>346.2</ele>
        <time>2025-09-11T10:23:30Z</time>
      </trkpt>
      <trkpt lat="45.94865" lon="4.54464">
        <ele>346.4</ele>
        <time>2025-09-11T10:23:31Z</time>
      </trkpt>
      <trkpt lat="45.94867" lon="4.54464">
        <ele>346.4</ele>
        <time>2025-09-11T10:23:32Z</time>
      </trkpt>
      <trkpt lat="45.94869" lon="4.54464">
        <ele>347</ele>
        <time>2025-09-11T10:23:33Z</time>
      </trkpt>
      <trkpt lat="45.94871" lon="4.54464">
        <ele>347.2</ele>
        <time>2025-09-11T10:23:34Z</time>
      </trkpt>
      <trkpt lat="45.94872" lon="4.54464">
        <ele>347.4</ele>
        <time>2025-09-11T10:23:35Z</time>
      </trkpt>
      <trkpt lat="45.94874" lon="4.54464">
        <ele>347.4</ele>
        <time>2025-09-11T10:23:36Z</time>
      </trkpt>
      <trkpt lat="45.94875" lon="4.54464">
        <ele>347.4</ele>
        <time>2025-09-11T10:23:37Z</time>
      </trkpt>
      <trkpt lat="45.94877" lon="4.54464">
        <ele>347.6</ele>
        <time>2025-09-11T10:23:38Z</time>
      </trkpt>
      <trkpt lat="45.94879" lon="4.54464">
        <ele>347.6</ele>
        <time>2025-09-11T10:23:39Z</time>
      </trkpt>
      <trkpt lat="45.9488" lon="4.54464">
        <ele>348</ele>
        <time>2025-09-11T10:23:40Z</time>
      </trkpt>
      <trkpt lat="45.94882" lon="4.54465">
        <ele>348</ele>
        <time>2025-09-11T10:23:41Z</time>
      </trkpt>
      <trkpt lat="45.94883" lon="4.54465">
        <ele>348</ele>
        <time>2025-09-11T10:23:42Z</time>
      </trkpt>
      <trkpt lat="45.94885" lon="4.54466">
        <ele>348.2</ele>
        <time>2025-09-11T10:23:43Z</time>
      </trkpt>
      <trkpt lat="45.94887" lon="4.54466">
        <ele>348.2</ele>
        <time>2025-09-11T10:23:44Z</time>
      </trkpt>
      <trkpt lat="45.94888" lon="4.54467">
        <ele>348.6</ele>
        <time>2025-09-11T10:23:45Z</time>
      </trkpt>
      <trkpt lat="45.9489" lon="4.54467">
        <ele>348.6</ele>
        <time>2025-09-11T10:23:46Z</time>
      </trkpt>
      <trkpt lat="45.94891" lon="4.54466">
        <ele>349</ele>
        <time>2025-09-11T10:23:47Z</time>
      </trkpt>
      <trkpt lat="45.94893" lon="4.54467">
        <ele>349</ele>
        <time>2025-09-11T10:23:48Z</time>
      </trkpt>
      <trkpt lat="45.94894" lon="4.54467">
        <ele>349</ele>
        <time>2025-09-11T10:23:49Z</time>
      </trkpt>
      <trkpt lat="45.94896" lon="4.54467">
        <ele>349</ele>
        <time>2025-09-11T10:23:50Z</time>
      </trkpt>
      <trkpt lat="45.94898" lon="4.54467">
        <ele>349</ele>
        <time>2025-09-11T10:23:51Z</time>
      </trkpt>
      <trkpt lat="45.94899" lon="4.54467">
        <ele>349.2</ele>
        <time>2025-09-11T10:23:52Z</time>
      </trkpt>
      <trkpt lat="45.949" lon="4.54467">
        <ele>349.2</ele>
        <time>2025-09-11T10:23:53Z</time>
      </trkpt>
      <trkpt lat="45.94902" lon="4.54467">
        <ele>349.6</ele>
        <time>2025-09-11T10:23:54Z</time>
      </trkpt>
      <trkpt lat="45.94904" lon="4.54468">
        <ele>349.6</ele>
        <time>2025-09-11T10:23:55Z</time>
      </trkpt>
      <trkpt lat="45.94905" lon="4.54468">
        <ele>349.6</ele>
        <time>2025-09-11T10:23:56Z</time>
      </trkpt>
      <trkpt lat="45.94907" lon="4.54468">
        <ele>349.8</ele>
        <time>2025-09-11T10:23:57Z</time>
      </trkpt>
      <trkpt lat="45.94908" lon="4.54468">
        <ele>349.8</ele>
        <time>2025-09-11T10:23:58Z</time>
      </trkpt>
      <trkpt lat="45.9491" lon="4.54468">
        <ele>350.2</ele>
        <time>2025-09-11T10:23:59Z</time>
      </trkpt>
      <trkpt lat="45.94911" lon="4.54468">
        <ele>350.2</ele>
        <time>2025-09-11T10:24:00Z</time>
      </trkpt>
      <trkpt lat="45.94913" lon="4.54468">
        <ele>350.2</ele>
        <time>2025-09-11T10:24:01Z</time>
      </trkpt>
      <trkpt lat="45.94914" lon="4.54468">
        <ele>350.4</ele>
        <time>2025-09-11T10:24:02Z</time>
      </trkpt>
      <trkpt lat="45.94915" lon="4.54469">
        <ele>350.4</ele>
        <time>2025-09-11T10:24:03Z</time>
      </trkpt>
      <trkpt lat="45.94917" lon="4.54468">
        <ele>350.4</ele>
        <time>2025-09-11T10:24:04Z</time>
      </trkpt>
      <trkpt lat="45.94919" lon="4.54468">
        <ele>350.4</ele>
        <time>2025-09-11T10:24:05Z</time>
      </trkpt>
      <trkpt lat="45.9492" lon="4.54468">
        <ele>350.8</ele>
        <time>2025-09-11T10:24:06Z</time>
      </trkpt>
      <trkpt lat="45.94922" lon="4.54468">
        <ele>350.8</ele>
        <time>2025-09-11T10:24:07Z</time>
      </trkpt>
      <trkpt lat="45.94924" lon="4.54468">
        <ele>351</ele>
        <time>2025-09-11T10:24:08Z</time>
      </trkpt>
      <trkpt lat="45.94925" lon="4.54469">
        <ele>351</ele>
        <time>2025-09-11T10:24:09Z</time>
      </trkpt>
      <trkpt lat="45.94927" lon="4.54469">
        <ele>351</ele>
        <time>2025-09-11T10:24:10Z</time>
      </trkpt>
      <trkpt lat="45.94929" lon="4.54468">
        <ele>351.6</ele>
        <time>2025-09-11T10:24:11Z</time>
      </trkpt>
      <trkpt lat="45.9493" lon="4.54468">
        <ele>351.8</ele>
        <time>2025-09-11T10:24:12Z</time>
      </trkpt>
      <trkpt lat="45.94932" lon="4.54467">
        <ele>352</ele>
        <time>2025-09-11T10:24:13Z</time>
      </trkpt>
      <trkpt lat="45.94934" lon="4.54467">
        <ele>352</ele>
        <time>2025-09-11T10:24:14Z</time>
      </trkpt>
      <trkpt lat="45.94935" lon="4.54467">
        <ele>352.2</ele>
        <time>2025-09-11T10:24:15Z</time>
      </trkpt>
      <trkpt lat="45.94937" lon="4.54468">
        <ele>352.2</ele>
        <time>2025-09-11T10:24:16Z</time>
      </trkpt>
      <trkpt lat="45.94938" lon="4.54469">
        <ele>352.6</ele>
        <time>2025-09-11T10:24:17Z</time>
      </trkpt>
      <trkpt lat="45.9494" lon="4.54469">
        <ele>352.8</ele>
        <time>2025-09-11T10:24:18Z</time>
      </trkpt>
      <trkpt lat="45.94942" lon="4.54469">
        <ele>352.8</ele>
        <time>2025-09-11T10:24:19Z</time>
      </trkpt>
      <trkpt lat="45.94943" lon="4.54469">
        <ele>352.8</ele>
        <time>2025-09-11T10:24:20Z</time>
      </trkpt>
      <trkpt lat="45.94945" lon="4.54469">
        <ele>353</ele>
        <time>2025-09-11T10:24:21Z</time>
      </trkpt>
      <trkpt lat="45.94946" lon="4.54469">
        <ele>353</ele>
        <time>2025-09-11T10:24:22Z</time>
      </trkpt>
      <trkpt lat="45.94948" lon="4.54469">
        <ele>353.4</ele>
        <time>2025-09-11T10:24:23Z</time>
      </trkpt>
      <trkpt lat="45.94949" lon="4.54469">
        <ele>353.4</ele>
        <time>2025-09-11T10:24:24Z</time>
      </trkpt>
      <trkpt lat="45.94951" lon="4.54469">
        <ele>353.6</ele>
        <time>2025-09-11T10:24:25Z</time>
      </trkpt>
      <trkpt lat="45.94952" lon="4.54469">
        <ele>353.8</ele>
        <time>2025-09-11T10:24:26Z</time>
      </trkpt>
      <trkpt lat="45.94954" lon="4.54469">
        <ele>353.8</ele>
        <time>2025-09-11T10:24:27Z</time>
      </trkpt>
      <trkpt lat="45.94956" lon="4.54468">
        <ele>354.2</ele>
        <time>2025-09-11T10:24:28Z</time>
      </trkpt>
      <trkpt lat="45.94958" lon="4.54468">
        <ele>354.6</ele>
        <time>2025-09-11T10:24:29Z</time>
      </trkpt>
      <trkpt lat="45.94959" lon="4.54468">
        <ele>354.6</ele>
        <time>2025-09-11T10:24:30Z</time>
      </trkpt>
      <trkpt lat="45.94961" lon="4.54469">
        <ele>354.6</ele>
        <time>2025-09-11T10:24:31Z</time>
      </trkpt>
      <trkpt lat="45.94963" lon="4.54469">
        <ele>354.8</ele>
        <time>2025-09-11T10:24:32Z</time>
      </trkpt>
      <trkpt lat="45.94964" lon="4.54469">
        <ele>355.2</ele>
        <time>2025-09-11T10:24:33Z</time>
      </trkpt>
      <trkpt lat="45.94966" lon="4.54469">
        <ele>355.2</ele>
        <time>2025-09-11T10:24:34Z</time>
      </trkpt>
      <trkpt lat="45.94968" lon="4.54469">
        <ele>355.2</ele>
        <time>2025-09-11T10:24:35Z</time>
      </trkpt>
      <trkpt lat="45.94969" lon="4.54469">
        <ele>355.2</ele>
        <time>2025-09-11T10:24:36Z</time>
      </trkpt>
      <trkpt lat="45.94972" lon="4.54469">
        <ele>355.2</ele>
        <time>2025-09-11T10:24:37Z</time>
      </trkpt>
      <trkpt lat="45.94973" lon="4.54469">
        <ele>355.6</ele>
        <time>2025-09-11T10:24:38Z</time>
      </trkpt>
      <trkpt lat="45.94975" lon="4.54469">
        <ele>355.6</ele>
        <time>2025-09-11T10:24:39Z</time>
      </trkpt>
      <trkpt lat="45.94976" lon="4.54469">
        <ele>355.6</ele>
        <time>2025-09-11T10:24:40Z</time>
      </trkpt>
      <trkpt lat="45.94978" lon="4.54469">
        <ele>355.8</ele>
        <time>2025-09-11T10:24:41Z</time>
      </trkpt>
      <trkpt lat="45.94979" lon="4.5447">
        <ele>355.8</ele>
        <time>2025-09-11T10:24:42Z</time>
      </trkpt>
      <trkpt lat="45.94981" lon="4.5447">
        <ele>356.2</ele>
        <time>2025-09-11T10:24:43Z</time>
      </trkpt>
      <trkpt lat="45.94983" lon="4.5447">
        <ele>356.2</ele>
        <time>2025-09-11T10:24:44Z</time>
      </trkpt>
      <trkpt lat="45.94984" lon="4.54469">
        <ele>356.6</ele>
        <time>2025-09-11T10:24:45Z</time>
      </trkpt>
      <trkpt lat="45.94985" lon="4.54469">
        <ele>356.2</ele>
        <time>2025-09-11T10:24:46Z</time>
      </trkpt>
      <trkpt lat="45.94987" lon="4.54469">
        <ele>356.2</ele>
        <time>2025-09-11T10:24:47Z</time>
      </trkpt>
      <trkpt lat="45.94989" lon="4.54469">
        <ele>356.6</ele>
        <time>2025-09-11T10:24:48Z</time>
      </trkpt>
      <trkpt lat="45.9499" lon="4.54469">
        <ele>356.6</ele>
        <time>2025-09-11T10:24:49Z</time>
      </trkpt>
      <trkpt lat="45.94991" lon="4.54469">
        <ele>357</ele>
        <time>2025-09-11T10:24:50Z</time>
      </trkpt>
      <trkpt lat="45.94993" lon="4.54469">
        <ele>357</ele>
        <time>2025-09-11T10:24:51Z</time>
      </trkpt>
      <trkpt lat="45.94995" lon="4.54469">
        <ele>357.2</ele>
        <time>2025-09-11T10:24:52Z</time>
      </trkpt>
      <trkpt lat="45.94996" lon="4.54469">
        <ele>357.2</ele>
        <time>2025-09-11T10:24:53Z</time>
      </trkpt>
      <trkpt lat="45.94998" lon="4.5447">
        <ele>357.6</ele>
        <time>2025-09-11T10:24:54Z</time>
      </trkpt>
      <trkpt lat="45.95" lon="4.5447">
        <ele>357.6</ele>
        <time>2025-09-11T10:24:55Z</time>
      </trkpt>
      <trkpt lat="45.95001" lon="4.54471">
        <ele>357.8</ele>
        <time>2025-09-11T10:24:56Z</time>
      </trkpt>
      <trkpt lat="45.95003" lon="4.54472">
        <ele>357.8</ele>
        <time>2025-09-11T10:24:57Z</time>
      </trkpt>
      <trkpt lat="45.95004" lon="4.54472">
        <ele>357.8</ele>
        <time>2025-09-11T10:24:58Z</time>
      </trkpt>
      <trkpt lat="45.95006" lon="4.54472">
        <ele>357.8</ele>
        <time>2025-09-11T10:24:59Z</time>
      </trkpt>
      <trkpt lat="45.95008" lon="4.54472">
        <ele>358.2</ele>
        <time>2025-09-11T10:25:00Z</time>
      </trkpt>
      <trkpt lat="45.9501" lon="4.54472">
        <ele>358.2</ele>
        <time>2025-09-11T10:25:01Z</time>
      </trkpt>
      <trkpt lat="45.95011" lon="4.54472">
        <ele>358.6</ele>
        <time>2025-09-11T10:25:02Z</time>
      </trkpt>
      <trkpt lat="45.95013" lon="4.54472">
        <ele>358.8</ele>
        <time>2025-09-11T10:25:03Z</time>
      </trkpt>
      <trkpt lat="45.95014" lon="4.54471">
        <ele>359.2</ele>
        <time>2025-09-11T10:25:04Z</time>
      </trkpt>
      <trkpt lat="45.95015" lon="4.54471">
        <ele>359.4</ele>
        <time>2025-09-11T10:25:05Z</time>
      </trkpt>
      <trkpt lat="45.95016" lon="4.5447">
        <ele>359.4</ele>
        <time>2025-09-11T10:25:06Z</time>
      </trkpt>
      <trkpt lat="45.95018" lon="4.5447">
        <ele>359.6</ele>
        <time>2025-09-11T10:25:07Z</time>
      </trkpt>
      <trkpt lat="45.95019" lon="4.54469">
        <ele>359.6</ele>
        <time>2025-09-11T10:25:08Z</time>
      </trkpt>
      <trkpt lat="45.9502" lon="4.54469">
        <ele>359.6</ele>
        <time>2025-09-11T10:25:09Z</time>
      </trkpt>
      <trkpt lat="45.95021" lon="4.54469">
        <ele>359.6</ele>
        <time>2025-09-11T10:25:10Z</time>
      </trkpt>
      <trkpt lat="45.95022" lon="4.54468">
        <ele>359.6</ele>
        <time>2025-09-11T10:25:11Z</time>
      </trkpt>
      <trkpt lat="45.95022" lon="4.54467">
        <ele>359.6</ele>
        <time>2025-09-11T10:25:12Z</time>
      </trkpt>
      <trkpt lat="45.95023" lon="4.54465">
        <ele>359.6</ele>
        <time>2025-09-11T10:25:13Z</time>
      </trkpt>
      <trkpt lat="45.95023" lon="4.54464">
        <ele>359.6</ele>
        <time>2025-09-11T10:25:14Z</time>
      </trkpt>
      <trkpt lat="45.95022" lon="4.54462">
        <ele>359.6</ele>
        <time>2025-09-11T10:25:15Z</time>
      </trkpt>
      <trkpt lat="45.95021" lon="4.54462">
        <ele>359.6</ele>
        <time>2025-09-11T10:25:16Z</time>
      </trkpt>
      <trkpt lat="45.9502" lon="4.54463">
        <ele>359.6</ele>
        <time>2025-09-11T10:25:17Z</time>
      </trkpt>
      <trkpt lat="45.95019" lon="4.54465">
        <ele>359.6</ele>
        <time>2025-09-11T10:25:18Z</time>
      </trkpt>
      <trkpt lat="45.95019" lon="4.54468">
        <ele>359.6</ele>
        <time>2025-09-11T10:25:19Z</time>
      </trkpt>
      <trkpt lat="45.9502" lon="4.5447">
        <ele>359.8</ele>
        <time>2025-09-11T10:25:20Z</time>
      </trkpt>
      <trkpt lat="45.95021" lon="4.54472">
        <ele>359.8</ele>
        <time>2025-09-11T10:25:21Z</time>
      </trkpt>
      <trkpt lat="45.95022" lon="4.54473">
        <ele>359.8</ele>
        <time>2025-09-11T10:25:22Z</time>
      </trkpt>
      <trkpt lat="45.95023" lon="4.54473">
        <ele>359.8</ele>
        <time>2025-09-11T10:25:23Z</time>
      </trkpt>
      <trkpt lat="45.95024" lon="4.54473">
        <ele>359.8</ele>
        <time>2025-09-11T10:25:24Z</time>
      </trkpt>
      <trkpt lat="45.95024" lon="4.54472">
        <ele>360.2</ele>
        <time>2025-09-11T10:25:25Z</time>
      </trkpt>
      <trkpt lat="45.95024" lon="4.5447">
        <ele>362.8</ele>
        <time>2025-09-11T11:26:02Z</time>
      </trkpt>
      <trkpt lat="45.95024" lon="4.5447">
        <ele>362.8</ele>
        <time>2025-09-11T11:26:03Z</time>
      </trkpt>
      <trkpt lat="45.95023" lon="4.54471">
        <ele>362.8</ele>
        <time>2025-09-11T11:26:04Z</time>
      </trkpt>
      <trkpt lat="45.95024" lon="4.54472">
        <ele>362.6</ele>
        <time>2025-09-11T11:26:05Z</time>
      </trkpt>
      <trkpt lat="45.95024" lon="4.54473">
        <ele>362.6</ele>
        <time>2025-09-11T11:26:06Z</time>
      </trkpt>
      <trkpt lat="45.95023" lon="4.54473">
        <ele>362.8</ele>
        <time>2025-09-11T11:26:28Z</time>
      </trkpt>
      <trkpt lat="45.95022" lon="4.54474">
        <ele>362.8</ele>
        <time>2025-09-11T11:26:29Z</time>
      </trkpt>
      <trkpt lat="45.95021" lon="4.54476">
        <ele>362.8</ele>
        <time>2025-09-11T11:26:30Z</time>
      </trkpt>
      <trkpt lat="45.95021" lon="4.54478">
        <ele>362.8</ele>
        <time>2025-09-11T11:26:31Z</time>
      </trkpt>
      <trkpt lat="45.95021" lon="4.5448">
        <ele>362.8</ele>
        <time>2025-09-11T11:26:32Z</time>
      </trkpt>
      <trkpt lat="45.95022" lon="4.54483">
        <ele>362.8</ele>
        <time>2025-09-11T11:26:33Z</time>
      </trkpt>
      <trkpt lat="45.95023" lon="4.54486">
        <ele>362.8</ele>
        <time>2025-09-11T11:26:34Z</time>
      </trkpt>
      <trkpt lat="45.95024" lon="4.54489">
        <ele>363</ele>
        <time>2025-09-11T11:26:35Z</time>
      </trkpt>
      <trkpt lat="45.95026" lon="4.54492">
        <ele>363</ele>
        <time>2025-09-11T11:26:36Z</time>
      </trkpt>
      <trkpt lat="45.95028" lon="4.54494">
        <ele>363</ele>
        <time>2025-09-11T11:26:37Z</time>
      </trkpt>
      <trkpt lat="45.9503" lon="4.54496">
        <ele>363</ele>
        <time>2025-09-11T11:26:38Z</time>
      </trkpt>
      <trkpt lat="45.95031" lon="4.54498">
        <ele>363</ele>
        <time>2025-09-11T11:26:39Z</time>
      </trkpt>
      <trkpt lat="45.95033" lon="4.545">
        <ele>363</ele>
        <time>2025-09-11T11:26:40Z</time>
      </trkpt>
      <trkpt lat="45.95034" lon="4.54502">
        <ele>363.2</ele>
        <time>2025-09-11T11:26:41Z</time>
      </trkpt>
      <trkpt lat="45.95035" lon="4.54504">
        <ele>363.2</ele>
        <time>2025-09-11T11:26:42Z</time>
      </trkpt>
      <trkpt lat="45.95037" lon="4.54506">
        <ele>363.6</ele>
        <time>2025-09-11T11:26:43Z</time>
      </trkpt>
      <trkpt lat="45.95038" lon="4.54508">
        <ele>363.6</ele>
        <time>2025-09-11T11:26:44Z</time>
      </trkpt>
      <trkpt lat="45.95039" lon="4.54511">
        <ele>363.8</ele>
        <time>2025-09-11T11:26:45Z</time>
      </trkpt>
      <trkpt lat="45.9504" lon="4.54513">
        <ele>363.8</ele>
        <time>2025-09-11T11:26:46Z</time>
      </trkpt>
      <trkpt lat="45.95041" lon="4.54515">
        <ele>364.2</ele>
        <time>2025-09-11T11:26:47Z</time>
      </trkpt>
      <trkpt lat="45.95042" lon="4.54517">
        <ele>364.2</ele>
        <time>2025-09-11T11:26:48Z</time>
      </trkpt>
      <trkpt lat="45.95043" lon="4.54519">
        <ele>364.6</ele>
        <time>2025-09-11T11:26:49Z</time>
      </trkpt>
      <trkpt lat="45.95044" lon="4.54521">
        <ele>364.6</ele>
        <time>2025-09-11T11:26:50Z</time>
      </trkpt>
      <trkpt lat="45.95045" lon="4.54523">
        <ele>365</ele>
        <time>2025-09-11T11:26:51Z</time>
      </trkpt>
      <trkpt lat="45.95046" lon="4.54525">
        <ele>365</ele>
        <time>2025-09-11T11:26:52Z</time>
      </trkpt>
      <trkpt lat="45.95054" lon="4.54541">
        <ele>366.4</ele>
        <time>2025-09-11T11:27:02Z</time>
      </trkpt>
      <trkpt lat="45.95055" lon="4.54542">
        <ele>366.4</ele>
        <time>2025-09-11T11:27:03Z</time>
      </trkpt>
      <trkpt lat="45.95056" lon="4.54543">
        <ele>366.6</ele>
        <time>2025-09-11T11:27:04Z</time>
      </trkpt>
      <trkpt lat="45.95056" lon="4.54545">
        <ele>366.6</ele>
        <time>2025-09-11T11:27:05Z</time>
      </trkpt>
      <trkpt lat="45.95057" lon="4.54547">
        <ele>366.6</ele>
        <time>2025-09-11T11:27:06Z</time>
      </trkpt>
      <trkpt lat="45.95058" lon="4.54549">
        <ele>366.8</ele>
        <time>2025-09-11T11:27:07Z</time>
      </trkpt>
      <trkpt lat="45.95059" lon="4.5455">
        <ele>366.8</ele>
        <time>2025-09-11T11:27:08Z</time>
      </trkpt>
      <trkpt lat="45.9506" lon="4.54552">
        <ele>367</ele>
        <time>2025-09-11T11:27:09Z</time>
      </trkpt>
      <trkpt lat="45.9506" lon="4.54554">
        <ele>367</ele>
        <time>2025-09-11T11:27:10Z</time>
      </trkpt>
      <trkpt lat="45.95061" lon="4.54556">
        <ele>367.2</ele>
        <time>2025-09-11T11:27:11Z</time>
      </trkpt>
      <trkpt lat="45.95062" lon="4.54558">
        <ele>367.6</ele>
        <time>2025-09-11T11:27:12Z</time>
      </trkpt>
      <trkpt lat="45.95063" lon="4.5456">
        <ele>367.6</ele>
        <time>2025-09-11T11:27:13Z</time>
      </trkpt>
      <trkpt lat="45.95064" lon="4.54561">
        <ele>367.8</ele>
        <time>2025-09-11T11:27:14Z</time>
      </trkpt>
      <trkpt lat="45.95065" lon="4.54563">
        <ele>368</ele>
        <time>2025-09-11T11:27:15Z</time>
      </trkpt>
      <trkpt lat="45.95065" lon="4.54564">
        <ele>368.2</ele>
        <time>2025-09-11T11:27:16Z</time>
      </trkpt>
      <trkpt lat="45.95066" lon="4.54566">
        <ele>368.2</ele>
        <time>2025-09-11T11:27:17Z</time>
      </trkpt>
      <trkpt lat="45.95067" lon="4.54568">
        <ele>368.2</ele>
        <time>2025-09-11T11:27:18Z</time>
      </trkpt>
      <trkpt lat="45.95068" lon="4.54569">
        <ele>368.2</ele>
        <time>2025-09-11T11:27:19Z</time>
      </trkpt>
      <trkpt lat="45.95068" lon="4.54571">
        <ele>368.4</ele>
        <time>2025-09-11T11:27:20Z</time>
      </trkpt>
      <trkpt lat="45.95069" lon="4.54573">
        <ele>368.4</ele>
        <time>2025-09-11T11:27:21Z</time>
      </trkpt>
      <trkpt lat="45.95069" lon="4.54575">
        <ele>368.4</ele>
        <time>2025-09-11T11:27:22Z</time>
      </trkpt>
      <trkpt lat="45.9507" lon="4.54576">
        <ele>368.8</ele>
        <time>2025-09-11T11:27:23Z</time>
      </trkpt>
      <trkpt lat="45.95071" lon="4.54578">
        <ele>368.8</ele>
        <time>2025-09-11T11:27:24Z</time>
      </trkpt>
      <trkpt lat="45.95072" lon="4.54579">
        <ele>369</ele>
        <time>2025-09-11T11:27:25Z</time>
      </trkpt>
      <trkpt lat="45.95073" lon="4.5458">
        <ele>369</ele>
        <time>2025-09-11T11:27:26Z</time>
      </trkpt>
      <trkpt lat="45.95074" lon="4.54582">
        <ele>369.2</ele>
        <time>2025-09-11T11:27:27Z</time>
      </trkpt>
      <trkpt lat="45.95075" lon="4.54583">
        <ele>369.2</ele>
        <time>2025-09-11T11:27:28Z</time>
      </trkpt>
      <trkpt lat="45.95075" lon="4.54585">
        <ele>369.2</ele>
        <time>2025-09-11T11:27:29Z</time>
      </trkpt>
      <trkpt lat="45.95076" lon="4.54588">
        <ele>369.2</ele>
        <time>2025-09-11T11:27:30Z</time>
      </trkpt>
      <trkpt lat="45.95077" lon="4.54589">
        <ele>369.4</ele>
        <time>2025-09-11T11:27:31Z</time>
      </trkpt>
      <trkpt lat="45.95077" lon="4.54591">
        <ele>369.4</ele>
        <time>2025-09-11T11:27:32Z</time>
      </trkpt>
      <trkpt lat="45.95078" lon="4.54593">
        <ele>369.8</ele>
        <time>2025-09-11T11:27:33Z</time>
      </trkpt>
      <trkpt lat="45.95079" lon="4.54595">
        <ele>369.8</ele>
        <time>2025-09-11T11:27:34Z</time>
      </trkpt>
      <trkpt lat="45.95079" lon="4.54597">
        <ele>369.8</ele>
        <time>2025-09-11T11:27:35Z</time>
      </trkpt>
      <trkpt lat="45.9508" lon="4.54599">
        <ele>370</ele>
        <time>2025-09-11T11:27:36Z</time>
      </trkpt>
      <trkpt lat="45.95081" lon="4.54601">
        <ele>370</ele>
        <time>2025-09-11T11:27:37Z</time>
      </trkpt>
      <trkpt lat="45.95082" lon="4.54603">
        <ele>370</ele>
        <time>2025-09-11T11:27:38Z</time>
      </trkpt>
      <trkpt lat="45.95083" lon="4.54605">
        <ele>369.6</ele>
        <time>2025-09-11T11:27:39Z</time>
      </trkpt>
      <trkpt lat="45.95084" lon="4.54607">
        <ele>370.2</ele>
        <time>2025-09-11T11:27:40Z</time>
      </trkpt>
      <trkpt lat="45.95086" lon="4.54608">
        <ele>370.4</ele>
        <time>2025-09-11T11:27:41Z</time>
      </trkpt>
      <trkpt lat="45.95087" lon="4.5461">
        <ele>370.4</ele>
        <time>2025-09-11T11:27:42Z</time>
      </trkpt>
      <trkpt lat="45.95088" lon="4.54611">
        <ele>369.4</ele>
        <time>2025-09-11T11:27:43Z</time>
      </trkpt>
      <trkpt lat="45.95089" lon="4.54613">
        <ele>369.6</ele>
        <time>2025-09-11T11:27:44Z</time>
      </trkpt>
      <trkpt lat="45.9509" lon="4.54615">
        <ele>370.4</ele>
        <time>2025-09-11T11:27:45Z</time>
      </trkpt>
      <trkpt lat="45.9509" lon="4.54617">
        <ele>370.6</ele>
        <time>2025-09-11T11:27:46Z</time>
      </trkpt>
      <trkpt lat="45.95091" lon="4.54619">
        <ele>371</ele>
        <time>2025-09-11T11:27:47Z</time>
      </trkpt>
      <trkpt lat="45.95092" lon="4.54621">
        <ele>371.2</ele>
        <time>2025-09-11T11:27:48Z</time>
      </trkpt>
      <trkpt lat="45.95092" lon="4.54623">
        <ele>371.2</ele>
        <time>2025-09-11T11:27:49Z</time>
      </trkpt>
      <trkpt lat="45.95093" lon="4.54625">
        <ele>371.4</ele>
        <time>2025-09-11T11:27:50Z</time>
      </trkpt>
      <trkpt lat="45.95094" lon="4.54627">
        <ele>371.4</ele>
        <time>2025-09-11T11:27:51Z</time>
      </trkpt>
      <trkpt lat="45.95095" lon="4.54629">
        <ele>371.4</ele>
        <time>2025-09-11T11:27:52Z</time>
      </trkpt>
      <trkpt lat="45.95096" lon="4.54632">
        <ele>371.8</ele>
        <time>2025-09-11T11:27:53Z</time>
      </trkpt>
      <trkpt lat="45.95097" lon="4.54634">
        <ele>371.8</ele>
        <time>2025-09-11T11:27:54Z</time>
      </trkpt>
      <trkpt lat="45.95097" lon="4.54636">
        <ele>371.8</ele>
        <time>2025-09-11T11:27:55Z</time>
      </trkpt>
      <trkpt lat="45.95098" lon="4.54638">
        <ele>372</ele>
        <time>2025-09-11T11:27:56Z</time>
      </trkpt>
      <trkpt lat="45.95099" lon="4.54641">
        <ele>372</ele>
        <time>2025-09-11T11:27:57Z</time>
      </trkpt>
      <trkpt lat="45.951" lon="4.54643">
        <ele>372</ele>
        <time>2025-09-11T11:27:58Z</time>
      </trkpt>
      <trkpt lat="45.95101" lon="4.54645">
        <ele>372</ele>
        <time>2025-09-11T11:27:59Z</time>
      </trkpt>
      <trkpt lat="45.95102" lon="4.54647">
        <ele>372.2</ele>
        <time>2025-09-11T11:28:00Z</time>
      </trkpt>
      <trkpt lat="45.95103" lon="4.54649">
        <ele>372.2</ele>
        <time>2025-09-11T11:28:01Z</time>
      </trkpt>
      <trkpt lat="45.95104" lon="4.54651">
        <ele>372.2</ele>
        <time>2025-09-11T11:28:02Z</time>
      </trkpt>
      <trkpt lat="45.95105" lon="4.54654">
        <ele>372.6</ele>
        <time>2025-09-11T11:28:03Z</time>
      </trkpt>
      <trkpt lat="45.95106" lon="4.54656">
        <ele>372.6</ele>
        <time>2025-09-11T11:28:04Z</time>
      </trkpt>
      <trkpt lat="45.95107" lon="4.54658">
        <ele>372.8</ele>
        <time>2025-09-11T11:28:05Z</time>
      </trkpt>
      <trkpt lat="45.95108" lon="4.5466">
        <ele>372.8</ele>
        <time>2025-09-11T11:28:06Z</time>
      </trkpt>
      <trkpt lat="45.95108" lon="4.54662">
        <ele>372.8</ele>
        <time>2025-09-11T11:28:07Z</time>
      </trkpt>
      <trkpt lat="45.95109" lon="4.54664">
        <ele>373</ele>
        <time>2025-09-11T11:28:08Z</time>
      </trkpt>
      <trkpt lat="45.9511" lon="4.54666">
        <ele>373</ele>
        <time>2025-09-11T11:28:09Z</time>
      </trkpt>
      <trkpt lat="45.95111" lon="4.54668">
        <ele>373</ele>
        <time>2025-09-11T11:28:10Z</time>
      </trkpt>
      <trkpt lat="45.95112" lon="4.54671">
        <ele>373.4</ele>
        <time>2025-09-11T11:28:11Z</time>
      </trkpt>
      <trkpt lat="45.95113" lon="4.54673">
        <ele>373.4</ele>
        <time>2025-09-11T11:28:12Z</time>
      </trkpt>
      <trkpt lat="45.95113" lon="4.54675">
        <ele>373.4</ele>
        <time>2025-09-11T11:28:13Z</time>
      </trkpt>
      <trkpt lat="45.95114" lon="4.54677">
        <ele>373.8</ele>
        <time>2025-09-11T11:28:14Z</time>
      </trkpt>
      <trkpt lat="45.95115" lon="4.5468">
        <ele>373.8</ele>
        <time>2025-09-11T11:28:15Z</time>
      </trkpt>
      <trkpt lat="45.95116" lon="4.54682">
        <ele>373.8</ele>
        <time>2025-09-11T11:28:16Z</time>
      </trkpt>
      <trkpt lat="45.95117" lon="4.54684">
        <ele>373.8</ele>
        <time>2025-09-11T11:28:17Z</time>
      </trkpt>
      <trkpt lat="45.95118" lon="4.54686">
        <ele>373.8</ele>
        <time>2025-09-11T11:28:18Z</time>
      </trkpt>
      <trkpt lat="45.95119" lon="4.54689">
        <ele>373.8</ele>
        <time>2025-09-11T11:28:19Z</time>
      </trkpt>
      <trkpt lat="45.9512" lon="4.54691">
        <ele>373.8</ele>
        <time>2025-09-11T11:28:20Z</time>
      </trkpt>
      <trkpt lat="45.95121" lon="4.54694">
        <ele>374</ele>
        <time>2025-09-11T11:28:21Z</time>
      </trkpt>
      <trkpt lat="45.95123" lon="4.54696">
        <ele>374</ele>
        <time>2025-09-11T11:28:22Z</time>
      </trkpt>
      <trkpt lat="45.95124" lon="4.54699">
        <ele>374.4</ele>
        <time>2025-09-11T11:28:23Z</time>
      </trkpt>
      <trkpt lat="45.95125" lon="4.54701">
        <ele>374.4</ele>
        <time>2025-09-11T11:28:24Z</time>
      </trkpt>
      <trkpt lat="45.95126" lon="4.54703">
        <ele>374.6</ele>
        <time>2025-09-11T11:28:25Z</time>
      </trkpt>
      <trkpt lat="45.95127" lon="4.54706">
        <ele>374.6</ele>
        <time>2025-09-11T11:28:26Z</time>
      </trkpt>
      <trkpt lat="45.95128" lon="4.54709">
        <ele>375</ele>
        <time>2025-09-11T11:28:27Z</time>
      </trkpt>
      <trkpt lat="45.95129" lon="4.54711">
        <ele>375</ele>
        <time>2025-09-11T11:28:28Z</time>
      </trkpt>
      <trkpt lat="45.9513" lon="4.54713">
        <ele>375</ele>
        <time>2025-09-11T11:28:29Z</time>
      </trkpt>
      <trkpt lat="45.95131" lon="4.54716">
        <ele>375.2</ele>
        <time>2025-09-11T11:28:30Z</time>
      </trkpt>
      <trkpt lat="45.95132" lon="4.54719">
        <ele>375.2</ele>
        <time>2025-09-11T11:28:31Z</time>
      </trkpt>
      <trkpt lat="45.95133" lon="4.54721">
        <ele>375.2</ele>
        <time>2025-09-11T11:28:32Z</time>
      </trkpt>
      <trkpt lat="45.95134" lon="4.54724">
        <ele>375.4</ele>
        <time>2025-09-11T11:28:33Z</time>
      </trkpt>
      <trkpt lat="45.95135" lon="4.54726">
        <ele>375.4</ele>
        <time>2025-09-11T11:28:34Z</time>
      </trkpt>
      <trkpt lat="45.95136" lon="4.54729">
        <ele>375.4</ele>
        <time>2025-09-11T11:28:35Z</time>
      </trkpt>
      <trkpt lat="45.95137" lon="4.54731">
        <ele>375.4</ele>
        <time>2025-09-11T11:28:36Z</time>
      </trkpt>
      <trkpt lat="45.95139" lon="4.54734">
        <ele>375.6</ele>
        <time>2025-09-11T11:28:37Z</time>
      </trkpt>
      <trkpt lat="45.9514" lon="4.54736">
        <ele>375.6</ele>
        <time>2025-09-11T11:28:38Z</time>
      </trkpt>
      <trkpt lat="45.95141" lon="4.54739">
        <ele>375.6</ele>
        <time>2025-09-11T11:28:39Z</time>
      </trkpt>
      <trkpt lat="45.95142" lon="4.54742">
        <ele>375.6</ele>
        <time>2025-09-11T11:28:40Z</time>
      </trkpt>
      <trkpt lat="45.95143" lon="4.54745">
        <ele>376</ele>
        <time>2025-09-11T11:28:41Z</time>
      </trkpt>
      <trkpt lat="45.95144" lon="4.54748">
        <ele>376</ele>
        <time>2025-09-11T11:28:42Z</time>
      </trkpt>
      <trkpt lat="45.95145" lon="4.54751">
        <ele>376.2</ele>
        <time>2025-09-11T11:28:43Z</time>
      </trkpt>
      <trkpt lat="45.95146" lon="4.54754">
        <ele>376.2</ele>
        <time>2025-09-11T11:28:44Z</time>
      </trkpt>
      <trkpt lat="45.95147" lon="4.54756">
        <ele>376.2</ele>
        <time>2025-09-11T11:28:45Z</time>
      </trkpt>
      <trkpt lat="45.95149" lon="4.54759">
        <ele>376.2</ele>
        <time>2025-09-11T11:28:46Z</time>
      </trkpt>
      <trkpt lat="45.9515" lon="4.54761">
        <ele>376.4</ele>
        <time>2025-09-11T11:28:47Z</time>
      </trkpt>
      <trkpt lat="45.95151" lon="4.54764">
        <ele>376.4</ele>
        <time>2025-09-11T11:28:48Z</time>
      </trkpt>
      <trkpt lat="45.95152" lon="4.54766">
        <ele>376.4</ele>
        <time>2025-09-11T11:28:49Z</time>
      </trkpt>
      <trkpt lat="45.95154" lon="4.54769">
        <ele>376.4</ele>
        <time>2025-09-11T11:28:50Z</time>
      </trkpt>
      <trkpt lat="45.95155" lon="4.54772">
        <ele>376.4</ele>
        <time>2025-09-11T11:28:51Z</time>
      </trkpt>
      <trkpt lat="45.95156" lon="4.54774">
        <ele>376.6</ele>
        <time>2025-09-11T11:28:52Z</time>
      </trkpt>
      <trkpt lat="45.95157" lon="4.54777">
        <ele>376.6</ele>
        <time>2025-09-11T11:28:53Z</time>
      </trkpt>
      <trkpt lat="45.95159" lon="4.54779">
        <ele>376.6</ele>
        <time>2025-09-11T11:28:54Z</time>
      </trkpt>
      <trkpt lat="45.9516" lon="4.54781">
        <ele>377</ele>
        <time>2025-09-11T11:28:55Z</time>
      </trkpt>
      <trkpt lat="45.9516" lon="4.54784">
        <ele>377</ele>
        <time>2025-09-11T11:28:56Z</time>
      </trkpt>
      <trkpt lat="45.95161" lon="4.54787">
        <ele>377</ele>
        <time>2025-09-11T11:28:57Z</time>
      </trkpt>
      <trkpt lat="45.95162" lon="4.5479">
        <ele>377.4</ele>
        <time>2025-09-11T11:28:58Z</time>
      </trkpt>
      <trkpt lat="45.95164" lon="4.54792">
        <ele>377.4</ele>
        <time>2025-09-11T11:28:59Z</time>
      </trkpt>
      <trkpt lat="45.95165" lon="4.54795">
        <ele>377.4</ele>
        <time>2025-09-11T11:29:00Z</time>
      </trkpt>
      <trkpt lat="45.95167" lon="4.54797">
        <ele>377.4</ele>
        <time>2025-09-11T11:29:01Z</time>
      </trkpt>
      <trkpt lat="45.95169" lon="4.54799">
        <ele>377.4</ele>
        <time>2025-09-11T11:29:02Z</time>
      </trkpt>
      <trkpt lat="45.9517" lon="4.54801">
        <ele>377.4</ele>
        <time>2025-09-11T11:29:03Z</time>
      </trkpt>
      <trkpt lat="45.95172" lon="4.54804">
        <ele>377.4</ele>
        <time>2025-09-11T11:29:04Z</time>
      </trkpt>
      <trkpt lat="45.95174" lon="4.54806">
        <ele>377.6</ele>
        <time>2025-09-11T11:29:05Z</time>
      </trkpt>
      <trkpt lat="45.95175" lon="4.54809">
        <ele>377.6</ele>
        <time>2025-09-11T11:29:06Z</time>
      </trkpt>
      <trkpt lat="45.95177" lon="4.54812">
        <ele>377.6</ele>
        <time>2025-09-11T11:29:07Z</time>
      </trkpt>
      <trkpt lat="45.95179" lon="4.54814">
        <ele>377.6</ele>
        <time>2025-09-11T11:29:08Z</time>
      </trkpt>
      <trkpt lat="45.95181" lon="4.54817">
        <ele>377.8</ele>
        <time>2025-09-11T11:29:09Z</time>
      </trkpt>
      <trkpt lat="45.95183" lon="4.54819">
        <ele>378</ele>
        <time>2025-09-11T11:29:10Z</time>
      </trkpt>
      <trkpt lat="45.95185" lon="4.54822">
        <ele>378</ele>
        <time>2025-09-11T11:29:11Z</time>
      </trkpt>
      <trkpt lat="45.95187" lon="4.54824">
        <ele>378.2</ele>
        <time>2025-09-11T11:29:12Z</time>
      </trkpt>
      <trkpt lat="45.95189" lon="4.54826">
        <ele>378.8</ele>
        <time>2025-09-11T11:29:13Z</time>
      </trkpt>
      <trkpt lat="45.95191" lon="4.54829">
        <ele>378.8</ele>
        <time>2025-09-11T11:29:14Z</time>
      </trkpt>
      <trkpt lat="45.95193" lon="4.54831">
        <ele>378.8</ele>
        <time>2025-09-11T11:29:15Z</time>
      </trkpt>
      <trkpt lat="45.95195" lon="4.54834">
        <ele>378.8</ele>
        <time>2025-09-11T11:29:16Z</time>
      </trkpt>
      <trkpt lat="45.95196" lon="4.54836">
        <ele>378.8</ele>
        <time>2025-09-11T11:29:17Z</time>
      </trkpt>
      <trkpt lat="45.95198" lon="4.54838">
        <ele>378.8</ele>
        <time>2025-09-11T11:29:18Z</time>
      </trkpt>
      <trkpt lat="45.952" lon="4.54841">
        <ele>378.8</ele>
        <time>2025-09-11T11:29:19Z</time>
      </trkpt>
      <trkpt lat="45.95202" lon="4.54843">
        <ele>378.8</ele>
        <time>2025-09-11T11:29:20Z</time>
      </trkpt>
      <trkpt lat="45.95204" lon="4.54845">
        <ele>378.8</ele>
        <time>2025-09-11T11:29:21Z</time>
      </trkpt>
      <trkpt lat="45.95206" lon="4.54847">
        <ele>378.8</ele>
        <time>2025-09-11T11:29:22Z</time>
      </trkpt>
      <trkpt lat="45.95208" lon="4.54849">
        <ele>379.2</ele>
        <time>2025-09-11T11:29:23Z</time>
      </trkpt>
      <trkpt lat="45.95211" lon="4.54851">
        <ele>379.2</ele>
        <time>2025-09-11T11:29:24Z</time>
      </trkpt>
      <trkpt lat="45.95213" lon="4.54853">
        <ele>379.2</ele>
        <time>2025-09-11T11:29:25Z</time>
      </trkpt>
      <trkpt lat="45.95215" lon="4.54855">
        <ele>379.4</ele>
        <time>2025-09-11T11:29:26Z</time>
      </trkpt>
      <trkpt lat="45.95217" lon="4.54856">
        <ele>379.4</ele>
        <time>2025-09-11T11:29:27Z</time>
      </trkpt>
      <trkpt lat="45.95219" lon="4.54858">
        <ele>379.4</ele>
        <time>2025-09-11T11:29:28Z</time>
      </trkpt>
      <trkpt lat="45.95221" lon="4.54859">
        <ele>379.4</ele>
        <time>2025-09-11T11:29:29Z</time>
      </trkpt>
      <trkpt lat="45.95223" lon="4.54861">
        <ele>379.4</ele>
        <time>2025-09-11T11:29:30Z</time>
      </trkpt>
      <trkpt lat="45.95225" lon="4.54863">
        <ele>379.4</ele>
        <time>2025-09-11T11:29:31Z</time>
      </trkpt>
      <trkpt lat="45.95227" lon="4.54865">
        <ele>379.4</ele>
        <time>2025-09-11T11:29:32Z</time>
      </trkpt>
      <trkpt lat="45.9523" lon="4.54866">
        <ele>379.6</ele>
        <time>2025-09-11T11:29:33Z</time>
      </trkpt>
      <trkpt lat="45.95232" lon="4.54868">
        <ele>379.6</ele>
        <time>2025-09-11T11:29:34Z</time>
      </trkpt>
      <trkpt lat="45.95234" lon="4.5487">
        <ele>379.6</ele>
        <time>2025-09-11T11:29:35Z</time>
      </trkpt>
      <trkpt lat="45.95236" lon="4.54872">
        <ele>380</ele>
        <time>2025-09-11T11:29:36Z</time>
      </trkpt>
      <trkpt lat="45.95238" lon="4.54873">
        <ele>380</ele>
        <time>2025-09-11T11:29:37Z</time>
      </trkpt>
      <trkpt lat="45.9524" lon="4.54875">
        <ele>380.2</ele>
        <time>2025-09-11T11:29:38Z</time>
      </trkpt>
      <trkpt lat="45.95242" lon="4.54877">
        <ele>380.2</ele>
        <time>2025-09-11T11:29:39Z</time>
      </trkpt>
      <trkpt lat="45.95245" lon="4.54879">
        <ele>380.2</ele>
        <time>2025-09-11T11:29:40Z</time>
      </trkpt>
      <trkpt lat="45.95247" lon="4.54881">
        <ele>380.2</ele>
        <time>2025-09-11T11:29:41Z</time>
      </trkpt>
      <trkpt lat="45.95249" lon="4.54883">
        <ele>380.4</ele>
        <time>2025-09-11T11:29:42Z</time>
      </trkpt>
      <trkpt lat="45.95251" lon="4.54886">
        <ele>380.4</ele>
        <time>2025-09-11T11:29:43Z</time>
      </trkpt>
      <trkpt lat="45.95253" lon="4.54888">
        <ele>380.4</ele>
        <time>2025-09-11T11:29:44Z</time>
      </trkpt>
      <trkpt lat="45.95255" lon="4.5489">
        <ele>380.4</ele>
        <time>2025-09-11T11:29:45Z</time>
      </trkpt>
      <trkpt lat="45.95258" lon="4.54892">
        <ele>380.6</ele>
        <time>2025-09-11T11:29:46Z</time>
      </trkpt>
      <trkpt lat="45.9526" lon="4.54895">
        <ele>380.6</ele>
        <time>2025-09-11T11:29:47Z</time>
      </trkpt>
      <trkpt lat="45.95262" lon="4.54897">
        <ele>380.6</ele>
        <time>2025-09-11T11:29:48Z</time>
      </trkpt>
      <trkpt lat="45.95264" lon="4.549">
        <ele>380.8</ele>
        <time>2025-09-11T11:29:49Z</time>
      </trkpt>
      <trkpt lat="45.95266" lon="4.54902">
        <ele>380.8</ele>
        <time>2025-09-11T11:29:50Z</time>
      </trkpt>
      <trkpt lat="45.95267" lon="4.54905">
        <ele>380.8</ele>
        <time>2025-09-11T11:29:51Z</time>
      </trkpt>
      <trkpt lat="45.95269" lon="4.54907">
        <ele>381</ele>
        <time>2025-09-11T11:29:52Z</time>
      </trkpt>
      <trkpt lat="45.9527" lon="4.5491">
        <ele>381</ele>
        <time>2025-09-11T11:29:53Z</time>
      </trkpt>
      <trkpt lat="45.95272" lon="4.54913">
        <ele>381.4</ele>
        <time>2025-09-11T11:29:54Z</time>
      </trkpt>
      <trkpt lat="45.95274" lon="4.54915">
        <ele>381.4</ele>
        <time>2025-09-11T11:29:55Z</time>
      </trkpt>
      <trkpt lat="45.95275" lon="4.54918">
        <ele>381.6</ele>
        <time>2025-09-11T11:29:56Z</time>
      </trkpt>
      <trkpt lat="45.95277" lon="4.54921">
        <ele>381.6</ele>
        <time>2025-09-11T11:29:57Z</time>
      </trkpt>
      <trkpt lat="45.95278" lon="4.54923">
        <ele>381.6</ele>
        <time>2025-09-11T11:29:58Z</time>
      </trkpt>
      <trkpt lat="45.95279" lon="4.54926">
        <ele>381.8</ele>
        <time>2025-09-11T11:29:59Z</time>
      </trkpt>
      <trkpt lat="45.95281" lon="4.54928">
        <ele>381.8</ele>
        <time>2025-09-11T11:30:00Z</time>
      </trkpt>
      <trkpt lat="45.95282" lon="4.54931">
        <ele>382</ele>
        <time>2025-09-11T11:30:01Z</time>
      </trkpt>
      <trkpt lat="45.95284" lon="4.54934">
        <ele>382</ele>
        <time>2025-09-11T11:30:02Z</time>
      </trkpt>
      <trkpt lat="45.95285" lon="4.54937">
        <ele>382</ele>
        <time>2025-09-11T11:30:03Z</time>
      </trkpt>
      <trkpt lat="45.95286" lon="4.5494">
        <ele>382.2</ele>
        <time>2025-09-11T11:30:04Z</time>
      </trkpt>
      <trkpt lat="45.95288" lon="4.54943">
        <ele>382.2</ele>
        <time>2025-09-11T11:30:05Z</time>
      </trkpt>
      <trkpt lat="45.95289" lon="4.54946">
        <ele>382.2</ele>
        <time>2025-09-11T11:30:06Z</time>
      </trkpt>
      <trkpt lat="45.9529" lon="4.54949">
        <ele>382.2</ele>
        <time>2025-09-11T11:30:07Z</time>
      </trkpt>
      <trkpt lat="45.95291" lon="4.54953">
        <ele>382.6</ele>
        <time>2025-09-11T11:30:08Z</time>
      </trkpt>
      <trkpt lat="45.95293" lon="4.54956">
        <ele>382.6</ele>
        <time>2025-09-11T11:30:09Z</time>
      </trkpt>
      <trkpt lat="45.95294" lon="4.5496">
        <ele>382.8</ele>
        <time>2025-09-11T11:30:10Z</time>
      </trkpt>
      <trkpt lat="45.95295" lon="4.54963">
        <ele>382.8</ele>
        <time>2025-09-11T11:30:11Z</time>
      </trkpt>
      <trkpt lat="45.95296" lon="4.54966">
        <ele>382.8</ele>
        <time>2025-09-11T11:30:12Z</time>
      </trkpt>
      <trkpt lat="45.95297" lon="4.54969">
        <ele>382.8</ele>
        <time>2025-09-11T11:30:13Z</time>
      </trkpt>
      <trkpt lat="45.95298" lon="4.54973">
        <ele>383</ele>
        <time>2025-09-11T11:30:14Z</time>
      </trkpt>
      <trkpt lat="45.95298" lon="4.54977">
        <ele>383</ele>
        <time>2025-09-11T11:30:15Z</time>
      </trkpt>
      <trkpt lat="45.95299" lon="4.5498">
        <ele>383.4</ele>
        <time>2025-09-11T11:30:16Z</time>
      </trkpt>
      <trkpt lat="45.953" lon="4.54984">
        <ele>383.4</ele>
        <time>2025-09-11T11:30:17Z</time>
      </trkpt>
      <trkpt lat="45.953" lon="4.54988">
        <ele>383.4</ele>
        <time>2025-09-11T11:30:18Z</time>
      </trkpt>
      <trkpt lat="45.95301" lon="4.54991">
        <ele>383.6</ele>
        <time>2025-09-11T11:30:19Z</time>
      </trkpt>
      <trkpt lat="45.95302" lon="4.54995">
        <ele>383.6</ele>
        <time>2025-09-11T11:30:20Z</time>
      </trkpt>
      <trkpt lat="45.95302" lon="4.54998">
        <ele>383.8</ele>
        <time>2025-09-11T11:30:21Z</time>
      </trkpt>
      <trkpt lat="45.95303" lon="4.55002">
        <ele>383.8</ele>
        <time>2025-09-11T11:30:22Z</time>
      </trkpt>
      <trkpt lat="45.95304" lon="4.55005">
        <ele>383.8</ele>
        <time>2025-09-11T11:30:23Z</time>
      </trkpt>
      <trkpt lat="45.95304" lon="4.55009">
        <ele>384.2</ele>
        <time>2025-09-11T11:30:24Z</time>
      </trkpt>
      <trkpt lat="45.95305" lon="4.55012">
        <ele>384.2</ele>
        <time>2025-09-11T11:30:25Z</time>
      </trkpt>
      <trkpt lat="45.95305" lon="4.55016">
        <ele>384.2</ele>
        <time>2025-09-11T11:30:26Z</time>
      </trkpt>
      <trkpt lat="45.95306" lon="4.55019">
        <ele>384.2</ele>
        <time>2025-09-11T11:30:27Z</time>
      </trkpt>
      <trkpt lat="45.95306" lon="4.55022">
        <ele>384.4</ele>
        <time>2025-09-11T11:30:28Z</time>
      </trkpt>
      <trkpt lat="45.95306" lon="4.55024">
        <ele>384.4</ele>
        <time>2025-09-11T11:30:29Z</time>
      </trkpt>
      <trkpt lat="45.95305" lon="4.55026">
        <ele>384.6</ele>
        <time>2025-09-11T11:30:30Z</time>
      </trkpt>
      <trkpt lat="45.95305" lon="4.55028">
        <ele>384.6</ele>
        <time>2025-09-11T11:30:31Z</time>
      </trkpt>
      <trkpt lat="45.95304" lon="4.55029">
        <ele>384.8</ele>
        <time>2025-09-11T11:30:32Z</time>
      </trkpt>
      <trkpt lat="45.95304" lon="4.5503">
        <ele>384.8</ele>
        <time>2025-09-11T11:30:33Z</time>
      </trkpt>
      <trkpt lat="45.95303" lon="4.5503">
        <ele>384.8</ele>
        <time>2025-09-11T11:30:34Z</time>
      </trkpt>
      <trkpt lat="45.95302" lon="4.55031">
        <ele>385.2</ele>
        <time>2025-09-11T11:32:21Z</time>
      </trkpt>
      <trkpt lat="45.95303" lon="4.55032">
        <ele>385.2</ele>
        <time>2025-09-11T11:32:22Z</time>
      </trkpt>
      <trkpt lat="45.95305" lon="4.55034">
        <ele>385.2</ele>
        <time>2025-09-11T11:32:23Z</time>
      </trkpt>
      <trkpt lat="45.95307" lon="4.55035">
        <ele>385.2</ele>
        <time>2025-09-11T11:32:24Z</time>
      </trkpt>
      <trkpt lat="45.95309" lon="4.55038">
        <ele>385.2</ele>
        <time>2025-09-11T11:32:25Z</time>
      </trkpt>
      <trkpt lat="45.95309" lon="4.55041">
        <ele>385.2</ele>
        <time>2025-09-11T11:32:26Z</time>
      </trkpt>
      <trkpt lat="45.9531" lon="4.55045">
        <ele>385.2</ele>
        <time>2025-09-11T11:32:27Z</time>
      </trkpt>
      <trkpt lat="45.9531" lon="4.55048">
        <ele>385.2</ele>
        <time>2025-09-11T11:32:28Z</time>
      </trkpt>
      <trkpt lat="45.95311" lon="4.55052">
        <ele>385.2</ele>
        <time>2025-09-11T11:32:29Z</time>
      </trkpt>
      <trkpt lat="45.95312" lon="4.55055">
        <ele>385.4</ele>
        <time>2025-09-11T11:32:30Z</time>
      </trkpt>
      <trkpt lat="45.95313" lon="4.55058">
        <ele>385.4</ele>
        <time>2025-09-11T11:32:31Z</time>
      </trkpt>
      <trkpt lat="45.95314" lon="4.55062">
        <ele>385.4</ele>
        <time>2025-09-11T11:32:32Z</time>
      </trkpt>
      <trkpt lat="45.95315" lon="4.55065">
        <ele>385.4</ele>
        <time>2025-09-11T11:32:33Z</time>
      </trkpt>
      <trkpt lat="45.95317" lon="4.55068">
        <ele>385.4</ele>
        <time>2025-09-11T11:32:34Z</time>
      </trkpt>
      <trkpt lat="45.95318" lon="4.55072">
        <ele>385.6</ele>
        <time>2025-09-11T11:32:35Z</time>
      </trkpt>
      <trkpt lat="45.95319" lon="4.55075">
        <ele>385.6</ele>
        <time>2025-09-11T11:32:36Z</time>
      </trkpt>
      <trkpt lat="45.95321" lon="4.55078">
        <ele>385.6</ele>
        <time>2025-09-11T11:32:37Z</time>
      </trkpt>
      <trkpt lat="45.95322" lon="4.55081">
        <ele>385.8</ele>
        <time>2025-09-11T11:32:38Z</time>
      </trkpt>
      <trkpt lat="45.95324" lon="4.55084">
        <ele>385.8</ele>
        <time>2025-09-11T11:32:39Z</time>
      </trkpt>
      <trkpt lat="45.95326" lon="4.55087">
        <ele>385.8</ele>
        <time>2025-09-11T11:32:40Z</time>
      </trkpt>
      <trkpt lat="45.95328" lon="4.5509">
        <ele>385.8</ele>
        <time>2025-09-11T11:32:41Z</time>
      </trkpt>
      <trkpt lat="45.95331" lon="4.55092">
        <ele>386</ele>
        <time>2025-09-11T11:32:42Z</time>
      </trkpt>
      <trkpt lat="45.95333" lon="4.55095">
        <ele>386</ele>
        <time>2025-09-11T11:32:43Z</time>
      </trkpt>
      <trkpt lat="45.95335" lon="4.55098">
        <ele>386</ele>
        <time>2025-09-11T11:32:44Z</time>
      </trkpt>
      <trkpt lat="45.95337" lon="4.551">
        <ele>386</ele>
        <time>2025-09-11T11:32:45Z</time>
      </trkpt>
      <trkpt lat="45.95339" lon="4.55103">
        <ele>386</ele>
        <time>2025-09-11T11:32:46Z</time>
      </trkpt>
      <trkpt lat="45.95342" lon="4.55105">
        <ele>386</ele>
        <time>2025-09-11T11:32:47Z</time>
      </trkpt>
      <trkpt lat="45.95344" lon="4.55108">
        <ele>386</ele>
        <time>2025-09-11T11:32:48Z</time>
      </trkpt>
      <trkpt lat="45.95347" lon="4.5511">
        <ele>386</ele>
        <time>2025-09-11T11:32:49Z</time>
      </trkpt>
      <trkpt lat="45.95349" lon="4.55113">
        <ele>386.4</ele>
        <time>2025-09-11T11:32:50Z</time>
      </trkpt>
      <trkpt lat="45.95352" lon="4.55115">
        <ele>386.4</ele>
        <time>2025-09-11T11:32:51Z</time>
      </trkpt>
      <trkpt lat="45.95355" lon="4.55118">
        <ele>386.4</ele>
        <time>2025-09-11T11:32:52Z</time>
      </trkpt>
      <trkpt lat="45.95357" lon="4.5512">
        <ele>386.4</ele>
        <time>2025-09-11T11:32:53Z</time>
      </trkpt>
      <trkpt lat="45.9536" lon="4.55122">
        <ele>386.6</ele>
        <time>2025-09-11T11:32:54Z</time>
      </trkpt>
      <trkpt lat="45.95362" lon="4.55124">
        <ele>386.6</ele>
        <time>2025-09-11T11:32:55Z</time>
      </trkpt>
      <trkpt lat="45.95364" lon="4.55126">
        <ele>386.6</ele>
        <time>2025-09-11T11:32:56Z</time>
      </trkpt>
      <trkpt lat="45.95367" lon="4.55128">
        <ele>386.6</ele>
        <time>2025-09-11T11:32:57Z</time>
      </trkpt>
      <trkpt lat="45.95369" lon="4.5513">
        <ele>386.6</ele>
        <time>2025-09-11T11:32:58Z</time>
      </trkpt>
      <trkpt lat="45.95372" lon="4.55132">
        <ele>386.6</ele>
        <time>2025-09-11T11:32:59Z</time>
      </trkpt>
      <trkpt lat="45.95375" lon="4.55134">
        <ele>386.8</ele>
        <time>2025-09-11T11:33:00Z</time>
      </trkpt>
      <trkpt lat="45.95377" lon="4.55136">
        <ele>386.8</ele>
        <time>2025-09-11T11:33:01Z</time>
      </trkpt>
      <trkpt lat="45.9538" lon="4.55137">
        <ele>387.2</ele>
        <time>2025-09-11T11:33:02Z</time>
      </trkpt>
      <trkpt lat="45.95382" lon="4.55139">
        <ele>387.2</ele>
        <time>2025-09-11T11:33:03Z</time>
      </trkpt>
      <trkpt lat="45.95384" lon="4.55141">
        <ele>387.4</ele>
        <time>2025-09-11T11:33:04Z</time>
      </trkpt>
      <trkpt lat="45.95387" lon="4.55143">
        <ele>387.4</ele>
        <time>2025-09-11T11:33:05Z</time>
      </trkpt>
      <trkpt lat="45.9539" lon="4.55144">
        <ele>387.4</ele>
        <time>2025-09-11T11:33:06Z</time>
      </trkpt>
      <trkpt lat="45.95392" lon="4.55146">
        <ele>387.4</ele>
        <time>2025-09-11T11:33:07Z</time>
      </trkpt>
      <trkpt lat="45.95395" lon="4.55147">
        <ele>387.8</ele>
        <time>2025-09-11T11:33:08Z</time>
      </trkpt>
      <trkpt lat="45.95397" lon="4.55148">
        <ele>387.8</ele>
        <time>2025-09-11T11:33:09Z</time>
      </trkpt>
      <trkpt lat="45.95399" lon="4.55149">
        <ele>387.8</ele>
        <time>2025-09-11T11:33:10Z</time>
      </trkpt>
      <trkpt lat="45.95402" lon="4.55151">
        <ele>388.2</ele>
        <time>2025-09-11T11:33:11Z</time>
      </trkpt>
      <trkpt lat="45.95405" lon="4.55155">
        <ele>388.2</ele>
        <time>2025-09-11T11:33:12Z</time>
      </trkpt>
      <trkpt lat="45.95407" lon="4.55157">
        <ele>388.2</ele>
        <time>2025-09-11T11:33:13Z</time>
      </trkpt>
      <trkpt lat="45.95409" lon="4.55159">
        <ele>388.2</ele>
        <time>2025-09-11T11:33:14Z</time>
      </trkpt>
      <trkpt lat="45.95411" lon="4.5516">
        <ele>388.6</ele>
        <time>2025-09-11T11:33:15Z</time>
      </trkpt>
      <trkpt lat="45.95414" lon="4.55161">
        <ele>388.6</ele>
        <time>2025-09-11T11:33:16Z</time>
      </trkpt>
      <trkpt lat="45.95417" lon="4.55161">
        <ele>388.8</ele>
        <time>2025-09-11T11:33:17Z</time>
      </trkpt>
      <trkpt lat="45.9542" lon="4.55161">
        <ele>388.8</ele>
        <time>2025-09-11T11:33:18Z</time>
      </trkpt>
      <trkpt lat="45.95422" lon="4.55161">
        <ele>389</ele>
        <time>2025-09-11T11:33:19Z</time>
      </trkpt>
      <trkpt lat="45.95425" lon="4.55161">
        <ele>389</ele>
        <time>2025-09-11T11:33:20Z</time>
      </trkpt>
      <trkpt lat="45.95428" lon="4.55162">
        <ele>389.2</ele>
        <time>2025-09-11T11:33:21Z</time>
      </trkpt>
      <trkpt lat="45.95431" lon="4.55162">
        <ele>389.2</ele>
        <time>2025-09-11T11:33:22Z</time>
      </trkpt>
      <trkpt lat="45.95433" lon="4.55163">
        <ele>389.4</ele>
        <time>2025-09-11T11:33:23Z</time>
      </trkpt>
      <trkpt lat="45.95436" lon="4.55163">
        <ele>389.4</ele>
        <time>2025-09-11T11:33:24Z</time>
      </trkpt>
      <trkpt lat="45.95438" lon="4.55162">
        <ele>389.4</ele>
        <time>2025-09-11T11:33:25Z</time>
      </trkpt>
      <trkpt lat="45.95441" lon="4.55162">
        <ele>389.6</ele>
        <time>2025-09-11T11:33:26Z</time>
      </trkpt>
      <trkpt lat="45.95443" lon="4.55162">
        <ele>389.6</ele>
        <time>2025-09-11T11:33:27Z</time>
      </trkpt>
      <trkpt lat="45.95449" lon="4.55161">
        <ele>389.6</ele>
        <time>2025-09-11T11:33:28Z</time>
      </trkpt>
      <trkpt lat="45.95451" lon="4.55161">
        <ele>389.6</ele>
        <time>2025-09-11T11:33:29Z</time>
      </trkpt>
      <trkpt lat="45.95454" lon="4.55161">
        <ele>389.6</ele>
        <time>2025-09-11T11:33:30Z</time>
      </trkpt>
      <trkpt lat="45.95456" lon="4.55161">
        <ele>390</ele>
        <time>2025-09-11T11:33:31Z</time>
      </trkpt>
      <trkpt lat="45.95458" lon="4.5516">
        <ele>390</ele>
        <time>2025-09-11T11:33:32Z</time>
      </trkpt>
      <trkpt lat="45.95461" lon="4.5516">
        <ele>390</ele>
        <time>2025-09-11T11:33:33Z</time>
      </trkpt>
      <trkpt lat="45.95464" lon="4.55161">
        <ele>390</ele>
        <time>2025-09-11T11:33:34Z</time>
      </trkpt>
      <trkpt lat="45.95467" lon="4.55162">
        <ele>390</ele>
        <time>2025-09-11T11:33:35Z</time>
      </trkpt>
      <trkpt lat="45.95467" lon="4.55162">
        <ele>390.2</ele>
        <time>2025-09-11T11:33:36Z</time>
      </trkpt>
      <trkpt lat="45.9547" lon="4.55162">
        <ele>390.2</ele>
        <time>2025-09-11T11:33:37Z</time>
      </trkpt>
      <trkpt lat="45.95473" lon="4.55163">
        <ele>390.2</ele>
        <time>2025-09-11T11:33:38Z</time>
      </trkpt>
      <trkpt lat="45.95476" lon="4.55164">
        <ele>390.2</ele>
        <time>2025-09-11T11:33:39Z</time>
      </trkpt>
      <trkpt lat="45.9548" lon="4.55165">
        <ele>390.2</ele>
        <time>2025-09-11T11:33:40Z</time>
      </trkpt>
      <trkpt lat="45.95483" lon="4.55165">
        <ele>390.4</ele>
        <time>2025-09-11T11:33:41Z</time>
      </trkpt>
      <trkpt lat="45.95486" lon="4.55166">
        <ele>390.4</ele>
        <time>2025-09-11T11:33:42Z</time>
      </trkpt>
      <trkpt lat="45.9549" lon="4.55167">
        <ele>390.4</ele>
        <time>2025-09-11T11:33:43Z</time>
      </trkpt>
      <trkpt lat="45.95493" lon="4.55168">
        <ele>390.4</ele>
        <time>2025-09-11T11:33:44Z</time>
      </trkpt>
      <trkpt lat="45.95496" lon="4.55168">
        <ele>390.4</ele>
        <time>2025-09-11T11:33:45Z</time>
      </trkpt>
      <trkpt lat="45.95499" lon="4.5517">
        <ele>390.4</ele>
        <time>2025-09-11T11:33:46Z</time>
      </trkpt>
      <trkpt lat="45.95502" lon="4.55171">
        <ele>390.4</ele>
        <time>2025-09-11T11:33:47Z</time>
      </trkpt>
      <trkpt lat="45.95504" lon="4.55172">
        <ele>390.4</ele>
        <time>2025-09-11T11:33:48Z</time>
      </trkpt>
      <trkpt lat="45.95507" lon="4.55174">
        <ele>390.8</ele>
        <time>2025-09-11T11:33:49Z</time>
      </trkpt>
      <trkpt lat="45.95509" lon="4.55175">
        <ele>390.8</ele>
        <time>2025-09-11T11:33:50Z</time>
      </trkpt>
      <trkpt lat="45.95512" lon="4.55177">
        <ele>390.8</ele>
        <time>2025-09-11T11:33:51Z</time>
      </trkpt>
      <trkpt lat="45.95514" lon="4.55179">
        <ele>391</ele>
        <time>2025-09-11T11:33:52Z</time>
      </trkpt>
      <trkpt lat="45.95516" lon="4.5518">
        <ele>391</ele>
        <time>2025-09-11T11:33:53Z</time>
      </trkpt>
      <trkpt lat="45.95518" lon="4.55181">
        <ele>391.2</ele>
        <time>2025-09-11T11:33:54Z</time>
      </trkpt>
      <trkpt lat="45.9552" lon="4.55182">
        <ele>391.6</ele>
        <time>2025-09-11T11:33:55Z</time>
      </trkpt>
      <trkpt lat="45.95522" lon="4.55182">
        <ele>391.8</ele>
        <time>2025-09-11T11:33:56Z</time>
      </trkpt>
      <trkpt lat="45.95523" lon="4.55182">
        <ele>392</ele>
        <time>2025-09-11T11:33:57Z</time>
      </trkpt>
      <trkpt lat="45.95525" lon="4.55182">
        <ele>392.4</ele>
        <time>2025-09-11T11:33:58Z</time>
      </trkpt>
      <trkpt lat="45.95526" lon="4.55182">
        <ele>392.4</ele>
        <time>2025-09-11T11:33:59Z</time>
      </trkpt>
      <trkpt lat="45.95528" lon="4.55182">
        <ele>392.4</ele>
        <time>2025-09-11T11:34:00Z</time>
      </trkpt>
      <trkpt lat="45.9553" lon="4.55182">
        <ele>392.4</ele>
        <time>2025-09-11T11:34:01Z</time>
      </trkpt>
      <trkpt lat="45.95531" lon="4.55182">
        <ele>392.6</ele>
        <time>2025-09-11T11:34:02Z</time>
      </trkpt>
      <trkpt lat="45.95533" lon="4.55182">
        <ele>392.6</ele>
        <time>2025-09-11T11:34:03Z</time>
      </trkpt>
      <trkpt lat="45.95534" lon="4.55182">
        <ele>393</ele>
        <time>2025-09-11T11:34:04Z</time>
      </trkpt>
      <trkpt lat="45.95535" lon="4.55182">
        <ele>393</ele>
        <time>2025-09-11T11:34:05Z</time>
      </trkpt>
      <trkpt lat="45.95537" lon="4.55183">
        <ele>393.2</ele>
        <time>2025-09-11T11:34:06Z</time>
      </trkpt>
      <trkpt lat="45.95539" lon="4.55183">
        <ele>393.2</ele>
        <time>2025-09-11T11:34:07Z</time>
      </trkpt>
      <trkpt lat="45.9554" lon="4.55184">
        <ele>393.2</ele>
        <time>2025-09-11T11:34:08Z</time>
      </trkpt>
      <trkpt lat="45.95541" lon="4.55184">
        <ele>393.2</ele>
        <time>2025-09-11T11:34:09Z</time>
      </trkpt>
      <trkpt lat="45.95543" lon="4.55184">
        <ele>393.2</ele>
        <time>2025-09-11T11:34:10Z</time>
      </trkpt>
      <trkpt lat="45.95545" lon="4.55184">
        <ele>393.4</ele>
        <time>2025-09-11T11:34:11Z</time>
      </trkpt>
      <trkpt lat="45.95546" lon="4.55184">
        <ele>393.6</ele>
        <time>2025-09-11T11:34:12Z</time>
      </trkpt>
      <trkpt lat="45.95548" lon="4.55184">
        <ele>393.6</ele>
        <time>2025-09-11T11:34:13Z</time>
      </trkpt>
      <trkpt lat="45.95549" lon="4.55185">
        <ele>394</ele>
        <time>2025-09-11T11:34:14Z</time>
      </trkpt>
      <trkpt lat="45.9555" lon="4.55185">
        <ele>394.2</ele>
        <time>2025-09-11T11:34:15Z</time>
      </trkpt>
      <trkpt lat="45.95551" lon="4.55185">
        <ele>394.4</ele>
        <time>2025-09-11T11:34:16Z</time>
      </trkpt>
      <trkpt lat="45.95553" lon="4.55184">
        <ele>394.4</ele>
        <time>2025-09-11T11:34:17Z</time>
      </trkpt>
      <trkpt lat="45.95554" lon="4.55184">
        <ele>394.8</ele>
        <time>2025-09-11T11:34:18Z</time>
      </trkpt>
      <trkpt lat="45.95555" lon="4.55184">
        <ele>394.8</ele>
        <time>2025-09-11T11:34:19Z</time>
      </trkpt>
      <trkpt lat="45.95557" lon="4.55185">
        <ele>395</ele>
        <time>2025-09-11T11:34:20Z</time>
      </trkpt>
      <trkpt lat="45.95558" lon="4.55185">
        <ele>395.2</ele>
        <time>2025-09-11T11:34:21Z</time>
      </trkpt>
      <trkpt lat="45.9556" lon="4.55185">
        <ele>395.2</ele>
        <time>2025-09-11T11:34:22Z</time>
      </trkpt>
      <trkpt lat="45.95561" lon="4.55184">
        <ele>395.2</ele>
        <time>2025-09-11T11:34:23Z</time>
      </trkpt>
      <trkpt lat="45.95563" lon="4.55185">
        <ele>395.8</ele>
        <time>2025-09-11T11:34:24Z</time>
      </trkpt>
      <trkpt lat="45.95564" lon="4.55185">
        <ele>396</ele>
        <time>2025-09-11T11:34:25Z</time>
      </trkpt>
      <trkpt lat="45.95565" lon="4.55186">
        <ele>396.4</ele>
        <time>2025-09-11T11:34:26Z</time>
      </trkpt>
      <trkpt lat="45.95566" lon="4.55186">
        <ele>396.6</ele>
        <time>2025-09-11T11:34:27Z</time>
      </trkpt>
      <trkpt lat="45.95568" lon="4.55186">
        <ele>397</ele>
        <time>2025-09-11T11:34:28Z</time>
      </trkpt>
      <trkpt lat="45.95569" lon="4.55186">
        <ele>397</ele>
        <time>2025-09-11T11:34:29Z</time>
      </trkpt>
      <trkpt lat="45.95571" lon="4.55186">
        <ele>397.4</ele>
        <time>2025-09-11T11:34:30Z</time>
      </trkpt>
      <trkpt lat="45.95572" lon="4.55186">
        <ele>397.4</ele>
        <time>2025-09-11T11:34:31Z</time>
      </trkpt>
      <trkpt lat="45.95573" lon="4.55186">
        <ele>397.8</ele>
        <time>2025-09-11T11:34:32Z</time>
      </trkpt>
      <trkpt lat="45.95575" lon="4.55186">
        <ele>397.8</ele>
        <time>2025-09-11T11:34:33Z</time>
      </trkpt>
      <trkpt lat="45.95576" lon="4.55186">
        <ele>398</ele>
        <time>2025-09-11T11:34:34Z</time>
      </trkpt>
      <trkpt lat="45.95577" lon="4.55186">
        <ele>398.4</ele>
        <time>2025-09-11T11:34:35Z</time>
      </trkpt>
      <trkpt lat="45.95578" lon="4.55186">
        <ele>398.8</ele>
        <time>2025-09-11T11:34:36Z</time>
      </trkpt>
      <trkpt lat="45.9558" lon="4.55185">
        <ele>398.8</ele>
        <time>2025-09-11T11:34:37Z</time>
      </trkpt>
      <trkpt lat="45.9558" lon="4.55185">
        <ele>399.2</ele>
        <time>2025-09-11T11:34:38Z</time>
      </trkpt>
      <trkpt lat="45.95581" lon="4.55185">
        <ele>399.4</ele>
        <time>2025-09-11T11:34:39Z</time>
      </trkpt>
      <trkpt lat="45.95581" lon="4.55185">
        <ele>399.6</ele>
        <time>2025-09-11T11:34:40Z</time>
      </trkpt>
      <trkpt lat="45.95581" lon="4.55185">
        <ele>399.6</ele>
        <time>2025-09-11T11:34:41Z</time>
      </trkpt>
      <trkpt lat="45.95583" lon="4.55185">
        <ele>400</ele>
        <time>2025-09-11T11:34:53Z</time>
      </trkpt>
      <trkpt lat="45.95584" lon="4.55185">
        <ele>400</ele>
        <time>2025-09-11T11:34:54Z</time>
      </trkpt>
      <trkpt lat="45.95584" lon="4.55184">
        <ele>400</ele>
        <time>2025-09-11T11:34:55Z</time>
      </trkpt>
      <trkpt lat="45.95585" lon="4.55184">
        <ele>400</ele>
        <time>2025-09-11T11:34:56Z</time>
      </trkpt>
      <trkpt lat="45.95586" lon="4.55184">
        <ele>400.4</ele>
        <time>2025-09-11T11:34:57Z</time>
      </trkpt>
      <trkpt lat="45.95587" lon="4.55184">
        <ele>400.4</ele>
        <time>2025-09-11T11:34:58Z</time>
      </trkpt>
      <trkpt lat="45.95588" lon="4.55183">
        <ele>400.6</ele>
        <time>2025-09-11T11:34:59Z</time>
      </trkpt>
      <trkpt lat="45.9559" lon="4.55183">
        <ele>400.6</ele>
        <time>2025-09-11T11:35:00Z</time>
      </trkpt>
      <trkpt lat="45.9559" lon="4.55183">
        <ele>400.6</ele>
        <time>2025-09-11T11:35:01Z</time>
      </trkpt>
      <trkpt lat="45.95591" lon="4.55182">
        <ele>401</ele>
        <time>2025-09-11T11:35:02Z</time>
      </trkpt>
      <trkpt lat="45.95592" lon="4.55182">
        <ele>401</ele>
        <time>2025-09-11T11:35:03Z</time>
      </trkpt>
      <trkpt lat="45.95593" lon="4.55182">
        <ele>401</ele>
        <time>2025-09-11T11:35:04Z</time>
      </trkpt>
      <trkpt lat="45.95594" lon="4.55182">
        <ele>401</ele>
        <time>2025-09-11T11:35:05Z</time>
      </trkpt>
      <trkpt lat="45.95594" lon="4.55181">
        <ele>401</ele>
        <time>2025-09-11T11:35:06Z</time>
      </trkpt>
      <trkpt lat="45.95595" lon="4.55181">
        <ele>401.2</ele>
        <time>2025-09-11T11:35:07Z</time>
      </trkpt>
      <trkpt lat="45.95595" lon="4.55181">
        <ele>401.2</ele>
        <time>2025-09-11T11:35:08Z</time>
      </trkpt>
      <trkpt lat="45.95596" lon="4.5518">
        <ele>401.4</ele>
        <time>2025-09-11T11:35:09Z</time>
      </trkpt>
      <trkpt lat="45.95597" lon="4.5518">
        <ele>401.4</ele>
        <time>2025-09-11T11:35:10Z</time>
      </trkpt>
      <trkpt lat="45.95597" lon="4.55179">
        <ele>401.8</ele>
        <time>2025-09-11T11:35:11Z</time>
      </trkpt>
      <trkpt lat="45.95598" lon="4.55179">
        <ele>401.8</ele>
        <time>2025-09-11T11:35:12Z</time>
      </trkpt>
      <trkpt lat="45.95599" lon="4.55179">
        <ele>402.2</ele>
        <time>2025-09-11T11:35:13Z</time>
      </trkpt>
      <trkpt lat="45.95599" lon="4.55179">
        <ele>402.2</ele>
        <time>2025-09-11T11:35:14Z</time>
      </trkpt>
      <trkpt lat="45.956" lon="4.55179">
        <ele>402.6</ele>
        <time>2025-09-11T11:35:15Z</time>
      </trkpt>
      <trkpt lat="45.95601" lon="4.55179">
        <ele>402.6</ele>
        <time>2025-09-11T11:35:16Z</time>
      </trkpt>
      <trkpt lat="45.95601" lon="4.55179">
        <ele>402.6</ele>
        <time>2025-09-11T11:35:17Z</time>
      </trkpt>
      <trkpt lat="45.95602" lon="4.55179">
        <ele>402.8</ele>
        <time>2025-09-11T11:35:18Z</time>
      </trkpt>
      <trkpt lat="45.95603" lon="4.55179">
        <ele>402.8</ele>
        <time>2025-09-11T11:35:19Z</time>
      </trkpt>
      <trkpt lat="45.95604" lon="4.5518">
        <ele>402.8</ele>
        <time>2025-09-11T11:35:20Z</time>
      </trkpt>
      <trkpt lat="45.95605" lon="4.5518">
        <ele>403.4</ele>
        <time>2025-09-11T11:35:21Z</time>
      </trkpt>
      <trkpt lat="45.95606" lon="4.5518">
        <ele>403.6</ele>
        <time>2025-09-11T11:35:22Z</time>
      </trkpt>
      <trkpt lat="45.95606" lon="4.5518">
        <ele>404</ele>
        <time>2025-09-11T11:35:23Z</time>
      </trkpt>
      <trkpt lat="45.95607" lon="4.5518">
        <ele>404.2</ele>
        <time>2025-09-11T11:35:24Z</time>
      </trkpt>
      <trkpt lat="45.95608" lon="4.5518">
        <ele>404.2</ele>
        <time>2025-09-11T11:35:25Z</time>
      </trkpt>
      <trkpt lat="45.95609" lon="4.5518">
        <ele>404.4</ele>
        <time>2025-09-11T11:35:26Z</time>
      </trkpt>
      <trkpt lat="45.9561" lon="4.5518">
        <ele>404.4</ele>
        <time>2025-09-11T11:35:27Z</time>
      </trkpt>
      <trkpt lat="45.9561" lon="4.5518">
        <ele>404.4</ele>
        <time>2025-09-11T11:35:28Z</time>
      </trkpt>
      <trkpt lat="45.95611" lon="4.5518">
        <ele>404.8</ele>
        <time>2025-09-11T11:35:29Z</time>
      </trkpt>
      <trkpt lat="45.95612" lon="4.5518">
        <ele>405</ele>
        <time>2025-09-11T11:35:30Z</time>
      </trkpt>
      <trkpt lat="45.95613" lon="4.5518">
        <ele>405.2</ele>
        <time>2025-09-11T11:35:31Z</time>
      </trkpt>
      <trkpt lat="45.95614" lon="4.5518">
        <ele>405.6</ele>
        <time>2025-09-11T11:35:32Z</time>
      </trkpt>
      <trkpt lat="45.95614" lon="4.5518">
        <ele>405.6</ele>
        <time>2025-09-11T11:35:33Z</time>
      </trkpt>
      <trkpt lat="45.95615" lon="4.5518">
        <ele>405.6</ele>
        <time>2025-09-11T11:35:34Z</time>
      </trkpt>
      <trkpt lat="45.95615" lon="4.55179">
        <ele>405.8</ele>
        <time>2025-09-11T11:35:35Z</time>
      </trkpt>
      <trkpt lat="45.95616" lon="4.55179">
        <ele>405.8</ele>
        <time>2025-09-11T11:35:36Z</time>
      </trkpt>
      <trkpt lat="45.95617" lon="4.55179">
        <ele>406.2</ele>
        <time>2025-09-11T11:35:37Z</time>
      </trkpt>
      <trkpt lat="45.95618" lon="4.55179">
        <ele>406.2</ele>
        <time>2025-09-11T11:35:38Z</time>
      </trkpt>
      <trkpt lat="45.95618" lon="4.55179">
        <ele>406.4</ele>
        <time>2025-09-11T11:35:39Z</time>
      </trkpt>
      <trkpt lat="45.95619" lon="4.55179">
        <ele>406.4</ele>
        <time>2025-09-11T11:35:40Z</time>
      </trkpt>
      <trkpt lat="45.9562" lon="4.55179">
        <ele>406.4</ele>
        <time>2025-09-11T11:35:41Z</time>
      </trkpt>
      <trkpt lat="45.95621" lon="4.55178">
        <ele>406.8</ele>
        <time>2025-09-11T11:35:42Z</time>
      </trkpt>
      <trkpt lat="45.95622" lon="4.55178">
        <ele>407</ele>
        <time>2025-09-11T11:35:43Z</time>
      </trkpt>
      <trkpt lat="45.95622" lon="4.55178">
        <ele>407.2</ele>
        <time>2025-09-11T11:35:44Z</time>
      </trkpt>
      <trkpt lat="45.95623" lon="4.55178">
        <ele>407.4</ele>
        <time>2025-09-11T11:35:45Z</time>
      </trkpt>
      <trkpt lat="45.95624" lon="4.55178">
        <ele>407.4</ele>
        <time>2025-09-11T11:35:46Z</time>
      </trkpt>
      <trkpt lat="45.95625" lon="4.55178">
        <ele>407.4</ele>
        <time>2025-09-11T11:35:47Z</time>
      </trkpt>
      <trkpt lat="45.95625" lon="4.55178">
        <ele>407.6</ele>
        <time>2025-09-11T11:35:48Z</time>
      </trkpt>
      <trkpt lat="45.95626" lon="4.55179">
        <ele>407.6</ele>
        <time>2025-09-11T11:35:49Z</time>
      </trkpt>
      <trkpt lat="45.95627" lon="4.55179">
        <ele>408</ele>
        <time>2025-09-11T11:35:50Z</time>
      </trkpt>
      <trkpt lat="45.95627" lon="4.55179">
        <ele>408.2</ele>
        <time>2025-09-11T11:35:51Z</time>
      </trkpt>
      <trkpt lat="45.95628" lon="4.55179">
        <ele>408.4</ele>
        <time>2025-09-11T11:35:52Z</time>
      </trkpt>
      <trkpt lat="45.95629" lon="4.55179">
        <ele>408.4</ele>
        <time>2025-09-11T11:35:53Z</time>
      </trkpt>
      <trkpt lat="45.9563" lon="4.55178">
        <ele>408.8</ele>
        <time>2025-09-11T11:35:54Z</time>
      </trkpt>
      <trkpt lat="45.9563" lon="4.55178">
        <ele>409</ele>
        <time>2025-09-11T11:35:55Z</time>
      </trkpt>
      <trkpt lat="45.95631" lon="4.55178">
        <ele>409.4</ele>
        <time>2025-09-11T11:35:56Z</time>
      </trkpt>
      <trkpt lat="45.95632" lon="4.55178">
        <ele>409.6</ele>
        <time>2025-09-11T11:35:57Z</time>
      </trkpt>
      <trkpt lat="45.95633" lon="4.55178">
        <ele>409.8</ele>
        <time>2025-09-11T11:35:58Z</time>
      </trkpt>
      <trkpt lat="45.95634" lon="4.55178">
        <ele>409.8</ele>
        <time>2025-09-11T11:35:59Z</time>
      </trkpt>
      <trkpt lat="45.95635" lon="4.55177">
        <ele>410</ele>
        <time>2025-09-11T11:36:00Z</time>
      </trkpt>
      <trkpt lat="45.95635" lon="4.55177">
        <ele>410.4</ele>
        <time>2025-09-11T11:36:01Z</time>
      </trkpt>
      <trkpt lat="45.95636" lon="4.55177">
        <ele>410.6</ele>
        <time>2025-09-11T11:36:02Z</time>
      </trkpt>
      <trkpt lat="45.95637" lon="4.55177">
        <ele>410.6</ele>
        <time>2025-09-11T11:36:03Z</time>
      </trkpt>
      <trkpt lat="45.95638" lon="4.55177">
        <ele>411</ele>
        <time>2025-09-11T11:36:04Z</time>
      </trkpt>
      <trkpt lat="45.95638" lon="4.55177">
        <ele>411</ele>
        <time>2025-09-11T11:36:05Z</time>
      </trkpt>
      <trkpt lat="45.95639" lon="4.55177">
        <ele>411.2</ele>
        <time>2025-09-11T11:36:06Z</time>
      </trkpt>
      <trkpt lat="45.9564" lon="4.55177">
        <ele>411.2</ele>
        <time>2025-09-11T11:36:07Z</time>
      </trkpt>
      <trkpt lat="45.95641" lon="4.55177">
        <ele>411.4</ele>
        <time>2025-09-11T11:36:08Z</time>
      </trkpt>
      <trkpt lat="45.95641" lon="4.55177">
        <ele>411.4</ele>
        <time>2025-09-11T11:36:09Z</time>
      </trkpt>
      <trkpt lat="45.95642" lon="4.55177">
        <ele>411.8</ele>
        <time>2025-09-11T11:36:10Z</time>
      </trkpt>
      <trkpt lat="45.95643" lon="4.55177">
        <ele>411.8</ele>
        <time>2025-09-11T11:36:11Z</time>
      </trkpt>
      <trkpt lat="45.95644" lon="4.55177">
        <ele>412</ele>
        <time>2025-09-11T11:36:12Z</time>
      </trkpt>
      <trkpt lat="45.95644" lon="4.55177">
        <ele>412</ele>
        <time>2025-09-11T11:36:13Z</time>
      </trkpt>
      <trkpt lat="45.95645" lon="4.55177">
        <ele>412.2</ele>
        <time>2025-09-11T11:36:14Z</time>
      </trkpt>
      <trkpt lat="45.95646" lon="4.55177">
        <ele>412.2</ele>
        <time>2025-09-11T11:36:15Z</time>
      </trkpt>
      <trkpt lat="45.95646" lon="4.55177">
        <ele>412.2</ele>
        <time>2025-09-11T11:36:16Z</time>
      </trkpt>
      <trkpt lat="45.95647" lon="4.55177">
        <ele>412.4</ele>
        <time>2025-09-11T11:36:17Z</time>
      </trkpt>
      <trkpt lat="45.95649" lon="4.55177">
        <ele>412.4</ele>
        <time>2025-09-11T11:36:18Z</time>
      </trkpt>
      <trkpt lat="45.95649" lon="4.55177">
        <ele>412.8</ele>
        <time>2025-09-11T11:36:19Z</time>
      </trkpt>
      <trkpt lat="45.9565" lon="4.55177">
        <ele>412.8</ele>
        <time>2025-09-11T11:36:20Z</time>
      </trkpt>
      <trkpt lat="45.95651" lon="4.55177">
        <ele>412.8</ele>
        <time>2025-09-11T11:36:21Z</time>
      </trkpt>
      <trkpt lat="45.95652" lon="4.55177">
        <ele>412.8</ele>
        <time>2025-09-11T11:36:22Z</time>
      </trkpt>
      <trkpt lat="45.95653" lon="4.55178">
        <ele>413</ele>
        <time>2025-09-11T11:36:23Z</time>
      </trkpt>
      <trkpt lat="45.95653" lon="4.55178">
        <ele>413</ele>
        <time>2025-09-11T11:36:24Z</time>
      </trkpt>
      <trkpt lat="45.95654" lon="4.55178">
        <ele>413.4</ele>
        <time>2025-09-11T11:36:25Z</time>
      </trkpt>
      <trkpt lat="45.95655" lon="4.55178">
        <ele>413.6</ele>
        <time>2025-09-11T11:36:26Z</time>
      </trkpt>
      <trkpt lat="45.95656" lon="4.55179">
        <ele>413.8</ele>
        <time>2025-09-11T11:36:27Z</time>
      </trkpt>
      <trkpt lat="45.95656" lon="4.55179">
        <ele>414.2</ele>
        <time>2025-09-11T11:36:28Z</time>
      </trkpt>
      <trkpt lat="45.95657" lon="4.55179">
        <ele>414.4</ele>
        <time>2025-09-11T11:36:29Z</time>
      </trkpt>
      <trkpt lat="45.95658" lon="4.5518">
        <ele>414.6</ele>
        <time>2025-09-11T11:36:30Z</time>
      </trkpt>
      <trkpt lat="45.95659" lon="4.5518">
        <ele>414.6</ele>
        <time>2025-09-11T11:36:31Z</time>
      </trkpt>
      <trkpt lat="45.9566" lon="4.55181">
        <ele>414.8</ele>
        <time>2025-09-11T11:36:32Z</time>
      </trkpt>
      <trkpt lat="45.95661" lon="4.55181">
        <ele>414.8</ele>
        <time>2025-09-11T11:36:33Z</time>
      </trkpt>
      <trkpt lat="45.95662" lon="4.55182">
        <ele>415.2</ele>
        <time>2025-09-11T11:36:34Z</time>
      </trkpt>
      <trkpt lat="45.95663" lon="4.55183">
        <ele>415.4</ele>
        <time>2025-09-11T11:36:35Z</time>
      </trkpt>
      <trkpt lat="45.95664" lon="4.55183">
        <ele>415.4</ele>
        <time>2025-09-11T11:36:36Z</time>
      </trkpt>
      <trkpt lat="45.95664" lon="4.55184">
        <ele>415.4</ele>
        <time>2025-09-11T11:36:37Z</time>
      </trkpt>
      <trkpt lat="45.95666" lon="4.55184">
        <ele>415.8</ele>
        <time>2025-09-11T11:36:38Z</time>
      </trkpt>
      <trkpt lat="45.95667" lon="4.55185">
        <ele>415.8</ele>
        <time>2025-09-11T11:36:39Z</time>
      </trkpt>
      <trkpt lat="45.95667" lon="4.55186">
        <ele>416</ele>
        <time>2025-09-11T11:36:40Z</time>
      </trkpt>
      <trkpt lat="45.95668" lon="4.55186">
        <ele>416</ele>
        <time>2025-09-11T11:36:41Z</time>
      </trkpt>
      <trkpt lat="45.95669" lon="4.55187">
        <ele>416.2</ele>
        <time>2025-09-11T11:36:42Z</time>
      </trkpt>
      <trkpt lat="45.9567" lon="4.55187">
        <ele>416.4</ele>
        <time>2025-09-11T11:36:43Z</time>
      </trkpt>
      <trkpt lat="45.9567" lon="4.55188">
        <ele>416.4</ele>
        <time>2025-09-11T11:36:44Z</time>
      </trkpt>
      <trkpt lat="45.95671" lon="4.55188">
        <ele>416.4</ele>
        <time>2025-09-11T11:36:45Z</time>
      </trkpt>
      <trkpt lat="45.95672" lon="4.55189">
        <ele>416.8</ele>
        <time>2025-09-11T11:36:46Z</time>
      </trkpt>
      <trkpt lat="45.95672" lon="4.55189">
        <ele>416.8</ele>
        <time>2025-09-11T11:36:47Z</time>
      </trkpt>
      <trkpt lat="45.95673" lon="4.5519">
        <ele>417</ele>
        <time>2025-09-11T11:36:48Z</time>
      </trkpt>
      <trkpt lat="45.95674" lon="4.5519">
        <ele>417</ele>
        <time>2025-09-11T11:36:49Z</time>
      </trkpt>
      <trkpt lat="45.95675" lon="4.55191">
        <ele>417.4</ele>
        <time>2025-09-11T11:36:50Z</time>
      </trkpt>
      <trkpt lat="45.95676" lon="4.55192">
        <ele>417.4</ele>
        <time>2025-09-11T11:36:51Z</time>
      </trkpt>
      <trkpt lat="45.95677" lon="4.55192">
        <ele>417.4</ele>
        <time>2025-09-11T11:36:52Z</time>
      </trkpt>
      <trkpt lat="45.95678" lon="4.55193">
        <ele>417.4</ele>
        <time>2025-09-11T11:36:53Z</time>
      </trkpt>
      <trkpt lat="45.95679" lon="4.55194">
        <ele>417.8</ele>
        <time>2025-09-11T11:36:54Z</time>
      </trkpt>
      <trkpt lat="45.95679" lon="4.55194">
        <ele>417.8</ele>
        <time>2025-09-11T11:36:55Z</time>
      </trkpt>
      <trkpt lat="45.9568" lon="4.55194">
        <ele>418</ele>
        <time>2025-09-11T11:36:56Z</time>
      </trkpt>
      <trkpt lat="45.95681" lon="4.55195">
        <ele>418</ele>
        <time>2025-09-11T11:36:57Z</time>
      </trkpt>
      <trkpt lat="45.95682" lon="4.55195">
        <ele>418.2</ele>
        <time>2025-09-11T11:36:58Z</time>
      </trkpt>
      <trkpt lat="45.95682" lon="4.55195">
        <ele>418.2</ele>
        <time>2025-09-11T11:36:59Z</time>
      </trkpt>
      <trkpt lat="45.95683" lon="4.55196">
        <ele>418.6</ele>
        <time>2025-09-11T11:37:00Z</time>
      </trkpt>
      <trkpt lat="45.95684" lon="4.55196">
        <ele>418.8</ele>
        <time>2025-09-11T11:37:01Z</time>
      </trkpt>
      <trkpt lat="45.95684" lon="4.55197">
        <ele>418.8</ele>
        <time>2025-09-11T11:37:02Z</time>
      </trkpt>
      <trkpt lat="45.95685" lon="4.55197">
        <ele>419</ele>
        <time>2025-09-11T11:37:03Z</time>
      </trkpt>
      <trkpt lat="45.95686" lon="4.55198">
        <ele>419.4</ele>
        <time>2025-09-11T11:37:04Z</time>
      </trkpt>
      <trkpt lat="45.95686" lon="4.55198">
        <ele>419.4</ele>
        <time>2025-09-11T11:37:05Z</time>
      </trkpt>
      <trkpt lat="45.95687" lon="4.55198">
        <ele>419.6</ele>
        <time>2025-09-11T11:37:06Z</time>
      </trkpt>
      <trkpt lat="45.95688" lon="4.55198">
        <ele>419.6</ele>
        <time>2025-09-11T11:37:07Z</time>
      </trkpt>
      <trkpt lat="45.95688" lon="4.55199">
        <ele>419.8</ele>
        <time>2025-09-11T11:37:08Z</time>
      </trkpt>
      <trkpt lat="45.95689" lon="4.55199">
        <ele>419.8</ele>
        <time>2025-09-11T11:37:09Z</time>
      </trkpt>
      <trkpt lat="45.9569" lon="4.55199">
        <ele>420</ele>
        <time>2025-09-11T11:37:10Z</time>
      </trkpt>
      <trkpt lat="45.95691" lon="4.552">
        <ele>420</ele>
        <time>2025-09-11T11:37:11Z</time>
      </trkpt>
      <trkpt lat="45.95692" lon="4.552">
        <ele>420.4</ele>
        <time>2025-09-11T11:37:12Z</time>
      </trkpt>
      <trkpt lat="45.95693" lon="4.552">
        <ele>420.4</ele>
        <time>2025-09-11T11:37:13Z</time>
      </trkpt>
      <trkpt lat="45.95693" lon="4.55199">
        <ele>420.6</ele>
        <time>2025-09-11T11:37:14Z</time>
      </trkpt>
      <trkpt lat="45.95693" lon="4.55199">
        <ele>420.6</ele>
        <time>2025-09-11T11:37:15Z</time>
      </trkpt>
      <trkpt lat="45.95694" lon="4.55199">
        <ele>421</ele>
        <time>2025-09-11T11:37:39Z</time>
      </trkpt>
      <trkpt lat="45.95695" lon="4.552">
        <ele>421</ele>
        <time>2025-09-11T11:37:40Z</time>
      </trkpt>
      <trkpt lat="45.95695" lon="4.552">
        <ele>421</ele>
        <time>2025-09-11T11:37:41Z</time>
      </trkpt>
      <trkpt lat="45.95696" lon="4.55202">
        <ele>421.2</ele>
        <time>2025-09-11T11:37:42Z</time>
      </trkpt>
      <trkpt lat="45.95697" lon="4.55203">
        <ele>421.4</ele>
        <time>2025-09-11T11:37:43Z</time>
      </trkpt>
      <trkpt lat="45.95698" lon="4.55205">
        <ele>421.4</ele>
        <time>2025-09-11T11:37:44Z</time>
      </trkpt>
      <trkpt lat="45.95699" lon="4.55205">
        <ele>421.4</ele>
        <time>2025-09-11T11:37:45Z</time>
      </trkpt>
      <trkpt lat="45.957" lon="4.55206">
        <ele>421.4</ele>
        <time>2025-09-11T11:37:46Z</time>
      </trkpt>
      <trkpt lat="45.95701" lon="4.55206">
        <ele>421.6</ele>
        <time>2025-09-11T11:37:47Z</time>
      </trkpt>
      <trkpt lat="45.95702" lon="4.55207">
        <ele>421.6</ele>
        <time>2025-09-11T11:37:48Z</time>
      </trkpt>
      <trkpt lat="45.95703" lon="4.55207">
        <ele>421.6</ele>
        <time>2025-09-11T11:37:49Z</time>
      </trkpt>
      <trkpt lat="45.95704" lon="4.55208">
        <ele>421.8</ele>
        <time>2025-09-11T11:37:50Z</time>
      </trkpt>
      <trkpt lat="45.95704" lon="4.5521">
        <ele>421.8</ele>
        <time>2025-09-11T11:37:51Z</time>
      </trkpt>
      <trkpt lat="45.95705" lon="4.55211">
        <ele>422.2</ele>
        <time>2025-09-11T11:37:52Z</time>
      </trkpt>
      <trkpt lat="45.95705" lon="4.55212">
        <ele>422.2</ele>
        <time>2025-09-11T11:37:53Z</time>
      </trkpt>
      <trkpt lat="45.95706" lon="4.55213">
        <ele>422.2</ele>
        <time>2025-09-11T11:37:54Z</time>
      </trkpt>
      <trkpt lat="45.95707" lon="4.55214">
        <ele>422.6</ele>
        <time>2025-09-11T11:37:55Z</time>
      </trkpt>
      <trkpt lat="45.95708" lon="4.55215">
        <ele>422.6</ele>
        <time>2025-09-11T11:37:56Z</time>
      </trkpt>
      <trkpt lat="45.95708" lon="4.55216">
        <ele>422.6</ele>
        <time>2025-09-11T11:37:57Z</time>
      </trkpt>
      <trkpt lat="45.95709" lon="4.55218">
        <ele>422.6</ele>
        <time>2025-09-11T11:37:58Z</time>
      </trkpt>
      <trkpt lat="45.95709" lon="4.55218">
        <ele>422.6</ele>
        <time>2025-09-11T11:37:59Z</time>
      </trkpt>
      <trkpt lat="45.95709" lon="4.55218">
        <ele>423</ele>
        <time>2025-09-11T11:38:00Z</time>
      </trkpt>
      <trkpt lat="45.95711" lon="4.55222">
        <ele>423.2</ele>
        <time>2025-09-11T11:38:01Z</time>
      </trkpt>
      <trkpt lat="45.95712" lon="4.55223">
        <ele>423.4</ele>
        <time>2025-09-11T11:38:02Z</time>
      </trkpt>
      <trkpt lat="45.95712" lon="4.55224">
        <ele>423.4</ele>
        <time>2025-09-11T11:38:03Z</time>
      </trkpt>
      <trkpt lat="45.95713" lon="4.55226">
        <ele>423.4</ele>
        <time>2025-09-11T11:38:04Z</time>
      </trkpt>
      <trkpt lat="45.95713" lon="4.55227">
        <ele>423.4</ele>
        <time>2025-09-11T11:38:05Z</time>
      </trkpt>
      <trkpt lat="45.95715" lon="4.55228">
        <ele>423.8</ele>
        <time>2025-09-11T11:38:06Z</time>
      </trkpt>
      <trkpt lat="45.95716" lon="4.5523">
        <ele>423.8</ele>
        <time>2025-09-11T11:38:07Z</time>
      </trkpt>
      <trkpt lat="45.95717" lon="4.55231">
        <ele>423.8</ele>
        <time>2025-09-11T11:38:08Z</time>
      </trkpt>
      <trkpt lat="45.95717" lon="4.55232">
        <ele>423.8</ele>
        <time>2025-09-11T11:38:09Z</time>
      </trkpt>
      <trkpt lat="45.95718" lon="4.55233">
        <ele>423.8</ele>
        <time>2025-09-11T11:38:10Z</time>
      </trkpt>
      <trkpt lat="45.9572" lon="4.55234">
        <ele>423.8</ele>
        <time>2025-09-11T11:38:11Z</time>
      </trkpt>
      <trkpt lat="45.95721" lon="4.55235">
        <ele>423.8</ele>
        <time>2025-09-11T11:38:12Z</time>
      </trkpt>
      <trkpt lat="45.95722" lon="4.55235">
        <ele>424</ele>
        <time>2025-09-11T11:38:13Z</time>
      </trkpt>
      <trkpt lat="45.95723" lon="4.55236">
        <ele>424</ele>
        <time>2025-09-11T11:38:14Z</time>
      </trkpt>
      <trkpt lat="45.95724" lon="4.55236">
        <ele>424</ele>
        <time>2025-09-11T11:38:15Z</time>
      </trkpt>
      <trkpt lat="45.95725" lon="4.55237">
        <ele>424.4</ele>
        <time>2025-09-11T11:38:16Z</time>
      </trkpt>
      <trkpt lat="45.95726" lon="4.55237">
        <ele>424.8</ele>
        <time>2025-09-11T11:38:17Z</time>
      </trkpt>
      <trkpt lat="45.95727" lon="4.55237">
        <ele>425.2</ele>
        <time>2025-09-11T11:38:18Z</time>
      </trkpt>
      <trkpt lat="45.95728" lon="4.55238">
        <ele>425.4</ele>
        <time>2025-09-11T11:38:19Z</time>
      </trkpt>
      <trkpt lat="45.95728" lon="4.55239">
        <ele>425.6</ele>
        <time>2025-09-11T11:38:20Z</time>
      </trkpt>
      <trkpt lat="45.95729" lon="4.55239">
        <ele>425.6</ele>
        <time>2025-09-11T11:38:21Z</time>
      </trkpt>
      <trkpt lat="45.9573" lon="4.5524">
        <ele>426</ele>
        <time>2025-09-11T11:38:22Z</time>
      </trkpt>
      <trkpt lat="45.95731" lon="4.55241">
        <ele>426.4</ele>
        <time>2025-09-11T11:38:23Z</time>
      </trkpt>
      <trkpt lat="45.95732" lon="4.55242">
        <ele>426.4</ele>
        <time>2025-09-11T11:38:24Z</time>
      </trkpt>
      <trkpt lat="45.95733" lon="4.55243">
        <ele>426.6</ele>
        <time>2025-09-11T11:38:25Z</time>
      </trkpt>
      <trkpt lat="45.95733" lon="4.55244">
        <ele>426.6</ele>
        <time>2025-09-11T11:38:26Z</time>
      </trkpt>
      <trkpt lat="45.95734" lon="4.55244">
        <ele>426.6</ele>
        <time>2025-09-11T11:38:27Z</time>
      </trkpt>
      <trkpt lat="45.95735" lon="4.55245">
        <ele>426.6</ele>
        <time>2025-09-11T11:38:28Z</time>
      </trkpt>
      <trkpt lat="45.95736" lon="4.55245">
        <ele>426.8</ele>
        <time>2025-09-11T11:38:29Z</time>
      </trkpt>
      <trkpt lat="45.95737" lon="4.55246">
        <ele>426.8</ele>
        <time>2025-09-11T11:38:30Z</time>
      </trkpt>
      <trkpt lat="45.95737" lon="4.55247">
        <ele>427.2</ele>
        <time>2025-09-11T11:38:31Z</time>
      </trkpt>
      <trkpt lat="45.95738" lon="4.55247">
        <ele>427.2</ele>
        <time>2025-09-11T11:38:32Z</time>
      </trkpt>
      <trkpt lat="45.95739" lon="4.55248">
        <ele>427.2</ele>
        <time>2025-09-11T11:38:33Z</time>
      </trkpt>
      <trkpt lat="45.9574" lon="4.55248">
        <ele>427.4</ele>
        <time>2025-09-11T11:38:34Z</time>
      </trkpt>
      <trkpt lat="45.95741" lon="4.55249">
        <ele>427.4</ele>
        <time>2025-09-11T11:38:35Z</time>
      </trkpt>
      <trkpt lat="45.95742" lon="4.5525">
        <ele>427.4</ele>
        <time>2025-09-11T11:38:36Z</time>
      </trkpt>
      <trkpt lat="45.95742" lon="4.5525">
        <ele>427.4</ele>
        <time>2025-09-11T11:38:37Z</time>
      </trkpt>
      <trkpt lat="45.95743" lon="4.55251">
        <ele>427.8</ele>
        <time>2025-09-11T11:38:38Z</time>
      </trkpt>
      <trkpt lat="45.95744" lon="4.55252">
        <ele>428</ele>
        <time>2025-09-11T11:38:39Z</time>
      </trkpt>
      <trkpt lat="45.95744" lon="4.55253">
        <ele>428</ele>
        <time>2025-09-11T11:38:40Z</time>
      </trkpt>
      <trkpt lat="45.95745" lon="4.55253">
        <ele>428</ele>
        <time>2025-09-11T11:38:41Z</time>
      </trkpt>
      <trkpt lat="45.95746" lon="4.55254">
        <ele>428.2</ele>
        <time>2025-09-11T11:38:42Z</time>
      </trkpt>
      <trkpt lat="45.95747" lon="4.55254">
        <ele>428.2</ele>
        <time>2025-09-11T11:38:43Z</time>
      </trkpt>
      <trkpt lat="45.95748" lon="4.55255">
        <ele>428.4</ele>
        <time>2025-09-11T11:38:44Z</time>
      </trkpt>
      <trkpt lat="45.95749" lon="4.55256">
        <ele>428.4</ele>
        <time>2025-09-11T11:38:45Z</time>
      </trkpt>
      <trkpt lat="45.95749" lon="4.55256">
        <ele>428.4</ele>
        <time>2025-09-11T11:38:46Z</time>
      </trkpt>
      <trkpt lat="45.9575" lon="4.55257">
        <ele>428.8</ele>
        <time>2025-09-11T11:38:47Z</time>
      </trkpt>
      <trkpt lat="45.95751" lon="4.55258">
        <ele>429</ele>
        <time>2025-09-11T11:38:48Z</time>
      </trkpt>
      <trkpt lat="45.95752" lon="4.55258">
        <ele>429</ele>
        <time>2025-09-11T11:38:49Z</time>
      </trkpt>
      <trkpt lat="45.95753" lon="4.55259">
        <ele>429.4</ele>
        <time>2025-09-11T11:38:50Z</time>
      </trkpt>
      <trkpt lat="45.95753" lon="4.5526">
        <ele>429.4</ele>
        <time>2025-09-11T11:38:51Z</time>
      </trkpt>
      <trkpt lat="45.95754" lon="4.5526">
        <ele>429.6</ele>
        <time>2025-09-11T11:38:52Z</time>
      </trkpt>
      <trkpt lat="45.95755" lon="4.55261">
        <ele>429.6</ele>
        <time>2025-09-11T11:38:53Z</time>
      </trkpt>
      <trkpt lat="45.95755" lon="4.55262">
        <ele>430</ele>
        <time>2025-09-11T11:38:54Z</time>
      </trkpt>
      <trkpt lat="45.95756" lon="4.55263">
        <ele>430.2</ele>
        <time>2025-09-11T11:38:55Z</time>
      </trkpt>
      <trkpt lat="45.95757" lon="4.55263">
        <ele>430.2</ele>
        <time>2025-09-11T11:38:56Z</time>
      </trkpt>
      <trkpt lat="45.95757" lon="4.55264">
        <ele>430.8</ele>
        <time>2025-09-11T11:38:57Z</time>
      </trkpt>
      <trkpt lat="45.95758" lon="4.55265">
        <ele>431</ele>
        <time>2025-09-11T11:38:58Z</time>
      </trkpt>
      <trkpt lat="45.95759" lon="4.55265">
        <ele>431.4</ele>
        <time>2025-09-11T11:38:59Z</time>
      </trkpt>
      <trkpt lat="45.95759" lon="4.55266">
        <ele>431.4</ele>
        <time>2025-09-11T11:39:00Z</time>
      </trkpt>
      <trkpt lat="45.9576" lon="4.55267">
        <ele>431.8</ele>
        <time>2025-09-11T11:39:01Z</time>
      </trkpt>
      <trkpt lat="45.9576" lon="4.55267">
        <ele>431.8</ele>
        <time>2025-09-11T11:39:02Z</time>
      </trkpt>
      <trkpt lat="45.95761" lon="4.55268">
        <ele>432.2</ele>
        <time>2025-09-11T11:39:03Z</time>
      </trkpt>
      <trkpt lat="45.95762" lon="4.55269">
        <ele>432.2</ele>
        <time>2025-09-11T11:39:04Z</time>
      </trkpt>
      <trkpt lat="45.95762" lon="4.55269">
        <ele>432.4</ele>
        <time>2025-09-11T11:39:05Z</time>
      </trkpt>
      <trkpt lat="45.95763" lon="4.5527">
        <ele>432.4</ele>
        <time>2025-09-11T11:39:06Z</time>
      </trkpt>
      <trkpt lat="45.95763" lon="4.55271">
        <ele>432.8</ele>
        <time>2025-09-11T11:39:07Z</time>
      </trkpt>
      <trkpt lat="45.95764" lon="4.55272">
        <ele>432.8</ele>
        <time>2025-09-11T11:39:08Z</time>
      </trkpt>
      <trkpt lat="45.95765" lon="4.55272">
        <ele>433</ele>
        <time>2025-09-11T11:39:09Z</time>
      </trkpt>
      <trkpt lat="45.95765" lon="4.55273">
        <ele>433</ele>
        <time>2025-09-11T11:39:10Z</time>
      </trkpt>
      <trkpt lat="45.95766" lon="4.55273">
        <ele>433</ele>
        <time>2025-09-11T11:39:11Z</time>
      </trkpt>
      <trkpt lat="45.95767" lon="4.55274">
        <ele>433.2</ele>
        <time>2025-09-11T11:39:12Z</time>
      </trkpt>
      <trkpt lat="45.95767" lon="4.55274">
        <ele>433.2</ele>
        <time>2025-09-11T11:39:13Z</time>
      </trkpt>
      <trkpt lat="45.95767" lon="4.55275">
        <ele>433.2</ele>
        <time>2025-09-11T11:39:14Z</time>
      </trkpt>
      <trkpt lat="45.95767" lon="4.55275">
        <ele>433.6</ele>
        <time>2025-09-11T11:39:15Z</time>
      </trkpt>
      <trkpt lat="45.95768" lon="4.55275">
        <ele>433.6</ele>
        <time>2025-09-11T11:39:16Z</time>
      </trkpt>
      <trkpt lat="45.95769" lon="4.55276">
        <ele>433.8</ele>
        <time>2025-09-11T11:39:17Z</time>
      </trkpt>
      <trkpt lat="45.95769" lon="4.55277">
        <ele>433.8</ele>
        <time>2025-09-11T11:39:18Z</time>
      </trkpt>
      <trkpt lat="45.9577" lon="4.55277">
        <ele>433.8</ele>
        <time>2025-09-11T11:39:19Z</time>
      </trkpt>
      <trkpt lat="45.9577" lon="4.55278">
        <ele>434</ele>
        <time>2025-09-11T11:39:20Z</time>
      </trkpt>
      <trkpt lat="45.95771" lon="4.55279">
        <ele>434</ele>
        <time>2025-09-11T11:39:21Z</time>
      </trkpt>
      <trkpt lat="45.95771" lon="4.5528">
        <ele>434.4</ele>
        <time>2025-09-11T11:39:22Z</time>
      </trkpt>
      <trkpt lat="45.95772" lon="4.55281">
        <ele>434.6</ele>
        <time>2025-09-11T11:39:23Z</time>
      </trkpt>
      <trkpt lat="45.95772" lon="4.55282">
        <ele>434.6</ele>
        <time>2025-09-11T11:39:24Z</time>
      </trkpt>
      <trkpt lat="45.95773" lon="4.55282">
        <ele>434.8</ele>
        <time>2025-09-11T11:39:25Z</time>
      </trkpt>
      <trkpt lat="45.95774" lon="4.55283">
        <ele>434.8</ele>
        <time>2025-09-11T11:39:26Z</time>
      </trkpt>
      <trkpt lat="45.95774" lon="4.55284">
        <ele>434.8</ele>
        <time>2025-09-11T11:39:27Z</time>
      </trkpt>
      <trkpt lat="45.95775" lon="4.55285">
        <ele>435.2</ele>
        <time>2025-09-11T11:39:28Z</time>
      </trkpt>
      <trkpt lat="45.95776" lon="4.55285">
        <ele>435.2</ele>
        <time>2025-09-11T11:39:29Z</time>
      </trkpt>
      <trkpt lat="45.95777" lon="4.55286">
        <ele>435.4</ele>
        <time>2025-09-11T11:39:30Z</time>
      </trkpt>
      <trkpt lat="45.95777" lon="4.55287">
        <ele>435.4</ele>
        <time>2025-09-11T11:39:31Z</time>
      </trkpt>
      <trkpt lat="45.95778" lon="4.55288">
        <ele>435.6</ele>
        <time>2025-09-11T11:39:32Z</time>
      </trkpt>
      <trkpt lat="45.95778" lon="4.55289">
        <ele>435.6</ele>
        <time>2025-09-11T11:39:33Z</time>
      </trkpt>
      <trkpt lat="45.95778" lon="4.5529">
        <ele>435.6</ele>
        <time>2025-09-11T11:39:34Z</time>
      </trkpt>
      <trkpt lat="45.95779" lon="4.55291">
        <ele>436</ele>
        <time>2025-09-11T11:39:35Z</time>
      </trkpt>
      <trkpt lat="45.95779" lon="4.55292">
        <ele>436</ele>
        <time>2025-09-11T11:39:36Z</time>
      </trkpt>
      <trkpt lat="45.9578" lon="4.55293">
        <ele>436.4</ele>
        <time>2025-09-11T11:39:37Z</time>
      </trkpt>
      <trkpt lat="45.9578" lon="4.55294">
        <ele>436.4</ele>
        <time>2025-09-11T11:39:38Z</time>
      </trkpt>
      <trkpt lat="45.95781" lon="4.55295">
        <ele>436.4</ele>
        <time>2025-09-11T11:39:39Z</time>
      </trkpt>
      <trkpt lat="45.95781" lon="4.55296">
        <ele>436.6</ele>
        <time>2025-09-11T11:39:40Z</time>
      </trkpt>
      <trkpt lat="45.95782" lon="4.55297">
        <ele>436.8</ele>
        <time>2025-09-11T11:39:41Z</time>
      </trkpt>
      <trkpt lat="45.95783" lon="4.55298">
        <ele>437.2</ele>
        <time>2025-09-11T11:39:42Z</time>
      </trkpt>
      <trkpt lat="45.95783" lon="4.55299">
        <ele>437.2</ele>
        <time>2025-09-11T11:39:43Z</time>
      </trkpt>
      <trkpt lat="45.95784" lon="4.55301">
        <ele>437.2</ele>
        <time>2025-09-11T11:39:44Z</time>
      </trkpt>
      <trkpt lat="45.95784" lon="4.55301">
        <ele>437.4</ele>
        <time>2025-09-11T11:39:45Z</time>
      </trkpt>
      <trkpt lat="45.95785" lon="4.55302">
        <ele>437.4</ele>
        <time>2025-09-11T11:39:46Z</time>
      </trkpt>
      <trkpt lat="45.95785" lon="4.55303">
        <ele>437.4</ele>
        <time>2025-09-11T11:39:47Z</time>
      </trkpt>
      <trkpt lat="45.95786" lon="4.55305">
        <ele>437.8</ele>
        <time>2025-09-11T11:39:48Z</time>
      </trkpt>
      <trkpt lat="45.95786" lon="4.55306">
        <ele>438</ele>
        <time>2025-09-11T11:39:49Z</time>
      </trkpt>
      <trkpt lat="45.95787" lon="4.55307">
        <ele>438</ele>
        <time>2025-09-11T11:39:50Z</time>
      </trkpt>
      <trkpt lat="45.95787" lon="4.55308">
        <ele>438.4</ele>
        <time>2025-09-11T11:39:51Z</time>
      </trkpt>
      <trkpt lat="45.95788" lon="4.55309">
        <ele>438.4</ele>
        <time>2025-09-11T11:39:52Z</time>
      </trkpt>
      <trkpt lat="45.95788" lon="4.5531">
        <ele>438.4</ele>
        <time>2025-09-11T11:39:53Z</time>
      </trkpt>
      <trkpt lat="45.95789" lon="4.55311">
        <ele>438.4</ele>
        <time>2025-09-11T11:39:54Z</time>
      </trkpt>
      <trkpt lat="45.95789" lon="4.55312">
        <ele>438.6</ele>
        <time>2025-09-11T11:39:55Z</time>
      </trkpt>
      <trkpt lat="45.9579" lon="4.55312">
        <ele>438.6</ele>
        <time>2025-09-11T11:39:56Z</time>
      </trkpt>
      <trkpt lat="45.95791" lon="4.55313">
        <ele>439</ele>
        <time>2025-09-11T11:39:57Z</time>
      </trkpt>
      <trkpt lat="45.95792" lon="4.55314">
        <ele>439</ele>
        <time>2025-09-11T11:39:58Z</time>
      </trkpt>
      <trkpt lat="45.95792" lon="4.55314">
        <ele>439.4</ele>
        <time>2025-09-11T11:39:59Z</time>
      </trkpt>
      <trkpt lat="45.95793" lon="4.55315">
        <ele>439.6</ele>
        <time>2025-09-11T11:40:00Z</time>
      </trkpt>
      <trkpt lat="45.95794" lon="4.55316">
        <ele>439.6</ele>
        <time>2025-09-11T11:40:01Z</time>
      </trkpt>
      <trkpt lat="45.95794" lon="4.55317">
        <ele>439.6</ele>
        <time>2025-09-11T11:40:02Z</time>
      </trkpt>
      <trkpt lat="45.95795" lon="4.55318">
        <ele>439.8</ele>
        <time>2025-09-11T11:40:03Z</time>
      </trkpt>
      <trkpt lat="45.95795" lon="4.55319">
        <ele>439.8</ele>
        <time>2025-09-11T11:40:04Z</time>
      </trkpt>
      <trkpt lat="45.95796" lon="4.5532">
        <ele>440</ele>
        <time>2025-09-11T11:40:05Z</time>
      </trkpt>
      <trkpt lat="45.95796" lon="4.55321">
        <ele>440</ele>
        <time>2025-09-11T11:40:06Z</time>
      </trkpt>
      <trkpt lat="45.95797" lon="4.55322">
        <ele>440.2</ele>
        <time>2025-09-11T11:40:07Z</time>
      </trkpt>
      <trkpt lat="45.95798" lon="4.55323">
        <ele>440.2</ele>
        <time>2025-09-11T11:40:08Z</time>
      </trkpt>
      <trkpt lat="45.95798" lon="4.55323">
        <ele>440.2</ele>
        <time>2025-09-11T11:40:09Z</time>
      </trkpt>
      <trkpt lat="45.95799" lon="4.55324">
        <ele>440.2</ele>
        <time>2025-09-11T11:40:10Z</time>
      </trkpt>
      <trkpt lat="45.95799" lon="4.55324">
        <ele>440.2</ele>
        <time>2025-09-11T11:40:11Z</time>
      </trkpt>
      <trkpt lat="45.95799" lon="4.55324">
        <ele>440.4</ele>
        <time>2025-09-11T11:40:12Z</time>
      </trkpt>
      <trkpt lat="45.95799" lon="4.55325">
        <ele>440.6</ele>
        <time>2025-09-11T11:40:20Z</time>
      </trkpt>
      <trkpt lat="45.958" lon="4.55325">
        <ele>440.6</ele>
        <time>2025-09-11T11:40:21Z</time>
      </trkpt>
      <trkpt lat="45.95802" lon="4.55326">
        <ele>440.6</ele>
        <time>2025-09-11T11:40:22Z</time>
      </trkpt>
      <trkpt lat="45.95803" lon="4.55327">
        <ele>440.6</ele>
        <time>2025-09-11T11:40:23Z</time>
      </trkpt>
      <trkpt lat="45.95804" lon="4.55328">
        <ele>440.6</ele>
        <time>2025-09-11T11:40:24Z</time>
      </trkpt>
      <trkpt lat="45.95805" lon="4.55328">
        <ele>441</ele>
        <time>2025-09-11T11:40:25Z</time>
      </trkpt>
      <trkpt lat="45.95806" lon="4.55329">
        <ele>441</ele>
        <time>2025-09-11T11:40:26Z</time>
      </trkpt>
      <trkpt lat="45.95807" lon="4.5533">
        <ele>441</ele>
        <time>2025-09-11T11:40:27Z</time>
      </trkpt>
      <trkpt lat="45.95808" lon="4.55331">
        <ele>441</ele>
        <time>2025-09-11T11:40:28Z</time>
      </trkpt>
      <trkpt lat="45.95809" lon="4.55331">
        <ele>441</ele>
        <time>2025-09-11T11:40:29Z</time>
      </trkpt>
      <trkpt lat="45.9581" lon="4.55332">
        <ele>441.4</ele>
        <time>2025-09-11T11:40:30Z</time>
      </trkpt>
      <trkpt lat="45.95811" lon="4.55332">
        <ele>441.4</ele>
        <time>2025-09-11T11:40:31Z</time>
      </trkpt>
      <trkpt lat="45.95812" lon="4.55333">
        <ele>441.4</ele>
        <time>2025-09-11T11:40:32Z</time>
      </trkpt>
      <trkpt lat="45.95813" lon="4.55333">
        <ele>441.6</ele>
        <time>2025-09-11T11:40:33Z</time>
      </trkpt>
      <trkpt lat="45.95814" lon="4.55334">
        <ele>441.6</ele>
        <time>2025-09-11T11:40:34Z</time>
      </trkpt>
      <trkpt lat="45.95814" lon="4.55335">
        <ele>441.6</ele>
        <time>2025-09-11T11:40:35Z</time>
      </trkpt>
      <trkpt lat="45.95815" lon="4.55336">
        <ele>441.6</ele>
        <time>2025-09-11T11:40:36Z</time>
      </trkpt>
      <trkpt lat="45.95816" lon="4.55337">
        <ele>441.8</ele>
        <time>2025-09-11T11:40:37Z</time>
      </trkpt>
      <trkpt lat="45.95817" lon="4.55338">
        <ele>442</ele>
        <time>2025-09-11T11:40:38Z</time>
      </trkpt>
      <trkpt lat="45.95818" lon="4.55339">
        <ele>442</ele>
        <time>2025-09-11T11:40:39Z</time>
      </trkpt>
      <trkpt lat="45.95819" lon="4.5534">
        <ele>442.2</ele>
        <time>2025-09-11T11:40:40Z</time>
      </trkpt>
      <trkpt lat="45.9582" lon="4.5534">
        <ele>442.2</ele>
        <time>2025-09-11T11:40:41Z</time>
      </trkpt>
      <trkpt lat="45.95821" lon="4.55341">
        <ele>442.6</ele>
        <time>2025-09-11T11:40:42Z</time>
      </trkpt>
      <trkpt lat="45.95822" lon="4.55341">
        <ele>442.8</ele>
        <time>2025-09-11T11:40:43Z</time>
      </trkpt>
      <trkpt lat="45.95823" lon="4.55342">
        <ele>442.8</ele>
        <time>2025-09-11T11:40:44Z</time>
      </trkpt>
      <trkpt lat="45.95824" lon="4.55342">
        <ele>442.8</ele>
        <time>2025-09-11T11:40:45Z</time>
      </trkpt>
      <trkpt lat="45.95825" lon="4.55343">
        <ele>443.2</ele>
        <time>2025-09-11T11:40:46Z</time>
      </trkpt>
      <trkpt lat="45.95826" lon="4.55344">
        <ele>443.2</ele>
        <time>2025-09-11T11:40:47Z</time>
      </trkpt>
      <trkpt lat="45.95827" lon="4.55345">
        <ele>443.6</ele>
        <time>2025-09-11T11:40:48Z</time>
      </trkpt>
      <trkpt lat="45.95828" lon="4.55346">
        <ele>443.6</ele>
        <time>2025-09-11T11:40:49Z</time>
      </trkpt>
      <trkpt lat="45.95829" lon="4.55346">
        <ele>443.6</ele>
        <time>2025-09-11T11:40:50Z</time>
      </trkpt>
      <trkpt lat="45.9583" lon="4.55347">
        <ele>443.8</ele>
        <time>2025-09-11T11:40:51Z</time>
      </trkpt>
      <trkpt lat="45.95831" lon="4.55347">
        <ele>444</ele>
        <time>2025-09-11T11:40:52Z</time>
      </trkpt>
      <trkpt lat="45.95832" lon="4.55348">
        <ele>444.4</ele>
        <time>2025-09-11T11:40:53Z</time>
      </trkpt>
      <trkpt lat="45.95833" lon="4.55348">
        <ele>444.6</ele>
        <time>2025-09-11T11:40:54Z</time>
      </trkpt>
      <trkpt lat="45.95834" lon="4.55348">
        <ele>444.6</ele>
        <time>2025-09-11T11:40:55Z</time>
      </trkpt>
      <trkpt lat="45.95835" lon="4.55349">
        <ele>444.6</ele>
        <time>2025-09-11T11:40:56Z</time>
      </trkpt>
      <trkpt lat="45.95836" lon="4.55349">
        <ele>445.2</ele>
        <time>2025-09-11T11:40:57Z</time>
      </trkpt>
      <trkpt lat="45.95837" lon="4.55349">
        <ele>445.2</ele>
        <time>2025-09-11T11:40:58Z</time>
      </trkpt>
      <trkpt lat="45.95838" lon="4.5535">
        <ele>445.4</ele>
        <time>2025-09-11T11:40:59Z</time>
      </trkpt>
      <trkpt lat="45.95839" lon="4.5535">
        <ele>445.6</ele>
        <time>2025-09-11T11:41:00Z</time>
      </trkpt>
      <trkpt lat="45.9584" lon="4.5535">
        <ele>445.6</ele>
        <time>2025-09-11T11:41:01Z</time>
      </trkpt>
      <trkpt lat="45.9584" lon="4.5535">
        <ele>446</ele>
        <time>2025-09-11T11:41:02Z</time>
      </trkpt>
      <trkpt lat="45.95841" lon="4.5535">
        <ele>446</ele>
        <time>2025-09-11T11:41:03Z</time>
      </trkpt>
      <trkpt lat="45.95842" lon="4.5535">
        <ele>446.2</ele>
        <time>2025-09-11T11:41:04Z</time>
      </trkpt>
      <trkpt lat="45.95843" lon="4.5535">
        <ele>446.2</ele>
        <time>2025-09-11T11:41:05Z</time>
      </trkpt>
      <trkpt lat="45.95843" lon="4.5535">
        <ele>446.4</ele>
        <time>2025-09-11T11:41:06Z</time>
      </trkpt>
      <trkpt lat="45.95843" lon="4.5535">
        <ele>447</ele>
        <time>2025-09-11T11:41:07Z</time>
      </trkpt>
      <trkpt lat="45.95846" lon="4.55351">
        <ele>446.8</ele>
        <time>2025-09-11T11:41:27Z</time>
      </trkpt>
      <trkpt lat="45.95847" lon="4.55351">
        <ele>446.8</ele>
        <time>2025-09-11T11:41:28Z</time>
      </trkpt>
      <trkpt lat="45.95848" lon="4.55351">
        <ele>447</ele>
        <time>2025-09-11T11:41:29Z</time>
      </trkpt>
      <trkpt lat="45.95849" lon="4.55351">
        <ele>447</ele>
        <time>2025-09-11T11:41:30Z</time>
      </trkpt>
      <trkpt lat="45.9585" lon="4.5535">
        <ele>447</ele>
        <time>2025-09-11T11:41:31Z</time>
      </trkpt>
      <trkpt lat="45.95851" lon="4.5535">
        <ele>447.2</ele>
        <time>2025-09-11T11:41:32Z</time>
      </trkpt>
      <trkpt lat="45.95853" lon="4.55349">
        <ele>447.2</ele>
        <time>2025-09-11T11:41:33Z</time>
      </trkpt>
      <trkpt lat="45.95854" lon="4.55349">
        <ele>447.6</ele>
        <time>2025-09-11T11:41:34Z</time>
      </trkpt>
      <trkpt lat="45.95855" lon="4.55348">
        <ele>448</ele>
        <time>2025-09-11T11:41:35Z</time>
      </trkpt>
      <trkpt lat="45.95855" lon="4.55348">
        <ele>448</ele>
        <time>2025-09-11T11:41:36Z</time>
      </trkpt>
      <trkpt lat="45.95856" lon="4.55347">
        <ele>448.4</ele>
        <time>2025-09-11T11:41:37Z</time>
      </trkpt>
      <trkpt lat="45.95857" lon="4.55347">
        <ele>448.6</ele>
        <time>2025-09-11T11:41:38Z</time>
      </trkpt>
      <trkpt lat="45.95858" lon="4.55346">
        <ele>448.6</ele>
        <time>2025-09-11T11:41:39Z</time>
      </trkpt>
      <trkpt lat="45.95859" lon="4.55345">
        <ele>449</ele>
        <time>2025-09-11T11:41:40Z</time>
      </trkpt>
      <trkpt lat="45.9586" lon="4.55345">
        <ele>449.2</ele>
        <time>2025-09-11T11:41:41Z</time>
      </trkpt>
      <trkpt lat="45.9586" lon="4.55344">
        <ele>449.2</ele>
        <time>2025-09-11T11:41:42Z</time>
      </trkpt>
      <trkpt lat="45.95861" lon="4.55343">
        <ele>449.6</ele>
        <time>2025-09-11T11:41:43Z</time>
      </trkpt>
      <trkpt lat="45.95862" lon="4.55342">
        <ele>450</ele>
        <time>2025-09-11T11:41:44Z</time>
      </trkpt>
      <trkpt lat="45.95863" lon="4.55341">
        <ele>450</ele>
        <time>2025-09-11T11:41:45Z</time>
      </trkpt>
      <trkpt lat="45.95863" lon="4.5534">
        <ele>450.2</ele>
        <time>2025-09-11T11:41:46Z</time>
      </trkpt>
      <trkpt lat="45.95864" lon="4.55339">
        <ele>450.2</ele>
        <time>2025-09-11T11:41:47Z</time>
      </trkpt>
      <trkpt lat="45.95864" lon="4.55337">
        <ele>450.2</ele>
        <time>2025-09-11T11:41:48Z</time>
      </trkpt>
      <trkpt lat="45.95865" lon="4.55336">
        <ele>450.2</ele>
        <time>2025-09-11T11:41:49Z</time>
      </trkpt>
      <trkpt lat="45.95865" lon="4.55336">
        <ele>450.6</ele>
        <time>2025-09-11T11:41:50Z</time>
      </trkpt>
      <trkpt lat="45.95866" lon="4.55335">
        <ele>450.8</ele>
        <time>2025-09-11T11:41:51Z</time>
      </trkpt>
      <trkpt lat="45.95867" lon="4.55334">
        <ele>450.8</ele>
        <time>2025-09-11T11:41:52Z</time>
      </trkpt>
      <trkpt lat="45.95867" lon="4.55334">
        <ele>451.2</ele>
        <time>2025-09-11T11:41:53Z</time>
      </trkpt>
      <trkpt lat="45.95868" lon="4.55333">
        <ele>451.2</ele>
        <time>2025-09-11T11:41:54Z</time>
      </trkpt>
      <trkpt lat="45.95869" lon="4.55333">
        <ele>451.2</ele>
        <time>2025-09-11T11:41:55Z</time>
      </trkpt>
      <trkpt lat="45.95869" lon="4.55333">
        <ele>451.4</ele>
        <time>2025-09-11T11:41:56Z</time>
      </trkpt>
      <trkpt lat="45.9587" lon="4.55333">
        <ele>451.4</ele>
        <time>2025-09-11T11:41:57Z</time>
      </trkpt>
      <trkpt lat="45.95871" lon="4.55333">
        <ele>451.6</ele>
        <time>2025-09-11T11:41:58Z</time>
      </trkpt>
      <trkpt lat="45.95872" lon="4.55333">
        <ele>452</ele>
        <time>2025-09-11T11:41:59Z</time>
      </trkpt>
      <trkpt lat="45.95873" lon="4.55333">
        <ele>452</ele>
        <time>2025-09-11T11:42:00Z</time>
      </trkpt>
      <trkpt lat="45.95874" lon="4.55333">
        <ele>452.2</ele>
        <time>2025-09-11T11:42:01Z</time>
      </trkpt>
      <trkpt lat="45.95875" lon="4.55332">
        <ele>452.2</ele>
        <time>2025-09-11T11:42:02Z</time>
      </trkpt>
      <trkpt lat="45.95876" lon="4.55332">
        <ele>452.4</ele>
        <time>2025-09-11T11:42:03Z</time>
      </trkpt>
      <trkpt lat="45.95876" lon="4.55332">
        <ele>452.8</ele>
        <time>2025-09-11T11:42:04Z</time>
      </trkpt>
      <trkpt lat="45.95877" lon="4.55332">
        <ele>453</ele>
        <time>2025-09-11T11:42:05Z</time>
      </trkpt>
      <trkpt lat="45.95878" lon="4.55332">
        <ele>453.4</ele>
        <time>2025-09-11T11:42:06Z</time>
      </trkpt>
      <trkpt lat="45.95878" lon="4.55332">
        <ele>453.6</ele>
        <time>2025-09-11T11:42:07Z</time>
      </trkpt>
      <trkpt lat="45.95879" lon="4.55332">
        <ele>453.8</ele>
        <time>2025-09-11T11:42:08Z</time>
      </trkpt>
      <trkpt lat="45.95879" lon="4.55332">
        <ele>453.8</ele>
        <time>2025-09-11T11:42:09Z</time>
      </trkpt>
      <trkpt lat="45.9588" lon="4.55332">
        <ele>454.2</ele>
        <time>2025-09-11T11:42:10Z</time>
      </trkpt>
      <trkpt lat="45.9588" lon="4.55332">
        <ele>454.2</ele>
        <time>2025-09-11T11:42:11Z</time>
      </trkpt>
      <trkpt lat="45.9588" lon="4.55332">
        <ele>454.2</ele>
        <time>2025-09-11T11:42:12Z</time>
      </trkpt>
      <trkpt lat="45.9588" lon="4.55332">
        <ele>454.2</ele>
        <time>2025-09-11T11:42:25Z</time>
      </trkpt>
      <trkpt lat="45.95881" lon="4.55332">
        <ele>454.2</ele>
        <time>2025-09-11T11:42:26Z</time>
      </trkpt>
      <trkpt lat="45.95882" lon="4.55331">
        <ele>454.2</ele>
        <time>2025-09-11T11:42:27Z</time>
      </trkpt>
      <trkpt lat="45.95882" lon="4.55331">
        <ele>454.2</ele>
        <time>2025-09-11T11:42:28Z</time>
      </trkpt>
      <trkpt lat="45.95883" lon="4.55331">
        <ele>454.4</ele>
        <time>2025-09-11T11:42:29Z</time>
      </trkpt>
      <trkpt lat="45.95883" lon="4.55331">
        <ele>454.4</ele>
        <time>2025-09-11T11:42:30Z</time>
      </trkpt>
      <trkpt lat="45.95884" lon="4.55331">
        <ele>454.8</ele>
        <time>2025-09-11T11:42:31Z</time>
      </trkpt>
      <trkpt lat="45.95885" lon="4.55331">
        <ele>454.8</ele>
        <time>2025-09-11T11:42:32Z</time>
      </trkpt>
      <trkpt lat="45.95886" lon="4.5533">
        <ele>455</ele>
        <time>2025-09-11T11:42:33Z</time>
      </trkpt>
      <trkpt lat="45.95887" lon="4.5533">
        <ele>455</ele>
        <time>2025-09-11T11:42:34Z</time>
      </trkpt>
      <trkpt lat="45.95888" lon="4.5533">
        <ele>455</ele>
        <time>2025-09-11T11:42:35Z</time>
      </trkpt>
      <trkpt lat="45.95888" lon="4.5533">
        <ele>455.4</ele>
        <time>2025-09-11T11:42:36Z</time>
      </trkpt>
      <trkpt lat="45.95889" lon="4.55329">
        <ele>455.4</ele>
        <time>2025-09-11T11:42:37Z</time>
      </trkpt>
      <trkpt lat="45.9589" lon="4.55329">
        <ele>455.8</ele>
        <time>2025-09-11T11:42:38Z</time>
      </trkpt>
      <trkpt lat="45.95891" lon="4.55329">
        <ele>456</ele>
        <time>2025-09-11T11:42:39Z</time>
      </trkpt>
      <trkpt lat="45.95892" lon="4.55329">
        <ele>456</ele>
        <time>2025-09-11T11:42:40Z</time>
      </trkpt>
      <trkpt lat="45.95892" lon="4.55329">
        <ele>456.4</ele>
        <time>2025-09-11T11:42:41Z</time>
      </trkpt>
      <trkpt lat="45.95893" lon="4.55329">
        <ele>456.4</ele>
        <time>2025-09-11T11:42:42Z</time>
      </trkpt>
      <trkpt lat="45.95894" lon="4.55329">
        <ele>456.6</ele>
        <time>2025-09-11T11:42:43Z</time>
      </trkpt>
      <trkpt lat="45.95895" lon="4.55329">
        <ele>456.8</ele>
        <time>2025-09-11T11:42:44Z</time>
      </trkpt>
      <trkpt lat="45.95896" lon="4.55329">
        <ele>456.8</ele>
        <time>2025-09-11T11:42:45Z</time>
      </trkpt>
      <trkpt lat="45.95897" lon="4.55329">
        <ele>457</ele>
        <time>2025-09-11T11:42:46Z</time>
      </trkpt>
      <trkpt lat="45.95898" lon="4.55329">
        <ele>457</ele>
        <time>2025-09-11T11:42:47Z</time>
      </trkpt>
      <trkpt lat="45.95899" lon="4.55329">
        <ele>457.4</ele>
        <time>2025-09-11T11:42:48Z</time>
      </trkpt>
      <trkpt lat="45.959" lon="4.55329">
        <ele>457.4</ele>
        <time>2025-09-11T11:42:49Z</time>
      </trkpt>
      <trkpt lat="45.959" lon="4.55329">
        <ele>457.6</ele>
        <time>2025-09-11T11:42:50Z</time>
      </trkpt>
      <trkpt lat="45.95901" lon="4.55329">
        <ele>457.8</ele>
        <time>2025-09-11T11:42:51Z</time>
      </trkpt>
      <trkpt lat="45.95902" lon="4.5533">
        <ele>457.8</ele>
        <time>2025-09-11T11:42:52Z</time>
      </trkpt>
      <trkpt lat="45.95902" lon="4.5533">
        <ele>458</ele>
        <time>2025-09-11T11:42:53Z</time>
      </trkpt>
      <trkpt lat="45.95903" lon="4.5533">
        <ele>458</ele>
        <time>2025-09-11T11:42:54Z</time>
      </trkpt>
      <trkpt lat="45.95904" lon="4.55331">
        <ele>458</ele>
        <time>2025-09-11T11:42:55Z</time>
      </trkpt>
      <trkpt lat="45.95906" lon="4.55331">
        <ele>458.4</ele>
        <time>2025-09-11T11:42:56Z</time>
      </trkpt>
      <trkpt lat="45.95907" lon="4.55331">
        <ele>458.4</ele>
        <time>2025-09-11T11:42:57Z</time>
      </trkpt>
      <trkpt lat="45.95907" lon="4.55331">
        <ele>458.4</ele>
        <time>2025-09-11T11:42:58Z</time>
      </trkpt>
      <trkpt lat="45.95908" lon="4.55331">
        <ele>458.6</ele>
        <time>2025-09-11T11:42:59Z</time>
      </trkpt>
      <trkpt lat="45.95909" lon="4.55331">
        <ele>458.6</ele>
        <time>2025-09-11T11:43:00Z</time>
      </trkpt>
      <trkpt lat="45.9591" lon="4.55331">
        <ele>458.8</ele>
        <time>2025-09-11T11:43:01Z</time>
      </trkpt>
      <trkpt lat="45.95911" lon="4.5533">
        <ele>458.8</ele>
        <time>2025-09-11T11:43:02Z</time>
      </trkpt>
      <trkpt lat="45.95912" lon="4.5533">
        <ele>459</ele>
        <time>2025-09-11T11:43:03Z</time>
      </trkpt>
      <trkpt lat="45.95913" lon="4.5533">
        <ele>459</ele>
        <time>2025-09-11T11:43:04Z</time>
      </trkpt>
      <trkpt lat="45.95914" lon="4.5533">
        <ele>459.4</ele>
        <time>2025-09-11T11:43:05Z</time>
      </trkpt>
      <trkpt lat="45.95915" lon="4.5533">
        <ele>459.6</ele>
        <time>2025-09-11T11:43:06Z</time>
      </trkpt>
      <trkpt lat="45.95915" lon="4.5533">
        <ele>459.6</ele>
        <time>2025-09-11T11:43:07Z</time>
      </trkpt>
      <trkpt lat="45.95916" lon="4.5533">
        <ele>459.6</ele>
        <time>2025-09-11T11:43:08Z</time>
      </trkpt>
      <trkpt lat="45.95917" lon="4.5533">
        <ele>460</ele>
        <time>2025-09-11T11:43:09Z</time>
      </trkpt>
      <trkpt lat="45.95918" lon="4.5533">
        <ele>460.4</ele>
        <time>2025-09-11T11:43:10Z</time>
      </trkpt>
      <trkpt lat="45.95919" lon="4.5533">
        <ele>460.4</ele>
        <time>2025-09-11T11:43:11Z</time>
      </trkpt>
      <trkpt lat="45.9592" lon="4.5533">
        <ele>460.8</ele>
        <time>2025-09-11T11:43:12Z</time>
      </trkpt>
      <trkpt lat="45.95921" lon="4.5533">
        <ele>460.8</ele>
        <time>2025-09-11T11:43:13Z</time>
      </trkpt>
      <trkpt lat="45.95922" lon="4.5533">
        <ele>461.2</ele>
        <time>2025-09-11T11:43:14Z</time>
      </trkpt>
      <trkpt lat="45.95923" lon="4.55331">
        <ele>461.2</ele>
        <time>2025-09-11T11:43:15Z</time>
      </trkpt>
      <trkpt lat="45.95924" lon="4.55331">
        <ele>461.2</ele>
        <time>2025-09-11T11:43:16Z</time>
      </trkpt>
      <trkpt lat="45.95925" lon="4.55331">
        <ele>461.4</ele>
        <time>2025-09-11T11:43:17Z</time>
      </trkpt>
      <trkpt lat="45.95926" lon="4.55331">
        <ele>461.4</ele>
        <time>2025-09-11T11:43:18Z</time>
      </trkpt>
      <trkpt lat="45.95927" lon="4.55331">
        <ele>461.8</ele>
        <time>2025-09-11T11:43:19Z</time>
      </trkpt>
      <trkpt lat="45.95928" lon="4.5533">
        <ele>461.8</ele>
        <time>2025-09-11T11:43:20Z</time>
      </trkpt>
      <trkpt lat="45.95928" lon="4.5533">
        <ele>461.8</ele>
        <time>2025-09-11T11:43:21Z</time>
      </trkpt>
      <trkpt lat="45.9593" lon="4.5533">
        <ele>461.8</ele>
        <time>2025-09-11T11:43:22Z</time>
      </trkpt>
      <trkpt lat="45.95931" lon="4.5533">
        <ele>462</ele>
        <time>2025-09-11T11:43:23Z</time>
      </trkpt>
      <trkpt lat="45.95932" lon="4.5533">
        <ele>462</ele>
        <time>2025-09-11T11:43:24Z</time>
      </trkpt>
      <trkpt lat="45.95932" lon="4.5533">
        <ele>462</ele>
        <time>2025-09-11T11:43:25Z</time>
      </trkpt>
      <trkpt lat="45.95933" lon="4.5533">
        <ele>462.2</ele>
        <time>2025-09-11T11:43:26Z</time>
      </trkpt>
      <trkpt lat="45.95934" lon="4.5533">
        <ele>462.4</ele>
        <time>2025-09-11T11:43:27Z</time>
      </trkpt>
      <trkpt lat="45.95935" lon="4.55331">
        <ele>462.4</ele>
        <time>2025-09-11T11:43:28Z</time>
      </trkpt>
      <trkpt lat="45.95936" lon="4.55331">
        <ele>462.6</ele>
        <time>2025-09-11T11:43:29Z</time>
      </trkpt>
      <trkpt lat="45.95937" lon="4.55331">
        <ele>462.6</ele>
        <time>2025-09-11T11:43:30Z</time>
      </trkpt>
      <trkpt lat="45.95937" lon="4.55331">
        <ele>462.6</ele>
        <time>2025-09-11T11:43:31Z</time>
      </trkpt>
      <trkpt lat="45.95938" lon="4.55331">
        <ele>463</ele>
        <time>2025-09-11T11:43:32Z</time>
      </trkpt>
      <trkpt lat="45.95939" lon="4.55331">
        <ele>463</ele>
        <time>2025-09-11T11:43:33Z</time>
      </trkpt>
      <trkpt lat="45.9594" lon="4.55331">
        <ele>463.2</ele>
        <time>2025-09-11T11:43:34Z</time>
      </trkpt>
      <trkpt lat="45.95941" lon="4.55331">
        <ele>463.2</ele>
        <time>2025-09-11T11:43:35Z</time>
      </trkpt>
      <trkpt lat="45.95942" lon="4.55331">
        <ele>463.4</ele>
        <time>2025-09-11T11:43:36Z</time>
      </trkpt>
      <trkpt lat="45.95943" lon="4.55331">
        <ele>463.4</ele>
        <time>2025-09-11T11:43:37Z</time>
      </trkpt>
      <trkpt lat="45.95943" lon="4.55331">
        <ele>463.4</ele>
        <time>2025-09-11T11:43:38Z</time>
      </trkpt>
      <trkpt lat="45.95944" lon="4.55331">
        <ele>463.6</ele>
        <time>2025-09-11T11:43:39Z</time>
      </trkpt>
      <trkpt lat="45.95945" lon="4.55332">
        <ele>463.6</ele>
        <time>2025-09-11T11:43:40Z</time>
      </trkpt>
      <trkpt lat="45.95946" lon="4.55332">
        <ele>463.8</ele>
        <time>2025-09-11T11:43:41Z</time>
      </trkpt>
      <trkpt lat="45.95947" lon="4.55332">
        <ele>463.8</ele>
        <time>2025-09-11T11:43:42Z</time>
      </trkpt>
      <trkpt lat="45.95948" lon="4.55331">
        <ele>464.2</ele>
        <time>2025-09-11T11:43:43Z</time>
      </trkpt>
      <trkpt lat="45.95949" lon="4.55331">
        <ele>464.2</ele>
        <time>2025-09-11T11:43:44Z</time>
      </trkpt>
      <trkpt lat="45.9595" lon="4.55332">
        <ele>464.4</ele>
        <time>2025-09-11T11:43:45Z</time>
      </trkpt>
      <trkpt lat="45.95952" lon="4.55332">
        <ele>464.4</ele>
        <time>2025-09-11T11:43:46Z</time>
      </trkpt>
      <trkpt lat="45.95953" lon="4.55332">
        <ele>464.4</ele>
        <time>2025-09-11T11:43:47Z</time>
      </trkpt>
      <trkpt lat="45.95954" lon="4.55332">
        <ele>464.4</ele>
        <time>2025-09-11T11:43:48Z</time>
      </trkpt>
      <trkpt lat="45.95955" lon="4.55331">
        <ele>464.4</ele>
        <time>2025-09-11T11:43:49Z</time>
      </trkpt>
      <trkpt lat="45.95957" lon="4.55331">
        <ele>464.4</ele>
        <time>2025-09-11T11:43:50Z</time>
      </trkpt>
      <trkpt lat="45.95958" lon="4.55331">
        <ele>464.8</ele>
        <time>2025-09-11T11:43:51Z</time>
      </trkpt>
      <trkpt lat="45.95959" lon="4.55331">
        <ele>464.8</ele>
        <time>2025-09-11T11:43:52Z</time>
      </trkpt>
      <trkpt lat="45.9596" lon="4.55331">
        <ele>464.8</ele>
        <time>2025-09-11T11:43:53Z</time>
      </trkpt>
      <trkpt lat="45.95961" lon="4.55331">
        <ele>465</ele>
        <time>2025-09-11T11:43:54Z</time>
      </trkpt>
      <trkpt lat="45.95963" lon="4.55331">
        <ele>465</ele>
        <time>2025-09-11T11:43:55Z</time>
      </trkpt>
      <trkpt lat="45.95964" lon="4.5533">
        <ele>465.2</ele>
        <time>2025-09-11T11:43:56Z</time>
      </trkpt>
      <trkpt lat="45.95965" lon="4.5533">
        <ele>465.2</ele>
        <time>2025-09-11T11:43:57Z</time>
      </trkpt>
      <trkpt lat="45.95966" lon="4.5533">
        <ele>465.2</ele>
        <time>2025-09-11T11:43:58Z</time>
      </trkpt>
      <trkpt lat="45.95967" lon="4.5533">
        <ele>465.2</ele>
        <time>2025-09-11T11:43:59Z</time>
      </trkpt>
      <trkpt lat="45.95969" lon="4.5533">
        <ele>465.4</ele>
        <time>2025-09-11T11:44:00Z</time>
      </trkpt>
      <trkpt lat="45.9597" lon="4.5533">
        <ele>465.4</ele>
        <time>2025-09-11T11:44:01Z</time>
      </trkpt>
      <trkpt lat="45.95971" lon="4.55329">
        <ele>465.4</ele>
        <time>2025-09-11T11:44:02Z</time>
      </trkpt>
      <trkpt lat="45.95972" lon="4.55329">
        <ele>465.4</ele>
        <time>2025-09-11T11:44:03Z</time>
      </trkpt>
      <trkpt lat="45.95973" lon="4.55329">
        <ele>465.4</ele>
        <time>2025-09-11T11:44:04Z</time>
      </trkpt>
      <trkpt lat="45.95975" lon="4.5533">
        <ele>465.8</ele>
        <time>2025-09-11T11:44:05Z</time>
      </trkpt>
      <trkpt lat="45.95976" lon="4.55331">
        <ele>465.8</ele>
        <time>2025-09-11T11:44:06Z</time>
      </trkpt>
      <trkpt lat="45.95977" lon="4.55331">
        <ele>465.8</ele>
        <time>2025-09-11T11:44:07Z</time>
      </trkpt>
      <trkpt lat="45.95979" lon="4.55332">
        <ele>465.4</ele>
        <time>2025-09-11T11:44:08Z</time>
      </trkpt>
      <trkpt lat="45.9598" lon="4.55332">
        <ele>465.4</ele>
        <time>2025-09-11T11:44:09Z</time>
      </trkpt>
      <trkpt lat="45.95981" lon="4.55332">
        <ele>465.4</ele>
        <time>2025-09-11T11:44:10Z</time>
      </trkpt>
      <trkpt lat="45.95982" lon="4.55332">
        <ele>465.8</ele>
        <time>2025-09-11T11:44:11Z</time>
      </trkpt>
      <trkpt lat="45.95983" lon="4.55332">
        <ele>465.8</ele>
        <time>2025-09-11T11:44:12Z</time>
      </trkpt>
      <trkpt lat="45.95984" lon="4.55332">
        <ele>465.8</ele>
        <time>2025-09-11T11:44:13Z</time>
      </trkpt>
      <trkpt lat="45.95985" lon="4.55332">
        <ele>465.8</ele>
        <time>2025-09-11T11:44:14Z</time>
      </trkpt>
      <trkpt lat="45.95986" lon="4.55332">
        <ele>465.8</ele>
        <time>2025-09-11T11:44:15Z</time>
      </trkpt>
      <trkpt lat="45.95987" lon="4.55332">
        <ele>465.8</ele>
        <time>2025-09-11T11:44:16Z</time>
      </trkpt>
      <trkpt lat="45.95988" lon="4.55332">
        <ele>465.8</ele>
        <time>2025-09-11T11:44:17Z</time>
      </trkpt>
      <trkpt lat="45.95989" lon="4.55332">
        <ele>465.8</ele>
        <time>2025-09-11T11:44:18Z</time>
      </trkpt>
      <trkpt lat="45.9599" lon="4.55332">
        <ele>465.8</ele>
        <time>2025-09-11T11:44:19Z</time>
      </trkpt>
      <trkpt lat="45.95991" lon="4.55331">
        <ele>465.8</ele>
        <time>2025-09-11T11:44:20Z</time>
      </trkpt>
      <trkpt lat="45.95992" lon="4.55331">
        <ele>465.8</ele>
        <time>2025-09-11T11:44:21Z</time>
      </trkpt>
      <trkpt lat="45.95993" lon="4.55331">
        <ele>465.8</ele>
        <time>2025-09-11T11:44:22Z</time>
      </trkpt>
      <trkpt lat="45.95994" lon="4.55331">
        <ele>465.8</ele>
        <time>2025-09-11T11:44:23Z</time>
      </trkpt>
      <trkpt lat="45.95994" lon="4.55331">
        <ele>465.8</ele>
        <time>2025-09-11T11:44:24Z</time>
      </trkpt>
      <trkpt lat="45.95995" lon="4.55331">
        <ele>465.8</ele>
        <time>2025-09-11T11:44:25Z</time>
      </trkpt>
      <trkpt lat="45.95997" lon="4.5533">
        <ele>465.8</ele>
        <time>2025-09-11T11:44:26Z</time>
      </trkpt>
      <trkpt lat="45.95998" lon="4.5533">
        <ele>465.8</ele>
        <time>2025-09-11T11:44:27Z</time>
      </trkpt>
      <trkpt lat="45.95999" lon="4.5533">
        <ele>465.8</ele>
        <time>2025-09-11T11:44:28Z</time>
      </trkpt>
      <trkpt lat="45.96" lon="4.5533">
        <ele>465.8</ele>
        <time>2025-09-11T11:44:29Z</time>
      </trkpt>
      <trkpt lat="45.96001" lon="4.5533">
        <ele>465.8</ele>
        <time>2025-09-11T11:44:30Z</time>
      </trkpt>
      <trkpt lat="45.96002" lon="4.5533">
        <ele>465.8</ele>
        <time>2025-09-11T11:44:31Z</time>
      </trkpt>
      <trkpt lat="45.96003" lon="4.55331">
        <ele>465.8</ele>
        <time>2025-09-11T11:44:32Z</time>
      </trkpt>
      <trkpt lat="45.96004" lon="4.55331">
        <ele>465.8</ele>
        <time>2025-09-11T11:44:33Z</time>
      </trkpt>
      <trkpt lat="45.96005" lon="4.55331">
        <ele>465.8</ele>
        <time>2025-09-11T11:44:34Z</time>
      </trkpt>
      <trkpt lat="45.96006" lon="4.55331">
        <ele>465.8</ele>
        <time>2025-09-11T11:44:35Z</time>
      </trkpt>
      <trkpt lat="45.96007" lon="4.55331">
        <ele>465.8</ele>
        <time>2025-09-11T11:44:36Z</time>
      </trkpt>
      <trkpt lat="45.96007" lon="4.55331">
        <ele>465.8</ele>
        <time>2025-09-11T11:44:37Z</time>
      </trkpt>
      <trkpt lat="45.96007" lon="4.55331">
        <ele>465.8</ele>
        <time>2025-09-11T11:44:38Z</time>
      </trkpt>
      <trkpt lat="45.96007" lon="4.55331">
        <ele>465.8</ele>
        <time>2025-09-11T11:44:39Z</time>
      </trkpt>
      <trkpt lat="45.96008" lon="4.55331">
        <ele>465.8</ele>
        <time>2025-09-11T11:44:40Z</time>
      </trkpt>
      <trkpt lat="45.96009" lon="4.55331">
        <ele>465.8</ele>
        <time>2025-09-11T11:44:41Z</time>
      </trkpt>
      <trkpt lat="45.96009" lon="4.55331">
        <ele>465.8</ele>
        <time>2025-09-11T11:44:42Z</time>
      </trkpt>
      <trkpt lat="45.96008" lon="4.55331">
        <ele>466</ele>
        <time>2025-09-11T11:44:50Z</time>
      </trkpt>
      <trkpt lat="45.96008" lon="4.55331">
        <ele>466</ele>
        <time>2025-09-11T11:44:51Z</time>
      </trkpt>
      <trkpt lat="45.9601" lon="4.55335">
        <ele>466.4</ele>
        <time>2025-09-11T11:49:21Z</time>
      </trkpt>
      <trkpt lat="45.9601" lon="4.55335">
        <ele>466.4</ele>
        <time>2025-09-11T11:49:22Z</time>
      </trkpt>
      <trkpt lat="45.9601" lon="4.55335">
        <ele>466.4</ele>
        <time>2025-09-11T11:49:23Z</time>
      </trkpt>
      <trkpt lat="45.9601" lon="4.55335">
        <ele>466</ele>
        <time>2025-09-11T11:49:24Z</time>
      </trkpt>
      <trkpt lat="45.9601" lon="4.55335">
        <ele>466</ele>
        <time>2025-09-11T11:49:25Z</time>
      </trkpt>
      <trkpt lat="45.96013" lon="4.55336">
        <ele>465.8</ele>
        <time>2025-09-11T11:49:30Z</time>
      </trkpt>
      <trkpt lat="45.96013" lon="4.55336">
        <ele>465.8</ele>
        <time>2025-09-11T11:49:31Z</time>
      </trkpt>
      <trkpt lat="45.96013" lon="4.55336">
        <ele>465.8</ele>
        <time>2025-09-11T11:49:32Z</time>
      </trkpt>
      <trkpt lat="45.96015" lon="4.55337">
        <ele>465.8</ele>
        <time>2025-09-11T11:49:37Z</time>
      </trkpt>
      <trkpt lat="45.96017" lon="4.55338">
        <ele>465.8</ele>
        <time>2025-09-11T11:49:38Z</time>
      </trkpt>
      <trkpt lat="45.96019" lon="4.55338">
        <ele>465.8</ele>
        <time>2025-09-11T11:49:39Z</time>
      </trkpt>
      <trkpt lat="45.96021" lon="4.55338">
        <ele>465.8</ele>
        <time>2025-09-11T11:49:40Z</time>
      </trkpt>
      <trkpt lat="45.96023" lon="4.55339">
        <ele>465.8</ele>
        <time>2025-09-11T11:49:41Z</time>
      </trkpt>
      <trkpt lat="45.96025" lon="4.55339">
        <ele>465.8</ele>
        <time>2025-09-11T11:49:42Z</time>
      </trkpt>
      <trkpt lat="45.96027" lon="4.55338">
        <ele>465.8</ele>
        <time>2025-09-11T11:49:43Z</time>
      </trkpt>
      <trkpt lat="45.96029" lon="4.55337">
        <ele>465.8</ele>
        <time>2025-09-11T11:49:44Z</time>
      </trkpt>
      <trkpt lat="45.96031" lon="4.55337">
        <ele>466</ele>
        <time>2025-09-11T11:49:45Z</time>
      </trkpt>
      <trkpt lat="45.96033" lon="4.55337">
        <ele>466</ele>
        <time>2025-09-11T11:49:46Z</time>
      </trkpt>
      <trkpt lat="45.96035" lon="4.55338">
        <ele>466</ele>
        <time>2025-09-11T11:49:47Z</time>
      </trkpt>
      <trkpt lat="45.96037" lon="4.55338">
        <ele>466</ele>
        <time>2025-09-11T11:49:48Z</time>
      </trkpt>
      <trkpt lat="45.96039" lon="4.55339">
        <ele>466</ele>
        <time>2025-09-11T11:49:49Z</time>
      </trkpt>
      <trkpt lat="45.9604" lon="4.5534">
        <ele>466</ele>
        <time>2025-09-11T11:49:50Z</time>
      </trkpt>
      <trkpt lat="45.96042" lon="4.55341">
        <ele>466</ele>
        <time>2025-09-11T11:49:51Z</time>
      </trkpt>
      <trkpt lat="45.96044" lon="4.55341">
        <ele>466</ele>
        <time>2025-09-11T11:49:52Z</time>
      </trkpt>
      <trkpt lat="45.96045" lon="4.55341">
        <ele>466</ele>
        <time>2025-09-11T11:49:53Z</time>
      </trkpt>
      <trkpt lat="45.96047" lon="4.55341">
        <ele>466</ele>
        <time>2025-09-11T11:49:54Z</time>
      </trkpt>
      <trkpt lat="45.96048" lon="4.55341">
        <ele>466</ele>
        <time>2025-09-11T11:49:55Z</time>
      </trkpt>
      <trkpt lat="45.96049" lon="4.55341">
        <ele>466</ele>
        <time>2025-09-11T11:49:56Z</time>
      </trkpt>
      <trkpt lat="45.96051" lon="4.55341">
        <ele>466</ele>
        <time>2025-09-11T11:49:57Z</time>
      </trkpt>
      <trkpt lat="45.96052" lon="4.55341">
        <ele>466</ele>
        <time>2025-09-11T11:49:58Z</time>
      </trkpt>
      <trkpt lat="45.96052" lon="4.55341">
        <ele>466</ele>
        <time>2025-09-11T11:49:59Z</time>
      </trkpt>
      <trkpt lat="45.96052" lon="4.55341">
        <ele>466</ele>
        <time>2025-09-11T11:50:00Z</time>
      </trkpt>
      <trkpt lat="45.96056" lon="4.55341">
        <ele>466</ele>
        <time>2025-09-11T11:50:01Z</time>
      </trkpt>
      <trkpt lat="45.96057" lon="4.55341">
        <ele>466</ele>
        <time>2025-09-11T11:50:02Z</time>
      </trkpt>
      <trkpt lat="45.96058" lon="4.55341">
        <ele>466</ele>
        <time>2025-09-11T11:50:03Z</time>
      </trkpt>
      <trkpt lat="45.96058" lon="4.55341">
        <ele>466</ele>
        <time>2025-09-11T11:50:04Z</time>
      </trkpt>
      <trkpt lat="45.96058" lon="4.55342">
        <ele>466.2</ele>
        <time>2025-09-11T11:50:09Z</time>
      </trkpt>
      <trkpt lat="45.9606" lon="4.55343">
        <ele>466.2</ele>
        <time>2025-09-11T11:50:10Z</time>
      </trkpt>
      <trkpt lat="45.96062" lon="4.55343">
        <ele>466.2</ele>
        <time>2025-09-11T11:50:11Z</time>
      </trkpt>
      <trkpt lat="45.96064" lon="4.55344">
        <ele>466.2</ele>
        <time>2025-09-11T11:50:12Z</time>
      </trkpt>
      <trkpt lat="45.96066" lon="4.55344">
        <ele>466.2</ele>
        <time>2025-09-11T11:50:13Z</time>
      </trkpt>
      <trkpt lat="45.96068" lon="4.55343">
        <ele>466.2</ele>
        <time>2025-09-11T11:50:14Z</time>
      </trkpt>
      <trkpt lat="45.96071" lon="4.55342">
        <ele>465.6</ele>
        <time>2025-09-11T11:50:15Z</time>
      </trkpt>
      <trkpt lat="45.96073" lon="4.55341">
        <ele>465.6</ele>
        <time>2025-09-11T11:50:16Z</time>
      </trkpt>
      <trkpt lat="45.96076" lon="4.55341">
        <ele>465.6</ele>
        <time>2025-09-11T11:50:17Z</time>
      </trkpt>
      <trkpt lat="45.96079" lon="4.5534">
        <ele>465.6</ele>
        <time>2025-09-11T11:50:18Z</time>
      </trkpt>
      <trkpt lat="45.96082" lon="4.55339">
        <ele>465.8</ele>
        <time>2025-09-11T11:50:19Z</time>
      </trkpt>
      <trkpt lat="45.96085" lon="4.55338">
        <ele>465.8</ele>
        <time>2025-09-11T11:50:20Z</time>
      </trkpt>
      <trkpt lat="45.96089" lon="4.55337">
        <ele>465.8</ele>
        <time>2025-09-11T11:50:21Z</time>
      </trkpt>
      <trkpt lat="45.96092" lon="4.55335">
        <ele>465.8</ele>
        <time>2025-09-11T11:50:22Z</time>
      </trkpt>
      <trkpt lat="45.96096" lon="4.55334">
        <ele>465.8</ele>
        <time>2025-09-11T11:50:23Z</time>
      </trkpt>
      <trkpt lat="45.96099" lon="4.55332">
        <ele>465.8</ele>
        <time>2025-09-11T11:50:24Z</time>
      </trkpt>
      <trkpt lat="45.96103" lon="4.5533">
        <ele>465.8</ele>
        <time>2025-09-11T11:50:25Z</time>
      </trkpt>
      <trkpt lat="45.96106" lon="4.55329">
        <ele>465.4</ele>
        <time>2025-09-11T11:50:26Z</time>
      </trkpt>
      <trkpt lat="45.96109" lon="4.55327">
        <ele>465.2</ele>
        <time>2025-09-11T11:50:27Z</time>
      </trkpt>
      <trkpt lat="45.96112" lon="4.55326">
        <ele>465.2</ele>
        <time>2025-09-11T11:50:28Z</time>
      </trkpt>
      <trkpt lat="45.96114" lon="4.55324">
        <ele>465.2</ele>
        <time>2025-09-11T11:50:29Z</time>
      </trkpt>
      <trkpt lat="45.96116" lon="4.55323">
        <ele>465.2</ele>
        <time>2025-09-11T11:50:30Z</time>
      </trkpt>
      <trkpt lat="45.96118" lon="4.55322">
        <ele>465.2</ele>
        <time>2025-09-11T11:50:31Z</time>
      </trkpt>
      <trkpt lat="45.9612" lon="4.5532">
        <ele>464.8</ele>
        <time>2025-09-11T11:50:32Z</time>
      </trkpt>
      <trkpt lat="45.96122" lon="4.55319">
        <ele>464.8</ele>
        <time>2025-09-11T11:50:33Z</time>
      </trkpt>
      <trkpt lat="45.96124" lon="4.55318">
        <ele>464.6</ele>
        <time>2025-09-11T11:50:34Z</time>
      </trkpt>
      <trkpt lat="45.96127" lon="4.55317">
        <ele>464.6</ele>
        <time>2025-09-11T11:50:35Z</time>
      </trkpt>
      <trkpt lat="45.96129" lon="4.55316">
        <ele>464.8</ele>
        <time>2025-09-11T11:50:36Z</time>
      </trkpt>
      <trkpt lat="45.96131" lon="4.55315">
        <ele>464.8</ele>
        <time>2025-09-11T11:50:37Z</time>
      </trkpt>
      <trkpt lat="45.96134" lon="4.55314">
        <ele>465.2</ele>
        <time>2025-09-11T11:50:38Z</time>
      </trkpt>
      <trkpt lat="45.96136" lon="4.55313">
        <ele>465.2</ele>
        <time>2025-09-11T11:50:39Z</time>
      </trkpt>
      <trkpt lat="45.96139" lon="4.55312">
        <ele>465.6</ele>
        <time>2025-09-11T11:50:40Z</time>
      </trkpt>
      <trkpt lat="45.96142" lon="4.55312">
        <ele>465.2</ele>
        <time>2025-09-11T11:50:41Z</time>
      </trkpt>
      <trkpt lat="45.96145" lon="4.55312">
        <ele>465.2</ele>
        <time>2025-09-11T11:50:42Z</time>
      </trkpt>
      <trkpt lat="45.96148" lon="4.55313">
        <ele>465.4</ele>
        <time>2025-09-11T11:50:43Z</time>
      </trkpt>
      <trkpt lat="45.96151" lon="4.55313">
        <ele>465.4</ele>
        <time>2025-09-11T11:50:44Z</time>
      </trkpt>
      <trkpt lat="45.96154" lon="4.55314">
        <ele>465.4</ele>
        <time>2025-09-11T11:50:45Z</time>
      </trkpt>
      <trkpt lat="45.96157" lon="4.55315">
        <ele>465.6</ele>
        <time>2025-09-11T11:50:46Z</time>
      </trkpt>
      <trkpt lat="45.96159" lon="4.55316">
        <ele>465.6</ele>
        <time>2025-09-11T11:50:47Z</time>
      </trkpt>
      <trkpt lat="45.96162" lon="4.55318">
        <ele>465.6</ele>
        <time>2025-09-11T11:50:48Z</time>
      </trkpt>
      <trkpt lat="45.96165" lon="4.55318">
        <ele>465.4</ele>
        <time>2025-09-11T11:50:49Z</time>
      </trkpt>
      <trkpt lat="45.96168" lon="4.55319">
        <ele>466</ele>
        <time>2025-09-11T11:50:50Z</time>
      </trkpt>
      <trkpt lat="45.96171" lon="4.5532">
        <ele>466</ele>
        <time>2025-09-11T11:50:51Z</time>
      </trkpt>
      <trkpt lat="45.96173" lon="4.55321">
        <ele>466</ele>
        <time>2025-09-11T11:50:52Z</time>
      </trkpt>
      <trkpt lat="45.96175" lon="4.55323">
        <ele>466.2</ele>
        <time>2025-09-11T11:50:53Z</time>
      </trkpt>
      <trkpt lat="45.96177" lon="4.55324">
        <ele>466.2</ele>
        <time>2025-09-11T11:50:54Z</time>
      </trkpt>
      <trkpt lat="45.96179" lon="4.55325">
        <ele>466.4</ele>
        <time>2025-09-11T11:50:55Z</time>
      </trkpt>
      <trkpt lat="45.96181" lon="4.55326">
        <ele>466.4</ele>
        <time>2025-09-11T11:50:56Z</time>
      </trkpt>
      <trkpt lat="45.96183" lon="4.55327">
        <ele>467</ele>
        <time>2025-09-11T11:50:57Z</time>
      </trkpt>
      <trkpt lat="45.96184" lon="4.55328">
        <ele>467</ele>
        <time>2025-09-11T11:50:58Z</time>
      </trkpt>
      <trkpt lat="45.96186" lon="4.55329">
        <ele>467.2</ele>
        <time>2025-09-11T11:50:59Z</time>
      </trkpt>
      <trkpt lat="45.96187" lon="4.5533">
        <ele>467.2</ele>
        <time>2025-09-11T11:51:00Z</time>
      </trkpt>
      <trkpt lat="45.96189" lon="4.55331">
        <ele>467.6</ele>
        <time>2025-09-11T11:51:01Z</time>
      </trkpt>
      <trkpt lat="45.9619" lon="4.55332">
        <ele>467.6</ele>
        <time>2025-09-11T11:51:02Z</time>
      </trkpt>
      <trkpt lat="45.96192" lon="4.55333">
        <ele>468</ele>
        <time>2025-09-11T11:51:03Z</time>
      </trkpt>
      <trkpt lat="45.96193" lon="4.55334">
        <ele>468.2</ele>
        <time>2025-09-11T11:51:04Z</time>
      </trkpt>
      <trkpt lat="45.96194" lon="4.55335">
        <ele>468.2</ele>
        <time>2025-09-11T11:51:05Z</time>
      </trkpt>
      <trkpt lat="45.96196" lon="4.55336">
        <ele>468.4</ele>
        <time>2025-09-11T11:51:06Z</time>
      </trkpt>
      <trkpt lat="45.96197" lon="4.55337">
        <ele>468.4</ele>
        <time>2025-09-11T11:51:07Z</time>
      </trkpt>
      <trkpt lat="45.96198" lon="4.55339">
        <ele>468.6</ele>
        <time>2025-09-11T11:51:08Z</time>
      </trkpt>
      <trkpt lat="45.962" lon="4.5534">
        <ele>468.6</ele>
        <time>2025-09-11T11:51:09Z</time>
      </trkpt>
      <trkpt lat="45.96201" lon="4.55341">
        <ele>469</ele>
        <time>2025-09-11T11:51:10Z</time>
      </trkpt>
      <trkpt lat="45.96203" lon="4.55342">
        <ele>469</ele>
        <time>2025-09-11T11:51:11Z</time>
      </trkpt>
      <trkpt lat="45.96204" lon="4.55343">
        <ele>469.2</ele>
        <time>2025-09-11T11:51:12Z</time>
      </trkpt>
      <trkpt lat="45.96206" lon="4.55344">
        <ele>469.4</ele>
        <time>2025-09-11T11:51:13Z</time>
      </trkpt>
      <trkpt lat="45.96207" lon="4.55345">
        <ele>469.4</ele>
        <time>2025-09-11T11:51:14Z</time>
      </trkpt>
      <trkpt lat="45.96208" lon="4.55346">
        <ele>470</ele>
        <time>2025-09-11T11:51:15Z</time>
      </trkpt>
      <trkpt lat="45.9621" lon="4.55347">
        <ele>470.2</ele>
        <time>2025-09-11T11:51:16Z</time>
      </trkpt>
      <trkpt lat="45.96211" lon="4.55348">
        <ele>470.6</ele>
        <time>2025-09-11T11:51:17Z</time>
      </trkpt>
      <trkpt lat="45.96212" lon="4.55348">
        <ele>470.8</ele>
        <time>2025-09-11T11:51:18Z</time>
      </trkpt>
      <trkpt lat="45.96213" lon="4.55349">
        <ele>471.2</ele>
        <time>2025-09-11T11:51:19Z</time>
      </trkpt>
      <trkpt lat="45.96215" lon="4.55349">
        <ele>471.2</ele>
        <time>2025-09-11T11:51:20Z</time>
      </trkpt>
      <trkpt lat="45.96216" lon="4.5535">
        <ele>471.4</ele>
        <time>2025-09-11T11:51:21Z</time>
      </trkpt>
      <trkpt lat="45.96217" lon="4.55351">
        <ele>471.4</ele>
        <time>2025-09-11T11:51:22Z</time>
      </trkpt>
      <trkpt lat="45.96219" lon="4.55352">
        <ele>471.6</ele>
        <time>2025-09-11T11:51:23Z</time>
      </trkpt>
      <trkpt lat="45.9622" lon="4.55353">
        <ele>471.6</ele>
        <time>2025-09-11T11:51:24Z</time>
      </trkpt>
      <trkpt lat="45.96221" lon="4.55354">
        <ele>471.6</ele>
        <time>2025-09-11T11:51:25Z</time>
      </trkpt>
      <trkpt lat="45.96223" lon="4.55355">
        <ele>471.6</ele>
        <time>2025-09-11T11:51:26Z</time>
      </trkpt>
      <trkpt lat="45.96224" lon="4.55356">
        <ele>471.6</ele>
        <time>2025-09-11T11:51:27Z</time>
      </trkpt>
      <trkpt lat="45.96226" lon="4.55357">
        <ele>471.6</ele>
        <time>2025-09-11T11:51:28Z</time>
      </trkpt>
      <trkpt lat="45.96227" lon="4.55359">
        <ele>472</ele>
        <time>2025-09-11T11:51:29Z</time>
      </trkpt>
      <trkpt lat="45.96229" lon="4.5536">
        <ele>472</ele>
        <time>2025-09-11T11:51:30Z</time>
      </trkpt>
      <trkpt lat="45.96231" lon="4.55361">
        <ele>472</ele>
        <time>2025-09-11T11:51:31Z</time>
      </trkpt>
      <trkpt lat="45.96232" lon="4.55362">
        <ele>472</ele>
        <time>2025-09-11T11:51:32Z</time>
      </trkpt>
      <trkpt lat="45.96234" lon="4.55364">
        <ele>472.2</ele>
        <time>2025-09-11T11:51:33Z</time>
      </trkpt>
      <trkpt lat="45.96236" lon="4.55365">
        <ele>472.4</ele>
        <time>2025-09-11T11:51:34Z</time>
      </trkpt>
      <trkpt lat="45.96237" lon="4.55367">
        <ele>472.4</ele>
        <time>2025-09-11T11:51:35Z</time>
      </trkpt>
      <trkpt lat="45.96239" lon="4.55369">
        <ele>472.4</ele>
        <time>2025-09-11T11:51:36Z</time>
      </trkpt>
      <trkpt lat="45.9624" lon="4.5537">
        <ele>472.4</ele>
        <time>2025-09-11T11:51:37Z</time>
      </trkpt>
      <trkpt lat="45.96242" lon="4.55372">
        <ele>472.2</ele>
        <time>2025-09-11T11:51:38Z</time>
      </trkpt>
      <trkpt lat="45.96244" lon="4.55374">
        <ele>472.2</ele>
        <time>2025-09-11T11:51:39Z</time>
      </trkpt>
      <trkpt lat="45.96246" lon="4.55375">
        <ele>472.2</ele>
        <time>2025-09-11T11:51:40Z</time>
      </trkpt>
      <trkpt lat="45.96248" lon="4.55377">
        <ele>472.2</ele>
        <time>2025-09-11T11:51:41Z</time>
      </trkpt>
      <trkpt lat="45.9625" lon="4.55379">
        <ele>472.2</ele>
        <time>2025-09-11T11:51:42Z</time>
      </trkpt>
      <trkpt lat="45.96252" lon="4.55381">
        <ele>472.2</ele>
        <time>2025-09-11T11:51:43Z</time>
      </trkpt>
      <trkpt lat="45.96254" lon="4.55382">
        <ele>472.2</ele>
        <time>2025-09-11T11:51:44Z</time>
      </trkpt>
      <trkpt lat="45.96256" lon="4.55384">
        <ele>472.6</ele>
        <time>2025-09-11T11:51:45Z</time>
      </trkpt>
      <trkpt lat="45.96258" lon="4.55385">
        <ele>472.6</ele>
        <time>2025-09-11T11:51:46Z</time>
      </trkpt>
      <trkpt lat="45.9626" lon="4.55387">
        <ele>472.6</ele>
        <time>2025-09-11T11:51:47Z</time>
      </trkpt>
      <trkpt lat="45.96262" lon="4.55387">
        <ele>472.6</ele>
        <time>2025-09-11T11:51:48Z</time>
      </trkpt>
      <trkpt lat="45.96264" lon="4.55389">
        <ele>473</ele>
        <time>2025-09-11T11:51:49Z</time>
      </trkpt>
      <trkpt lat="45.96265" lon="4.5539">
        <ele>473.2</ele>
        <time>2025-09-11T11:51:50Z</time>
      </trkpt>
      <trkpt lat="45.96267" lon="4.55392">
        <ele>473.2</ele>
        <time>2025-09-11T11:51:51Z</time>
      </trkpt>
      <trkpt lat="45.96268" lon="4.55394">
        <ele>473.2</ele>
        <time>2025-09-11T11:51:52Z</time>
      </trkpt>
      <trkpt lat="45.96269" lon="4.55395">
        <ele>473.4</ele>
        <time>2025-09-11T11:51:53Z</time>
      </trkpt>
      <trkpt lat="45.96271" lon="4.55397">
        <ele>473.4</ele>
        <time>2025-09-11T11:51:54Z</time>
      </trkpt>
      <trkpt lat="45.96273" lon="4.55398">
        <ele>473.4</ele>
        <time>2025-09-11T11:51:55Z</time>
      </trkpt>
      <trkpt lat="45.96274" lon="4.554">
        <ele>473.6</ele>
        <time>2025-09-11T11:51:56Z</time>
      </trkpt>
      <trkpt lat="45.96276" lon="4.55402">
        <ele>473.6</ele>
        <time>2025-09-11T11:51:57Z</time>
      </trkpt>
      <trkpt lat="45.96277" lon="4.55403">
        <ele>473.6</ele>
        <time>2025-09-11T11:51:58Z</time>
      </trkpt>
      <trkpt lat="45.9628" lon="4.55404">
        <ele>473.6</ele>
        <time>2025-09-11T11:51:59Z</time>
      </trkpt>
      <trkpt lat="45.96282" lon="4.55405">
        <ele>473.8</ele>
        <time>2025-09-11T11:52:00Z</time>
      </trkpt>
      <trkpt lat="45.96284" lon="4.55407">
        <ele>474</ele>
        <time>2025-09-11T11:52:01Z</time>
      </trkpt>
      <trkpt lat="45.96285" lon="4.55408">
        <ele>474</ele>
        <time>2025-09-11T11:52:02Z</time>
      </trkpt>
      <trkpt lat="45.96287" lon="4.5541">
        <ele>474.4</ele>
        <time>2025-09-11T11:52:03Z</time>
      </trkpt>
      <trkpt lat="45.96288" lon="4.55412">
        <ele>474.4</ele>
        <time>2025-09-11T11:52:04Z</time>
      </trkpt>
      <trkpt lat="45.9629" lon="4.55413">
        <ele>474.4</ele>
        <time>2025-09-11T11:52:05Z</time>
      </trkpt>
      <trkpt lat="45.96291" lon="4.55415">
        <ele>474.4</ele>
        <time>2025-09-11T11:52:06Z</time>
      </trkpt>
      <trkpt lat="45.96293" lon="4.55416">
        <ele>474.4</ele>
        <time>2025-09-11T11:52:07Z</time>
      </trkpt>
      <trkpt lat="45.96294" lon="4.55418">
        <ele>474.4</ele>
        <time>2025-09-11T11:52:08Z</time>
      </trkpt>
      <trkpt lat="45.96295" lon="4.55419">
        <ele>474.4</ele>
        <time>2025-09-11T11:52:09Z</time>
      </trkpt>
      <trkpt lat="45.96296" lon="4.5542">
        <ele>474.4</ele>
        <time>2025-09-11T11:52:10Z</time>
      </trkpt>
      <trkpt lat="45.96297" lon="4.55421">
        <ele>474.6</ele>
        <time>2025-09-11T11:52:11Z</time>
      </trkpt>
      <trkpt lat="45.96298" lon="4.55422">
        <ele>474.6</ele>
        <time>2025-09-11T11:52:12Z</time>
      </trkpt>
      <trkpt lat="45.96298" lon="4.55424">
        <ele>474.8</ele>
        <time>2025-09-11T11:52:13Z</time>
      </trkpt>
      <trkpt lat="45.96299" lon="4.55425">
        <ele>475</ele>
        <time>2025-09-11T11:52:14Z</time>
      </trkpt>
      <trkpt lat="45.96301" lon="4.55427">
        <ele>475.4</ele>
        <time>2025-09-11T11:52:15Z</time>
      </trkpt>
      <trkpt lat="45.96301" lon="4.55429">
        <ele>475.6</ele>
        <time>2025-09-11T11:52:16Z</time>
      </trkpt>
      <trkpt lat="45.96302" lon="4.5543">
        <ele>475.6</ele>
        <time>2025-09-11T11:52:17Z</time>
      </trkpt>
      <trkpt lat="45.96303" lon="4.55431">
        <ele>475.6</ele>
        <time>2025-09-11T11:52:18Z</time>
      </trkpt>
      <trkpt lat="45.96305" lon="4.55433">
        <ele>476</ele>
        <time>2025-09-11T11:52:19Z</time>
      </trkpt>
      <trkpt lat="45.96306" lon="4.55434">
        <ele>476</ele>
        <time>2025-09-11T11:52:20Z</time>
      </trkpt>
      <trkpt lat="45.96307" lon="4.55436">
        <ele>476.4</ele>
        <time>2025-09-11T11:52:21Z</time>
      </trkpt>
      <trkpt lat="45.96307" lon="4.55438">
        <ele>476.6</ele>
        <time>2025-09-11T11:52:22Z</time>
      </trkpt>
      <trkpt lat="45.96308" lon="4.55439">
        <ele>476.6</ele>
        <time>2025-09-11T11:52:23Z</time>
      </trkpt>
      <trkpt lat="45.96308" lon="4.55441">
        <ele>476.6</ele>
        <time>2025-09-11T11:52:24Z</time>
      </trkpt>
      <trkpt lat="45.96309" lon="4.55442">
        <ele>476.6</ele>
        <time>2025-09-11T11:52:25Z</time>
      </trkpt>
      <trkpt lat="45.96309" lon="4.55444">
        <ele>476.6</ele>
        <time>2025-09-11T11:52:26Z</time>
      </trkpt>
      <trkpt lat="45.9631" lon="4.55445">
        <ele>477</ele>
        <time>2025-09-11T11:52:27Z</time>
      </trkpt>
      <trkpt lat="45.96311" lon="4.55447">
        <ele>477.4</ele>
        <time>2025-09-11T11:52:28Z</time>
      </trkpt>
      <trkpt lat="45.96311" lon="4.55449">
        <ele>477.4</ele>
        <time>2025-09-11T11:52:29Z</time>
      </trkpt>
      <trkpt lat="45.96312" lon="4.5545">
        <ele>477.8</ele>
        <time>2025-09-11T11:52:30Z</time>
      </trkpt>
      <trkpt lat="45.96313" lon="4.55452">
        <ele>478</ele>
        <time>2025-09-11T11:52:31Z</time>
      </trkpt>
      <trkpt lat="45.96313" lon="4.55453">
        <ele>478</ele>
        <time>2025-09-11T11:52:32Z</time>
      </trkpt>
      <trkpt lat="45.96314" lon="4.55455">
        <ele>478.2</ele>
        <time>2025-09-11T11:52:33Z</time>
      </trkpt>
      <trkpt lat="45.96315" lon="4.55456">
        <ele>478.6</ele>
        <time>2025-09-11T11:52:34Z</time>
      </trkpt>
      <trkpt lat="45.96316" lon="4.55457">
        <ele>478.6</ele>
        <time>2025-09-11T11:52:35Z</time>
      </trkpt>
      <trkpt lat="45.96316" lon="4.55458">
        <ele>478.6</ele>
        <time>2025-09-11T11:52:36Z</time>
      </trkpt>
      <trkpt lat="45.96317" lon="4.5546">
        <ele>478.6</ele>
        <time>2025-09-11T11:52:37Z</time>
      </trkpt>
      <trkpt lat="45.96318" lon="4.55462">
        <ele>478.8</ele>
        <time>2025-09-11T11:52:38Z</time>
      </trkpt>
      <trkpt lat="45.96318" lon="4.55463">
        <ele>478.8</ele>
        <time>2025-09-11T11:52:39Z</time>
      </trkpt>
      <trkpt lat="45.96319" lon="4.55465">
        <ele>478.8</ele>
        <time>2025-09-11T11:52:40Z</time>
      </trkpt>
      <trkpt lat="45.9632" lon="4.55466">
        <ele>479.2</ele>
        <time>2025-09-11T11:52:41Z</time>
      </trkpt>
      <trkpt lat="45.96321" lon="4.55467">
        <ele>479.2</ele>
        <time>2025-09-11T11:52:42Z</time>
      </trkpt>
      <trkpt lat="45.96322" lon="4.55468">
        <ele>479.2</ele>
        <time>2025-09-11T11:52:43Z</time>
      </trkpt>
      <trkpt lat="45.96322" lon="4.55469">
        <ele>479.6</ele>
        <time>2025-09-11T11:52:44Z</time>
      </trkpt>
      <trkpt lat="45.96322" lon="4.55469">
        <ele>479.6</ele>
        <time>2025-09-11T11:52:45Z</time>
      </trkpt>
      <trkpt lat="45.96321" lon="4.5547">
        <ele>479.8</ele>
        <time>2025-09-11T11:52:57Z</time>
      </trkpt>
      <trkpt lat="45.96322" lon="4.55472">
        <ele>479.8</ele>
        <time>2025-09-11T11:52:58Z</time>
      </trkpt>
      <trkpt lat="45.96323" lon="4.55474">
        <ele>479.8</ele>
        <time>2025-09-11T11:52:59Z</time>
      </trkpt>
      <trkpt lat="45.96324" lon="4.55476">
        <ele>479.8</ele>
        <time>2025-09-11T11:53:00Z</time>
      </trkpt>
      <trkpt lat="45.96325" lon="4.55478">
        <ele>479.8</ele>
        <time>2025-09-11T11:53:01Z</time>
      </trkpt>
      <trkpt lat="45.96326" lon="4.5548">
        <ele>480.2</ele>
        <time>2025-09-11T11:53:02Z</time>
      </trkpt>
      <trkpt lat="45.96326" lon="4.55481">
        <ele>480.6</ele>
        <time>2025-09-11T11:53:03Z</time>
      </trkpt>
      <trkpt lat="45.96327" lon="4.55483">
        <ele>480.6</ele>
        <time>2025-09-11T11:53:04Z</time>
      </trkpt>
      <trkpt lat="45.96328" lon="4.55485">
        <ele>480.8</ele>
        <time>2025-09-11T11:53:05Z</time>
      </trkpt>
      <trkpt lat="45.96329" lon="4.55487">
        <ele>480.8</ele>
        <time>2025-09-11T11:53:06Z</time>
      </trkpt>
      <trkpt lat="45.9633" lon="4.55488">
        <ele>481.2</ele>
        <time>2025-09-11T11:53:07Z</time>
      </trkpt>
      <trkpt lat="45.9633" lon="4.5549">
        <ele>481.2</ele>
        <time>2025-09-11T11:53:08Z</time>
      </trkpt>
      <trkpt lat="45.96331" lon="4.55492">
        <ele>481.2</ele>
        <time>2025-09-11T11:53:09Z</time>
      </trkpt>
      <trkpt lat="45.96332" lon="4.55494">
        <ele>481.2</ele>
        <time>2025-09-11T11:53:10Z</time>
      </trkpt>
      <trkpt lat="45.96333" lon="4.55495">
        <ele>481.4</ele>
        <time>2025-09-11T11:53:11Z</time>
      </trkpt>
      <trkpt lat="45.96334" lon="4.55497">
        <ele>481.4</ele>
        <time>2025-09-11T11:53:12Z</time>
      </trkpt>
      <trkpt lat="45.96335" lon="4.55498">
        <ele>481.6</ele>
        <time>2025-09-11T11:53:13Z</time>
      </trkpt>
      <trkpt lat="45.96336" lon="4.555">
        <ele>481.6</ele>
        <time>2025-09-11T11:53:14Z</time>
      </trkpt>
      <trkpt lat="45.96337" lon="4.55502">
        <ele>482</ele>
        <time>2025-09-11T11:53:15Z</time>
      </trkpt>
      <trkpt lat="45.96338" lon="4.55503">
        <ele>482.2</ele>
        <time>2025-09-11T11:53:16Z</time>
      </trkpt>
      <trkpt lat="45.96339" lon="4.55505">
        <ele>482.4</ele>
        <time>2025-09-11T11:53:17Z</time>
      </trkpt>
      <trkpt lat="45.9634" lon="4.55507">
        <ele>482.8</ele>
        <time>2025-09-11T11:53:18Z</time>
      </trkpt>
      <trkpt lat="45.96341" lon="4.55509">
        <ele>482.8</ele>
        <time>2025-09-11T11:53:19Z</time>
      </trkpt>
      <trkpt lat="45.96342" lon="4.5551">
        <ele>483.2</ele>
        <time>2025-09-11T11:53:20Z</time>
      </trkpt>
      <trkpt lat="45.96343" lon="4.55512">
        <ele>483.2</ele>
        <time>2025-09-11T11:53:21Z</time>
      </trkpt>
      <trkpt lat="45.96344" lon="4.55513">
        <ele>483.4</ele>
        <time>2025-09-11T11:53:22Z</time>
      </trkpt>
      <trkpt lat="45.96346" lon="4.55515">
        <ele>483.6</ele>
        <time>2025-09-11T11:53:23Z</time>
      </trkpt>
      <trkpt lat="45.96347" lon="4.55516">
        <ele>483.6</ele>
        <time>2025-09-11T11:53:24Z</time>
      </trkpt>
      <trkpt lat="45.96348" lon="4.55518">
        <ele>483.6</ele>
        <time>2025-09-11T11:53:25Z</time>
      </trkpt>
      <trkpt lat="45.9635" lon="4.5552">
        <ele>483.6</ele>
        <time>2025-09-11T11:53:26Z</time>
      </trkpt>
      <trkpt lat="45.96351" lon="4.55522">
        <ele>483.8</ele>
        <time>2025-09-11T11:53:27Z</time>
      </trkpt>
      <trkpt lat="45.96353" lon="4.55524">
        <ele>483.8</ele>
        <time>2025-09-11T11:53:28Z</time>
      </trkpt>
      <trkpt lat="45.96355" lon="4.55526">
        <ele>483.8</ele>
        <time>2025-09-11T11:53:29Z</time>
      </trkpt>
      <trkpt lat="45.96356" lon="4.55527">
        <ele>483.8</ele>
        <time>2025-09-11T11:53:30Z</time>
      </trkpt>
      <trkpt lat="45.96358" lon="4.55529">
        <ele>484.2</ele>
        <time>2025-09-11T11:53:31Z</time>
      </trkpt>
      <trkpt lat="45.96359" lon="4.55531">
        <ele>484.2</ele>
        <time>2025-09-11T11:53:32Z</time>
      </trkpt>
      <trkpt lat="45.9636" lon="4.55533">
        <ele>484.2</ele>
        <time>2025-09-11T11:53:33Z</time>
      </trkpt>
      <trkpt lat="45.96361" lon="4.55535">
        <ele>484.2</ele>
        <time>2025-09-11T11:53:34Z</time>
      </trkpt>
      <trkpt lat="45.96362" lon="4.55538">
        <ele>483.8</ele>
        <time>2025-09-11T11:53:35Z</time>
      </trkpt>
      <trkpt lat="45.96364" lon="4.5554">
        <ele>483.8</ele>
        <time>2025-09-11T11:53:36Z</time>
      </trkpt>
      <trkpt lat="45.96365" lon="4.55542">
        <ele>483.8</ele>
        <time>2025-09-11T11:53:37Z</time>
      </trkpt>
      <trkpt lat="45.96366" lon="4.55545">
        <ele>484</ele>
        <time>2025-09-11T11:53:38Z</time>
      </trkpt>
      <trkpt lat="45.96366" lon="4.55547">
        <ele>484.2</ele>
        <time>2025-09-11T11:53:39Z</time>
      </trkpt>
      <trkpt lat="45.96367" lon="4.55549">
        <ele>484.2</ele>
        <time>2025-09-11T11:53:40Z</time>
      </trkpt>
      <trkpt lat="45.96368" lon="4.55552">
        <ele>484.4</ele>
        <time>2025-09-11T11:53:41Z</time>
      </trkpt>
      <trkpt lat="45.96368" lon="4.55555">
        <ele>484.2</ele>
        <time>2025-09-11T11:53:42Z</time>
      </trkpt>
      <trkpt lat="45.96369" lon="4.55558">
        <ele>484.2</ele>
        <time>2025-09-11T11:53:43Z</time>
      </trkpt>
      <trkpt lat="45.9637" lon="4.55561">
        <ele>484.2</ele>
        <time>2025-09-11T11:53:44Z</time>
      </trkpt>
      <trkpt lat="45.96371" lon="4.55564">
        <ele>484.2</ele>
        <time>2025-09-11T11:53:45Z</time>
      </trkpt>
      <trkpt lat="45.96371" lon="4.55566">
        <ele>484.4</ele>
        <time>2025-09-11T11:53:46Z</time>
      </trkpt>
      <trkpt lat="45.96372" lon="4.55569">
        <ele>484.4</ele>
        <time>2025-09-11T11:53:47Z</time>
      </trkpt>
      <trkpt lat="45.96372" lon="4.55571">
        <ele>484.4</ele>
        <time>2025-09-11T11:53:48Z</time>
      </trkpt>
      <trkpt lat="45.96373" lon="4.55574">
        <ele>484.4</ele>
        <time>2025-09-11T11:53:49Z</time>
      </trkpt>
      <trkpt lat="45.96374" lon="4.55577">
        <ele>484.4</ele>
        <time>2025-09-11T11:53:50Z</time>
      </trkpt>
      <trkpt lat="45.96375" lon="4.55579">
        <ele>484.8</ele>
        <time>2025-09-11T11:53:51Z</time>
      </trkpt>
      <trkpt lat="45.96376" lon="4.55581">
        <ele>484.8</ele>
        <time>2025-09-11T11:53:52Z</time>
      </trkpt>
      <trkpt lat="45.96377" lon="4.55582">
        <ele>484.8</ele>
        <time>2025-09-11T11:53:53Z</time>
      </trkpt>
      <trkpt lat="45.96377" lon="4.55583">
        <ele>484.8</ele>
        <time>2025-09-11T11:53:54Z</time>
      </trkpt>
      <trkpt lat="45.96378" lon="4.55585">
        <ele>485</ele>
        <time>2025-09-11T11:53:55Z</time>
      </trkpt>
      <trkpt lat="45.96379" lon="4.55587">
        <ele>485</ele>
        <time>2025-09-11T11:53:56Z</time>
      </trkpt>
      <trkpt lat="45.96379" lon="4.55589">
        <ele>485</ele>
        <time>2025-09-11T11:53:57Z</time>
      </trkpt>
      <trkpt lat="45.96379" lon="4.55591">
        <ele>485</ele>
        <time>2025-09-11T11:53:58Z</time>
      </trkpt>
      <trkpt lat="45.96379" lon="4.55593">
        <ele>485.4</ele>
        <time>2025-09-11T11:53:59Z</time>
      </trkpt>
      <trkpt lat="45.9638" lon="4.55595">
        <ele>485.4</ele>
        <time>2025-09-11T11:54:00Z</time>
      </trkpt>
      <trkpt lat="45.9638" lon="4.55597">
        <ele>485.6</ele>
        <time>2025-09-11T11:54:01Z</time>
      </trkpt>
      <trkpt lat="45.96381" lon="4.556">
        <ele>485.6</ele>
        <time>2025-09-11T11:54:02Z</time>
      </trkpt>
      <trkpt lat="45.96381" lon="4.55601">
        <ele>486</ele>
        <time>2025-09-11T11:54:03Z</time>
      </trkpt>
      <trkpt lat="45.96381" lon="4.55603">
        <ele>486.2</ele>
        <time>2025-09-11T11:54:04Z</time>
      </trkpt>
      <trkpt lat="45.96382" lon="4.55606">
        <ele>486.2</ele>
        <time>2025-09-11T11:54:05Z</time>
      </trkpt>
      <trkpt lat="45.96382" lon="4.55608">
        <ele>486.4</ele>
        <time>2025-09-11T11:54:06Z</time>
      </trkpt>
      <trkpt lat="45.96383" lon="4.5561">
        <ele>486.4</ele>
        <time>2025-09-11T11:54:07Z</time>
      </trkpt>
      <trkpt lat="45.96384" lon="4.55612">
        <ele>486.4</ele>
        <time>2025-09-11T11:54:08Z</time>
      </trkpt>
      <trkpt lat="45.96384" lon="4.55615">
        <ele>486.4</ele>
        <time>2025-09-11T11:54:09Z</time>
      </trkpt>
      <trkpt lat="45.96385" lon="4.55617">
        <ele>486.4</ele>
        <time>2025-09-11T11:54:10Z</time>
      </trkpt>
      <trkpt lat="45.96386" lon="4.55619">
        <ele>486.8</ele>
        <time>2025-09-11T11:54:11Z</time>
      </trkpt>
      <trkpt lat="45.96387" lon="4.55621">
        <ele>486.8</ele>
        <time>2025-09-11T11:54:12Z</time>
      </trkpt>
      <trkpt lat="45.96387" lon="4.55623">
        <ele>486.8</ele>
        <time>2025-09-11T11:54:13Z</time>
      </trkpt>
      <trkpt lat="45.96388" lon="4.55626">
        <ele>486.8</ele>
        <time>2025-09-11T11:54:14Z</time>
      </trkpt>
      <trkpt lat="45.96389" lon="4.55628">
        <ele>487.2</ele>
        <time>2025-09-11T11:54:15Z</time>
      </trkpt>
      <trkpt lat="45.9639" lon="4.5563">
        <ele>487.2</ele>
        <time>2025-09-11T11:54:16Z</time>
      </trkpt>
      <trkpt lat="45.9639" lon="4.55632">
        <ele>487.2</ele>
        <time>2025-09-11T11:54:17Z</time>
      </trkpt>
      <trkpt lat="45.96391" lon="4.55634">
        <ele>487.2</ele>
        <time>2025-09-11T11:54:18Z</time>
      </trkpt>
      <trkpt lat="45.96392" lon="4.55636">
        <ele>487.4</ele>
        <time>2025-09-11T11:54:19Z</time>
      </trkpt>
      <trkpt lat="45.96393" lon="4.55638">
        <ele>487.4</ele>
        <time>2025-09-11T11:54:20Z</time>
      </trkpt>
      <trkpt lat="45.96394" lon="4.5564">
        <ele>487.8</ele>
        <time>2025-09-11T11:54:21Z</time>
      </trkpt>
      <trkpt lat="45.96395" lon="4.55642">
        <ele>487.8</ele>
        <time>2025-09-11T11:54:22Z</time>
      </trkpt>
      <trkpt lat="45.96395" lon="4.55644">
        <ele>488.2</ele>
        <time>2025-09-11T11:54:23Z</time>
      </trkpt>
      <trkpt lat="45.96396" lon="4.55647">
        <ele>488.4</ele>
        <time>2025-09-11T11:54:24Z</time>
      </trkpt>
      <trkpt lat="45.96397" lon="4.55649">
        <ele>488.6</ele>
        <time>2025-09-11T11:54:25Z</time>
      </trkpt>
      <trkpt lat="45.96398" lon="4.55651">
        <ele>489.2</ele>
        <time>2025-09-11T11:54:26Z</time>
      </trkpt>
      <trkpt lat="45.96399" lon="4.55653">
        <ele>489.6</ele>
        <time>2025-09-11T11:54:27Z</time>
      </trkpt>
      <trkpt lat="45.964" lon="4.55655">
        <ele>489.8</ele>
        <time>2025-09-11T11:54:28Z</time>
      </trkpt>
      <trkpt lat="45.96401" lon="4.55657">
        <ele>490.2</ele>
        <time>2025-09-11T11:54:29Z</time>
      </trkpt>
      <trkpt lat="45.96401" lon="4.55658">
        <ele>490.2</ele>
        <time>2025-09-11T11:54:30Z</time>
      </trkpt>
      <trkpt lat="45.96402" lon="4.55658">
        <ele>490.4</ele>
        <time>2025-09-11T11:54:31Z</time>
      </trkpt>
      <trkpt lat="45.96402" lon="4.55658">
        <ele>490.4</ele>
        <time>2025-09-11T11:54:32Z</time>
      </trkpt>
      <trkpt lat="45.96403" lon="4.55657">
        <ele>490.6</ele>
        <time>2025-09-11T11:55:30Z</time>
      </trkpt>
      <trkpt lat="45.96403" lon="4.55658">
        <ele>490.6</ele>
        <time>2025-09-11T11:55:31Z</time>
      </trkpt>
      <trkpt lat="45.96404" lon="4.55659">
        <ele>490.6</ele>
        <time>2025-09-11T11:55:32Z</time>
      </trkpt>
      <trkpt lat="45.96404" lon="4.55661">
        <ele>490.6</ele>
        <time>2025-09-11T11:55:33Z</time>
      </trkpt>
      <trkpt lat="45.96405" lon="4.55662">
        <ele>490.6</ele>
        <time>2025-09-11T11:55:34Z</time>
      </trkpt>
      <trkpt lat="45.96406" lon="4.55664">
        <ele>490.6</ele>
        <time>2025-09-11T11:55:35Z</time>
      </trkpt>
      <trkpt lat="45.96406" lon="4.55665">
        <ele>490.8</ele>
        <time>2025-09-11T11:55:36Z</time>
      </trkpt>
      <trkpt lat="45.96406" lon="4.55666">
        <ele>490.8</ele>
        <time>2025-09-11T11:55:37Z</time>
      </trkpt>
      <trkpt lat="45.96407" lon="4.55667">
        <ele>490.8</ele>
        <time>2025-09-11T11:55:38Z</time>
      </trkpt>
      <trkpt lat="45.96407" lon="4.55668">
        <ele>491.2</ele>
        <time>2025-09-11T11:55:39Z</time>
      </trkpt>
      <trkpt lat="45.96408" lon="4.55669">
        <ele>491.2</ele>
        <time>2025-09-11T11:55:40Z</time>
      </trkpt>
      <trkpt lat="45.96408" lon="4.55669">
        <ele>491.4</ele>
        <time>2025-09-11T11:55:41Z</time>
      </trkpt>
      <trkpt lat="45.96408" lon="4.55669">
        <ele>491.4</ele>
        <time>2025-09-11T11:55:42Z</time>
      </trkpt>
      <trkpt lat="45.96408" lon="4.55669">
        <ele>491.4</ele>
        <time>2025-09-11T11:55:43Z</time>
      </trkpt>
      <trkpt lat="45.96408" lon="4.5567">
        <ele>491.4</ele>
        <time>2025-09-11T11:55:44Z</time>
      </trkpt>
      <trkpt lat="45.96409" lon="4.55671">
        <ele>491.4</ele>
        <time>2025-09-11T11:55:45Z</time>
      </trkpt>
      <trkpt lat="45.96409" lon="4.55673">
        <ele>491.4</ele>
        <time>2025-09-11T11:55:46Z</time>
      </trkpt>
      <trkpt lat="45.9641" lon="4.55674">
        <ele>491.4</ele>
        <time>2025-09-11T11:55:47Z</time>
      </trkpt>
      <trkpt lat="45.9641" lon="4.55675">
        <ele>491.6</ele>
        <time>2025-09-11T11:55:48Z</time>
      </trkpt>
      <trkpt lat="45.96411" lon="4.55676">
        <ele>491.6</ele>
        <time>2025-09-11T11:55:49Z</time>
      </trkpt>
      <trkpt lat="45.96411" lon="4.55677">
        <ele>491.8</ele>
        <time>2025-09-11T11:55:50Z</time>
      </trkpt>
      <trkpt lat="45.96411" lon="4.55678">
        <ele>492</ele>
        <time>2025-09-11T11:55:51Z</time>
      </trkpt>
      <trkpt lat="45.96412" lon="4.55679">
        <ele>492.4</ele>
        <time>2025-09-11T11:55:52Z</time>
      </trkpt>
      <trkpt lat="45.96413" lon="4.5568">
        <ele>492.4</ele>
        <time>2025-09-11T11:55:53Z</time>
      </trkpt>
      <trkpt lat="45.96413" lon="4.55681">
        <ele>492.8</ele>
        <time>2025-09-11T11:55:54Z</time>
      </trkpt>
      <trkpt lat="45.96414" lon="4.55682">
        <ele>493</ele>
        <time>2025-09-11T11:55:55Z</time>
      </trkpt>
      <trkpt lat="45.96414" lon="4.55683">
        <ele>493</ele>
        <time>2025-09-11T11:55:56Z</time>
      </trkpt>
      <trkpt lat="45.96414" lon="4.55684">
        <ele>493.4</ele>
        <time>2025-09-11T11:55:57Z</time>
      </trkpt>
      <trkpt lat="45.96415" lon="4.55685">
        <ele>493.6</ele>
        <time>2025-09-11T11:55:58Z</time>
      </trkpt>
      <trkpt lat="45.96415" lon="4.55686">
        <ele>494</ele>
        <time>2025-09-11T11:55:59Z</time>
      </trkpt>
      <trkpt lat="45.96416" lon="4.55687">
        <ele>494.2</ele>
        <time>2025-09-11T11:56:00Z</time>
      </trkpt>
      <trkpt lat="45.96416" lon="4.55688">
        <ele>494.2</ele>
        <time>2025-09-11T11:56:01Z</time>
      </trkpt>
      <trkpt lat="45.96417" lon="4.5569">
        <ele>494.4</ele>
        <time>2025-09-11T11:56:02Z</time>
      </trkpt>
      <trkpt lat="45.96417" lon="4.55691">
        <ele>494.8</ele>
        <time>2025-09-11T11:56:03Z</time>
      </trkpt>
      <trkpt lat="45.96418" lon="4.55692">
        <ele>495</ele>
        <time>2025-09-11T11:56:04Z</time>
      </trkpt>
      <trkpt lat="45.96418" lon="4.55694">
        <ele>495</ele>
        <time>2025-09-11T11:56:05Z</time>
      </trkpt>
      <trkpt lat="45.96419" lon="4.55696">
        <ele>495.4</ele>
        <time>2025-09-11T11:56:06Z</time>
      </trkpt>
      <trkpt lat="45.9642" lon="4.55697">
        <ele>495.4</ele>
        <time>2025-09-11T11:56:07Z</time>
      </trkpt>
      <trkpt lat="45.9642" lon="4.55698">
        <ele>495.8</ele>
        <time>2025-09-11T11:56:08Z</time>
      </trkpt>
      <trkpt lat="45.96421" lon="4.55699">
        <ele>496</ele>
        <time>2025-09-11T11:56:09Z</time>
      </trkpt>
      <trkpt lat="45.96422" lon="4.55701">
        <ele>496</ele>
        <time>2025-09-11T11:56:10Z</time>
      </trkpt>
      <trkpt lat="45.96422" lon="4.55702">
        <ele>496.2</ele>
        <time>2025-09-11T11:56:11Z</time>
      </trkpt>
      <trkpt lat="45.96423" lon="4.55702">
        <ele>496.2</ele>
        <time>2025-09-11T11:56:12Z</time>
      </trkpt>
      <trkpt lat="45.96423" lon="4.55704">
        <ele>496.2</ele>
        <time>2025-09-11T11:56:13Z</time>
      </trkpt>
      <trkpt lat="45.96424" lon="4.55705">
        <ele>496.4</ele>
        <time>2025-09-11T11:56:14Z</time>
      </trkpt>
      <trkpt lat="45.96424" lon="4.55706">
        <ele>496.6</ele>
        <time>2025-09-11T11:56:15Z</time>
      </trkpt>
      <trkpt lat="45.96425" lon="4.55707">
        <ele>496.6</ele>
        <time>2025-09-11T11:56:16Z</time>
      </trkpt>
      <trkpt lat="45.96425" lon="4.55707">
        <ele>496.8</ele>
        <time>2025-09-11T11:56:17Z</time>
      </trkpt>
      <trkpt lat="45.96426" lon="4.55708">
        <ele>496.8</ele>
        <time>2025-09-11T11:56:18Z</time>
      </trkpt>
      <trkpt lat="45.96426" lon="4.55709">
        <ele>496.8</ele>
        <time>2025-09-11T11:56:19Z</time>
      </trkpt>
      <trkpt lat="45.96426" lon="4.55709">
        <ele>496.8</ele>
        <time>2025-09-11T11:56:20Z</time>
      </trkpt>
      <trkpt lat="45.96427" lon="4.55709">
        <ele>497.4</ele>
        <time>2025-09-11T11:56:21Z</time>
      </trkpt>
      <trkpt lat="45.96428" lon="4.5571">
        <ele>497.4</ele>
        <time>2025-09-11T11:56:22Z</time>
      </trkpt>
      <trkpt lat="45.96428" lon="4.55711">
        <ele>497.8</ele>
        <time>2025-09-11T11:56:23Z</time>
      </trkpt>
      <trkpt lat="45.96428" lon="4.55712">
        <ele>498.2</ele>
        <time>2025-09-11T11:56:24Z</time>
      </trkpt>
      <trkpt lat="45.96429" lon="4.55713">
        <ele>498.4</ele>
        <time>2025-09-11T11:56:25Z</time>
      </trkpt>
      <trkpt lat="45.96429" lon="4.55713">
        <ele>498.4</ele>
        <time>2025-09-11T11:56:26Z</time>
      </trkpt>
      <trkpt lat="45.96429" lon="4.55713">
        <ele>498.8</ele>
        <time>2025-09-11T11:56:27Z</time>
      </trkpt>
      <trkpt lat="45.96428" lon="4.55714">
        <ele>498.8</ele>
        <time>2025-09-11T11:56:44Z</time>
      </trkpt>
      <trkpt lat="45.96428" lon="4.55715">
        <ele>499</ele>
        <time>2025-09-11T11:56:45Z</time>
      </trkpt>
      <trkpt lat="45.96429" lon="4.55716">
        <ele>499</ele>
        <time>2025-09-11T11:56:46Z</time>
      </trkpt>
      <trkpt lat="45.96429" lon="4.55717">
        <ele>499</ele>
        <time>2025-09-11T11:56:47Z</time>
      </trkpt>
      <trkpt lat="45.9643" lon="4.55718">
        <ele>499.2</ele>
        <time>2025-09-11T11:56:48Z</time>
      </trkpt>
      <trkpt lat="45.96431" lon="4.55718">
        <ele>499.2</ele>
        <time>2025-09-11T11:56:49Z</time>
      </trkpt>
      <trkpt lat="45.96431" lon="4.55719">
        <ele>499.2</ele>
        <time>2025-09-11T11:56:50Z</time>
      </trkpt>
      <trkpt lat="45.96432" lon="4.55719">
        <ele>499.2</ele>
        <time>2025-09-11T11:56:51Z</time>
      </trkpt>
      <trkpt lat="45.96432" lon="4.5572">
        <ele>499.2</ele>
        <time>2025-09-11T11:56:52Z</time>
      </trkpt>
      <trkpt lat="45.96433" lon="4.55722">
        <ele>499.6</ele>
        <time>2025-09-11T11:56:53Z</time>
      </trkpt>
      <trkpt lat="45.96434" lon="4.55722">
        <ele>499.8</ele>
        <time>2025-09-11T11:56:54Z</time>
      </trkpt>
      <trkpt lat="45.96434" lon="4.55723">
        <ele>499.8</ele>
        <time>2025-09-11T11:56:55Z</time>
      </trkpt>
      <trkpt lat="45.96435" lon="4.55724">
        <ele>500</ele>
        <time>2025-09-11T11:56:56Z</time>
      </trkpt>
      <trkpt lat="45.96435" lon="4.55725">
        <ele>500</ele>
        <time>2025-09-11T11:56:57Z</time>
      </trkpt>
      <trkpt lat="45.96436" lon="4.55726">
        <ele>500</ele>
        <time>2025-09-11T11:56:58Z</time>
      </trkpt>
      <trkpt lat="45.96436" lon="4.55727">
        <ele>500.2</ele>
        <time>2025-09-11T11:56:59Z</time>
      </trkpt>
      <trkpt lat="45.96437" lon="4.55728">
        <ele>500.2</ele>
        <time>2025-09-11T11:57:00Z</time>
      </trkpt>
      <trkpt lat="45.96437" lon="4.55729">
        <ele>500.6</ele>
        <time>2025-09-11T11:57:01Z</time>
      </trkpt>
      <trkpt lat="45.96438" lon="4.5573">
        <ele>500.8</ele>
        <time>2025-09-11T11:57:02Z</time>
      </trkpt>
      <trkpt lat="45.96438" lon="4.55731">
        <ele>501.2</ele>
        <time>2025-09-11T11:57:03Z</time>
      </trkpt>
      <trkpt lat="45.96439" lon="4.55732">
        <ele>501.4</ele>
        <time>2025-09-11T11:57:04Z</time>
      </trkpt>
      <trkpt lat="45.9644" lon="4.55733">
        <ele>501.8</ele>
        <time>2025-09-11T11:57:05Z</time>
      </trkpt>
      <trkpt lat="45.9644" lon="4.55733">
        <ele>502</ele>
        <time>2025-09-11T11:57:06Z</time>
      </trkpt>
      <trkpt lat="45.96441" lon="4.55734">
        <ele>502</ele>
        <time>2025-09-11T11:57:07Z</time>
      </trkpt>
      <trkpt lat="45.96441" lon="4.55735">
        <ele>502.4</ele>
        <time>2025-09-11T11:57:08Z</time>
      </trkpt>
      <trkpt lat="45.96442" lon="4.55735">
        <ele>502.8</ele>
        <time>2025-09-11T11:57:09Z</time>
      </trkpt>
      <trkpt lat="45.96443" lon="4.55736">
        <ele>502.8</ele>
        <time>2025-09-11T11:57:10Z</time>
      </trkpt>
      <trkpt lat="45.96444" lon="4.55737">
        <ele>502.8</ele>
        <time>2025-09-11T11:57:11Z</time>
      </trkpt>
      <trkpt lat="45.96444" lon="4.55737">
        <ele>503</ele>
        <time>2025-09-11T11:57:12Z</time>
      </trkpt>
      <trkpt lat="45.96445" lon="4.55738">
        <ele>503.4</ele>
        <time>2025-09-11T11:57:13Z</time>
      </trkpt>
      <trkpt lat="45.96446" lon="4.55739">
        <ele>503.4</ele>
        <time>2025-09-11T11:57:14Z</time>
      </trkpt>
      <trkpt lat="45.96446" lon="4.55739">
        <ele>503.6</ele>
        <time>2025-09-11T11:57:15Z</time>
      </trkpt>
      <trkpt lat="45.96447" lon="4.5574">
        <ele>503.8</ele>
        <time>2025-09-11T11:57:16Z</time>
      </trkpt>
      <trkpt lat="45.96447" lon="4.55741">
        <ele>503.8</ele>
        <time>2025-09-11T11:57:17Z</time>
      </trkpt>
      <trkpt lat="45.96448" lon="4.55741">
        <ele>503.8</ele>
        <time>2025-09-11T11:57:18Z</time>
      </trkpt>
      <trkpt lat="45.96448" lon="4.55742">
        <ele>504.2</ele>
        <time>2025-09-11T11:57:19Z</time>
      </trkpt>
      <trkpt lat="45.96449" lon="4.55743">
        <ele>504.2</ele>
        <time>2025-09-11T11:57:20Z</time>
      </trkpt>
      <trkpt lat="45.9645" lon="4.55744">
        <ele>504.6</ele>
        <time>2025-09-11T11:57:21Z</time>
      </trkpt>
      <trkpt lat="45.9645" lon="4.55744">
        <ele>504.8</ele>
        <time>2025-09-11T11:57:22Z</time>
      </trkpt>
      <trkpt lat="45.96451" lon="4.55745">
        <ele>504.8</ele>
        <time>2025-09-11T11:57:23Z</time>
      </trkpt>
      <trkpt lat="45.96451" lon="4.55746">
        <ele>505</ele>
        <time>2025-09-11T11:57:24Z</time>
      </trkpt>
      <trkpt lat="45.96452" lon="4.55746">
        <ele>505</ele>
        <time>2025-09-11T11:57:25Z</time>
      </trkpt>
      <trkpt lat="45.96452" lon="4.55747">
        <ele>505.6</ele>
        <time>2025-09-11T11:57:26Z</time>
      </trkpt>
      <trkpt lat="45.96453" lon="4.55747">
        <ele>505.8</ele>
        <time>2025-09-11T11:57:27Z</time>
      </trkpt>
      <trkpt lat="45.96453" lon="4.55747">
        <ele>505.8</ele>
        <time>2025-09-11T11:57:28Z</time>
      </trkpt>
      <trkpt lat="45.96453" lon="4.55749">
        <ele>505.8</ele>
        <time>2025-09-11T11:57:44Z</time>
      </trkpt>
      <trkpt lat="45.96454" lon="4.5575">
        <ele>505.8</ele>
        <time>2025-09-11T11:57:45Z</time>
      </trkpt>
      <trkpt lat="45.96455" lon="4.5575">
        <ele>505.8</ele>
        <time>2025-09-11T11:57:46Z</time>
      </trkpt>
      <trkpt lat="45.96455" lon="4.55751">
        <ele>506</ele>
        <time>2025-09-11T11:57:47Z</time>
      </trkpt>
      <trkpt lat="45.96456" lon="4.55752">
        <ele>506.2</ele>
        <time>2025-09-11T11:57:48Z</time>
      </trkpt>
      <trkpt lat="45.96457" lon="4.55752">
        <ele>506.4</ele>
        <time>2025-09-11T11:57:49Z</time>
      </trkpt>
      <trkpt lat="45.96457" lon="4.55753">
        <ele>506.4</ele>
        <time>2025-09-11T11:57:50Z</time>
      </trkpt>
      <trkpt lat="45.96458" lon="4.55754">
        <ele>506.8</ele>
        <time>2025-09-11T11:57:51Z</time>
      </trkpt>
      <trkpt lat="45.96459" lon="4.55755">
        <ele>506.8</ele>
        <time>2025-09-11T11:57:52Z</time>
      </trkpt>
      <trkpt lat="45.96459" lon="4.55756">
        <ele>507</ele>
        <time>2025-09-11T11:57:53Z</time>
      </trkpt>
      <trkpt lat="45.9646" lon="4.55756">
        <ele>507</ele>
        <time>2025-09-11T11:57:54Z</time>
      </trkpt>
      <trkpt lat="45.96461" lon="4.55757">
        <ele>507.4</ele>
        <time>2025-09-11T11:57:55Z</time>
      </trkpt>
      <trkpt lat="45.96461" lon="4.55758">
        <ele>507.4</ele>
        <time>2025-09-11T11:57:56Z</time>
      </trkpt>
      <trkpt lat="45.96462" lon="4.55758">
        <ele>507.6</ele>
        <time>2025-09-11T11:57:57Z</time>
      </trkpt>
      <trkpt lat="45.96463" lon="4.55759">
        <ele>508</ele>
        <time>2025-09-11T11:57:58Z</time>
      </trkpt>
      <trkpt lat="45.96463" lon="4.5576">
        <ele>508.2</ele>
        <time>2025-09-11T11:57:59Z</time>
      </trkpt>
      <trkpt lat="45.96464" lon="4.5576">
        <ele>508.2</ele>
        <time>2025-09-11T11:58:00Z</time>
      </trkpt>
      <trkpt lat="45.96464" lon="4.5576">
        <ele>508.4</ele>
        <time>2025-09-11T11:58:01Z</time>
      </trkpt>
      <trkpt lat="45.96465" lon="4.55761">
        <ele>508.4</ele>
        <time>2025-09-11T11:58:02Z</time>
      </trkpt>
      <trkpt lat="45.96465" lon="4.55761">
        <ele>508.8</ele>
        <time>2025-09-11T11:58:03Z</time>
      </trkpt>
      <trkpt lat="45.96466" lon="4.55762">
        <ele>508.8</ele>
        <time>2025-09-11T11:58:04Z</time>
      </trkpt>
      <trkpt lat="45.96466" lon="4.55762">
        <ele>508.8</ele>
        <time>2025-09-11T11:58:05Z</time>
      </trkpt>
      <trkpt lat="45.96467" lon="4.55763">
        <ele>509</ele>
        <time>2025-09-11T11:58:06Z</time>
      </trkpt>
      <trkpt lat="45.96467" lon="4.55763">
        <ele>509</ele>
        <time>2025-09-11T11:58:07Z</time>
      </trkpt>
      <trkpt lat="45.96468" lon="4.55764">
        <ele>509.4</ele>
        <time>2025-09-11T11:58:08Z</time>
      </trkpt>
      <trkpt lat="45.96468" lon="4.55764">
        <ele>509.4</ele>
        <time>2025-09-11T11:58:09Z</time>
      </trkpt>
      <trkpt lat="45.96469" lon="4.55765">
        <ele>509.6</ele>
        <time>2025-09-11T11:58:10Z</time>
      </trkpt>
      <trkpt lat="45.96469" lon="4.55765">
        <ele>510</ele>
        <time>2025-09-11T11:58:11Z</time>
      </trkpt>
      <trkpt lat="45.9647" lon="4.55766">
        <ele>510</ele>
        <time>2025-09-11T11:58:12Z</time>
      </trkpt>
      <trkpt lat="45.96471" lon="4.55767">
        <ele>510.4</ele>
        <time>2025-09-11T11:58:13Z</time>
      </trkpt>
      <trkpt lat="45.96471" lon="4.55767">
        <ele>510.4</ele>
        <time>2025-09-11T11:58:14Z</time>
      </trkpt>
      <trkpt lat="45.96472" lon="4.55768">
        <ele>510.6</ele>
        <time>2025-09-11T11:58:15Z</time>
      </trkpt>
      <trkpt lat="45.96472" lon="4.55768">
        <ele>510.8</ele>
        <time>2025-09-11T11:58:16Z</time>
      </trkpt>
      <trkpt lat="45.96473" lon="4.55769">
        <ele>511.2</ele>
        <time>2025-09-11T11:58:17Z</time>
      </trkpt>
      <trkpt lat="45.96473" lon="4.5577">
        <ele>511.2</ele>
        <time>2025-09-11T11:58:18Z</time>
      </trkpt>
      <trkpt lat="45.96474" lon="4.5577">
        <ele>511.2</ele>
        <time>2025-09-11T11:58:19Z</time>
      </trkpt>
      <trkpt lat="45.96474" lon="4.55771">
        <ele>511.4</ele>
        <time>2025-09-11T11:58:20Z</time>
      </trkpt>
      <trkpt lat="45.96474" lon="4.55771">
        <ele>511.4</ele>
        <time>2025-09-11T11:58:21Z</time>
      </trkpt>
      <trkpt lat="45.96475" lon="4.55772">
        <ele>511.8</ele>
        <time>2025-09-11T11:58:22Z</time>
      </trkpt>
      <trkpt lat="45.96475" lon="4.55772">
        <ele>511.8</ele>
        <time>2025-09-11T11:58:23Z</time>
      </trkpt>
      <trkpt lat="45.96476" lon="4.55773">
        <ele>511.8</ele>
        <time>2025-09-11T11:58:36Z</time>
      </trkpt>
      <trkpt lat="45.96477" lon="4.55774">
        <ele>511.8</ele>
        <time>2025-09-11T11:58:37Z</time>
      </trkpt>
      <trkpt lat="45.96478" lon="4.55774">
        <ele>511.8</ele>
        <time>2025-09-11T11:58:38Z</time>
      </trkpt>
      <trkpt lat="45.96478" lon="4.55775">
        <ele>511.8</ele>
        <time>2025-09-11T11:58:39Z</time>
      </trkpt>
      <trkpt lat="45.96479" lon="4.55776">
        <ele>512</ele>
        <time>2025-09-11T11:58:40Z</time>
      </trkpt>
      <trkpt lat="45.9648" lon="4.55777">
        <ele>512</ele>
        <time>2025-09-11T11:58:41Z</time>
      </trkpt>
      <trkpt lat="45.96481" lon="4.55777">
        <ele>512.4</ele>
        <time>2025-09-11T11:58:42Z</time>
      </trkpt>
      <trkpt lat="45.96482" lon="4.55778">
        <ele>512.4</ele>
        <time>2025-09-11T11:58:43Z</time>
      </trkpt>
      <trkpt lat="45.96483" lon="4.55779">
        <ele>512.6</ele>
        <time>2025-09-11T11:58:44Z</time>
      </trkpt>
      <trkpt lat="45.96483" lon="4.55779">
        <ele>512.6</ele>
        <time>2025-09-11T11:58:45Z</time>
      </trkpt>
      <trkpt lat="45.96484" lon="4.5578">
        <ele>513</ele>
        <time>2025-09-11T11:58:46Z</time>
      </trkpt>
      <trkpt lat="45.96485" lon="4.5578">
        <ele>513</ele>
        <time>2025-09-11T11:58:47Z</time>
      </trkpt>
      <trkpt lat="45.96486" lon="4.55781">
        <ele>513</ele>
        <time>2025-09-11T11:58:48Z</time>
      </trkpt>
      <trkpt lat="45.96486" lon="4.55781">
        <ele>513.2</ele>
        <time>2025-09-11T11:58:49Z</time>
      </trkpt>
      <trkpt lat="45.96486" lon="4.55782">
        <ele>513.4</ele>
        <time>2025-09-11T11:58:50Z</time>
      </trkpt>
      <trkpt lat="45.96487" lon="4.55782">
        <ele>513.8</ele>
        <time>2025-09-11T11:58:51Z</time>
      </trkpt>
      <trkpt lat="45.96487" lon="4.55783">
        <ele>513.8</ele>
        <time>2025-09-11T11:58:52Z</time>
      </trkpt>
      <trkpt lat="45.96488" lon="4.55784">
        <ele>514</ele>
        <time>2025-09-11T11:58:53Z</time>
      </trkpt>
      <trkpt lat="45.96489" lon="4.55785">
        <ele>514</ele>
        <time>2025-09-11T11:58:54Z</time>
      </trkpt>
      <trkpt lat="45.96489" lon="4.55785">
        <ele>514.4</ele>
        <time>2025-09-11T11:58:55Z</time>
      </trkpt>
      <trkpt lat="45.9649" lon="4.55786">
        <ele>514.4</ele>
        <time>2025-09-11T11:58:56Z</time>
      </trkpt>
      <trkpt lat="45.96491" lon="4.55787">
        <ele>514.4</ele>
        <time>2025-09-11T11:58:57Z</time>
      </trkpt>
      <trkpt lat="45.96491" lon="4.55788">
        <ele>514.6</ele>
        <time>2025-09-11T11:58:58Z</time>
      </trkpt>
      <trkpt lat="45.96492" lon="4.55789">
        <ele>514.6</ele>
        <time>2025-09-11T11:58:59Z</time>
      </trkpt>
      <trkpt lat="45.96492" lon="4.55789">
        <ele>514.6</ele>
        <time>2025-09-11T11:59:00Z</time>
      </trkpt>
      <trkpt lat="45.96493" lon="4.5579">
        <ele>515</ele>
        <time>2025-09-11T11:59:01Z</time>
      </trkpt>
      <trkpt lat="45.96494" lon="4.55791">
        <ele>515</ele>
        <time>2025-09-11T11:59:02Z</time>
      </trkpt>
      <trkpt lat="45.96494" lon="4.55791">
        <ele>515.6</ele>
        <time>2025-09-11T11:59:03Z</time>
      </trkpt>
      <trkpt lat="45.96495" lon="4.55792">
        <ele>515.6</ele>
        <time>2025-09-11T11:59:04Z</time>
      </trkpt>
      <trkpt lat="45.96495" lon="4.55792">
        <ele>515.8</ele>
        <time>2025-09-11T11:59:05Z</time>
      </trkpt>
      <trkpt lat="45.96496" lon="4.55793">
        <ele>515.8</ele>
        <time>2025-09-11T11:59:06Z</time>
      </trkpt>
      <trkpt lat="45.96496" lon="4.55794">
        <ele>516.2</ele>
        <time>2025-09-11T11:59:07Z</time>
      </trkpt>
      <trkpt lat="45.96497" lon="4.55794">
        <ele>516.2</ele>
        <time>2025-09-11T11:59:08Z</time>
      </trkpt>
      <trkpt lat="45.96497" lon="4.55795">
        <ele>516.2</ele>
        <time>2025-09-11T11:59:09Z</time>
      </trkpt>
      <trkpt lat="45.96498" lon="4.55796">
        <ele>516.4</ele>
        <time>2025-09-11T11:59:10Z</time>
      </trkpt>
      <trkpt lat="45.96498" lon="4.55796">
        <ele>516.4</ele>
        <time>2025-09-11T11:59:11Z</time>
      </trkpt>
      <trkpt lat="45.96498" lon="4.55797">
        <ele>516.8</ele>
        <time>2025-09-11T11:59:12Z</time>
      </trkpt>
      <trkpt lat="45.96499" lon="4.55798">
        <ele>516.8</ele>
        <time>2025-09-11T11:59:13Z</time>
      </trkpt>
      <trkpt lat="45.96499" lon="4.55799">
        <ele>517</ele>
        <time>2025-09-11T11:59:14Z</time>
      </trkpt>
      <trkpt lat="45.96499" lon="4.558">
        <ele>517</ele>
        <time>2025-09-11T11:59:15Z</time>
      </trkpt>
      <trkpt lat="45.965" lon="4.558">
        <ele>517.4</ele>
        <time>2025-09-11T11:59:16Z</time>
      </trkpt>
      <trkpt lat="45.965" lon="4.55801">
        <ele>517.6</ele>
        <time>2025-09-11T11:59:17Z</time>
      </trkpt>
      <trkpt lat="45.965" lon="4.55802">
        <ele>517.6</ele>
        <time>2025-09-11T11:59:18Z</time>
      </trkpt>
      <trkpt lat="45.965" lon="4.55803">
        <ele>517.6</ele>
        <time>2025-09-11T11:59:19Z</time>
      </trkpt>
      <trkpt lat="45.965" lon="4.55804">
        <ele>517.8</ele>
        <time>2025-09-11T11:59:20Z</time>
      </trkpt>
      <trkpt lat="45.965" lon="4.55805">
        <ele>518.2</ele>
        <time>2025-09-11T11:59:21Z</time>
      </trkpt>
      <trkpt lat="45.96501" lon="4.55805">
        <ele>518.2</ele>
        <time>2025-09-11T11:59:22Z</time>
      </trkpt>
      <trkpt lat="45.96501" lon="4.55806">
        <ele>518.6</ele>
        <time>2025-09-11T11:59:23Z</time>
      </trkpt>
      <trkpt lat="45.96501" lon="4.55807">
        <ele>518.8</ele>
        <time>2025-09-11T11:59:24Z</time>
      </trkpt>
      <trkpt lat="45.96501" lon="4.55807">
        <ele>518.8</ele>
        <time>2025-09-11T11:59:25Z</time>
      </trkpt>
      <trkpt lat="45.96501" lon="4.55808">
        <ele>519.2</ele>
        <time>2025-09-11T11:59:26Z</time>
      </trkpt>
      <trkpt lat="45.96501" lon="4.55809">
        <ele>519.2</ele>
        <time>2025-09-11T11:59:27Z</time>
      </trkpt>
      <trkpt lat="45.96501" lon="4.5581">
        <ele>519.4</ele>
        <time>2025-09-11T11:59:28Z</time>
      </trkpt>
      <trkpt lat="45.96501" lon="4.55811">
        <ele>519.6</ele>
        <time>2025-09-11T11:59:29Z</time>
      </trkpt>
      <trkpt lat="45.96501" lon="4.55811">
        <ele>519.6</ele>
        <time>2025-09-11T11:59:30Z</time>
      </trkpt>
      <trkpt lat="45.96501" lon="4.55811">
        <ele>520</ele>
        <time>2025-09-11T11:59:31Z</time>
      </trkpt>
      <trkpt lat="45.96501" lon="4.55812">
        <ele>520.2</ele>
        <time>2025-09-11T11:59:32Z</time>
      </trkpt>
      <trkpt lat="45.96501" lon="4.55813">
        <ele>520.2</ele>
        <time>2025-09-11T11:59:33Z</time>
      </trkpt>
      <trkpt lat="45.96501" lon="4.55814">
        <ele>520.2</ele>
        <time>2025-09-11T11:59:34Z</time>
      </trkpt>
      <trkpt lat="45.96501" lon="4.55814">
        <ele>520.2</ele>
        <time>2025-09-11T11:59:35Z</time>
      </trkpt>
      <trkpt lat="45.96499" lon="4.55815">
        <ele>520.8</ele>
        <time>2025-09-11T12:00:32Z</time>
      </trkpt>
      <trkpt lat="45.965" lon="4.55816">
        <ele>520.8</ele>
        <time>2025-09-11T12:00:33Z</time>
      </trkpt>
      <trkpt lat="45.965" lon="4.55817">
        <ele>520.8</ele>
        <time>2025-09-11T12:00:34Z</time>
      </trkpt>
      <trkpt lat="45.965" lon="4.55818">
        <ele>520.8</ele>
        <time>2025-09-11T12:00:35Z</time>
      </trkpt>
      <trkpt lat="45.965" lon="4.55819">
        <ele>520.8</ele>
        <time>2025-09-11T12:00:36Z</time>
      </trkpt>
      <trkpt lat="45.965" lon="4.5582">
        <ele>521.2</ele>
        <time>2025-09-11T12:00:37Z</time>
      </trkpt>
      <trkpt lat="45.965" lon="4.55821">
        <ele>521.2</ele>
        <time>2025-09-11T12:00:38Z</time>
      </trkpt>
      <trkpt lat="45.965" lon="4.55822">
        <ele>521.2</ele>
        <time>2025-09-11T12:00:39Z</time>
      </trkpt>
      <trkpt lat="45.965" lon="4.55823">
        <ele>521.2</ele>
        <time>2025-09-11T12:00:40Z</time>
      </trkpt>
      <trkpt lat="45.965" lon="4.55825">
        <ele>521.4</ele>
        <time>2025-09-11T12:00:41Z</time>
      </trkpt>
      <trkpt lat="45.96499" lon="4.55826">
        <ele>521.4</ele>
        <time>2025-09-11T12:00:42Z</time>
      </trkpt>
      <trkpt lat="45.96499" lon="4.55827">
        <ele>521.4</ele>
        <time>2025-09-11T12:00:43Z</time>
      </trkpt>
      <trkpt lat="45.96498" lon="4.55827">
        <ele>521.4</ele>
        <time>2025-09-11T12:00:44Z</time>
      </trkpt>
      <trkpt lat="45.96498" lon="4.55826">
        <ele>521.6</ele>
        <time>2025-09-11T12:00:45Z</time>
      </trkpt>
      <trkpt lat="45.96498" lon="4.55826">
        <ele>521.6</ele>
        <time>2025-09-11T12:00:46Z</time>
      </trkpt>
      <trkpt lat="45.96498" lon="4.55826">
        <ele>522</ele>
        <time>2025-09-11T12:00:47Z</time>
      </trkpt>
      <trkpt lat="45.96498" lon="4.55826">
        <ele>522</ele>
        <time>2025-09-11T12:00:48Z</time>
      </trkpt>
      <trkpt lat="45.96497" lon="4.55828">
        <ele>523.2</ele>
        <time>2025-09-11T12:05:13Z</time>
      </trkpt>
      <trkpt lat="45.96497" lon="4.55829">
        <ele>523.2</ele>
        <time>2025-09-11T12:05:14Z</time>
      </trkpt>
      <trkpt lat="45.96497" lon="4.5583">
        <ele>523.2</ele>
        <time>2025-09-11T12:05:15Z</time>
      </trkpt>
      <trkpt lat="45.96497" lon="4.55831">
        <ele>523.2</ele>
        <time>2025-09-11T12:05:16Z</time>
      </trkpt>
      <trkpt lat="45.96497" lon="4.55833">
        <ele>523.2</ele>
        <time>2025-09-11T12:05:17Z</time>
      </trkpt>
      <trkpt lat="45.96497" lon="4.55834">
        <ele>523.2</ele>
        <time>2025-09-11T12:05:18Z</time>
      </trkpt>
      <trkpt lat="45.96497" lon="4.55834">
        <ele>523.4</ele>
        <time>2025-09-11T12:05:19Z</time>
      </trkpt>
      <trkpt lat="45.96497" lon="4.55835">
        <ele>523.4</ele>
        <time>2025-09-11T12:05:20Z</time>
      </trkpt>
      <trkpt lat="45.96497" lon="4.55837">
        <ele>523.6</ele>
        <time>2025-09-11T12:05:21Z</time>
      </trkpt>
      <trkpt lat="45.96496" lon="4.55838">
        <ele>523.6</ele>
        <time>2025-09-11T12:05:22Z</time>
      </trkpt>
      <trkpt lat="45.96496" lon="4.55839">
        <ele>523.8</ele>
        <time>2025-09-11T12:05:23Z</time>
      </trkpt>
      <trkpt lat="45.96496" lon="4.5584">
        <ele>523.8</ele>
        <time>2025-09-11T12:05:24Z</time>
      </trkpt>
      <trkpt lat="45.96496" lon="4.55841">
        <ele>524.2</ele>
        <time>2025-09-11T12:05:25Z</time>
      </trkpt>
      <trkpt lat="45.96496" lon="4.55842">
        <ele>524.6</ele>
        <time>2025-09-11T12:05:26Z</time>
      </trkpt>
      <trkpt lat="45.96497" lon="4.55843">
        <ele>525</ele>
        <time>2025-09-11T12:05:27Z</time>
      </trkpt>
      <trkpt lat="45.96497" lon="4.55844">
        <ele>525</ele>
        <time>2025-09-11T12:05:28Z</time>
      </trkpt>
      <trkpt lat="45.96497" lon="4.55845">
        <ele>525.4</ele>
        <time>2025-09-11T12:05:29Z</time>
      </trkpt>
      <trkpt lat="45.96498" lon="4.55847">
        <ele>525.4</ele>
        <time>2025-09-11T12:05:30Z</time>
      </trkpt>
      <trkpt lat="45.96499" lon="4.55848">
        <ele>525.8</ele>
        <time>2025-09-11T12:05:31Z</time>
      </trkpt>
      <trkpt lat="45.96499" lon="4.55849">
        <ele>526.2</ele>
        <time>2025-09-11T12:05:32Z</time>
      </trkpt>
      <trkpt lat="45.96499" lon="4.5585">
        <ele>526.2</ele>
        <time>2025-09-11T12:05:33Z</time>
      </trkpt>
      <trkpt lat="45.965" lon="4.5585">
        <ele>526.4</ele>
        <time>2025-09-11T12:05:34Z</time>
      </trkpt>
      <trkpt lat="45.965" lon="4.55851">
        <ele>526.4</ele>
        <time>2025-09-11T12:05:35Z</time>
      </trkpt>
      <trkpt lat="45.96501" lon="4.55852">
        <ele>526.6</ele>
        <time>2025-09-11T12:05:36Z</time>
      </trkpt>
      <trkpt lat="45.96502" lon="4.55853">
        <ele>526.8</ele>
        <time>2025-09-11T12:05:37Z</time>
      </trkpt>
      <trkpt lat="45.96502" lon="4.55853">
        <ele>527.2</ele>
        <time>2025-09-11T12:05:38Z</time>
      </trkpt>
      <trkpt lat="45.96503" lon="4.55854">
        <ele>527.2</ele>
        <time>2025-09-11T12:05:39Z</time>
      </trkpt>
      <trkpt lat="45.96504" lon="4.55854">
        <ele>527.2</ele>
        <time>2025-09-11T12:05:40Z</time>
      </trkpt>
      <trkpt lat="45.96504" lon="4.55854">
        <ele>527.6</ele>
        <time>2025-09-11T12:05:41Z</time>
      </trkpt>
      <trkpt lat="45.96503" lon="4.55853">
        <ele>527.6</ele>
        <time>2025-09-11T12:06:18Z</time>
      </trkpt>
      <trkpt lat="45.96503" lon="4.55854">
        <ele>527.6</ele>
        <time>2025-09-11T12:06:19Z</time>
      </trkpt>
      <trkpt lat="45.96504" lon="4.55855">
        <ele>527.6</ele>
        <time>2025-09-11T12:06:20Z</time>
      </trkpt>
      <trkpt lat="45.96505" lon="4.55856">
        <ele>527.8</ele>
        <time>2025-09-11T12:06:21Z</time>
      </trkpt>
      <trkpt lat="45.96506" lon="4.55857">
        <ele>527.8</ele>
        <time>2025-09-11T12:06:22Z</time>
      </trkpt>
      <trkpt lat="45.96507" lon="4.55858">
        <ele>527.8</ele>
        <time>2025-09-11T12:06:23Z</time>
      </trkpt>
      <trkpt lat="45.96508" lon="4.55858">
        <ele>527.8</ele>
        <time>2025-09-11T12:06:24Z</time>
      </trkpt>
      <trkpt lat="45.96508" lon="4.55859">
        <ele>528.2</ele>
        <time>2025-09-11T12:06:25Z</time>
      </trkpt>
      <trkpt lat="45.96509" lon="4.5586">
        <ele>528.2</ele>
        <time>2025-09-11T12:06:26Z</time>
      </trkpt>
      <trkpt lat="45.9651" lon="4.55861">
        <ele>528.4</ele>
        <time>2025-09-11T12:06:27Z</time>
      </trkpt>
      <trkpt lat="45.9651" lon="4.55862">
        <ele>528.4</ele>
        <time>2025-09-11T12:06:28Z</time>
      </trkpt>
      <trkpt lat="45.96511" lon="4.55863">
        <ele>528.8</ele>
        <time>2025-09-11T12:06:29Z</time>
      </trkpt>
      <trkpt lat="45.96512" lon="4.55863">
        <ele>529</ele>
        <time>2025-09-11T12:06:30Z</time>
      </trkpt>
      <trkpt lat="45.96513" lon="4.55864">
        <ele>529</ele>
        <time>2025-09-11T12:06:31Z</time>
      </trkpt>
      <trkpt lat="45.96513" lon="4.55865">
        <ele>529.4</ele>
        <time>2025-09-11T12:06:32Z</time>
      </trkpt>
      <trkpt lat="45.96514" lon="4.55866">
        <ele>529.6</ele>
        <time>2025-09-11T12:06:33Z</time>
      </trkpt>
      <trkpt lat="45.96515" lon="4.55867">
        <ele>529.6</ele>
        <time>2025-09-11T12:06:34Z</time>
      </trkpt>
      <trkpt lat="45.96515" lon="4.55867">
        <ele>529.6</ele>
        <time>2025-09-11T12:06:35Z</time>
      </trkpt>
      <trkpt lat="45.96515" lon="4.55868">
        <ele>530</ele>
        <time>2025-09-11T12:06:36Z</time>
      </trkpt>
      <trkpt lat="45.96516" lon="4.55869">
        <ele>530</ele>
        <time>2025-09-11T12:06:37Z</time>
      </trkpt>
      <trkpt lat="45.96516" lon="4.5587">
        <ele>530.2</ele>
        <time>2025-09-11T12:06:38Z</time>
      </trkpt>
      <trkpt lat="45.96517" lon="4.55871">
        <ele>530.4</ele>
        <time>2025-09-11T12:06:39Z</time>
      </trkpt>
      <trkpt lat="45.96517" lon="4.55872">
        <ele>530.4</ele>
        <time>2025-09-11T12:06:40Z</time>
      </trkpt>
      <trkpt lat="45.96518" lon="4.55872">
        <ele>530.8</ele>
        <time>2025-09-11T12:06:41Z</time>
      </trkpt>
      <trkpt lat="45.96518" lon="4.55873">
        <ele>531</ele>
        <time>2025-09-11T12:06:42Z</time>
      </trkpt>
      <trkpt lat="45.96519" lon="4.55873">
        <ele>531</ele>
        <time>2025-09-11T12:06:43Z</time>
      </trkpt>
      <trkpt lat="45.96519" lon="4.55874">
        <ele>531.4</ele>
        <time>2025-09-11T12:06:44Z</time>
      </trkpt>
      <trkpt lat="45.9652" lon="4.55875">
        <ele>531.6</ele>
        <time>2025-09-11T12:06:45Z</time>
      </trkpt>
      <trkpt lat="45.96521" lon="4.55876">
        <ele>531.6</ele>
        <time>2025-09-11T12:06:46Z</time>
      </trkpt>
      <trkpt lat="45.96521" lon="4.55876">
        <ele>531.6</ele>
        <time>2025-09-11T12:06:47Z</time>
      </trkpt>
      <trkpt lat="45.96522" lon="4.55877">
        <ele>531.8</ele>
        <time>2025-09-11T12:06:48Z</time>
      </trkpt>
      <trkpt lat="45.96522" lon="4.55878">
        <ele>531.8</ele>
        <time>2025-09-11T12:06:49Z</time>
      </trkpt>
      <trkpt lat="45.96523" lon="4.55878">
        <ele>532</ele>
        <time>2025-09-11T12:06:50Z</time>
      </trkpt>
      <trkpt lat="45.96523" lon="4.55879">
        <ele>532</ele>
        <time>2025-09-11T12:06:51Z</time>
      </trkpt>
      <trkpt lat="45.96524" lon="4.5588">
        <ele>532</ele>
        <time>2025-09-11T12:06:52Z</time>
      </trkpt>
      <trkpt lat="45.96524" lon="4.55881">
        <ele>532.4</ele>
        <time>2025-09-11T12:06:53Z</time>
      </trkpt>
      <trkpt lat="45.96525" lon="4.55882">
        <ele>532.8</ele>
        <time>2025-09-11T12:06:54Z</time>
      </trkpt>
      <trkpt lat="45.96525" lon="4.55883">
        <ele>533</ele>
        <time>2025-09-11T12:06:55Z</time>
      </trkpt>
      <trkpt lat="45.96525" lon="4.55884">
        <ele>533.2</ele>
        <time>2025-09-11T12:06:56Z</time>
      </trkpt>
      <trkpt lat="45.96526" lon="4.55884">
        <ele>533.4</ele>
        <time>2025-09-11T12:06:57Z</time>
      </trkpt>
      <trkpt lat="45.96526" lon="4.55885">
        <ele>533.4</ele>
        <time>2025-09-11T12:06:58Z</time>
      </trkpt>
      <trkpt lat="45.96527" lon="4.55886">
        <ele>533.8</ele>
        <time>2025-09-11T12:06:59Z</time>
      </trkpt>
      <trkpt lat="45.96527" lon="4.55887">
        <ele>534</ele>
        <time>2025-09-11T12:07:00Z</time>
      </trkpt>
      <trkpt lat="45.96528" lon="4.55887">
        <ele>534.2</ele>
        <time>2025-09-11T12:07:01Z</time>
      </trkpt>
      <trkpt lat="45.96528" lon="4.55888">
        <ele>534.2</ele>
        <time>2025-09-11T12:07:02Z</time>
      </trkpt>
      <trkpt lat="45.96529" lon="4.5589">
        <ele>534.6</ele>
        <time>2025-09-11T12:07:03Z</time>
      </trkpt>
      <trkpt lat="45.96529" lon="4.55891">
        <ele>534.8</ele>
        <time>2025-09-11T12:07:04Z</time>
      </trkpt>
      <trkpt lat="45.9653" lon="4.55892">
        <ele>535</ele>
        <time>2025-09-11T12:07:05Z</time>
      </trkpt>
      <trkpt lat="45.9653" lon="4.55893">
        <ele>535</ele>
        <time>2025-09-11T12:07:06Z</time>
      </trkpt>
      <trkpt lat="45.96531" lon="4.55893">
        <ele>535.4</ele>
        <time>2025-09-11T12:07:07Z</time>
      </trkpt>
      <trkpt lat="45.96531" lon="4.55894">
        <ele>535.4</ele>
        <time>2025-09-11T12:07:08Z</time>
      </trkpt>
      <trkpt lat="45.96532" lon="4.55895">
        <ele>535.4</ele>
        <time>2025-09-11T12:07:09Z</time>
      </trkpt>
      <trkpt lat="45.96532" lon="4.55896">
        <ele>535.8</ele>
        <time>2025-09-11T12:07:10Z</time>
      </trkpt>
      <trkpt lat="45.96532" lon="4.55897">
        <ele>536</ele>
        <time>2025-09-11T12:07:11Z</time>
      </trkpt>
      <trkpt lat="45.96533" lon="4.55898">
        <ele>536</ele>
        <time>2025-09-11T12:07:12Z</time>
      </trkpt>
      <trkpt lat="45.96533" lon="4.55899">
        <ele>536</ele>
        <time>2025-09-11T12:07:13Z</time>
      </trkpt>
      <trkpt lat="45.96533" lon="4.559">
        <ele>536.2</ele>
        <time>2025-09-11T12:07:14Z</time>
      </trkpt>
      <trkpt lat="45.96533" lon="4.55901">
        <ele>536.2</ele>
        <time>2025-09-11T12:07:15Z</time>
      </trkpt>
      <trkpt lat="45.96533" lon="4.55902">
        <ele>536.4</ele>
        <time>2025-09-11T12:07:16Z</time>
      </trkpt>
      <trkpt lat="45.96533" lon="4.55903">
        <ele>536.4</ele>
        <time>2025-09-11T12:07:17Z</time>
      </trkpt>
      <trkpt lat="45.96533" lon="4.55903">
        <ele>536.8</ele>
        <time>2025-09-11T12:07:18Z</time>
      </trkpt>
      <trkpt lat="45.96533" lon="4.55903">
        <ele>536.8</ele>
        <time>2025-09-11T12:07:19Z</time>
      </trkpt>
      <trkpt lat="45.96533" lon="4.55904">
        <ele>537.2</ele>
        <time>2025-09-11T12:07:20Z</time>
      </trkpt>
      <trkpt lat="45.96533" lon="4.55904">
        <ele>537.2</ele>
        <time>2025-09-11T12:07:21Z</time>
      </trkpt>
      <trkpt lat="45.96533" lon="4.55904">
        <ele>537.2</ele>
        <time>2025-09-11T12:07:22Z</time>
      </trkpt>
      <trkpt lat="45.96533" lon="4.55905">
        <ele>537.4</ele>
        <time>2025-09-11T12:07:23Z</time>
      </trkpt>
      <trkpt lat="45.96533" lon="4.55905">
        <ele>537.4</ele>
        <time>2025-09-11T12:07:24Z</time>
      </trkpt>
      <trkpt lat="45.96533" lon="4.55906">
        <ele>537.4</ele>
        <time>2025-09-11T12:07:25Z</time>
      </trkpt>
      <trkpt lat="45.96533" lon="4.55908">
        <ele>537.4</ele>
        <time>2025-09-11T12:07:26Z</time>
      </trkpt>
      <trkpt lat="45.96533" lon="4.55909">
        <ele>537.6</ele>
        <time>2025-09-11T12:07:27Z</time>
      </trkpt>
      <trkpt lat="45.96533" lon="4.5591">
        <ele>537.6</ele>
        <time>2025-09-11T12:07:28Z</time>
      </trkpt>
      <trkpt lat="45.96533" lon="4.55911">
        <ele>538</ele>
        <time>2025-09-11T12:07:29Z</time>
      </trkpt>
      <trkpt lat="45.96533" lon="4.55913">
        <ele>538</ele>
        <time>2025-09-11T12:07:30Z</time>
      </trkpt>
      <trkpt lat="45.96533" lon="4.55914">
        <ele>538.2</ele>
        <time>2025-09-11T12:07:31Z</time>
      </trkpt>
      <trkpt lat="45.96533" lon="4.55915">
        <ele>538.2</ele>
        <time>2025-09-11T12:07:32Z</time>
      </trkpt>
      <trkpt lat="45.96533" lon="4.55916">
        <ele>538.2</ele>
        <time>2025-09-11T12:07:33Z</time>
      </trkpt>
      <trkpt lat="45.96533" lon="4.55917">
        <ele>538.6</ele>
        <time>2025-09-11T12:07:34Z</time>
      </trkpt>
      <trkpt lat="45.96533" lon="4.55919">
        <ele>538.6</ele>
        <time>2025-09-11T12:07:35Z</time>
      </trkpt>
      <trkpt lat="45.96533" lon="4.5592">
        <ele>538.6</ele>
        <time>2025-09-11T12:07:36Z</time>
      </trkpt>
      <trkpt lat="45.96533" lon="4.55921">
        <ele>539</ele>
        <time>2025-09-11T12:07:37Z</time>
      </trkpt>
      <trkpt lat="45.96533" lon="4.55923">
        <ele>539</ele>
        <time>2025-09-11T12:07:38Z</time>
      </trkpt>
      <trkpt lat="45.96533" lon="4.55924">
        <ele>539</ele>
        <time>2025-09-11T12:07:39Z</time>
      </trkpt>
      <trkpt lat="45.96533" lon="4.55925">
        <ele>539</ele>
        <time>2025-09-11T12:07:40Z</time>
      </trkpt>
      <trkpt lat="45.96533" lon="4.55926">
        <ele>539.6</ele>
        <time>2025-09-11T12:07:41Z</time>
      </trkpt>
      <trkpt lat="45.96533" lon="4.55927">
        <ele>539.6</ele>
        <time>2025-09-11T12:07:42Z</time>
      </trkpt>
      <trkpt lat="45.96534" lon="4.55928">
        <ele>539.6</ele>
        <time>2025-09-11T12:07:43Z</time>
      </trkpt>
      <trkpt lat="45.96535" lon="4.55929">
        <ele>540</ele>
        <time>2025-09-11T12:07:44Z</time>
      </trkpt>
      <trkpt lat="45.96535" lon="4.5593">
        <ele>540.2</ele>
        <time>2025-09-11T12:07:45Z</time>
      </trkpt>
      <trkpt lat="45.96536" lon="4.55931">
        <ele>540.2</ele>
        <time>2025-09-11T12:07:46Z</time>
      </trkpt>
      <trkpt lat="45.96537" lon="4.55931">
        <ele>540.6</ele>
        <time>2025-09-11T12:07:47Z</time>
      </trkpt>
      <trkpt lat="45.96537" lon="4.55931">
        <ele>540.6</ele>
        <time>2025-09-11T12:07:48Z</time>
      </trkpt>
      <trkpt lat="45.9654" lon="4.55931">
        <ele>540.4</ele>
        <time>2025-09-11T12:07:59Z</time>
      </trkpt>
      <trkpt lat="45.96541" lon="4.55932">
        <ele>540.4</ele>
        <time>2025-09-11T12:08:00Z</time>
      </trkpt>
      <trkpt lat="45.96542" lon="4.55933">
        <ele>540.4</ele>
        <time>2025-09-11T12:08:01Z</time>
      </trkpt>
      <trkpt lat="45.96543" lon="4.55934">
        <ele>540.4</ele>
        <time>2025-09-11T12:08:02Z</time>
      </trkpt>
      <trkpt lat="45.96543" lon="4.55934">
        <ele>540.4</ele>
        <time>2025-09-11T12:08:03Z</time>
      </trkpt>
      <trkpt lat="45.96544" lon="4.55935">
        <ele>540.4</ele>
        <time>2025-09-11T12:08:04Z</time>
      </trkpt>
      <trkpt lat="45.96544" lon="4.55935">
        <ele>540.4</ele>
        <time>2025-09-11T12:08:05Z</time>
      </trkpt>
      <trkpt lat="45.96545" lon="4.55936">
        <ele>540.6</ele>
        <time>2025-09-11T12:08:06Z</time>
      </trkpt>
      <trkpt lat="45.96545" lon="4.55936">
        <ele>540.6</ele>
        <time>2025-09-11T12:08:07Z</time>
      </trkpt>
      <trkpt lat="45.96546" lon="4.55937">
        <ele>540.8</ele>
        <time>2025-09-11T12:08:14Z</time>
      </trkpt>
      <trkpt lat="45.96547" lon="4.55938">
        <ele>540.8</ele>
        <time>2025-09-11T12:08:15Z</time>
      </trkpt>
      <trkpt lat="45.96548" lon="4.5594">
        <ele>540.8</ele>
        <time>2025-09-11T12:08:16Z</time>
      </trkpt>
      <trkpt lat="45.9655" lon="4.55942">
        <ele>541.2</ele>
        <time>2025-09-11T12:08:17Z</time>
      </trkpt>
      <trkpt lat="45.96551" lon="4.55945">
        <ele>541.2</ele>
        <time>2025-09-11T12:08:18Z</time>
      </trkpt>
      <trkpt lat="45.96551" lon="4.55947">
        <ele>541.8</ele>
        <time>2025-09-11T12:08:19Z</time>
      </trkpt>
      <trkpt lat="45.96552" lon="4.55948">
        <ele>542</ele>
        <time>2025-09-11T12:08:20Z</time>
      </trkpt>
      <trkpt lat="45.96553" lon="4.5595">
        <ele>542</ele>
        <time>2025-09-11T12:08:21Z</time>
      </trkpt>
      <trkpt lat="45.96553" lon="4.55952">
        <ele>542.4</ele>
        <time>2025-09-11T12:08:22Z</time>
      </trkpt>
      <trkpt lat="45.96554" lon="4.55954">
        <ele>542.6</ele>
        <time>2025-09-11T12:08:23Z</time>
      </trkpt>
      <trkpt lat="45.96555" lon="4.55955">
        <ele>542.8</ele>
        <time>2025-09-11T12:08:24Z</time>
      </trkpt>
      <trkpt lat="45.96556" lon="4.55957">
        <ele>542.8</ele>
        <time>2025-09-11T12:08:25Z</time>
      </trkpt>
      <trkpt lat="45.96556" lon="4.55959">
        <ele>542.8</ele>
        <time>2025-09-11T12:08:26Z</time>
      </trkpt>
      <trkpt lat="45.96557" lon="4.5596">
        <ele>543.2</ele>
        <time>2025-09-11T12:08:27Z</time>
      </trkpt>
      <trkpt lat="45.96557" lon="4.55962">
        <ele>543.4</ele>
        <time>2025-09-11T12:08:28Z</time>
      </trkpt>
      <trkpt lat="45.96558" lon="4.55964">
        <ele>543.8</ele>
        <time>2025-09-11T12:08:29Z</time>
      </trkpt>
      <trkpt lat="45.96559" lon="4.55966">
        <ele>543.8</ele>
        <time>2025-09-11T12:08:30Z</time>
      </trkpt>
      <trkpt lat="45.9656" lon="4.55967">
        <ele>544.2</ele>
        <time>2025-09-11T12:08:31Z</time>
      </trkpt>
      <trkpt lat="45.9656" lon="4.55969">
        <ele>544.2</ele>
        <time>2025-09-11T12:08:32Z</time>
      </trkpt>
      <trkpt lat="45.96561" lon="4.5597">
        <ele>544.2</ele>
        <time>2025-09-11T12:08:33Z</time>
      </trkpt>
      <trkpt lat="45.96562" lon="4.55972">
        <ele>544.6</ele>
        <time>2025-09-11T12:08:34Z</time>
      </trkpt>
      <trkpt lat="45.96563" lon="4.55973">
        <ele>544.6</ele>
        <time>2025-09-11T12:08:35Z</time>
      </trkpt>
      <trkpt lat="45.96563" lon="4.55975">
        <ele>544.6</ele>
        <time>2025-09-11T12:08:36Z</time>
      </trkpt>
      <trkpt lat="45.96564" lon="4.55976">
        <ele>544.6</ele>
        <time>2025-09-11T12:08:37Z</time>
      </trkpt>
      <trkpt lat="45.96565" lon="4.55978">
        <ele>544.8</ele>
        <time>2025-09-11T12:08:38Z</time>
      </trkpt>
      <trkpt lat="45.96566" lon="4.5598">
        <ele>545</ele>
        <time>2025-09-11T12:08:39Z</time>
      </trkpt>
      <trkpt lat="45.96566" lon="4.55981">
        <ele>545</ele>
        <time>2025-09-11T12:08:40Z</time>
      </trkpt>
      <trkpt lat="45.96567" lon="4.55982">
        <ele>545.4</ele>
        <time>2025-09-11T12:08:41Z</time>
      </trkpt>
      <trkpt lat="45.96568" lon="4.55984">
        <ele>545.4</ele>
        <time>2025-09-11T12:08:42Z</time>
      </trkpt>
      <trkpt lat="45.96569" lon="4.55986">
        <ele>545.6</ele>
        <time>2025-09-11T12:08:43Z</time>
      </trkpt>
      <trkpt lat="45.96569" lon="4.55988">
        <ele>545.6</ele>
        <time>2025-09-11T12:08:44Z</time>
      </trkpt>
      <trkpt lat="45.9657" lon="4.5599">
        <ele>545.8</ele>
        <time>2025-09-11T12:08:45Z</time>
      </trkpt>
      <trkpt lat="45.96571" lon="4.55992">
        <ele>545.8</ele>
        <time>2025-09-11T12:08:46Z</time>
      </trkpt>
      <trkpt lat="45.96571" lon="4.55994">
        <ele>545.8</ele>
        <time>2025-09-11T12:08:47Z</time>
      </trkpt>
      <trkpt lat="45.96572" lon="4.55996">
        <ele>545.8</ele>
        <time>2025-09-11T12:08:48Z</time>
      </trkpt>
      <trkpt lat="45.96573" lon="4.55997">
        <ele>545.8</ele>
        <time>2025-09-11T12:08:49Z</time>
      </trkpt>
      <trkpt lat="45.96573" lon="4.55999">
        <ele>546.2</ele>
        <time>2025-09-11T12:08:50Z</time>
      </trkpt>
      <trkpt lat="45.96574" lon="4.56">
        <ele>546.4</ele>
        <time>2025-09-11T12:08:51Z</time>
      </trkpt>
      <trkpt lat="45.96575" lon="4.56001">
        <ele>546.4</ele>
        <time>2025-09-11T12:08:52Z</time>
      </trkpt>
      <trkpt lat="45.96575" lon="4.56003">
        <ele>546.8</ele>
        <time>2025-09-11T12:08:53Z</time>
      </trkpt>
      <trkpt lat="45.96576" lon="4.56004">
        <ele>547</ele>
        <time>2025-09-11T12:08:54Z</time>
      </trkpt>
      <trkpt lat="45.96577" lon="4.56006">
        <ele>547</ele>
        <time>2025-09-11T12:08:55Z</time>
      </trkpt>
      <trkpt lat="45.96577" lon="4.56007">
        <ele>547.4</ele>
        <time>2025-09-11T12:08:56Z</time>
      </trkpt>
      <trkpt lat="45.96578" lon="4.56008">
        <ele>547.4</ele>
        <time>2025-09-11T12:08:57Z</time>
      </trkpt>
      <trkpt lat="45.96579" lon="4.56009">
        <ele>547.6</ele>
        <time>2025-09-11T12:08:58Z</time>
      </trkpt>
      <trkpt lat="45.96579" lon="4.56011">
        <ele>548</ele>
        <time>2025-09-11T12:08:59Z</time>
      </trkpt>
      <trkpt lat="45.9658" lon="4.56013">
        <ele>548.2</ele>
        <time>2025-09-11T12:09:00Z</time>
      </trkpt>
      <trkpt lat="45.9658" lon="4.56015">
        <ele>548.2</ele>
        <time>2025-09-11T12:09:01Z</time>
      </trkpt>
      <trkpt lat="45.96581" lon="4.56016">
        <ele>548.4</ele>
        <time>2025-09-11T12:09:02Z</time>
      </trkpt>
      <trkpt lat="45.96581" lon="4.56017">
        <ele>548.4</ele>
        <time>2025-09-11T12:09:03Z</time>
      </trkpt>
      <trkpt lat="45.96582" lon="4.56018">
        <ele>548.4</ele>
        <time>2025-09-11T12:09:04Z</time>
      </trkpt>
      <trkpt lat="45.96583" lon="4.56019">
        <ele>548.8</ele>
        <time>2025-09-11T12:09:05Z</time>
      </trkpt>
      <trkpt lat="45.96584" lon="4.5602">
        <ele>549</ele>
        <time>2025-09-11T12:09:06Z</time>
      </trkpt>
      <trkpt lat="45.96584" lon="4.56022">
        <ele>549</ele>
        <time>2025-09-11T12:09:07Z</time>
      </trkpt>
      <trkpt lat="45.96585" lon="4.56023">
        <ele>549.4</ele>
        <time>2025-09-11T12:09:08Z</time>
      </trkpt>
      <trkpt lat="45.96585" lon="4.56024">
        <ele>549.4</ele>
        <time>2025-09-11T12:09:09Z</time>
      </trkpt>
      <trkpt lat="45.96586" lon="4.56026">
        <ele>549.4</ele>
        <time>2025-09-11T12:09:10Z</time>
      </trkpt>
      <trkpt lat="45.96587" lon="4.56028">
        <ele>549.8</ele>
        <time>2025-09-11T12:09:11Z</time>
      </trkpt>
      <trkpt lat="45.96587" lon="4.56029">
        <ele>549.8</ele>
        <time>2025-09-11T12:09:12Z</time>
      </trkpt>
      <trkpt lat="45.96588" lon="4.56031">
        <ele>549.8</ele>
        <time>2025-09-11T12:09:13Z</time>
      </trkpt>
      <trkpt lat="45.96589" lon="4.56032">
        <ele>549.8</ele>
        <time>2025-09-11T12:09:14Z</time>
      </trkpt>
      <trkpt lat="45.9659" lon="4.56034">
        <ele>550.2</ele>
        <time>2025-09-11T12:09:15Z</time>
      </trkpt>
      <trkpt lat="45.96591" lon="4.56035">
        <ele>550.2</ele>
        <time>2025-09-11T12:09:16Z</time>
      </trkpt>
      <trkpt lat="45.96592" lon="4.56036">
        <ele>550.2</ele>
        <time>2025-09-11T12:09:17Z</time>
      </trkpt>
      <trkpt lat="45.96592" lon="4.56037">
        <ele>550.8</ele>
        <time>2025-09-11T12:09:18Z</time>
      </trkpt>
      <trkpt lat="45.96593" lon="4.56039">
        <ele>551</ele>
        <time>2025-09-11T12:09:19Z</time>
      </trkpt>
      <trkpt lat="45.96594" lon="4.5604">
        <ele>551.2</ele>
        <time>2025-09-11T12:09:20Z</time>
      </trkpt>
      <trkpt lat="45.96594" lon="4.56042">
        <ele>551.6</ele>
        <time>2025-09-11T12:09:21Z</time>
      </trkpt>
      <trkpt lat="45.96595" lon="4.56043">
        <ele>551.6</ele>
        <time>2025-09-11T12:09:22Z</time>
      </trkpt>
      <trkpt lat="45.96596" lon="4.56044">
        <ele>551.6</ele>
        <time>2025-09-11T12:09:23Z</time>
      </trkpt>
      <trkpt lat="45.96596" lon="4.56045">
        <ele>551.6</ele>
        <time>2025-09-11T12:09:24Z</time>
      </trkpt>
      <trkpt lat="45.96597" lon="4.56047">
        <ele>551.6</ele>
        <time>2025-09-11T12:09:25Z</time>
      </trkpt>
      <trkpt lat="45.96598" lon="4.56048">
        <ele>551.8</ele>
        <time>2025-09-11T12:09:26Z</time>
      </trkpt>
      <trkpt lat="45.96599" lon="4.56048">
        <ele>551.8</ele>
        <time>2025-09-11T12:09:27Z</time>
      </trkpt>
      <trkpt lat="45.966" lon="4.5605">
        <ele>552.4</ele>
        <time>2025-09-11T12:10:17Z</time>
      </trkpt>
      <trkpt lat="45.966" lon="4.5605">
        <ele>552.6</ele>
        <time>2025-09-11T12:10:18Z</time>
      </trkpt>
      <trkpt lat="45.96599" lon="4.56051">
        <ele>552.2</ele>
        <time>2025-09-11T12:10:21Z</time>
      </trkpt>
      <trkpt lat="45.96597" lon="4.56051">
        <ele>552</ele>
        <time>2025-09-11T12:10:22Z</time>
      </trkpt>
      <trkpt lat="45.96594" lon="4.56052">
        <ele>552</ele>
        <time>2025-09-11T12:10:23Z</time>
      </trkpt>
      <trkpt lat="45.96592" lon="4.56053">
        <ele>551.6</ele>
        <time>2025-09-11T12:10:24Z</time>
      </trkpt>
      <trkpt lat="45.96589" lon="4.56054">
        <ele>552</ele>
        <time>2025-09-11T12:10:25Z</time>
      </trkpt>
      <trkpt lat="45.96586" lon="4.56055">
        <ele>552</ele>
        <time>2025-09-11T12:10:26Z</time>
      </trkpt>
      <trkpt lat="45.96584" lon="4.56055">
        <ele>552</ele>
        <time>2025-09-11T12:10:27Z</time>
      </trkpt>
      <trkpt lat="45.96581" lon="4.56057">
        <ele>551.6</ele>
        <time>2025-09-11T12:10:28Z</time>
      </trkpt>
      <trkpt lat="45.96579" lon="4.56059">
        <ele>551.6</ele>
        <time>2025-09-11T12:10:29Z</time>
      </trkpt>
      <trkpt lat="45.96576" lon="4.56061">
        <ele>551.6</ele>
        <time>2025-09-11T12:10:30Z</time>
      </trkpt>
      <trkpt lat="45.96574" lon="4.56063">
        <ele>551.6</ele>
        <time>2025-09-11T12:10:31Z</time>
      </trkpt>
      <trkpt lat="45.96571" lon="4.56065">
        <ele>551.6</ele>
        <time>2025-09-11T12:10:32Z</time>
      </trkpt>
      <trkpt lat="45.96569" lon="4.56068">
        <ele>551.2</ele>
        <time>2025-09-11T12:10:33Z</time>
      </trkpt>
      <trkpt lat="45.96566" lon="4.5607">
        <ele>551.2</ele>
        <time>2025-09-11T12:10:34Z</time>
      </trkpt>
      <trkpt lat="45.96564" lon="4.56072">
        <ele>550.8</ele>
        <time>2025-09-11T12:10:35Z</time>
      </trkpt>
      <trkpt lat="45.96561" lon="4.56075">
        <ele>551.2</ele>
        <time>2025-09-11T12:10:36Z</time>
      </trkpt>
      <trkpt lat="45.96558" lon="4.56077">
        <ele>550.6</ele>
        <time>2025-09-11T12:10:37Z</time>
      </trkpt>
      <trkpt lat="45.96554" lon="4.5608">
        <ele>550.6</ele>
        <time>2025-09-11T12:10:38Z</time>
      </trkpt>
      <trkpt lat="45.96551" lon="4.56084">
        <ele>550.6</ele>
        <time>2025-09-11T12:10:39Z</time>
      </trkpt>
      <trkpt lat="45.96548" lon="4.56088">
        <ele>551</ele>
        <time>2025-09-11T12:10:40Z</time>
      </trkpt>
      <trkpt lat="45.96545" lon="4.56093">
        <ele>550.8</ele>
        <time>2025-09-11T12:10:41Z</time>
      </trkpt>
      <trkpt lat="45.96542" lon="4.56097">
        <ele>550.2</ele>
        <time>2025-09-11T12:10:42Z</time>
      </trkpt>
      <trkpt lat="45.96539" lon="4.56101">
        <ele>549.8</ele>
        <time>2025-09-11T12:10:43Z</time>
      </trkpt>
      <trkpt lat="45.96536" lon="4.56107">
        <ele>549.8</ele>
        <time>2025-09-11T12:10:44Z</time>
      </trkpt>
      <trkpt lat="45.96533" lon="4.56112">
        <ele>549.4</ele>
        <time>2025-09-11T12:10:45Z</time>
      </trkpt>
      <trkpt lat="45.9653" lon="4.56116">
        <ele>549.4</ele>
        <time>2025-09-11T12:10:46Z</time>
      </trkpt>
      <trkpt lat="45.96527" lon="4.56121">
        <ele>549.4</ele>
        <time>2025-09-11T12:10:47Z</time>
      </trkpt>
      <trkpt lat="45.96523" lon="4.56125">
        <ele>549.2</ele>
        <time>2025-09-11T12:10:48Z</time>
      </trkpt>
      <trkpt lat="45.9652" lon="4.5613">
        <ele>549.2</ele>
        <time>2025-09-11T12:10:49Z</time>
      </trkpt>
      <trkpt lat="45.96517" lon="4.56135">
        <ele>549.2</ele>
        <time>2025-09-11T12:10:50Z</time>
      </trkpt>
      <trkpt lat="45.96513" lon="4.56139">
        <ele>548.8</ele>
        <time>2025-09-11T12:10:51Z</time>
      </trkpt>
      <trkpt lat="45.96511" lon="4.56144">
        <ele>548.8</ele>
        <time>2025-09-11T12:10:52Z</time>
      </trkpt>
      <trkpt lat="45.96508" lon="4.56148">
        <ele>549.4</ele>
        <time>2025-09-11T12:10:53Z</time>
      </trkpt>
      <trkpt lat="45.96506" lon="4.56152">
        <ele>549.4</ele>
        <time>2025-09-11T12:10:54Z</time>
      </trkpt>
      <trkpt lat="45.96504" lon="4.56156">
        <ele>549</ele>
        <time>2025-09-11T12:10:55Z</time>
      </trkpt>
      <trkpt lat="45.96503" lon="4.56159">
        <ele>548.6</ele>
        <time>2025-09-11T12:10:56Z</time>
      </trkpt>
      <trkpt lat="45.965" lon="4.56163">
        <ele>548.6</ele>
        <time>2025-09-11T12:10:57Z</time>
      </trkpt>
      <trkpt lat="45.96499" lon="4.56166">
        <ele>548.6</ele>
        <time>2025-09-11T12:10:58Z</time>
      </trkpt>
      <trkpt lat="45.96497" lon="4.5617">
        <ele>548.2</ele>
        <time>2025-09-11T12:10:59Z</time>
      </trkpt>
      <trkpt lat="45.96495" lon="4.56174">
        <ele>548</ele>
        <time>2025-09-11T12:11:00Z</time>
      </trkpt>
      <trkpt lat="45.96493" lon="4.56179">
        <ele>547.4</ele>
        <time>2025-09-11T12:11:01Z</time>
      </trkpt>
      <trkpt lat="45.96491" lon="4.56183">
        <ele>547</ele>
        <time>2025-09-11T12:11:02Z</time>
      </trkpt>
      <trkpt lat="45.96489" lon="4.56188">
        <ele>547</ele>
        <time>2025-09-11T12:11:03Z</time>
      </trkpt>
      <trkpt lat="45.96488" lon="4.56192">
        <ele>547</ele>
        <time>2025-09-11T12:11:04Z</time>
      </trkpt>
      <trkpt lat="45.96487" lon="4.56197">
        <ele>546.6</ele>
        <time>2025-09-11T12:11:05Z</time>
      </trkpt>
      <trkpt lat="45.96486" lon="4.56201">
        <ele>546.6</ele>
        <time>2025-09-11T12:11:06Z</time>
      </trkpt>
      <trkpt lat="45.96486" lon="4.56205">
        <ele>546.6</ele>
        <time>2025-09-11T12:11:07Z</time>
      </trkpt>
      <trkpt lat="45.96487" lon="4.56208">
        <ele>546.6</ele>
        <time>2025-09-11T12:11:08Z</time>
      </trkpt>
      <trkpt lat="45.96488" lon="4.56212">
        <ele>546.8</ele>
        <time>2025-09-11T12:11:09Z</time>
      </trkpt>
      <trkpt lat="45.96488" lon="4.56216">
        <ele>546.8</ele>
        <time>2025-09-11T12:11:10Z</time>
      </trkpt>
      <trkpt lat="45.96489" lon="4.5622">
        <ele>546.8</ele>
        <time>2025-09-11T12:11:11Z</time>
      </trkpt>
      <trkpt lat="45.96489" lon="4.56224">
        <ele>547.2</ele>
        <time>2025-09-11T12:11:12Z</time>
      </trkpt>
      <trkpt lat="45.96491" lon="4.56227">
        <ele>547.2</ele>
        <time>2025-09-11T12:11:13Z</time>
      </trkpt>
      <trkpt lat="45.96492" lon="4.5623">
        <ele>547.4</ele>
        <time>2025-09-11T12:11:14Z</time>
      </trkpt>
      <trkpt lat="45.96493" lon="4.56233">
        <ele>547.8</ele>
        <time>2025-09-11T12:11:15Z</time>
      </trkpt>
      <trkpt lat="45.96495" lon="4.56236">
        <ele>547</ele>
        <time>2025-09-11T12:11:16Z</time>
      </trkpt>
      <trkpt lat="45.96497" lon="4.56239">
        <ele>547</ele>
        <time>2025-09-11T12:11:17Z</time>
      </trkpt>
      <trkpt lat="45.96499" lon="4.56242">
        <ele>548.2</ele>
        <time>2025-09-11T12:11:18Z</time>
      </trkpt>
      <trkpt lat="45.96501" lon="4.56245">
        <ele>548.6</ele>
        <time>2025-09-11T12:11:19Z</time>
      </trkpt>
      <trkpt lat="45.96503" lon="4.56247">
        <ele>548.6</ele>
        <time>2025-09-11T12:11:20Z</time>
      </trkpt>
      <trkpt lat="45.96505" lon="4.5625">
        <ele>548.6</ele>
        <time>2025-09-11T12:11:21Z</time>
      </trkpt>
      <trkpt lat="45.96507" lon="4.56253">
        <ele>548.6</ele>
        <time>2025-09-11T12:11:22Z</time>
      </trkpt>
      <trkpt lat="45.96509" lon="4.56257">
        <ele>548.6</ele>
        <time>2025-09-11T12:11:23Z</time>
      </trkpt>
      <trkpt lat="45.96511" lon="4.56261">
        <ele>548.8</ele>
        <time>2025-09-11T12:11:24Z</time>
      </trkpt>
      <trkpt lat="45.96513" lon="4.56264">
        <ele>548.8</ele>
        <time>2025-09-11T12:11:25Z</time>
      </trkpt>
      <trkpt lat="45.96515" lon="4.56267">
        <ele>548.8</ele>
        <time>2025-09-11T12:11:26Z</time>
      </trkpt>
      <trkpt lat="45.96517" lon="4.5627">
        <ele>548.8</ele>
        <time>2025-09-11T12:11:27Z</time>
      </trkpt>
      <trkpt lat="45.96519" lon="4.56272">
        <ele>548.8</ele>
        <time>2025-09-11T12:11:28Z</time>
      </trkpt>
      <trkpt lat="45.96522" lon="4.56275">
        <ele>549</ele>
        <time>2025-09-11T12:11:29Z</time>
      </trkpt>
      <trkpt lat="45.96524" lon="4.56277">
        <ele>549</ele>
        <time>2025-09-11T12:11:30Z</time>
      </trkpt>
      <trkpt lat="45.96527" lon="4.56279">
        <ele>549</ele>
        <time>2025-09-11T12:11:31Z</time>
      </trkpt>
      <trkpt lat="45.96529" lon="4.5628">
        <ele>549.4</ele>
        <time>2025-09-11T12:11:32Z</time>
      </trkpt>
      <trkpt lat="45.96532" lon="4.56281">
        <ele>549.4</ele>
        <time>2025-09-11T12:11:33Z</time>
      </trkpt>
      <trkpt lat="45.96534" lon="4.56282">
        <ele>549.4</ele>
        <time>2025-09-11T12:11:34Z</time>
      </trkpt>
      <trkpt lat="45.96537" lon="4.56284">
        <ele>549.6</ele>
        <time>2025-09-11T12:11:35Z</time>
      </trkpt>
      <trkpt lat="45.96539" lon="4.56285">
        <ele>549.6</ele>
        <time>2025-09-11T12:11:36Z</time>
      </trkpt>
      <trkpt lat="45.96542" lon="4.56286">
        <ele>549.6</ele>
        <time>2025-09-11T12:11:37Z</time>
      </trkpt>
      <trkpt lat="45.96544" lon="4.56287">
        <ele>549.8</ele>
        <time>2025-09-11T12:11:38Z</time>
      </trkpt>
      <trkpt lat="45.96547" lon="4.56288">
        <ele>549.8</ele>
        <time>2025-09-11T12:11:39Z</time>
      </trkpt>
      <trkpt lat="45.96549" lon="4.56289">
        <ele>549.8</ele>
        <time>2025-09-11T12:11:40Z</time>
      </trkpt>
      <trkpt lat="45.96551" lon="4.56291">
        <ele>549.8</ele>
        <time>2025-09-11T12:11:41Z</time>
      </trkpt>
      <trkpt lat="45.96554" lon="4.56292">
        <ele>548.8</ele>
        <time>2025-09-11T12:11:42Z</time>
      </trkpt>
      <trkpt lat="45.96556" lon="4.56295">
        <ele>549.6</ele>
        <time>2025-09-11T12:11:43Z</time>
      </trkpt>
      <trkpt lat="45.96558" lon="4.56297">
        <ele>549.8</ele>
        <time>2025-09-11T12:11:44Z</time>
      </trkpt>
      <trkpt lat="45.9656" lon="4.563">
        <ele>549.8</ele>
        <time>2025-09-11T12:11:45Z</time>
      </trkpt>
      <trkpt lat="45.96562" lon="4.56302">
        <ele>550.2</ele>
        <time>2025-09-11T12:11:46Z</time>
      </trkpt>
      <trkpt lat="45.96565" lon="4.56305">
        <ele>550.2</ele>
        <time>2025-09-11T12:11:47Z</time>
      </trkpt>
      <trkpt lat="45.96567" lon="4.56307">
        <ele>550.2</ele>
        <time>2025-09-11T12:11:48Z</time>
      </trkpt>
      <trkpt lat="45.96569" lon="4.56309">
        <ele>550.2</ele>
        <time>2025-09-11T12:11:49Z</time>
      </trkpt>
      <trkpt lat="45.96572" lon="4.56311">
        <ele>550.4</ele>
        <time>2025-09-11T12:11:50Z</time>
      </trkpt>
      <trkpt lat="45.96574" lon="4.56314">
        <ele>550.4</ele>
        <time>2025-09-11T12:11:51Z</time>
      </trkpt>
      <trkpt lat="45.96577" lon="4.56316">
        <ele>550.4</ele>
        <time>2025-09-11T12:11:52Z</time>
      </trkpt>
      <trkpt lat="45.96579" lon="4.56318">
        <ele>550.4</ele>
        <time>2025-09-11T12:11:53Z</time>
      </trkpt>
      <trkpt lat="45.96581" lon="4.5632">
        <ele>550.6</ele>
        <time>2025-09-11T12:11:54Z</time>
      </trkpt>
      <trkpt lat="45.96583" lon="4.56322">
        <ele>550.6</ele>
        <time>2025-09-11T12:11:55Z</time>
      </trkpt>
      <trkpt lat="45.96586" lon="4.56324">
        <ele>550.6</ele>
        <time>2025-09-11T12:11:56Z</time>
      </trkpt>
      <trkpt lat="45.96588" lon="4.56325">
        <ele>550.6</ele>
        <time>2025-09-11T12:11:57Z</time>
      </trkpt>
      <trkpt lat="45.9659" lon="4.56328">
        <ele>550.6</ele>
        <time>2025-09-11T12:11:58Z</time>
      </trkpt>
      <trkpt lat="45.96592" lon="4.5633">
        <ele>550.6</ele>
        <time>2025-09-11T12:11:59Z</time>
      </trkpt>
      <trkpt lat="45.96594" lon="4.56331">
        <ele>550.6</ele>
        <time>2025-09-11T12:12:00Z</time>
      </trkpt>
      <trkpt lat="45.96596" lon="4.56333">
        <ele>550.8</ele>
        <time>2025-09-11T12:12:01Z</time>
      </trkpt>
      <trkpt lat="45.96598" lon="4.56334">
        <ele>550.8</ele>
        <time>2025-09-11T12:12:02Z</time>
      </trkpt>
      <trkpt lat="45.966" lon="4.56335">
        <ele>551.2</ele>
        <time>2025-09-11T12:12:03Z</time>
      </trkpt>
      <trkpt lat="45.96602" lon="4.56337">
        <ele>551.2</ele>
        <time>2025-09-11T12:12:04Z</time>
      </trkpt>
      <trkpt lat="45.96604" lon="4.56339">
        <ele>551.4</ele>
        <time>2025-09-11T12:12:05Z</time>
      </trkpt>
      <trkpt lat="45.96606" lon="4.5634">
        <ele>551.4</ele>
        <time>2025-09-11T12:12:06Z</time>
      </trkpt>
      <trkpt lat="45.96608" lon="4.56342">
        <ele>551.4</ele>
        <time>2025-09-11T12:12:07Z</time>
      </trkpt>
      <trkpt lat="45.9661" lon="4.56343">
        <ele>551.6</ele>
        <time>2025-09-11T12:12:08Z</time>
      </trkpt>
      <trkpt lat="45.96612" lon="4.56343">
        <ele>551.6</ele>
        <time>2025-09-11T12:12:09Z</time>
      </trkpt>
      <trkpt lat="45.96613" lon="4.56344">
        <ele>552</ele>
        <time>2025-09-11T12:12:10Z</time>
      </trkpt>
      <trkpt lat="45.96615" lon="4.56344">
        <ele>552.4</ele>
        <time>2025-09-11T12:12:11Z</time>
      </trkpt>
      <trkpt lat="45.96616" lon="4.56345">
        <ele>552.4</ele>
        <time>2025-09-11T12:12:12Z</time>
      </trkpt>
      <trkpt lat="45.96618" lon="4.56345">
        <ele>552.4</ele>
        <time>2025-09-11T12:12:13Z</time>
      </trkpt>
      <trkpt lat="45.96619" lon="4.56346">
        <ele>552.6</ele>
        <time>2025-09-11T12:12:14Z</time>
      </trkpt>
      <trkpt lat="45.9662" lon="4.56347">
        <ele>552.6</ele>
        <time>2025-09-11T12:12:15Z</time>
      </trkpt>
      <trkpt lat="45.96621" lon="4.56349">
        <ele>552.6</ele>
        <time>2025-09-11T12:12:16Z</time>
      </trkpt>
      <trkpt lat="45.96621" lon="4.5635">
        <ele>552.8</ele>
        <time>2025-09-11T12:12:17Z</time>
      </trkpt>
      <trkpt lat="45.96621" lon="4.56352">
        <ele>552.8</ele>
        <time>2025-09-11T12:12:18Z</time>
      </trkpt>
      <trkpt lat="45.96621" lon="4.56355">
        <ele>552.8</ele>
        <time>2025-09-11T12:12:19Z</time>
      </trkpt>
      <trkpt lat="45.9662" lon="4.56358">
        <ele>552.6</ele>
        <time>2025-09-11T12:12:20Z</time>
      </trkpt>
      <trkpt lat="45.9662" lon="4.56358">
        <ele>552.6</ele>
        <time>2025-09-11T12:12:21Z</time>
      </trkpt>
      <trkpt lat="45.9662" lon="4.56358">
        <ele>552.4</ele>
        <time>2025-09-11T12:12:22Z</time>
      </trkpt>
      <trkpt lat="45.96616" lon="4.5636">
        <ele>552.4</ele>
        <time>2025-09-11T12:12:43Z</time>
      </trkpt>
      <trkpt lat="45.96616" lon="4.56359">
        <ele>552.4</ele>
        <time>2025-09-11T12:12:44Z</time>
      </trkpt>
      <trkpt lat="45.96615" lon="4.56359">
        <ele>552.4</ele>
        <time>2025-09-11T12:12:45Z</time>
      </trkpt>
      <trkpt lat="45.96615" lon="4.5636">
        <ele>552.4</ele>
        <time>2025-09-11T12:12:46Z</time>
      </trkpt>
      <trkpt lat="45.96615" lon="4.56357">
        <ele>552.4</ele>
        <time>2025-09-11T12:15:00Z</time>
      </trkpt>
      <trkpt lat="45.96615" lon="4.56357">
        <ele>552.4</ele>
        <time>2025-09-11T12:15:01Z</time>
      </trkpt>
      <trkpt lat="45.96615" lon="4.56356">
        <ele>552.4</ele>
        <time>2025-09-11T12:15:02Z</time>
      </trkpt>
      <trkpt lat="45.96615" lon="4.56354">
        <ele>552</ele>
        <time>2025-09-11T12:15:03Z</time>
      </trkpt>
      <trkpt lat="45.96615" lon="4.56353">
        <ele>552</ele>
        <time>2025-09-11T12:15:04Z</time>
      </trkpt>
      <trkpt lat="45.96615" lon="4.56351">
        <ele>552</ele>
        <time>2025-09-11T12:15:05Z</time>
      </trkpt>
      <trkpt lat="45.96616" lon="4.56351">
        <ele>552</ele>
        <time>2025-09-11T12:15:06Z</time>
      </trkpt>
      <trkpt lat="45.96617" lon="4.5635">
        <ele>552</ele>
        <time>2025-09-11T12:15:07Z</time>
      </trkpt>
      <trkpt lat="45.96617" lon="4.5635">
        <ele>552</ele>
        <time>2025-09-11T12:15:08Z</time>
      </trkpt>
      <trkpt lat="45.96617" lon="4.56349">
        <ele>552.4</ele>
        <time>2025-09-11T12:15:09Z</time>
      </trkpt>
      <trkpt lat="45.96617" lon="4.56349">
        <ele>552.4</ele>
        <time>2025-09-11T12:15:10Z</time>
      </trkpt>
      <trkpt lat="45.96617" lon="4.5635">
        <ele>552.6</ele>
        <time>2025-09-11T12:15:19Z</time>
      </trkpt>
      <trkpt lat="45.96618" lon="4.56349">
        <ele>552.6</ele>
        <time>2025-09-11T12:15:20Z</time>
      </trkpt>
      <trkpt lat="45.96619" lon="4.56347">
        <ele>552.6</ele>
        <time>2025-09-11T12:15:21Z</time>
      </trkpt>
      <trkpt lat="45.96621" lon="4.56347">
        <ele>552.6</ele>
        <time>2025-09-11T12:15:22Z</time>
      </trkpt>
      <trkpt lat="45.96624" lon="4.56347">
        <ele>552.6</ele>
        <time>2025-09-11T12:15:23Z</time>
      </trkpt>
      <trkpt lat="45.96626" lon="4.56347">
        <ele>552.6</ele>
        <time>2025-09-11T12:15:24Z</time>
      </trkpt>
      <trkpt lat="45.96629" lon="4.56348">
        <ele>552.6</ele>
        <time>2025-09-11T12:15:25Z</time>
      </trkpt>
      <trkpt lat="45.96632" lon="4.56348">
        <ele>552.6</ele>
        <time>2025-09-11T12:15:26Z</time>
      </trkpt>
      <trkpt lat="45.96635" lon="4.56349">
        <ele>552.6</ele>
        <time>2025-09-11T12:15:27Z</time>
      </trkpt>
      <trkpt lat="45.96638" lon="4.56349">
        <ele>552.2</ele>
        <time>2025-09-11T12:15:28Z</time>
      </trkpt>
      <trkpt lat="45.96641" lon="4.5635">
        <ele>552.2</ele>
        <time>2025-09-11T12:15:29Z</time>
      </trkpt>
      <trkpt lat="45.96645" lon="4.56351">
        <ele>552.2</ele>
        <time>2025-09-11T12:15:30Z</time>
      </trkpt>
      <trkpt lat="45.96649" lon="4.56352">
        <ele>552.2</ele>
        <time>2025-09-11T12:15:31Z</time>
      </trkpt>
      <trkpt lat="45.96654" lon="4.56352">
        <ele>551.8</ele>
        <time>2025-09-11T12:15:32Z</time>
      </trkpt>
      <trkpt lat="45.96659" lon="4.56352">
        <ele>551.8</ele>
        <time>2025-09-11T12:15:33Z</time>
      </trkpt>
      <trkpt lat="45.96664" lon="4.56351">
        <ele>551.4</ele>
        <time>2025-09-11T12:15:34Z</time>
      </trkpt>
      <trkpt lat="45.96669" lon="4.5635">
        <ele>551.4</ele>
        <time>2025-09-11T12:15:35Z</time>
      </trkpt>
      <trkpt lat="45.96674" lon="4.56349">
        <ele>551.2</ele>
        <time>2025-09-11T12:15:36Z</time>
      </trkpt>
      <trkpt lat="45.96679" lon="4.56348">
        <ele>551</ele>
        <time>2025-09-11T12:15:37Z</time>
      </trkpt>
      <trkpt lat="45.96684" lon="4.56349">
        <ele>551</ele>
        <time>2025-09-11T12:15:38Z</time>
      </trkpt>
      <trkpt lat="45.96689" lon="4.56348">
        <ele>551</ele>
        <time>2025-09-11T12:15:39Z</time>
      </trkpt>
      <trkpt lat="45.96694" lon="4.56347">
        <ele>550.8</ele>
        <time>2025-09-11T12:15:40Z</time>
      </trkpt>
      <trkpt lat="45.96699" lon="4.56346">
        <ele>550.8</ele>
        <time>2025-09-11T12:15:41Z</time>
      </trkpt>
      <trkpt lat="45.96704" lon="4.56345">
        <ele>550.4</ele>
        <time>2025-09-11T12:15:42Z</time>
      </trkpt>
      <trkpt lat="45.96709" lon="4.56344">
        <ele>550.4</ele>
        <time>2025-09-11T12:15:43Z</time>
      </trkpt>
      <trkpt lat="45.96713" lon="4.56343">
        <ele>550.2</ele>
        <time>2025-09-11T12:15:44Z</time>
      </trkpt>
      <trkpt lat="45.96718" lon="4.56342">
        <ele>549.4</ele>
        <time>2025-09-11T12:15:45Z</time>
      </trkpt>
      <trkpt lat="45.96723" lon="4.5634">
        <ele>550</ele>
        <time>2025-09-11T12:15:46Z</time>
      </trkpt>
      <trkpt lat="45.96727" lon="4.56339">
        <ele>550.6</ele>
        <time>2025-09-11T12:15:47Z</time>
      </trkpt>
      <trkpt lat="45.96732" lon="4.56338">
        <ele>550.6</ele>
        <time>2025-09-11T12:15:48Z</time>
      </trkpt>
      <trkpt lat="45.96737" lon="4.56338">
        <ele>550.6</ele>
        <time>2025-09-11T12:15:49Z</time>
      </trkpt>
      <trkpt lat="45.96741" lon="4.56338">
        <ele>550.6</ele>
        <time>2025-09-11T12:15:50Z</time>
      </trkpt>
      <trkpt lat="45.96746" lon="4.56338">
        <ele>550.6</ele>
        <time>2025-09-11T12:15:51Z</time>
      </trkpt>
      <trkpt lat="45.96751" lon="4.56338">
        <ele>550.6</ele>
        <time>2025-09-11T12:15:52Z</time>
      </trkpt>
      <trkpt lat="45.96756" lon="4.56339">
        <ele>550.6</ele>
        <time>2025-09-11T12:15:53Z</time>
      </trkpt>
      <trkpt lat="45.96761" lon="4.5634">
        <ele>550.4</ele>
        <time>2025-09-11T12:15:54Z</time>
      </trkpt>
      <trkpt lat="45.96767" lon="4.5634">
        <ele>550</ele>
        <time>2025-09-11T12:15:55Z</time>
      </trkpt>
      <trkpt lat="45.96772" lon="4.5634">
        <ele>549.6</ele>
        <time>2025-09-11T12:15:56Z</time>
      </trkpt>
      <trkpt lat="45.96777" lon="4.56342">
        <ele>549.2</ele>
        <time>2025-09-11T12:15:57Z</time>
      </trkpt>
      <trkpt lat="45.96782" lon="4.56342">
        <ele>550</ele>
        <time>2025-09-11T12:15:58Z</time>
      </trkpt>
      <trkpt lat="45.96787" lon="4.56343">
        <ele>550</ele>
        <time>2025-09-11T12:15:59Z</time>
      </trkpt>
      <trkpt lat="45.96792" lon="4.56345">
        <ele>550</ele>
        <time>2025-09-11T12:16:00Z</time>
      </trkpt>
      <trkpt lat="45.96798" lon="4.56345">
        <ele>550</ele>
        <time>2025-09-11T12:16:01Z</time>
      </trkpt>
      <trkpt lat="45.96803" lon="4.56346">
        <ele>549.8</ele>
        <time>2025-09-11T12:16:02Z</time>
      </trkpt>
      <trkpt lat="45.96808" lon="4.56346">
        <ele>549.8</ele>
        <time>2025-09-11T12:16:03Z</time>
      </trkpt>
      <trkpt lat="45.96812" lon="4.56347">
        <ele>549.6</ele>
        <time>2025-09-11T12:16:04Z</time>
      </trkpt>
      <trkpt lat="45.96817" lon="4.56347">
        <ele>549.6</ele>
        <time>2025-09-11T12:16:05Z</time>
      </trkpt>
      <trkpt lat="45.96821" lon="4.56348">
        <ele>549.6</ele>
        <time>2025-09-11T12:16:06Z</time>
      </trkpt>
      <trkpt lat="45.96824" lon="4.56349">
        <ele>549.6</ele>
        <time>2025-09-11T12:16:07Z</time>
      </trkpt>
      <trkpt lat="45.96827" lon="4.5635">
        <ele>549.6</ele>
        <time>2025-09-11T12:16:08Z</time>
      </trkpt>
      <trkpt lat="45.96831" lon="4.56351">
        <ele>549.2</ele>
        <time>2025-09-11T12:16:09Z</time>
      </trkpt>
      <trkpt lat="45.96834" lon="4.56352">
        <ele>549.2</ele>
        <time>2025-09-11T12:16:10Z</time>
      </trkpt>
      <trkpt lat="45.96839" lon="4.56354">
        <ele>548.8</ele>
        <time>2025-09-11T12:16:11Z</time>
      </trkpt>
      <trkpt lat="45.96843" lon="4.56356">
        <ele>548.8</ele>
        <time>2025-09-11T12:16:12Z</time>
      </trkpt>
      <trkpt lat="45.96848" lon="4.56358">
        <ele>548.4</ele>
        <time>2025-09-11T12:16:13Z</time>
      </trkpt>
      <trkpt lat="45.96852" lon="4.5636">
        <ele>548.2</ele>
        <time>2025-09-11T12:16:14Z</time>
      </trkpt>
      <trkpt lat="45.96857" lon="4.56361">
        <ele>548</ele>
        <time>2025-09-11T12:16:15Z</time>
      </trkpt>
      <trkpt lat="45.96863" lon="4.56363">
        <ele>547.8</ele>
        <time>2025-09-11T12:16:16Z</time>
      </trkpt>
      <trkpt lat="45.96869" lon="4.56365">
        <ele>547.8</ele>
        <time>2025-09-11T12:16:17Z</time>
      </trkpt>
      <trkpt lat="45.96874" lon="4.56368">
        <ele>547.4</ele>
        <time>2025-09-11T12:16:18Z</time>
      </trkpt>
      <trkpt lat="45.9688" lon="4.5637">
        <ele>547.4</ele>
        <time>2025-09-11T12:16:19Z</time>
      </trkpt>
      <trkpt lat="45.96886" lon="4.56372">
        <ele>547.4</ele>
        <time>2025-09-11T12:16:20Z</time>
      </trkpt>
      <trkpt lat="45.96892" lon="4.56374">
        <ele>547.4</ele>
        <time>2025-09-11T12:16:21Z</time>
      </trkpt>
      <trkpt lat="45.96898" lon="4.56377">
        <ele>547.2</ele>
        <time>2025-09-11T12:16:22Z</time>
      </trkpt>
      <trkpt lat="45.96905" lon="4.5638">
        <ele>547.2</ele>
        <time>2025-09-11T12:16:23Z</time>
      </trkpt>
      <trkpt lat="45.96911" lon="4.56383">
        <ele>546.8</ele>
        <time>2025-09-11T12:16:24Z</time>
      </trkpt>
      <trkpt lat="45.96917" lon="4.56386">
        <ele>546.8</ele>
        <time>2025-09-11T12:16:25Z</time>
      </trkpt>
      <trkpt lat="45.96923" lon="4.5639">
        <ele>546.8</ele>
        <time>2025-09-11T12:16:26Z</time>
      </trkpt>
      <trkpt lat="45.96929" lon="4.56395">
        <ele>546.8</ele>
        <time>2025-09-11T12:16:27Z</time>
      </trkpt>
      <trkpt lat="45.96934" lon="4.564">
        <ele>546.8</ele>
        <time>2025-09-11T12:16:28Z</time>
      </trkpt>
      <trkpt lat="45.9694" lon="4.56405">
        <ele>546.4</ele>
        <time>2025-09-11T12:16:29Z</time>
      </trkpt>
      <trkpt lat="45.96945" lon="4.5641">
        <ele>546.4</ele>
        <time>2025-09-11T12:16:30Z</time>
      </trkpt>
      <trkpt lat="45.96951" lon="4.56415">
        <ele>546.4</ele>
        <time>2025-09-11T12:16:31Z</time>
      </trkpt>
      <trkpt lat="45.96956" lon="4.56419">
        <ele>546.4</ele>
        <time>2025-09-11T12:16:32Z</time>
      </trkpt>
      <trkpt lat="45.9696" lon="4.56424">
        <ele>546.8</ele>
        <time>2025-09-11T12:16:33Z</time>
      </trkpt>
      <trkpt lat="45.96965" lon="4.56428">
        <ele>546.8</ele>
        <time>2025-09-11T12:16:34Z</time>
      </trkpt>
      <trkpt lat="45.9697" lon="4.56432">
        <ele>546.8</ele>
        <time>2025-09-11T12:16:35Z</time>
      </trkpt>
      <trkpt lat="45.96974" lon="4.56437">
        <ele>547.2</ele>
        <time>2025-09-11T12:16:36Z</time>
      </trkpt>
      <trkpt lat="45.96979" lon="4.5644">
        <ele>547.4</ele>
        <time>2025-09-11T12:16:37Z</time>
      </trkpt>
      <trkpt lat="45.96983" lon="4.56444">
        <ele>547.8</ele>
        <time>2025-09-11T12:16:38Z</time>
      </trkpt>
      <trkpt lat="45.96987" lon="4.56447">
        <ele>548</ele>
        <time>2025-09-11T12:16:39Z</time>
      </trkpt>
      <trkpt lat="45.9699" lon="4.56449">
        <ele>548.2</ele>
        <time>2025-09-11T12:16:40Z</time>
      </trkpt>
      <trkpt lat="45.96993" lon="4.56451">
        <ele>548.6</ele>
        <time>2025-09-11T12:16:41Z</time>
      </trkpt>
      <trkpt lat="45.96995" lon="4.56452">
        <ele>549</ele>
        <time>2025-09-11T12:16:42Z</time>
      </trkpt>
      <trkpt lat="45.96997" lon="4.56453">
        <ele>549.2</ele>
        <time>2025-09-11T12:16:43Z</time>
      </trkpt>
      <trkpt lat="45.96999" lon="4.56455">
        <ele>549.6</ele>
        <time>2025-09-11T12:16:44Z</time>
      </trkpt>
      <trkpt lat="45.97002" lon="4.56457">
        <ele>549.6</ele>
        <time>2025-09-11T12:16:45Z</time>
      </trkpt>
      <trkpt lat="45.97004" lon="4.56458">
        <ele>550</ele>
        <time>2025-09-11T12:16:46Z</time>
      </trkpt>
      <trkpt lat="45.97007" lon="4.5646">
        <ele>550.2</ele>
        <time>2025-09-11T12:16:47Z</time>
      </trkpt>
      <trkpt lat="45.97009" lon="4.5646">
        <ele>550.4</ele>
        <time>2025-09-11T12:16:48Z</time>
      </trkpt>
      <trkpt lat="45.97011" lon="4.56461">
        <ele>550.4</ele>
        <time>2025-09-11T12:16:49Z</time>
      </trkpt>
      <trkpt lat="45.97015" lon="4.56462">
        <ele>550.8</ele>
        <time>2025-09-11T12:16:50Z</time>
      </trkpt>
      <trkpt lat="45.97017" lon="4.56463">
        <ele>550.8</ele>
        <time>2025-09-11T12:16:51Z</time>
      </trkpt>
      <trkpt lat="45.9702" lon="4.56464">
        <ele>551.2</ele>
        <time>2025-09-11T12:16:52Z</time>
      </trkpt>
      <trkpt lat="45.97023" lon="4.56465">
        <ele>551.2</ele>
        <time>2025-09-11T12:16:53Z</time>
      </trkpt>
      <trkpt lat="45.97026" lon="4.56466">
        <ele>551.4</ele>
        <time>2025-09-11T12:16:54Z</time>
      </trkpt>
      <trkpt lat="45.97028" lon="4.56467">
        <ele>552</ele>
        <time>2025-09-11T12:16:55Z</time>
      </trkpt>
      <trkpt lat="45.9703" lon="4.56467">
        <ele>552</ele>
        <time>2025-09-11T12:16:56Z</time>
      </trkpt>
      <trkpt lat="45.97033" lon="4.56468">
        <ele>551.6</ele>
        <time>2025-09-11T12:16:57Z</time>
      </trkpt>
      <trkpt lat="45.97036" lon="4.56469">
        <ele>551.6</ele>
        <time>2025-09-11T12:16:58Z</time>
      </trkpt>
      <trkpt lat="45.97039" lon="4.5647">
        <ele>551.6</ele>
        <time>2025-09-11T12:16:59Z</time>
      </trkpt>
      <trkpt lat="45.97042" lon="4.5647">
        <ele>551.6</ele>
        <time>2025-09-11T12:17:00Z</time>
      </trkpt>
      <trkpt lat="45.97045" lon="4.56471">
        <ele>551.6</ele>
        <time>2025-09-11T12:17:01Z</time>
      </trkpt>
      <trkpt lat="45.97049" lon="4.56471">
        <ele>551.6</ele>
        <time>2025-09-11T12:17:02Z</time>
      </trkpt>
      <trkpt lat="45.97052" lon="4.56471">
        <ele>551.4</ele>
        <time>2025-09-11T12:17:03Z</time>
      </trkpt>
      <trkpt lat="45.97055" lon="4.5647">
        <ele>551.4</ele>
        <time>2025-09-11T12:17:04Z</time>
      </trkpt>
      <trkpt lat="45.97059" lon="4.5647">
        <ele>551.4</ele>
        <time>2025-09-11T12:17:05Z</time>
      </trkpt>
      <trkpt lat="45.97062" lon="4.5647">
        <ele>551.4</ele>
        <time>2025-09-11T12:17:06Z</time>
      </trkpt>
      <trkpt lat="45.97065" lon="4.5647">
        <ele>551.8</ele>
        <time>2025-09-11T12:17:07Z</time>
      </trkpt>
      <trkpt lat="45.97069" lon="4.56471">
        <ele>551.8</ele>
        <time>2025-09-11T12:17:08Z</time>
      </trkpt>
      <trkpt lat="45.97073" lon="4.5647">
        <ele>552</ele>
        <time>2025-09-11T12:17:09Z</time>
      </trkpt>
      <trkpt lat="45.97076" lon="4.5647">
        <ele>552</ele>
        <time>2025-09-11T12:17:10Z</time>
      </trkpt>
      <trkpt lat="45.97079" lon="4.5647">
        <ele>552</ele>
        <time>2025-09-11T12:17:11Z</time>
      </trkpt>
      <trkpt lat="45.97083" lon="4.5647">
        <ele>552.2</ele>
        <time>2025-09-11T12:17:12Z</time>
      </trkpt>
      <trkpt lat="45.97087" lon="4.56469">
        <ele>552.2</ele>
        <time>2025-09-11T12:17:13Z</time>
      </trkpt>
      <trkpt lat="45.9709" lon="4.56469">
        <ele>552.2</ele>
        <time>2025-09-11T12:17:14Z</time>
      </trkpt>
      <trkpt lat="45.97094" lon="4.56468">
        <ele>552.2</ele>
        <time>2025-09-11T12:17:15Z</time>
      </trkpt>
      <trkpt lat="45.97098" lon="4.56468">
        <ele>552.4</ele>
        <time>2025-09-11T12:17:16Z</time>
      </trkpt>
      <trkpt lat="45.97101" lon="4.56467">
        <ele>552.4</ele>
        <time>2025-09-11T12:17:17Z</time>
      </trkpt>
      <trkpt lat="45.97105" lon="4.56467">
        <ele>552.4</ele>
        <time>2025-09-11T12:17:18Z</time>
      </trkpt>
      <trkpt lat="45.97109" lon="4.56466">
        <ele>552.4</ele>
        <time>2025-09-11T12:17:19Z</time>
      </trkpt>
      <trkpt lat="45.97113" lon="4.56465">
        <ele>552.4</ele>
        <time>2025-09-11T12:17:20Z</time>
      </trkpt>
      <trkpt lat="45.97116" lon="4.56465">
        <ele>552.4</ele>
        <time>2025-09-11T12:17:21Z</time>
      </trkpt>
      <trkpt lat="45.9712" lon="4.56463">
        <ele>552.4</ele>
        <time>2025-09-11T12:17:22Z</time>
      </trkpt>
      <trkpt lat="45.97124" lon="4.56462">
        <ele>552.6</ele>
        <time>2025-09-11T12:17:23Z</time>
      </trkpt>
      <trkpt lat="45.97127" lon="4.56461">
        <ele>552.6</ele>
        <time>2025-09-11T12:17:24Z</time>
      </trkpt>
      <trkpt lat="45.97131" lon="4.5646">
        <ele>552.4</ele>
        <time>2025-09-11T12:17:25Z</time>
      </trkpt>
      <trkpt lat="45.97134" lon="4.56459">
        <ele>552.4</ele>
        <time>2025-09-11T12:17:26Z</time>
      </trkpt>
      <trkpt lat="45.97138" lon="4.56457">
        <ele>552.4</ele>
        <time>2025-09-11T12:17:27Z</time>
      </trkpt>
      <trkpt lat="45.97141" lon="4.56456">
        <ele>552.4</ele>
        <time>2025-09-11T12:17:28Z</time>
      </trkpt>
      <trkpt lat="45.97145" lon="4.56456">
        <ele>552.4</ele>
        <time>2025-09-11T12:17:29Z</time>
      </trkpt>
      <trkpt lat="45.97148" lon="4.56455">
        <ele>552.6</ele>
        <time>2025-09-11T12:17:30Z</time>
      </trkpt>
      <trkpt lat="45.97151" lon="4.56454">
        <ele>552.6</ele>
        <time>2025-09-11T12:17:31Z</time>
      </trkpt>
      <trkpt lat="45.97155" lon="4.56453">
        <ele>552.6</ele>
        <time>2025-09-11T12:17:32Z</time>
      </trkpt>
      <trkpt lat="45.97158" lon="4.56452">
        <ele>552.6</ele>
        <time>2025-09-11T12:17:33Z</time>
      </trkpt>
      <trkpt lat="45.97161" lon="4.56451">
        <ele>552.6</ele>
        <time>2025-09-11T12:17:34Z</time>
      </trkpt>
      <trkpt lat="45.97164" lon="4.5645">
        <ele>552.8</ele>
        <time>2025-09-11T12:17:35Z</time>
      </trkpt>
      <trkpt lat="45.97167" lon="4.56449">
        <ele>553.2</ele>
        <time>2025-09-11T12:17:36Z</time>
      </trkpt>
      <trkpt lat="45.9717" lon="4.56448">
        <ele>553.2</ele>
        <time>2025-09-11T12:17:37Z</time>
      </trkpt>
      <trkpt lat="45.97173" lon="4.56447">
        <ele>553.4</ele>
        <time>2025-09-11T12:17:38Z</time>
      </trkpt>
      <trkpt lat="45.97176" lon="4.56445">
        <ele>553.4</ele>
        <time>2025-09-11T12:17:39Z</time>
      </trkpt>
      <trkpt lat="45.97179" lon="4.56444">
        <ele>553.6</ele>
        <time>2025-09-11T12:17:40Z</time>
      </trkpt>
      <trkpt lat="45.97182" lon="4.56442">
        <ele>553.6</ele>
        <time>2025-09-11T12:17:41Z</time>
      </trkpt>
      <trkpt lat="45.97184" lon="4.56441">
        <ele>554</ele>
        <time>2025-09-11T12:17:42Z</time>
      </trkpt>
      <trkpt lat="45.97186" lon="4.56441">
        <ele>554</ele>
        <time>2025-09-11T12:17:43Z</time>
      </trkpt>
      <trkpt lat="45.97189" lon="4.5644">
        <ele>554.2</ele>
        <time>2025-09-11T12:17:44Z</time>
      </trkpt>
      <trkpt lat="45.97191" lon="4.56439">
        <ele>554.4</ele>
        <time>2025-09-11T12:17:45Z</time>
      </trkpt>
      <trkpt lat="45.97193" lon="4.56438">
        <ele>554.4</ele>
        <time>2025-09-11T12:17:46Z</time>
      </trkpt>
      <trkpt lat="45.97196" lon="4.56437">
        <ele>554.8</ele>
        <time>2025-09-11T12:17:47Z</time>
      </trkpt>
      <trkpt lat="45.97198" lon="4.56436">
        <ele>554.8</ele>
        <time>2025-09-11T12:17:48Z</time>
      </trkpt>
      <trkpt lat="45.972" lon="4.56435">
        <ele>555.2</ele>
        <time>2025-09-11T12:17:49Z</time>
      </trkpt>
      <trkpt lat="45.97201" lon="4.56434">
        <ele>555.2</ele>
        <time>2025-09-11T12:17:50Z</time>
      </trkpt>
      <trkpt lat="45.97203" lon="4.56432">
        <ele>555.4</ele>
        <time>2025-09-11T12:17:51Z</time>
      </trkpt>
      <trkpt lat="45.97205" lon="4.56432">
        <ele>555.4</ele>
        <time>2025-09-11T12:17:52Z</time>
      </trkpt>
      <trkpt lat="45.97207" lon="4.56431">
        <ele>555.4</ele>
        <time>2025-09-11T12:17:53Z</time>
      </trkpt>
      <trkpt lat="45.97209" lon="4.5643">
        <ele>555.8</ele>
        <time>2025-09-11T12:17:54Z</time>
      </trkpt>
      <trkpt lat="45.97211" lon="4.5643">
        <ele>556</ele>
        <time>2025-09-11T12:17:55Z</time>
      </trkpt>
      <trkpt lat="45.97213" lon="4.56429">
        <ele>556</ele>
        <time>2025-09-11T12:17:56Z</time>
      </trkpt>
      <trkpt lat="45.97214" lon="4.56429">
        <ele>556.4</ele>
        <time>2025-09-11T12:17:57Z</time>
      </trkpt>
      <trkpt lat="45.97216" lon="4.56428">
        <ele>556.4</ele>
        <time>2025-09-11T12:17:58Z</time>
      </trkpt>
      <trkpt lat="45.97218" lon="4.56427">
        <ele>556.4</ele>
        <time>2025-09-11T12:17:59Z</time>
      </trkpt>
      <trkpt lat="45.9722" lon="4.56427">
        <ele>556.8</ele>
        <time>2025-09-11T12:18:00Z</time>
      </trkpt>
      <trkpt lat="45.97221" lon="4.56426">
        <ele>556.8</ele>
        <time>2025-09-11T12:18:01Z</time>
      </trkpt>
      <trkpt lat="45.97223" lon="4.56426">
        <ele>557</ele>
        <time>2025-09-11T12:18:02Z</time>
      </trkpt>
      <trkpt lat="45.97225" lon="4.56425">
        <ele>557</ele>
        <time>2025-09-11T12:18:03Z</time>
      </trkpt>
      <trkpt lat="45.97227" lon="4.56425">
        <ele>557.4</ele>
        <time>2025-09-11T12:18:04Z</time>
      </trkpt>
      <trkpt lat="45.97229" lon="4.56424">
        <ele>557.4</ele>
        <time>2025-09-11T12:18:05Z</time>
      </trkpt>
      <trkpt lat="45.9723" lon="4.56423">
        <ele>557.8</ele>
        <time>2025-09-11T12:18:06Z</time>
      </trkpt>
      <trkpt lat="45.97232" lon="4.56423">
        <ele>557.8</ele>
        <time>2025-09-11T12:18:07Z</time>
      </trkpt>
      <trkpt lat="45.97234" lon="4.56422">
        <ele>558</ele>
        <time>2025-09-11T12:18:08Z</time>
      </trkpt>
      <trkpt lat="45.97235" lon="4.56422">
        <ele>558</ele>
        <time>2025-09-11T12:18:09Z</time>
      </trkpt>
      <trkpt lat="45.97237" lon="4.56421">
        <ele>558.2</ele>
        <time>2025-09-11T12:18:10Z</time>
      </trkpt>
      <trkpt lat="45.97238" lon="4.5642">
        <ele>558.2</ele>
        <time>2025-09-11T12:18:11Z</time>
      </trkpt>
      <trkpt lat="45.9724" lon="4.56419">
        <ele>558.6</ele>
        <time>2025-09-11T12:18:12Z</time>
      </trkpt>
      <trkpt lat="45.97242" lon="4.56418">
        <ele>558.6</ele>
        <time>2025-09-11T12:18:13Z</time>
      </trkpt>
      <trkpt lat="45.97243" lon="4.56417">
        <ele>559</ele>
        <time>2025-09-11T12:18:14Z</time>
      </trkpt>
      <trkpt lat="45.97245" lon="4.56417">
        <ele>559</ele>
        <time>2025-09-11T12:18:15Z</time>
      </trkpt>
      <trkpt lat="45.97246" lon="4.56416">
        <ele>559.4</ele>
        <time>2025-09-11T12:18:16Z</time>
      </trkpt>
      <trkpt lat="45.97248" lon="4.56415">
        <ele>559.4</ele>
        <time>2025-09-11T12:18:17Z</time>
      </trkpt>
      <trkpt lat="45.97249" lon="4.56415">
        <ele>559.8</ele>
        <time>2025-09-11T12:18:18Z</time>
      </trkpt>
      <trkpt lat="45.9725" lon="4.56415">
        <ele>560</ele>
        <time>2025-09-11T12:18:19Z</time>
      </trkpt>
      <trkpt lat="45.97252" lon="4.56414">
        <ele>560.2</ele>
        <time>2025-09-11T12:18:20Z</time>
      </trkpt>
      <trkpt lat="45.97253" lon="4.56414">
        <ele>560.2</ele>
        <time>2025-09-11T12:18:21Z</time>
      </trkpt>
      <trkpt lat="45.97254" lon="4.56413">
        <ele>560.2</ele>
        <time>2025-09-11T12:18:22Z</time>
      </trkpt>
      <trkpt lat="45.97255" lon="4.56412">
        <ele>560.4</ele>
        <time>2025-09-11T12:18:23Z</time>
      </trkpt>
      <trkpt lat="45.97257" lon="4.56411">
        <ele>560.6</ele>
        <time>2025-09-11T12:18:24Z</time>
      </trkpt>
      <trkpt lat="45.97258" lon="4.5641">
        <ele>560.8</ele>
        <time>2025-09-11T12:18:25Z</time>
      </trkpt>
      <trkpt lat="45.97259" lon="4.5641">
        <ele>560.8</ele>
        <time>2025-09-11T12:18:26Z</time>
      </trkpt>
      <trkpt lat="45.9726" lon="4.56409">
        <ele>561.2</ele>
        <time>2025-09-11T12:18:27Z</time>
      </trkpt>
      <trkpt lat="45.97261" lon="4.56409">
        <ele>561.2</ele>
        <time>2025-09-11T12:18:28Z</time>
      </trkpt>
      <trkpt lat="45.97263" lon="4.56409">
        <ele>561.2</ele>
        <time>2025-09-11T12:18:29Z</time>
      </trkpt>
      <trkpt lat="45.97264" lon="4.56408">
        <ele>561.4</ele>
        <time>2025-09-11T12:18:30Z</time>
      </trkpt>
      <trkpt lat="45.97265" lon="4.56406">
        <ele>561.4</ele>
        <time>2025-09-11T12:18:31Z</time>
      </trkpt>
      <trkpt lat="45.97267" lon="4.56405">
        <ele>561.6</ele>
        <time>2025-09-11T12:18:32Z</time>
      </trkpt>
      <trkpt lat="45.97268" lon="4.56404">
        <ele>561.6</ele>
        <time>2025-09-11T12:18:33Z</time>
      </trkpt>
      <trkpt lat="45.9727" lon="4.56404">
        <ele>561.6</ele>
        <time>2025-09-11T12:18:34Z</time>
      </trkpt>
      <trkpt lat="45.97271" lon="4.56403">
        <ele>561.6</ele>
        <time>2025-09-11T12:18:35Z</time>
      </trkpt>
      <trkpt lat="45.97272" lon="4.56402">
        <ele>561.6</ele>
        <time>2025-09-11T12:18:36Z</time>
      </trkpt>
      <trkpt lat="45.97274" lon="4.56402">
        <ele>562</ele>
        <time>2025-09-11T12:18:37Z</time>
      </trkpt>
      <trkpt lat="45.97275" lon="4.56401">
        <ele>562</ele>
        <time>2025-09-11T12:18:38Z</time>
      </trkpt>
      <trkpt lat="45.97277" lon="4.564">
        <ele>562</ele>
        <time>2025-09-11T12:18:39Z</time>
      </trkpt>
      <trkpt lat="45.97278" lon="4.56399">
        <ele>562</ele>
        <time>2025-09-11T12:18:40Z</time>
      </trkpt>
      <trkpt lat="45.9728" lon="4.56398">
        <ele>562.2</ele>
        <time>2025-09-11T12:18:41Z</time>
      </trkpt>
      <trkpt lat="45.97281" lon="4.56398">
        <ele>562.2</ele>
        <time>2025-09-11T12:18:42Z</time>
      </trkpt>
      <trkpt lat="45.97283" lon="4.56397">
        <ele>562.2</ele>
        <time>2025-09-11T12:18:43Z</time>
      </trkpt>
      <trkpt lat="45.97284" lon="4.56396">
        <ele>562.2</ele>
        <time>2025-09-11T12:18:44Z</time>
      </trkpt>
      <trkpt lat="45.97286" lon="4.56395">
        <ele>562.6</ele>
        <time>2025-09-11T12:18:45Z</time>
      </trkpt>
      <trkpt lat="45.97287" lon="4.56395">
        <ele>562.6</ele>
        <time>2025-09-11T12:18:46Z</time>
      </trkpt>
      <trkpt lat="45.97289" lon="4.56394">
        <ele>562.6</ele>
        <time>2025-09-11T12:18:47Z</time>
      </trkpt>
      <trkpt lat="45.9729" lon="4.56393">
        <ele>562.8</ele>
        <time>2025-09-11T12:18:48Z</time>
      </trkpt>
      <trkpt lat="45.97291" lon="4.56392">
        <ele>562.8</ele>
        <time>2025-09-11T12:18:49Z</time>
      </trkpt>
      <trkpt lat="45.97293" lon="4.56391">
        <ele>563</ele>
        <time>2025-09-11T12:18:50Z</time>
      </trkpt>
      <trkpt lat="45.97294" lon="4.5639">
        <ele>563</ele>
        <time>2025-09-11T12:18:51Z</time>
      </trkpt>
      <trkpt lat="45.97296" lon="4.56389">
        <ele>563.2</ele>
        <time>2025-09-11T12:18:52Z</time>
      </trkpt>
      <trkpt lat="45.97297" lon="4.56388">
        <ele>563.2</ele>
        <time>2025-09-11T12:18:53Z</time>
      </trkpt>
      <trkpt lat="45.97298" lon="4.56387">
        <ele>563.2</ele>
        <time>2025-09-11T12:18:54Z</time>
      </trkpt>
      <trkpt lat="45.97299" lon="4.56386">
        <ele>563.6</ele>
        <time>2025-09-11T12:18:55Z</time>
      </trkpt>
      <trkpt lat="45.97301" lon="4.56385">
        <ele>563.6</ele>
        <time>2025-09-11T12:18:56Z</time>
      </trkpt>
      <trkpt lat="45.97302" lon="4.56385">
        <ele>563.6</ele>
        <time>2025-09-11T12:18:57Z</time>
      </trkpt>
      <trkpt lat="45.97304" lon="4.56384">
        <ele>564</ele>
        <time>2025-09-11T12:18:58Z</time>
      </trkpt>
      <trkpt lat="45.97305" lon="4.56384">
        <ele>564.2</ele>
        <time>2025-09-11T12:18:59Z</time>
      </trkpt>
      <trkpt lat="45.97307" lon="4.56383">
        <ele>564.2</ele>
        <time>2025-09-11T12:19:00Z</time>
      </trkpt>
      <trkpt lat="45.97308" lon="4.56382">
        <ele>564.4</ele>
        <time>2025-09-11T12:19:01Z</time>
      </trkpt>
      <trkpt lat="45.9731" lon="4.56381">
        <ele>564.4</ele>
        <time>2025-09-11T12:19:02Z</time>
      </trkpt>
      <trkpt lat="45.97311" lon="4.5638">
        <ele>564.8</ele>
        <time>2025-09-11T12:19:03Z</time>
      </trkpt>
      <trkpt lat="45.97312" lon="4.56379">
        <ele>564.8</ele>
        <time>2025-09-11T12:19:04Z</time>
      </trkpt>
      <trkpt lat="45.97314" lon="4.56378">
        <ele>565</ele>
        <time>2025-09-11T12:19:05Z</time>
      </trkpt>
      <trkpt lat="45.97315" lon="4.56377">
        <ele>565</ele>
        <time>2025-09-11T12:19:06Z</time>
      </trkpt>
      <trkpt lat="45.97317" lon="4.56376">
        <ele>565</ele>
        <time>2025-09-11T12:19:07Z</time>
      </trkpt>
      <trkpt lat="45.97318" lon="4.56376">
        <ele>565</ele>
        <time>2025-09-11T12:19:08Z</time>
      </trkpt>
      <trkpt lat="45.9732" lon="4.56376">
        <ele>565.4</ele>
        <time>2025-09-11T12:19:09Z</time>
      </trkpt>
      <trkpt lat="45.97321" lon="4.56375">
        <ele>565.4</ele>
        <time>2025-09-11T12:19:10Z</time>
      </trkpt>
      <trkpt lat="45.97323" lon="4.56375">
        <ele>565.4</ele>
        <time>2025-09-11T12:19:11Z</time>
      </trkpt>
      <trkpt lat="45.97324" lon="4.56374">
        <ele>565.8</ele>
        <time>2025-09-11T12:19:12Z</time>
      </trkpt>
      <trkpt lat="45.97325" lon="4.56373">
        <ele>565.8</ele>
        <time>2025-09-11T12:19:13Z</time>
      </trkpt>
      <trkpt lat="45.97327" lon="4.56372">
        <ele>565.8</ele>
        <time>2025-09-11T12:19:14Z</time>
      </trkpt>
      <trkpt lat="45.97328" lon="4.56371">
        <ele>566</ele>
        <time>2025-09-11T12:19:15Z</time>
      </trkpt>
      <trkpt lat="45.9733" lon="4.5637">
        <ele>566</ele>
        <time>2025-09-11T12:19:16Z</time>
      </trkpt>
      <trkpt lat="45.97331" lon="4.56369">
        <ele>566.4</ele>
        <time>2025-09-11T12:19:17Z</time>
      </trkpt>
      <trkpt lat="45.97333" lon="4.56368">
        <ele>566.4</ele>
        <time>2025-09-11T12:19:18Z</time>
      </trkpt>
      <trkpt lat="45.97334" lon="4.56367">
        <ele>566.4</ele>
        <time>2025-09-11T12:19:19Z</time>
      </trkpt>
      <trkpt lat="45.97336" lon="4.56367">
        <ele>566.4</ele>
        <time>2025-09-11T12:19:20Z</time>
      </trkpt>
      <trkpt lat="45.97338" lon="4.56366">
        <ele>566.6</ele>
        <time>2025-09-11T12:19:21Z</time>
      </trkpt>
      <trkpt lat="45.97339" lon="4.56366">
        <ele>566.6</ele>
        <time>2025-09-11T12:19:22Z</time>
      </trkpt>
      <trkpt lat="45.97341" lon="4.56365">
        <ele>566.6</ele>
        <time>2025-09-11T12:19:23Z</time>
      </trkpt>
      <trkpt lat="45.97342" lon="4.56364">
        <ele>567</ele>
        <time>2025-09-11T12:19:24Z</time>
      </trkpt>
      <trkpt lat="45.97343" lon="4.56363">
        <ele>567</ele>
        <time>2025-09-11T12:19:25Z</time>
      </trkpt>
      <trkpt lat="45.97345" lon="4.56362">
        <ele>567.4</ele>
        <time>2025-09-11T12:19:26Z</time>
      </trkpt>
      <trkpt lat="45.97346" lon="4.56361">
        <ele>567.4</ele>
        <time>2025-09-11T12:19:27Z</time>
      </trkpt>
      <trkpt lat="45.97348" lon="4.56361">
        <ele>567.4</ele>
        <time>2025-09-11T12:19:28Z</time>
      </trkpt>
      <trkpt lat="45.9735" lon="4.5636">
        <ele>567.6</ele>
        <time>2025-09-11T12:19:29Z</time>
      </trkpt>
      <trkpt lat="45.97351" lon="4.5636">
        <ele>567.8</ele>
        <time>2025-09-11T12:19:30Z</time>
      </trkpt>
      <trkpt lat="45.97353" lon="4.56359">
        <ele>567.8</ele>
        <time>2025-09-11T12:19:31Z</time>
      </trkpt>
      <trkpt lat="45.97354" lon="4.56359">
        <ele>568</ele>
        <time>2025-09-11T12:19:32Z</time>
      </trkpt>
      <trkpt lat="45.97356" lon="4.56358">
        <ele>568</ele>
        <time>2025-09-11T12:19:33Z</time>
      </trkpt>
      <trkpt lat="45.97357" lon="4.56358">
        <ele>568.4</ele>
        <time>2025-09-11T12:19:34Z</time>
      </trkpt>
      <trkpt lat="45.97359" lon="4.56357">
        <ele>568.6</ele>
        <time>2025-09-11T12:19:35Z</time>
      </trkpt>
      <trkpt lat="45.9736" lon="4.56356">
        <ele>568.6</ele>
        <time>2025-09-11T12:19:36Z</time>
      </trkpt>
      <trkpt lat="45.97362" lon="4.56355">
        <ele>568.8</ele>
        <time>2025-09-11T12:19:37Z</time>
      </trkpt>
      <trkpt lat="45.97363" lon="4.56355">
        <ele>569</ele>
        <time>2025-09-11T12:19:38Z</time>
      </trkpt>
      <trkpt lat="45.97365" lon="4.56354">
        <ele>569</ele>
        <time>2025-09-11T12:19:39Z</time>
      </trkpt>
      <trkpt lat="45.97366" lon="4.56354">
        <ele>569</ele>
        <time>2025-09-11T12:19:40Z</time>
      </trkpt>
      <trkpt lat="45.9737" lon="4.56353">
        <ele>569</ele>
        <time>2025-09-11T12:19:41Z</time>
      </trkpt>
      <trkpt lat="45.97371" lon="4.56352">
        <ele>569</ele>
        <time>2025-09-11T12:19:42Z</time>
      </trkpt>
      <trkpt lat="45.97373" lon="4.56352">
        <ele>569.4</ele>
        <time>2025-09-11T12:19:43Z</time>
      </trkpt>
      <trkpt lat="45.97375" lon="4.56351">
        <ele>569.4</ele>
        <time>2025-09-11T12:19:44Z</time>
      </trkpt>
      <trkpt lat="45.97377" lon="4.5635">
        <ele>569.8</ele>
        <time>2025-09-11T12:19:45Z</time>
      </trkpt>
      <trkpt lat="45.97378" lon="4.5635">
        <ele>569.8</ele>
        <time>2025-09-11T12:19:46Z</time>
      </trkpt>
      <trkpt lat="45.9738" lon="4.56349">
        <ele>569.8</ele>
        <time>2025-09-11T12:19:47Z</time>
      </trkpt>
      <trkpt lat="45.97382" lon="4.56349">
        <ele>570</ele>
        <time>2025-09-11T12:19:48Z</time>
      </trkpt>
      <trkpt lat="45.97384" lon="4.56349">
        <ele>570</ele>
        <time>2025-09-11T12:19:49Z</time>
      </trkpt>
      <trkpt lat="45.97386" lon="4.56349">
        <ele>570</ele>
        <time>2025-09-11T12:19:50Z</time>
      </trkpt>
      <trkpt lat="45.97388" lon="4.56349">
        <ele>570</ele>
        <time>2025-09-11T12:19:51Z</time>
      </trkpt>
      <trkpt lat="45.9739" lon="4.56348">
        <ele>570.2</ele>
        <time>2025-09-11T12:19:52Z</time>
      </trkpt>
      <trkpt lat="45.97392" lon="4.56348">
        <ele>570.2</ele>
        <time>2025-09-11T12:19:53Z</time>
      </trkpt>
      <trkpt lat="45.97394" lon="4.56347">
        <ele>570.2</ele>
        <time>2025-09-11T12:19:54Z</time>
      </trkpt>
      <trkpt lat="45.97396" lon="4.56346">
        <ele>570.6</ele>
        <time>2025-09-11T12:19:55Z</time>
      </trkpt>
      <trkpt lat="45.97398" lon="4.56345">
        <ele>570.6</ele>
        <time>2025-09-11T12:19:56Z</time>
      </trkpt>
      <trkpt lat="45.97398" lon="4.56345">
        <ele>570.8</ele>
        <time>2025-09-11T12:19:57Z</time>
      </trkpt>
      <trkpt lat="45.97399" lon="4.56345">
        <ele>570.8</ele>
        <time>2025-09-11T12:19:58Z</time>
      </trkpt>
      <trkpt lat="45.97401" lon="4.56344">
        <ele>570.8</ele>
        <time>2025-09-11T12:19:59Z</time>
      </trkpt>
      <trkpt lat="45.97403" lon="4.56344">
        <ele>571.2</ele>
        <time>2025-09-11T12:20:00Z</time>
      </trkpt>
      <trkpt lat="45.97405" lon="4.56344">
        <ele>571.4</ele>
        <time>2025-09-11T12:20:01Z</time>
      </trkpt>
      <trkpt lat="45.97407" lon="4.56343">
        <ele>571.4</ele>
        <time>2025-09-11T12:20:02Z</time>
      </trkpt>
      <trkpt lat="45.97409" lon="4.56342">
        <ele>571.6</ele>
        <time>2025-09-11T12:20:03Z</time>
      </trkpt>
      <trkpt lat="45.97411" lon="4.56341">
        <ele>571.6</ele>
        <time>2025-09-11T12:20:04Z</time>
      </trkpt>
      <trkpt lat="45.97413" lon="4.56341">
        <ele>571.8</ele>
        <time>2025-09-11T12:20:05Z</time>
      </trkpt>
      <trkpt lat="45.97415" lon="4.56341">
        <ele>571.8</ele>
        <time>2025-09-11T12:20:06Z</time>
      </trkpt>
      <trkpt lat="45.97417" lon="4.56341">
        <ele>571.8</ele>
        <time>2025-09-11T12:20:07Z</time>
      </trkpt>
      <trkpt lat="45.97419" lon="4.56341">
        <ele>571.8</ele>
        <time>2025-09-11T12:20:08Z</time>
      </trkpt>
      <trkpt lat="45.97421" lon="4.56341">
        <ele>571.8</ele>
        <time>2025-09-11T12:20:09Z</time>
      </trkpt>
      <trkpt lat="45.97423" lon="4.56342">
        <ele>572</ele>
        <time>2025-09-11T12:20:10Z</time>
      </trkpt>
      <trkpt lat="45.97425" lon="4.56342">
        <ele>572</ele>
        <time>2025-09-11T12:20:11Z</time>
      </trkpt>
      <trkpt lat="45.97427" lon="4.56342">
        <ele>572</ele>
        <time>2025-09-11T12:20:12Z</time>
      </trkpt>
      <trkpt lat="45.97429" lon="4.56342">
        <ele>572</ele>
        <time>2025-09-11T12:20:13Z</time>
      </trkpt>
      <trkpt lat="45.97431" lon="4.56342">
        <ele>572</ele>
        <time>2025-09-11T12:20:14Z</time>
      </trkpt>
      <trkpt lat="45.97433" lon="4.56342">
        <ele>572.2</ele>
        <time>2025-09-11T12:20:15Z</time>
      </trkpt>
      <trkpt lat="45.97435" lon="4.56342">
        <ele>572.2</ele>
        <time>2025-09-11T12:20:16Z</time>
      </trkpt>
      <trkpt lat="45.97437" lon="4.56342">
        <ele>572.6</ele>
        <time>2025-09-11T12:20:17Z</time>
      </trkpt>
      <trkpt lat="45.97439" lon="4.56343">
        <ele>572.6</ele>
        <time>2025-09-11T12:20:18Z</time>
      </trkpt>
      <trkpt lat="45.97441" lon="4.56344">
        <ele>572.6</ele>
        <time>2025-09-11T12:20:19Z</time>
      </trkpt>
      <trkpt lat="45.97442" lon="4.56344">
        <ele>572.6</ele>
        <time>2025-09-11T12:20:20Z</time>
      </trkpt>
      <trkpt lat="45.97443" lon="4.56345">
        <ele>572.6</ele>
        <time>2025-09-11T12:20:21Z</time>
      </trkpt>
      <trkpt lat="45.97444" lon="4.56345">
        <ele>572.6</ele>
        <time>2025-09-11T12:20:22Z</time>
      </trkpt>
      <trkpt lat="45.97444" lon="4.56346">
        <ele>572.6</ele>
        <time>2025-09-11T12:20:23Z</time>
      </trkpt>
      <trkpt lat="45.97444" lon="4.56346">
        <ele>572.6</ele>
        <time>2025-09-11T12:20:24Z</time>
      </trkpt>
      <trkpt lat="45.97444" lon="4.56347">
        <ele>571.8</ele>
        <time>2025-09-11T12:21:17Z</time>
      </trkpt>
      <trkpt lat="45.97445" lon="4.56347">
        <ele>571.8</ele>
        <time>2025-09-11T12:21:18Z</time>
      </trkpt>
      <trkpt lat="45.97446" lon="4.56347">
        <ele>571.8</ele>
        <time>2025-09-11T12:21:19Z</time>
      </trkpt>
      <trkpt lat="45.97447" lon="4.56347">
        <ele>571.8</ele>
        <time>2025-09-11T12:21:20Z</time>
      </trkpt>
      <trkpt lat="45.97447" lon="4.56347">
        <ele>571.8</ele>
        <time>2025-09-11T12:21:21Z</time>
      </trkpt>
      <trkpt lat="45.97448" lon="4.56349">
        <ele>572.6</ele>
        <time>2025-09-11T12:22:34Z</time>
      </trkpt>
      <trkpt lat="45.97449" lon="4.56348">
        <ele>572.6</ele>
        <time>2025-09-11T12:22:35Z</time>
      </trkpt>
      <trkpt lat="45.97449" lon="4.56348">
        <ele>572.6</ele>
        <time>2025-09-11T12:22:36Z</time>
      </trkpt>
      <trkpt lat="45.97449" lon="4.56348">
        <ele>572.6</ele>
        <time>2025-09-11T12:22:37Z</time>
      </trkpt>
      <trkpt lat="45.97458" lon="4.56348">
        <ele>572.4</ele>
        <time>2025-09-11T12:22:39Z</time>
      </trkpt>
      <trkpt lat="45.97461" lon="4.56349">
        <ele>572.6</ele>
        <time>2025-09-11T12:22:40Z</time>
      </trkpt>
      <trkpt lat="45.97463" lon="4.5635">
        <ele>572.6</ele>
        <time>2025-09-11T12:22:41Z</time>
      </trkpt>
      <trkpt lat="45.97465" lon="4.5635">
        <ele>572.6</ele>
        <time>2025-09-11T12:22:42Z</time>
      </trkpt>
      <trkpt lat="45.97468" lon="4.56351">
        <ele>572.6</ele>
        <time>2025-09-11T12:22:43Z</time>
      </trkpt>
      <trkpt lat="45.9747" lon="4.56352">
        <ele>573</ele>
        <time>2025-09-11T12:22:44Z</time>
      </trkpt>
      <trkpt lat="45.97472" lon="4.56352">
        <ele>573</ele>
        <time>2025-09-11T12:22:45Z</time>
      </trkpt>
      <trkpt lat="45.97474" lon="4.56352">
        <ele>573.6</ele>
        <time>2025-09-11T12:22:46Z</time>
      </trkpt>
      <trkpt lat="45.97477" lon="4.56352">
        <ele>573.6</ele>
        <time>2025-09-11T12:22:47Z</time>
      </trkpt>
      <trkpt lat="45.97479" lon="4.56352">
        <ele>574</ele>
        <time>2025-09-11T12:22:48Z</time>
      </trkpt>
      <trkpt lat="45.97481" lon="4.56352">
        <ele>574.2</ele>
        <time>2025-09-11T12:22:49Z</time>
      </trkpt>
      <trkpt lat="45.97483" lon="4.56352">
        <ele>574.2</ele>
        <time>2025-09-11T12:22:50Z</time>
      </trkpt>
      <trkpt lat="45.97485" lon="4.56352">
        <ele>574.2</ele>
        <time>2025-09-11T12:22:51Z</time>
      </trkpt>
      <trkpt lat="45.97487" lon="4.56352">
        <ele>574.8</ele>
        <time>2025-09-11T12:22:52Z</time>
      </trkpt>
      <trkpt lat="45.97488" lon="4.56352">
        <ele>575</ele>
        <time>2025-09-11T12:22:53Z</time>
      </trkpt>
      <trkpt lat="45.9749" lon="4.56352">
        <ele>575.2</ele>
        <time>2025-09-11T12:22:54Z</time>
      </trkpt>
      <trkpt lat="45.97491" lon="4.56352">
        <ele>575.2</ele>
        <time>2025-09-11T12:22:55Z</time>
      </trkpt>
      <trkpt lat="45.97493" lon="4.56352">
        <ele>575.6</ele>
        <time>2025-09-11T12:22:56Z</time>
      </trkpt>
      <trkpt lat="45.97495" lon="4.56353">
        <ele>576</ele>
        <time>2025-09-11T12:22:57Z</time>
      </trkpt>
      <trkpt lat="45.97496" lon="4.56353">
        <ele>576</ele>
        <time>2025-09-11T12:22:58Z</time>
      </trkpt>
      <trkpt lat="45.97498" lon="4.56353">
        <ele>576</ele>
        <time>2025-09-11T12:22:59Z</time>
      </trkpt>
      <trkpt lat="45.97499" lon="4.56353">
        <ele>576.4</ele>
        <time>2025-09-11T12:23:00Z</time>
      </trkpt>
      <trkpt lat="45.975" lon="4.56353">
        <ele>576.4</ele>
        <time>2025-09-11T12:23:01Z</time>
      </trkpt>
      <trkpt lat="45.97502" lon="4.56353">
        <ele>576.8</ele>
        <time>2025-09-11T12:23:02Z</time>
      </trkpt>
      <trkpt lat="45.97503" lon="4.56353">
        <ele>576.8</ele>
        <time>2025-09-11T12:23:03Z</time>
      </trkpt>
      <trkpt lat="45.97505" lon="4.56354">
        <ele>577</ele>
        <time>2025-09-11T12:23:04Z</time>
      </trkpt>
      <trkpt lat="45.97506" lon="4.56354">
        <ele>577.4</ele>
        <time>2025-09-11T12:23:05Z</time>
      </trkpt>
      <trkpt lat="45.97508" lon="4.56353">
        <ele>577.4</ele>
        <time>2025-09-11T12:23:06Z</time>
      </trkpt>
      <trkpt lat="45.9751" lon="4.56353">
        <ele>577.6</ele>
        <time>2025-09-11T12:23:07Z</time>
      </trkpt>
      <trkpt lat="45.97512" lon="4.56353">
        <ele>577.8</ele>
        <time>2025-09-11T12:23:08Z</time>
      </trkpt>
      <trkpt lat="45.97513" lon="4.56352">
        <ele>578</ele>
        <time>2025-09-11T12:23:09Z</time>
      </trkpt>
      <trkpt lat="45.97515" lon="4.56351">
        <ele>578.4</ele>
        <time>2025-09-11T12:23:10Z</time>
      </trkpt>
      <trkpt lat="45.97516" lon="4.5635">
        <ele>578.4</ele>
        <time>2025-09-11T12:23:11Z</time>
      </trkpt>
      <trkpt lat="45.97518" lon="4.56349">
        <ele>578.8</ele>
        <time>2025-09-11T12:23:12Z</time>
      </trkpt>
      <trkpt lat="45.97519" lon="4.56348">
        <ele>579.2</ele>
        <time>2025-09-11T12:23:13Z</time>
      </trkpt>
      <trkpt lat="45.9752" lon="4.56347">
        <ele>579.2</ele>
        <time>2025-09-11T12:23:14Z</time>
      </trkpt>
      <trkpt lat="45.97522" lon="4.56347">
        <ele>579.4</ele>
        <time>2025-09-11T12:23:15Z</time>
      </trkpt>
      <trkpt lat="45.97523" lon="4.56347">
        <ele>579.6</ele>
        <time>2025-09-11T12:23:16Z</time>
      </trkpt>
      <trkpt lat="45.97525" lon="4.56346">
        <ele>579.6</ele>
        <time>2025-09-11T12:23:17Z</time>
      </trkpt>
      <trkpt lat="45.97526" lon="4.56346">
        <ele>579.8</ele>
        <time>2025-09-11T12:23:18Z</time>
      </trkpt>
      <trkpt lat="45.97528" lon="4.56345">
        <ele>579.8</ele>
        <time>2025-09-11T12:23:19Z</time>
      </trkpt>
      <trkpt lat="45.97529" lon="4.56345">
        <ele>580</ele>
        <time>2025-09-11T12:23:20Z</time>
      </trkpt>
      <trkpt lat="45.97531" lon="4.56344">
        <ele>580.4</ele>
        <time>2025-09-11T12:23:21Z</time>
      </trkpt>
      <trkpt lat="45.97532" lon="4.56344">
        <ele>580.4</ele>
        <time>2025-09-11T12:23:22Z</time>
      </trkpt>
      <trkpt lat="45.97534" lon="4.56343">
        <ele>580.6</ele>
        <time>2025-09-11T12:23:23Z</time>
      </trkpt>
      <trkpt lat="45.97535" lon="4.56343">
        <ele>580.6</ele>
        <time>2025-09-11T12:23:24Z</time>
      </trkpt>
      <trkpt lat="45.97536" lon="4.56343">
        <ele>580.8</ele>
        <time>2025-09-11T12:23:25Z</time>
      </trkpt>
      <trkpt lat="45.97537" lon="4.56342">
        <ele>580.8</ele>
        <time>2025-09-11T12:23:26Z</time>
      </trkpt>
      <trkpt lat="45.97538" lon="4.56342">
        <ele>581</ele>
        <time>2025-09-11T12:23:27Z</time>
      </trkpt>
      <trkpt lat="45.97539" lon="4.56342">
        <ele>581.4</ele>
        <time>2025-09-11T12:23:28Z</time>
      </trkpt>
      <trkpt lat="45.97541" lon="4.56341">
        <ele>581.4</ele>
        <time>2025-09-11T12:23:29Z</time>
      </trkpt>
      <trkpt lat="45.97542" lon="4.56341">
        <ele>581.6</ele>
        <time>2025-09-11T12:23:30Z</time>
      </trkpt>
      <trkpt lat="45.97544" lon="4.56341">
        <ele>581.6</ele>
        <time>2025-09-11T12:23:31Z</time>
      </trkpt>
      <trkpt lat="45.97545" lon="4.56342">
        <ele>581.8</ele>
        <time>2025-09-11T12:23:32Z</time>
      </trkpt>
      <trkpt lat="45.97547" lon="4.56342">
        <ele>581.8</ele>
        <time>2025-09-11T12:23:33Z</time>
      </trkpt>
      <trkpt lat="45.97548" lon="4.56342">
        <ele>582.2</ele>
        <time>2025-09-11T12:23:34Z</time>
      </trkpt>
      <trkpt lat="45.9755" lon="4.56341">
        <ele>582.2</ele>
        <time>2025-09-11T12:23:35Z</time>
      </trkpt>
      <trkpt lat="45.97551" lon="4.56341">
        <ele>582.4</ele>
        <time>2025-09-11T12:23:36Z</time>
      </trkpt>
      <trkpt lat="45.97552" lon="4.5634">
        <ele>582.4</ele>
        <time>2025-09-11T12:23:37Z</time>
      </trkpt>
      <trkpt lat="45.97554" lon="4.5634">
        <ele>582.6</ele>
        <time>2025-09-11T12:23:38Z</time>
      </trkpt>
      <trkpt lat="45.97555" lon="4.56339">
        <ele>582.8</ele>
        <time>2025-09-11T12:23:39Z</time>
      </trkpt>
      <trkpt lat="45.97557" lon="4.56338">
        <ele>583</ele>
        <time>2025-09-11T12:23:40Z</time>
      </trkpt>
      <trkpt lat="45.97558" lon="4.56338">
        <ele>583</ele>
        <time>2025-09-11T12:23:41Z</time>
      </trkpt>
      <trkpt lat="45.9756" lon="4.56337">
        <ele>583.4</ele>
        <time>2025-09-11T12:23:42Z</time>
      </trkpt>
      <trkpt lat="45.97562" lon="4.56337">
        <ele>583.4</ele>
        <time>2025-09-11T12:23:43Z</time>
      </trkpt>
      <trkpt lat="45.97563" lon="4.56337">
        <ele>583.4</ele>
        <time>2025-09-11T12:23:44Z</time>
      </trkpt>
      <trkpt lat="45.97565" lon="4.56337">
        <ele>583.8</ele>
        <time>2025-09-11T12:23:45Z</time>
      </trkpt>
      <trkpt lat="45.97567" lon="4.56336">
        <ele>584</ele>
        <time>2025-09-11T12:23:46Z</time>
      </trkpt>
      <trkpt lat="45.97568" lon="4.56336">
        <ele>584</ele>
        <time>2025-09-11T12:23:47Z</time>
      </trkpt>
      <trkpt lat="45.9757" lon="4.56336">
        <ele>584.2</ele>
        <time>2025-09-11T12:23:48Z</time>
      </trkpt>
      <trkpt lat="45.97571" lon="4.56336">
        <ele>584.2</ele>
        <time>2025-09-11T12:23:49Z</time>
      </trkpt>
      <trkpt lat="45.97572" lon="4.56336">
        <ele>584.6</ele>
        <time>2025-09-11T12:23:50Z</time>
      </trkpt>
      <trkpt lat="45.97574" lon="4.56336">
        <ele>584.6</ele>
        <time>2025-09-11T12:23:51Z</time>
      </trkpt>
      <trkpt lat="45.97575" lon="4.56335">
        <ele>584.8</ele>
        <time>2025-09-11T12:23:52Z</time>
      </trkpt>
      <trkpt lat="45.97576" lon="4.56335">
        <ele>585</ele>
        <time>2025-09-11T12:23:53Z</time>
      </trkpt>
      <trkpt lat="45.97577" lon="4.56336">
        <ele>585.4</ele>
        <time>2025-09-11T12:23:54Z</time>
      </trkpt>
      <trkpt lat="45.97579" lon="4.56337">
        <ele>585.4</ele>
        <time>2025-09-11T12:23:55Z</time>
      </trkpt>
      <trkpt lat="45.9758" lon="4.56337">
        <ele>585.6</ele>
        <time>2025-09-11T12:23:56Z</time>
      </trkpt>
      <trkpt lat="45.97581" lon="4.56338">
        <ele>585.6</ele>
        <time>2025-09-11T12:23:57Z</time>
      </trkpt>
      <trkpt lat="45.97582" lon="4.56338">
        <ele>585.8</ele>
        <time>2025-09-11T12:23:58Z</time>
      </trkpt>
      <trkpt lat="45.97584" lon="4.56338">
        <ele>585.8</ele>
        <time>2025-09-11T12:23:59Z</time>
      </trkpt>
      <trkpt lat="45.97585" lon="4.56338">
        <ele>585.8</ele>
        <time>2025-09-11T12:24:00Z</time>
      </trkpt>
      <trkpt lat="45.97586" lon="4.56338">
        <ele>586.2</ele>
        <time>2025-09-11T12:24:01Z</time>
      </trkpt>
      <trkpt lat="45.97588" lon="4.56338">
        <ele>586.2</ele>
        <time>2025-09-11T12:24:02Z</time>
      </trkpt>
      <trkpt lat="45.97589" lon="4.56339">
        <ele>586.2</ele>
        <time>2025-09-11T12:24:03Z</time>
      </trkpt>
      <trkpt lat="45.9759" lon="4.56339">
        <ele>586.2</ele>
        <time>2025-09-11T12:24:04Z</time>
      </trkpt>
      <trkpt lat="45.97593" lon="4.56338">
        <ele>586.2</ele>
        <time>2025-09-11T12:24:05Z</time>
      </trkpt>
      <trkpt lat="45.97594" lon="4.56338">
        <ele>586.2</ele>
        <time>2025-09-11T12:24:06Z</time>
      </trkpt>
      <trkpt lat="45.97594" lon="4.56337">
        <ele>586.4</ele>
        <time>2025-09-11T12:24:07Z</time>
      </trkpt>
      <trkpt lat="45.97594" lon="4.56337">
        <ele>586.4</ele>
        <time>2025-09-11T12:24:08Z</time>
      </trkpt>
      <trkpt lat="45.97597" lon="4.56336">
        <ele>586.2</ele>
        <time>2025-09-11T12:24:50Z</time>
      </trkpt>
      <trkpt lat="45.976" lon="4.56335">
        <ele>586.2</ele>
        <time>2025-09-11T12:24:51Z</time>
      </trkpt>
      <trkpt lat="45.97602" lon="4.56334">
        <ele>586.2</ele>
        <time>2025-09-11T12:24:52Z</time>
      </trkpt>
      <trkpt lat="45.97604" lon="4.56333">
        <ele>586.2</ele>
        <time>2025-09-11T12:24:53Z</time>
      </trkpt>
      <trkpt lat="45.97607" lon="4.56333">
        <ele>586</ele>
        <time>2025-09-11T12:24:54Z</time>
      </trkpt>
      <trkpt lat="45.9761" lon="4.56333">
        <ele>586</ele>
        <time>2025-09-11T12:24:55Z</time>
      </trkpt>
      <trkpt lat="45.97613" lon="4.56333">
        <ele>586</ele>
        <time>2025-09-11T12:24:56Z</time>
      </trkpt>
      <trkpt lat="45.97616" lon="4.56333">
        <ele>586</ele>
        <time>2025-09-11T12:24:57Z</time>
      </trkpt>
      <trkpt lat="45.97618" lon="4.56332">
        <ele>586</ele>
        <time>2025-09-11T12:24:58Z</time>
      </trkpt>
      <trkpt lat="45.97621" lon="4.56332">
        <ele>586</ele>
        <time>2025-09-11T12:24:59Z</time>
      </trkpt>
      <trkpt lat="45.97624" lon="4.56332">
        <ele>586</ele>
        <time>2025-09-11T12:25:00Z</time>
      </trkpt>
      <trkpt lat="45.97627" lon="4.56333">
        <ele>586</ele>
        <time>2025-09-11T12:25:01Z</time>
      </trkpt>
      <trkpt lat="45.9763" lon="4.56333">
        <ele>586.2</ele>
        <time>2025-09-11T12:25:02Z</time>
      </trkpt>
      <trkpt lat="45.97632" lon="4.56333">
        <ele>586.2</ele>
        <time>2025-09-11T12:25:03Z</time>
      </trkpt>
      <trkpt lat="45.97635" lon="4.56334">
        <ele>586.4</ele>
        <time>2025-09-11T12:25:04Z</time>
      </trkpt>
      <trkpt lat="45.97637" lon="4.56335">
        <ele>586.4</ele>
        <time>2025-09-11T12:25:05Z</time>
      </trkpt>
      <trkpt lat="45.9764" lon="4.56335">
        <ele>586.6</ele>
        <time>2025-09-11T12:25:06Z</time>
      </trkpt>
      <trkpt lat="45.97643" lon="4.56336">
        <ele>586.6</ele>
        <time>2025-09-11T12:25:07Z</time>
      </trkpt>
      <trkpt lat="45.97645" lon="4.56337">
        <ele>586.6</ele>
        <time>2025-09-11T12:25:08Z</time>
      </trkpt>
      <trkpt lat="45.97648" lon="4.56338">
        <ele>586.6</ele>
        <time>2025-09-11T12:25:09Z</time>
      </trkpt>
      <trkpt lat="45.97651" lon="4.56339">
        <ele>587</ele>
        <time>2025-09-11T12:25:10Z</time>
      </trkpt>
      <trkpt lat="45.97653" lon="4.5634">
        <ele>587</ele>
        <time>2025-09-11T12:25:11Z</time>
      </trkpt>
      <trkpt lat="45.97656" lon="4.56341">
        <ele>587</ele>
        <time>2025-09-11T12:25:12Z</time>
      </trkpt>
      <trkpt lat="45.97658" lon="4.56342">
        <ele>587</ele>
        <time>2025-09-11T12:25:13Z</time>
      </trkpt>
      <trkpt lat="45.9766" lon="4.56344">
        <ele>587</ele>
        <time>2025-09-11T12:25:14Z</time>
      </trkpt>
      <trkpt lat="45.97663" lon="4.56346">
        <ele>587.4</ele>
        <time>2025-09-11T12:25:15Z</time>
      </trkpt>
      <trkpt lat="45.97665" lon="4.56347">
        <ele>587.4</ele>
        <time>2025-09-11T12:25:16Z</time>
      </trkpt>
      <trkpt lat="45.97668" lon="4.5635">
        <ele>587.4</ele>
        <time>2025-09-11T12:25:17Z</time>
      </trkpt>
      <trkpt lat="45.9767" lon="4.56352">
        <ele>587.8</ele>
        <time>2025-09-11T12:25:18Z</time>
      </trkpt>
      <trkpt lat="45.97673" lon="4.56354">
        <ele>587.8</ele>
        <time>2025-09-11T12:25:19Z</time>
      </trkpt>
      <trkpt lat="45.97675" lon="4.56357">
        <ele>588</ele>
        <time>2025-09-11T12:25:20Z</time>
      </trkpt>
      <trkpt lat="45.97677" lon="4.5636">
        <ele>588</ele>
        <time>2025-09-11T12:25:21Z</time>
      </trkpt>
      <trkpt lat="45.97679" lon="4.56362">
        <ele>588</ele>
        <time>2025-09-11T12:25:22Z</time>
      </trkpt>
      <trkpt lat="45.97682" lon="4.56364">
        <ele>588.2</ele>
        <time>2025-09-11T12:25:23Z</time>
      </trkpt>
      <trkpt lat="45.97685" lon="4.56366">
        <ele>588.2</ele>
        <time>2025-09-11T12:25:24Z</time>
      </trkpt>
      <trkpt lat="45.97687" lon="4.56368">
        <ele>588.4</ele>
        <time>2025-09-11T12:25:25Z</time>
      </trkpt>
      <trkpt lat="45.97689" lon="4.5637">
        <ele>588.4</ele>
        <time>2025-09-11T12:25:26Z</time>
      </trkpt>
      <trkpt lat="45.9769" lon="4.56372">
        <ele>588.4</ele>
        <time>2025-09-11T12:25:27Z</time>
      </trkpt>
      <trkpt lat="45.97692" lon="4.56374">
        <ele>588.8</ele>
        <time>2025-09-11T12:25:28Z</time>
      </trkpt>
      <trkpt lat="45.97695" lon="4.56376">
        <ele>589</ele>
        <time>2025-09-11T12:25:29Z</time>
      </trkpt>
      <trkpt lat="45.97697" lon="4.56378">
        <ele>589</ele>
        <time>2025-09-11T12:25:30Z</time>
      </trkpt>
      <trkpt lat="45.97699" lon="4.5638">
        <ele>589</ele>
        <time>2025-09-11T12:25:31Z</time>
      </trkpt>
      <trkpt lat="45.97702" lon="4.56383">
        <ele>589.2</ele>
        <time>2025-09-11T12:25:32Z</time>
      </trkpt>
      <trkpt lat="45.97704" lon="4.56385">
        <ele>589.2</ele>
        <time>2025-09-11T12:25:33Z</time>
      </trkpt>
      <trkpt lat="45.97706" lon="4.56388">
        <ele>589.2</ele>
        <time>2025-09-11T12:25:34Z</time>
      </trkpt>
      <trkpt lat="45.97708" lon="4.56391">
        <ele>589.2</ele>
        <time>2025-09-11T12:25:35Z</time>
      </trkpt>
      <trkpt lat="45.97711" lon="4.56394">
        <ele>589.4</ele>
        <time>2025-09-11T12:25:36Z</time>
      </trkpt>
      <trkpt lat="45.97714" lon="4.56396">
        <ele>589.4</ele>
        <time>2025-09-11T12:25:37Z</time>
      </trkpt>
      <trkpt lat="45.97716" lon="4.56398">
        <ele>589.8</ele>
        <time>2025-09-11T12:25:38Z</time>
      </trkpt>
      <trkpt lat="45.97719" lon="4.564">
        <ele>589.8</ele>
        <time>2025-09-11T12:25:39Z</time>
      </trkpt>
      <trkpt lat="45.97722" lon="4.56401">
        <ele>590.2</ele>
        <time>2025-09-11T12:25:40Z</time>
      </trkpt>
      <trkpt lat="45.97724" lon="4.56402">
        <ele>590.2</ele>
        <time>2025-09-11T12:25:41Z</time>
      </trkpt>
      <trkpt lat="45.97727" lon="4.56404">
        <ele>590.2</ele>
        <time>2025-09-11T12:25:42Z</time>
      </trkpt>
      <trkpt lat="45.9773" lon="4.56405">
        <ele>590.2</ele>
        <time>2025-09-11T12:25:43Z</time>
      </trkpt>
      <trkpt lat="45.97732" lon="4.56406">
        <ele>590.2</ele>
        <time>2025-09-11T12:25:44Z</time>
      </trkpt>
      <trkpt lat="45.97735" lon="4.56407">
        <ele>590.4</ele>
        <time>2025-09-11T12:25:45Z</time>
      </trkpt>
      <trkpt lat="45.97738" lon="4.56408">
        <ele>590.4</ele>
        <time>2025-09-11T12:25:46Z</time>
      </trkpt>
      <trkpt lat="45.97741" lon="4.56408">
        <ele>590.8</ele>
        <time>2025-09-11T12:25:47Z</time>
      </trkpt>
      <trkpt lat="45.97744" lon="4.56408">
        <ele>590.8</ele>
        <time>2025-09-11T12:25:48Z</time>
      </trkpt>
      <trkpt lat="45.97747" lon="4.56407">
        <ele>590.8</ele>
        <time>2025-09-11T12:25:49Z</time>
      </trkpt>
      <trkpt lat="45.97749" lon="4.56407">
        <ele>591</ele>
        <time>2025-09-11T12:25:50Z</time>
      </trkpt>
      <trkpt lat="45.97752" lon="4.56407">
        <ele>591</ele>
        <time>2025-09-11T12:25:51Z</time>
      </trkpt>
      <trkpt lat="45.97755" lon="4.56407">
        <ele>591</ele>
        <time>2025-09-11T12:25:52Z</time>
      </trkpt>
      <trkpt lat="45.97758" lon="4.56406">
        <ele>591</ele>
        <time>2025-09-11T12:25:53Z</time>
      </trkpt>
      <trkpt lat="45.9776" lon="4.56406">
        <ele>591</ele>
        <time>2025-09-11T12:25:54Z</time>
      </trkpt>
      <trkpt lat="45.97763" lon="4.56405">
        <ele>591.4</ele>
        <time>2025-09-11T12:25:55Z</time>
      </trkpt>
      <trkpt lat="45.97766" lon="4.56404">
        <ele>591.4</ele>
        <time>2025-09-11T12:25:56Z</time>
      </trkpt>
      <trkpt lat="45.97769" lon="4.56404">
        <ele>591.4</ele>
        <time>2025-09-11T12:25:57Z</time>
      </trkpt>
      <trkpt lat="45.97771" lon="4.56403">
        <ele>591.4</ele>
        <time>2025-09-11T12:25:58Z</time>
      </trkpt>
      <trkpt lat="45.97774" lon="4.56403">
        <ele>591.4</ele>
        <time>2025-09-11T12:25:59Z</time>
      </trkpt>
      <trkpt lat="45.97777" lon="4.56402">
        <ele>591.6</ele>
        <time>2025-09-11T12:26:00Z</time>
      </trkpt>
      <trkpt lat="45.9778" lon="4.56402">
        <ele>591.6</ele>
        <time>2025-09-11T12:26:01Z</time>
      </trkpt>
      <trkpt lat="45.97782" lon="4.56402">
        <ele>591.6</ele>
        <time>2025-09-11T12:26:02Z</time>
      </trkpt>
      <trkpt lat="45.97785" lon="4.56402">
        <ele>591.8</ele>
        <time>2025-09-11T12:26:03Z</time>
      </trkpt>
      <trkpt lat="45.97787" lon="4.56401">
        <ele>592</ele>
        <time>2025-09-11T12:26:04Z</time>
      </trkpt>
      <trkpt lat="45.9779" lon="4.56401">
        <ele>592</ele>
        <time>2025-09-11T12:26:05Z</time>
      </trkpt>
      <trkpt lat="45.97792" lon="4.56401">
        <ele>592</ele>
        <time>2025-09-11T12:26:06Z</time>
      </trkpt>
      <trkpt lat="45.97795" lon="4.56401">
        <ele>592.4</ele>
        <time>2025-09-11T12:26:07Z</time>
      </trkpt>
      <trkpt lat="45.97798" lon="4.56401">
        <ele>592.4</ele>
        <time>2025-09-11T12:26:08Z</time>
      </trkpt>
      <trkpt lat="45.978" lon="4.56401">
        <ele>592.6</ele>
        <time>2025-09-11T12:26:09Z</time>
      </trkpt>
      <trkpt lat="45.97803" lon="4.56401">
        <ele>592.6</ele>
        <time>2025-09-11T12:26:10Z</time>
      </trkpt>
      <trkpt lat="45.97805" lon="4.564">
        <ele>592.6</ele>
        <time>2025-09-11T12:26:11Z</time>
      </trkpt>
      <trkpt lat="45.97808" lon="4.564">
        <ele>592.8</ele>
        <time>2025-09-11T12:26:12Z</time>
      </trkpt>
      <trkpt lat="45.9781" lon="4.56399">
        <ele>592.8</ele>
        <time>2025-09-11T12:26:13Z</time>
      </trkpt>
      <trkpt lat="45.97813" lon="4.56398">
        <ele>593</ele>
        <time>2025-09-11T12:26:14Z</time>
      </trkpt>
      <trkpt lat="45.97815" lon="4.56397">
        <ele>593</ele>
        <time>2025-09-11T12:26:15Z</time>
      </trkpt>
      <trkpt lat="45.97818" lon="4.56395">
        <ele>593</ele>
        <time>2025-09-11T12:26:16Z</time>
      </trkpt>
      <trkpt lat="45.9782" lon="4.56394">
        <ele>593.2</ele>
        <time>2025-09-11T12:26:17Z</time>
      </trkpt>
      <trkpt lat="45.97823" lon="4.56393">
        <ele>593.2</ele>
        <time>2025-09-11T12:26:18Z</time>
      </trkpt>
      <trkpt lat="45.97826" lon="4.56392">
        <ele>593.6</ele>
        <time>2025-09-11T12:26:19Z</time>
      </trkpt>
      <trkpt lat="45.97828" lon="4.5639">
        <ele>593.6</ele>
        <time>2025-09-11T12:26:20Z</time>
      </trkpt>
      <trkpt lat="45.97831" lon="4.56388">
        <ele>593.8</ele>
        <time>2025-09-11T12:26:21Z</time>
      </trkpt>
      <trkpt lat="45.97833" lon="4.56386">
        <ele>593.8</ele>
        <time>2025-09-11T12:26:22Z</time>
      </trkpt>
      <trkpt lat="45.97836" lon="4.56384">
        <ele>593.8</ele>
        <time>2025-09-11T12:26:23Z</time>
      </trkpt>
      <trkpt lat="45.97839" lon="4.56382">
        <ele>593.8</ele>
        <time>2025-09-11T12:26:24Z</time>
      </trkpt>
      <trkpt lat="45.97841" lon="4.56381">
        <ele>594</ele>
        <time>2025-09-11T12:26:25Z</time>
      </trkpt>
      <trkpt lat="45.97844" lon="4.56379">
        <ele>594</ele>
        <time>2025-09-11T12:26:26Z</time>
      </trkpt>
      <trkpt lat="45.97847" lon="4.56378">
        <ele>594.6</ele>
        <time>2025-09-11T12:26:27Z</time>
      </trkpt>
      <trkpt lat="45.97849" lon="4.56376">
        <ele>594.6</ele>
        <time>2025-09-11T12:26:28Z</time>
      </trkpt>
      <trkpt lat="45.97852" lon="4.56374">
        <ele>594.8</ele>
        <time>2025-09-11T12:26:29Z</time>
      </trkpt>
      <trkpt lat="45.97855" lon="4.56373">
        <ele>594.8</ele>
        <time>2025-09-11T12:26:30Z</time>
      </trkpt>
      <trkpt lat="45.97857" lon="4.56371">
        <ele>594.8</ele>
        <time>2025-09-11T12:26:31Z</time>
      </trkpt>
      <trkpt lat="45.97859" lon="4.56369">
        <ele>594.8</ele>
        <time>2025-09-11T12:26:32Z</time>
      </trkpt>
      <trkpt lat="45.97862" lon="4.56368">
        <ele>594.8</ele>
        <time>2025-09-11T12:26:33Z</time>
      </trkpt>
      <trkpt lat="45.97864" lon="4.56366">
        <ele>595</ele>
        <time>2025-09-11T12:26:34Z</time>
      </trkpt>
      <trkpt lat="45.97866" lon="4.56364">
        <ele>595</ele>
        <time>2025-09-11T12:26:35Z</time>
      </trkpt>
      <trkpt lat="45.97869" lon="4.56362">
        <ele>595</ele>
        <time>2025-09-11T12:26:36Z</time>
      </trkpt>
      <trkpt lat="45.97871" lon="4.56361">
        <ele>594.6</ele>
        <time>2025-09-11T12:26:37Z</time>
      </trkpt>
      <trkpt lat="45.97873" lon="4.56359">
        <ele>594.8</ele>
        <time>2025-09-11T12:26:38Z</time>
      </trkpt>
      <trkpt lat="45.97875" lon="4.56358">
        <ele>595</ele>
        <time>2025-09-11T12:26:39Z</time>
      </trkpt>
      <trkpt lat="45.97877" lon="4.56356">
        <ele>595</ele>
        <time>2025-09-11T12:26:40Z</time>
      </trkpt>
      <trkpt lat="45.97879" lon="4.56354">
        <ele>595</ele>
        <time>2025-09-11T12:26:41Z</time>
      </trkpt>
      <trkpt lat="45.97881" lon="4.56352">
        <ele>595.4</ele>
        <time>2025-09-11T12:26:42Z</time>
      </trkpt>
      <trkpt lat="45.97884" lon="4.5635">
        <ele>595.4</ele>
        <time>2025-09-11T12:26:43Z</time>
      </trkpt>
      <trkpt lat="45.97886" lon="4.56349">
        <ele>595.6</ele>
        <time>2025-09-11T12:26:44Z</time>
      </trkpt>
      <trkpt lat="45.97888" lon="4.56348">
        <ele>595.6</ele>
        <time>2025-09-11T12:26:45Z</time>
      </trkpt>
      <trkpt lat="45.97891" lon="4.56346">
        <ele>595.8</ele>
        <time>2025-09-11T12:26:46Z</time>
      </trkpt>
      <trkpt lat="45.97893" lon="4.56344">
        <ele>596.2</ele>
        <time>2025-09-11T12:26:47Z</time>
      </trkpt>
      <trkpt lat="45.97894" lon="4.56343">
        <ele>596.2</ele>
        <time>2025-09-11T12:26:48Z</time>
      </trkpt>
      <trkpt lat="45.97896" lon="4.56341">
        <ele>596.2</ele>
        <time>2025-09-11T12:26:49Z</time>
      </trkpt>
      <trkpt lat="45.97898" lon="4.5634">
        <ele>596.2</ele>
        <time>2025-09-11T12:26:50Z</time>
      </trkpt>
      <trkpt lat="45.979" lon="4.56339">
        <ele>596.4</ele>
        <time>2025-09-11T12:26:51Z</time>
      </trkpt>
      <trkpt lat="45.97903" lon="4.56337">
        <ele>596.4</ele>
        <time>2025-09-11T12:26:52Z</time>
      </trkpt>
      <trkpt lat="45.97905" lon="4.56336">
        <ele>596.4</ele>
        <time>2025-09-11T12:26:53Z</time>
      </trkpt>
      <trkpt lat="45.97908" lon="4.56333">
        <ele>596.8</ele>
        <time>2025-09-11T12:26:54Z</time>
      </trkpt>
      <trkpt lat="45.9791" lon="4.56331">
        <ele>596.8</ele>
        <time>2025-09-11T12:26:55Z</time>
      </trkpt>
      <trkpt lat="45.97912" lon="4.5633">
        <ele>596.8</ele>
        <time>2025-09-11T12:26:56Z</time>
      </trkpt>
      <trkpt lat="45.97915" lon="4.56328">
        <ele>596.8</ele>
        <time>2025-09-11T12:26:57Z</time>
      </trkpt>
      <trkpt lat="45.97917" lon="4.56327">
        <ele>596.8</ele>
        <time>2025-09-11T12:26:58Z</time>
      </trkpt>
      <trkpt lat="45.9792" lon="4.56325">
        <ele>596.8</ele>
        <time>2025-09-11T12:26:59Z</time>
      </trkpt>
      <trkpt lat="45.97923" lon="4.56325">
        <ele>596.8</ele>
        <time>2025-09-11T12:27:00Z</time>
      </trkpt>
      <trkpt lat="45.97925" lon="4.56324">
        <ele>596.8</ele>
        <time>2025-09-11T12:27:01Z</time>
      </trkpt>
      <trkpt lat="45.97928" lon="4.56323">
        <ele>596.8</ele>
        <time>2025-09-11T12:27:02Z</time>
      </trkpt>
      <trkpt lat="45.9793" lon="4.56322">
        <ele>597.2</ele>
        <time>2025-09-11T12:27:03Z</time>
      </trkpt>
      <trkpt lat="45.97933" lon="4.56321">
        <ele>597.2</ele>
        <time>2025-09-11T12:27:04Z</time>
      </trkpt>
      <trkpt lat="45.97935" lon="4.5632">
        <ele>597.2</ele>
        <time>2025-09-11T12:27:05Z</time>
      </trkpt>
      <trkpt lat="45.97938" lon="4.56319">
        <ele>597.2</ele>
        <time>2025-09-11T12:27:06Z</time>
      </trkpt>
      <trkpt lat="45.97941" lon="4.56319">
        <ele>597.6</ele>
        <time>2025-09-11T12:27:07Z</time>
      </trkpt>
      <trkpt lat="45.97943" lon="4.56318">
        <ele>597.6</ele>
        <time>2025-09-11T12:27:08Z</time>
      </trkpt>
      <trkpt lat="45.97946" lon="4.56318">
        <ele>597.6</ele>
        <time>2025-09-11T12:27:09Z</time>
      </trkpt>
      <trkpt lat="45.97948" lon="4.56317">
        <ele>597.6</ele>
        <time>2025-09-11T12:27:10Z</time>
      </trkpt>
      <trkpt lat="45.97951" lon="4.56317">
        <ele>597.8</ele>
        <time>2025-09-11T12:27:11Z</time>
      </trkpt>
      <trkpt lat="45.97953" lon="4.56316">
        <ele>597.8</ele>
        <time>2025-09-11T12:27:12Z</time>
      </trkpt>
      <trkpt lat="45.97956" lon="4.56315">
        <ele>597.8</ele>
        <time>2025-09-11T12:27:13Z</time>
      </trkpt>
      <trkpt lat="45.97958" lon="4.56314">
        <ele>597.8</ele>
        <time>2025-09-11T12:27:14Z</time>
      </trkpt>
      <trkpt lat="45.9796" lon="4.56314">
        <ele>598</ele>
        <time>2025-09-11T12:27:15Z</time>
      </trkpt>
      <trkpt lat="45.97963" lon="4.56313">
        <ele>598</ele>
        <time>2025-09-11T12:27:16Z</time>
      </trkpt>
      <trkpt lat="45.97965" lon="4.56313">
        <ele>598.2</ele>
        <time>2025-09-11T12:27:17Z</time>
      </trkpt>
      <trkpt lat="45.97968" lon="4.56312">
        <ele>598.6</ele>
        <time>2025-09-11T12:27:18Z</time>
      </trkpt>
      <trkpt lat="45.9797" lon="4.56312">
        <ele>598.6</ele>
        <time>2025-09-11T12:27:19Z</time>
      </trkpt>
      <trkpt lat="45.97973" lon="4.56311">
        <ele>599</ele>
        <time>2025-09-11T12:27:20Z</time>
      </trkpt>
      <trkpt lat="45.97975" lon="4.56311">
        <ele>599</ele>
        <time>2025-09-11T12:27:21Z</time>
      </trkpt>
      <trkpt lat="45.97977" lon="4.5631">
        <ele>599</ele>
        <time>2025-09-11T12:27:22Z</time>
      </trkpt>
      <trkpt lat="45.97979" lon="4.56309">
        <ele>599</ele>
        <time>2025-09-11T12:27:23Z</time>
      </trkpt>
      <trkpt lat="45.97981" lon="4.56308">
        <ele>599</ele>
        <time>2025-09-11T12:27:24Z</time>
      </trkpt>
      <trkpt lat="45.97984" lon="4.56308">
        <ele>599.4</ele>
        <time>2025-09-11T12:27:25Z</time>
      </trkpt>
      <trkpt lat="45.97986" lon="4.56308">
        <ele>599.4</ele>
        <time>2025-09-11T12:27:26Z</time>
      </trkpt>
      <trkpt lat="45.97989" lon="4.56307">
        <ele>599.4</ele>
        <time>2025-09-11T12:27:27Z</time>
      </trkpt>
      <trkpt lat="45.97991" lon="4.56307">
        <ele>599.4</ele>
        <time>2025-09-11T12:27:28Z</time>
      </trkpt>
      <trkpt lat="45.97993" lon="4.56306">
        <ele>599.8</ele>
        <time>2025-09-11T12:27:29Z</time>
      </trkpt>
      <trkpt lat="45.97995" lon="4.56305">
        <ele>599.8</ele>
        <time>2025-09-11T12:27:30Z</time>
      </trkpt>
      <trkpt lat="45.97997" lon="4.56304">
        <ele>599.8</ele>
        <time>2025-09-11T12:27:31Z</time>
      </trkpt>
      <trkpt lat="45.97999" lon="4.56303">
        <ele>599.8</ele>
        <time>2025-09-11T12:27:32Z</time>
      </trkpt>
      <trkpt lat="45.98002" lon="4.56303">
        <ele>599.8</ele>
        <time>2025-09-11T12:27:33Z</time>
      </trkpt>
      <trkpt lat="45.98004" lon="4.56302">
        <ele>599.8</ele>
        <time>2025-09-11T12:27:34Z</time>
      </trkpt>
      <trkpt lat="45.98006" lon="4.56301">
        <ele>599.8</ele>
        <time>2025-09-11T12:27:35Z</time>
      </trkpt>
      <trkpt lat="45.98008" lon="4.563">
        <ele>600.4</ele>
        <time>2025-09-11T12:27:36Z</time>
      </trkpt>
      <trkpt lat="45.98011" lon="4.56298">
        <ele>600.4</ele>
        <time>2025-09-11T12:27:37Z</time>
      </trkpt>
      <trkpt lat="45.98013" lon="4.56297">
        <ele>600.4</ele>
        <time>2025-09-11T12:27:38Z</time>
      </trkpt>
      <trkpt lat="45.98015" lon="4.56296">
        <ele>600.4</ele>
        <time>2025-09-11T12:27:39Z</time>
      </trkpt>
      <trkpt lat="45.98017" lon="4.56294">
        <ele>600.6</ele>
        <time>2025-09-11T12:27:40Z</time>
      </trkpt>
      <trkpt lat="45.98019" lon="4.56292">
        <ele>601</ele>
        <time>2025-09-11T12:27:41Z</time>
      </trkpt>
      <trkpt lat="45.98021" lon="4.5629">
        <ele>601</ele>
        <time>2025-09-11T12:27:42Z</time>
      </trkpt>
      <trkpt lat="45.98023" lon="4.56288">
        <ele>601.2</ele>
        <time>2025-09-11T12:27:43Z</time>
      </trkpt>
      <trkpt lat="45.98026" lon="4.56286">
        <ele>601.2</ele>
        <time>2025-09-11T12:27:44Z</time>
      </trkpt>
      <trkpt lat="45.98028" lon="4.56284">
        <ele>601.4</ele>
        <time>2025-09-11T12:27:45Z</time>
      </trkpt>
      <trkpt lat="45.9803" lon="4.56282">
        <ele>601.4</ele>
        <time>2025-09-11T12:27:46Z</time>
      </trkpt>
      <trkpt lat="45.98032" lon="4.5628">
        <ele>601.4</ele>
        <time>2025-09-11T12:27:47Z</time>
      </trkpt>
      <trkpt lat="45.98034" lon="4.56277">
        <ele>601.4</ele>
        <time>2025-09-11T12:27:48Z</time>
      </trkpt>
      <trkpt lat="45.98036" lon="4.56275">
        <ele>601.6</ele>
        <time>2025-09-11T12:27:49Z</time>
      </trkpt>
      <trkpt lat="45.98038" lon="4.56273">
        <ele>601.6</ele>
        <time>2025-09-11T12:27:50Z</time>
      </trkpt>
      <trkpt lat="45.9804" lon="4.5627">
        <ele>601.6</ele>
        <time>2025-09-11T12:27:51Z</time>
      </trkpt>
      <trkpt lat="45.98042" lon="4.56268">
        <ele>601.6</ele>
        <time>2025-09-11T12:27:52Z</time>
      </trkpt>
      <trkpt lat="45.98043" lon="4.56266">
        <ele>601.6</ele>
        <time>2025-09-11T12:27:53Z</time>
      </trkpt>
      <trkpt lat="45.98045" lon="4.56264">
        <ele>602</ele>
        <time>2025-09-11T12:27:54Z</time>
      </trkpt>
      <trkpt lat="45.98046" lon="4.56262">
        <ele>602</ele>
        <time>2025-09-11T12:27:55Z</time>
      </trkpt>
      <trkpt lat="45.98048" lon="4.5626">
        <ele>602.2</ele>
        <time>2025-09-11T12:27:56Z</time>
      </trkpt>
      <trkpt lat="45.9805" lon="4.56257">
        <ele>602.2</ele>
        <time>2025-09-11T12:27:57Z</time>
      </trkpt>
      <trkpt lat="45.98052" lon="4.56254">
        <ele>602.6</ele>
        <time>2025-09-11T12:27:58Z</time>
      </trkpt>
      <trkpt lat="45.98054" lon="4.56252">
        <ele>602.6</ele>
        <time>2025-09-11T12:27:59Z</time>
      </trkpt>
      <trkpt lat="45.98055" lon="4.5625">
        <ele>602.6</ele>
        <time>2025-09-11T12:28:00Z</time>
      </trkpt>
      <trkpt lat="45.98058" lon="4.56247">
        <ele>602.8</ele>
        <time>2025-09-11T12:28:01Z</time>
      </trkpt>
      <trkpt lat="45.98059" lon="4.56245">
        <ele>602.8</ele>
        <time>2025-09-11T12:28:02Z</time>
      </trkpt>
      <trkpt lat="45.98061" lon="4.56243">
        <ele>603</ele>
        <time>2025-09-11T12:28:03Z</time>
      </trkpt>
      <trkpt lat="45.98063" lon="4.56241">
        <ele>603</ele>
        <time>2025-09-11T12:28:04Z</time>
      </trkpt>
      <trkpt lat="45.98065" lon="4.56238">
        <ele>603</ele>
        <time>2025-09-11T12:28:05Z</time>
      </trkpt>
      <trkpt lat="45.98067" lon="4.56236">
        <ele>603</ele>
        <time>2025-09-11T12:28:06Z</time>
      </trkpt>
      <trkpt lat="45.98068" lon="4.56234">
        <ele>603</ele>
        <time>2025-09-11T12:28:07Z</time>
      </trkpt>
      <trkpt lat="45.9807" lon="4.56231">
        <ele>603.2</ele>
        <time>2025-09-11T12:28:08Z</time>
      </trkpt>
      <trkpt lat="45.98072" lon="4.56229">
        <ele>603.2</ele>
        <time>2025-09-11T12:28:09Z</time>
      </trkpt>
      <trkpt lat="45.98074" lon="4.56227">
        <ele>603.6</ele>
        <time>2025-09-11T12:28:10Z</time>
      </trkpt>
      <trkpt lat="45.98077" lon="4.56224">
        <ele>603.6</ele>
        <time>2025-09-11T12:28:11Z</time>
      </trkpt>
      <trkpt lat="45.98079" lon="4.56222">
        <ele>603.6</ele>
        <time>2025-09-11T12:28:12Z</time>
      </trkpt>
      <trkpt lat="45.98081" lon="4.5622">
        <ele>603.6</ele>
        <time>2025-09-11T12:28:13Z</time>
      </trkpt>
      <trkpt lat="45.98083" lon="4.56218">
        <ele>604</ele>
        <time>2025-09-11T12:28:14Z</time>
      </trkpt>
      <trkpt lat="45.98085" lon="4.56215">
        <ele>604</ele>
        <time>2025-09-11T12:28:15Z</time>
      </trkpt>
      <trkpt lat="45.98087" lon="4.56213">
        <ele>604</ele>
        <time>2025-09-11T12:28:16Z</time>
      </trkpt>
      <trkpt lat="45.98089" lon="4.5621">
        <ele>604.2</ele>
        <time>2025-09-11T12:28:17Z</time>
      </trkpt>
      <trkpt lat="45.98091" lon="4.56208">
        <ele>604.2</ele>
        <time>2025-09-11T12:28:18Z</time>
      </trkpt>
      <trkpt lat="45.98092" lon="4.56205">
        <ele>604.2</ele>
        <time>2025-09-11T12:28:19Z</time>
      </trkpt>
      <trkpt lat="45.98093" lon="4.56202">
        <ele>604.4</ele>
        <time>2025-09-11T12:28:20Z</time>
      </trkpt>
      <trkpt lat="45.98094" lon="4.56198">
        <ele>604.4</ele>
        <time>2025-09-11T12:28:21Z</time>
      </trkpt>
      <trkpt lat="45.98095" lon="4.56195">
        <ele>604.6</ele>
        <time>2025-09-11T12:28:22Z</time>
      </trkpt>
      <trkpt lat="45.98096" lon="4.56191">
        <ele>604.6</ele>
        <time>2025-09-11T12:28:23Z</time>
      </trkpt>
      <trkpt lat="45.98097" lon="4.56188">
        <ele>605</ele>
        <time>2025-09-11T12:28:24Z</time>
      </trkpt>
      <trkpt lat="45.98098" lon="4.56185">
        <ele>605</ele>
        <time>2025-09-11T12:28:25Z</time>
      </trkpt>
      <trkpt lat="45.98099" lon="4.56182">
        <ele>605</ele>
        <time>2025-09-11T12:28:26Z</time>
      </trkpt>
      <trkpt lat="45.981" lon="4.56179">
        <ele>605.2</ele>
        <time>2025-09-11T12:28:27Z</time>
      </trkpt>
      <trkpt lat="45.981" lon="4.56175">
        <ele>605.2</ele>
        <time>2025-09-11T12:28:28Z</time>
      </trkpt>
      <trkpt lat="45.981" lon="4.56172">
        <ele>605.6</ele>
        <time>2025-09-11T12:28:29Z</time>
      </trkpt>
      <trkpt lat="45.98101" lon="4.56168">
        <ele>605.6</ele>
        <time>2025-09-11T12:28:30Z</time>
      </trkpt>
      <trkpt lat="45.98101" lon="4.56165">
        <ele>605.6</ele>
        <time>2025-09-11T12:28:31Z</time>
      </trkpt>
      <trkpt lat="45.98101" lon="4.56161">
        <ele>605.6</ele>
        <time>2025-09-11T12:28:32Z</time>
      </trkpt>
      <trkpt lat="45.98101" lon="4.56158">
        <ele>605.6</ele>
        <time>2025-09-11T12:28:33Z</time>
      </trkpt>
      <trkpt lat="45.98101" lon="4.56154">
        <ele>605.6</ele>
        <time>2025-09-11T12:28:34Z</time>
      </trkpt>
      <trkpt lat="45.98101" lon="4.56151">
        <ele>605.6</ele>
        <time>2025-09-11T12:28:35Z</time>
      </trkpt>
      <trkpt lat="45.98101" lon="4.56147">
        <ele>605.6</ele>
        <time>2025-09-11T12:28:36Z</time>
      </trkpt>
      <trkpt lat="45.981" lon="4.56144">
        <ele>605.8</ele>
        <time>2025-09-11T12:28:37Z</time>
      </trkpt>
      <trkpt lat="45.981" lon="4.5614">
        <ele>605.8</ele>
        <time>2025-09-11T12:28:38Z</time>
      </trkpt>
      <trkpt lat="45.981" lon="4.56136">
        <ele>605.8</ele>
        <time>2025-09-11T12:28:39Z</time>
      </trkpt>
      <trkpt lat="45.98101" lon="4.56133">
        <ele>606</ele>
        <time>2025-09-11T12:28:40Z</time>
      </trkpt>
      <trkpt lat="45.98101" lon="4.5613">
        <ele>606</ele>
        <time>2025-09-11T12:28:41Z</time>
      </trkpt>
      <trkpt lat="45.98102" lon="4.56125">
        <ele>606</ele>
        <time>2025-09-11T12:28:42Z</time>
      </trkpt>
      <trkpt lat="45.98103" lon="4.56121">
        <ele>606</ele>
        <time>2025-09-11T12:28:43Z</time>
      </trkpt>
      <trkpt lat="45.98104" lon="4.56117">
        <ele>606.4</ele>
        <time>2025-09-11T12:28:44Z</time>
      </trkpt>
      <trkpt lat="45.98105" lon="4.56114">
        <ele>606.4</ele>
        <time>2025-09-11T12:28:45Z</time>
      </trkpt>
      <trkpt lat="45.98106" lon="4.56111">
        <ele>606.6</ele>
        <time>2025-09-11T12:28:46Z</time>
      </trkpt>
      <trkpt lat="45.98108" lon="4.56107">
        <ele>606.6</ele>
        <time>2025-09-11T12:28:47Z</time>
      </trkpt>
      <trkpt lat="45.98109" lon="4.56104">
        <ele>606.6</ele>
        <time>2025-09-11T12:28:48Z</time>
      </trkpt>
      <trkpt lat="45.9811" lon="4.56101">
        <ele>606.6</ele>
        <time>2025-09-11T12:28:49Z</time>
      </trkpt>
      <trkpt lat="45.98111" lon="4.56098">
        <ele>606.6</ele>
        <time>2025-09-11T12:28:50Z</time>
      </trkpt>
      <trkpt lat="45.98113" lon="4.56095">
        <ele>607</ele>
        <time>2025-09-11T12:28:51Z</time>
      </trkpt>
      <trkpt lat="45.98115" lon="4.56092">
        <ele>607</ele>
        <time>2025-09-11T12:28:52Z</time>
      </trkpt>
      <trkpt lat="45.98118" lon="4.56089">
        <ele>607.2</ele>
        <time>2025-09-11T12:28:53Z</time>
      </trkpt>
      <trkpt lat="45.98119" lon="4.56087">
        <ele>607.2</ele>
        <time>2025-09-11T12:28:54Z</time>
      </trkpt>
      <trkpt lat="45.98121" lon="4.56085">
        <ele>607.6</ele>
        <time>2025-09-11T12:28:55Z</time>
      </trkpt>
      <trkpt lat="45.98123" lon="4.56083">
        <ele>607.6</ele>
        <time>2025-09-11T12:28:56Z</time>
      </trkpt>
      <trkpt lat="45.98125" lon="4.56081">
        <ele>607.6</ele>
        <time>2025-09-11T12:28:57Z</time>
      </trkpt>
      <trkpt lat="45.98128" lon="4.56079">
        <ele>607.6</ele>
        <time>2025-09-11T12:28:58Z</time>
      </trkpt>
      <trkpt lat="45.9813" lon="4.56077">
        <ele>607.6</ele>
        <time>2025-09-11T12:28:59Z</time>
      </trkpt>
      <trkpt lat="45.98132" lon="4.56075">
        <ele>608</ele>
        <time>2025-09-11T12:29:00Z</time>
      </trkpt>
      <trkpt lat="45.98134" lon="4.56074">
        <ele>608</ele>
        <time>2025-09-11T12:29:01Z</time>
      </trkpt>
      <trkpt lat="45.98136" lon="4.56072">
        <ele>608.2</ele>
        <time>2025-09-11T12:29:02Z</time>
      </trkpt>
      <trkpt lat="45.98139" lon="4.56071">
        <ele>608.6</ele>
        <time>2025-09-11T12:29:03Z</time>
      </trkpt>
      <trkpt lat="45.98141" lon="4.56069">
        <ele>608.8</ele>
        <time>2025-09-11T12:29:04Z</time>
      </trkpt>
      <trkpt lat="45.98143" lon="4.56068">
        <ele>608.8</ele>
        <time>2025-09-11T12:29:05Z</time>
      </trkpt>
      <trkpt lat="45.98146" lon="4.56068">
        <ele>609.2</ele>
        <time>2025-09-11T12:29:06Z</time>
      </trkpt>
      <trkpt lat="45.98148" lon="4.56067">
        <ele>609.2</ele>
        <time>2025-09-11T12:29:07Z</time>
      </trkpt>
      <trkpt lat="45.98151" lon="4.56066">
        <ele>609.2</ele>
        <time>2025-09-11T12:29:08Z</time>
      </trkpt>
      <trkpt lat="45.98154" lon="4.56065">
        <ele>609.2</ele>
        <time>2025-09-11T12:29:09Z</time>
      </trkpt>
      <trkpt lat="45.98156" lon="4.56064">
        <ele>609.2</ele>
        <time>2025-09-11T12:29:10Z</time>
      </trkpt>
      <trkpt lat="45.98162" lon="4.56063">
        <ele>609.2</ele>
        <time>2025-09-11T12:29:11Z</time>
      </trkpt>
      <trkpt lat="45.98164" lon="4.56063">
        <ele>609.2</ele>
        <time>2025-09-11T12:29:12Z</time>
      </trkpt>
      <trkpt lat="45.98167" lon="4.56062">
        <ele>609.2</ele>
        <time>2025-09-11T12:29:13Z</time>
      </trkpt>
      <trkpt lat="45.98169" lon="4.56063">
        <ele>609.4</ele>
        <time>2025-09-11T12:29:14Z</time>
      </trkpt>
      <trkpt lat="45.98172" lon="4.56063">
        <ele>609.4</ele>
        <time>2025-09-11T12:29:15Z</time>
      </trkpt>
      <trkpt lat="45.98174" lon="4.56063">
        <ele>609.8</ele>
        <time>2025-09-11T12:29:16Z</time>
      </trkpt>
      <trkpt lat="45.98177" lon="4.56064">
        <ele>609.8</ele>
        <time>2025-09-11T12:29:17Z</time>
      </trkpt>
      <trkpt lat="45.98179" lon="4.56064">
        <ele>609.8</ele>
        <time>2025-09-11T12:29:18Z</time>
      </trkpt>
      <trkpt lat="45.98182" lon="4.56065">
        <ele>609.8</ele>
        <time>2025-09-11T12:29:19Z</time>
      </trkpt>
      <trkpt lat="45.98184" lon="4.56065">
        <ele>609.8</ele>
        <time>2025-09-11T12:29:20Z</time>
      </trkpt>
      <trkpt lat="45.98186" lon="4.56065">
        <ele>610</ele>
        <time>2025-09-11T12:29:21Z</time>
      </trkpt>
      <trkpt lat="45.98188" lon="4.56066">
        <ele>610</ele>
        <time>2025-09-11T12:29:22Z</time>
      </trkpt>
      <trkpt lat="45.9819" lon="4.56066">
        <ele>610</ele>
        <time>2025-09-11T12:29:23Z</time>
      </trkpt>
      <trkpt lat="45.98193" lon="4.56066">
        <ele>610</ele>
        <time>2025-09-11T12:29:24Z</time>
      </trkpt>
      <trkpt lat="45.98195" lon="4.56067">
        <ele>610.2</ele>
        <time>2025-09-11T12:29:25Z</time>
      </trkpt>
      <trkpt lat="45.98197" lon="4.56067">
        <ele>610.2</ele>
        <time>2025-09-11T12:29:26Z</time>
      </trkpt>
      <trkpt lat="45.98197" lon="4.56067">
        <ele>610.6</ele>
        <time>2025-09-11T12:29:27Z</time>
      </trkpt>
      <trkpt lat="45.98199" lon="4.56068">
        <ele>610.6</ele>
        <time>2025-09-11T12:29:28Z</time>
      </trkpt>
      <trkpt lat="45.98201" lon="4.56068">
        <ele>610.6</ele>
        <time>2025-09-11T12:29:29Z</time>
      </trkpt>
      <trkpt lat="45.98204" lon="4.56068">
        <ele>610.8</ele>
        <time>2025-09-11T12:29:30Z</time>
      </trkpt>
      <trkpt lat="45.98206" lon="4.56069">
        <ele>610.8</ele>
        <time>2025-09-11T12:29:31Z</time>
      </trkpt>
      <trkpt lat="45.98208" lon="4.5607">
        <ele>611.2</ele>
        <time>2025-09-11T12:29:32Z</time>
      </trkpt>
      <trkpt lat="45.98211" lon="4.5607">
        <ele>611.2</ele>
        <time>2025-09-11T12:29:33Z</time>
      </trkpt>
      <trkpt lat="45.98213" lon="4.56071">
        <ele>611.4</ele>
        <time>2025-09-11T12:29:34Z</time>
      </trkpt>
      <trkpt lat="45.98215" lon="4.56071">
        <ele>611.4</ele>
        <time>2025-09-11T12:29:35Z</time>
      </trkpt>
      <trkpt lat="45.98218" lon="4.56071">
        <ele>611.4</ele>
        <time>2025-09-11T12:29:36Z</time>
      </trkpt>
      <trkpt lat="45.9822" lon="4.56072">
        <ele>611.6</ele>
        <time>2025-09-11T12:29:37Z</time>
      </trkpt>
      <trkpt lat="45.98222" lon="4.56072">
        <ele>611.6</ele>
        <time>2025-09-11T12:29:38Z</time>
      </trkpt>
      <trkpt lat="45.98225" lon="4.56073">
        <ele>611.6</ele>
        <time>2025-09-11T12:29:39Z</time>
      </trkpt>
      <trkpt lat="45.98227" lon="4.56073">
        <ele>611.8</ele>
        <time>2025-09-11T12:29:40Z</time>
      </trkpt>
      <trkpt lat="45.9823" lon="4.56074">
        <ele>611.8</ele>
        <time>2025-09-11T12:29:41Z</time>
      </trkpt>
      <trkpt lat="45.98232" lon="4.56074">
        <ele>612.2</ele>
        <time>2025-09-11T12:29:42Z</time>
      </trkpt>
      <trkpt lat="45.98235" lon="4.56076">
        <ele>612.2</ele>
        <time>2025-09-11T12:29:43Z</time>
      </trkpt>
      <trkpt lat="45.98237" lon="4.56076">
        <ele>612.4</ele>
        <time>2025-09-11T12:29:44Z</time>
      </trkpt>
      <trkpt lat="45.98239" lon="4.56077">
        <ele>612.4</ele>
        <time>2025-09-11T12:29:45Z</time>
      </trkpt>
      <trkpt lat="45.98242" lon="4.56078">
        <ele>612.6</ele>
        <time>2025-09-11T12:29:46Z</time>
      </trkpt>
      <trkpt lat="45.98245" lon="4.56078">
        <ele>612.6</ele>
        <time>2025-09-11T12:29:47Z</time>
      </trkpt>
      <trkpt lat="45.98248" lon="4.56079">
        <ele>612.8</ele>
        <time>2025-09-11T12:29:48Z</time>
      </trkpt>
      <trkpt lat="45.9825" lon="4.56079">
        <ele>613.2</ele>
        <time>2025-09-11T12:29:49Z</time>
      </trkpt>
      <trkpt lat="45.98253" lon="4.5608">
        <ele>612.6</ele>
        <time>2025-09-11T12:29:50Z</time>
      </trkpt>
      <trkpt lat="45.98255" lon="4.56082">
        <ele>612.6</ele>
        <time>2025-09-11T12:29:51Z</time>
      </trkpt>
      <trkpt lat="45.98258" lon="4.56083">
        <ele>613</ele>
        <time>2025-09-11T12:29:52Z</time>
      </trkpt>
      <trkpt lat="45.9826" lon="4.56084">
        <ele>613</ele>
        <time>2025-09-11T12:29:53Z</time>
      </trkpt>
      <trkpt lat="45.98263" lon="4.56085">
        <ele>613.2</ele>
        <time>2025-09-11T12:29:54Z</time>
      </trkpt>
      <trkpt lat="45.98265" lon="4.56087">
        <ele>613.2</ele>
        <time>2025-09-11T12:29:55Z</time>
      </trkpt>
      <trkpt lat="45.98267" lon="4.56088">
        <ele>613.4</ele>
        <time>2025-09-11T12:29:56Z</time>
      </trkpt>
      <trkpt lat="45.9827" lon="4.5609">
        <ele>613.4</ele>
        <time>2025-09-11T12:29:57Z</time>
      </trkpt>
      <trkpt lat="45.98272" lon="4.56091">
        <ele>613.4</ele>
        <time>2025-09-11T12:29:58Z</time>
      </trkpt>
      <trkpt lat="45.98274" lon="4.56093">
        <ele>613.4</ele>
        <time>2025-09-11T12:29:59Z</time>
      </trkpt>
      <trkpt lat="45.98277" lon="4.56095">
        <ele>613.4</ele>
        <time>2025-09-11T12:30:00Z</time>
      </trkpt>
      <trkpt lat="45.98279" lon="4.56097">
        <ele>612.8</ele>
        <time>2025-09-11T12:30:01Z</time>
      </trkpt>
      <trkpt lat="45.98281" lon="4.56099">
        <ele>613.4</ele>
        <time>2025-09-11T12:30:02Z</time>
      </trkpt>
      <trkpt lat="45.98283" lon="4.561">
        <ele>613.8</ele>
        <time>2025-09-11T12:30:03Z</time>
      </trkpt>
      <trkpt lat="45.98286" lon="4.56102">
        <ele>613</ele>
        <time>2025-09-11T12:30:04Z</time>
      </trkpt>
      <trkpt lat="45.98288" lon="4.56103">
        <ele>613.8</ele>
        <time>2025-09-11T12:30:05Z</time>
      </trkpt>
      <trkpt lat="45.9829" lon="4.56105">
        <ele>614</ele>
        <time>2025-09-11T12:30:06Z</time>
      </trkpt>
      <trkpt lat="45.98293" lon="4.56106">
        <ele>614</ele>
        <time>2025-09-11T12:30:07Z</time>
      </trkpt>
      <trkpt lat="45.98295" lon="4.56108">
        <ele>614.4</ele>
        <time>2025-09-11T12:30:08Z</time>
      </trkpt>
      <trkpt lat="45.98297" lon="4.56109">
        <ele>613.8</ele>
        <time>2025-09-11T12:30:09Z</time>
      </trkpt>
      <trkpt lat="45.98299" lon="4.56111">
        <ele>614.6</ele>
        <time>2025-09-11T12:30:10Z</time>
      </trkpt>
      <trkpt lat="45.98301" lon="4.56113">
        <ele>614.8</ele>
        <time>2025-09-11T12:30:11Z</time>
      </trkpt>
      <trkpt lat="45.98303" lon="4.56114">
        <ele>614.8</ele>
        <time>2025-09-11T12:30:12Z</time>
      </trkpt>
      <trkpt lat="45.98306" lon="4.56115">
        <ele>615</ele>
        <time>2025-09-11T12:30:13Z</time>
      </trkpt>
      <trkpt lat="45.98308" lon="4.56116">
        <ele>615</ele>
        <time>2025-09-11T12:30:14Z</time>
      </trkpt>
      <trkpt lat="45.9831" lon="4.56118">
        <ele>614.4</ele>
        <time>2025-09-11T12:30:15Z</time>
      </trkpt>
      <trkpt lat="45.98312" lon="4.56119">
        <ele>614.8</ele>
        <time>2025-09-11T12:30:16Z</time>
      </trkpt>
      <trkpt lat="45.98315" lon="4.5612">
        <ele>614.2</ele>
        <time>2025-09-11T12:30:17Z</time>
      </trkpt>
      <trkpt lat="45.98317" lon="4.5612">
        <ele>615.2</ele>
        <time>2025-09-11T12:30:18Z</time>
      </trkpt>
      <trkpt lat="45.9832" lon="4.56121">
        <ele>615.4</ele>
        <time>2025-09-11T12:30:19Z</time>
      </trkpt>
      <trkpt lat="45.98322" lon="4.56122">
        <ele>615.4</ele>
        <time>2025-09-11T12:30:20Z</time>
      </trkpt>
      <trkpt lat="45.98324" lon="4.56123">
        <ele>615.8</ele>
        <time>2025-09-11T12:30:21Z</time>
      </trkpt>
      <trkpt lat="45.98326" lon="4.56124">
        <ele>615.8</ele>
        <time>2025-09-11T12:30:22Z</time>
      </trkpt>
      <trkpt lat="45.98329" lon="4.56125">
        <ele>616</ele>
        <time>2025-09-11T12:30:23Z</time>
      </trkpt>
      <trkpt lat="45.98331" lon="4.56126">
        <ele>616</ele>
        <time>2025-09-11T12:30:24Z</time>
      </trkpt>
      <trkpt lat="45.98333" lon="4.56127">
        <ele>616</ele>
        <time>2025-09-11T12:30:25Z</time>
      </trkpt>
      <trkpt lat="45.98335" lon="4.56128">
        <ele>616.2</ele>
        <time>2025-09-11T12:30:26Z</time>
      </trkpt>
      <trkpt lat="45.98338" lon="4.56129">
        <ele>616.2</ele>
        <time>2025-09-11T12:30:27Z</time>
      </trkpt>
      <trkpt lat="45.9834" lon="4.5613">
        <ele>616.2</ele>
        <time>2025-09-11T12:30:28Z</time>
      </trkpt>
      <trkpt lat="45.98342" lon="4.56131">
        <ele>616.4</ele>
        <time>2025-09-11T12:30:29Z</time>
      </trkpt>
      <trkpt lat="45.98345" lon="4.56131">
        <ele>616.4</ele>
        <time>2025-09-11T12:30:30Z</time>
      </trkpt>
      <trkpt lat="45.98347" lon="4.56132">
        <ele>616.4</ele>
        <time>2025-09-11T12:30:31Z</time>
      </trkpt>
      <trkpt lat="45.9835" lon="4.56132">
        <ele>616.8</ele>
        <time>2025-09-11T12:30:32Z</time>
      </trkpt>
      <trkpt lat="45.98352" lon="4.56132">
        <ele>616.8</ele>
        <time>2025-09-11T12:30:33Z</time>
      </trkpt>
      <trkpt lat="45.98354" lon="4.56132">
        <ele>617</ele>
        <time>2025-09-11T12:30:34Z</time>
      </trkpt>
      <trkpt lat="45.98356" lon="4.56132">
        <ele>617</ele>
        <time>2025-09-11T12:30:35Z</time>
      </trkpt>
      <trkpt lat="45.98359" lon="4.56132">
        <ele>617.2</ele>
        <time>2025-09-11T12:30:36Z</time>
      </trkpt>
      <trkpt lat="45.98361" lon="4.56132">
        <ele>616.4</ele>
        <time>2025-09-11T12:30:37Z</time>
      </trkpt>
      <trkpt lat="45.98364" lon="4.56132">
        <ele>617</ele>
        <time>2025-09-11T12:30:38Z</time>
      </trkpt>
      <trkpt lat="45.98366" lon="4.56131">
        <ele>617.4</ele>
        <time>2025-09-11T12:30:39Z</time>
      </trkpt>
      <trkpt lat="45.98369" lon="4.56131">
        <ele>617.4</ele>
        <time>2025-09-11T12:30:40Z</time>
      </trkpt>
      <trkpt lat="45.98371" lon="4.5613">
        <ele>617.4</ele>
        <time>2025-09-11T12:30:41Z</time>
      </trkpt>
      <trkpt lat="45.98373" lon="4.56129">
        <ele>617.6</ele>
        <time>2025-09-11T12:30:42Z</time>
      </trkpt>
      <trkpt lat="45.98376" lon="4.56129">
        <ele>617.6</ele>
        <time>2025-09-11T12:30:43Z</time>
      </trkpt>
      <trkpt lat="45.98378" lon="4.56128">
        <ele>617.6</ele>
        <time>2025-09-11T12:30:44Z</time>
      </trkpt>
      <trkpt lat="45.9838" lon="4.56127">
        <ele>617.6</ele>
        <time>2025-09-11T12:30:45Z</time>
      </trkpt>
      <trkpt lat="45.98382" lon="4.56126">
        <ele>618</ele>
        <time>2025-09-11T12:30:46Z</time>
      </trkpt>
      <trkpt lat="45.98384" lon="4.56125">
        <ele>618</ele>
        <time>2025-09-11T12:30:47Z</time>
      </trkpt>
      <trkpt lat="45.98386" lon="4.56124">
        <ele>618.4</ele>
        <time>2025-09-11T12:30:48Z</time>
      </trkpt>
      <trkpt lat="45.98388" lon="4.56123">
        <ele>618.4</ele>
        <time>2025-09-11T12:30:49Z</time>
      </trkpt>
      <trkpt lat="45.98391" lon="4.56121">
        <ele>618.4</ele>
        <time>2025-09-11T12:30:50Z</time>
      </trkpt>
      <trkpt lat="45.98393" lon="4.56119">
        <ele>618.4</ele>
        <time>2025-09-11T12:30:51Z</time>
      </trkpt>
      <trkpt lat="45.98395" lon="4.56117">
        <ele>618.8</ele>
        <time>2025-09-11T12:30:52Z</time>
      </trkpt>
      <trkpt lat="45.98397" lon="4.56115">
        <ele>618.8</ele>
        <time>2025-09-11T12:30:53Z</time>
      </trkpt>
      <trkpt lat="45.984" lon="4.56113">
        <ele>619</ele>
        <time>2025-09-11T12:30:54Z</time>
      </trkpt>
      <trkpt lat="45.98402" lon="4.56112">
        <ele>618.6</ele>
        <time>2025-09-11T12:30:55Z</time>
      </trkpt>
      <trkpt lat="45.98405" lon="4.56111">
        <ele>618.6</ele>
        <time>2025-09-11T12:30:56Z</time>
      </trkpt>
      <trkpt lat="45.98407" lon="4.56109">
        <ele>618.8</ele>
        <time>2025-09-11T12:30:57Z</time>
      </trkpt>
      <trkpt lat="45.9841" lon="4.56108">
        <ele>618.8</ele>
        <time>2025-09-11T12:30:58Z</time>
      </trkpt>
      <trkpt lat="45.98413" lon="4.56107">
        <ele>619.2</ele>
        <time>2025-09-11T12:30:59Z</time>
      </trkpt>
      <trkpt lat="45.98415" lon="4.56106">
        <ele>619.2</ele>
        <time>2025-09-11T12:31:00Z</time>
      </trkpt>
      <trkpt lat="45.98418" lon="4.56105">
        <ele>619.4</ele>
        <time>2025-09-11T12:31:01Z</time>
      </trkpt>
      <trkpt lat="45.9842" lon="4.56104">
        <ele>619.4</ele>
        <time>2025-09-11T12:31:02Z</time>
      </trkpt>
      <trkpt lat="45.98423" lon="4.56103">
        <ele>619.4</ele>
        <time>2025-09-11T12:31:03Z</time>
      </trkpt>
      <trkpt lat="45.98426" lon="4.56102">
        <ele>619.6</ele>
        <time>2025-09-11T12:31:04Z</time>
      </trkpt>
      <trkpt lat="45.98429" lon="4.56101">
        <ele>619.8</ele>
        <time>2025-09-11T12:31:05Z</time>
      </trkpt>
      <trkpt lat="45.98431" lon="4.561">
        <ele>619.8</ele>
        <time>2025-09-11T12:31:06Z</time>
      </trkpt>
      <trkpt lat="45.98434" lon="4.561">
        <ele>620</ele>
        <time>2025-09-11T12:31:07Z</time>
      </trkpt>
      <trkpt lat="45.98437" lon="4.561">
        <ele>620</ele>
        <time>2025-09-11T12:31:08Z</time>
      </trkpt>
      <trkpt lat="45.98439" lon="4.561">
        <ele>620</ele>
        <time>2025-09-11T12:31:09Z</time>
      </trkpt>
      <trkpt lat="45.98442" lon="4.56101">
        <ele>620</ele>
        <time>2025-09-11T12:31:10Z</time>
      </trkpt>
      <trkpt lat="45.98444" lon="4.56101">
        <ele>620</ele>
        <time>2025-09-11T12:31:11Z</time>
      </trkpt>
      <trkpt lat="45.98447" lon="4.56102">
        <ele>620</ele>
        <time>2025-09-11T12:31:12Z</time>
      </trkpt>
      <trkpt lat="45.98449" lon="4.56103">
        <ele>620.4</ele>
        <time>2025-09-11T12:31:13Z</time>
      </trkpt>
      <trkpt lat="45.98451" lon="4.56104">
        <ele>620.6</ele>
        <time>2025-09-11T12:31:14Z</time>
      </trkpt>
      <trkpt lat="45.98454" lon="4.56105">
        <ele>620.6</ele>
        <time>2025-09-11T12:31:15Z</time>
      </trkpt>
      <trkpt lat="45.98456" lon="4.56106">
        <ele>620.8</ele>
        <time>2025-09-11T12:31:16Z</time>
      </trkpt>
      <trkpt lat="45.98459" lon="4.56107">
        <ele>620.8</ele>
        <time>2025-09-11T12:31:17Z</time>
      </trkpt>
      <trkpt lat="45.98461" lon="4.56108">
        <ele>620.8</ele>
        <time>2025-09-11T12:31:18Z</time>
      </trkpt>
      <trkpt lat="45.98463" lon="4.56109">
        <ele>620.8</ele>
        <time>2025-09-11T12:31:19Z</time>
      </trkpt>
      <trkpt lat="45.98466" lon="4.5611">
        <ele>620.8</ele>
        <time>2025-09-11T12:31:20Z</time>
      </trkpt>
      <trkpt lat="45.98468" lon="4.56112">
        <ele>620.8</ele>
        <time>2025-09-11T12:31:21Z</time>
      </trkpt>
      <trkpt lat="45.98471" lon="4.56113">
        <ele>621</ele>
        <time>2025-09-11T12:31:22Z</time>
      </trkpt>
      <trkpt lat="45.98473" lon="4.56115">
        <ele>621</ele>
        <time>2025-09-11T12:31:23Z</time>
      </trkpt>
      <trkpt lat="45.98475" lon="4.56116">
        <ele>621</ele>
        <time>2025-09-11T12:31:24Z</time>
      </trkpt>
      <trkpt lat="45.98478" lon="4.56117">
        <ele>621.4</ele>
        <time>2025-09-11T12:31:25Z</time>
      </trkpt>
      <trkpt lat="45.9848" lon="4.56118">
        <ele>621.4</ele>
        <time>2025-09-11T12:31:26Z</time>
      </trkpt>
      <trkpt lat="45.98483" lon="4.56119">
        <ele>621.4</ele>
        <time>2025-09-11T12:31:27Z</time>
      </trkpt>
      <trkpt lat="45.98485" lon="4.5612">
        <ele>621.4</ele>
        <time>2025-09-11T12:31:28Z</time>
      </trkpt>
      <trkpt lat="45.98487" lon="4.56121">
        <ele>621.6</ele>
        <time>2025-09-11T12:31:29Z</time>
      </trkpt>
      <trkpt lat="45.98489" lon="4.56123">
        <ele>621.6</ele>
        <time>2025-09-11T12:31:30Z</time>
      </trkpt>
      <trkpt lat="45.9849" lon="4.56125">
        <ele>622</ele>
        <time>2025-09-11T12:31:31Z</time>
      </trkpt>
      <trkpt lat="45.98492" lon="4.56127">
        <ele>622</ele>
        <time>2025-09-11T12:31:32Z</time>
      </trkpt>
      <trkpt lat="45.98494" lon="4.5613">
        <ele>622</ele>
        <time>2025-09-11T12:31:33Z</time>
      </trkpt>
      <trkpt lat="45.98497" lon="4.56132">
        <ele>622</ele>
        <time>2025-09-11T12:31:34Z</time>
      </trkpt>
      <trkpt lat="45.98499" lon="4.56135">
        <ele>622.4</ele>
        <time>2025-09-11T12:31:35Z</time>
      </trkpt>
      <trkpt lat="45.98501" lon="4.56137">
        <ele>622.4</ele>
        <time>2025-09-11T12:31:36Z</time>
      </trkpt>
      <trkpt lat="45.98503" lon="4.56139">
        <ele>622.4</ele>
        <time>2025-09-11T12:31:37Z</time>
      </trkpt>
      <trkpt lat="45.98505" lon="4.5614">
        <ele>622.6</ele>
        <time>2025-09-11T12:31:38Z</time>
      </trkpt>
      <trkpt lat="45.98507" lon="4.56142">
        <ele>622.6</ele>
        <time>2025-09-11T12:31:39Z</time>
      </trkpt>
      <trkpt lat="45.98508" lon="4.56144">
        <ele>623</ele>
        <time>2025-09-11T12:31:40Z</time>
      </trkpt>
      <trkpt lat="45.9851" lon="4.56146">
        <ele>623</ele>
        <time>2025-09-11T12:31:41Z</time>
      </trkpt>
      <trkpt lat="45.98511" lon="4.56147">
        <ele>623</ele>
        <time>2025-09-11T12:31:42Z</time>
      </trkpt>
      <trkpt lat="45.98513" lon="4.5615">
        <ele>623</ele>
        <time>2025-09-11T12:31:43Z</time>
      </trkpt>
      <trkpt lat="45.98515" lon="4.56154">
        <ele>623.4</ele>
        <time>2025-09-11T12:31:44Z</time>
      </trkpt>
      <trkpt lat="45.98517" lon="4.56156">
        <ele>623.4</ele>
        <time>2025-09-11T12:31:45Z</time>
      </trkpt>
      <trkpt lat="45.98519" lon="4.56159">
        <ele>623.6</ele>
        <time>2025-09-11T12:31:46Z</time>
      </trkpt>
      <trkpt lat="45.98521" lon="4.56161">
        <ele>623.6</ele>
        <time>2025-09-11T12:31:47Z</time>
      </trkpt>
      <trkpt lat="45.98523" lon="4.56164">
        <ele>623.8</ele>
        <time>2025-09-11T12:31:48Z</time>
      </trkpt>
      <trkpt lat="45.98525" lon="4.56167">
        <ele>623.8</ele>
        <time>2025-09-11T12:31:49Z</time>
      </trkpt>
      <trkpt lat="45.98528" lon="4.56169">
        <ele>623.8</ele>
        <time>2025-09-11T12:31:50Z</time>
      </trkpt>
      <trkpt lat="45.9853" lon="4.5617">
        <ele>624</ele>
        <time>2025-09-11T12:31:51Z</time>
      </trkpt>
      <trkpt lat="45.98533" lon="4.56172">
        <ele>624</ele>
        <time>2025-09-11T12:31:52Z</time>
      </trkpt>
      <trkpt lat="45.98535" lon="4.56174">
        <ele>624</ele>
        <time>2025-09-11T12:31:53Z</time>
      </trkpt>
      <trkpt lat="45.98538" lon="4.56175">
        <ele>624.4</ele>
        <time>2025-09-11T12:31:54Z</time>
      </trkpt>
      <trkpt lat="45.98541" lon="4.56175">
        <ele>624.4</ele>
        <time>2025-09-11T12:31:55Z</time>
      </trkpt>
      <trkpt lat="45.98543" lon="4.56175">
        <ele>624.6</ele>
        <time>2025-09-11T12:31:56Z</time>
      </trkpt>
      <trkpt lat="45.98546" lon="4.56175">
        <ele>624.6</ele>
        <time>2025-09-11T12:31:57Z</time>
      </trkpt>
      <trkpt lat="45.98549" lon="4.56173">
        <ele>624.6</ele>
        <time>2025-09-11T12:31:58Z</time>
      </trkpt>
      <trkpt lat="45.98551" lon="4.56171">
        <ele>624.8</ele>
        <time>2025-09-11T12:31:59Z</time>
      </trkpt>
      <trkpt lat="45.98553" lon="4.5617">
        <ele>624.8</ele>
        <time>2025-09-11T12:32:00Z</time>
      </trkpt>
      <trkpt lat="45.98555" lon="4.56168">
        <ele>625.2</ele>
        <time>2025-09-11T12:32:01Z</time>
      </trkpt>
      <trkpt lat="45.98557" lon="4.56167">
        <ele>625.2</ele>
        <time>2025-09-11T12:32:02Z</time>
      </trkpt>
      <trkpt lat="45.98559" lon="4.56164">
        <ele>625.2</ele>
        <time>2025-09-11T12:32:03Z</time>
      </trkpt>
      <trkpt lat="45.9856" lon="4.56162">
        <ele>625.4</ele>
        <time>2025-09-11T12:32:04Z</time>
      </trkpt>
      <trkpt lat="45.98561" lon="4.56159">
        <ele>625.4</ele>
        <time>2025-09-11T12:32:05Z</time>
      </trkpt>
      <trkpt lat="45.98563" lon="4.56157">
        <ele>625.4</ele>
        <time>2025-09-11T12:32:06Z</time>
      </trkpt>
      <trkpt lat="45.98564" lon="4.56154">
        <ele>625.6</ele>
        <time>2025-09-11T12:32:07Z</time>
      </trkpt>
      <trkpt lat="45.98566" lon="4.56151">
        <ele>625.6</ele>
        <time>2025-09-11T12:32:08Z</time>
      </trkpt>
      <trkpt lat="45.98567" lon="4.56148">
        <ele>625.6</ele>
        <time>2025-09-11T12:32:09Z</time>
      </trkpt>
      <trkpt lat="45.98568" lon="4.56144">
        <ele>625.6</ele>
        <time>2025-09-11T12:32:10Z</time>
      </trkpt>
      <trkpt lat="45.9857" lon="4.5614">
        <ele>625.6</ele>
        <time>2025-09-11T12:32:11Z</time>
      </trkpt>
      <trkpt lat="45.98572" lon="4.56137">
        <ele>626.2</ele>
        <time>2025-09-11T12:32:12Z</time>
      </trkpt>
      <trkpt lat="45.98573" lon="4.56134">
        <ele>626.2</ele>
        <time>2025-09-11T12:32:13Z</time>
      </trkpt>
      <trkpt lat="45.98574" lon="4.5613">
        <ele>626.4</ele>
        <time>2025-09-11T12:32:14Z</time>
      </trkpt>
      <trkpt lat="45.98575" lon="4.56127">
        <ele>626.4</ele>
        <time>2025-09-11T12:32:15Z</time>
      </trkpt>
      <trkpt lat="45.98575" lon="4.56125">
        <ele>626.4</ele>
        <time>2025-09-11T12:32:16Z</time>
      </trkpt>
      <trkpt lat="45.98576" lon="4.56122">
        <ele>626.4</ele>
        <time>2025-09-11T12:32:17Z</time>
      </trkpt>
      <trkpt lat="45.98578" lon="4.56118">
        <ele>626.4</ele>
        <time>2025-09-11T12:32:18Z</time>
      </trkpt>
      <trkpt lat="45.98579" lon="4.56114">
        <ele>626.8</ele>
        <time>2025-09-11T12:32:19Z</time>
      </trkpt>
      <trkpt lat="45.9858" lon="4.5611">
        <ele>626.8</ele>
        <time>2025-09-11T12:32:20Z</time>
      </trkpt>
      <trkpt lat="45.98581" lon="4.56107">
        <ele>626.8</ele>
        <time>2025-09-11T12:32:21Z</time>
      </trkpt>
      <trkpt lat="45.98582" lon="4.56103">
        <ele>626.8</ele>
        <time>2025-09-11T12:32:22Z</time>
      </trkpt>
      <trkpt lat="45.98583" lon="4.561">
        <ele>627</ele>
        <time>2025-09-11T12:32:23Z</time>
      </trkpt>
      <trkpt lat="45.98584" lon="4.56097">
        <ele>627</ele>
        <time>2025-09-11T12:32:24Z</time>
      </trkpt>
      <trkpt lat="45.98584" lon="4.56093">
        <ele>627</ele>
        <time>2025-09-11T12:32:25Z</time>
      </trkpt>
      <trkpt lat="45.98585" lon="4.5609">
        <ele>627</ele>
        <time>2025-09-11T12:32:26Z</time>
      </trkpt>
      <trkpt lat="45.98585" lon="4.56087">
        <ele>627</ele>
        <time>2025-09-11T12:32:27Z</time>
      </trkpt>
      <trkpt lat="45.98586" lon="4.56083">
        <ele>627.4</ele>
        <time>2025-09-11T12:32:28Z</time>
      </trkpt>
      <trkpt lat="45.98588" lon="4.56079">
        <ele>627.4</ele>
        <time>2025-09-11T12:32:29Z</time>
      </trkpt>
      <trkpt lat="45.98589" lon="4.56076">
        <ele>627.4</ele>
        <time>2025-09-11T12:32:30Z</time>
      </trkpt>
      <trkpt lat="45.98591" lon="4.56072">
        <ele>627.4</ele>
        <time>2025-09-11T12:32:31Z</time>
      </trkpt>
      <trkpt lat="45.98593" lon="4.56069">
        <ele>627.4</ele>
        <time>2025-09-11T12:32:32Z</time>
      </trkpt>
      <trkpt lat="45.98595" lon="4.56066">
        <ele>627.6</ele>
        <time>2025-09-11T12:32:33Z</time>
      </trkpt>
      <trkpt lat="45.98597" lon="4.56062">
        <ele>627.6</ele>
        <time>2025-09-11T12:32:34Z</time>
      </trkpt>
      <trkpt lat="45.98598" lon="4.56059">
        <ele>627.6</ele>
        <time>2025-09-11T12:32:35Z</time>
      </trkpt>
      <trkpt lat="45.986" lon="4.56056">
        <ele>627.8</ele>
        <time>2025-09-11T12:32:36Z</time>
      </trkpt>
      <trkpt lat="45.98601" lon="4.56053">
        <ele>627.8</ele>
        <time>2025-09-11T12:32:37Z</time>
      </trkpt>
      <trkpt lat="45.98602" lon="4.56051">
        <ele>627.8</ele>
        <time>2025-09-11T12:32:38Z</time>
      </trkpt>
      <trkpt lat="45.98604" lon="4.56048">
        <ele>627.8</ele>
        <time>2025-09-11T12:32:39Z</time>
      </trkpt>
      <trkpt lat="45.98606" lon="4.56045">
        <ele>627.8</ele>
        <time>2025-09-11T12:32:40Z</time>
      </trkpt>
      <trkpt lat="45.98607" lon="4.56042">
        <ele>627.8</ele>
        <time>2025-09-11T12:32:41Z</time>
      </trkpt>
      <trkpt lat="45.98609" lon="4.5604">
        <ele>628</ele>
        <time>2025-09-11T12:32:42Z</time>
      </trkpt>
      <trkpt lat="45.98611" lon="4.56038">
        <ele>628</ele>
        <time>2025-09-11T12:32:43Z</time>
      </trkpt>
      <trkpt lat="45.98613" lon="4.56035">
        <ele>628.4</ele>
        <time>2025-09-11T12:32:44Z</time>
      </trkpt>
      <trkpt lat="45.98615" lon="4.56033">
        <ele>628.8</ele>
        <time>2025-09-11T12:32:45Z</time>
      </trkpt>
      <trkpt lat="45.98617" lon="4.5603">
        <ele>628.8</ele>
        <time>2025-09-11T12:32:46Z</time>
      </trkpt>
      <trkpt lat="45.98619" lon="4.56027">
        <ele>628.8</ele>
        <time>2025-09-11T12:32:47Z</time>
      </trkpt>
      <trkpt lat="45.98621" lon="4.56025">
        <ele>629</ele>
        <time>2025-09-11T12:32:48Z</time>
      </trkpt>
      <trkpt lat="45.98623" lon="4.56022">
        <ele>629.2</ele>
        <time>2025-09-11T12:32:49Z</time>
      </trkpt>
      <trkpt lat="45.98626" lon="4.56019">
        <ele>629.2</ele>
        <time>2025-09-11T12:32:50Z</time>
      </trkpt>
      <trkpt lat="45.98628" lon="4.56017">
        <ele>629.2</ele>
        <time>2025-09-11T12:32:51Z</time>
      </trkpt>
      <trkpt lat="45.9863" lon="4.56014">
        <ele>629.2</ele>
        <time>2025-09-11T12:32:52Z</time>
      </trkpt>
      <trkpt lat="45.98632" lon="4.56011">
        <ele>629.4</ele>
        <time>2025-09-11T12:32:53Z</time>
      </trkpt>
      <trkpt lat="45.98635" lon="4.56009">
        <ele>629.4</ele>
        <time>2025-09-11T12:32:54Z</time>
      </trkpt>
      <trkpt lat="45.98637" lon="4.56007">
        <ele>629.4</ele>
        <time>2025-09-11T12:32:55Z</time>
      </trkpt>
      <trkpt lat="45.9864" lon="4.56006">
        <ele>629.6</ele>
        <time>2025-09-11T12:32:56Z</time>
      </trkpt>
      <trkpt lat="45.98643" lon="4.56005">
        <ele>629.6</ele>
        <time>2025-09-11T12:32:57Z</time>
      </trkpt>
      <trkpt lat="45.98645" lon="4.56004">
        <ele>629.6</ele>
        <time>2025-09-11T12:32:58Z</time>
      </trkpt>
      <trkpt lat="45.98648" lon="4.56003">
        <ele>630</ele>
        <time>2025-09-11T12:32:59Z</time>
      </trkpt>
      <trkpt lat="45.98651" lon="4.56002">
        <ele>630</ele>
        <time>2025-09-11T12:33:00Z</time>
      </trkpt>
      <trkpt lat="45.98654" lon="4.56001">
        <ele>630</ele>
        <time>2025-09-11T12:33:01Z</time>
      </trkpt>
      <trkpt lat="45.98656" lon="4.56001">
        <ele>630.4</ele>
        <time>2025-09-11T12:33:02Z</time>
      </trkpt>
      <trkpt lat="45.98659" lon="4.56">
        <ele>630.4</ele>
        <time>2025-09-11T12:33:03Z</time>
      </trkpt>
      <trkpt lat="45.98662" lon="4.56">
        <ele>630.6</ele>
        <time>2025-09-11T12:33:04Z</time>
      </trkpt>
      <trkpt lat="45.98664" lon="4.56">
        <ele>630.6</ele>
        <time>2025-09-11T12:33:05Z</time>
      </trkpt>
      <trkpt lat="45.98667" lon="4.56">
        <ele>631</ele>
        <time>2025-09-11T12:33:06Z</time>
      </trkpt>
      <trkpt lat="45.98669" lon="4.56">
        <ele>631</ele>
        <time>2025-09-11T12:33:07Z</time>
      </trkpt>
      <trkpt lat="45.98672" lon="4.56">
        <ele>631.2</ele>
        <time>2025-09-11T12:33:08Z</time>
      </trkpt>
      <trkpt lat="45.98674" lon="4.56">
        <ele>631.2</ele>
        <time>2025-09-11T12:33:09Z</time>
      </trkpt>
      <trkpt lat="45.98677" lon="4.56">
        <ele>631.4</ele>
        <time>2025-09-11T12:33:10Z</time>
      </trkpt>
      <trkpt lat="45.9868" lon="4.56001">
        <ele>631.4</ele>
        <time>2025-09-11T12:33:11Z</time>
      </trkpt>
      <trkpt lat="45.98682" lon="4.56002">
        <ele>631.4</ele>
        <time>2025-09-11T12:33:12Z</time>
      </trkpt>
      <trkpt lat="45.98685" lon="4.56002">
        <ele>631.8</ele>
        <time>2025-09-11T12:33:13Z</time>
      </trkpt>
      <trkpt lat="45.98687" lon="4.56003">
        <ele>631.8</ele>
        <time>2025-09-11T12:33:14Z</time>
      </trkpt>
      <trkpt lat="45.98689" lon="4.56004">
        <ele>632</ele>
        <time>2025-09-11T12:33:15Z</time>
      </trkpt>
      <trkpt lat="45.98692" lon="4.56005">
        <ele>632</ele>
        <time>2025-09-11T12:33:16Z</time>
      </trkpt>
      <trkpt lat="45.98695" lon="4.56007">
        <ele>632</ele>
        <time>2025-09-11T12:33:17Z</time>
      </trkpt>
      <trkpt lat="45.98697" lon="4.56008">
        <ele>632.2</ele>
        <time>2025-09-11T12:33:18Z</time>
      </trkpt>
      <trkpt lat="45.98699" lon="4.5601">
        <ele>632.2</ele>
        <time>2025-09-11T12:33:19Z</time>
      </trkpt>
      <trkpt lat="45.98701" lon="4.56012">
        <ele>632.2</ele>
        <time>2025-09-11T12:33:20Z</time>
      </trkpt>
      <trkpt lat="45.98704" lon="4.56014">
        <ele>632.4</ele>
        <time>2025-09-11T12:33:21Z</time>
      </trkpt>
      <trkpt lat="45.98706" lon="4.56016">
        <ele>632.4</ele>
        <time>2025-09-11T12:33:22Z</time>
      </trkpt>
      <trkpt lat="45.98708" lon="4.56018">
        <ele>632.6</ele>
        <time>2025-09-11T12:33:23Z</time>
      </trkpt>
      <trkpt lat="45.9871" lon="4.5602">
        <ele>632.6</ele>
        <time>2025-09-11T12:33:24Z</time>
      </trkpt>
      <trkpt lat="45.98712" lon="4.56022">
        <ele>632.6</ele>
        <time>2025-09-11T12:33:25Z</time>
      </trkpt>
      <trkpt lat="45.98714" lon="4.56025">
        <ele>632.6</ele>
        <time>2025-09-11T12:33:26Z</time>
      </trkpt>
      <trkpt lat="45.98716" lon="4.56027">
        <ele>632.6</ele>
        <time>2025-09-11T12:33:27Z</time>
      </trkpt>
      <trkpt lat="45.98718" lon="4.56029">
        <ele>632.6</ele>
        <time>2025-09-11T12:33:28Z</time>
      </trkpt>
      <trkpt lat="45.9872" lon="4.56032">
        <ele>632.8</ele>
        <time>2025-09-11T12:33:29Z</time>
      </trkpt>
      <trkpt lat="45.98722" lon="4.56034">
        <ele>632.8</ele>
        <time>2025-09-11T12:33:30Z</time>
      </trkpt>
      <trkpt lat="45.98724" lon="4.56036">
        <ele>632.8</ele>
        <time>2025-09-11T12:33:31Z</time>
      </trkpt>
      <trkpt lat="45.98726" lon="4.56038">
        <ele>632.8</ele>
        <time>2025-09-11T12:33:32Z</time>
      </trkpt>
      <trkpt lat="45.98728" lon="4.5604">
        <ele>633.2</ele>
        <time>2025-09-11T12:33:33Z</time>
      </trkpt>
      <trkpt lat="45.98729" lon="4.56042">
        <ele>633.2</ele>
        <time>2025-09-11T12:33:34Z</time>
      </trkpt>
      <trkpt lat="45.98731" lon="4.56044">
        <ele>633.4</ele>
        <time>2025-09-11T12:33:35Z</time>
      </trkpt>
      <trkpt lat="45.98733" lon="4.56046">
        <ele>633.6</ele>
        <time>2025-09-11T12:33:36Z</time>
      </trkpt>
      <trkpt lat="45.98735" lon="4.56049">
        <ele>633.6</ele>
        <time>2025-09-11T12:33:37Z</time>
      </trkpt>
      <trkpt lat="45.98737" lon="4.56052">
        <ele>634</ele>
        <time>2025-09-11T12:33:38Z</time>
      </trkpt>
      <trkpt lat="45.98737" lon="4.56052">
        <ele>634</ele>
        <time>2025-09-11T12:33:39Z</time>
      </trkpt>
      <trkpt lat="45.98737" lon="4.56052">
        <ele>634</ele>
        <time>2025-09-11T12:33:40Z</time>
      </trkpt>
      <trkpt lat="45.98744" lon="4.5606">
        <ele>634</ele>
        <time>2025-09-11T12:33:42Z</time>
      </trkpt>
      <trkpt lat="45.98746" lon="4.56063">
        <ele>634</ele>
        <time>2025-09-11T12:33:43Z</time>
      </trkpt>
      <trkpt lat="45.98748" lon="4.56066">
        <ele>634</ele>
        <time>2025-09-11T12:33:44Z</time>
      </trkpt>
      <trkpt lat="45.98749" lon="4.56068">
        <ele>634</ele>
        <time>2025-09-11T12:33:45Z</time>
      </trkpt>
      <trkpt lat="45.98751" lon="4.5607">
        <ele>633.2</ele>
        <time>2025-09-11T12:33:46Z</time>
      </trkpt>
      <trkpt lat="45.98753" lon="4.56072">
        <ele>634</ele>
        <time>2025-09-11T12:33:47Z</time>
      </trkpt>
      <trkpt lat="45.98755" lon="4.56074">
        <ele>634.2</ele>
        <time>2025-09-11T12:33:48Z</time>
      </trkpt>
      <trkpt lat="45.98757" lon="4.56076">
        <ele>634.2</ele>
        <time>2025-09-11T12:33:49Z</time>
      </trkpt>
      <trkpt lat="45.98759" lon="4.56078">
        <ele>634.6</ele>
        <time>2025-09-11T12:33:50Z</time>
      </trkpt>
      <trkpt lat="45.98761" lon="4.5608">
        <ele>634.6</ele>
        <time>2025-09-11T12:33:51Z</time>
      </trkpt>
      <trkpt lat="45.98763" lon="4.56083">
        <ele>634.8</ele>
        <time>2025-09-11T12:33:52Z</time>
      </trkpt>
      <trkpt lat="45.98764" lon="4.56085">
        <ele>634.8</ele>
        <time>2025-09-11T12:33:53Z</time>
      </trkpt>
      <trkpt lat="45.98766" lon="4.56088">
        <ele>634.8</ele>
        <time>2025-09-11T12:33:54Z</time>
      </trkpt>
      <trkpt lat="45.98768" lon="4.5609">
        <ele>635</ele>
        <time>2025-09-11T12:33:55Z</time>
      </trkpt>
      <trkpt lat="45.9877" lon="4.56092">
        <ele>635</ele>
        <time>2025-09-11T12:33:56Z</time>
      </trkpt>
      <trkpt lat="45.98771" lon="4.56094">
        <ele>635</ele>
        <time>2025-09-11T12:33:57Z</time>
      </trkpt>
      <trkpt lat="45.98774" lon="4.56096">
        <ele>635.4</ele>
        <time>2025-09-11T12:33:58Z</time>
      </trkpt>
      <trkpt lat="45.98774" lon="4.56096">
        <ele>635.4</ele>
        <time>2025-09-11T12:33:59Z</time>
      </trkpt>
      <trkpt lat="45.98779" lon="4.56101">
        <ele>635.4</ele>
        <time>2025-09-11T12:34:00Z</time>
      </trkpt>
      <trkpt lat="45.9878" lon="4.56103">
        <ele>635.4</ele>
        <time>2025-09-11T12:34:01Z</time>
      </trkpt>
      <trkpt lat="45.98782" lon="4.56105">
        <ele>635.4</ele>
        <time>2025-09-11T12:34:02Z</time>
      </trkpt>
      <trkpt lat="45.98785" lon="4.56109">
        <ele>635.4</ele>
        <time>2025-09-11T12:34:03Z</time>
      </trkpt>
      <trkpt lat="45.98786" lon="4.56111">
        <ele>635.6</ele>
        <time>2025-09-11T12:34:04Z</time>
      </trkpt>
      <trkpt lat="45.98788" lon="4.56113">
        <ele>635.6</ele>
        <time>2025-09-11T12:34:05Z</time>
      </trkpt>
      <trkpt lat="45.98789" lon="4.56115">
        <ele>635.6</ele>
        <time>2025-09-11T12:34:06Z</time>
      </trkpt>
      <trkpt lat="45.9879" lon="4.56116">
        <ele>635.8</ele>
        <time>2025-09-11T12:34:07Z</time>
      </trkpt>
      <trkpt lat="45.98792" lon="4.56118">
        <ele>635.8</ele>
        <time>2025-09-11T12:34:08Z</time>
      </trkpt>
      <trkpt lat="45.98794" lon="4.56121">
        <ele>635.8</ele>
        <time>2025-09-11T12:34:09Z</time>
      </trkpt>
      <trkpt lat="45.98797" lon="4.56123">
        <ele>636.2</ele>
        <time>2025-09-11T12:34:10Z</time>
      </trkpt>
      <trkpt lat="45.98799" lon="4.56126">
        <ele>636.2</ele>
        <time>2025-09-11T12:34:11Z</time>
      </trkpt>
      <trkpt lat="45.98801" lon="4.56128">
        <ele>636.4</ele>
        <time>2025-09-11T12:34:12Z</time>
      </trkpt>
      <trkpt lat="45.98803" lon="4.5613">
        <ele>636.4</ele>
        <time>2025-09-11T12:34:13Z</time>
      </trkpt>
      <trkpt lat="45.98806" lon="4.56132">
        <ele>636.6</ele>
        <time>2025-09-11T12:34:14Z</time>
      </trkpt>
      <trkpt lat="45.98808" lon="4.56135">
        <ele>636.6</ele>
        <time>2025-09-11T12:34:15Z</time>
      </trkpt>
      <trkpt lat="45.98811" lon="4.56138">
        <ele>636.6</ele>
        <time>2025-09-11T12:34:16Z</time>
      </trkpt>
      <trkpt lat="45.98812" lon="4.5614">
        <ele>636.6</ele>
        <time>2025-09-11T12:34:17Z</time>
      </trkpt>
      <trkpt lat="45.98814" lon="4.56142">
        <ele>637</ele>
        <time>2025-09-11T12:34:18Z</time>
      </trkpt>
      <trkpt lat="45.98816" lon="4.56144">
        <ele>637</ele>
        <time>2025-09-11T12:34:19Z</time>
      </trkpt>
      <trkpt lat="45.98818" lon="4.56146">
        <ele>637.2</ele>
        <time>2025-09-11T12:34:20Z</time>
      </trkpt>
      <trkpt lat="45.9882" lon="4.56149">
        <ele>637.2</ele>
        <time>2025-09-11T12:34:21Z</time>
      </trkpt>
      <trkpt lat="45.98822" lon="4.56151">
        <ele>637.2</ele>
        <time>2025-09-11T12:34:22Z</time>
      </trkpt>
      <trkpt lat="45.98824" lon="4.56153">
        <ele>637.2</ele>
        <time>2025-09-11T12:34:23Z</time>
      </trkpt>
      <trkpt lat="45.98826" lon="4.56155">
        <ele>637.6</ele>
        <time>2025-09-11T12:34:24Z</time>
      </trkpt>
      <trkpt lat="45.98829" lon="4.56157">
        <ele>637.6</ele>
        <time>2025-09-11T12:34:25Z</time>
      </trkpt>
      <trkpt lat="45.98831" lon="4.56159">
        <ele>638</ele>
        <time>2025-09-11T12:34:26Z</time>
      </trkpt>
      <trkpt lat="45.98833" lon="4.56162">
        <ele>638</ele>
        <time>2025-09-11T12:34:27Z</time>
      </trkpt>
      <trkpt lat="45.98835" lon="4.56164">
        <ele>638</ele>
        <time>2025-09-11T12:34:28Z</time>
      </trkpt>
      <trkpt lat="45.98836" lon="4.56166">
        <ele>638.4</ele>
        <time>2025-09-11T12:34:29Z</time>
      </trkpt>
      <trkpt lat="45.98838" lon="4.56168">
        <ele>638.4</ele>
        <time>2025-09-11T12:34:30Z</time>
      </trkpt>
      <trkpt lat="45.98839" lon="4.5617">
        <ele>638.4</ele>
        <time>2025-09-11T12:34:31Z</time>
      </trkpt>
      <trkpt lat="45.98841" lon="4.56171">
        <ele>638.4</ele>
        <time>2025-09-11T12:34:32Z</time>
      </trkpt>
      <trkpt lat="45.98842" lon="4.56173">
        <ele>638.4</ele>
        <time>2025-09-11T12:34:33Z</time>
      </trkpt>
      <trkpt lat="45.98844" lon="4.56175">
        <ele>638.6</ele>
        <time>2025-09-11T12:34:34Z</time>
      </trkpt>
      <trkpt lat="45.98845" lon="4.56177">
        <ele>638.6</ele>
        <time>2025-09-11T12:34:35Z</time>
      </trkpt>
      <trkpt lat="45.98846" lon="4.56179">
        <ele>638.6</ele>
        <time>2025-09-11T12:34:36Z</time>
      </trkpt>
      <trkpt lat="45.98847" lon="4.56182">
        <ele>638.8</ele>
        <time>2025-09-11T12:34:37Z</time>
      </trkpt>
      <trkpt lat="45.98849" lon="4.56184">
        <ele>638.8</ele>
        <time>2025-09-11T12:34:38Z</time>
      </trkpt>
      <trkpt lat="45.98851" lon="4.56186">
        <ele>638.8</ele>
        <time>2025-09-11T12:34:39Z</time>
      </trkpt>
      <trkpt lat="45.98854" lon="4.56188">
        <ele>639.2</ele>
        <time>2025-09-11T12:34:40Z</time>
      </trkpt>
      <trkpt lat="45.98856" lon="4.5619">
        <ele>639.2</ele>
        <time>2025-09-11T12:34:41Z</time>
      </trkpt>
      <trkpt lat="45.98858" lon="4.56192">
        <ele>639.2</ele>
        <time>2025-09-11T12:34:42Z</time>
      </trkpt>
      <trkpt lat="45.9886" lon="4.56193">
        <ele>639.2</ele>
        <time>2025-09-11T12:34:43Z</time>
      </trkpt>
      <trkpt lat="45.98862" lon="4.56195">
        <ele>639.6</ele>
        <time>2025-09-11T12:34:44Z</time>
      </trkpt>
      <trkpt lat="45.98864" lon="4.56197">
        <ele>639.6</ele>
        <time>2025-09-11T12:34:45Z</time>
      </trkpt>
      <trkpt lat="45.98866" lon="4.56199">
        <ele>639.6</ele>
        <time>2025-09-11T12:34:46Z</time>
      </trkpt>
      <trkpt lat="45.98869" lon="4.56201">
        <ele>639.8</ele>
        <time>2025-09-11T12:34:47Z</time>
      </trkpt>
      <trkpt lat="45.98871" lon="4.56202">
        <ele>639.8</ele>
        <time>2025-09-11T12:34:48Z</time>
      </trkpt>
      <trkpt lat="45.98874" lon="4.56204">
        <ele>639.8</ele>
        <time>2025-09-11T12:34:49Z</time>
      </trkpt>
      <trkpt lat="45.98877" lon="4.56205">
        <ele>640.2</ele>
        <time>2025-09-11T12:34:50Z</time>
      </trkpt>
      <trkpt lat="45.98879" lon="4.56206">
        <ele>640.2</ele>
        <time>2025-09-11T12:34:51Z</time>
      </trkpt>
      <trkpt lat="45.98882" lon="4.56207">
        <ele>640.2</ele>
        <time>2025-09-11T12:34:52Z</time>
      </trkpt>
      <trkpt lat="45.98885" lon="4.56208">
        <ele>640.4</ele>
        <time>2025-09-11T12:34:53Z</time>
      </trkpt>
      <trkpt lat="45.98887" lon="4.56209">
        <ele>640.4</ele>
        <time>2025-09-11T12:34:54Z</time>
      </trkpt>
      <trkpt lat="45.9889" lon="4.5621">
        <ele>640.4</ele>
        <time>2025-09-11T12:34:55Z</time>
      </trkpt>
      <trkpt lat="45.98893" lon="4.5621">
        <ele>640.4</ele>
        <time>2025-09-11T12:34:56Z</time>
      </trkpt>
      <trkpt lat="45.98895" lon="4.5621">
        <ele>640.4</ele>
        <time>2025-09-11T12:34:57Z</time>
      </trkpt>
      <trkpt lat="45.98898" lon="4.5621">
        <ele>640.8</ele>
        <time>2025-09-11T12:34:58Z</time>
      </trkpt>
      <trkpt lat="45.989" lon="4.5621">
        <ele>640.8</ele>
        <time>2025-09-11T12:34:59Z</time>
      </trkpt>
      <trkpt lat="45.98903" lon="4.56209">
        <ele>640.8</ele>
        <time>2025-09-11T12:35:00Z</time>
      </trkpt>
      <trkpt lat="45.98905" lon="4.56208">
        <ele>641</ele>
        <time>2025-09-11T12:35:01Z</time>
      </trkpt>
      <trkpt lat="45.98907" lon="4.56208">
        <ele>641</ele>
        <time>2025-09-11T12:35:02Z</time>
      </trkpt>
      <trkpt lat="45.98909" lon="4.56206">
        <ele>641.4</ele>
        <time>2025-09-11T12:35:03Z</time>
      </trkpt>
      <trkpt lat="45.98912" lon="4.56205">
        <ele>641.4</ele>
        <time>2025-09-11T12:35:04Z</time>
      </trkpt>
      <trkpt lat="45.98914" lon="4.56203">
        <ele>641.4</ele>
        <time>2025-09-11T12:35:05Z</time>
      </trkpt>
      <trkpt lat="45.98917" lon="4.56202">
        <ele>641.6</ele>
        <time>2025-09-11T12:35:06Z</time>
      </trkpt>
      <trkpt lat="45.98919" lon="4.56202">
        <ele>641.6</ele>
        <time>2025-09-11T12:35:07Z</time>
      </trkpt>
      <trkpt lat="45.98922" lon="4.56201">
        <ele>641.6</ele>
        <time>2025-09-11T12:35:08Z</time>
      </trkpt>
      <trkpt lat="45.98924" lon="4.56199">
        <ele>641.8</ele>
        <time>2025-09-11T12:35:09Z</time>
      </trkpt>
      <trkpt lat="45.98925" lon="4.56197">
        <ele>642</ele>
        <time>2025-09-11T12:35:10Z</time>
      </trkpt>
      <trkpt lat="45.98928" lon="4.56196">
        <ele>642</ele>
        <time>2025-09-11T12:35:11Z</time>
      </trkpt>
      <trkpt lat="45.9893" lon="4.56194">
        <ele>642.2</ele>
        <time>2025-09-11T12:35:12Z</time>
      </trkpt>
      <trkpt lat="45.98932" lon="4.56192">
        <ele>642.2</ele>
        <time>2025-09-11T12:35:13Z</time>
      </trkpt>
      <trkpt lat="45.98933" lon="4.5619">
        <ele>642.2</ele>
        <time>2025-09-11T12:35:14Z</time>
      </trkpt>
      <trkpt lat="45.98935" lon="4.56188">
        <ele>642.4</ele>
        <time>2025-09-11T12:35:15Z</time>
      </trkpt>
      <trkpt lat="45.98938" lon="4.56186">
        <ele>642.4</ele>
        <time>2025-09-11T12:35:16Z</time>
      </trkpt>
      <trkpt lat="45.9894" lon="4.56185">
        <ele>642.8</ele>
        <time>2025-09-11T12:35:17Z</time>
      </trkpt>
      <trkpt lat="45.98942" lon="4.56183">
        <ele>642.8</ele>
        <time>2025-09-11T12:35:18Z</time>
      </trkpt>
      <trkpt lat="45.98944" lon="4.56181">
        <ele>643</ele>
        <time>2025-09-11T12:35:19Z</time>
      </trkpt>
      <trkpt lat="45.98946" lon="4.56179">
        <ele>643</ele>
        <time>2025-09-11T12:35:20Z</time>
      </trkpt>
      <trkpt lat="45.98948" lon="4.56177">
        <ele>643</ele>
        <time>2025-09-11T12:35:21Z</time>
      </trkpt>
      <trkpt lat="45.9895" lon="4.56175">
        <ele>643</ele>
        <time>2025-09-11T12:35:22Z</time>
      </trkpt>
      <trkpt lat="45.98952" lon="4.56173">
        <ele>643.4</ele>
        <time>2025-09-11T12:35:23Z</time>
      </trkpt>
      <trkpt lat="45.98954" lon="4.56171">
        <ele>643.4</ele>
        <time>2025-09-11T12:35:24Z</time>
      </trkpt>
      <trkpt lat="45.98956" lon="4.56169">
        <ele>643.4</ele>
        <time>2025-09-11T12:35:25Z</time>
      </trkpt>
      <trkpt lat="45.98958" lon="4.56167">
        <ele>643.4</ele>
        <time>2025-09-11T12:35:26Z</time>
      </trkpt>
      <trkpt lat="45.9896" lon="4.56165">
        <ele>643.4</ele>
        <time>2025-09-11T12:35:27Z</time>
      </trkpt>
      <trkpt lat="45.98962" lon="4.56163">
        <ele>643.6</ele>
        <time>2025-09-11T12:35:28Z</time>
      </trkpt>
      <trkpt lat="45.98965" lon="4.56161">
        <ele>643.8</ele>
        <time>2025-09-11T12:35:29Z</time>
      </trkpt>
      <trkpt lat="45.98966" lon="4.5616">
        <ele>643.8</ele>
        <time>2025-09-11T12:35:30Z</time>
      </trkpt>
      <trkpt lat="45.98968" lon="4.56159">
        <ele>644.2</ele>
        <time>2025-09-11T12:35:31Z</time>
      </trkpt>
      <trkpt lat="45.9897" lon="4.56157">
        <ele>644.2</ele>
        <time>2025-09-11T12:35:32Z</time>
      </trkpt>
      <trkpt lat="45.98972" lon="4.56156">
        <ele>644.4</ele>
        <time>2025-09-11T12:35:33Z</time>
      </trkpt>
      <trkpt lat="45.98974" lon="4.56155">
        <ele>644.4</ele>
        <time>2025-09-11T12:35:34Z</time>
      </trkpt>
      <trkpt lat="45.98975" lon="4.56154">
        <ele>644.8</ele>
        <time>2025-09-11T12:35:35Z</time>
      </trkpt>
      <trkpt lat="45.98977" lon="4.56152">
        <ele>644.8</ele>
        <time>2025-09-11T12:35:36Z</time>
      </trkpt>
      <trkpt lat="45.98978" lon="4.56151">
        <ele>645.2</ele>
        <time>2025-09-11T12:35:37Z</time>
      </trkpt>
      <trkpt lat="45.9898" lon="4.5615">
        <ele>645.4</ele>
        <time>2025-09-11T12:35:38Z</time>
      </trkpt>
      <trkpt lat="45.98981" lon="4.56148">
        <ele>645.4</ele>
        <time>2025-09-11T12:35:39Z</time>
      </trkpt>
      <trkpt lat="45.98983" lon="4.56147">
        <ele>645.8</ele>
        <time>2025-09-11T12:35:40Z</time>
      </trkpt>
      <trkpt lat="45.98984" lon="4.56146">
        <ele>646</ele>
        <time>2025-09-11T12:35:41Z</time>
      </trkpt>
      <trkpt lat="45.98986" lon="4.56145">
        <ele>646</ele>
        <time>2025-09-11T12:35:42Z</time>
      </trkpt>
      <trkpt lat="45.98987" lon="4.56145">
        <ele>646.4</ele>
        <time>2025-09-11T12:35:43Z</time>
      </trkpt>
      <trkpt lat="45.98989" lon="4.56144">
        <ele>646.4</ele>
        <time>2025-09-11T12:35:44Z</time>
      </trkpt>
      <trkpt lat="45.9899" lon="4.56144">
        <ele>646.6</ele>
        <time>2025-09-11T12:35:45Z</time>
      </trkpt>
      <trkpt lat="45.98992" lon="4.56143">
        <ele>646.6</ele>
        <time>2025-09-11T12:35:46Z</time>
      </trkpt>
      <trkpt lat="45.98993" lon="4.56142">
        <ele>646.6</ele>
        <time>2025-09-11T12:35:47Z</time>
      </trkpt>
      <trkpt lat="45.98995" lon="4.56141">
        <ele>647</ele>
        <time>2025-09-11T12:35:48Z</time>
      </trkpt>
      <trkpt lat="45.98996" lon="4.5614">
        <ele>647.2</ele>
        <time>2025-09-11T12:35:49Z</time>
      </trkpt>
      <trkpt lat="45.98998" lon="4.56139">
        <ele>647.2</ele>
        <time>2025-09-11T12:35:50Z</time>
      </trkpt>
      <trkpt lat="45.98999" lon="4.56137">
        <ele>647.4</ele>
        <time>2025-09-11T12:35:51Z</time>
      </trkpt>
      <trkpt lat="45.99001" lon="4.56136">
        <ele>647.4</ele>
        <time>2025-09-11T12:35:52Z</time>
      </trkpt>
      <trkpt lat="45.99002" lon="4.56135">
        <ele>647.4</ele>
        <time>2025-09-11T12:35:53Z</time>
      </trkpt>
      <trkpt lat="45.99004" lon="4.56134">
        <ele>647.6</ele>
        <time>2025-09-11T12:35:54Z</time>
      </trkpt>
      <trkpt lat="45.99005" lon="4.56133">
        <ele>647.6</ele>
        <time>2025-09-11T12:35:55Z</time>
      </trkpt>
      <trkpt lat="45.99006" lon="4.56131">
        <ele>648</ele>
        <time>2025-09-11T12:35:56Z</time>
      </trkpt>
      <trkpt lat="45.99008" lon="4.56131">
        <ele>648</ele>
        <time>2025-09-11T12:35:57Z</time>
      </trkpt>
      <trkpt lat="45.9901" lon="4.5613">
        <ele>648.2</ele>
        <time>2025-09-11T12:35:58Z</time>
      </trkpt>
      <trkpt lat="45.99011" lon="4.56129">
        <ele>648.2</ele>
        <time>2025-09-11T12:35:59Z</time>
      </trkpt>
      <trkpt lat="45.99013" lon="4.56128">
        <ele>648.2</ele>
        <time>2025-09-11T12:36:00Z</time>
      </trkpt>
      <trkpt lat="45.99014" lon="4.56126">
        <ele>648.6</ele>
        <time>2025-09-11T12:36:01Z</time>
      </trkpt>
      <trkpt lat="45.99016" lon="4.56125">
        <ele>648.6</ele>
        <time>2025-09-11T12:36:02Z</time>
      </trkpt>
      <trkpt lat="45.99017" lon="4.56123">
        <ele>649</ele>
        <time>2025-09-11T12:36:03Z</time>
      </trkpt>
      <trkpt lat="45.99018" lon="4.56121">
        <ele>649</ele>
        <time>2025-09-11T12:36:04Z</time>
      </trkpt>
      <trkpt lat="45.9902" lon="4.56119">
        <ele>649.4</ele>
        <time>2025-09-11T12:36:05Z</time>
      </trkpt>
      <trkpt lat="45.99021" lon="4.56118">
        <ele>649.4</ele>
        <time>2025-09-11T12:36:06Z</time>
      </trkpt>
      <trkpt lat="45.99023" lon="4.56117">
        <ele>649.4</ele>
        <time>2025-09-11T12:36:07Z</time>
      </trkpt>
      <trkpt lat="45.99024" lon="4.56116">
        <ele>649.8</ele>
        <time>2025-09-11T12:36:08Z</time>
      </trkpt>
      <trkpt lat="45.99026" lon="4.56116">
        <ele>649.8</ele>
        <time>2025-09-11T12:36:09Z</time>
      </trkpt>
      <trkpt lat="45.99027" lon="4.56116">
        <ele>649.8</ele>
        <time>2025-09-11T12:36:10Z</time>
      </trkpt>
      <trkpt lat="45.99029" lon="4.56115">
        <ele>649.8</ele>
        <time>2025-09-11T12:36:11Z</time>
      </trkpt>
      <trkpt lat="45.99031" lon="4.56114">
        <ele>649.8</ele>
        <time>2025-09-11T12:36:12Z</time>
      </trkpt>
      <trkpt lat="45.99032" lon="4.56113">
        <ele>650</ele>
        <time>2025-09-11T12:36:13Z</time>
      </trkpt>
      <trkpt lat="45.99034" lon="4.56111">
        <ele>650</ele>
        <time>2025-09-11T12:36:14Z</time>
      </trkpt>
      <trkpt lat="45.99036" lon="4.56109">
        <ele>650</ele>
        <time>2025-09-11T12:36:15Z</time>
      </trkpt>
      <trkpt lat="45.99037" lon="4.56108">
        <ele>650</ele>
        <time>2025-09-11T12:36:16Z</time>
      </trkpt>
      <trkpt lat="45.99039" lon="4.56108">
        <ele>650</ele>
        <time>2025-09-11T12:36:17Z</time>
      </trkpt>
      <trkpt lat="45.9904" lon="4.56108">
        <ele>650</ele>
        <time>2025-09-11T12:36:18Z</time>
      </trkpt>
      <trkpt lat="45.99042" lon="4.56108">
        <ele>650.6</ele>
        <time>2025-09-11T12:36:19Z</time>
      </trkpt>
      <trkpt lat="45.99043" lon="4.56108">
        <ele>650.6</ele>
        <time>2025-09-11T12:36:20Z</time>
      </trkpt>
      <trkpt lat="45.99045" lon="4.56108">
        <ele>651</ele>
        <time>2025-09-11T12:36:21Z</time>
      </trkpt>
      <trkpt lat="45.99046" lon="4.56108">
        <ele>651</ele>
        <time>2025-09-11T12:36:22Z</time>
      </trkpt>
      <trkpt lat="45.99048" lon="4.56108">
        <ele>651.4</ele>
        <time>2025-09-11T12:36:23Z</time>
      </trkpt>
      <trkpt lat="45.99049" lon="4.56107">
        <ele>651.4</ele>
        <time>2025-09-11T12:36:24Z</time>
      </trkpt>
      <trkpt lat="45.9905" lon="4.56106">
        <ele>651.4</ele>
        <time>2025-09-11T12:36:25Z</time>
      </trkpt>
      <trkpt lat="45.99051" lon="4.56105">
        <ele>651.8</ele>
        <time>2025-09-11T12:36:26Z</time>
      </trkpt>
      <trkpt lat="45.99052" lon="4.56103">
        <ele>651.8</ele>
        <time>2025-09-11T12:36:27Z</time>
      </trkpt>
      <trkpt lat="45.99053" lon="4.56101">
        <ele>652</ele>
        <time>2025-09-11T12:36:28Z</time>
      </trkpt>
      <trkpt lat="45.99054" lon="4.56099">
        <ele>652</ele>
        <time>2025-09-11T12:36:29Z</time>
      </trkpt>
      <trkpt lat="45.99056" lon="4.56097">
        <ele>652</ele>
        <time>2025-09-11T12:36:30Z</time>
      </trkpt>
      <trkpt lat="45.99057" lon="4.56097">
        <ele>652.4</ele>
        <time>2025-09-11T12:36:31Z</time>
      </trkpt>
      <trkpt lat="45.99058" lon="4.56099">
        <ele>652.4</ele>
        <time>2025-09-11T12:36:32Z</time>
      </trkpt>
      <trkpt lat="45.99059" lon="4.56102">
        <ele>652.8</ele>
        <time>2025-09-11T12:36:33Z</time>
      </trkpt>
      <trkpt lat="45.99059" lon="4.56106">
        <ele>652.8</ele>
        <time>2025-09-11T12:36:34Z</time>
      </trkpt>
      <trkpt lat="45.99058" lon="4.56108">
        <ele>653</ele>
        <time>2025-09-11T12:36:35Z</time>
      </trkpt>
      <trkpt lat="45.99057" lon="4.56109">
        <ele>653</ele>
        <time>2025-09-11T12:36:36Z</time>
      </trkpt>
      <trkpt lat="45.99055" lon="4.56111">
        <ele>653.4</ele>
        <time>2025-09-11T12:36:37Z</time>
      </trkpt>
      <trkpt lat="45.99054" lon="4.56113">
        <ele>653.4</ele>
        <time>2025-09-11T12:36:38Z</time>
      </trkpt>
      <trkpt lat="45.99053" lon="4.56115">
        <ele>653.8</ele>
        <time>2025-09-11T12:36:39Z</time>
      </trkpt>
      <trkpt lat="45.99052" lon="4.56117">
        <ele>654</ele>
        <time>2025-09-11T12:36:40Z</time>
      </trkpt>
      <trkpt lat="45.99051" lon="4.56119">
        <ele>654</ele>
        <time>2025-09-11T12:36:41Z</time>
      </trkpt>
      <trkpt lat="45.9905" lon="4.56121">
        <ele>654.4</ele>
        <time>2025-09-11T12:36:42Z</time>
      </trkpt>
      <trkpt lat="45.9905" lon="4.56122">
        <ele>654.4</ele>
        <time>2025-09-11T12:36:43Z</time>
      </trkpt>
      <trkpt lat="45.99049" lon="4.56124">
        <ele>654.6</ele>
        <time>2025-09-11T12:36:44Z</time>
      </trkpt>
      <trkpt lat="45.99048" lon="4.56125">
        <ele>655</ele>
        <time>2025-09-11T12:36:45Z</time>
      </trkpt>
      <trkpt lat="45.99048" lon="4.56127">
        <ele>655</ele>
        <time>2025-09-11T12:36:46Z</time>
      </trkpt>
      <trkpt lat="45.99047" lon="4.56128">
        <ele>655.4</ele>
        <time>2025-09-11T12:36:47Z</time>
      </trkpt>
      <trkpt lat="45.99046" lon="4.56128">
        <ele>655.8</ele>
        <time>2025-09-11T12:36:48Z</time>
      </trkpt>
      <trkpt lat="45.99045" lon="4.56129">
        <ele>656</ele>
        <time>2025-09-11T12:36:49Z</time>
      </trkpt>
      <trkpt lat="45.99044" lon="4.5613">
        <ele>656</ele>
        <time>2025-09-11T12:36:50Z</time>
      </trkpt>
      <trkpt lat="45.99044" lon="4.56132">
        <ele>656.2</ele>
        <time>2025-09-11T12:36:51Z</time>
      </trkpt>
      <trkpt lat="45.99043" lon="4.56135">
        <ele>656.2</ele>
        <time>2025-09-11T12:36:52Z</time>
      </trkpt>
      <trkpt lat="45.99042" lon="4.56137">
        <ele>656.2</ele>
        <time>2025-09-11T12:36:53Z</time>
      </trkpt>
      <trkpt lat="45.99041" lon="4.56139">
        <ele>656.6</ele>
        <time>2025-09-11T12:36:54Z</time>
      </trkpt>
      <trkpt lat="45.9904" lon="4.5614">
        <ele>656.6</ele>
        <time>2025-09-11T12:36:55Z</time>
      </trkpt>
      <trkpt lat="45.9904" lon="4.56141">
        <ele>656.6</ele>
        <time>2025-09-11T12:36:56Z</time>
      </trkpt>
      <trkpt lat="45.9904" lon="4.56142">
        <ele>656.8</ele>
        <time>2025-09-11T12:36:57Z</time>
      </trkpt>
      <trkpt lat="45.99039" lon="4.56143">
        <ele>657.2</ele>
        <time>2025-09-11T12:36:58Z</time>
      </trkpt>
      <trkpt lat="45.99039" lon="4.56143">
        <ele>657.4</ele>
        <time>2025-09-11T12:36:59Z</time>
      </trkpt>
      <trkpt lat="45.99039" lon="4.56144">
        <ele>657.8</ele>
        <time>2025-09-11T12:37:00Z</time>
      </trkpt>
      <trkpt lat="45.99038" lon="4.56145">
        <ele>658.2</ele>
        <time>2025-09-11T12:37:01Z</time>
      </trkpt>
      <trkpt lat="45.99038" lon="4.56148">
        <ele>658.2</ele>
        <time>2025-09-11T12:37:02Z</time>
      </trkpt>
      <trkpt lat="45.99037" lon="4.5615">
        <ele>658.4</ele>
        <time>2025-09-11T12:37:03Z</time>
      </trkpt>
      <trkpt lat="45.99037" lon="4.56151">
        <ele>658.4</ele>
        <time>2025-09-11T12:37:04Z</time>
      </trkpt>
      <trkpt lat="45.99036" lon="4.56152">
        <ele>658.8</ele>
        <time>2025-09-11T12:37:05Z</time>
      </trkpt>
      <trkpt lat="45.99036" lon="4.56153">
        <ele>658.8</ele>
        <time>2025-09-11T12:37:06Z</time>
      </trkpt>
      <trkpt lat="45.99036" lon="4.56154">
        <ele>659.2</ele>
        <time>2025-09-11T12:37:07Z</time>
      </trkpt>
      <trkpt lat="45.99035" lon="4.56156">
        <ele>659.2</ele>
        <time>2025-09-11T12:37:08Z</time>
      </trkpt>
      <trkpt lat="45.99034" lon="4.56157">
        <ele>659.4</ele>
        <time>2025-09-11T12:37:09Z</time>
      </trkpt>
      <trkpt lat="45.99032" lon="4.56159">
        <ele>659.4</ele>
        <time>2025-09-11T12:37:10Z</time>
      </trkpt>
      <trkpt lat="45.9903" lon="4.56161">
        <ele>659.4</ele>
        <time>2025-09-11T12:37:11Z</time>
      </trkpt>
      <trkpt lat="45.99029" lon="4.56163">
        <ele>659.8</ele>
        <time>2025-09-11T12:37:12Z</time>
      </trkpt>
      <trkpt lat="45.99029" lon="4.56165">
        <ele>660.2</ele>
        <time>2025-09-11T12:37:13Z</time>
      </trkpt>
      <trkpt lat="45.99029" lon="4.56167">
        <ele>660.2</ele>
        <time>2025-09-11T12:37:14Z</time>
      </trkpt>
      <trkpt lat="45.99029" lon="4.5617">
        <ele>660.4</ele>
        <time>2025-09-11T12:37:15Z</time>
      </trkpt>
      <trkpt lat="45.99029" lon="4.56172">
        <ele>660.4</ele>
        <time>2025-09-11T12:37:16Z</time>
      </trkpt>
      <trkpt lat="45.99028" lon="4.56174">
        <ele>660.6</ele>
        <time>2025-09-11T12:37:17Z</time>
      </trkpt>
      <trkpt lat="45.99027" lon="4.56175">
        <ele>660.6</ele>
        <time>2025-09-11T12:37:18Z</time>
      </trkpt>
      <trkpt lat="45.99026" lon="4.56177">
        <ele>660.6</ele>
        <time>2025-09-11T12:37:19Z</time>
      </trkpt>
      <trkpt lat="45.99025" lon="4.56178">
        <ele>660.6</ele>
        <time>2025-09-11T12:37:20Z</time>
      </trkpt>
      <trkpt lat="45.99024" lon="4.56179">
        <ele>661</ele>
        <time>2025-09-11T12:37:21Z</time>
      </trkpt>
      <trkpt lat="45.99024" lon="4.56179">
        <ele>661</ele>
        <time>2025-09-11T12:37:22Z</time>
      </trkpt>
      <trkpt lat="45.99022" lon="4.56178">
        <ele>661.4</ele>
        <time>2025-09-11T12:38:26Z</time>
      </trkpt>
      <trkpt lat="45.99022" lon="4.5618">
        <ele>661.4</ele>
        <time>2025-09-11T12:38:27Z</time>
      </trkpt>
      <trkpt lat="45.99021" lon="4.56182">
        <ele>661.4</ele>
        <time>2025-09-11T12:38:28Z</time>
      </trkpt>
      <trkpt lat="45.9902" lon="4.56184">
        <ele>661.4</ele>
        <time>2025-09-11T12:38:29Z</time>
      </trkpt>
      <trkpt lat="45.99019" lon="4.56185">
        <ele>661.4</ele>
        <time>2025-09-11T12:38:30Z</time>
      </trkpt>
      <trkpt lat="45.99018" lon="4.56187">
        <ele>661.4</ele>
        <time>2025-09-11T12:38:31Z</time>
      </trkpt>
      <trkpt lat="45.99017" lon="4.56189">
        <ele>661.6</ele>
        <time>2025-09-11T12:38:32Z</time>
      </trkpt>
      <trkpt lat="45.99017" lon="4.5619">
        <ele>661.6</ele>
        <time>2025-09-11T12:38:33Z</time>
      </trkpt>
      <trkpt lat="45.99015" lon="4.56192">
        <ele>661.6</ele>
        <time>2025-09-11T12:38:34Z</time>
      </trkpt>
      <trkpt lat="45.99014" lon="4.56195">
        <ele>661.6</ele>
        <time>2025-09-11T12:38:35Z</time>
      </trkpt>
      <trkpt lat="45.99014" lon="4.56197">
        <ele>662</ele>
        <time>2025-09-11T12:38:36Z</time>
      </trkpt>
      <trkpt lat="45.99012" lon="4.56199">
        <ele>662.2</ele>
        <time>2025-09-11T12:38:37Z</time>
      </trkpt>
      <trkpt lat="45.99011" lon="4.56202">
        <ele>662.4</ele>
        <time>2025-09-11T12:38:38Z</time>
      </trkpt>
      <trkpt lat="45.9901" lon="4.56204">
        <ele>663</ele>
        <time>2025-09-11T12:38:39Z</time>
      </trkpt>
      <trkpt lat="45.99009" lon="4.56207">
        <ele>663</ele>
        <time>2025-09-11T12:38:40Z</time>
      </trkpt>
      <trkpt lat="45.99008" lon="4.56209">
        <ele>663.4</ele>
        <time>2025-09-11T12:38:41Z</time>
      </trkpt>
      <trkpt lat="45.99007" lon="4.56211">
        <ele>663.4</ele>
        <time>2025-09-11T12:38:42Z</time>
      </trkpt>
      <trkpt lat="45.99005" lon="4.56213">
        <ele>663.4</ele>
        <time>2025-09-11T12:38:43Z</time>
      </trkpt>
      <trkpt lat="45.99004" lon="4.56214">
        <ele>663.6</ele>
        <time>2025-09-11T12:38:44Z</time>
      </trkpt>
      <trkpt lat="45.99003" lon="4.56216">
        <ele>664</ele>
        <time>2025-09-11T12:38:45Z</time>
      </trkpt>
      <trkpt lat="45.99002" lon="4.56218">
        <ele>664.2</ele>
        <time>2025-09-11T12:38:46Z</time>
      </trkpt>
      <trkpt lat="45.99001" lon="4.56221">
        <ele>664.2</ele>
        <time>2025-09-11T12:38:47Z</time>
      </trkpt>
      <trkpt lat="45.99" lon="4.56223">
        <ele>664.2</ele>
        <time>2025-09-11T12:38:48Z</time>
      </trkpt>
      <trkpt lat="45.98999" lon="4.56226">
        <ele>664.6</ele>
        <time>2025-09-11T12:38:49Z</time>
      </trkpt>
      <trkpt lat="45.98998" lon="4.56227">
        <ele>664</ele>
        <time>2025-09-11T12:38:50Z</time>
      </trkpt>
      <trkpt lat="45.98998" lon="4.56229">
        <ele>664.4</ele>
        <time>2025-09-11T12:38:51Z</time>
      </trkpt>
      <trkpt lat="45.98997" lon="4.56231">
        <ele>664.8</ele>
        <time>2025-09-11T12:38:52Z</time>
      </trkpt>
      <trkpt lat="45.98997" lon="4.56233">
        <ele>664.8</ele>
        <time>2025-09-11T12:38:53Z</time>
      </trkpt>
      <trkpt lat="45.98997" lon="4.56234">
        <ele>665.2</ele>
        <time>2025-09-11T12:38:54Z</time>
      </trkpt>
      <trkpt lat="45.98997" lon="4.56235">
        <ele>665.4</ele>
        <time>2025-09-11T12:38:55Z</time>
      </trkpt>
      <trkpt lat="45.98997" lon="4.56237">
        <ele>665.8</ele>
        <time>2025-09-11T12:38:56Z</time>
      </trkpt>
      <trkpt lat="45.98996" lon="4.56239">
        <ele>665.8</ele>
        <time>2025-09-11T12:38:57Z</time>
      </trkpt>
      <trkpt lat="45.98995" lon="4.5624">
        <ele>665.8</ele>
        <time>2025-09-11T12:38:58Z</time>
      </trkpt>
      <trkpt lat="45.98994" lon="4.56242">
        <ele>666</ele>
        <time>2025-09-11T12:38:59Z</time>
      </trkpt>
      <trkpt lat="45.98993" lon="4.56244">
        <ele>666</ele>
        <time>2025-09-11T12:39:00Z</time>
      </trkpt>
      <trkpt lat="45.98992" lon="4.56246">
        <ele>666.4</ele>
        <time>2025-09-11T12:39:01Z</time>
      </trkpt>
      <trkpt lat="45.98991" lon="4.56248">
        <ele>666.4</ele>
        <time>2025-09-11T12:39:02Z</time>
      </trkpt>
      <trkpt lat="45.98989" lon="4.56251">
        <ele>666.4</ele>
        <time>2025-09-11T12:39:03Z</time>
      </trkpt>
      <trkpt lat="45.98988" lon="4.56253">
        <ele>666.4</ele>
        <time>2025-09-11T12:39:04Z</time>
      </trkpt>
      <trkpt lat="45.98987" lon="4.56255">
        <ele>666.6</ele>
        <time>2025-09-11T12:39:05Z</time>
      </trkpt>
      <trkpt lat="45.98986" lon="4.56257">
        <ele>667</ele>
        <time>2025-09-11T12:39:06Z</time>
      </trkpt>
      <trkpt lat="45.98985" lon="4.56259">
        <ele>667</ele>
        <time>2025-09-11T12:39:07Z</time>
      </trkpt>
      <trkpt lat="45.98984" lon="4.56262">
        <ele>667.4</ele>
        <time>2025-09-11T12:39:08Z</time>
      </trkpt>
      <trkpt lat="45.98983" lon="4.56264">
        <ele>667.6</ele>
        <time>2025-09-11T12:39:09Z</time>
      </trkpt>
      <trkpt lat="45.98982" lon="4.56265">
        <ele>667.6</ele>
        <time>2025-09-11T12:39:10Z</time>
      </trkpt>
      <trkpt lat="45.98981" lon="4.56268">
        <ele>667.6</ele>
        <time>2025-09-11T12:39:11Z</time>
      </trkpt>
      <trkpt lat="45.9898" lon="4.5627">
        <ele>668</ele>
        <time>2025-09-11T12:39:12Z</time>
      </trkpt>
      <trkpt lat="45.98979" lon="4.56272">
        <ele>668</ele>
        <time>2025-09-11T12:39:13Z</time>
      </trkpt>
      <trkpt lat="45.98978" lon="4.56274">
        <ele>668</ele>
        <time>2025-09-11T12:39:14Z</time>
      </trkpt>
      <trkpt lat="45.98978" lon="4.56276">
        <ele>668.4</ele>
        <time>2025-09-11T12:39:15Z</time>
      </trkpt>
      <trkpt lat="45.98977" lon="4.56278">
        <ele>668.4</ele>
        <time>2025-09-11T12:39:16Z</time>
      </trkpt>
      <trkpt lat="45.98975" lon="4.5628">
        <ele>668.4</ele>
        <time>2025-09-11T12:39:17Z</time>
      </trkpt>
      <trkpt lat="45.98974" lon="4.56283">
        <ele>668.6</ele>
        <time>2025-09-11T12:39:18Z</time>
      </trkpt>
      <trkpt lat="45.98974" lon="4.56283">
        <ele>668.6</ele>
        <time>2025-09-11T12:39:19Z</time>
      </trkpt>
      <trkpt lat="45.98973" lon="4.56285">
        <ele>668.6</ele>
        <time>2025-09-11T12:39:20Z</time>
      </trkpt>
      <trkpt lat="45.98972" lon="4.56287">
        <ele>668.6</ele>
        <time>2025-09-11T12:39:21Z</time>
      </trkpt>
      <trkpt lat="45.9897" lon="4.56289">
        <ele>668.8</ele>
        <time>2025-09-11T12:39:22Z</time>
      </trkpt>
      <trkpt lat="45.98969" lon="4.5629">
        <ele>668.8</ele>
        <time>2025-09-11T12:39:23Z</time>
      </trkpt>
      <trkpt lat="45.98968" lon="4.56292">
        <ele>669</ele>
        <time>2025-09-11T12:39:24Z</time>
      </trkpt>
      <trkpt lat="45.98967" lon="4.56294">
        <ele>669</ele>
        <time>2025-09-11T12:39:25Z</time>
      </trkpt>
      <trkpt lat="45.98965" lon="4.56297">
        <ele>669</ele>
        <time>2025-09-11T12:39:26Z</time>
      </trkpt>
      <trkpt lat="45.98965" lon="4.56299">
        <ele>669.2</ele>
        <time>2025-09-11T12:39:27Z</time>
      </trkpt>
      <trkpt lat="45.98964" lon="4.56301">
        <ele>669.8</ele>
        <time>2025-09-11T12:39:28Z</time>
      </trkpt>
      <trkpt lat="45.98964" lon="4.56302">
        <ele>669.8</ele>
        <time>2025-09-11T12:39:29Z</time>
      </trkpt>
      <trkpt lat="45.98963" lon="4.56304">
        <ele>669.8</ele>
        <time>2025-09-11T12:39:30Z</time>
      </trkpt>
      <trkpt lat="45.98962" lon="4.56306">
        <ele>669.8</ele>
        <time>2025-09-11T12:39:31Z</time>
      </trkpt>
      <trkpt lat="45.9896" lon="4.56307">
        <ele>669.8</ele>
        <time>2025-09-11T12:39:32Z</time>
      </trkpt>
      <trkpt lat="45.98959" lon="4.56309">
        <ele>670.2</ele>
        <time>2025-09-11T12:39:33Z</time>
      </trkpt>
      <trkpt lat="45.98957" lon="4.5631">
        <ele>670.2</ele>
        <time>2025-09-11T12:39:34Z</time>
      </trkpt>
      <trkpt lat="45.98955" lon="4.56311">
        <ele>670.2</ele>
        <time>2025-09-11T12:39:35Z</time>
      </trkpt>
      <trkpt lat="45.98953" lon="4.56314">
        <ele>670.2</ele>
        <time>2025-09-11T12:39:36Z</time>
      </trkpt>
      <trkpt lat="45.98952" lon="4.56315">
        <ele>670.6</ele>
        <time>2025-09-11T12:39:37Z</time>
      </trkpt>
      <trkpt lat="45.98951" lon="4.56317">
        <ele>671</ele>
        <time>2025-09-11T12:39:38Z</time>
      </trkpt>
      <trkpt lat="45.98949" lon="4.56319">
        <ele>671</ele>
        <time>2025-09-11T12:39:39Z</time>
      </trkpt>
      <trkpt lat="45.98948" lon="4.56321">
        <ele>671</ele>
        <time>2025-09-11T12:39:40Z</time>
      </trkpt>
      <trkpt lat="45.98946" lon="4.56323">
        <ele>671</ele>
        <time>2025-09-11T12:39:41Z</time>
      </trkpt>
      <trkpt lat="45.98945" lon="4.56325">
        <ele>671</ele>
        <time>2025-09-11T12:39:42Z</time>
      </trkpt>
      <trkpt lat="45.98943" lon="4.56327">
        <ele>671.2</ele>
        <time>2025-09-11T12:39:43Z</time>
      </trkpt>
      <trkpt lat="45.98942" lon="4.56329">
        <ele>671.6</ele>
        <time>2025-09-11T12:39:44Z</time>
      </trkpt>
      <trkpt lat="45.98941" lon="4.5633">
        <ele>671.6</ele>
        <time>2025-09-11T12:39:45Z</time>
      </trkpt>
      <trkpt lat="45.9894" lon="4.56331">
        <ele>671.6</ele>
        <time>2025-09-11T12:39:46Z</time>
      </trkpt>
      <trkpt lat="45.98939" lon="4.56333">
        <ele>671.8</ele>
        <time>2025-09-11T12:39:47Z</time>
      </trkpt>
      <trkpt lat="45.98938" lon="4.56335">
        <ele>671.8</ele>
        <time>2025-09-11T12:39:48Z</time>
      </trkpt>
      <trkpt lat="45.98938" lon="4.56336">
        <ele>672</ele>
        <time>2025-09-11T12:39:49Z</time>
      </trkpt>
      <trkpt lat="45.98937" lon="4.56338">
        <ele>672</ele>
        <time>2025-09-11T12:39:50Z</time>
      </trkpt>
      <trkpt lat="45.98936" lon="4.5634">
        <ele>672.4</ele>
        <time>2025-09-11T12:39:51Z</time>
      </trkpt>
      <trkpt lat="45.98935" lon="4.56341">
        <ele>672.4</ele>
        <time>2025-09-11T12:39:52Z</time>
      </trkpt>
      <trkpt lat="45.98934" lon="4.56343">
        <ele>672.6</ele>
        <time>2025-09-11T12:39:53Z</time>
      </trkpt>
      <trkpt lat="45.98933" lon="4.56344">
        <ele>672.6</ele>
        <time>2025-09-11T12:39:54Z</time>
      </trkpt>
      <trkpt lat="45.98931" lon="4.56345">
        <ele>672.8</ele>
        <time>2025-09-11T12:39:55Z</time>
      </trkpt>
      <trkpt lat="45.9893" lon="4.56346">
        <ele>672.8</ele>
        <time>2025-09-11T12:39:56Z</time>
      </trkpt>
      <trkpt lat="45.98929" lon="4.56348">
        <ele>672.8</ele>
        <time>2025-09-11T12:39:57Z</time>
      </trkpt>
      <trkpt lat="45.98928" lon="4.5635">
        <ele>673.2</ele>
        <time>2025-09-11T12:39:58Z</time>
      </trkpt>
      <trkpt lat="45.98926" lon="4.56351">
        <ele>673.4</ele>
        <time>2025-09-11T12:39:59Z</time>
      </trkpt>
      <trkpt lat="45.98925" lon="4.56353">
        <ele>673.6</ele>
        <time>2025-09-11T12:40:00Z</time>
      </trkpt>
      <trkpt lat="45.98924" lon="4.56354">
        <ele>673.8</ele>
        <time>2025-09-11T12:40:01Z</time>
      </trkpt>
      <trkpt lat="45.98922" lon="4.56356">
        <ele>673.8</ele>
        <time>2025-09-11T12:40:02Z</time>
      </trkpt>
      <trkpt lat="45.98921" lon="4.56358">
        <ele>674.2</ele>
        <time>2025-09-11T12:40:03Z</time>
      </trkpt>
      <trkpt lat="45.9892" lon="4.56359">
        <ele>674.2</ele>
        <time>2025-09-11T12:40:04Z</time>
      </trkpt>
      <trkpt lat="45.98918" lon="4.5636">
        <ele>674.2</ele>
        <time>2025-09-11T12:40:05Z</time>
      </trkpt>
      <trkpt lat="45.98917" lon="4.56362">
        <ele>674.2</ele>
        <time>2025-09-11T12:40:06Z</time>
      </trkpt>
      <trkpt lat="45.98915" lon="4.56363">
        <ele>674.8</ele>
        <time>2025-09-11T12:40:07Z</time>
      </trkpt>
      <trkpt lat="45.98914" lon="4.56364">
        <ele>675</ele>
        <time>2025-09-11T12:40:08Z</time>
      </trkpt>
      <trkpt lat="45.98913" lon="4.56366">
        <ele>675</ele>
        <time>2025-09-11T12:40:09Z</time>
      </trkpt>
      <trkpt lat="45.98911" lon="4.56367">
        <ele>675</ele>
        <time>2025-09-11T12:40:10Z</time>
      </trkpt>
      <trkpt lat="45.9891" lon="4.56368">
        <ele>675.4</ele>
        <time>2025-09-11T12:40:11Z</time>
      </trkpt>
      <trkpt lat="45.98909" lon="4.56369">
        <ele>675.4</ele>
        <time>2025-09-11T12:40:12Z</time>
      </trkpt>
      <trkpt lat="45.98908" lon="4.56371">
        <ele>675.8</ele>
        <time>2025-09-11T12:40:13Z</time>
      </trkpt>
      <trkpt lat="45.98906" lon="4.56372">
        <ele>675.8</ele>
        <time>2025-09-11T12:40:14Z</time>
      </trkpt>
      <trkpt lat="45.98905" lon="4.56373">
        <ele>675.8</ele>
        <time>2025-09-11T12:40:15Z</time>
      </trkpt>
      <trkpt lat="45.98904" lon="4.56374">
        <ele>676.2</ele>
        <time>2025-09-11T12:40:16Z</time>
      </trkpt>
      <trkpt lat="45.98902" lon="4.56376">
        <ele>676.6</ele>
        <time>2025-09-11T12:40:17Z</time>
      </trkpt>
      <trkpt lat="45.98901" lon="4.56377">
        <ele>676.8</ele>
        <time>2025-09-11T12:40:18Z</time>
      </trkpt>
      <trkpt lat="45.989" lon="4.56379">
        <ele>677</ele>
        <time>2025-09-11T12:40:19Z</time>
      </trkpt>
      <trkpt lat="45.98898" lon="4.5638">
        <ele>677</ele>
        <time>2025-09-11T12:40:20Z</time>
      </trkpt>
      <trkpt lat="45.98897" lon="4.56381">
        <ele>677.2</ele>
        <time>2025-09-11T12:40:21Z</time>
      </trkpt>
      <trkpt lat="45.98896" lon="4.56382">
        <ele>677.2</ele>
        <time>2025-09-11T12:40:22Z</time>
      </trkpt>
      <trkpt lat="45.98895" lon="4.56383">
        <ele>677.6</ele>
        <time>2025-09-11T12:40:23Z</time>
      </trkpt>
      <trkpt lat="45.98893" lon="4.56384">
        <ele>677.6</ele>
        <time>2025-09-11T12:40:24Z</time>
      </trkpt>
      <trkpt lat="45.98892" lon="4.56385">
        <ele>677.8</ele>
        <time>2025-09-11T12:40:25Z</time>
      </trkpt>
      <trkpt lat="45.9889" lon="4.56387">
        <ele>677.8</ele>
        <time>2025-09-11T12:40:26Z</time>
      </trkpt>
      <trkpt lat="45.98889" lon="4.56387">
        <ele>677.8</ele>
        <time>2025-09-11T12:40:27Z</time>
      </trkpt>
      <trkpt lat="45.98888" lon="4.56388">
        <ele>678</ele>
        <time>2025-09-11T12:40:28Z</time>
      </trkpt>
      <trkpt lat="45.98887" lon="4.56389">
        <ele>678</ele>
        <time>2025-09-11T12:40:29Z</time>
      </trkpt>
      <trkpt lat="45.98887" lon="4.56391">
        <ele>678.2</ele>
        <time>2025-09-11T12:40:30Z</time>
      </trkpt>
      <trkpt lat="45.98886" lon="4.56392">
        <ele>678.2</ele>
        <time>2025-09-11T12:40:31Z</time>
      </trkpt>
      <trkpt lat="45.98884" lon="4.56394">
        <ele>678.2</ele>
        <time>2025-09-11T12:40:32Z</time>
      </trkpt>
      <trkpt lat="45.98883" lon="4.56395">
        <ele>678.6</ele>
        <time>2025-09-11T12:40:33Z</time>
      </trkpt>
      <trkpt lat="45.98881" lon="4.56396">
        <ele>678.8</ele>
        <time>2025-09-11T12:40:34Z</time>
      </trkpt>
      <trkpt lat="45.98881" lon="4.56396">
        <ele>678.8</ele>
        <time>2025-09-11T12:40:35Z</time>
      </trkpt>
      <trkpt lat="45.98881" lon="4.56396">
        <ele>678.8</ele>
        <time>2025-09-11T12:40:36Z</time>
      </trkpt>
      <trkpt lat="45.98881" lon="4.56395">
        <ele>678.8</ele>
        <time>2025-09-11T12:40:37Z</time>
      </trkpt>
      <trkpt lat="45.9888" lon="4.56395">
        <ele>679</ele>
        <time>2025-09-11T12:41:06Z</time>
      </trkpt>
      <trkpt lat="45.98879" lon="4.56395">
        <ele>679</ele>
        <time>2025-09-11T12:41:07Z</time>
      </trkpt>
      <trkpt lat="45.98877" lon="4.56395">
        <ele>679</ele>
        <time>2025-09-11T12:41:08Z</time>
      </trkpt>
      <trkpt lat="45.98875" lon="4.56396">
        <ele>679.2</ele>
        <time>2025-09-11T12:41:09Z</time>
      </trkpt>
      <trkpt lat="45.98872" lon="4.56397">
        <ele>679.2</ele>
        <time>2025-09-11T12:41:10Z</time>
      </trkpt>
      <trkpt lat="45.98871" lon="4.56398">
        <ele>679.6</ele>
        <time>2025-09-11T12:41:11Z</time>
      </trkpt>
      <trkpt lat="45.9887" lon="4.56398">
        <ele>679.6</ele>
        <time>2025-09-11T12:41:12Z</time>
      </trkpt>
      <trkpt lat="45.98868" lon="4.56399">
        <ele>679.8</ele>
        <time>2025-09-11T12:41:13Z</time>
      </trkpt>
      <trkpt lat="45.98867" lon="4.564">
        <ele>680</ele>
        <time>2025-09-11T12:41:14Z</time>
      </trkpt>
      <trkpt lat="45.98865" lon="4.564">
        <ele>680</ele>
        <time>2025-09-11T12:41:15Z</time>
      </trkpt>
      <trkpt lat="45.98863" lon="4.56401">
        <ele>680.4</ele>
        <time>2025-09-11T12:41:16Z</time>
      </trkpt>
      <trkpt lat="45.98861" lon="4.56402">
        <ele>680.6</ele>
        <time>2025-09-11T12:41:17Z</time>
      </trkpt>
      <trkpt lat="45.98859" lon="4.56402">
        <ele>680.6</ele>
        <time>2025-09-11T12:41:18Z</time>
      </trkpt>
      <trkpt lat="45.98858" lon="4.56403">
        <ele>681</ele>
        <time>2025-09-11T12:41:19Z</time>
      </trkpt>
      <trkpt lat="45.98856" lon="4.56404">
        <ele>681.4</ele>
        <time>2025-09-11T12:41:20Z</time>
      </trkpt>
      <trkpt lat="45.98853" lon="4.56405">
        <ele>681.6</ele>
        <time>2025-09-11T12:41:21Z</time>
      </trkpt>
      <trkpt lat="45.98851" lon="4.56406">
        <ele>681.8</ele>
        <time>2025-09-11T12:41:22Z</time>
      </trkpt>
      <trkpt lat="45.9885" lon="4.56406">
        <ele>681.8</ele>
        <time>2025-09-11T12:41:23Z</time>
      </trkpt>
      <trkpt lat="45.98848" lon="4.56407">
        <ele>682.4</ele>
        <time>2025-09-11T12:41:24Z</time>
      </trkpt>
      <trkpt lat="45.98847" lon="4.56408">
        <ele>682.4</ele>
        <time>2025-09-11T12:41:25Z</time>
      </trkpt>
      <trkpt lat="45.98846" lon="4.56409">
        <ele>682.8</ele>
        <time>2025-09-11T12:41:26Z</time>
      </trkpt>
      <trkpt lat="45.98845" lon="4.56409">
        <ele>683.2</ele>
        <time>2025-09-11T12:41:27Z</time>
      </trkpt>
      <trkpt lat="45.98846" lon="4.56408">
        <ele>683.2</ele>
        <time>2025-09-11T12:41:28Z</time>
      </trkpt>
      <trkpt lat="45.98846" lon="4.56409">
        <ele>684</ele>
        <time>2025-09-11T12:41:40Z</time>
      </trkpt>
      <trkpt lat="45.98846" lon="4.5641">
        <ele>684</ele>
        <time>2025-09-11T12:41:41Z</time>
      </trkpt>
      <trkpt lat="45.98845" lon="4.56411">
        <ele>684</ele>
        <time>2025-09-11T12:41:42Z</time>
      </trkpt>
      <trkpt lat="45.98845" lon="4.56413">
        <ele>684</ele>
        <time>2025-09-11T12:41:43Z</time>
      </trkpt>
      <trkpt lat="45.98845" lon="4.56415">
        <ele>684.2</ele>
        <time>2025-09-11T12:41:44Z</time>
      </trkpt>
      <trkpt lat="45.98845" lon="4.56418">
        <ele>684.2</ele>
        <time>2025-09-11T12:41:45Z</time>
      </trkpt>
      <trkpt lat="45.98845" lon="4.56419">
        <ele>684.2</ele>
        <time>2025-09-11T12:41:46Z</time>
      </trkpt>
      <trkpt lat="45.98845" lon="4.56421">
        <ele>684.2</ele>
        <time>2025-09-11T12:41:47Z</time>
      </trkpt>
      <trkpt lat="45.98846" lon="4.56423">
        <ele>684.4</ele>
        <time>2025-09-11T12:41:48Z</time>
      </trkpt>
      <trkpt lat="45.98847" lon="4.56424">
        <ele>684.6</ele>
        <time>2025-09-11T12:41:49Z</time>
      </trkpt>
      <trkpt lat="45.98847" lon="4.56425">
        <ele>684.6</ele>
        <time>2025-09-11T12:41:50Z</time>
      </trkpt>
      <trkpt lat="45.98847" lon="4.56427">
        <ele>685.2</ele>
        <time>2025-09-11T12:41:51Z</time>
      </trkpt>
      <trkpt lat="45.98847" lon="4.56428">
        <ele>685.4</ele>
        <time>2025-09-11T12:41:52Z</time>
      </trkpt>
      <trkpt lat="45.98848" lon="4.56429">
        <ele>685.4</ele>
        <time>2025-09-11T12:41:53Z</time>
      </trkpt>
      <trkpt lat="45.98848" lon="4.56429">
        <ele>685.8</ele>
        <time>2025-09-11T12:41:54Z</time>
      </trkpt>
      <trkpt lat="45.98849" lon="4.56429">
        <ele>685.8</ele>
        <time>2025-09-11T12:41:55Z</time>
      </trkpt>
      <trkpt lat="45.98851" lon="4.56429">
        <ele>686.4</ele>
        <time>2025-09-11T12:42:08Z</time>
      </trkpt>
      <trkpt lat="45.98852" lon="4.56431">
        <ele>686.4</ele>
        <time>2025-09-11T12:42:09Z</time>
      </trkpt>
      <trkpt lat="45.98852" lon="4.56433">
        <ele>686.4</ele>
        <time>2025-09-11T12:42:10Z</time>
      </trkpt>
      <trkpt lat="45.98852" lon="4.56434">
        <ele>686.4</ele>
        <time>2025-09-11T12:42:11Z</time>
      </trkpt>
      <trkpt lat="45.98853" lon="4.56437">
        <ele>686.4</ele>
        <time>2025-09-11T12:42:12Z</time>
      </trkpt>
      <trkpt lat="45.98853" lon="4.56439">
        <ele>686.8</ele>
        <time>2025-09-11T12:42:13Z</time>
      </trkpt>
      <trkpt lat="45.98853" lon="4.56441">
        <ele>686.8</ele>
        <time>2025-09-11T12:42:14Z</time>
      </trkpt>
      <trkpt lat="45.98853" lon="4.56442">
        <ele>687</ele>
        <time>2025-09-11T12:42:15Z</time>
      </trkpt>
      <trkpt lat="45.98854" lon="4.56444">
        <ele>687</ele>
        <time>2025-09-11T12:42:16Z</time>
      </trkpt>
      <trkpt lat="45.98854" lon="4.56446">
        <ele>687.2</ele>
        <time>2025-09-11T12:42:17Z</time>
      </trkpt>
      <trkpt lat="45.98854" lon="4.56447">
        <ele>687.2</ele>
        <time>2025-09-11T12:42:18Z</time>
      </trkpt>
      <trkpt lat="45.98854" lon="4.56448">
        <ele>687.2</ele>
        <time>2025-09-11T12:42:19Z</time>
      </trkpt>
      <trkpt lat="45.98854" lon="4.56451">
        <ele>687.4</ele>
        <time>2025-09-11T12:42:20Z</time>
      </trkpt>
      <trkpt lat="45.98855" lon="4.56453">
        <ele>687.4</ele>
        <time>2025-09-11T12:42:21Z</time>
      </trkpt>
      <trkpt lat="45.98855" lon="4.56456">
        <ele>687.4</ele>
        <time>2025-09-11T12:42:22Z</time>
      </trkpt>
      <trkpt lat="45.98856" lon="4.56459">
        <ele>688</ele>
        <time>2025-09-11T12:42:23Z</time>
      </trkpt>
      <trkpt lat="45.98857" lon="4.5646">
        <ele>688</ele>
        <time>2025-09-11T12:42:24Z</time>
      </trkpt>
      <trkpt lat="45.98858" lon="4.56462">
        <ele>688</ele>
        <time>2025-09-11T12:42:25Z</time>
      </trkpt>
      <trkpt lat="45.98858" lon="4.56465">
        <ele>688.4</ele>
        <time>2025-09-11T12:42:26Z</time>
      </trkpt>
      <trkpt lat="45.98858" lon="4.56467">
        <ele>688.4</ele>
        <time>2025-09-11T12:42:27Z</time>
      </trkpt>
      <trkpt lat="45.98859" lon="4.5647">
        <ele>688.6</ele>
        <time>2025-09-11T12:42:28Z</time>
      </trkpt>
      <trkpt lat="45.9886" lon="4.56473">
        <ele>688.6</ele>
        <time>2025-09-11T12:42:29Z</time>
      </trkpt>
      <trkpt lat="45.98861" lon="4.56475">
        <ele>688.6</ele>
        <time>2025-09-11T12:42:30Z</time>
      </trkpt>
      <trkpt lat="45.98862" lon="4.56478">
        <ele>688.6</ele>
        <time>2025-09-11T12:42:31Z</time>
      </trkpt>
      <trkpt lat="45.98862" lon="4.5648">
        <ele>688.6</ele>
        <time>2025-09-11T12:42:32Z</time>
      </trkpt>
      <trkpt lat="45.98863" lon="4.56482">
        <ele>688.6</ele>
        <time>2025-09-11T12:42:33Z</time>
      </trkpt>
      <trkpt lat="45.98863" lon="4.56484">
        <ele>689</ele>
        <time>2025-09-11T12:42:34Z</time>
      </trkpt>
      <trkpt lat="45.98864" lon="4.56487">
        <ele>689</ele>
        <time>2025-09-11T12:42:35Z</time>
      </trkpt>
      <trkpt lat="45.98864" lon="4.5649">
        <ele>689</ele>
        <time>2025-09-11T12:42:36Z</time>
      </trkpt>
      <trkpt lat="45.98864" lon="4.56492">
        <ele>689.4</ele>
        <time>2025-09-11T12:42:37Z</time>
      </trkpt>
      <trkpt lat="45.98864" lon="4.56494">
        <ele>689.4</ele>
        <time>2025-09-11T12:42:38Z</time>
      </trkpt>
      <trkpt lat="45.98865" lon="4.56496">
        <ele>689.4</ele>
        <time>2025-09-11T12:42:39Z</time>
      </trkpt>
      <trkpt lat="45.98865" lon="4.56497">
        <ele>689.4</ele>
        <time>2025-09-11T12:42:40Z</time>
      </trkpt>
      <trkpt lat="45.98866" lon="4.56499">
        <ele>689.6</ele>
        <time>2025-09-11T12:42:41Z</time>
      </trkpt>
      <trkpt lat="45.98867" lon="4.56501">
        <ele>689.6</ele>
        <time>2025-09-11T12:42:42Z</time>
      </trkpt>
      <trkpt lat="45.98868" lon="4.56503">
        <ele>689.6</ele>
        <time>2025-09-11T12:42:43Z</time>
      </trkpt>
      <trkpt lat="45.98868" lon="4.56505">
        <ele>689.6</ele>
        <time>2025-09-11T12:42:44Z</time>
      </trkpt>
      <trkpt lat="45.98868" lon="4.56507">
        <ele>690</ele>
        <time>2025-09-11T12:42:45Z</time>
      </trkpt>
      <trkpt lat="45.98869" lon="4.56508">
        <ele>690</ele>
        <time>2025-09-11T12:42:46Z</time>
      </trkpt>
      <trkpt lat="45.98869" lon="4.5651">
        <ele>690</ele>
        <time>2025-09-11T12:42:47Z</time>
      </trkpt>
      <trkpt lat="45.9887" lon="4.56512">
        <ele>690</ele>
        <time>2025-09-11T12:42:48Z</time>
      </trkpt>
      <trkpt lat="45.98871" lon="4.56512">
        <ele>690</ele>
        <time>2025-09-11T12:42:49Z</time>
      </trkpt>
      <trkpt lat="45.98873" lon="4.56512">
        <ele>690</ele>
        <time>2025-09-11T12:42:50Z</time>
      </trkpt>
      <trkpt lat="45.98873" lon="4.5651">
        <ele>690</ele>
        <time>2025-09-11T12:42:51Z</time>
      </trkpt>
      <trkpt lat="45.98873" lon="4.56508">
        <ele>690</ele>
        <time>2025-09-11T12:42:52Z</time>
      </trkpt>
      <trkpt lat="45.98871" lon="4.56508">
        <ele>690</ele>
        <time>2025-09-11T12:42:53Z</time>
      </trkpt>
      <trkpt lat="45.9887" lon="4.56508">
        <ele>690</ele>
        <time>2025-09-11T12:42:54Z</time>
      </trkpt>
      <trkpt lat="45.9887" lon="4.5651">
        <ele>690</ele>
        <time>2025-09-11T12:43:26Z</time>
      </trkpt>
      <trkpt lat="45.98869" lon="4.56509">
        <ele>690</ele>
        <time>2025-09-11T12:43:27Z</time>
      </trkpt>
      <trkpt lat="45.98869" lon="4.56509">
        <ele>690</ele>
        <time>2025-09-11T12:43:28Z</time>
      </trkpt>
      <trkpt lat="45.9887" lon="4.56506">
        <ele>690</ele>
        <time>2025-09-11T12:43:34Z</time>
      </trkpt>
      <trkpt lat="45.98869" lon="4.56506">
        <ele>690</ele>
        <time>2025-09-11T12:43:35Z</time>
      </trkpt>
      <trkpt lat="45.98871" lon="4.56506">
        <ele>691</ele>
        <time>2025-09-11T12:58:52Z</time>
      </trkpt>
      <trkpt lat="45.98871" lon="4.56507">
        <ele>691</ele>
        <time>2025-09-11T12:58:53Z</time>
      </trkpt>
      <trkpt lat="45.98871" lon="4.56508">
        <ele>691</ele>
        <time>2025-09-11T12:58:54Z</time>
      </trkpt>
      <trkpt lat="45.98871" lon="4.56508">
        <ele>691</ele>
        <time>2025-09-11T12:58:55Z</time>
      </trkpt>
      <trkpt lat="45.98871" lon="4.5651">
        <ele>691</ele>
        <time>2025-09-11T12:59:01Z</time>
      </trkpt>
      <trkpt lat="45.9887" lon="4.56513">
        <ele>691</ele>
        <time>2025-09-11T12:59:02Z</time>
      </trkpt>
      <trkpt lat="45.9887" lon="4.56515">
        <ele>691</ele>
        <time>2025-09-11T12:59:03Z</time>
      </trkpt>
      <trkpt lat="45.98869" lon="4.56517">
        <ele>691</ele>
        <time>2025-09-11T12:59:04Z</time>
      </trkpt>
      <trkpt lat="45.98869" lon="4.56519">
        <ele>691</ele>
        <time>2025-09-11T12:59:05Z</time>
      </trkpt>
      <trkpt lat="45.98868" lon="4.56521">
        <ele>691</ele>
        <time>2025-09-11T12:59:06Z</time>
      </trkpt>
      <trkpt lat="45.98867" lon="4.56523">
        <ele>691</ele>
        <time>2025-09-11T12:59:07Z</time>
      </trkpt>
      <trkpt lat="45.98866" lon="4.56526">
        <ele>691</ele>
        <time>2025-09-11T12:59:08Z</time>
      </trkpt>
      <trkpt lat="45.98865" lon="4.56528">
        <ele>691</ele>
        <time>2025-09-11T12:59:09Z</time>
      </trkpt>
      <trkpt lat="45.98865" lon="4.5653">
        <ele>691</ele>
        <time>2025-09-11T12:59:10Z</time>
      </trkpt>
      <trkpt lat="45.98864" lon="4.56533">
        <ele>690.8</ele>
        <time>2025-09-11T12:59:11Z</time>
      </trkpt>
      <trkpt lat="45.98863" lon="4.56536">
        <ele>690.8</ele>
        <time>2025-09-11T12:59:12Z</time>
      </trkpt>
      <trkpt lat="45.98862" lon="4.56539">
        <ele>690.8</ele>
        <time>2025-09-11T12:59:13Z</time>
      </trkpt>
      <trkpt lat="45.98861" lon="4.56543">
        <ele>690.6</ele>
        <time>2025-09-11T12:59:14Z</time>
      </trkpt>
      <trkpt lat="45.9886" lon="4.56546">
        <ele>690.6</ele>
        <time>2025-09-11T12:59:15Z</time>
      </trkpt>
      <trkpt lat="45.98859" lon="4.5655">
        <ele>690.6</ele>
        <time>2025-09-11T12:59:16Z</time>
      </trkpt>
      <trkpt lat="45.98857" lon="4.56555">
        <ele>690.6</ele>
        <time>2025-09-11T12:59:17Z</time>
      </trkpt>
      <trkpt lat="45.98855" lon="4.5656">
        <ele>690.2</ele>
        <time>2025-09-11T12:59:18Z</time>
      </trkpt>
      <trkpt lat="45.98852" lon="4.56566">
        <ele>690.2</ele>
        <time>2025-09-11T12:59:19Z</time>
      </trkpt>
      <trkpt lat="45.98849" lon="4.56572">
        <ele>690.2</ele>
        <time>2025-09-11T12:59:20Z</time>
      </trkpt>
      <trkpt lat="45.98846" lon="4.56579">
        <ele>689.6</ele>
        <time>2025-09-11T12:59:21Z</time>
      </trkpt>
      <trkpt lat="45.98843" lon="4.56587">
        <ele>689</ele>
        <time>2025-09-11T12:59:22Z</time>
      </trkpt>
      <trkpt lat="45.9884" lon="4.56595">
        <ele>689</ele>
        <time>2025-09-11T12:59:23Z</time>
      </trkpt>
      <trkpt lat="45.98837" lon="4.56602">
        <ele>688.6</ele>
        <time>2025-09-11T12:59:24Z</time>
      </trkpt>
      <trkpt lat="45.98832" lon="4.56611">
        <ele>688.2</ele>
        <time>2025-09-11T12:59:25Z</time>
      </trkpt>
      <trkpt lat="45.98827" lon="4.56618">
        <ele>688</ele>
        <time>2025-09-11T12:59:26Z</time>
      </trkpt>
      <trkpt lat="45.9882" lon="4.56627">
        <ele>687.4</ele>
        <time>2025-09-11T12:59:27Z</time>
      </trkpt>
      <trkpt lat="45.98816" lon="4.56635">
        <ele>686.8</ele>
        <time>2025-09-11T12:59:28Z</time>
      </trkpt>
      <trkpt lat="45.98811" lon="4.56642">
        <ele>686.8</ele>
        <time>2025-09-11T12:59:29Z</time>
      </trkpt>
      <trkpt lat="45.98803" lon="4.56649">
        <ele>686</ele>
        <time>2025-09-11T12:59:30Z</time>
      </trkpt>
      <trkpt lat="45.98797" lon="4.56656">
        <ele>685.6</ele>
        <time>2025-09-11T12:59:31Z</time>
      </trkpt>
      <trkpt lat="45.98789" lon="4.56663">
        <ele>684.8</ele>
        <time>2025-09-11T12:59:32Z</time>
      </trkpt>
      <trkpt lat="45.98782" lon="4.56668">
        <ele>684.4</ele>
        <time>2025-09-11T12:59:33Z</time>
      </trkpt>
      <trkpt lat="45.98776" lon="4.56673">
        <ele>683.8</ele>
        <time>2025-09-11T12:59:34Z</time>
      </trkpt>
      <trkpt lat="45.98766" lon="4.56675">
        <ele>683.2</ele>
        <time>2025-09-11T12:59:35Z</time>
      </trkpt>
      <trkpt lat="45.98759" lon="4.56679">
        <ele>682.8</ele>
        <time>2025-09-11T12:59:36Z</time>
      </trkpt>
      <trkpt lat="45.98751" lon="4.56682">
        <ele>682.2</ele>
        <time>2025-09-11T12:59:37Z</time>
      </trkpt>
      <trkpt lat="45.98743" lon="4.56684">
        <ele>681.6</ele>
        <time>2025-09-11T12:59:38Z</time>
      </trkpt>
      <trkpt lat="45.98736" lon="4.56688">
        <ele>681</ele>
        <time>2025-09-11T12:59:39Z</time>
      </trkpt>
      <trkpt lat="45.98732" lon="4.567">
        <ele>680.6</ele>
        <time>2025-09-11T12:59:40Z</time>
      </trkpt>
      <trkpt lat="45.98727" lon="4.56709">
        <ele>680</ele>
        <time>2025-09-11T12:59:41Z</time>
      </trkpt>
      <trkpt lat="45.98722" lon="4.56719">
        <ele>679.6</ele>
        <time>2025-09-11T12:59:42Z</time>
      </trkpt>
      <trkpt lat="45.98723" lon="4.56732">
        <ele>679</ele>
        <time>2025-09-11T12:59:43Z</time>
      </trkpt>
      <trkpt lat="45.98722" lon="4.56744">
        <ele>678.4</ele>
        <time>2025-09-11T12:59:44Z</time>
      </trkpt>
      <trkpt lat="45.98723" lon="4.56755">
        <ele>678</ele>
        <time>2025-09-11T12:59:45Z</time>
      </trkpt>
      <trkpt lat="45.98724" lon="4.56769">
        <ele>677.4</ele>
        <time>2025-09-11T12:59:46Z</time>
      </trkpt>
      <trkpt lat="45.98722" lon="4.56781">
        <ele>676.4</ele>
        <time>2025-09-11T12:59:47Z</time>
      </trkpt>
      <trkpt lat="45.98721" lon="4.56794">
        <ele>675.8</ele>
        <time>2025-09-11T12:59:48Z</time>
      </trkpt>
      <trkpt lat="45.98718" lon="4.56807">
        <ele>675.4</ele>
        <time>2025-09-11T12:59:49Z</time>
      </trkpt>
      <trkpt lat="45.98715" lon="4.56821">
        <ele>674.8</ele>
        <time>2025-09-11T12:59:50Z</time>
      </trkpt>
      <trkpt lat="45.98711" lon="4.56835">
        <ele>674</ele>
        <time>2025-09-11T12:59:51Z</time>
      </trkpt>
      <trkpt lat="45.98705" lon="4.56848">
        <ele>673.6</ele>
        <time>2025-09-11T12:59:52Z</time>
      </trkpt>
      <trkpt lat="45.98701" lon="4.56861">
        <ele>673</ele>
        <time>2025-09-11T12:59:53Z</time>
      </trkpt>
      <trkpt lat="45.98696" lon="4.56872">
        <ele>672.2</ele>
        <time>2025-09-11T12:59:54Z</time>
      </trkpt>
      <trkpt lat="45.98691" lon="4.56884">
        <ele>671</ele>
        <time>2025-09-11T12:59:55Z</time>
      </trkpt>
      <trkpt lat="45.98686" lon="4.56894">
        <ele>670.2</ele>
        <time>2025-09-11T12:59:56Z</time>
      </trkpt>
      <trkpt lat="45.98682" lon="4.56905">
        <ele>669.6</ele>
        <time>2025-09-11T12:59:57Z</time>
      </trkpt>
      <trkpt lat="45.98678" lon="4.56915">
        <ele>669</ele>
        <time>2025-09-11T12:59:58Z</time>
      </trkpt>
      <trkpt lat="45.98679" lon="4.56928">
        <ele>668.4</ele>
        <time>2025-09-11T12:59:59Z</time>
      </trkpt>
      <trkpt lat="45.98678" lon="4.5694">
        <ele>667.8</ele>
        <time>2025-09-11T13:00:00Z</time>
      </trkpt>
      <trkpt lat="45.9868" lon="4.56953">
        <ele>667</ele>
        <time>2025-09-11T13:00:01Z</time>
      </trkpt>
      <trkpt lat="45.9868" lon="4.56965">
        <ele>666.4</ele>
        <time>2025-09-11T13:00:02Z</time>
      </trkpt>
      <trkpt lat="45.98684" lon="4.56978">
        <ele>665.6</ele>
        <time>2025-09-11T13:00:03Z</time>
      </trkpt>
      <trkpt lat="45.98687" lon="4.56991">
        <ele>665</ele>
        <time>2025-09-11T13:00:04Z</time>
      </trkpt>
      <trkpt lat="45.98691" lon="4.57003">
        <ele>664.4</ele>
        <time>2025-09-11T13:00:05Z</time>
      </trkpt>
      <trkpt lat="45.98695" lon="4.57016">
        <ele>664</ele>
        <time>2025-09-11T13:00:06Z</time>
      </trkpt>
      <trkpt lat="45.987" lon="4.57027">
        <ele>663.2</ele>
        <time>2025-09-11T13:00:07Z</time>
      </trkpt>
      <trkpt lat="45.98705" lon="4.57039">
        <ele>662.4</ele>
        <time>2025-09-11T13:00:08Z</time>
      </trkpt>
      <trkpt lat="45.98712" lon="4.57051">
        <ele>661.6</ele>
        <time>2025-09-11T13:00:09Z</time>
      </trkpt>
      <trkpt lat="45.9872" lon="4.57062">
        <ele>660.6</ele>
        <time>2025-09-11T13:00:10Z</time>
      </trkpt>
      <trkpt lat="45.98728" lon="4.57073">
        <ele>660.2</ele>
        <time>2025-09-11T13:00:11Z</time>
      </trkpt>
      <trkpt lat="45.98734" lon="4.57084">
        <ele>659.4</ele>
        <time>2025-09-11T13:00:12Z</time>
      </trkpt>
      <trkpt lat="45.98741" lon="4.57095">
        <ele>658.8</ele>
        <time>2025-09-11T13:00:13Z</time>
      </trkpt>
      <trkpt lat="45.98748" lon="4.57108">
        <ele>658.2</ele>
        <time>2025-09-11T13:00:14Z</time>
      </trkpt>
      <trkpt lat="45.98754" lon="4.5712">
        <ele>657.6</ele>
        <time>2025-09-11T13:00:15Z</time>
      </trkpt>
      <trkpt lat="45.9876" lon="4.57133">
        <ele>657</ele>
        <time>2025-09-11T13:00:16Z</time>
      </trkpt>
      <trkpt lat="45.98766" lon="4.57146">
        <ele>656.2</ele>
        <time>2025-09-11T13:00:17Z</time>
      </trkpt>
      <trkpt lat="45.98773" lon="4.57159">
        <ele>655.2</ele>
        <time>2025-09-11T13:00:18Z</time>
      </trkpt>
      <trkpt lat="45.98778" lon="4.57171">
        <ele>654.6</ele>
        <time>2025-09-11T13:00:19Z</time>
      </trkpt>
      <trkpt lat="45.98783" lon="4.57183">
        <ele>653.8</ele>
        <time>2025-09-11T13:00:20Z</time>
      </trkpt>
      <trkpt lat="45.98789" lon="4.57193">
        <ele>653</ele>
        <time>2025-09-11T13:00:21Z</time>
      </trkpt>
      <trkpt lat="45.98794" lon="4.57203">
        <ele>652.2</ele>
        <time>2025-09-11T13:00:22Z</time>
      </trkpt>
      <trkpt lat="45.98798" lon="4.57215">
        <ele>651.4</ele>
        <time>2025-09-11T13:00:23Z</time>
      </trkpt>
      <trkpt lat="45.98802" lon="4.57226">
        <ele>650.6</ele>
        <time>2025-09-11T13:00:24Z</time>
      </trkpt>
      <trkpt lat="45.98805" lon="4.57236">
        <ele>649.6</ele>
        <time>2025-09-11T13:00:25Z</time>
      </trkpt>
      <trkpt lat="45.98806" lon="4.57247">
        <ele>648.8</ele>
        <time>2025-09-11T13:00:26Z</time>
      </trkpt>
      <trkpt lat="45.98807" lon="4.57257">
        <ele>648.2</ele>
        <time>2025-09-11T13:00:27Z</time>
      </trkpt>
      <trkpt lat="45.98805" lon="4.57266">
        <ele>647.6</ele>
        <time>2025-09-11T13:00:28Z</time>
      </trkpt>
      <trkpt lat="45.98802" lon="4.57276">
        <ele>647</ele>
        <time>2025-09-11T13:00:29Z</time>
      </trkpt>
      <trkpt lat="45.98796" lon="4.57285">
        <ele>646.2</ele>
        <time>2025-09-11T13:00:30Z</time>
      </trkpt>
      <trkpt lat="45.98789" lon="4.57292">
        <ele>645.6</ele>
        <time>2025-09-11T13:00:31Z</time>
      </trkpt>
      <trkpt lat="45.98781" lon="4.57297">
        <ele>645.4</ele>
        <time>2025-09-11T13:00:32Z</time>
      </trkpt>
      <trkpt lat="45.98773" lon="4.57302">
        <ele>644.8</ele>
        <time>2025-09-11T13:00:33Z</time>
      </trkpt>
      <trkpt lat="45.98764" lon="4.57304">
        <ele>643.8</ele>
        <time>2025-09-11T13:00:34Z</time>
      </trkpt>
      <trkpt lat="45.98754" lon="4.57306">
        <ele>643</ele>
        <time>2025-09-11T13:00:35Z</time>
      </trkpt>
      <trkpt lat="45.98745" lon="4.57308">
        <ele>642.4</ele>
        <time>2025-09-11T13:00:36Z</time>
      </trkpt>
      <trkpt lat="45.98735" lon="4.57308">
        <ele>641.8</ele>
        <time>2025-09-11T13:00:37Z</time>
      </trkpt>
      <trkpt lat="45.98725" lon="4.57309">
        <ele>641.2</ele>
        <time>2025-09-11T13:00:38Z</time>
      </trkpt>
      <trkpt lat="45.98714" lon="4.5731">
        <ele>640.4</ele>
        <time>2025-09-11T13:00:39Z</time>
      </trkpt>
      <trkpt lat="45.98704" lon="4.57311">
        <ele>639.4</ele>
        <time>2025-09-11T13:00:40Z</time>
      </trkpt>
      <trkpt lat="45.98694" lon="4.57312">
        <ele>638.8</ele>
        <time>2025-09-11T13:00:41Z</time>
      </trkpt>
      <trkpt lat="45.98685" lon="4.57314">
        <ele>637.8</ele>
        <time>2025-09-11T13:00:42Z</time>
      </trkpt>
      <trkpt lat="45.98677" lon="4.57314">
        <ele>637.2</ele>
        <time>2025-09-11T13:00:43Z</time>
      </trkpt>
      <trkpt lat="45.98668" lon="4.57314">
        <ele>636.4</ele>
        <time>2025-09-11T13:00:44Z</time>
      </trkpt>
      <trkpt lat="45.9866" lon="4.5731">
        <ele>635.6</ele>
        <time>2025-09-11T13:00:45Z</time>
      </trkpt>
      <trkpt lat="45.98653" lon="4.57308">
        <ele>635</ele>
        <time>2025-09-11T13:00:46Z</time>
      </trkpt>
      <trkpt lat="45.98647" lon="4.57304">
        <ele>634.8</ele>
        <time>2025-09-11T13:00:47Z</time>
      </trkpt>
      <trkpt lat="45.9864" lon="4.57302">
        <ele>634</ele>
        <time>2025-09-11T13:00:48Z</time>
      </trkpt>
      <trkpt lat="45.98634" lon="4.573">
        <ele>633.4</ele>
        <time>2025-09-11T13:00:49Z</time>
      </trkpt>
      <trkpt lat="45.98628" lon="4.573">
        <ele>632.8</ele>
        <time>2025-09-11T13:00:50Z</time>
      </trkpt>
      <trkpt lat="45.98623" lon="4.57299">
        <ele>632.2</ele>
        <time>2025-09-11T13:00:51Z</time>
      </trkpt>
      <trkpt lat="45.98617" lon="4.573">
        <ele>631.8</ele>
        <time>2025-09-11T13:00:52Z</time>
      </trkpt>
      <trkpt lat="45.98611" lon="4.57304">
        <ele>631.4</ele>
        <time>2025-09-11T13:00:53Z</time>
      </trkpt>
      <trkpt lat="45.98606" lon="4.57308">
        <ele>631</ele>
        <time>2025-09-11T13:00:54Z</time>
      </trkpt>
      <trkpt lat="45.98599" lon="4.57315">
        <ele>630.6</ele>
        <time>2025-09-11T13:00:55Z</time>
      </trkpt>
      <trkpt lat="45.98594" lon="4.57322">
        <ele>630.2</ele>
        <time>2025-09-11T13:00:56Z</time>
      </trkpt>
      <trkpt lat="45.98591" lon="4.5733">
        <ele>629.8</ele>
        <time>2025-09-11T13:00:57Z</time>
      </trkpt>
      <trkpt lat="45.98589" lon="4.5734">
        <ele>629.4</ele>
        <time>2025-09-11T13:00:58Z</time>
      </trkpt>
      <trkpt lat="45.98585" lon="4.57348">
        <ele>629</ele>
        <time>2025-09-11T13:00:59Z</time>
      </trkpt>
      <trkpt lat="45.98581" lon="4.57359">
        <ele>628.2</ele>
        <time>2025-09-11T13:01:00Z</time>
      </trkpt>
      <trkpt lat="45.98577" lon="4.5737">
        <ele>627.6</ele>
        <time>2025-09-11T13:01:01Z</time>
      </trkpt>
      <trkpt lat="45.98575" lon="4.57382">
        <ele>627</ele>
        <time>2025-09-11T13:01:02Z</time>
      </trkpt>
      <trkpt lat="45.98571" lon="4.57393">
        <ele>626.4</ele>
        <time>2025-09-11T13:01:03Z</time>
      </trkpt>
      <trkpt lat="45.98568" lon="4.57406">
        <ele>625.8</ele>
        <time>2025-09-11T13:01:04Z</time>
      </trkpt>
      <trkpt lat="45.98565" lon="4.57418">
        <ele>625.2</ele>
        <time>2025-09-11T13:01:05Z</time>
      </trkpt>
      <trkpt lat="45.98563" lon="4.57429">
        <ele>624.6</ele>
        <time>2025-09-11T13:01:06Z</time>
      </trkpt>
      <trkpt lat="45.98561" lon="4.57441">
        <ele>624</ele>
        <time>2025-09-11T13:01:07Z</time>
      </trkpt>
      <trkpt lat="45.98561" lon="4.57453">
        <ele>623.6</ele>
        <time>2025-09-11T13:01:08Z</time>
      </trkpt>
      <trkpt lat="45.98561" lon="4.57465">
        <ele>623</ele>
        <time>2025-09-11T13:01:09Z</time>
      </trkpt>
      <trkpt lat="45.98563" lon="4.57478">
        <ele>622.2</ele>
        <time>2025-09-11T13:01:10Z</time>
      </trkpt>
      <trkpt lat="45.98565" lon="4.57491">
        <ele>621.8</ele>
        <time>2025-09-11T13:01:11Z</time>
      </trkpt>
      <trkpt lat="45.98566" lon="4.57504">
        <ele>621.2</ele>
        <time>2025-09-11T13:01:12Z</time>
      </trkpt>
      <trkpt lat="45.98568" lon="4.57516">
        <ele>620.4</ele>
        <time>2025-09-11T13:01:13Z</time>
      </trkpt>
      <trkpt lat="45.9857" lon="4.57529">
        <ele>619.8</ele>
        <time>2025-09-11T13:01:14Z</time>
      </trkpt>
      <trkpt lat="45.98569" lon="4.57543">
        <ele>618.8</ele>
        <time>2025-09-11T13:01:15Z</time>
      </trkpt>
      <trkpt lat="45.98568" lon="4.57555">
        <ele>618.4</ele>
        <time>2025-09-11T13:01:16Z</time>
      </trkpt>
      <trkpt lat="45.98569" lon="4.57567">
        <ele>617.8</ele>
        <time>2025-09-11T13:01:17Z</time>
      </trkpt>
      <trkpt lat="45.98568" lon="4.5758">
        <ele>617.4</ele>
        <time>2025-09-11T13:01:18Z</time>
      </trkpt>
      <trkpt lat="45.98568" lon="4.57593">
        <ele>616.4</ele>
        <time>2025-09-11T13:01:19Z</time>
      </trkpt>
      <trkpt lat="45.98567" lon="4.57606">
        <ele>615.6</ele>
        <time>2025-09-11T13:01:20Z</time>
      </trkpt>
      <trkpt lat="45.98567" lon="4.57619">
        <ele>614.8</ele>
        <time>2025-09-11T13:01:21Z</time>
      </trkpt>
      <trkpt lat="45.98567" lon="4.57633">
        <ele>614</ele>
        <time>2025-09-11T13:01:22Z</time>
      </trkpt>
      <trkpt lat="45.98565" lon="4.57647">
        <ele>613</ele>
        <time>2025-09-11T13:01:23Z</time>
      </trkpt>
      <trkpt lat="45.98562" lon="4.57661">
        <ele>612.4</ele>
        <time>2025-09-11T13:01:24Z</time>
      </trkpt>
      <trkpt lat="45.9856" lon="4.57672">
        <ele>611.6</ele>
        <time>2025-09-11T13:01:25Z</time>
      </trkpt>
      <trkpt lat="45.98557" lon="4.57683">
        <ele>611</ele>
        <time>2025-09-11T13:01:26Z</time>
      </trkpt>
      <trkpt lat="45.98554" lon="4.57694">
        <ele>610.4</ele>
        <time>2025-09-11T13:01:27Z</time>
      </trkpt>
      <trkpt lat="45.98552" lon="4.57705">
        <ele>609.8</ele>
        <time>2025-09-11T13:01:28Z</time>
      </trkpt>
      <trkpt lat="45.98548" lon="4.57714">
        <ele>609.2</ele>
        <time>2025-09-11T13:01:29Z</time>
      </trkpt>
      <trkpt lat="45.98543" lon="4.57723">
        <ele>608.4</ele>
        <time>2025-09-11T13:01:30Z</time>
      </trkpt>
      <trkpt lat="45.98536" lon="4.5773">
        <ele>608</ele>
        <time>2025-09-11T13:01:31Z</time>
      </trkpt>
      <trkpt lat="45.98528" lon="4.57735">
        <ele>607.4</ele>
        <time>2025-09-11T13:01:32Z</time>
      </trkpt>
      <trkpt lat="45.9852" lon="4.57739">
        <ele>607</ele>
        <time>2025-09-11T13:01:33Z</time>
      </trkpt>
      <trkpt lat="45.98513" lon="4.57742">
        <ele>606.6</ele>
        <time>2025-09-11T13:01:34Z</time>
      </trkpt>
      <trkpt lat="45.98504" lon="4.57745">
        <ele>606</ele>
        <time>2025-09-11T13:01:35Z</time>
      </trkpt>
      <trkpt lat="45.98496" lon="4.57749">
        <ele>605.6</ele>
        <time>2025-09-11T13:01:36Z</time>
      </trkpt>
      <trkpt lat="45.98489" lon="4.57756">
        <ele>604.8</ele>
        <time>2025-09-11T13:01:37Z</time>
      </trkpt>
      <trkpt lat="45.98478" lon="4.57774">
        <ele>604.2</ele>
        <time>2025-09-11T13:01:38Z</time>
      </trkpt>
      <trkpt lat="45.98476" lon="4.57785">
        <ele>603.6</ele>
        <time>2025-09-11T13:01:39Z</time>
      </trkpt>
      <trkpt lat="45.98473" lon="4.57798">
        <ele>602.8</ele>
        <time>2025-09-11T13:01:40Z</time>
      </trkpt>
      <trkpt lat="45.9847" lon="4.5781">
        <ele>602.2</ele>
        <time>2025-09-11T13:01:41Z</time>
      </trkpt>
      <trkpt lat="45.9847" lon="4.57823">
        <ele>601.4</ele>
        <time>2025-09-11T13:01:42Z</time>
      </trkpt>
      <trkpt lat="45.98468" lon="4.57836">
        <ele>601</ele>
        <time>2025-09-11T13:01:43Z</time>
      </trkpt>
      <trkpt lat="45.98464" lon="4.57847">
        <ele>600.4</ele>
        <time>2025-09-11T13:01:44Z</time>
      </trkpt>
      <trkpt lat="45.9846" lon="4.57859">
        <ele>599.6</ele>
        <time>2025-09-11T13:01:45Z</time>
      </trkpt>
      <trkpt lat="45.98454" lon="4.57869">
        <ele>599</ele>
        <time>2025-09-11T13:01:46Z</time>
      </trkpt>
      <trkpt lat="45.98448" lon="4.5788">
        <ele>598.6</ele>
        <time>2025-09-11T13:01:47Z</time>
      </trkpt>
      <trkpt lat="45.98441" lon="4.57889">
        <ele>597.8</ele>
        <time>2025-09-11T13:01:48Z</time>
      </trkpt>
      <trkpt lat="45.98435" lon="4.57897">
        <ele>597</ele>
        <time>2025-09-11T13:01:49Z</time>
      </trkpt>
      <trkpt lat="45.98429" lon="4.57904">
        <ele>596.2</ele>
        <time>2025-09-11T13:01:50Z</time>
      </trkpt>
      <trkpt lat="45.98424" lon="4.57911">
        <ele>595.6</ele>
        <time>2025-09-11T13:01:51Z</time>
      </trkpt>
      <trkpt lat="45.9842" lon="4.57919">
        <ele>594.8</ele>
        <time>2025-09-11T13:01:52Z</time>
      </trkpt>
      <trkpt lat="45.98417" lon="4.57925">
        <ele>594.4</ele>
        <time>2025-09-11T13:01:53Z</time>
      </trkpt>
      <trkpt lat="45.98417" lon="4.57925">
        <ele>594</ele>
        <time>2025-09-11T13:01:54Z</time>
      </trkpt>
      <trkpt lat="45.98416" lon="4.57933">
        <ele>593.6</ele>
        <time>2025-09-11T13:01:55Z</time>
      </trkpt>
      <trkpt lat="45.98416" lon="4.57938">
        <ele>593.6</ele>
        <time>2025-09-11T13:01:56Z</time>
      </trkpt>
      <trkpt lat="45.98415" lon="4.57942">
        <ele>593</ele>
        <time>2025-09-11T13:01:57Z</time>
      </trkpt>
      <trkpt lat="45.98414" lon="4.57945">
        <ele>592.6</ele>
        <time>2025-09-11T13:01:58Z</time>
      </trkpt>
      <trkpt lat="45.98414" lon="4.57946">
        <ele>592.6</ele>
        <time>2025-09-11T13:01:59Z</time>
      </trkpt>
      <trkpt lat="45.98414" lon="4.57947">
        <ele>592.2</ele>
        <time>2025-09-11T13:02:00Z</time>
      </trkpt>
      <trkpt lat="45.98414" lon="4.57946">
        <ele>591.8</ele>
        <time>2025-09-11T13:02:01Z</time>
      </trkpt>
      <trkpt lat="45.98413" lon="4.5795">
        <ele>591.2</ele>
        <time>2025-09-11T13:02:27Z</time>
      </trkpt>
      <trkpt lat="45.98414" lon="4.57953">
        <ele>591.2</ele>
        <time>2025-09-11T13:02:28Z</time>
      </trkpt>
      <trkpt lat="45.98416" lon="4.57957">
        <ele>591.2</ele>
        <time>2025-09-11T13:02:29Z</time>
      </trkpt>
      <trkpt lat="45.98417" lon="4.57962">
        <ele>591.2</ele>
        <time>2025-09-11T13:02:30Z</time>
      </trkpt>
      <trkpt lat="45.9842" lon="4.57968">
        <ele>590.8</ele>
        <time>2025-09-11T13:02:31Z</time>
      </trkpt>
      <trkpt lat="45.98422" lon="4.57974">
        <ele>590.6</ele>
        <time>2025-09-11T13:02:32Z</time>
      </trkpt>
      <trkpt lat="45.98424" lon="4.57982">
        <ele>590.2</ele>
        <time>2025-09-11T13:02:33Z</time>
      </trkpt>
      <trkpt lat="45.98426" lon="4.5799">
        <ele>589.8</ele>
        <time>2025-09-11T13:02:34Z</time>
      </trkpt>
      <trkpt lat="45.98427" lon="4.57999">
        <ele>589.4</ele>
        <time>2025-09-11T13:02:35Z</time>
      </trkpt>
      <trkpt lat="45.98428" lon="4.5801">
        <ele>588.8</ele>
        <time>2025-09-11T13:02:36Z</time>
      </trkpt>
      <trkpt lat="45.98427" lon="4.58021">
        <ele>588.4</ele>
        <time>2025-09-11T13:02:37Z</time>
      </trkpt>
      <trkpt lat="45.98425" lon="4.58031">
        <ele>587.8</ele>
        <time>2025-09-11T13:02:38Z</time>
      </trkpt>
      <trkpt lat="45.98421" lon="4.58042">
        <ele>587.4</ele>
        <time>2025-09-11T13:02:39Z</time>
      </trkpt>
      <trkpt lat="45.98417" lon="4.58052">
        <ele>586.8</ele>
        <time>2025-09-11T13:02:40Z</time>
      </trkpt>
      <trkpt lat="45.98411" lon="4.58061">
        <ele>586.2</ele>
        <time>2025-09-11T13:02:41Z</time>
      </trkpt>
      <trkpt lat="45.98404" lon="4.5807">
        <ele>585.4</ele>
        <time>2025-09-11T13:02:42Z</time>
      </trkpt>
      <trkpt lat="45.98396" lon="4.58078">
        <ele>585.2</ele>
        <time>2025-09-11T13:02:43Z</time>
      </trkpt>
      <trkpt lat="45.98388" lon="4.58084">
        <ele>584.6</ele>
        <time>2025-09-11T13:02:44Z</time>
      </trkpt>
      <trkpt lat="45.98378" lon="4.58091">
        <ele>584</ele>
        <time>2025-09-11T13:02:45Z</time>
      </trkpt>
      <trkpt lat="45.98368" lon="4.58095">
        <ele>583.4</ele>
        <time>2025-09-11T13:02:46Z</time>
      </trkpt>
      <trkpt lat="45.98359" lon="4.581">
        <ele>582.8</ele>
        <time>2025-09-11T13:02:47Z</time>
      </trkpt>
      <trkpt lat="45.98349" lon="4.58106">
        <ele>582</ele>
        <time>2025-09-11T13:02:48Z</time>
      </trkpt>
      <trkpt lat="45.9834" lon="4.58113">
        <ele>581.6</ele>
        <time>2025-09-11T13:02:49Z</time>
      </trkpt>
      <trkpt lat="45.9833" lon="4.58121">
        <ele>581</ele>
        <time>2025-09-11T13:02:50Z</time>
      </trkpt>
      <trkpt lat="45.98322" lon="4.58128">
        <ele>580.2</ele>
        <time>2025-09-11T13:02:51Z</time>
      </trkpt>
      <trkpt lat="45.98314" lon="4.58135">
        <ele>579.6</ele>
        <time>2025-09-11T13:02:52Z</time>
      </trkpt>
      <trkpt lat="45.98306" lon="4.58143">
        <ele>578.8</ele>
        <time>2025-09-11T13:02:53Z</time>
      </trkpt>
      <trkpt lat="45.98298" lon="4.58151">
        <ele>578</ele>
        <time>2025-09-11T13:02:54Z</time>
      </trkpt>
      <trkpt lat="45.9829" lon="4.58159">
        <ele>577.2</ele>
        <time>2025-09-11T13:02:55Z</time>
      </trkpt>
      <trkpt lat="45.98282" lon="4.58166">
        <ele>576.4</ele>
        <time>2025-09-11T13:02:56Z</time>
      </trkpt>
      <trkpt lat="45.98274" lon="4.58175">
        <ele>576</ele>
        <time>2025-09-11T13:02:57Z</time>
      </trkpt>
      <trkpt lat="45.98266" lon="4.58183">
        <ele>575</ele>
        <time>2025-09-11T13:02:58Z</time>
      </trkpt>
      <trkpt lat="45.98257" lon="4.58191">
        <ele>574.2</ele>
        <time>2025-09-11T13:02:59Z</time>
      </trkpt>
      <trkpt lat="45.98248" lon="4.58198">
        <ele>573.2</ele>
        <time>2025-09-11T13:03:00Z</time>
      </trkpt>
      <trkpt lat="45.98239" lon="4.58203">
        <ele>572.4</ele>
        <time>2025-09-11T13:03:01Z</time>
      </trkpt>
      <trkpt lat="45.9823" lon="4.58208">
        <ele>571.8</ele>
        <time>2025-09-11T13:03:02Z</time>
      </trkpt>
      <trkpt lat="45.9822" lon="4.58212">
        <ele>571</ele>
        <time>2025-09-11T13:03:03Z</time>
      </trkpt>
      <trkpt lat="45.9821" lon="4.58214">
        <ele>570.4</ele>
        <time>2025-09-11T13:03:04Z</time>
      </trkpt>
      <trkpt lat="45.982" lon="4.58217">
        <ele>569.8</ele>
        <time>2025-09-11T13:03:05Z</time>
      </trkpt>
      <trkpt lat="45.98189" lon="4.58218">
        <ele>569.4</ele>
        <time>2025-09-11T13:03:06Z</time>
      </trkpt>
      <trkpt lat="45.98179" lon="4.58218">
        <ele>568.8</ele>
        <time>2025-09-11T13:03:07Z</time>
      </trkpt>
      <trkpt lat="45.98168" lon="4.58219">
        <ele>567.8</ele>
        <time>2025-09-11T13:03:08Z</time>
      </trkpt>
      <trkpt lat="45.98157" lon="4.5822">
        <ele>567</ele>
        <time>2025-09-11T13:03:09Z</time>
      </trkpt>
      <trkpt lat="45.98146" lon="4.5822">
        <ele>566.2</ele>
        <time>2025-09-11T13:03:10Z</time>
      </trkpt>
      <trkpt lat="45.98136" lon="4.5822">
        <ele>565.6</ele>
        <time>2025-09-11T13:03:11Z</time>
      </trkpt>
      <trkpt lat="45.98126" lon="4.5822">
        <ele>564.8</ele>
        <time>2025-09-11T13:03:12Z</time>
      </trkpt>
      <trkpt lat="45.98116" lon="4.5822">
        <ele>564</ele>
        <time>2025-09-11T13:03:13Z</time>
      </trkpt>
      <trkpt lat="45.98108" lon="4.5822">
        <ele>563.2</ele>
        <time>2025-09-11T13:03:14Z</time>
      </trkpt>
      <trkpt lat="45.98101" lon="4.58221">
        <ele>562.8</ele>
        <time>2025-09-11T13:03:15Z</time>
      </trkpt>
      <trkpt lat="45.98095" lon="4.58222">
        <ele>562</ele>
        <time>2025-09-11T13:03:16Z</time>
      </trkpt>
      <trkpt lat="45.98089" lon="4.58222">
        <ele>561.2</ele>
        <time>2025-09-11T13:03:17Z</time>
      </trkpt>
      <trkpt lat="45.98084" lon="4.58223">
        <ele>560.8</ele>
        <time>2025-09-11T13:03:18Z</time>
      </trkpt>
      <trkpt lat="45.98078" lon="4.58223">
        <ele>560.4</ele>
        <time>2025-09-11T13:03:19Z</time>
      </trkpt>
      <trkpt lat="45.98074" lon="4.58224">
        <ele>559.8</ele>
        <time>2025-09-11T13:03:20Z</time>
      </trkpt>
      <trkpt lat="45.98069" lon="4.58225">
        <ele>559</ele>
        <time>2025-09-11T13:03:21Z</time>
      </trkpt>
      <trkpt lat="45.98064" lon="4.58225">
        <ele>558.2</ele>
        <time>2025-09-11T13:03:22Z</time>
      </trkpt>
      <trkpt lat="45.98059" lon="4.58226">
        <ele>557.6</ele>
        <time>2025-09-11T13:03:23Z</time>
      </trkpt>
      <trkpt lat="45.98055" lon="4.58227">
        <ele>557</ele>
        <time>2025-09-11T13:03:24Z</time>
      </trkpt>
      <trkpt lat="45.9805" lon="4.58227">
        <ele>556.8</ele>
        <time>2025-09-11T13:03:25Z</time>
      </trkpt>
      <trkpt lat="45.98047" lon="4.58228">
        <ele>556.4</ele>
        <time>2025-09-11T13:03:26Z</time>
      </trkpt>
      <trkpt lat="45.98042" lon="4.58228">
        <ele>556</ele>
        <time>2025-09-11T13:03:27Z</time>
      </trkpt>
      <trkpt lat="45.98038" lon="4.58229">
        <ele>555.8</ele>
        <time>2025-09-11T13:03:28Z</time>
      </trkpt>
      <trkpt lat="45.98034" lon="4.58229">
        <ele>555.4</ele>
        <time>2025-09-11T13:03:29Z</time>
      </trkpt>
      <trkpt lat="45.98029" lon="4.5823">
        <ele>555.2</ele>
        <time>2025-09-11T13:03:30Z</time>
      </trkpt>
      <trkpt lat="45.98023" lon="4.58231">
        <ele>555</ele>
        <time>2025-09-11T13:03:31Z</time>
      </trkpt>
      <trkpt lat="45.98017" lon="4.58231">
        <ele>554.6</ele>
        <time>2025-09-11T13:03:32Z</time>
      </trkpt>
      <trkpt lat="45.98011" lon="4.58233">
        <ele>554.2</ele>
        <time>2025-09-11T13:03:33Z</time>
      </trkpt>
      <trkpt lat="45.98004" lon="4.58234">
        <ele>553.8</ele>
        <time>2025-09-11T13:03:34Z</time>
      </trkpt>
      <trkpt lat="45.97997" lon="4.58234">
        <ele>553.6</ele>
        <time>2025-09-11T13:03:35Z</time>
      </trkpt>
      <trkpt lat="45.9799" lon="4.58234">
        <ele>553.2</ele>
        <time>2025-09-11T13:03:36Z</time>
      </trkpt>
      <trkpt lat="45.97982" lon="4.58236">
        <ele>552.4</ele>
        <time>2025-09-11T13:03:37Z</time>
      </trkpt>
      <trkpt lat="45.97974" lon="4.58237">
        <ele>552</ele>
        <time>2025-09-11T13:03:38Z</time>
      </trkpt>
      <trkpt lat="45.97966" lon="4.58238">
        <ele>551.6</ele>
        <time>2025-09-11T13:03:39Z</time>
      </trkpt>
      <trkpt lat="45.97957" lon="4.58239">
        <ele>551.2</ele>
        <time>2025-09-11T13:03:40Z</time>
      </trkpt>
      <trkpt lat="45.97948" lon="4.58239">
        <ele>550.6</ele>
        <time>2025-09-11T13:03:41Z</time>
      </trkpt>
      <trkpt lat="45.97939" lon="4.58242">
        <ele>549.8</ele>
        <time>2025-09-11T13:03:42Z</time>
      </trkpt>
      <trkpt lat="45.9793" lon="4.58241">
        <ele>549.4</ele>
        <time>2025-09-11T13:03:43Z</time>
      </trkpt>
      <trkpt lat="45.97921" lon="4.58247">
        <ele>548.6</ele>
        <time>2025-09-11T13:03:44Z</time>
      </trkpt>
      <trkpt lat="45.97911" lon="4.58249">
        <ele>547.8</ele>
        <time>2025-09-11T13:03:45Z</time>
      </trkpt>
      <trkpt lat="45.97903" lon="4.58256">
        <ele>547.2</ele>
        <time>2025-09-11T13:03:46Z</time>
      </trkpt>
      <trkpt lat="45.97896" lon="4.58262">
        <ele>546.6</ele>
        <time>2025-09-11T13:03:47Z</time>
      </trkpt>
      <trkpt lat="45.97889" lon="4.58268">
        <ele>546</ele>
        <time>2025-09-11T13:03:48Z</time>
      </trkpt>
      <trkpt lat="45.97882" lon="4.58272">
        <ele>545.4</ele>
        <time>2025-09-11T13:03:49Z</time>
      </trkpt>
      <trkpt lat="45.97876" lon="4.58276">
        <ele>544.8</ele>
        <time>2025-09-11T13:03:50Z</time>
      </trkpt>
      <trkpt lat="45.9787" lon="4.58282">
        <ele>544.4</ele>
        <time>2025-09-11T13:03:51Z</time>
      </trkpt>
      <trkpt lat="45.97864" lon="4.58286">
        <ele>543.8</ele>
        <time>2025-09-11T13:03:52Z</time>
      </trkpt>
      <trkpt lat="45.97859" lon="4.58291">
        <ele>543.6</ele>
        <time>2025-09-11T13:03:53Z</time>
      </trkpt>
      <trkpt lat="45.97854" lon="4.58295">
        <ele>543.2</ele>
        <time>2025-09-11T13:03:54Z</time>
      </trkpt>
      <trkpt lat="45.97849" lon="4.58299">
        <ele>542.8</ele>
        <time>2025-09-11T13:03:55Z</time>
      </trkpt>
      <trkpt lat="45.97845" lon="4.58303">
        <ele>542.6</ele>
        <time>2025-09-11T13:03:56Z</time>
      </trkpt>
      <trkpt lat="45.97841" lon="4.58305">
        <ele>542.6</ele>
        <time>2025-09-11T13:03:57Z</time>
      </trkpt>
      <trkpt lat="45.97837" lon="4.58307">
        <ele>542.2</ele>
        <time>2025-09-11T13:03:58Z</time>
      </trkpt>
      <trkpt lat="45.97834" lon="4.58309">
        <ele>542.2</ele>
        <time>2025-09-11T13:03:59Z</time>
      </trkpt>
      <trkpt lat="45.97832" lon="4.58312">
        <ele>542</ele>
        <time>2025-09-11T13:04:00Z</time>
      </trkpt>
      <trkpt lat="45.97829" lon="4.58315">
        <ele>542</ele>
        <time>2025-09-11T13:04:01Z</time>
      </trkpt>
      <trkpt lat="45.97827" lon="4.58319">
        <ele>542</ele>
        <time>2025-09-11T13:04:02Z</time>
      </trkpt>
      <trkpt lat="45.97824" lon="4.58322">
        <ele>542</ele>
        <time>2025-09-11T13:04:03Z</time>
      </trkpt>
      <trkpt lat="45.97823" lon="4.58328">
        <ele>542</ele>
        <time>2025-09-11T13:04:04Z</time>
      </trkpt>
      <trkpt lat="45.97824" lon="4.58333">
        <ele>542</ele>
        <time>2025-09-11T13:04:05Z</time>
      </trkpt>
      <trkpt lat="45.97824" lon="4.58338">
        <ele>542</ele>
        <time>2025-09-11T13:04:06Z</time>
      </trkpt>
      <trkpt lat="45.97824" lon="4.58345">
        <ele>542</ele>
        <time>2025-09-11T13:04:07Z</time>
      </trkpt>
      <trkpt lat="45.97823" lon="4.58351">
        <ele>541.6</ele>
        <time>2025-09-11T13:04:08Z</time>
      </trkpt>
      <trkpt lat="45.97822" lon="4.58357">
        <ele>541.6</ele>
        <time>2025-09-11T13:04:09Z</time>
      </trkpt>
      <trkpt lat="45.97822" lon="4.58363">
        <ele>541.2</ele>
        <time>2025-09-11T13:04:10Z</time>
      </trkpt>
      <trkpt lat="45.97822" lon="4.58371">
        <ele>541</ele>
        <time>2025-09-11T13:04:11Z</time>
      </trkpt>
      <trkpt lat="45.97822" lon="4.58379">
        <ele>541</ele>
        <time>2025-09-11T13:04:12Z</time>
      </trkpt>
      <trkpt lat="45.97823" lon="4.58386">
        <ele>541.4</ele>
        <time>2025-09-11T13:04:13Z</time>
      </trkpt>
      <trkpt lat="45.97823" lon="4.58395">
        <ele>541.4</ele>
        <time>2025-09-11T13:04:14Z</time>
      </trkpt>
      <trkpt lat="45.97823" lon="4.58404">
        <ele>541.2</ele>
        <time>2025-09-11T13:04:15Z</time>
      </trkpt>
      <trkpt lat="45.97823" lon="4.58413">
        <ele>541.2</ele>
        <time>2025-09-11T13:04:16Z</time>
      </trkpt>
      <trkpt lat="45.97823" lon="4.58423">
        <ele>540.8</ele>
        <time>2025-09-11T13:04:17Z</time>
      </trkpt>
      <trkpt lat="45.97823" lon="4.58433">
        <ele>540.4</ele>
        <time>2025-09-11T13:04:18Z</time>
      </trkpt>
      <trkpt lat="45.97823" lon="4.58443">
        <ele>539.8</ele>
        <time>2025-09-11T13:04:19Z</time>
      </trkpt>
      <trkpt lat="45.97823" lon="4.58454">
        <ele>539.4</ele>
        <time>2025-09-11T13:04:20Z</time>
      </trkpt>
      <trkpt lat="45.97823" lon="4.58464">
        <ele>538.8</ele>
        <time>2025-09-11T13:04:21Z</time>
      </trkpt>
      <trkpt lat="45.97823" lon="4.58475">
        <ele>538.4</ele>
        <time>2025-09-11T13:04:22Z</time>
      </trkpt>
      <trkpt lat="45.97822" lon="4.58486">
        <ele>537.8</ele>
        <time>2025-09-11T13:04:23Z</time>
      </trkpt>
      <trkpt lat="45.97822" lon="4.58496">
        <ele>537.4</ele>
        <time>2025-09-11T13:04:24Z</time>
      </trkpt>
      <trkpt lat="45.97822" lon="4.58506">
        <ele>537</ele>
        <time>2025-09-11T13:04:25Z</time>
      </trkpt>
      <trkpt lat="45.97822" lon="4.58516">
        <ele>536.6</ele>
        <time>2025-09-11T13:04:26Z</time>
      </trkpt>
      <trkpt lat="45.97824" lon="4.58526">
        <ele>536.2</ele>
        <time>2025-09-11T13:04:27Z</time>
      </trkpt>
      <trkpt lat="45.97827" lon="4.58535">
        <ele>535.6</ele>
        <time>2025-09-11T13:04:28Z</time>
      </trkpt>
      <trkpt lat="45.97832" lon="4.58544">
        <ele>535.2</ele>
        <time>2025-09-11T13:04:29Z</time>
      </trkpt>
      <trkpt lat="45.97838" lon="4.5855">
        <ele>534.8</ele>
        <time>2025-09-11T13:04:30Z</time>
      </trkpt>
      <trkpt lat="45.97844" lon="4.58553">
        <ele>534.2</ele>
        <time>2025-09-11T13:04:31Z</time>
      </trkpt>
      <trkpt lat="45.97852" lon="4.58555">
        <ele>533.8</ele>
        <time>2025-09-11T13:04:32Z</time>
      </trkpt>
      <trkpt lat="45.9786" lon="4.58555">
        <ele>533.4</ele>
        <time>2025-09-11T13:04:33Z</time>
      </trkpt>
      <trkpt lat="45.97868" lon="4.58556">
        <ele>533</ele>
        <time>2025-09-11T13:04:34Z</time>
      </trkpt>
      <trkpt lat="45.97876" lon="4.58557">
        <ele>532.4</ele>
        <time>2025-09-11T13:04:35Z</time>
      </trkpt>
      <trkpt lat="45.97884" lon="4.58556">
        <ele>531.8</ele>
        <time>2025-09-11T13:04:36Z</time>
      </trkpt>
      <trkpt lat="45.97892" lon="4.58555">
        <ele>531.2</ele>
        <time>2025-09-11T13:04:37Z</time>
      </trkpt>
      <trkpt lat="45.97901" lon="4.58555">
        <ele>530.8</ele>
        <time>2025-09-11T13:04:38Z</time>
      </trkpt>
      <trkpt lat="45.97911" lon="4.58554">
        <ele>530.6</ele>
        <time>2025-09-11T13:04:39Z</time>
      </trkpt>
      <trkpt lat="45.9792" lon="4.58553">
        <ele>530</ele>
        <time>2025-09-11T13:04:40Z</time>
      </trkpt>
      <trkpt lat="45.97929" lon="4.58553">
        <ele>529.4</ele>
        <time>2025-09-11T13:04:41Z</time>
      </trkpt>
      <trkpt lat="45.97938" lon="4.58553">
        <ele>528.8</ele>
        <time>2025-09-11T13:04:42Z</time>
      </trkpt>
      <trkpt lat="45.97946" lon="4.58553">
        <ele>528.2</ele>
        <time>2025-09-11T13:04:43Z</time>
      </trkpt>
      <trkpt lat="45.97955" lon="4.58553">
        <ele>527.8</ele>
        <time>2025-09-11T13:04:44Z</time>
      </trkpt>
      <trkpt lat="45.97963" lon="4.58551">
        <ele>527.4</ele>
        <time>2025-09-11T13:04:45Z</time>
      </trkpt>
      <trkpt lat="45.97971" lon="4.58552">
        <ele>527</ele>
        <time>2025-09-11T13:04:46Z</time>
      </trkpt>
      <trkpt lat="45.9798" lon="4.58552">
        <ele>526.6</ele>
        <time>2025-09-11T13:04:47Z</time>
      </trkpt>
      <trkpt lat="45.97988" lon="4.58551">
        <ele>525.8</ele>
        <time>2025-09-11T13:04:48Z</time>
      </trkpt>
      <trkpt lat="45.97997" lon="4.58551">
        <ele>525.2</ele>
        <time>2025-09-11T13:04:49Z</time>
      </trkpt>
      <trkpt lat="45.98006" lon="4.58551">
        <ele>524.2</ele>
        <time>2025-09-11T13:04:50Z</time>
      </trkpt>
      <trkpt lat="45.98015" lon="4.58551">
        <ele>523.4</ele>
        <time>2025-09-11T13:04:51Z</time>
      </trkpt>
      <trkpt lat="45.98023" lon="4.58551">
        <ele>522.8</ele>
        <time>2025-09-11T13:04:52Z</time>
      </trkpt>
      <trkpt lat="45.98032" lon="4.58551">
        <ele>522.2</ele>
        <time>2025-09-11T13:04:53Z</time>
      </trkpt>
      <trkpt lat="45.9804" lon="4.58552">
        <ele>521.4</ele>
        <time>2025-09-11T13:04:54Z</time>
      </trkpt>
      <trkpt lat="45.98049" lon="4.58552">
        <ele>520.8</ele>
        <time>2025-09-11T13:04:55Z</time>
      </trkpt>
      <trkpt lat="45.98058" lon="4.58554">
        <ele>520</ele>
        <time>2025-09-11T13:04:56Z</time>
      </trkpt>
      <trkpt lat="45.98067" lon="4.58554">
        <ele>519.4</ele>
        <time>2025-09-11T13:04:57Z</time>
      </trkpt>
      <trkpt lat="45.98076" lon="4.58555">
        <ele>519</ele>
        <time>2025-09-11T13:04:58Z</time>
      </trkpt>
      <trkpt lat="45.98086" lon="4.58558">
        <ele>518.6</ele>
        <time>2025-09-11T13:04:59Z</time>
      </trkpt>
      <trkpt lat="45.98096" lon="4.5856">
        <ele>518</ele>
        <time>2025-09-11T13:05:00Z</time>
      </trkpt>
      <trkpt lat="45.98105" lon="4.58561">
        <ele>517.6</ele>
        <time>2025-09-11T13:05:01Z</time>
      </trkpt>
      <trkpt lat="45.98115" lon="4.58563">
        <ele>516.8</ele>
        <time>2025-09-11T13:05:02Z</time>
      </trkpt>
      <trkpt lat="45.98124" lon="4.58566">
        <ele>516.2</ele>
        <time>2025-09-11T13:05:03Z</time>
      </trkpt>
      <trkpt lat="45.98134" lon="4.58567">
        <ele>516</ele>
        <time>2025-09-11T13:05:04Z</time>
      </trkpt>
      <trkpt lat="45.98143" lon="4.58569">
        <ele>515.2</ele>
        <time>2025-09-11T13:05:05Z</time>
      </trkpt>
      <trkpt lat="45.98153" lon="4.58571">
        <ele>514.2</ele>
        <time>2025-09-11T13:05:06Z</time>
      </trkpt>
      <trkpt lat="45.98162" lon="4.58573">
        <ele>513.6</ele>
        <time>2025-09-11T13:05:07Z</time>
      </trkpt>
      <trkpt lat="45.98171" lon="4.58575">
        <ele>512.8</ele>
        <time>2025-09-11T13:05:08Z</time>
      </trkpt>
      <trkpt lat="45.98181" lon="4.58577">
        <ele>512.4</ele>
        <time>2025-09-11T13:05:09Z</time>
      </trkpt>
      <trkpt lat="45.98191" lon="4.58578">
        <ele>511.6</ele>
        <time>2025-09-11T13:05:10Z</time>
      </trkpt>
      <trkpt lat="45.982" lon="4.5858">
        <ele>511.2</ele>
        <time>2025-09-11T13:05:11Z</time>
      </trkpt>
      <trkpt lat="45.9821" lon="4.58582">
        <ele>510.2</ele>
        <time>2025-09-11T13:05:12Z</time>
      </trkpt>
      <trkpt lat="45.9822" lon="4.58583">
        <ele>509.4</ele>
        <time>2025-09-11T13:05:13Z</time>
      </trkpt>
      <trkpt lat="45.98229" lon="4.58585">
        <ele>508.6</ele>
        <time>2025-09-11T13:05:14Z</time>
      </trkpt>
      <trkpt lat="45.98238" lon="4.58586">
        <ele>507.8</ele>
        <time>2025-09-11T13:05:15Z</time>
      </trkpt>
      <trkpt lat="45.98247" lon="4.58588">
        <ele>507.2</ele>
        <time>2025-09-11T13:05:16Z</time>
      </trkpt>
      <trkpt lat="45.98256" lon="4.5859">
        <ele>506.6</ele>
        <time>2025-09-11T13:05:17Z</time>
      </trkpt>
      <trkpt lat="45.98265" lon="4.5859">
        <ele>506</ele>
        <time>2025-09-11T13:05:18Z</time>
      </trkpt>
      <trkpt lat="45.98274" lon="4.58591">
        <ele>505.6</ele>
        <time>2025-09-11T13:05:19Z</time>
      </trkpt>
      <trkpt lat="45.98285" lon="4.58589">
        <ele>505</ele>
        <time>2025-09-11T13:05:20Z</time>
      </trkpt>
      <trkpt lat="45.98294" lon="4.58589">
        <ele>504.4</ele>
        <time>2025-09-11T13:05:21Z</time>
      </trkpt>
      <trkpt lat="45.98303" lon="4.58589">
        <ele>503.6</ele>
        <time>2025-09-11T13:05:22Z</time>
      </trkpt>
      <trkpt lat="45.98313" lon="4.58588">
        <ele>503</ele>
        <time>2025-09-11T13:05:23Z</time>
      </trkpt>
      <trkpt lat="45.98322" lon="4.58587">
        <ele>502.6</ele>
        <time>2025-09-11T13:05:24Z</time>
      </trkpt>
      <trkpt lat="45.98331" lon="4.58586">
        <ele>502.2</ele>
        <time>2025-09-11T13:05:25Z</time>
      </trkpt>
      <trkpt lat="45.98339" lon="4.58586">
        <ele>501.2</ele>
        <time>2025-09-11T13:05:26Z</time>
      </trkpt>
      <trkpt lat="45.98348" lon="4.58585">
        <ele>500.8</ele>
        <time>2025-09-11T13:05:27Z</time>
      </trkpt>
      <trkpt lat="45.98356" lon="4.58582">
        <ele>500.2</ele>
        <time>2025-09-11T13:05:28Z</time>
      </trkpt>
      <trkpt lat="45.98362" lon="4.58582">
        <ele>499.6</ele>
        <time>2025-09-11T13:05:29Z</time>
      </trkpt>
      <trkpt lat="45.98368" lon="4.58581">
        <ele>499.2</ele>
        <time>2025-09-11T13:05:30Z</time>
      </trkpt>
      <trkpt lat="45.98373" lon="4.58583">
        <ele>498.6</ele>
        <time>2025-09-11T13:05:31Z</time>
      </trkpt>
      <trkpt lat="45.98378" lon="4.5859">
        <ele>498.2</ele>
        <time>2025-09-11T13:05:32Z</time>
      </trkpt>
      <trkpt lat="45.98381" lon="4.58597">
        <ele>497.8</ele>
        <time>2025-09-11T13:05:33Z</time>
      </trkpt>
      <trkpt lat="45.98381" lon="4.58606">
        <ele>497.4</ele>
        <time>2025-09-11T13:05:34Z</time>
      </trkpt>
      <trkpt lat="45.98377" lon="4.58615">
        <ele>497</ele>
        <time>2025-09-11T13:05:35Z</time>
      </trkpt>
      <trkpt lat="45.98373" lon="4.58622">
        <ele>496.2</ele>
        <time>2025-09-11T13:05:36Z</time>
      </trkpt>
      <trkpt lat="45.98368" lon="4.5863">
        <ele>495.8</ele>
        <time>2025-09-11T13:05:37Z</time>
      </trkpt>
      <trkpt lat="45.98362" lon="4.58636">
        <ele>495.4</ele>
        <time>2025-09-11T13:05:38Z</time>
      </trkpt>
      <trkpt lat="45.98356" lon="4.58642">
        <ele>494.8</ele>
        <time>2025-09-11T13:05:39Z</time>
      </trkpt>
      <trkpt lat="45.98349" lon="4.58647">
        <ele>493.8</ele>
        <time>2025-09-11T13:05:40Z</time>
      </trkpt>
      <trkpt lat="45.98343" lon="4.58653">
        <ele>493</ele>
        <time>2025-09-11T13:05:41Z</time>
      </trkpt>
      <trkpt lat="45.98337" lon="4.58659">
        <ele>492.8</ele>
        <time>2025-09-11T13:05:42Z</time>
      </trkpt>
      <trkpt lat="45.98331" lon="4.58664">
        <ele>492.8</ele>
        <time>2025-09-11T13:05:43Z</time>
      </trkpt>
      <trkpt lat="45.98324" lon="4.5867">
        <ele>492.8</ele>
        <time>2025-09-11T13:05:44Z</time>
      </trkpt>
      <trkpt lat="45.98317" lon="4.58677">
        <ele>492.2</ele>
        <time>2025-09-11T13:05:45Z</time>
      </trkpt>
      <trkpt lat="45.9831" lon="4.58682">
        <ele>491.6</ele>
        <time>2025-09-11T13:05:46Z</time>
      </trkpt>
      <trkpt lat="45.98302" lon="4.58689">
        <ele>491.2</ele>
        <time>2025-09-11T13:05:47Z</time>
      </trkpt>
      <trkpt lat="45.98295" lon="4.58696">
        <ele>490.8</ele>
        <time>2025-09-11T13:05:48Z</time>
      </trkpt>
      <trkpt lat="45.98287" lon="4.58702">
        <ele>490.4</ele>
        <time>2025-09-11T13:05:49Z</time>
      </trkpt>
      <trkpt lat="45.98279" lon="4.58709">
        <ele>489.8</ele>
        <time>2025-09-11T13:05:50Z</time>
      </trkpt>
      <trkpt lat="45.98272" lon="4.58716">
        <ele>489.2</ele>
        <time>2025-09-11T13:05:51Z</time>
      </trkpt>
      <trkpt lat="45.98263" lon="4.58723">
        <ele>488.6</ele>
        <time>2025-09-11T13:05:52Z</time>
      </trkpt>
      <trkpt lat="45.98255" lon="4.58729">
        <ele>488</ele>
        <time>2025-09-11T13:05:53Z</time>
      </trkpt>
      <trkpt lat="45.98247" lon="4.58736">
        <ele>487.4</ele>
        <time>2025-09-11T13:05:54Z</time>
      </trkpt>
      <trkpt lat="45.98238" lon="4.58744">
        <ele>486.8</ele>
        <time>2025-09-11T13:05:55Z</time>
      </trkpt>
      <trkpt lat="45.98229" lon="4.58751">
        <ele>486.4</ele>
        <time>2025-09-11T13:05:56Z</time>
      </trkpt>
      <trkpt lat="45.9822" lon="4.58759">
        <ele>486</ele>
        <time>2025-09-11T13:05:57Z</time>
      </trkpt>
      <trkpt lat="45.98211" lon="4.58766">
        <ele>485.6</ele>
        <time>2025-09-11T13:05:58Z</time>
      </trkpt>
      <trkpt lat="45.98203" lon="4.58774">
        <ele>485.2</ele>
        <time>2025-09-11T13:05:59Z</time>
      </trkpt>
      <trkpt lat="45.98195" lon="4.58781">
        <ele>484.6</ele>
        <time>2025-09-11T13:06:00Z</time>
      </trkpt>
      <trkpt lat="45.98187" lon="4.58789">
        <ele>484</ele>
        <time>2025-09-11T13:06:01Z</time>
      </trkpt>
      <trkpt lat="45.98178" lon="4.58797">
        <ele>483.6</ele>
        <time>2025-09-11T13:06:02Z</time>
      </trkpt>
      <trkpt lat="45.98169" lon="4.58805">
        <ele>483</ele>
        <time>2025-09-11T13:06:03Z</time>
      </trkpt>
      <trkpt lat="45.9816" lon="4.58812">
        <ele>482.4</ele>
        <time>2025-09-11T13:06:04Z</time>
      </trkpt>
      <trkpt lat="45.98152" lon="4.58818">
        <ele>481.8</ele>
        <time>2025-09-11T13:06:05Z</time>
      </trkpt>
      <trkpt lat="45.98145" lon="4.58824">
        <ele>481.4</ele>
        <time>2025-09-11T13:06:06Z</time>
      </trkpt>
      <trkpt lat="45.98137" lon="4.5883">
        <ele>481</ele>
        <time>2025-09-11T13:06:07Z</time>
      </trkpt>
      <trkpt lat="45.9813" lon="4.58837">
        <ele>480.4</ele>
        <time>2025-09-11T13:06:08Z</time>
      </trkpt>
      <trkpt lat="45.98122" lon="4.58843">
        <ele>480.2</ele>
        <time>2025-09-11T13:06:09Z</time>
      </trkpt>
      <trkpt lat="45.98115" lon="4.58849">
        <ele>479.6</ele>
        <time>2025-09-11T13:06:10Z</time>
      </trkpt>
      <trkpt lat="45.98109" lon="4.58856">
        <ele>479</ele>
        <time>2025-09-11T13:06:11Z</time>
      </trkpt>
      <trkpt lat="45.98104" lon="4.58865">
        <ele>478.6</ele>
        <time>2025-09-11T13:06:12Z</time>
      </trkpt>
      <trkpt lat="45.98101" lon="4.58875">
        <ele>478.2</ele>
        <time>2025-09-11T13:06:13Z</time>
      </trkpt>
      <trkpt lat="45.98098" lon="4.58886">
        <ele>477.8</ele>
        <time>2025-09-11T13:06:14Z</time>
      </trkpt>
      <trkpt lat="45.98097" lon="4.58899">
        <ele>477.4</ele>
        <time>2025-09-11T13:06:15Z</time>
      </trkpt>
      <trkpt lat="45.98097" lon="4.58911">
        <ele>476.8</ele>
        <time>2025-09-11T13:06:16Z</time>
      </trkpt>
      <trkpt lat="45.98097" lon="4.58923">
        <ele>476.2</ele>
        <time>2025-09-11T13:06:17Z</time>
      </trkpt>
      <trkpt lat="45.98099" lon="4.58936">
        <ele>476</ele>
        <time>2025-09-11T13:06:18Z</time>
      </trkpt>
      <trkpt lat="45.981" lon="4.58949">
        <ele>475.6</ele>
        <time>2025-09-11T13:06:19Z</time>
      </trkpt>
      <trkpt lat="45.98102" lon="4.58961">
        <ele>475.2</ele>
        <time>2025-09-11T13:06:20Z</time>
      </trkpt>
      <trkpt lat="45.98102" lon="4.58974">
        <ele>474.4</ele>
        <time>2025-09-11T13:06:21Z</time>
      </trkpt>
      <trkpt lat="45.981" lon="4.58987">
        <ele>474</ele>
        <time>2025-09-11T13:06:22Z</time>
      </trkpt>
      <trkpt lat="45.98098" lon="4.58999">
        <ele>473.6</ele>
        <time>2025-09-11T13:06:23Z</time>
      </trkpt>
      <trkpt lat="45.98095" lon="4.59011">
        <ele>473</ele>
        <time>2025-09-11T13:06:24Z</time>
      </trkpt>
      <trkpt lat="45.98091" lon="4.59025">
        <ele>472.4</ele>
        <time>2025-09-11T13:06:25Z</time>
      </trkpt>
      <trkpt lat="45.98087" lon="4.59037">
        <ele>472</ele>
        <time>2025-09-11T13:06:26Z</time>
      </trkpt>
      <trkpt lat="45.98083" lon="4.59049">
        <ele>471.4</ele>
        <time>2025-09-11T13:06:27Z</time>
      </trkpt>
      <trkpt lat="45.98078" lon="4.59061">
        <ele>470.8</ele>
        <time>2025-09-11T13:06:28Z</time>
      </trkpt>
      <trkpt lat="45.98074" lon="4.59072">
        <ele>470.4</ele>
        <time>2025-09-11T13:06:29Z</time>
      </trkpt>
      <trkpt lat="45.98069" lon="4.59083">
        <ele>469.6</ele>
        <time>2025-09-11T13:06:30Z</time>
      </trkpt>
      <trkpt lat="45.98064" lon="4.59093">
        <ele>469</ele>
        <time>2025-09-11T13:06:31Z</time>
      </trkpt>
      <trkpt lat="45.98059" lon="4.59103">
        <ele>468.6</ele>
        <time>2025-09-11T13:06:32Z</time>
      </trkpt>
      <trkpt lat="45.98053" lon="4.59112">
        <ele>467.8</ele>
        <time>2025-09-11T13:06:33Z</time>
      </trkpt>
      <trkpt lat="45.98048" lon="4.59121">
        <ele>467.4</ele>
        <time>2025-09-11T13:06:34Z</time>
      </trkpt>
      <trkpt lat="45.98038" lon="4.59137">
        <ele>466.8</ele>
        <time>2025-09-11T13:06:35Z</time>
      </trkpt>
      <trkpt lat="45.98032" lon="4.59145">
        <ele>466.2</ele>
        <time>2025-09-11T13:06:36Z</time>
      </trkpt>
      <trkpt lat="45.98025" lon="4.59153">
        <ele>465.6</ele>
        <time>2025-09-11T13:06:37Z</time>
      </trkpt>
      <trkpt lat="45.98018" lon="4.5916">
        <ele>465.2</ele>
        <time>2025-09-11T13:06:38Z</time>
      </trkpt>
      <trkpt lat="45.9801" lon="4.59166">
        <ele>464.6</ele>
        <time>2025-09-11T13:06:39Z</time>
      </trkpt>
      <trkpt lat="45.98002" lon="4.59172">
        <ele>464.2</ele>
        <time>2025-09-11T13:06:40Z</time>
      </trkpt>
      <trkpt lat="45.97994" lon="4.59179">
        <ele>463.8</ele>
        <time>2025-09-11T13:06:41Z</time>
      </trkpt>
      <trkpt lat="45.97988" lon="4.59185">
        <ele>463.2</ele>
        <time>2025-09-11T13:06:42Z</time>
      </trkpt>
      <trkpt lat="45.9798" lon="4.59192">
        <ele>462.4</ele>
        <time>2025-09-11T13:06:43Z</time>
      </trkpt>
      <trkpt lat="45.97974" lon="4.592">
        <ele>462</ele>
        <time>2025-09-11T13:06:44Z</time>
      </trkpt>
      <trkpt lat="45.97969" lon="4.5921">
        <ele>461.4</ele>
        <time>2025-09-11T13:06:45Z</time>
      </trkpt>
      <trkpt lat="45.97966" lon="4.5922">
        <ele>460.8</ele>
        <time>2025-09-11T13:06:46Z</time>
      </trkpt>
      <trkpt lat="45.97966" lon="4.5922">
        <ele>460.2</ele>
        <time>2025-09-11T13:06:47Z</time>
      </trkpt>
      <trkpt lat="45.97964" lon="4.59232">
        <ele>459.8</ele>
        <time>2025-09-11T13:06:48Z</time>
      </trkpt>
      <trkpt lat="45.97963" lon="4.59244">
        <ele>459.2</ele>
        <time>2025-09-11T13:06:49Z</time>
      </trkpt>
      <trkpt lat="45.97962" lon="4.59257">
        <ele>459.2</ele>
        <time>2025-09-11T13:06:50Z</time>
      </trkpt>
      <trkpt lat="45.97963" lon="4.5927">
        <ele>458.6</ele>
        <time>2025-09-11T13:06:51Z</time>
      </trkpt>
      <trkpt lat="45.97965" lon="4.59282">
        <ele>458.2</ele>
        <time>2025-09-11T13:06:52Z</time>
      </trkpt>
      <trkpt lat="45.97967" lon="4.59294">
        <ele>457.8</ele>
        <time>2025-09-11T13:06:53Z</time>
      </trkpt>
      <trkpt lat="45.9797" lon="4.59306">
        <ele>457</ele>
        <time>2025-09-11T13:06:54Z</time>
      </trkpt>
      <trkpt lat="45.97973" lon="4.59319">
        <ele>456.6</ele>
        <time>2025-09-11T13:06:55Z</time>
      </trkpt>
      <trkpt lat="45.97976" lon="4.59332">
        <ele>456.2</ele>
        <time>2025-09-11T13:06:56Z</time>
      </trkpt>
      <trkpt lat="45.97978" lon="4.59344">
        <ele>455.8</ele>
        <time>2025-09-11T13:06:57Z</time>
      </trkpt>
      <trkpt lat="45.9798" lon="4.59355">
        <ele>455.2</ele>
        <time>2025-09-11T13:06:58Z</time>
      </trkpt>
      <trkpt lat="45.97982" lon="4.59367">
        <ele>454.8</ele>
        <time>2025-09-11T13:06:59Z</time>
      </trkpt>
      <trkpt lat="45.97983" lon="4.59379">
        <ele>454.2</ele>
        <time>2025-09-11T13:07:00Z</time>
      </trkpt>
      <trkpt lat="45.97984" lon="4.59391">
        <ele>453.6</ele>
        <time>2025-09-11T13:07:01Z</time>
      </trkpt>
      <trkpt lat="45.97982" lon="4.59403">
        <ele>453</ele>
        <time>2025-09-11T13:07:02Z</time>
      </trkpt>
      <trkpt lat="45.9798" lon="4.59415">
        <ele>452.4</ele>
        <time>2025-09-11T13:07:03Z</time>
      </trkpt>
      <trkpt lat="45.97976" lon="4.59427">
        <ele>452</ele>
        <time>2025-09-11T13:07:04Z</time>
      </trkpt>
      <trkpt lat="45.97972" lon="4.59439">
        <ele>451.6</ele>
        <time>2025-09-11T13:07:05Z</time>
      </trkpt>
      <trkpt lat="45.97966" lon="4.59449">
        <ele>451</ele>
        <time>2025-09-11T13:07:06Z</time>
      </trkpt>
      <trkpt lat="45.97961" lon="4.59459">
        <ele>450.6</ele>
        <time>2025-09-11T13:07:07Z</time>
      </trkpt>
      <trkpt lat="45.97956" lon="4.5947">
        <ele>450.2</ele>
        <time>2025-09-11T13:07:08Z</time>
      </trkpt>
      <trkpt lat="45.97952" lon="4.59481">
        <ele>449.8</ele>
        <time>2025-09-11T13:07:09Z</time>
      </trkpt>
      <trkpt lat="45.97949" lon="4.59493">
        <ele>448.8</ele>
        <time>2025-09-11T13:07:10Z</time>
      </trkpt>
      <trkpt lat="45.97947" lon="4.59505">
        <ele>448.4</ele>
        <time>2025-09-11T13:07:11Z</time>
      </trkpt>
      <trkpt lat="45.97945" lon="4.59518">
        <ele>447.8</ele>
        <time>2025-09-11T13:07:12Z</time>
      </trkpt>
      <trkpt lat="45.97944" lon="4.59529">
        <ele>447.2</ele>
        <time>2025-09-11T13:07:13Z</time>
      </trkpt>
      <trkpt lat="45.97943" lon="4.5954">
        <ele>446.4</ele>
        <time>2025-09-11T13:07:14Z</time>
      </trkpt>
      <trkpt lat="45.97942" lon="4.5955">
        <ele>445.8</ele>
        <time>2025-09-11T13:07:15Z</time>
      </trkpt>
      <trkpt lat="45.9794" lon="4.5956">
        <ele>445.2</ele>
        <time>2025-09-11T13:07:16Z</time>
      </trkpt>
      <trkpt lat="45.97937" lon="4.59568">
        <ele>444.8</ele>
        <time>2025-09-11T13:07:17Z</time>
      </trkpt>
      <trkpt lat="45.97932" lon="4.59577">
        <ele>444.2</ele>
        <time>2025-09-11T13:07:18Z</time>
      </trkpt>
      <trkpt lat="45.97927" lon="4.59585">
        <ele>443.8</ele>
        <time>2025-09-11T13:07:19Z</time>
      </trkpt>
      <trkpt lat="45.97921" lon="4.59593">
        <ele>443.4</ele>
        <time>2025-09-11T13:07:20Z</time>
      </trkpt>
      <trkpt lat="45.97913" lon="4.596">
        <ele>442.6</ele>
        <time>2025-09-11T13:07:21Z</time>
      </trkpt>
      <trkpt lat="45.97905" lon="4.59605">
        <ele>442</ele>
        <time>2025-09-11T13:07:22Z</time>
      </trkpt>
      <trkpt lat="45.97896" lon="4.59608">
        <ele>441.4</ele>
        <time>2025-09-11T13:07:23Z</time>
      </trkpt>
      <trkpt lat="45.97887" lon="4.59611">
        <ele>440.6</ele>
        <time>2025-09-11T13:07:24Z</time>
      </trkpt>
      <trkpt lat="45.97878" lon="4.59615">
        <ele>440.2</ele>
        <time>2025-09-11T13:07:25Z</time>
      </trkpt>
      <trkpt lat="45.97869" lon="4.59619">
        <ele>439.8</ele>
        <time>2025-09-11T13:07:26Z</time>
      </trkpt>
      <trkpt lat="45.9786" lon="4.59624">
        <ele>439.4</ele>
        <time>2025-09-11T13:07:27Z</time>
      </trkpt>
      <trkpt lat="45.9785" lon="4.59631">
        <ele>439</ele>
        <time>2025-09-11T13:07:28Z</time>
      </trkpt>
      <trkpt lat="45.97842" lon="4.59637">
        <ele>438.4</ele>
        <time>2025-09-11T13:07:29Z</time>
      </trkpt>
      <trkpt lat="45.97833" lon="4.59646">
        <ele>437.8</ele>
        <time>2025-09-11T13:07:30Z</time>
      </trkpt>
      <trkpt lat="45.97824" lon="4.59656">
        <ele>437.4</ele>
        <time>2025-09-11T13:07:31Z</time>
      </trkpt>
      <trkpt lat="45.97816" lon="4.59666">
        <ele>436.8</ele>
        <time>2025-09-11T13:07:32Z</time>
      </trkpt>
      <trkpt lat="45.97809" lon="4.59678">
        <ele>436.2</ele>
        <time>2025-09-11T13:07:33Z</time>
      </trkpt>
      <trkpt lat="45.97802" lon="4.59692">
        <ele>435.6</ele>
        <time>2025-09-11T13:07:34Z</time>
      </trkpt>
      <trkpt lat="45.97796" lon="4.59706">
        <ele>435</ele>
        <time>2025-09-11T13:07:35Z</time>
      </trkpt>
      <trkpt lat="45.97792" lon="4.59721">
        <ele>434.6</ele>
        <time>2025-09-11T13:07:36Z</time>
      </trkpt>
      <trkpt lat="45.97788" lon="4.59737">
        <ele>433.8</ele>
        <time>2025-09-11T13:07:37Z</time>
      </trkpt>
      <trkpt lat="45.97786" lon="4.59753">
        <ele>432.8</ele>
        <time>2025-09-11T13:07:38Z</time>
      </trkpt>
      <trkpt lat="45.97783" lon="4.59769">
        <ele>431.8</ele>
        <time>2025-09-11T13:07:39Z</time>
      </trkpt>
      <trkpt lat="45.97781" lon="4.59786">
        <ele>430.8</ele>
        <time>2025-09-11T13:07:40Z</time>
      </trkpt>
      <trkpt lat="45.97779" lon="4.59803">
        <ele>430</ele>
        <time>2025-09-11T13:07:41Z</time>
      </trkpt>
      <trkpt lat="45.97778" lon="4.59819">
        <ele>429.2</ele>
        <time>2025-09-11T13:07:42Z</time>
      </trkpt>
      <trkpt lat="45.97775" lon="4.59835">
        <ele>428.2</ele>
        <time>2025-09-11T13:07:43Z</time>
      </trkpt>
      <trkpt lat="45.97773" lon="4.59852">
        <ele>427.4</ele>
        <time>2025-09-11T13:07:44Z</time>
      </trkpt>
      <trkpt lat="45.97771" lon="4.59867">
        <ele>426.6</ele>
        <time>2025-09-11T13:07:45Z</time>
      </trkpt>
      <trkpt lat="45.97769" lon="4.59883">
        <ele>426</ele>
        <time>2025-09-11T13:07:46Z</time>
      </trkpt>
      <trkpt lat="45.97766" lon="4.59899">
        <ele>425.6</ele>
        <time>2025-09-11T13:07:47Z</time>
      </trkpt>
      <trkpt lat="45.97765" lon="4.59914">
        <ele>425</ele>
        <time>2025-09-11T13:07:48Z</time>
      </trkpt>
      <trkpt lat="45.97763" lon="4.59928">
        <ele>424.2</ele>
        <time>2025-09-11T13:07:49Z</time>
      </trkpt>
      <trkpt lat="45.97761" lon="4.59943">
        <ele>423.4</ele>
        <time>2025-09-11T13:07:50Z</time>
      </trkpt>
      <trkpt lat="45.97759" lon="4.59957">
        <ele>422.6</ele>
        <time>2025-09-11T13:07:51Z</time>
      </trkpt>
      <trkpt lat="45.97758" lon="4.59971">
        <ele>421.8</ele>
        <time>2025-09-11T13:07:52Z</time>
      </trkpt>
      <trkpt lat="45.97756" lon="4.59986">
        <ele>421.2</ele>
        <time>2025-09-11T13:07:53Z</time>
      </trkpt>
      <trkpt lat="45.97754" lon="4.6">
        <ele>420.4</ele>
        <time>2025-09-11T13:07:54Z</time>
      </trkpt>
      <trkpt lat="45.97752" lon="4.60014">
        <ele>420</ele>
        <time>2025-09-11T13:07:55Z</time>
      </trkpt>
      <trkpt lat="45.9775" lon="4.60027">
        <ele>419.4</ele>
        <time>2025-09-11T13:07:56Z</time>
      </trkpt>
      <trkpt lat="45.97748" lon="4.60041">
        <ele>418.6</ele>
        <time>2025-09-11T13:07:57Z</time>
      </trkpt>
      <trkpt lat="45.97746" lon="4.60054">
        <ele>417.8</ele>
        <time>2025-09-11T13:07:58Z</time>
      </trkpt>
      <trkpt lat="45.97744" lon="4.60067">
        <ele>417.2</ele>
        <time>2025-09-11T13:07:59Z</time>
      </trkpt>
      <trkpt lat="45.97742" lon="4.6008">
        <ele>416.4</ele>
        <time>2025-09-11T13:08:00Z</time>
      </trkpt>
      <trkpt lat="45.97739" lon="4.60094">
        <ele>416</ele>
        <time>2025-09-11T13:08:01Z</time>
      </trkpt>
      <trkpt lat="45.97736" lon="4.60107">
        <ele>415.6</ele>
        <time>2025-09-11T13:08:02Z</time>
      </trkpt>
      <trkpt lat="45.97732" lon="4.60121">
        <ele>415</ele>
        <time>2025-09-11T13:08:03Z</time>
      </trkpt>
      <trkpt lat="45.97729" lon="4.60134">
        <ele>414</ele>
        <time>2025-09-11T13:08:04Z</time>
      </trkpt>
      <trkpt lat="45.97725" lon="4.60147">
        <ele>413.4</ele>
        <time>2025-09-11T13:08:05Z</time>
      </trkpt>
      <trkpt lat="45.97721" lon="4.6016">
        <ele>412.8</ele>
        <time>2025-09-11T13:08:06Z</time>
      </trkpt>
      <trkpt lat="45.97717" lon="4.60173">
        <ele>412.4</ele>
        <time>2025-09-11T13:08:07Z</time>
      </trkpt>
      <trkpt lat="45.97713" lon="4.60186">
        <ele>412</ele>
        <time>2025-09-11T13:08:08Z</time>
      </trkpt>
      <trkpt lat="45.9771" lon="4.60199">
        <ele>411.6</ele>
        <time>2025-09-11T13:08:09Z</time>
      </trkpt>
      <trkpt lat="45.97705" lon="4.60212">
        <ele>411.4</ele>
        <time>2025-09-11T13:08:10Z</time>
      </trkpt>
      <trkpt lat="45.97701" lon="4.60226">
        <ele>411.4</ele>
        <time>2025-09-11T13:08:11Z</time>
      </trkpt>
      <trkpt lat="45.97696" lon="4.60239">
        <ele>411.2</ele>
        <time>2025-09-11T13:08:12Z</time>
      </trkpt>
      <trkpt lat="45.97692" lon="4.60252">
        <ele>411</ele>
        <time>2025-09-11T13:08:13Z</time>
      </trkpt>
      <trkpt lat="45.97688" lon="4.60265">
        <ele>410.6</ele>
        <time>2025-09-11T13:08:14Z</time>
      </trkpt>
      <trkpt lat="45.97684" lon="4.60278">
        <ele>410.2</ele>
        <time>2025-09-11T13:08:15Z</time>
      </trkpt>
      <trkpt lat="45.9768" lon="4.60291">
        <ele>409.8</ele>
        <time>2025-09-11T13:08:16Z</time>
      </trkpt>
      <trkpt lat="45.97676" lon="4.60303">
        <ele>409.4</ele>
        <time>2025-09-11T13:08:17Z</time>
      </trkpt>
      <trkpt lat="45.97672" lon="4.60316">
        <ele>408.8</ele>
        <time>2025-09-11T13:08:18Z</time>
      </trkpt>
      <trkpt lat="45.97668" lon="4.60328">
        <ele>408.6</ele>
        <time>2025-09-11T13:08:19Z</time>
      </trkpt>
      <trkpt lat="45.97664" lon="4.6034">
        <ele>408.4</ele>
        <time>2025-09-11T13:08:20Z</time>
      </trkpt>
      <trkpt lat="45.9766" lon="4.60352">
        <ele>408.4</ele>
        <time>2025-09-11T13:08:21Z</time>
      </trkpt>
      <trkpt lat="45.97656" lon="4.60365">
        <ele>407.8</ele>
        <time>2025-09-11T13:08:22Z</time>
      </trkpt>
      <trkpt lat="45.97651" lon="4.60378">
        <ele>407.4</ele>
        <time>2025-09-11T13:08:23Z</time>
      </trkpt>
      <trkpt lat="45.97646" lon="4.60391">
        <ele>407.2</ele>
        <time>2025-09-11T13:08:24Z</time>
      </trkpt>
      <trkpt lat="45.97642" lon="4.60404">
        <ele>406.8</ele>
        <time>2025-09-11T13:08:25Z</time>
      </trkpt>
      <trkpt lat="45.97639" lon="4.60416">
        <ele>406.4</ele>
        <time>2025-09-11T13:08:26Z</time>
      </trkpt>
      <trkpt lat="45.97634" lon="4.60428">
        <ele>406</ele>
        <time>2025-09-11T13:08:27Z</time>
      </trkpt>
      <trkpt lat="45.97631" lon="4.60441">
        <ele>405.8</ele>
        <time>2025-09-11T13:08:28Z</time>
      </trkpt>
      <trkpt lat="45.97626" lon="4.60452">
        <ele>405.6</ele>
        <time>2025-09-11T13:08:29Z</time>
      </trkpt>
      <trkpt lat="45.97621" lon="4.60463">
        <ele>405</ele>
        <time>2025-09-11T13:08:30Z</time>
      </trkpt>
      <trkpt lat="45.97616" lon="4.60475">
        <ele>404.6</ele>
        <time>2025-09-11T13:08:31Z</time>
      </trkpt>
      <trkpt lat="45.9761" lon="4.60486">
        <ele>404.2</ele>
        <time>2025-09-11T13:08:32Z</time>
      </trkpt>
      <trkpt lat="45.97605" lon="4.60498">
        <ele>403.8</ele>
        <time>2025-09-11T13:08:33Z</time>
      </trkpt>
      <trkpt lat="45.97599" lon="4.60508">
        <ele>403.2</ele>
        <time>2025-09-11T13:08:34Z</time>
      </trkpt>
      <trkpt lat="45.97594" lon="4.6052">
        <ele>402.6</ele>
        <time>2025-09-11T13:08:35Z</time>
      </trkpt>
      <trkpt lat="45.97588" lon="4.60532">
        <ele>402.2</ele>
        <time>2025-09-11T13:08:36Z</time>
      </trkpt>
      <trkpt lat="45.97582" lon="4.60543">
        <ele>401.8</ele>
        <time>2025-09-11T13:08:37Z</time>
      </trkpt>
      <trkpt lat="45.97576" lon="4.60555">
        <ele>401.2</ele>
        <time>2025-09-11T13:08:38Z</time>
      </trkpt>
      <trkpt lat="45.9757" lon="4.60566">
        <ele>400.8</ele>
        <time>2025-09-11T13:08:39Z</time>
      </trkpt>
      <trkpt lat="45.97565" lon="4.60578">
        <ele>400.2</ele>
        <time>2025-09-11T13:08:40Z</time>
      </trkpt>
      <trkpt lat="45.9756" lon="4.60588">
        <ele>399.8</ele>
        <time>2025-09-11T13:08:41Z</time>
      </trkpt>
      <trkpt lat="45.97555" lon="4.60597">
        <ele>399.4</ele>
        <time>2025-09-11T13:08:42Z</time>
      </trkpt>
      <trkpt lat="45.9755" lon="4.60605">
        <ele>399.4</ele>
        <time>2025-09-11T13:08:43Z</time>
      </trkpt>
      <trkpt lat="45.97546" lon="4.60614">
        <ele>398.8</ele>
        <time>2025-09-11T13:08:44Z</time>
      </trkpt>
      <trkpt lat="45.97541" lon="4.60623">
        <ele>398.4</ele>
        <time>2025-09-11T13:08:45Z</time>
      </trkpt>
      <trkpt lat="45.97536" lon="4.60632">
        <ele>397.8</ele>
        <time>2025-09-11T13:08:46Z</time>
      </trkpt>
      <trkpt lat="45.97532" lon="4.6064">
        <ele>397.4</ele>
        <time>2025-09-11T13:08:47Z</time>
      </trkpt>
      <trkpt lat="45.97527" lon="4.60649">
        <ele>397.4</ele>
        <time>2025-09-11T13:08:48Z</time>
      </trkpt>
      <trkpt lat="45.97524" lon="4.60659">
        <ele>397</ele>
        <time>2025-09-11T13:08:49Z</time>
      </trkpt>
      <trkpt lat="45.97519" lon="4.60667">
        <ele>397</ele>
        <time>2025-09-11T13:08:50Z</time>
      </trkpt>
      <trkpt lat="45.97514" lon="4.60676">
        <ele>396.8</ele>
        <time>2025-09-11T13:08:51Z</time>
      </trkpt>
      <trkpt lat="45.97511" lon="4.60682">
        <ele>396.8</ele>
        <time>2025-09-11T13:08:52Z</time>
      </trkpt>
      <trkpt lat="45.97509" lon="4.60687">
        <ele>396.8</ele>
        <time>2025-09-11T13:08:53Z</time>
      </trkpt>
      <trkpt lat="45.97505" lon="4.6069">
        <ele>396.4</ele>
        <time>2025-09-11T13:08:54Z</time>
      </trkpt>
      <trkpt lat="45.97502" lon="4.60691">
        <ele>396.4</ele>
        <time>2025-09-11T13:08:55Z</time>
      </trkpt>
      <trkpt lat="45.97499" lon="4.60689">
        <ele>396.4</ele>
        <time>2025-09-11T13:08:56Z</time>
      </trkpt>
      <trkpt lat="45.97497" lon="4.60687">
        <ele>396</ele>
        <time>2025-09-11T13:08:57Z</time>
      </trkpt>
      <trkpt lat="45.97494" lon="4.60684">
        <ele>395.8</ele>
        <time>2025-09-11T13:08:58Z</time>
      </trkpt>
      <trkpt lat="45.97491" lon="4.60681">
        <ele>395.8</ele>
        <time>2025-09-11T13:08:59Z</time>
      </trkpt>
      <trkpt lat="45.97488" lon="4.60678">
        <ele>395.8</ele>
        <time>2025-09-11T13:09:00Z</time>
      </trkpt>
      <trkpt lat="45.97485" lon="4.60674">
        <ele>395.8</ele>
        <time>2025-09-11T13:09:01Z</time>
      </trkpt>
      <trkpt lat="45.97483" lon="4.60669">
        <ele>395.8</ele>
        <time>2025-09-11T13:09:02Z</time>
      </trkpt>
      <trkpt lat="45.9748" lon="4.60666">
        <ele>395.8</ele>
        <time>2025-09-11T13:09:03Z</time>
      </trkpt>
      <trkpt lat="45.97478" lon="4.60661">
        <ele>395.8</ele>
        <time>2025-09-11T13:09:04Z</time>
      </trkpt>
      <trkpt lat="45.97476" lon="4.60657">
        <ele>395.4</ele>
        <time>2025-09-11T13:09:05Z</time>
      </trkpt>
      <trkpt lat="45.97474" lon="4.60654">
        <ele>395.4</ele>
        <time>2025-09-11T13:09:06Z</time>
      </trkpt>
      <trkpt lat="45.97473" lon="4.60652">
        <ele>395.4</ele>
        <time>2025-09-11T13:09:07Z</time>
      </trkpt>
      <trkpt lat="45.97471" lon="4.60649">
        <ele>395.4</ele>
        <time>2025-09-11T13:09:08Z</time>
      </trkpt>
      <trkpt lat="45.9747" lon="4.60647">
        <ele>395.4</ele>
        <time>2025-09-11T13:09:09Z</time>
      </trkpt>
      <trkpt lat="45.97467" lon="4.60645">
        <ele>395.4</ele>
        <time>2025-09-11T13:09:10Z</time>
      </trkpt>
      <trkpt lat="45.97465" lon="4.60642">
        <ele>395.4</ele>
        <time>2025-09-11T13:09:11Z</time>
      </trkpt>
      <trkpt lat="45.97462" lon="4.60639">
        <ele>395.2</ele>
        <time>2025-09-11T13:09:12Z</time>
      </trkpt>
      <trkpt lat="45.97459" lon="4.60636">
        <ele>395.2</ele>
        <time>2025-09-11T13:09:13Z</time>
      </trkpt>
      <trkpt lat="45.97457" lon="4.60632">
        <ele>395.2</ele>
        <time>2025-09-11T13:09:14Z</time>
      </trkpt>
      <trkpt lat="45.97454" lon="4.60628">
        <ele>395.2</ele>
        <time>2025-09-11T13:09:15Z</time>
      </trkpt>
      <trkpt lat="45.97451" lon="4.60625">
        <ele>394.8</ele>
        <time>2025-09-11T13:09:16Z</time>
      </trkpt>
      <trkpt lat="45.97448" lon="4.60621">
        <ele>394.8</ele>
        <time>2025-09-11T13:09:17Z</time>
      </trkpt>
      <trkpt lat="45.97445" lon="4.60617">
        <ele>394.8</ele>
        <time>2025-09-11T13:09:18Z</time>
      </trkpt>
      <trkpt lat="45.9744" lon="4.60613">
        <ele>394.6</ele>
        <time>2025-09-11T13:09:19Z</time>
      </trkpt>
      <trkpt lat="45.97435" lon="4.60609">
        <ele>394.6</ele>
        <time>2025-09-11T13:09:20Z</time>
      </trkpt>
      <trkpt lat="45.97431" lon="4.60606">
        <ele>394.4</ele>
        <time>2025-09-11T13:09:21Z</time>
      </trkpt>
      <trkpt lat="45.97425" lon="4.60601">
        <ele>394.4</ele>
        <time>2025-09-11T13:09:22Z</time>
      </trkpt>
      <trkpt lat="45.9742" lon="4.60597">
        <ele>394.4</ele>
        <time>2025-09-11T13:09:23Z</time>
      </trkpt>
      <trkpt lat="45.97415" lon="4.60593">
        <ele>394</ele>
        <time>2025-09-11T13:09:24Z</time>
      </trkpt>
      <trkpt lat="45.9741" lon="4.60589">
        <ele>394</ele>
        <time>2025-09-11T13:09:25Z</time>
      </trkpt>
      <trkpt lat="45.97405" lon="4.60585">
        <ele>393.8</ele>
        <time>2025-09-11T13:09:26Z</time>
      </trkpt>
      <trkpt lat="45.97399" lon="4.60582">
        <ele>393.8</ele>
        <time>2025-09-11T13:09:27Z</time>
      </trkpt>
      <trkpt lat="45.97394" lon="4.60578">
        <ele>393.4</ele>
        <time>2025-09-11T13:09:28Z</time>
      </trkpt>
      <trkpt lat="45.97388" lon="4.60574">
        <ele>393.2</ele>
        <time>2025-09-11T13:09:29Z</time>
      </trkpt>
      <trkpt lat="45.97383" lon="4.6057">
        <ele>393.2</ele>
        <time>2025-09-11T13:09:30Z</time>
      </trkpt>
      <trkpt lat="45.97377" lon="4.60566">
        <ele>392.8</ele>
        <time>2025-09-11T13:09:31Z</time>
      </trkpt>
      <trkpt lat="45.97372" lon="4.60564">
        <ele>392.4</ele>
        <time>2025-09-11T13:09:32Z</time>
      </trkpt>
      <trkpt lat="45.97366" lon="4.60563">
        <ele>392</ele>
        <time>2025-09-11T13:09:33Z</time>
      </trkpt>
      <trkpt lat="45.9736" lon="4.60562">
        <ele>391.8</ele>
        <time>2025-09-11T13:09:34Z</time>
      </trkpt>
      <trkpt lat="45.97355" lon="4.60562">
        <ele>391.8</ele>
        <time>2025-09-11T13:09:35Z</time>
      </trkpt>
      <trkpt lat="45.97348" lon="4.60563">
        <ele>391.4</ele>
        <time>2025-09-11T13:09:36Z</time>
      </trkpt>
      <trkpt lat="45.97342" lon="4.60562">
        <ele>391.2</ele>
        <time>2025-09-11T13:09:37Z</time>
      </trkpt>
      <trkpt lat="45.97337" lon="4.60563">
        <ele>391.2</ele>
        <time>2025-09-11T13:09:38Z</time>
      </trkpt>
      <trkpt lat="45.97329" lon="4.60564">
        <ele>390.8</ele>
        <time>2025-09-11T13:09:39Z</time>
      </trkpt>
      <trkpt lat="45.97323" lon="4.60566">
        <ele>390.8</ele>
        <time>2025-09-11T13:09:40Z</time>
      </trkpt>
      <trkpt lat="45.97316" lon="4.60568">
        <ele>390.2</ele>
        <time>2025-09-11T13:09:41Z</time>
      </trkpt>
      <trkpt lat="45.97308" lon="4.60569">
        <ele>390</ele>
        <time>2025-09-11T13:09:42Z</time>
      </trkpt>
      <trkpt lat="45.97301" lon="4.60572">
        <ele>389.6</ele>
        <time>2025-09-11T13:09:43Z</time>
      </trkpt>
      <trkpt lat="45.97293" lon="4.60574">
        <ele>389.6</ele>
        <time>2025-09-11T13:09:44Z</time>
      </trkpt>
      <trkpt lat="45.97286" lon="4.60576">
        <ele>389</ele>
        <time>2025-09-11T13:09:45Z</time>
      </trkpt>
      <trkpt lat="45.97279" lon="4.60579">
        <ele>388.6</ele>
        <time>2025-09-11T13:09:46Z</time>
      </trkpt>
      <trkpt lat="45.97271" lon="4.6058">
        <ele>388.2</ele>
        <time>2025-09-11T13:09:47Z</time>
      </trkpt>
      <trkpt lat="45.97264" lon="4.60582">
        <ele>387.6</ele>
        <time>2025-09-11T13:09:48Z</time>
      </trkpt>
      <trkpt lat="45.97257" lon="4.60583">
        <ele>387.2</ele>
        <time>2025-09-11T13:09:49Z</time>
      </trkpt>
      <trkpt lat="45.97249" lon="4.60587">
        <ele>386.8</ele>
        <time>2025-09-11T13:09:50Z</time>
      </trkpt>
      <trkpt lat="45.97242" lon="4.60591">
        <ele>386.8</ele>
        <time>2025-09-11T13:09:51Z</time>
      </trkpt>
      <trkpt lat="45.97235" lon="4.60597">
        <ele>386.8</ele>
        <time>2025-09-11T13:09:52Z</time>
      </trkpt>
      <trkpt lat="45.97229" lon="4.60605">
        <ele>386.4</ele>
        <time>2025-09-11T13:09:53Z</time>
      </trkpt>
      <trkpt lat="45.97223" lon="4.60613">
        <ele>386</ele>
        <time>2025-09-11T13:09:54Z</time>
      </trkpt>
      <trkpt lat="45.97216" lon="4.60622">
        <ele>386</ele>
        <time>2025-09-11T13:09:55Z</time>
      </trkpt>
      <trkpt lat="45.97211" lon="4.60631">
        <ele>385.6</ele>
        <time>2025-09-11T13:09:56Z</time>
      </trkpt>
      <trkpt lat="45.97206" lon="4.60641">
        <ele>385.2</ele>
        <time>2025-09-11T13:09:57Z</time>
      </trkpt>
      <trkpt lat="45.97202" lon="4.6065">
        <ele>384.8</ele>
        <time>2025-09-11T13:09:58Z</time>
      </trkpt>
      <trkpt lat="45.97197" lon="4.60659">
        <ele>384.6</ele>
        <time>2025-09-11T13:09:59Z</time>
      </trkpt>
      <trkpt lat="45.97193" lon="4.60668">
        <ele>384.2</ele>
        <time>2025-09-11T13:10:00Z</time>
      </trkpt>
      <trkpt lat="45.97189" lon="4.60677">
        <ele>383.8</ele>
        <time>2025-09-11T13:10:01Z</time>
      </trkpt>
      <trkpt lat="45.97184" lon="4.60686">
        <ele>383.2</ele>
        <time>2025-09-11T13:10:02Z</time>
      </trkpt>
      <trkpt lat="45.97179" lon="4.60695">
        <ele>383</ele>
        <time>2025-09-11T13:10:03Z</time>
      </trkpt>
      <trkpt lat="45.97175" lon="4.60705">
        <ele>382.4</ele>
        <time>2025-09-11T13:10:04Z</time>
      </trkpt>
      <trkpt lat="45.9717" lon="4.60714">
        <ele>382</ele>
        <time>2025-09-11T13:10:05Z</time>
      </trkpt>
      <trkpt lat="45.97166" lon="4.60723">
        <ele>381.2</ele>
        <time>2025-09-11T13:10:06Z</time>
      </trkpt>
      <trkpt lat="45.97161" lon="4.60732">
        <ele>380.8</ele>
        <time>2025-09-11T13:10:07Z</time>
      </trkpt>
      <trkpt lat="45.97156" lon="4.60742">
        <ele>380.4</ele>
        <time>2025-09-11T13:10:08Z</time>
      </trkpt>
      <trkpt lat="45.97152" lon="4.60752">
        <ele>380</ele>
        <time>2025-09-11T13:10:09Z</time>
      </trkpt>
      <trkpt lat="45.97147" lon="4.60762">
        <ele>380</ele>
        <time>2025-09-11T13:10:10Z</time>
      </trkpt>
      <trkpt lat="45.97142" lon="4.60771">
        <ele>379.2</ele>
        <time>2025-09-11T13:10:11Z</time>
      </trkpt>
      <trkpt lat="45.97137" lon="4.6078">
        <ele>378.4</ele>
        <time>2025-09-11T13:10:12Z</time>
      </trkpt>
      <trkpt lat="45.97133" lon="4.60788">
        <ele>377.6</ele>
        <time>2025-09-11T13:10:13Z</time>
      </trkpt>
      <trkpt lat="45.97128" lon="4.60797">
        <ele>377.2</ele>
        <time>2025-09-11T13:10:14Z</time>
      </trkpt>
      <trkpt lat="45.97123" lon="4.60806">
        <ele>376.6</ele>
        <time>2025-09-11T13:10:15Z</time>
      </trkpt>
      <trkpt lat="45.97118" lon="4.60816">
        <ele>376</ele>
        <time>2025-09-11T13:10:16Z</time>
      </trkpt>
      <trkpt lat="45.97113" lon="4.60825">
        <ele>375.2</ele>
        <time>2025-09-11T13:10:17Z</time>
      </trkpt>
      <trkpt lat="45.97108" lon="4.60834">
        <ele>374.6</ele>
        <time>2025-09-11T13:10:18Z</time>
      </trkpt>
      <trkpt lat="45.97104" lon="4.60842">
        <ele>374</ele>
        <time>2025-09-11T13:10:19Z</time>
      </trkpt>
      <trkpt lat="45.97099" lon="4.60851">
        <ele>373.4</ele>
        <time>2025-09-11T13:10:20Z</time>
      </trkpt>
      <trkpt lat="45.97095" lon="4.60858">
        <ele>373</ele>
        <time>2025-09-11T13:10:21Z</time>
      </trkpt>
      <trkpt lat="45.97091" lon="4.60866">
        <ele>372.4</ele>
        <time>2025-09-11T13:10:22Z</time>
      </trkpt>
      <trkpt lat="45.97087" lon="4.60872">
        <ele>371.8</ele>
        <time>2025-09-11T13:10:23Z</time>
      </trkpt>
      <trkpt lat="45.97084" lon="4.60879">
        <ele>371.4</ele>
        <time>2025-09-11T13:10:24Z</time>
      </trkpt>
      <trkpt lat="45.97081" lon="4.60886">
        <ele>371</ele>
        <time>2025-09-11T13:10:25Z</time>
      </trkpt>
      <trkpt lat="45.97078" lon="4.60893">
        <ele>371</ele>
        <time>2025-09-11T13:10:26Z</time>
      </trkpt>
      <trkpt lat="45.97075" lon="4.609">
        <ele>370.6</ele>
        <time>2025-09-11T13:10:27Z</time>
      </trkpt>
      <trkpt lat="45.97073" lon="4.60907">
        <ele>370.2</ele>
        <time>2025-09-11T13:10:28Z</time>
      </trkpt>
      <trkpt lat="45.97071" lon="4.60915">
        <ele>369.6</ele>
        <time>2025-09-11T13:10:29Z</time>
      </trkpt>
      <trkpt lat="45.97069" lon="4.60924">
        <ele>369</ele>
        <time>2025-09-11T13:10:30Z</time>
      </trkpt>
      <trkpt lat="45.97067" lon="4.60931">
        <ele>368.4</ele>
        <time>2025-09-11T13:10:31Z</time>
      </trkpt>
      <trkpt lat="45.97066" lon="4.60938">
        <ele>368</ele>
        <time>2025-09-11T13:10:32Z</time>
      </trkpt>
      <trkpt lat="45.97065" lon="4.60945">
        <ele>367.4</ele>
        <time>2025-09-11T13:10:33Z</time>
      </trkpt>
      <trkpt lat="45.97063" lon="4.60951">
        <ele>367</ele>
        <time>2025-09-11T13:10:34Z</time>
      </trkpt>
      <trkpt lat="45.97062" lon="4.60956">
        <ele>366.6</ele>
        <time>2025-09-11T13:10:35Z</time>
      </trkpt>
      <trkpt lat="45.97061" lon="4.60962">
        <ele>366.2</ele>
        <time>2025-09-11T13:10:36Z</time>
      </trkpt>
      <trkpt lat="45.9706" lon="4.60969">
        <ele>365.4</ele>
        <time>2025-09-11T13:10:37Z</time>
      </trkpt>
      <trkpt lat="45.97059" lon="4.60974">
        <ele>365.2</ele>
        <time>2025-09-11T13:10:38Z</time>
      </trkpt>
      <trkpt lat="45.97058" lon="4.60981">
        <ele>365</ele>
        <time>2025-09-11T13:10:39Z</time>
      </trkpt>
      <trkpt lat="45.97058" lon="4.60987">
        <ele>364.6</ele>
        <time>2025-09-11T13:10:40Z</time>
      </trkpt>
      <trkpt lat="45.97057" lon="4.60994">
        <ele>364.6</ele>
        <time>2025-09-11T13:10:41Z</time>
      </trkpt>
      <trkpt lat="45.97055" lon="4.61001">
        <ele>364</ele>
        <time>2025-09-11T13:10:42Z</time>
      </trkpt>
      <trkpt lat="45.97054" lon="4.61008">
        <ele>363.8</ele>
        <time>2025-09-11T13:10:43Z</time>
      </trkpt>
      <trkpt lat="45.97053" lon="4.61013">
        <ele>363.4</ele>
        <time>2025-09-11T13:10:44Z</time>
      </trkpt>
      <trkpt lat="45.97053" lon="4.6102">
        <ele>362.8</ele>
        <time>2025-09-11T13:10:45Z</time>
      </trkpt>
      <trkpt lat="45.97051" lon="4.61027">
        <ele>362.2</ele>
        <time>2025-09-11T13:10:46Z</time>
      </trkpt>
      <trkpt lat="45.9705" lon="4.61033">
        <ele>362</ele>
        <time>2025-09-11T13:10:47Z</time>
      </trkpt>
      <trkpt lat="45.97049" lon="4.6104">
        <ele>361.6</ele>
        <time>2025-09-11T13:10:48Z</time>
      </trkpt>
      <trkpt lat="45.97048" lon="4.61044">
        <ele>361.4</ele>
        <time>2025-09-11T13:10:49Z</time>
      </trkpt>
      <trkpt lat="45.97048" lon="4.61049">
        <ele>361</ele>
        <time>2025-09-11T13:10:50Z</time>
      </trkpt>
      <trkpt lat="45.97047" lon="4.61054">
        <ele>360.6</ele>
        <time>2025-09-11T13:10:51Z</time>
      </trkpt>
      <trkpt lat="45.97048" lon="4.61059">
        <ele>360.4</ele>
        <time>2025-09-11T13:10:52Z</time>
      </trkpt>
      <trkpt lat="45.97049" lon="4.61063">
        <ele>360</ele>
        <time>2025-09-11T13:10:53Z</time>
      </trkpt>
      <trkpt lat="45.97051" lon="4.61065">
        <ele>360</ele>
        <time>2025-09-11T13:10:54Z</time>
      </trkpt>
      <trkpt lat="45.97052" lon="4.61067">
        <ele>359.6</ele>
        <time>2025-09-11T13:10:55Z</time>
      </trkpt>
      <trkpt lat="45.97053" lon="4.61067">
        <ele>359.6</ele>
        <time>2025-09-11T13:10:56Z</time>
      </trkpt>
      <trkpt lat="45.97054" lon="4.61068">
        <ele>359.4</ele>
        <time>2025-09-11T13:10:57Z</time>
      </trkpt>
      <trkpt lat="45.97054" lon="4.61068">
        <ele>359.4</ele>
        <time>2025-09-11T13:10:58Z</time>
      </trkpt>
      <trkpt lat="45.97054" lon="4.61068">
        <ele>359.4</ele>
        <time>2025-09-11T13:10:59Z</time>
      </trkpt>
      <trkpt lat="45.97054" lon="4.61067">
        <ele>359.2</ele>
        <time>2025-09-11T13:11:06Z</time>
      </trkpt>
      <trkpt lat="45.97054" lon="4.61066">
        <ele>359.2</ele>
        <time>2025-09-11T13:11:07Z</time>
      </trkpt>
      <trkpt lat="45.97055" lon="4.61065">
        <ele>359.2</ele>
        <time>2025-09-11T13:11:08Z</time>
      </trkpt>
      <trkpt lat="45.97056" lon="4.61064">
        <ele>359.4</ele>
        <time>2025-09-11T13:11:09Z</time>
      </trkpt>
      <trkpt lat="45.97056" lon="4.61064">
        <ele>359.4</ele>
        <time>2025-09-11T13:11:10Z</time>
      </trkpt>
      <trkpt lat="45.97057" lon="4.61064">
        <ele>359.4</ele>
        <time>2025-09-11T13:11:11Z</time>
      </trkpt>
      <trkpt lat="45.97057" lon="4.61065">
        <ele>359.4</ele>
        <time>2025-09-11T13:11:12Z</time>
      </trkpt>
      <trkpt lat="45.97055" lon="4.61068">
        <ele>360.2</ele>
        <time>2025-09-11T13:16:18Z</time>
      </trkpt>
      <trkpt lat="45.97055" lon="4.61068">
        <ele>360.2</ele>
        <time>2025-09-11T13:16:19Z</time>
      </trkpt>
      <trkpt lat="45.97056" lon="4.61069">
        <ele>360.2</ele>
        <time>2025-09-11T13:16:20Z</time>
      </trkpt>
      <trkpt lat="45.97056" lon="4.61069">
        <ele>360.2</ele>
        <time>2025-09-11T13:16:21Z</time>
      </trkpt>
      <trkpt lat="45.97058" lon="4.6107">
        <ele>360.2</ele>
        <time>2025-09-11T13:16:22Z</time>
      </trkpt>
      <trkpt lat="45.97059" lon="4.61071">
        <ele>360.2</ele>
        <time>2025-09-11T13:16:23Z</time>
      </trkpt>
      <trkpt lat="45.97061" lon="4.61071">
        <ele>360.2</ele>
        <time>2025-09-11T13:16:24Z</time>
      </trkpt>
      <trkpt lat="45.97063" lon="4.61072">
        <ele>360.6</ele>
        <time>2025-09-11T13:16:25Z</time>
      </trkpt>
      <trkpt lat="45.97064" lon="4.61073">
        <ele>360.8</ele>
        <time>2025-09-11T13:16:26Z</time>
      </trkpt>
      <trkpt lat="45.97065" lon="4.61073">
        <ele>360.8</ele>
        <time>2025-09-11T13:16:27Z</time>
      </trkpt>
      <trkpt lat="45.97066" lon="4.61074">
        <ele>360.8</ele>
        <time>2025-09-11T13:16:28Z</time>
      </trkpt>
      <trkpt lat="45.97067" lon="4.61076">
        <ele>361.6</ele>
        <time>2025-09-11T13:16:44Z</time>
      </trkpt>
      <trkpt lat="45.97068" lon="4.61077">
        <ele>361.6</ele>
        <time>2025-09-11T13:16:45Z</time>
      </trkpt>
      <trkpt lat="45.9707" lon="4.61079">
        <ele>361.6</ele>
        <time>2025-09-11T13:16:46Z</time>
      </trkpt>
      <trkpt lat="45.97071" lon="4.6108">
        <ele>361.8</ele>
        <time>2025-09-11T13:16:47Z</time>
      </trkpt>
      <trkpt lat="45.97073" lon="4.6108">
        <ele>361.8</ele>
        <time>2025-09-11T13:16:48Z</time>
      </trkpt>
      <trkpt lat="45.97074" lon="4.61081">
        <ele>361.8</ele>
        <time>2025-09-11T13:16:49Z</time>
      </trkpt>
      <trkpt lat="45.97075" lon="4.61082">
        <ele>361.8</ele>
        <time>2025-09-11T13:16:50Z</time>
      </trkpt>
      <trkpt lat="45.97075" lon="4.61083">
        <ele>361.8</ele>
        <time>2025-09-11T13:16:51Z</time>
      </trkpt>
      <trkpt lat="45.97076" lon="4.61084">
        <ele>361.8</ele>
        <time>2025-09-11T13:16:52Z</time>
      </trkpt>
      <trkpt lat="45.97077" lon="4.61086">
        <ele>361.8</ele>
        <time>2025-09-11T13:16:53Z</time>
      </trkpt>
      <trkpt lat="45.97077" lon="4.61087">
        <ele>362.2</ele>
        <time>2025-09-11T13:16:54Z</time>
      </trkpt>
      <trkpt lat="45.97078" lon="4.61087">
        <ele>362.4</ele>
        <time>2025-09-11T13:16:55Z</time>
      </trkpt>
      <trkpt lat="45.97078" lon="4.61087">
        <ele>362.4</ele>
        <time>2025-09-11T13:16:56Z</time>
      </trkpt>
      <trkpt lat="45.97079" lon="4.61088">
        <ele>362.6</ele>
        <time>2025-09-11T13:16:57Z</time>
      </trkpt>
      <trkpt lat="45.97079" lon="4.61088">
        <ele>362.6</ele>
        <time>2025-09-11T13:16:58Z</time>
      </trkpt>
      <trkpt lat="45.97079" lon="4.61088">
        <ele>362.8</ele>
        <time>2025-09-11T13:16:59Z</time>
      </trkpt>
      <trkpt lat="45.97079" lon="4.61088">
        <ele>362.8</ele>
        <time>2025-09-11T13:17:00Z</time>
      </trkpt>
      <trkpt lat="45.97082" lon="4.6109">
        <ele>362.6</ele>
        <time>2025-09-11T13:18:24Z</time>
      </trkpt>
      <trkpt lat="45.97083" lon="4.61091">
        <ele>362.6</ele>
        <time>2025-09-11T13:18:25Z</time>
      </trkpt>
      <trkpt lat="45.97084" lon="4.61092">
        <ele>362.6</ele>
        <time>2025-09-11T13:18:26Z</time>
      </trkpt>
      <trkpt lat="45.97086" lon="4.61093">
        <ele>362.6</ele>
        <time>2025-09-11T13:18:27Z</time>
      </trkpt>
      <trkpt lat="45.97087" lon="4.61095">
        <ele>362.6</ele>
        <time>2025-09-11T13:18:28Z</time>
      </trkpt>
      <trkpt lat="45.97088" lon="4.61097">
        <ele>362.6</ele>
        <time>2025-09-11T13:18:29Z</time>
      </trkpt>
      <trkpt lat="45.97089" lon="4.61099">
        <ele>362.6</ele>
        <time>2025-09-11T13:18:30Z</time>
      </trkpt>
      <trkpt lat="45.9709" lon="4.61102">
        <ele>362.6</ele>
        <time>2025-09-11T13:18:31Z</time>
      </trkpt>
      <trkpt lat="45.97092" lon="4.61105">
        <ele>362.4</ele>
        <time>2025-09-11T13:18:32Z</time>
      </trkpt>
      <trkpt lat="45.97093" lon="4.61109">
        <ele>362.4</ele>
        <time>2025-09-11T13:18:33Z</time>
      </trkpt>
      <trkpt lat="45.97095" lon="4.61114">
        <ele>362.4</ele>
        <time>2025-09-11T13:18:34Z</time>
      </trkpt>
      <trkpt lat="45.97097" lon="4.61118">
        <ele>362.4</ele>
        <time>2025-09-11T13:18:35Z</time>
      </trkpt>
      <trkpt lat="45.97099" lon="4.61122">
        <ele>362.4</ele>
        <time>2025-09-11T13:18:36Z</time>
      </trkpt>
      <trkpt lat="45.971" lon="4.61126">
        <ele>362.4</ele>
        <time>2025-09-11T13:18:37Z</time>
      </trkpt>
      <trkpt lat="45.97101" lon="4.6113">
        <ele>362.4</ele>
        <time>2025-09-11T13:18:38Z</time>
      </trkpt>
      <trkpt lat="45.97102" lon="4.61134">
        <ele>362.4</ele>
        <time>2025-09-11T13:18:39Z</time>
      </trkpt>
      <trkpt lat="45.97102" lon="4.61138">
        <ele>362.4</ele>
        <time>2025-09-11T13:18:40Z</time>
      </trkpt>
      <trkpt lat="45.97103" lon="4.61143">
        <ele>362.8</ele>
        <time>2025-09-11T13:18:41Z</time>
      </trkpt>
      <trkpt lat="45.97104" lon="4.61147">
        <ele>362.2</ele>
        <time>2025-09-11T13:18:42Z</time>
      </trkpt>
      <trkpt lat="45.97104" lon="4.61152">
        <ele>362.2</ele>
        <time>2025-09-11T13:18:43Z</time>
      </trkpt>
      <trkpt lat="45.97105" lon="4.61157">
        <ele>362.6</ele>
        <time>2025-09-11T13:18:44Z</time>
      </trkpt>
      <trkpt lat="45.97105" lon="4.61162">
        <ele>362.6</ele>
        <time>2025-09-11T13:18:45Z</time>
      </trkpt>
      <trkpt lat="45.97104" lon="4.61168">
        <ele>362.6</ele>
        <time>2025-09-11T13:18:46Z</time>
      </trkpt>
      <trkpt lat="45.97104" lon="4.61173">
        <ele>362.6</ele>
        <time>2025-09-11T13:18:47Z</time>
      </trkpt>
      <trkpt lat="45.97104" lon="4.61178">
        <ele>362.4</ele>
        <time>2025-09-11T13:18:48Z</time>
      </trkpt>
      <trkpt lat="45.97103" lon="4.61183">
        <ele>362.4</ele>
        <time>2025-09-11T13:18:49Z</time>
      </trkpt>
      <trkpt lat="45.97102" lon="4.61188">
        <ele>362.4</ele>
        <time>2025-09-11T13:18:50Z</time>
      </trkpt>
      <trkpt lat="45.97102" lon="4.61193">
        <ele>362</ele>
        <time>2025-09-11T13:18:51Z</time>
      </trkpt>
      <trkpt lat="45.97101" lon="4.61198">
        <ele>362</ele>
        <time>2025-09-11T13:18:52Z</time>
      </trkpt>
      <trkpt lat="45.97101" lon="4.61204">
        <ele>362</ele>
        <time>2025-09-11T13:18:53Z</time>
      </trkpt>
      <trkpt lat="45.971" lon="4.6121">
        <ele>362</ele>
        <time>2025-09-11T13:18:54Z</time>
      </trkpt>
      <trkpt lat="45.97099" lon="4.61216">
        <ele>361.6</ele>
        <time>2025-09-11T13:18:55Z</time>
      </trkpt>
      <trkpt lat="45.97099" lon="4.61221">
        <ele>361.6</ele>
        <time>2025-09-11T13:18:56Z</time>
      </trkpt>
      <trkpt lat="45.97098" lon="4.61227">
        <ele>361.4</ele>
        <time>2025-09-11T13:18:57Z</time>
      </trkpt>
      <trkpt lat="45.97098" lon="4.61232">
        <ele>361.4</ele>
        <time>2025-09-11T13:18:58Z</time>
      </trkpt>
      <trkpt lat="45.97097" lon="4.61238">
        <ele>361.2</ele>
        <time>2025-09-11T13:18:59Z</time>
      </trkpt>
      <trkpt lat="45.97096" lon="4.61243">
        <ele>361.2</ele>
        <time>2025-09-11T13:19:00Z</time>
      </trkpt>
      <trkpt lat="45.97095" lon="4.6125">
        <ele>361.2</ele>
        <time>2025-09-11T13:19:01Z</time>
      </trkpt>
      <trkpt lat="45.97094" lon="4.61256">
        <ele>360.8</ele>
        <time>2025-09-11T13:19:02Z</time>
      </trkpt>
      <trkpt lat="45.97092" lon="4.61263">
        <ele>360.6</ele>
        <time>2025-09-11T13:19:03Z</time>
      </trkpt>
      <trkpt lat="45.97091" lon="4.6127">
        <ele>360.6</ele>
        <time>2025-09-11T13:19:04Z</time>
      </trkpt>
      <trkpt lat="45.9709" lon="4.61277">
        <ele>359.6</ele>
        <time>2025-09-11T13:19:05Z</time>
      </trkpt>
      <trkpt lat="45.97088" lon="4.61283">
        <ele>359.6</ele>
        <time>2025-09-11T13:19:06Z</time>
      </trkpt>
      <trkpt lat="45.97087" lon="4.6129">
        <ele>359.4</ele>
        <time>2025-09-11T13:19:07Z</time>
      </trkpt>
      <trkpt lat="45.97086" lon="4.61296">
        <ele>359.4</ele>
        <time>2025-09-11T13:19:08Z</time>
      </trkpt>
      <trkpt lat="45.97085" lon="4.61303">
        <ele>359</ele>
        <time>2025-09-11T13:19:09Z</time>
      </trkpt>
      <trkpt lat="45.97084" lon="4.6131">
        <ele>359</ele>
        <time>2025-09-11T13:19:10Z</time>
      </trkpt>
      <trkpt lat="45.97083" lon="4.61316">
        <ele>359.4</ele>
        <time>2025-09-11T13:19:11Z</time>
      </trkpt>
      <trkpt lat="45.97081" lon="4.61323">
        <ele>359.4</ele>
        <time>2025-09-11T13:19:12Z</time>
      </trkpt>
      <trkpt lat="45.9708" lon="4.61328">
        <ele>359</ele>
        <time>2025-09-11T13:19:13Z</time>
      </trkpt>
      <trkpt lat="45.97077" lon="4.61334">
        <ele>359</ele>
        <time>2025-09-11T13:19:14Z</time>
      </trkpt>
      <trkpt lat="45.97079" lon="4.61337">
        <ele>358.6</ele>
        <time>2025-09-11T13:19:15Z</time>
      </trkpt>
      <trkpt lat="45.97077" lon="4.61341">
        <ele>358.4</ele>
        <time>2025-09-11T13:19:16Z</time>
      </trkpt>
      <trkpt lat="45.97077" lon="4.61343">
        <ele>358.4</ele>
        <time>2025-09-11T13:19:17Z</time>
      </trkpt>
      <trkpt lat="45.97077" lon="4.61347">
        <ele>358.2</ele>
        <time>2025-09-11T13:19:18Z</time>
      </trkpt>
      <trkpt lat="45.97076" lon="4.61351">
        <ele>357.8</ele>
        <time>2025-09-11T13:19:19Z</time>
      </trkpt>
      <trkpt lat="45.97076" lon="4.61355">
        <ele>357.8</ele>
        <time>2025-09-11T13:19:20Z</time>
      </trkpt>
      <trkpt lat="45.97075" lon="4.61359">
        <ele>357.6</ele>
        <time>2025-09-11T13:19:21Z</time>
      </trkpt>
      <trkpt lat="45.97074" lon="4.61362">
        <ele>357.6</ele>
        <time>2025-09-11T13:19:22Z</time>
      </trkpt>
      <trkpt lat="45.97071" lon="4.61364">
        <ele>357.2</ele>
        <time>2025-09-11T13:19:23Z</time>
      </trkpt>
      <trkpt lat="45.97071" lon="4.61369">
        <ele>357.2</ele>
        <time>2025-09-11T13:19:24Z</time>
      </trkpt>
      <trkpt lat="45.9707" lon="4.61374">
        <ele>356.8</ele>
        <time>2025-09-11T13:19:25Z</time>
      </trkpt>
      <trkpt lat="45.97068" lon="4.61377">
        <ele>356.8</ele>
        <time>2025-09-11T13:19:26Z</time>
      </trkpt>
      <trkpt lat="45.97067" lon="4.61381">
        <ele>356.2</ele>
        <time>2025-09-11T13:19:27Z</time>
      </trkpt>
      <trkpt lat="45.97066" lon="4.61384">
        <ele>356</ele>
        <time>2025-09-11T13:19:28Z</time>
      </trkpt>
      <trkpt lat="45.97065" lon="4.61388">
        <ele>356.2</ele>
        <time>2025-09-11T13:19:29Z</time>
      </trkpt>
      <trkpt lat="45.97064" lon="4.61392">
        <ele>356.4</ele>
        <time>2025-09-11T13:19:30Z</time>
      </trkpt>
      <trkpt lat="45.97063" lon="4.61396">
        <ele>356.4</ele>
        <time>2025-09-11T13:19:31Z</time>
      </trkpt>
      <trkpt lat="45.97062" lon="4.61401">
        <ele>356.4</ele>
        <time>2025-09-11T13:19:32Z</time>
      </trkpt>
      <trkpt lat="45.9706" lon="4.61405">
        <ele>356</ele>
        <time>2025-09-11T13:19:33Z</time>
      </trkpt>
      <trkpt lat="45.9706" lon="4.61409">
        <ele>356</ele>
        <time>2025-09-11T13:19:34Z</time>
      </trkpt>
      <trkpt lat="45.97059" lon="4.61414">
        <ele>356</ele>
        <time>2025-09-11T13:19:35Z</time>
      </trkpt>
      <trkpt lat="45.97058" lon="4.61418">
        <ele>355.8</ele>
        <time>2025-09-11T13:19:36Z</time>
      </trkpt>
      <trkpt lat="45.97058" lon="4.61423">
        <ele>355.6</ele>
        <time>2025-09-11T13:19:37Z</time>
      </trkpt>
      <trkpt lat="45.97056" lon="4.61427">
        <ele>355.6</ele>
        <time>2025-09-11T13:19:38Z</time>
      </trkpt>
      <trkpt lat="45.97055" lon="4.61432">
        <ele>355.6</ele>
        <time>2025-09-11T13:19:39Z</time>
      </trkpt>
      <trkpt lat="45.97054" lon="4.61435">
        <ele>355.6</ele>
        <time>2025-09-11T13:19:40Z</time>
      </trkpt>
      <trkpt lat="45.97053" lon="4.61438">
        <ele>355.6</ele>
        <time>2025-09-11T13:19:41Z</time>
      </trkpt>
      <trkpt lat="45.97051" lon="4.61442">
        <ele>355.6</ele>
        <time>2025-09-11T13:19:42Z</time>
      </trkpt>
      <trkpt lat="45.97051" lon="4.61446">
        <ele>355.4</ele>
        <time>2025-09-11T13:19:43Z</time>
      </trkpt>
      <trkpt lat="45.9705" lon="4.6145">
        <ele>355.4</ele>
        <time>2025-09-11T13:19:44Z</time>
      </trkpt>
      <trkpt lat="45.97049" lon="4.61454">
        <ele>355.4</ele>
        <time>2025-09-11T13:19:45Z</time>
      </trkpt>
      <trkpt lat="45.97048" lon="4.61458">
        <ele>355</ele>
        <time>2025-09-11T13:19:46Z</time>
      </trkpt>
      <trkpt lat="45.97047" lon="4.61462">
        <ele>355</ele>
        <time>2025-09-11T13:19:47Z</time>
      </trkpt>
      <trkpt lat="45.97046" lon="4.61466">
        <ele>355</ele>
        <time>2025-09-11T13:19:48Z</time>
      </trkpt>
      <trkpt lat="45.97045" lon="4.6147">
        <ele>355</ele>
        <time>2025-09-11T13:19:49Z</time>
      </trkpt>
      <trkpt lat="45.97044" lon="4.61473">
        <ele>355</ele>
        <time>2025-09-11T13:19:50Z</time>
      </trkpt>
      <trkpt lat="45.97044" lon="4.61475">
        <ele>354.6</ele>
        <time>2025-09-11T13:19:51Z</time>
      </trkpt>
      <trkpt lat="45.97043" lon="4.61479">
        <ele>354.6</ele>
        <time>2025-09-11T13:19:52Z</time>
      </trkpt>
      <trkpt lat="45.97043" lon="4.61482">
        <ele>354</ele>
        <time>2025-09-11T13:19:53Z</time>
      </trkpt>
      <trkpt lat="45.97042" lon="4.61486">
        <ele>354</ele>
        <time>2025-09-11T13:19:54Z</time>
      </trkpt>
      <trkpt lat="45.97042" lon="4.6149">
        <ele>354</ele>
        <time>2025-09-11T13:19:55Z</time>
      </trkpt>
      <trkpt lat="45.97041" lon="4.61494">
        <ele>354</ele>
        <time>2025-09-11T13:19:56Z</time>
      </trkpt>
      <trkpt lat="45.9704" lon="4.61497">
        <ele>353.8</ele>
        <time>2025-09-11T13:19:57Z</time>
      </trkpt>
      <trkpt lat="45.97039" lon="4.615">
        <ele>353.8</ele>
        <time>2025-09-11T13:19:58Z</time>
      </trkpt>
      <trkpt lat="45.97038" lon="4.61504">
        <ele>353.2</ele>
        <time>2025-09-11T13:19:59Z</time>
      </trkpt>
      <trkpt lat="45.97036" lon="4.6151">
        <ele>352.6</ele>
        <time>2025-09-11T13:20:00Z</time>
      </trkpt>
      <trkpt lat="45.97035" lon="4.61515">
        <ele>352.6</ele>
        <time>2025-09-11T13:20:01Z</time>
      </trkpt>
      <trkpt lat="45.97034" lon="4.6152">
        <ele>352.8</ele>
        <time>2025-09-11T13:20:02Z</time>
      </trkpt>
      <trkpt lat="45.97032" lon="4.61526">
        <ele>352.6</ele>
        <time>2025-09-11T13:20:03Z</time>
      </trkpt>
      <trkpt lat="45.97031" lon="4.61532">
        <ele>352.2</ele>
        <time>2025-09-11T13:20:04Z</time>
      </trkpt>
      <trkpt lat="45.97029" lon="4.61537">
        <ele>352.2</ele>
        <time>2025-09-11T13:20:05Z</time>
      </trkpt>
      <trkpt lat="45.97027" lon="4.61542">
        <ele>351.6</ele>
        <time>2025-09-11T13:20:06Z</time>
      </trkpt>
      <trkpt lat="45.97026" lon="4.61547">
        <ele>351.6</ele>
        <time>2025-09-11T13:20:07Z</time>
      </trkpt>
      <trkpt lat="45.97025" lon="4.61552">
        <ele>351.6</ele>
        <time>2025-09-11T13:20:08Z</time>
      </trkpt>
      <trkpt lat="45.97022" lon="4.61556">
        <ele>351.6</ele>
        <time>2025-09-11T13:20:09Z</time>
      </trkpt>
      <trkpt lat="45.97021" lon="4.6156">
        <ele>351.6</ele>
        <time>2025-09-11T13:20:10Z</time>
      </trkpt>
      <trkpt lat="45.97019" lon="4.61565">
        <ele>351.6</ele>
        <time>2025-09-11T13:20:11Z</time>
      </trkpt>
      <trkpt lat="45.97017" lon="4.6157">
        <ele>351</ele>
        <time>2025-09-11T13:20:12Z</time>
      </trkpt>
      <trkpt lat="45.97014" lon="4.61574">
        <ele>350.6</ele>
        <time>2025-09-11T13:20:13Z</time>
      </trkpt>
      <trkpt lat="45.97012" lon="4.61579">
        <ele>350.6</ele>
        <time>2025-09-11T13:20:14Z</time>
      </trkpt>
      <trkpt lat="45.97011" lon="4.61584">
        <ele>350.6</ele>
        <time>2025-09-11T13:20:15Z</time>
      </trkpt>
      <trkpt lat="45.97009" lon="4.61589">
        <ele>350.6</ele>
        <time>2025-09-11T13:20:16Z</time>
      </trkpt>
      <trkpt lat="45.97007" lon="4.61594">
        <ele>350.6</ele>
        <time>2025-09-11T13:20:17Z</time>
      </trkpt>
      <trkpt lat="45.97004" lon="4.61599">
        <ele>350.2</ele>
        <time>2025-09-11T13:20:18Z</time>
      </trkpt>
      <trkpt lat="45.97002" lon="4.61604">
        <ele>350.2</ele>
        <time>2025-09-11T13:20:19Z</time>
      </trkpt>
      <trkpt lat="45.97" lon="4.61609">
        <ele>350.2</ele>
        <time>2025-09-11T13:20:20Z</time>
      </trkpt>
      <trkpt lat="45.96998" lon="4.61614">
        <ele>350.4</ele>
        <time>2025-09-11T13:20:21Z</time>
      </trkpt>
      <trkpt lat="45.96996" lon="4.61619">
        <ele>350.4</ele>
        <time>2025-09-11T13:20:22Z</time>
      </trkpt>
      <trkpt lat="45.96993" lon="4.61624">
        <ele>350</ele>
        <time>2025-09-11T13:20:23Z</time>
      </trkpt>
      <trkpt lat="45.96992" lon="4.61628">
        <ele>350</ele>
        <time>2025-09-11T13:20:24Z</time>
      </trkpt>
      <trkpt lat="45.9699" lon="4.61632">
        <ele>350</ele>
        <time>2025-09-11T13:20:25Z</time>
      </trkpt>
      <trkpt lat="45.96988" lon="4.61636">
        <ele>349.8</ele>
        <time>2025-09-11T13:20:26Z</time>
      </trkpt>
      <trkpt lat="45.96986" lon="4.6164">
        <ele>349.8</ele>
        <time>2025-09-11T13:20:27Z</time>
      </trkpt>
      <trkpt lat="45.96985" lon="4.61643">
        <ele>349.8</ele>
        <time>2025-09-11T13:20:28Z</time>
      </trkpt>
      <trkpt lat="45.96983" lon="4.61645">
        <ele>349.8</ele>
        <time>2025-09-11T13:20:29Z</time>
      </trkpt>
      <trkpt lat="45.96982" lon="4.61646">
        <ele>349.6</ele>
        <time>2025-09-11T13:20:30Z</time>
      </trkpt>
      <trkpt lat="45.96982" lon="4.61646">
        <ele>349.6</ele>
        <time>2025-09-11T13:20:31Z</time>
      </trkpt>
      <trkpt lat="45.96982" lon="4.61646">
        <ele>349.6</ele>
        <time>2025-09-11T13:20:32Z</time>
      </trkpt>
      <trkpt lat="45.96981" lon="4.61648">
        <ele>349</ele>
        <time>2025-09-11T13:20:48Z</time>
      </trkpt>
      <trkpt lat="45.9698" lon="4.61651">
        <ele>349</ele>
        <time>2025-09-11T13:20:49Z</time>
      </trkpt>
      <trkpt lat="45.96979" lon="4.61655">
        <ele>348.8</ele>
        <time>2025-09-11T13:20:50Z</time>
      </trkpt>
      <trkpt lat="45.96978" lon="4.6166">
        <ele>348.8</ele>
        <time>2025-09-11T13:20:51Z</time>
      </trkpt>
      <trkpt lat="45.96976" lon="4.61665">
        <ele>348.4</ele>
        <time>2025-09-11T13:20:52Z</time>
      </trkpt>
      <trkpt lat="45.96974" lon="4.6167">
        <ele>348.4</ele>
        <time>2025-09-11T13:20:53Z</time>
      </trkpt>
      <trkpt lat="45.96973" lon="4.61675">
        <ele>348</ele>
        <time>2025-09-11T13:20:54Z</time>
      </trkpt>
      <trkpt lat="45.96971" lon="4.61679">
        <ele>348</ele>
        <time>2025-09-11T13:20:55Z</time>
      </trkpt>
      <trkpt lat="45.96969" lon="4.61684">
        <ele>348</ele>
        <time>2025-09-11T13:20:56Z</time>
      </trkpt>
      <trkpt lat="45.96967" lon="4.61689">
        <ele>348</ele>
        <time>2025-09-11T13:20:57Z</time>
      </trkpt>
      <trkpt lat="45.96966" lon="4.61693">
        <ele>348</ele>
        <time>2025-09-11T13:20:58Z</time>
      </trkpt>
      <trkpt lat="45.96966" lon="4.61696">
        <ele>348</ele>
        <time>2025-09-11T13:20:59Z</time>
      </trkpt>
      <trkpt lat="45.96966" lon="4.61699">
        <ele>347.4</ele>
        <time>2025-09-11T13:21:00Z</time>
      </trkpt>
      <trkpt lat="45.96965" lon="4.61704">
        <ele>347</ele>
        <time>2025-09-11T13:21:01Z</time>
      </trkpt>
      <trkpt lat="45.96964" lon="4.61708">
        <ele>346.6</ele>
        <time>2025-09-11T13:21:02Z</time>
      </trkpt>
      <trkpt lat="45.96963" lon="4.61712">
        <ele>346.6</ele>
        <time>2025-09-11T13:21:03Z</time>
      </trkpt>
      <trkpt lat="45.96962" lon="4.61715">
        <ele>346.6</ele>
        <time>2025-09-11T13:21:04Z</time>
      </trkpt>
      <trkpt lat="45.96961" lon="4.61719">
        <ele>346.6</ele>
        <time>2025-09-11T13:21:05Z</time>
      </trkpt>
      <trkpt lat="45.9696" lon="4.61723">
        <ele>346.6</ele>
        <time>2025-09-11T13:21:06Z</time>
      </trkpt>
      <trkpt lat="45.96959" lon="4.61726">
        <ele>346.6</ele>
        <time>2025-09-11T13:21:07Z</time>
      </trkpt>
      <trkpt lat="45.96958" lon="4.6173">
        <ele>346.4</ele>
        <time>2025-09-11T13:21:08Z</time>
      </trkpt>
      <trkpt lat="45.96957" lon="4.61735">
        <ele>346.4</ele>
        <time>2025-09-11T13:21:09Z</time>
      </trkpt>
      <trkpt lat="45.96955" lon="4.61741">
        <ele>346.4</ele>
        <time>2025-09-11T13:21:10Z</time>
      </trkpt>
      <trkpt lat="45.96954" lon="4.61745">
        <ele>346.6</ele>
        <time>2025-09-11T13:21:11Z</time>
      </trkpt>
      <trkpt lat="45.96953" lon="4.6175">
        <ele>346.6</ele>
        <time>2025-09-11T13:21:12Z</time>
      </trkpt>
      <trkpt lat="45.96952" lon="4.61754">
        <ele>346.4</ele>
        <time>2025-09-11T13:21:13Z</time>
      </trkpt>
      <trkpt lat="45.96952" lon="4.61758">
        <ele>346.4</ele>
        <time>2025-09-11T13:21:14Z</time>
      </trkpt>
      <trkpt lat="45.96951" lon="4.61761">
        <ele>346.4</ele>
        <time>2025-09-11T13:21:15Z</time>
      </trkpt>
      <trkpt lat="45.96949" lon="4.61764">
        <ele>346</ele>
        <time>2025-09-11T13:21:16Z</time>
      </trkpt>
      <trkpt lat="45.96948" lon="4.61767">
        <ele>345.4</ele>
        <time>2025-09-11T13:21:17Z</time>
      </trkpt>
      <trkpt lat="45.96946" lon="4.61769">
        <ele>345.4</ele>
        <time>2025-09-11T13:21:18Z</time>
      </trkpt>
      <trkpt lat="45.96945" lon="4.61772">
        <ele>345.6</ele>
        <time>2025-09-11T13:21:19Z</time>
      </trkpt>
      <trkpt lat="45.96943" lon="4.61776">
        <ele>345.2</ele>
        <time>2025-09-11T13:21:20Z</time>
      </trkpt>
      <trkpt lat="45.96941" lon="4.61779">
        <ele>345.2</ele>
        <time>2025-09-11T13:21:21Z</time>
      </trkpt>
      <trkpt lat="45.9694" lon="4.61782">
        <ele>345.2</ele>
        <time>2025-09-11T13:21:22Z</time>
      </trkpt>
      <trkpt lat="45.96938" lon="4.61785">
        <ele>344.8</ele>
        <time>2025-09-11T13:21:23Z</time>
      </trkpt>
      <trkpt lat="45.96937" lon="4.61788">
        <ele>344.8</ele>
        <time>2025-09-11T13:21:24Z</time>
      </trkpt>
      <trkpt lat="45.96936" lon="4.61792">
        <ele>344.4</ele>
        <time>2025-09-11T13:21:25Z</time>
      </trkpt>
      <trkpt lat="45.96935" lon="4.61795">
        <ele>344.6</ele>
        <time>2025-09-11T13:21:26Z</time>
      </trkpt>
      <trkpt lat="45.96934" lon="4.61798">
        <ele>344.2</ele>
        <time>2025-09-11T13:21:27Z</time>
      </trkpt>
      <trkpt lat="45.96932" lon="4.618">
        <ele>344.2</ele>
        <time>2025-09-11T13:21:28Z</time>
      </trkpt>
      <trkpt lat="45.96931" lon="4.61802">
        <ele>343.8</ele>
        <time>2025-09-11T13:21:29Z</time>
      </trkpt>
      <trkpt lat="45.96929" lon="4.61805">
        <ele>343.8</ele>
        <time>2025-09-11T13:21:30Z</time>
      </trkpt>
      <trkpt lat="45.96927" lon="4.61808">
        <ele>343.8</ele>
        <time>2025-09-11T13:21:31Z</time>
      </trkpt>
      <trkpt lat="45.96926" lon="4.61811">
        <ele>343.8</ele>
        <time>2025-09-11T13:21:32Z</time>
      </trkpt>
      <trkpt lat="45.96925" lon="4.61814">
        <ele>343.8</ele>
        <time>2025-09-11T13:21:33Z</time>
      </trkpt>
      <trkpt lat="45.96925" lon="4.61817">
        <ele>343.8</ele>
        <time>2025-09-11T13:21:34Z</time>
      </trkpt>
      <trkpt lat="45.96924" lon="4.6182">
        <ele>343.2</ele>
        <time>2025-09-11T13:21:35Z</time>
      </trkpt>
      <trkpt lat="45.96923" lon="4.61824">
        <ele>343.2</ele>
        <time>2025-09-11T13:21:36Z</time>
      </trkpt>
      <trkpt lat="45.96921" lon="4.61829">
        <ele>343</ele>
        <time>2025-09-11T13:21:37Z</time>
      </trkpt>
      <trkpt lat="45.96921" lon="4.61832">
        <ele>343</ele>
        <time>2025-09-11T13:21:38Z</time>
      </trkpt>
      <trkpt lat="45.9692" lon="4.61836">
        <ele>343.4</ele>
        <time>2025-09-11T13:21:39Z</time>
      </trkpt>
      <trkpt lat="45.96919" lon="4.6184">
        <ele>343.6</ele>
        <time>2025-09-11T13:21:40Z</time>
      </trkpt>
      <trkpt lat="45.96918" lon="4.61843">
        <ele>343.4</ele>
        <time>2025-09-11T13:21:41Z</time>
      </trkpt>
      <trkpt lat="45.96917" lon="4.61846">
        <ele>343.4</ele>
        <time>2025-09-11T13:21:42Z</time>
      </trkpt>
      <trkpt lat="45.96916" lon="4.61849">
        <ele>343.4</ele>
        <time>2025-09-11T13:21:43Z</time>
      </trkpt>
      <trkpt lat="45.96915" lon="4.6185">
        <ele>343.4</ele>
        <time>2025-09-11T13:21:44Z</time>
      </trkpt>
      <trkpt lat="45.96914" lon="4.61853">
        <ele>343.4</ele>
        <time>2025-09-11T13:21:45Z</time>
      </trkpt>
      <trkpt lat="45.96912" lon="4.61857">
        <ele>343.4</ele>
        <time>2025-09-11T13:21:46Z</time>
      </trkpt>
      <trkpt lat="45.96911" lon="4.61863">
        <ele>343</ele>
        <time>2025-09-11T13:21:47Z</time>
      </trkpt>
      <trkpt lat="45.9691" lon="4.61867">
        <ele>343</ele>
        <time>2025-09-11T13:21:48Z</time>
      </trkpt>
      <trkpt lat="45.96909" lon="4.6187">
        <ele>343.2</ele>
        <time>2025-09-11T13:21:49Z</time>
      </trkpt>
      <trkpt lat="45.96909" lon="4.61872">
        <ele>342.8</ele>
        <time>2025-09-11T13:21:50Z</time>
      </trkpt>
      <trkpt lat="45.96908" lon="4.61874">
        <ele>342.8</ele>
        <time>2025-09-11T13:21:51Z</time>
      </trkpt>
      <trkpt lat="45.96908" lon="4.61876">
        <ele>342.6</ele>
        <time>2025-09-11T13:21:52Z</time>
      </trkpt>
      <trkpt lat="45.96909" lon="4.6188">
        <ele>342.6</ele>
        <time>2025-09-11T13:21:53Z</time>
      </trkpt>
      <trkpt lat="45.9691" lon="4.61884">
        <ele>342.6</ele>
        <time>2025-09-11T13:21:54Z</time>
      </trkpt>
      <trkpt lat="45.9691" lon="4.61887">
        <ele>342.2</ele>
        <time>2025-09-11T13:21:55Z</time>
      </trkpt>
      <trkpt lat="45.9691" lon="4.6189">
        <ele>342.2</ele>
        <time>2025-09-11T13:21:56Z</time>
      </trkpt>
      <trkpt lat="45.9691" lon="4.6189">
        <ele>342.2</ele>
        <time>2025-09-11T13:21:57Z</time>
      </trkpt>
      <trkpt lat="45.96909" lon="4.61893">
        <ele>341.6</ele>
        <time>2025-09-11T13:21:58Z</time>
      </trkpt>
      <trkpt lat="45.96907" lon="4.61896">
        <ele>341.6</ele>
        <time>2025-09-11T13:21:59Z</time>
      </trkpt>
      <trkpt lat="45.96906" lon="4.61899">
        <ele>341.6</ele>
        <time>2025-09-11T13:22:00Z</time>
      </trkpt>
      <trkpt lat="45.96905" lon="4.61903">
        <ele>341.4</ele>
        <time>2025-09-11T13:22:01Z</time>
      </trkpt>
      <trkpt lat="45.96904" lon="4.61906">
        <ele>341.4</ele>
        <time>2025-09-11T13:22:02Z</time>
      </trkpt>
      <trkpt lat="45.96903" lon="4.6191">
        <ele>341.4</ele>
        <time>2025-09-11T13:22:03Z</time>
      </trkpt>
      <trkpt lat="45.96902" lon="4.61913">
        <ele>341.4</ele>
        <time>2025-09-11T13:22:04Z</time>
      </trkpt>
      <trkpt lat="45.96901" lon="4.61918">
        <ele>341.4</ele>
        <time>2025-09-11T13:22:05Z</time>
      </trkpt>
      <trkpt lat="45.969" lon="4.61922">
        <ele>341.4</ele>
        <time>2025-09-11T13:22:06Z</time>
      </trkpt>
      <trkpt lat="45.96899" lon="4.61926">
        <ele>341.4</ele>
        <time>2025-09-11T13:22:07Z</time>
      </trkpt>
      <trkpt lat="45.96898" lon="4.61929">
        <ele>341.4</ele>
        <time>2025-09-11T13:22:08Z</time>
      </trkpt>
      <trkpt lat="45.96896" lon="4.61932">
        <ele>341.2</ele>
        <time>2025-09-11T13:22:09Z</time>
      </trkpt>
      <trkpt lat="45.96894" lon="4.61935">
        <ele>341.2</ele>
        <time>2025-09-11T13:22:10Z</time>
      </trkpt>
      <trkpt lat="45.96892" lon="4.61939">
        <ele>341</ele>
        <time>2025-09-11T13:22:11Z</time>
      </trkpt>
      <trkpt lat="45.9689" lon="4.61944">
        <ele>341</ele>
        <time>2025-09-11T13:22:12Z</time>
      </trkpt>
      <trkpt lat="45.96888" lon="4.61947">
        <ele>340.6</ele>
        <time>2025-09-11T13:22:13Z</time>
      </trkpt>
      <trkpt lat="45.96887" lon="4.61951">
        <ele>340.6</ele>
        <time>2025-09-11T13:22:14Z</time>
      </trkpt>
      <trkpt lat="45.96886" lon="4.61955">
        <ele>340.2</ele>
        <time>2025-09-11T13:22:15Z</time>
      </trkpt>
      <trkpt lat="45.96886" lon="4.61959">
        <ele>340.2</ele>
        <time>2025-09-11T13:22:16Z</time>
      </trkpt>
      <trkpt lat="45.96885" lon="4.61962">
        <ele>340.2</ele>
        <time>2025-09-11T13:22:17Z</time>
      </trkpt>
      <trkpt lat="45.96884" lon="4.61965">
        <ele>340</ele>
        <time>2025-09-11T13:22:18Z</time>
      </trkpt>
      <trkpt lat="45.96884" lon="4.61969">
        <ele>340</ele>
        <time>2025-09-11T13:22:19Z</time>
      </trkpt>
      <trkpt lat="45.96883" lon="4.61972">
        <ele>339.8</ele>
        <time>2025-09-11T13:22:20Z</time>
      </trkpt>
      <trkpt lat="45.96882" lon="4.61977">
        <ele>339.8</ele>
        <time>2025-09-11T13:22:21Z</time>
      </trkpt>
      <trkpt lat="45.9688" lon="4.61981">
        <ele>339.4</ele>
        <time>2025-09-11T13:22:22Z</time>
      </trkpt>
      <trkpt lat="45.96878" lon="4.61985">
        <ele>339.4</ele>
        <time>2025-09-11T13:22:23Z</time>
      </trkpt>
      <trkpt lat="45.96877" lon="4.61989">
        <ele>339.6</ele>
        <time>2025-09-11T13:22:24Z</time>
      </trkpt>
      <trkpt lat="45.96875" lon="4.61993">
        <ele>339.2</ele>
        <time>2025-09-11T13:22:25Z</time>
      </trkpt>
      <trkpt lat="45.96874" lon="4.61997">
        <ele>339.2</ele>
        <time>2025-09-11T13:22:26Z</time>
      </trkpt>
      <trkpt lat="45.96873" lon="4.62001">
        <ele>338.8</ele>
        <time>2025-09-11T13:22:27Z</time>
      </trkpt>
      <trkpt lat="45.96872" lon="4.62004">
        <ele>338.2</ele>
        <time>2025-09-11T13:22:28Z</time>
      </trkpt>
      <trkpt lat="45.96872" lon="4.62007">
        <ele>338.2</ele>
        <time>2025-09-11T13:22:29Z</time>
      </trkpt>
      <trkpt lat="45.96871" lon="4.6201">
        <ele>339</ele>
        <time>2025-09-11T13:22:30Z</time>
      </trkpt>
      <trkpt lat="45.96869" lon="4.62014">
        <ele>338.8</ele>
        <time>2025-09-11T13:22:31Z</time>
      </trkpt>
      <trkpt lat="45.96866" lon="4.62017">
        <ele>339</ele>
        <time>2025-09-11T13:22:32Z</time>
      </trkpt>
      <trkpt lat="45.96864" lon="4.62021">
        <ele>338.8</ele>
        <time>2025-09-11T13:22:33Z</time>
      </trkpt>
      <trkpt lat="45.96861" lon="4.62024">
        <ele>338.8</ele>
        <time>2025-09-11T13:22:34Z</time>
      </trkpt>
      <trkpt lat="45.96859" lon="4.62026">
        <ele>338.8</ele>
        <time>2025-09-11T13:22:35Z</time>
      </trkpt>
      <trkpt lat="45.96856" lon="4.62028">
        <ele>338.4</ele>
        <time>2025-09-11T13:22:36Z</time>
      </trkpt>
      <trkpt lat="45.96854" lon="4.62031">
        <ele>338.4</ele>
        <time>2025-09-11T13:22:37Z</time>
      </trkpt>
      <trkpt lat="45.96851" lon="4.62034">
        <ele>338</ele>
        <time>2025-09-11T13:22:38Z</time>
      </trkpt>
      <trkpt lat="45.96849" lon="4.62036">
        <ele>337.8</ele>
        <time>2025-09-11T13:22:39Z</time>
      </trkpt>
      <trkpt lat="45.96846" lon="4.62039">
        <ele>337.8</ele>
        <time>2025-09-11T13:22:40Z</time>
      </trkpt>
      <trkpt lat="45.96844" lon="4.62042">
        <ele>337.4</ele>
        <time>2025-09-11T13:22:41Z</time>
      </trkpt>
      <trkpt lat="45.96842" lon="4.62046">
        <ele>337.4</ele>
        <time>2025-09-11T13:22:42Z</time>
      </trkpt>
      <trkpt lat="45.96841" lon="4.6205">
        <ele>337.4</ele>
        <time>2025-09-11T13:22:43Z</time>
      </trkpt>
      <trkpt lat="45.96838" lon="4.62053">
        <ele>337</ele>
        <time>2025-09-11T13:22:44Z</time>
      </trkpt>
      <trkpt lat="45.96836" lon="4.62057">
        <ele>337</ele>
        <time>2025-09-11T13:22:45Z</time>
      </trkpt>
      <trkpt lat="45.96833" lon="4.62059">
        <ele>337</ele>
        <time>2025-09-11T13:22:46Z</time>
      </trkpt>
      <trkpt lat="45.96831" lon="4.62061">
        <ele>336.8</ele>
        <time>2025-09-11T13:22:47Z</time>
      </trkpt>
      <trkpt lat="45.96829" lon="4.62063">
        <ele>336.8</ele>
        <time>2025-09-11T13:22:48Z</time>
      </trkpt>
      <trkpt lat="45.96828" lon="4.62068">
        <ele>336</ele>
        <time>2025-09-11T13:22:49Z</time>
      </trkpt>
      <trkpt lat="45.96827" lon="4.62073">
        <ele>336</ele>
        <time>2025-09-11T13:22:50Z</time>
      </trkpt>
      <trkpt lat="45.96825" lon="4.62076">
        <ele>336</ele>
        <time>2025-09-11T13:22:51Z</time>
      </trkpt>
      <trkpt lat="45.96824" lon="4.62079">
        <ele>336</ele>
        <time>2025-09-11T13:22:52Z</time>
      </trkpt>
      <trkpt lat="45.96821" lon="4.62082">
        <ele>336</ele>
        <time>2025-09-11T13:22:53Z</time>
      </trkpt>
      <trkpt lat="45.96819" lon="4.62085">
        <ele>336.2</ele>
        <time>2025-09-11T13:22:54Z</time>
      </trkpt>
      <trkpt lat="45.96818" lon="4.62088">
        <ele>335.8</ele>
        <time>2025-09-11T13:22:55Z</time>
      </trkpt>
      <trkpt lat="45.96816" lon="4.62092">
        <ele>335.4</ele>
        <time>2025-09-11T13:22:56Z</time>
      </trkpt>
      <trkpt lat="45.96815" lon="4.62096">
        <ele>335.4</ele>
        <time>2025-09-11T13:22:57Z</time>
      </trkpt>
      <trkpt lat="45.96813" lon="4.621">
        <ele>335.4</ele>
        <time>2025-09-11T13:22:58Z</time>
      </trkpt>
      <trkpt lat="45.96811" lon="4.62103">
        <ele>335.4</ele>
        <time>2025-09-11T13:22:59Z</time>
      </trkpt>
      <trkpt lat="45.9681" lon="4.62105">
        <ele>335.4</ele>
        <time>2025-09-11T13:23:00Z</time>
      </trkpt>
      <trkpt lat="45.96808" lon="4.62108">
        <ele>335.2</ele>
        <time>2025-09-11T13:23:01Z</time>
      </trkpt>
      <trkpt lat="45.96807" lon="4.62111">
        <ele>335.2</ele>
        <time>2025-09-11T13:23:02Z</time>
      </trkpt>
      <trkpt lat="45.96805" lon="4.62113">
        <ele>335.2</ele>
        <time>2025-09-11T13:23:03Z</time>
      </trkpt>
      <trkpt lat="45.96803" lon="4.62116">
        <ele>335.2</ele>
        <time>2025-09-11T13:23:04Z</time>
      </trkpt>
      <trkpt lat="45.96802" lon="4.62118">
        <ele>335.2</ele>
        <time>2025-09-11T13:23:05Z</time>
      </trkpt>
      <trkpt lat="45.96801" lon="4.6212">
        <ele>335.2</ele>
        <time>2025-09-11T13:23:06Z</time>
      </trkpt>
      <trkpt lat="45.968" lon="4.62122">
        <ele>335.2</ele>
        <time>2025-09-11T13:23:07Z</time>
      </trkpt>
      <trkpt lat="45.96799" lon="4.62124">
        <ele>335.2</ele>
        <time>2025-09-11T13:23:08Z</time>
      </trkpt>
      <trkpt lat="45.96798" lon="4.62128">
        <ele>335.2</ele>
        <time>2025-09-11T13:23:09Z</time>
      </trkpt>
      <trkpt lat="45.96796" lon="4.62132">
        <ele>334.8</ele>
        <time>2025-09-11T13:23:10Z</time>
      </trkpt>
      <trkpt lat="45.96793" lon="4.62136">
        <ele>334.8</ele>
        <time>2025-09-11T13:23:11Z</time>
      </trkpt>
      <trkpt lat="45.96791" lon="4.6214">
        <ele>334.2</ele>
        <time>2025-09-11T13:23:12Z</time>
      </trkpt>
      <trkpt lat="45.96789" lon="4.62143">
        <ele>334.8</ele>
        <time>2025-09-11T13:23:13Z</time>
      </trkpt>
      <trkpt lat="45.96787" lon="4.62145">
        <ele>334.4</ele>
        <time>2025-09-11T13:23:14Z</time>
      </trkpt>
      <trkpt lat="45.96784" lon="4.62149">
        <ele>334.4</ele>
        <time>2025-09-11T13:23:15Z</time>
      </trkpt>
      <trkpt lat="45.96781" lon="4.62153">
        <ele>334.4</ele>
        <time>2025-09-11T13:23:16Z</time>
      </trkpt>
      <trkpt lat="45.96779" lon="4.62155">
        <ele>334</ele>
        <time>2025-09-11T13:23:17Z</time>
      </trkpt>
      <trkpt lat="45.96778" lon="4.62159">
        <ele>334</ele>
        <time>2025-09-11T13:23:18Z</time>
      </trkpt>
      <trkpt lat="45.96775" lon="4.62164">
        <ele>333.6</ele>
        <time>2025-09-11T13:23:19Z</time>
      </trkpt>
      <trkpt lat="45.96774" lon="4.62169">
        <ele>333.6</ele>
        <time>2025-09-11T13:23:20Z</time>
      </trkpt>
      <trkpt lat="45.96772" lon="4.62175">
        <ele>333.4</ele>
        <time>2025-09-11T13:23:21Z</time>
      </trkpt>
      <trkpt lat="45.9677" lon="4.62184">
        <ele>333</ele>
        <time>2025-09-11T13:23:22Z</time>
      </trkpt>
      <trkpt lat="45.96768" lon="4.6219">
        <ele>333.6</ele>
        <time>2025-09-11T13:23:23Z</time>
      </trkpt>
      <trkpt lat="45.96766" lon="4.62195">
        <ele>333.6</ele>
        <time>2025-09-11T13:23:24Z</time>
      </trkpt>
      <trkpt lat="45.96766" lon="4.62203">
        <ele>333.4</ele>
        <time>2025-09-11T13:23:25Z</time>
      </trkpt>
      <trkpt lat="45.96764" lon="4.62207">
        <ele>332.8</ele>
        <time>2025-09-11T13:23:26Z</time>
      </trkpt>
      <trkpt lat="45.96764" lon="4.6221">
        <ele>332.8</ele>
        <time>2025-09-11T13:23:27Z</time>
      </trkpt>
      <trkpt lat="45.96763" lon="4.62214">
        <ele>332.6</ele>
        <time>2025-09-11T13:23:28Z</time>
      </trkpt>
      <trkpt lat="45.96762" lon="4.62218">
        <ele>332.2</ele>
        <time>2025-09-11T13:23:29Z</time>
      </trkpt>
      <trkpt lat="45.96761" lon="4.62223">
        <ele>332.8</ele>
        <time>2025-09-11T13:23:30Z</time>
      </trkpt>
      <trkpt lat="45.9676" lon="4.62226">
        <ele>332.8</ele>
        <time>2025-09-11T13:23:31Z</time>
      </trkpt>
      <trkpt lat="45.96759" lon="4.6223">
        <ele>332.8</ele>
        <time>2025-09-11T13:23:32Z</time>
      </trkpt>
      <trkpt lat="45.96757" lon="4.62234">
        <ele>332.4</ele>
        <time>2025-09-11T13:23:33Z</time>
      </trkpt>
      <trkpt lat="45.96755" lon="4.62238">
        <ele>331.2</ele>
        <time>2025-09-11T13:23:34Z</time>
      </trkpt>
      <trkpt lat="45.96753" lon="4.62243">
        <ele>331.4</ele>
        <time>2025-09-11T13:23:35Z</time>
      </trkpt>
      <trkpt lat="45.96752" lon="4.62248">
        <ele>331.4</ele>
        <time>2025-09-11T13:23:36Z</time>
      </trkpt>
      <trkpt lat="45.96751" lon="4.62252">
        <ele>331.4</ele>
        <time>2025-09-11T13:23:37Z</time>
      </trkpt>
      <trkpt lat="45.96749" lon="4.62256">
        <ele>331.4</ele>
        <time>2025-09-11T13:23:38Z</time>
      </trkpt>
      <trkpt lat="45.96748" lon="4.62261">
        <ele>331.2</ele>
        <time>2025-09-11T13:23:39Z</time>
      </trkpt>
      <trkpt lat="45.96747" lon="4.62266">
        <ele>331.2</ele>
        <time>2025-09-11T13:23:40Z</time>
      </trkpt>
      <trkpt lat="45.96746" lon="4.6227">
        <ele>331.2</ele>
        <time>2025-09-11T13:23:41Z</time>
      </trkpt>
      <trkpt lat="45.96745" lon="4.62273">
        <ele>331.2</ele>
        <time>2025-09-11T13:23:42Z</time>
      </trkpt>
      <trkpt lat="45.96744" lon="4.62276">
        <ele>331.2</ele>
        <time>2025-09-11T13:23:43Z</time>
      </trkpt>
      <trkpt lat="45.96743" lon="4.62279">
        <ele>330.6</ele>
        <time>2025-09-11T13:23:44Z</time>
      </trkpt>
      <trkpt lat="45.96742" lon="4.62282">
        <ele>330.6</ele>
        <time>2025-09-11T13:23:45Z</time>
      </trkpt>
      <trkpt lat="45.96741" lon="4.62284">
        <ele>330</ele>
        <time>2025-09-11T13:23:46Z</time>
      </trkpt>
      <trkpt lat="45.96741" lon="4.62288">
        <ele>330.2</ele>
        <time>2025-09-11T13:23:47Z</time>
      </trkpt>
      <trkpt lat="45.96739" lon="4.62293">
        <ele>330.2</ele>
        <time>2025-09-11T13:23:48Z</time>
      </trkpt>
      <trkpt lat="45.96738" lon="4.62298">
        <ele>330</ele>
        <time>2025-09-11T13:23:49Z</time>
      </trkpt>
      <trkpt lat="45.96738" lon="4.62303">
        <ele>330</ele>
        <time>2025-09-11T13:23:50Z</time>
      </trkpt>
      <trkpt lat="45.96736" lon="4.62308">
        <ele>329.6</ele>
        <time>2025-09-11T13:23:51Z</time>
      </trkpt>
      <trkpt lat="45.96735" lon="4.62314">
        <ele>329.4</ele>
        <time>2025-09-11T13:23:52Z</time>
      </trkpt>
      <trkpt lat="45.96734" lon="4.6232">
        <ele>329.4</ele>
        <time>2025-09-11T13:23:53Z</time>
      </trkpt>
      <trkpt lat="45.96732" lon="4.62325">
        <ele>329</ele>
        <time>2025-09-11T13:23:54Z</time>
      </trkpt>
      <trkpt lat="45.96731" lon="4.6233">
        <ele>329</ele>
        <time>2025-09-11T13:23:55Z</time>
      </trkpt>
      <trkpt lat="45.96729" lon="4.62336">
        <ele>329</ele>
        <time>2025-09-11T13:23:56Z</time>
      </trkpt>
      <trkpt lat="45.96727" lon="4.62343">
        <ele>329</ele>
        <time>2025-09-11T13:23:57Z</time>
      </trkpt>
      <trkpt lat="45.96727" lon="4.62347">
        <ele>328.8</ele>
        <time>2025-09-11T13:23:58Z</time>
      </trkpt>
      <trkpt lat="45.96726" lon="4.62353">
        <ele>329.2</ele>
        <time>2025-09-11T13:23:59Z</time>
      </trkpt>
      <trkpt lat="45.96723" lon="4.62357">
        <ele>328.8</ele>
        <time>2025-09-11T13:24:00Z</time>
      </trkpt>
      <trkpt lat="45.96723" lon="4.62364">
        <ele>328</ele>
        <time>2025-09-11T13:24:01Z</time>
      </trkpt>
      <trkpt lat="45.96721" lon="4.62371">
        <ele>328.4</ele>
        <time>2025-09-11T13:24:02Z</time>
      </trkpt>
      <trkpt lat="45.96721" lon="4.62377">
        <ele>328.6</ele>
        <time>2025-09-11T13:24:03Z</time>
      </trkpt>
      <trkpt lat="45.9672" lon="4.62382">
        <ele>328.4</ele>
        <time>2025-09-11T13:24:04Z</time>
      </trkpt>
      <trkpt lat="45.96719" lon="4.62389">
        <ele>328.4</ele>
        <time>2025-09-11T13:24:05Z</time>
      </trkpt>
      <trkpt lat="45.96719" lon="4.62395">
        <ele>328.4</ele>
        <time>2025-09-11T13:24:06Z</time>
      </trkpt>
      <trkpt lat="45.96718" lon="4.62401">
        <ele>328</ele>
        <time>2025-09-11T13:24:07Z</time>
      </trkpt>
      <trkpt lat="45.96716" lon="4.62404">
        <ele>328</ele>
        <time>2025-09-11T13:24:08Z</time>
      </trkpt>
      <trkpt lat="45.96715" lon="4.62412">
        <ele>328</ele>
        <time>2025-09-11T13:24:09Z</time>
      </trkpt>
      <trkpt lat="45.96713" lon="4.62417">
        <ele>328</ele>
        <time>2025-09-11T13:24:10Z</time>
      </trkpt>
      <trkpt lat="45.96713" lon="4.62422">
        <ele>327.6</ele>
        <time>2025-09-11T13:24:11Z</time>
      </trkpt>
      <trkpt lat="45.96712" lon="4.62426">
        <ele>327.6</ele>
        <time>2025-09-11T13:24:12Z</time>
      </trkpt>
      <trkpt lat="45.9671" lon="4.6243">
        <ele>327.6</ele>
        <time>2025-09-11T13:24:13Z</time>
      </trkpt>
      <trkpt lat="45.96709" lon="4.62434">
        <ele>327.2</ele>
        <time>2025-09-11T13:24:14Z</time>
      </trkpt>
      <trkpt lat="45.96708" lon="4.62438">
        <ele>327.2</ele>
        <time>2025-09-11T13:24:15Z</time>
      </trkpt>
      <trkpt lat="45.96707" lon="4.62442">
        <ele>327.6</ele>
        <time>2025-09-11T13:24:16Z</time>
      </trkpt>
      <trkpt lat="45.96705" lon="4.62445">
        <ele>327.4</ele>
        <time>2025-09-11T13:24:17Z</time>
      </trkpt>
      <trkpt lat="45.96704" lon="4.6245">
        <ele>327.4</ele>
        <time>2025-09-11T13:24:18Z</time>
      </trkpt>
      <trkpt lat="45.96701" lon="4.62454">
        <ele>327</ele>
        <time>2025-09-11T13:24:19Z</time>
      </trkpt>
      <trkpt lat="45.96699" lon="4.62458">
        <ele>327</ele>
        <time>2025-09-11T13:24:20Z</time>
      </trkpt>
      <trkpt lat="45.96697" lon="4.62462">
        <ele>326.8</ele>
        <time>2025-09-11T13:24:21Z</time>
      </trkpt>
      <trkpt lat="45.96695" lon="4.62465">
        <ele>326.6</ele>
        <time>2025-09-11T13:24:22Z</time>
      </trkpt>
      <trkpt lat="45.96692" lon="4.62468">
        <ele>326.6</ele>
        <time>2025-09-11T13:24:23Z</time>
      </trkpt>
      <trkpt lat="45.9669" lon="4.62471">
        <ele>326.6</ele>
        <time>2025-09-11T13:24:24Z</time>
      </trkpt>
      <trkpt lat="45.96688" lon="4.62474">
        <ele>326.6</ele>
        <time>2025-09-11T13:24:25Z</time>
      </trkpt>
      <trkpt lat="45.96686" lon="4.62476">
        <ele>326.2</ele>
        <time>2025-09-11T13:24:26Z</time>
      </trkpt>
      <trkpt lat="45.96684" lon="4.62478">
        <ele>326</ele>
        <time>2025-09-11T13:24:27Z</time>
      </trkpt>
      <trkpt lat="45.96682" lon="4.62481">
        <ele>326</ele>
        <time>2025-09-11T13:24:28Z</time>
      </trkpt>
      <trkpt lat="45.9668" lon="4.62483">
        <ele>326</ele>
        <time>2025-09-11T13:24:29Z</time>
      </trkpt>
      <trkpt lat="45.96678" lon="4.62486">
        <ele>326</ele>
        <time>2025-09-11T13:24:30Z</time>
      </trkpt>
      <trkpt lat="45.96677" lon="4.62489">
        <ele>326</ele>
        <time>2025-09-11T13:24:31Z</time>
      </trkpt>
      <trkpt lat="45.96675" lon="4.62492">
        <ele>325.8</ele>
        <time>2025-09-11T13:24:32Z</time>
      </trkpt>
      <trkpt lat="45.96673" lon="4.62495">
        <ele>325.8</ele>
        <time>2025-09-11T13:24:33Z</time>
      </trkpt>
      <trkpt lat="45.96672" lon="4.62498">
        <ele>325.8</ele>
        <time>2025-09-11T13:24:34Z</time>
      </trkpt>
      <trkpt lat="45.96671" lon="4.625">
        <ele>325.8</ele>
        <time>2025-09-11T13:24:35Z</time>
      </trkpt>
      <trkpt lat="45.9667" lon="4.62502">
        <ele>325.8</ele>
        <time>2025-09-11T13:24:36Z</time>
      </trkpt>
      <trkpt lat="45.9667" lon="4.62503">
        <ele>325.8</ele>
        <time>2025-09-11T13:24:37Z</time>
      </trkpt>
      <trkpt lat="45.9667" lon="4.62504">
        <ele>325.8</ele>
        <time>2025-09-11T13:24:38Z</time>
      </trkpt>
      <trkpt lat="45.9667" lon="4.62504">
        <ele>325.8</ele>
        <time>2025-09-11T13:24:39Z</time>
      </trkpt>
      <trkpt lat="45.96672" lon="4.62503">
        <ele>325.4</ele>
        <time>2025-09-11T13:24:42Z</time>
      </trkpt>
      <trkpt lat="45.96672" lon="4.62502">
        <ele>325.4</ele>
        <time>2025-09-11T13:24:43Z</time>
      </trkpt>
      <trkpt lat="45.96672" lon="4.62501">
        <ele>325.4</ele>
        <time>2025-09-11T13:24:44Z</time>
      </trkpt>
      <trkpt lat="45.96672" lon="4.62502">
        <ele>325.4</ele>
        <time>2025-09-11T13:24:45Z</time>
      </trkpt>
      <trkpt lat="45.96672" lon="4.62503">
        <ele>325.2</ele>
        <time>2025-09-11T13:27:51Z</time>
      </trkpt>
      <trkpt lat="45.96672" lon="4.62504">
        <ele>324.8</ele>
        <time>2025-09-11T13:27:52Z</time>
      </trkpt>
      <trkpt lat="45.96672" lon="4.62505">
        <ele>324.8</ele>
        <time>2025-09-11T13:27:53Z</time>
      </trkpt>
      <trkpt lat="45.96672" lon="4.62505">
        <ele>324.8</ele>
        <time>2025-09-11T13:27:54Z</time>
      </trkpt>
      <trkpt lat="45.96672" lon="4.62505">
        <ele>324.8</ele>
        <time>2025-09-11T13:27:55Z</time>
      </trkpt>
      <trkpt lat="45.96672" lon="4.62505">
        <ele>324.8</ele>
        <time>2025-09-11T13:27:56Z</time>
      </trkpt>
      <trkpt lat="45.96672" lon="4.62506">
        <ele>324.8</ele>
        <time>2025-09-11T13:27:57Z</time>
      </trkpt>
      <trkpt lat="45.96671" lon="4.62508">
        <ele>324.8</ele>
        <time>2025-09-11T13:27:58Z</time>
      </trkpt>
      <trkpt lat="45.9667" lon="4.6251">
        <ele>324.8</ele>
        <time>2025-09-11T13:27:59Z</time>
      </trkpt>
      <trkpt lat="45.96669" lon="4.62513">
        <ele>324.8</ele>
        <time>2025-09-11T13:28:00Z</time>
      </trkpt>
      <trkpt lat="45.96668" lon="4.62517">
        <ele>324.8</ele>
        <time>2025-09-11T13:28:01Z</time>
      </trkpt>
      <trkpt lat="45.96667" lon="4.6252">
        <ele>324.6</ele>
        <time>2025-09-11T13:28:02Z</time>
      </trkpt>
      <trkpt lat="45.96665" lon="4.62522">
        <ele>324.6</ele>
        <time>2025-09-11T13:28:03Z</time>
      </trkpt>
      <trkpt lat="45.96664" lon="4.62525">
        <ele>324.6</ele>
        <time>2025-09-11T13:28:04Z</time>
      </trkpt>
      <trkpt lat="45.96663" lon="4.62529">
        <ele>324.4</ele>
        <time>2025-09-11T13:28:05Z</time>
      </trkpt>
      <trkpt lat="45.96661" lon="4.62533">
        <ele>324.4</ele>
        <time>2025-09-11T13:28:06Z</time>
      </trkpt>
      <trkpt lat="45.9666" lon="4.62537">
        <ele>324.4</ele>
        <time>2025-09-11T13:28:07Z</time>
      </trkpt>
      <trkpt lat="45.96659" lon="4.62542">
        <ele>324.4</ele>
        <time>2025-09-11T13:28:08Z</time>
      </trkpt>
      <trkpt lat="45.96657" lon="4.62548">
        <ele>324</ele>
        <time>2025-09-11T13:28:09Z</time>
      </trkpt>
      <trkpt lat="45.96655" lon="4.62553">
        <ele>324</ele>
        <time>2025-09-11T13:28:10Z</time>
      </trkpt>
      <trkpt lat="45.96653" lon="4.62559">
        <ele>324</ele>
        <time>2025-09-11T13:28:11Z</time>
      </trkpt>
      <trkpt lat="45.96651" lon="4.62565">
        <ele>324</ele>
        <time>2025-09-11T13:28:12Z</time>
      </trkpt>
      <trkpt lat="45.96648" lon="4.62572">
        <ele>324</ele>
        <time>2025-09-11T13:28:13Z</time>
      </trkpt>
      <trkpt lat="45.96645" lon="4.62579">
        <ele>323.8</ele>
        <time>2025-09-11T13:28:14Z</time>
      </trkpt>
      <trkpt lat="45.96643" lon="4.62585">
        <ele>323.4</ele>
        <time>2025-09-11T13:28:15Z</time>
      </trkpt>
      <trkpt lat="45.96641" lon="4.62592">
        <ele>323.4</ele>
        <time>2025-09-11T13:28:16Z</time>
      </trkpt>
      <trkpt lat="45.96639" lon="4.62599">
        <ele>323.4</ele>
        <time>2025-09-11T13:28:17Z</time>
      </trkpt>
      <trkpt lat="45.96636" lon="4.62608">
        <ele>323</ele>
        <time>2025-09-11T13:28:18Z</time>
      </trkpt>
      <trkpt lat="45.96633" lon="4.62615">
        <ele>323</ele>
        <time>2025-09-11T13:28:19Z</time>
      </trkpt>
      <trkpt lat="45.96631" lon="4.62624">
        <ele>323</ele>
        <time>2025-09-11T13:28:20Z</time>
      </trkpt>
      <trkpt lat="45.96629" lon="4.62631">
        <ele>322.6</ele>
        <time>2025-09-11T13:28:21Z</time>
      </trkpt>
      <trkpt lat="45.96627" lon="4.62641">
        <ele>322.4</ele>
        <time>2025-09-11T13:28:22Z</time>
      </trkpt>
      <trkpt lat="45.96625" lon="4.62648">
        <ele>322.2</ele>
        <time>2025-09-11T13:28:23Z</time>
      </trkpt>
      <trkpt lat="45.96624" lon="4.62657">
        <ele>322.2</ele>
        <time>2025-09-11T13:28:24Z</time>
      </trkpt>
      <trkpt lat="45.96622" lon="4.62664">
        <ele>321.8</ele>
        <time>2025-09-11T13:28:25Z</time>
      </trkpt>
      <trkpt lat="45.9662" lon="4.62672">
        <ele>321.6</ele>
        <time>2025-09-11T13:28:26Z</time>
      </trkpt>
      <trkpt lat="45.96618" lon="4.62681">
        <ele>321.4</ele>
        <time>2025-09-11T13:28:27Z</time>
      </trkpt>
      <trkpt lat="45.96616" lon="4.6269">
        <ele>321.4</ele>
        <time>2025-09-11T13:28:28Z</time>
      </trkpt>
      <trkpt lat="45.96615" lon="4.627">
        <ele>321</ele>
        <time>2025-09-11T13:28:29Z</time>
      </trkpt>
      <trkpt lat="45.96612" lon="4.62709">
        <ele>321</ele>
        <time>2025-09-11T13:28:30Z</time>
      </trkpt>
      <trkpt lat="45.9661" lon="4.62718">
        <ele>321</ele>
        <time>2025-09-11T13:28:31Z</time>
      </trkpt>
      <trkpt lat="45.96608" lon="4.62729">
        <ele>320.6</ele>
        <time>2025-09-11T13:28:32Z</time>
      </trkpt>
      <trkpt lat="45.96606" lon="4.62739">
        <ele>320.4</ele>
        <time>2025-09-11T13:28:33Z</time>
      </trkpt>
      <trkpt lat="45.96604" lon="4.6275">
        <ele>320.2</ele>
        <time>2025-09-11T13:28:34Z</time>
      </trkpt>
      <trkpt lat="45.96602" lon="4.6276">
        <ele>320.2</ele>
        <time>2025-09-11T13:28:35Z</time>
      </trkpt>
      <trkpt lat="45.966" lon="4.62769">
        <ele>320</ele>
        <time>2025-09-11T13:28:36Z</time>
      </trkpt>
      <trkpt lat="45.96598" lon="4.62778">
        <ele>319.4</ele>
        <time>2025-09-11T13:28:37Z</time>
      </trkpt>
      <trkpt lat="45.96596" lon="4.62789">
        <ele>319</ele>
        <time>2025-09-11T13:28:38Z</time>
      </trkpt>
      <trkpt lat="45.96596" lon="4.62796">
        <ele>319</ele>
        <time>2025-09-11T13:28:39Z</time>
      </trkpt>
      <trkpt lat="45.96594" lon="4.62804">
        <ele>318.6</ele>
        <time>2025-09-11T13:28:40Z</time>
      </trkpt>
      <trkpt lat="45.96593" lon="4.62811">
        <ele>318.4</ele>
        <time>2025-09-11T13:28:41Z</time>
      </trkpt>
      <trkpt lat="45.96592" lon="4.62818">
        <ele>318.2</ele>
        <time>2025-09-11T13:28:42Z</time>
      </trkpt>
      <trkpt lat="45.96591" lon="4.62826">
        <ele>317.8</ele>
        <time>2025-09-11T13:28:43Z</time>
      </trkpt>
      <trkpt lat="45.96589" lon="4.62834">
        <ele>317.4</ele>
        <time>2025-09-11T13:28:44Z</time>
      </trkpt>
      <trkpt lat="45.96588" lon="4.62842">
        <ele>317.2</ele>
        <time>2025-09-11T13:28:45Z</time>
      </trkpt>
      <trkpt lat="45.96586" lon="4.62851">
        <ele>317.2</ele>
        <time>2025-09-11T13:28:46Z</time>
      </trkpt>
      <trkpt lat="45.96585" lon="4.62859">
        <ele>317.2</ele>
        <time>2025-09-11T13:28:47Z</time>
      </trkpt>
      <trkpt lat="45.96583" lon="4.62866">
        <ele>317</ele>
        <time>2025-09-11T13:28:48Z</time>
      </trkpt>
      <trkpt lat="45.96582" lon="4.62873">
        <ele>317</ele>
        <time>2025-09-11T13:28:49Z</time>
      </trkpt>
      <trkpt lat="45.96581" lon="4.62879">
        <ele>316.6</ele>
        <time>2025-09-11T13:28:50Z</time>
      </trkpt>
      <trkpt lat="45.9658" lon="4.62884">
        <ele>316.2</ele>
        <time>2025-09-11T13:28:51Z</time>
      </trkpt>
      <trkpt lat="45.9658" lon="4.62888">
        <ele>316</ele>
        <time>2025-09-11T13:28:52Z</time>
      </trkpt>
      <trkpt lat="45.96578" lon="4.6289">
        <ele>316</ele>
        <time>2025-09-11T13:28:53Z</time>
      </trkpt>
      <trkpt lat="45.96577" lon="4.62895">
        <ele>316</ele>
        <time>2025-09-11T13:28:54Z</time>
      </trkpt>
      <trkpt lat="45.96577" lon="4.62899">
        <ele>316</ele>
        <time>2025-09-11T13:28:55Z</time>
      </trkpt>
      <trkpt lat="45.96576" lon="4.62905">
        <ele>315.8</ele>
        <time>2025-09-11T13:28:56Z</time>
      </trkpt>
      <trkpt lat="45.96575" lon="4.6291">
        <ele>315.8</ele>
        <time>2025-09-11T13:28:57Z</time>
      </trkpt>
      <trkpt lat="45.96574" lon="4.62917">
        <ele>315.4</ele>
        <time>2025-09-11T13:28:58Z</time>
      </trkpt>
      <trkpt lat="45.96572" lon="4.62924">
        <ele>315.4</ele>
        <time>2025-09-11T13:28:59Z</time>
      </trkpt>
      <trkpt lat="45.9657" lon="4.62931">
        <ele>315</ele>
        <time>2025-09-11T13:29:00Z</time>
      </trkpt>
      <trkpt lat="45.96568" lon="4.62938">
        <ele>315</ele>
        <time>2025-09-11T13:29:01Z</time>
      </trkpt>
      <trkpt lat="45.96566" lon="4.62946">
        <ele>315</ele>
        <time>2025-09-11T13:29:02Z</time>
      </trkpt>
      <trkpt lat="45.96563" lon="4.62953">
        <ele>314.6</ele>
        <time>2025-09-11T13:29:03Z</time>
      </trkpt>
      <trkpt lat="45.96561" lon="4.6296">
        <ele>314.4</ele>
        <time>2025-09-11T13:29:04Z</time>
      </trkpt>
      <trkpt lat="45.96557" lon="4.62968">
        <ele>314.4</ele>
        <time>2025-09-11T13:29:05Z</time>
      </trkpt>
      <trkpt lat="45.96554" lon="4.62974">
        <ele>314.2</ele>
        <time>2025-09-11T13:29:06Z</time>
      </trkpt>
      <trkpt lat="45.9655" lon="4.62981">
        <ele>314</ele>
        <time>2025-09-11T13:29:07Z</time>
      </trkpt>
      <trkpt lat="45.96546" lon="4.62989">
        <ele>313.8</ele>
        <time>2025-09-11T13:29:08Z</time>
      </trkpt>
      <trkpt lat="45.96542" lon="4.62997">
        <ele>313.6</ele>
        <time>2025-09-11T13:29:09Z</time>
      </trkpt>
      <trkpt lat="45.96537" lon="4.63005">
        <ele>313.2</ele>
        <time>2025-09-11T13:29:10Z</time>
      </trkpt>
      <trkpt lat="45.96533" lon="4.63013">
        <ele>312.8</ele>
        <time>2025-09-11T13:29:11Z</time>
      </trkpt>
      <trkpt lat="45.96529" lon="4.63021">
        <ele>312.4</ele>
        <time>2025-09-11T13:29:12Z</time>
      </trkpt>
      <trkpt lat="45.96524" lon="4.6303">
        <ele>312.2</ele>
        <time>2025-09-11T13:29:13Z</time>
      </trkpt>
      <trkpt lat="45.9652" lon="4.63037">
        <ele>312</ele>
        <time>2025-09-11T13:29:14Z</time>
      </trkpt>
      <trkpt lat="45.96515" lon="4.63047">
        <ele>311.8</ele>
        <time>2025-09-11T13:29:15Z</time>
      </trkpt>
      <trkpt lat="45.96511" lon="4.63056">
        <ele>311.4</ele>
        <time>2025-09-11T13:29:16Z</time>
      </trkpt>
      <trkpt lat="45.96507" lon="4.63065">
        <ele>311</ele>
        <time>2025-09-11T13:29:17Z</time>
      </trkpt>
      <trkpt lat="45.96503" lon="4.63075">
        <ele>310.8</ele>
        <time>2025-09-11T13:29:18Z</time>
      </trkpt>
      <trkpt lat="45.965" lon="4.63085">
        <ele>310.6</ele>
        <time>2025-09-11T13:29:19Z</time>
      </trkpt>
      <trkpt lat="45.96496" lon="4.63095">
        <ele>310.2</ele>
        <time>2025-09-11T13:29:20Z</time>
      </trkpt>
      <trkpt lat="45.96493" lon="4.63106">
        <ele>310</ele>
        <time>2025-09-11T13:29:21Z</time>
      </trkpt>
      <trkpt lat="45.96491" lon="4.63117">
        <ele>310</ele>
        <time>2025-09-11T13:29:22Z</time>
      </trkpt>
      <trkpt lat="45.96491" lon="4.63128">
        <ele>309.6</ele>
        <time>2025-09-11T13:29:23Z</time>
      </trkpt>
      <trkpt lat="45.9649" lon="4.63139">
        <ele>309.6</ele>
        <time>2025-09-11T13:29:24Z</time>
      </trkpt>
      <trkpt lat="45.96491" lon="4.6315">
        <ele>309.4</ele>
        <time>2025-09-11T13:29:25Z</time>
      </trkpt>
      <trkpt lat="45.96491" lon="4.63161">
        <ele>309.4</ele>
        <time>2025-09-11T13:29:26Z</time>
      </trkpt>
      <trkpt lat="45.96492" lon="4.6317">
        <ele>309</ele>
        <time>2025-09-11T13:29:27Z</time>
      </trkpt>
      <trkpt lat="45.96492" lon="4.63179">
        <ele>308.8</ele>
        <time>2025-09-11T13:29:28Z</time>
      </trkpt>
      <trkpt lat="45.96492" lon="4.63186">
        <ele>308.4</ele>
        <time>2025-09-11T13:29:29Z</time>
      </trkpt>
      <trkpt lat="45.96492" lon="4.63193">
        <ele>308.4</ele>
        <time>2025-09-11T13:29:30Z</time>
      </trkpt>
      <trkpt lat="45.96492" lon="4.63199">
        <ele>308.4</ele>
        <time>2025-09-11T13:29:31Z</time>
      </trkpt>
      <trkpt lat="45.96493" lon="4.63204">
        <ele>308.2</ele>
        <time>2025-09-11T13:29:32Z</time>
      </trkpt>
      <trkpt lat="45.96492" lon="4.63207">
        <ele>308.2</ele>
        <time>2025-09-11T13:29:33Z</time>
      </trkpt>
      <trkpt lat="45.96492" lon="4.63208">
        <ele>308.2</ele>
        <time>2025-09-11T13:29:34Z</time>
      </trkpt>
      <trkpt lat="45.96492" lon="4.6321">
        <ele>308</ele>
        <time>2025-09-11T13:29:35Z</time>
      </trkpt>
      <trkpt lat="45.96492" lon="4.6321">
        <ele>308</ele>
        <time>2025-09-11T13:29:36Z</time>
      </trkpt>
      <trkpt lat="45.96491" lon="4.63211">
        <ele>307.6</ele>
        <time>2025-09-11T13:30:07Z</time>
      </trkpt>
      <trkpt lat="45.96489" lon="4.63212">
        <ele>307.6</ele>
        <time>2025-09-11T13:30:08Z</time>
      </trkpt>
      <trkpt lat="45.96487" lon="4.63211">
        <ele>307.2</ele>
        <time>2025-09-11T13:30:09Z</time>
      </trkpt>
      <trkpt lat="45.96487" lon="4.63208">
        <ele>307.2</ele>
        <time>2025-09-11T13:30:10Z</time>
      </trkpt>
      <trkpt lat="45.96487" lon="4.63205">
        <ele>307.2</ele>
        <time>2025-09-11T13:30:11Z</time>
      </trkpt>
      <trkpt lat="45.96487" lon="4.63203">
        <ele>307.2</ele>
        <time>2025-09-11T13:30:12Z</time>
      </trkpt>
      <trkpt lat="45.96488" lon="4.63201">
        <ele>306.8</ele>
        <time>2025-09-11T13:30:13Z</time>
      </trkpt>
      <trkpt lat="45.96487" lon="4.63198">
        <ele>306.8</ele>
        <time>2025-09-11T13:30:14Z</time>
      </trkpt>
      <trkpt lat="45.96486" lon="4.63197">
        <ele>306.6</ele>
        <time>2025-09-11T13:30:15Z</time>
      </trkpt>
      <trkpt lat="45.96484" lon="4.63199">
        <ele>306.6</ele>
        <time>2025-09-11T13:30:16Z</time>
      </trkpt>
      <trkpt lat="45.96483" lon="4.63202">
        <ele>306.6</ele>
        <time>2025-09-11T13:30:17Z</time>
      </trkpt>
      <trkpt lat="45.96483" lon="4.63205">
        <ele>306.8</ele>
        <time>2025-09-11T13:30:18Z</time>
      </trkpt>
      <trkpt lat="45.96484" lon="4.63208">
        <ele>306.8</ele>
        <time>2025-09-11T13:30:19Z</time>
      </trkpt>
      <trkpt lat="45.96484" lon="4.63211">
        <ele>307</ele>
        <time>2025-09-11T13:30:20Z</time>
      </trkpt>
      <trkpt lat="45.96484" lon="4.63213">
        <ele>307</ele>
        <time>2025-09-11T13:30:21Z</time>
      </trkpt>
      <trkpt lat="45.96484" lon="4.63217">
        <ele>307</ele>
        <time>2025-09-11T13:30:22Z</time>
      </trkpt>
      <trkpt lat="45.96484" lon="4.6322">
        <ele>307.4</ele>
        <time>2025-09-11T13:30:23Z</time>
      </trkpt>
      <trkpt lat="45.96484" lon="4.63224">
        <ele>307.4</ele>
        <time>2025-09-11T13:30:24Z</time>
      </trkpt>
      <trkpt lat="45.96483" lon="4.63228">
        <ele>306.8</ele>
        <time>2025-09-11T13:30:25Z</time>
      </trkpt>
      <trkpt lat="45.96483" lon="4.63232">
        <ele>308</ele>
        <time>2025-09-11T13:30:26Z</time>
      </trkpt>
      <trkpt lat="45.96482" lon="4.63237">
        <ele>308</ele>
        <time>2025-09-11T13:30:27Z</time>
      </trkpt>
      <trkpt lat="45.96481" lon="4.63242">
        <ele>308.2</ele>
        <time>2025-09-11T13:30:28Z</time>
      </trkpt>
      <trkpt lat="45.9648" lon="4.63246">
        <ele>308.2</ele>
        <time>2025-09-11T13:30:29Z</time>
      </trkpt>
      <trkpt lat="45.96479" lon="4.63251">
        <ele>308.2</ele>
        <time>2025-09-11T13:30:30Z</time>
      </trkpt>
      <trkpt lat="45.96478" lon="4.63255">
        <ele>308.2</ele>
        <time>2025-09-11T13:30:31Z</time>
      </trkpt>
      <trkpt lat="45.96477" lon="4.6326">
        <ele>308.2</ele>
        <time>2025-09-11T13:30:32Z</time>
      </trkpt>
      <trkpt lat="45.96475" lon="4.63264">
        <ele>308.2</ele>
        <time>2025-09-11T13:30:33Z</time>
      </trkpt>
      <trkpt lat="45.96474" lon="4.63269">
        <ele>308.2</ele>
        <time>2025-09-11T13:30:34Z</time>
      </trkpt>
      <trkpt lat="45.96473" lon="4.63273">
        <ele>308.2</ele>
        <time>2025-09-11T13:30:35Z</time>
      </trkpt>
      <trkpt lat="45.96472" lon="4.63278">
        <ele>308.2</ele>
        <time>2025-09-11T13:30:36Z</time>
      </trkpt>
      <trkpt lat="45.96471" lon="4.63283">
        <ele>308.6</ele>
        <time>2025-09-11T13:30:37Z</time>
      </trkpt>
      <trkpt lat="45.96469" lon="4.63287">
        <ele>308.6</ele>
        <time>2025-09-11T13:30:38Z</time>
      </trkpt>
      <trkpt lat="45.96469" lon="4.63291">
        <ele>308.6</ele>
        <time>2025-09-11T13:30:39Z</time>
      </trkpt>
      <trkpt lat="45.96467" lon="4.63294">
        <ele>308.8</ele>
        <time>2025-09-11T13:30:40Z</time>
      </trkpt>
      <trkpt lat="45.96465" lon="4.63297">
        <ele>308.8</ele>
        <time>2025-09-11T13:30:41Z</time>
      </trkpt>
      <trkpt lat="45.96463" lon="4.63299">
        <ele>308.8</ele>
        <time>2025-09-11T13:30:42Z</time>
      </trkpt>
      <trkpt lat="45.96461" lon="4.63302">
        <ele>308.4</ele>
        <time>2025-09-11T13:30:43Z</time>
      </trkpt>
      <trkpt lat="45.96458" lon="4.63306">
        <ele>308</ele>
        <time>2025-09-11T13:30:44Z</time>
      </trkpt>
      <trkpt lat="45.96456" lon="4.6331">
        <ele>307.8</ele>
        <time>2025-09-11T13:30:45Z</time>
      </trkpt>
      <trkpt lat="45.96454" lon="4.63314">
        <ele>307.6</ele>
        <time>2025-09-11T13:30:46Z</time>
      </trkpt>
      <trkpt lat="45.96453" lon="4.63317">
        <ele>307.6</ele>
        <time>2025-09-11T13:30:47Z</time>
      </trkpt>
      <trkpt lat="45.96452" lon="4.63319">
        <ele>307.6</ele>
        <time>2025-09-11T13:30:48Z</time>
      </trkpt>
      <trkpt lat="45.96452" lon="4.63321">
        <ele>307.6</ele>
        <time>2025-09-11T13:30:49Z</time>
      </trkpt>
      <trkpt lat="45.96451" lon="4.63322">
        <ele>307.6</ele>
        <time>2025-09-11T13:30:50Z</time>
      </trkpt>
      <trkpt lat="45.9645" lon="4.63324">
        <ele>307.6</ele>
        <time>2025-09-11T13:30:51Z</time>
      </trkpt>
      <trkpt lat="45.9645" lon="4.63327">
        <ele>307.6</ele>
        <time>2025-09-11T13:30:52Z</time>
      </trkpt>
      <trkpt lat="45.96449" lon="4.6333">
        <ele>307.6</ele>
        <time>2025-09-11T13:30:53Z</time>
      </trkpt>
      <trkpt lat="45.96447" lon="4.63334">
        <ele>307.4</ele>
        <time>2025-09-11T13:30:54Z</time>
      </trkpt>
      <trkpt lat="45.96445" lon="4.63339">
        <ele>307</ele>
        <time>2025-09-11T13:30:55Z</time>
      </trkpt>
      <trkpt lat="45.96443" lon="4.63345">
        <ele>307.2</ele>
        <time>2025-09-11T13:30:56Z</time>
      </trkpt>
      <trkpt lat="45.96441" lon="4.6335">
        <ele>307</ele>
        <time>2025-09-11T13:30:57Z</time>
      </trkpt>
      <trkpt lat="45.96438" lon="4.63358">
        <ele>307</ele>
        <time>2025-09-11T13:30:58Z</time>
      </trkpt>
      <trkpt lat="45.96435" lon="4.63366">
        <ele>306.8</ele>
        <time>2025-09-11T13:30:59Z</time>
      </trkpt>
      <trkpt lat="45.96432" lon="4.63372">
        <ele>306.4</ele>
        <time>2025-09-11T13:31:00Z</time>
      </trkpt>
      <trkpt lat="45.96429" lon="4.63379">
        <ele>306.2</ele>
        <time>2025-09-11T13:31:01Z</time>
      </trkpt>
      <trkpt lat="45.96427" lon="4.63387">
        <ele>305.6</ele>
        <time>2025-09-11T13:31:02Z</time>
      </trkpt>
      <trkpt lat="45.96424" lon="4.63395">
        <ele>305.6</ele>
        <time>2025-09-11T13:31:03Z</time>
      </trkpt>
      <trkpt lat="45.96422" lon="4.63404">
        <ele>305.4</ele>
        <time>2025-09-11T13:31:04Z</time>
      </trkpt>
      <trkpt lat="45.9642" lon="4.63411">
        <ele>305.4</ele>
        <time>2025-09-11T13:31:05Z</time>
      </trkpt>
      <trkpt lat="45.96418" lon="4.63419">
        <ele>305</ele>
        <time>2025-09-11T13:31:06Z</time>
      </trkpt>
      <trkpt lat="45.96416" lon="4.63429">
        <ele>305</ele>
        <time>2025-09-11T13:31:07Z</time>
      </trkpt>
      <trkpt lat="45.96414" lon="4.63439">
        <ele>304.2</ele>
        <time>2025-09-11T13:31:08Z</time>
      </trkpt>
      <trkpt lat="45.96412" lon="4.63448">
        <ele>304.2</ele>
        <time>2025-09-11T13:31:09Z</time>
      </trkpt>
      <trkpt lat="45.96409" lon="4.63458">
        <ele>304.2</ele>
        <time>2025-09-11T13:31:10Z</time>
      </trkpt>
      <trkpt lat="45.96408" lon="4.63469">
        <ele>304.2</ele>
        <time>2025-09-11T13:31:11Z</time>
      </trkpt>
      <trkpt lat="45.96405" lon="4.63479">
        <ele>303</ele>
        <time>2025-09-11T13:31:12Z</time>
      </trkpt>
      <trkpt lat="45.96403" lon="4.6349">
        <ele>302.6</ele>
        <time>2025-09-11T13:31:13Z</time>
      </trkpt>
      <trkpt lat="45.96401" lon="4.63501">
        <ele>302.6</ele>
        <time>2025-09-11T13:31:14Z</time>
      </trkpt>
      <trkpt lat="45.96398" lon="4.63513">
        <ele>302.6</ele>
        <time>2025-09-11T13:31:15Z</time>
      </trkpt>
      <trkpt lat="45.96396" lon="4.63523">
        <ele>302.6</ele>
        <time>2025-09-11T13:31:16Z</time>
      </trkpt>
      <trkpt lat="45.96394" lon="4.63535">
        <ele>302.4</ele>
        <time>2025-09-11T13:31:17Z</time>
      </trkpt>
      <trkpt lat="45.96392" lon="4.63545">
        <ele>301</ele>
        <time>2025-09-11T13:31:18Z</time>
      </trkpt>
      <trkpt lat="45.9639" lon="4.63555">
        <ele>301.6</ele>
        <time>2025-09-11T13:31:19Z</time>
      </trkpt>
      <trkpt lat="45.96388" lon="4.63565">
        <ele>301.6</ele>
        <time>2025-09-11T13:31:20Z</time>
      </trkpt>
      <trkpt lat="45.96387" lon="4.63575">
        <ele>301.6</ele>
        <time>2025-09-11T13:31:21Z</time>
      </trkpt>
      <trkpt lat="45.96384" lon="4.63583">
        <ele>301.4</ele>
        <time>2025-09-11T13:31:22Z</time>
      </trkpt>
      <trkpt lat="45.96382" lon="4.63589">
        <ele>301</ele>
        <time>2025-09-11T13:31:23Z</time>
      </trkpt>
      <trkpt lat="45.96381" lon="4.63598">
        <ele>301</ele>
        <time>2025-09-11T13:31:24Z</time>
      </trkpt>
      <trkpt lat="45.96379" lon="4.63606">
        <ele>300.8</ele>
        <time>2025-09-11T13:31:25Z</time>
      </trkpt>
      <trkpt lat="45.96378" lon="4.63616">
        <ele>300.8</ele>
        <time>2025-09-11T13:31:26Z</time>
      </trkpt>
      <trkpt lat="45.96376" lon="4.63625">
        <ele>300.6</ele>
        <time>2025-09-11T13:31:27Z</time>
      </trkpt>
      <trkpt lat="45.96374" lon="4.63634">
        <ele>300.4</ele>
        <time>2025-09-11T13:31:28Z</time>
      </trkpt>
      <trkpt lat="45.96373" lon="4.63644">
        <ele>300</ele>
        <time>2025-09-11T13:31:29Z</time>
      </trkpt>
      <trkpt lat="45.96371" lon="4.63654">
        <ele>299.8</ele>
        <time>2025-09-11T13:31:30Z</time>
      </trkpt>
      <trkpt lat="45.9637" lon="4.63664">
        <ele>299.6</ele>
        <time>2025-09-11T13:31:31Z</time>
      </trkpt>
      <trkpt lat="45.96368" lon="4.63674">
        <ele>299.6</ele>
        <time>2025-09-11T13:31:32Z</time>
      </trkpt>
      <trkpt lat="45.96367" lon="4.63685">
        <ele>299</ele>
        <time>2025-09-11T13:31:33Z</time>
      </trkpt>
      <trkpt lat="45.96365" lon="4.63696">
        <ele>299</ele>
        <time>2025-09-11T13:31:34Z</time>
      </trkpt>
      <trkpt lat="45.96363" lon="4.63707">
        <ele>298.6</ele>
        <time>2025-09-11T13:31:35Z</time>
      </trkpt>
      <trkpt lat="45.96361" lon="4.63717">
        <ele>298.2</ele>
        <time>2025-09-11T13:31:36Z</time>
      </trkpt>
      <trkpt lat="45.96359" lon="4.63728">
        <ele>298</ele>
        <time>2025-09-11T13:31:37Z</time>
      </trkpt>
      <trkpt lat="45.96358" lon="4.63739">
        <ele>297.8</ele>
        <time>2025-09-11T13:31:38Z</time>
      </trkpt>
      <trkpt lat="45.96356" lon="4.63751">
        <ele>297.4</ele>
        <time>2025-09-11T13:31:39Z</time>
      </trkpt>
      <trkpt lat="45.96355" lon="4.63762">
        <ele>297.4</ele>
        <time>2025-09-11T13:31:40Z</time>
      </trkpt>
      <trkpt lat="45.96354" lon="4.63773">
        <ele>296.8</ele>
        <time>2025-09-11T13:31:41Z</time>
      </trkpt>
      <trkpt lat="45.96353" lon="4.63784">
        <ele>296.4</ele>
        <time>2025-09-11T13:31:42Z</time>
      </trkpt>
      <trkpt lat="45.96352" lon="4.63795">
        <ele>295.8</ele>
        <time>2025-09-11T13:31:43Z</time>
      </trkpt>
      <trkpt lat="45.9635" lon="4.63806">
        <ele>295.4</ele>
        <time>2025-09-11T13:31:44Z</time>
      </trkpt>
      <trkpt lat="45.96348" lon="4.63818">
        <ele>295.8</ele>
        <time>2025-09-11T13:31:45Z</time>
      </trkpt>
      <trkpt lat="45.96347" lon="4.63829">
        <ele>295.8</ele>
        <time>2025-09-11T13:31:46Z</time>
      </trkpt>
      <trkpt lat="45.96345" lon="4.6384">
        <ele>295.6</ele>
        <time>2025-09-11T13:31:47Z</time>
      </trkpt>
      <trkpt lat="45.96343" lon="4.63852">
        <ele>295.2</ele>
        <time>2025-09-11T13:31:48Z</time>
      </trkpt>
      <trkpt lat="45.96341" lon="4.63864">
        <ele>294.8</ele>
        <time>2025-09-11T13:31:49Z</time>
      </trkpt>
      <trkpt lat="45.96338" lon="4.63876">
        <ele>294.4</ele>
        <time>2025-09-11T13:31:50Z</time>
      </trkpt>
      <trkpt lat="45.96335" lon="4.63888">
        <ele>294</ele>
        <time>2025-09-11T13:31:51Z</time>
      </trkpt>
      <trkpt lat="45.96332" lon="4.63899">
        <ele>293.8</ele>
        <time>2025-09-11T13:31:52Z</time>
      </trkpt>
      <trkpt lat="45.96329" lon="4.63911">
        <ele>293.4</ele>
        <time>2025-09-11T13:31:53Z</time>
      </trkpt>
      <trkpt lat="45.96326" lon="4.63922">
        <ele>293</ele>
        <time>2025-09-11T13:31:54Z</time>
      </trkpt>
      <trkpt lat="45.96323" lon="4.63933">
        <ele>292.6</ele>
        <time>2025-09-11T13:31:55Z</time>
      </trkpt>
      <trkpt lat="45.96321" lon="4.63944">
        <ele>291.8</ele>
        <time>2025-09-11T13:31:56Z</time>
      </trkpt>
      <trkpt lat="45.96318" lon="4.63954">
        <ele>291.8</ele>
        <time>2025-09-11T13:31:57Z</time>
      </trkpt>
      <trkpt lat="45.96315" lon="4.63965">
        <ele>291.8</ele>
        <time>2025-09-11T13:31:58Z</time>
      </trkpt>
      <trkpt lat="45.96315" lon="4.63965">
        <ele>291.4</ele>
        <time>2025-09-11T13:31:59Z</time>
      </trkpt>
      <trkpt lat="45.9631" lon="4.63987">
        <ele>291.4</ele>
        <time>2025-09-11T13:32:00Z</time>
      </trkpt>
      <trkpt lat="45.96307" lon="4.63998">
        <ele>291</ele>
        <time>2025-09-11T13:32:01Z</time>
      </trkpt>
      <trkpt lat="45.96306" lon="4.6401">
        <ele>291</ele>
        <time>2025-09-11T13:32:02Z</time>
      </trkpt>
      <trkpt lat="45.96303" lon="4.64022">
        <ele>290.4</ele>
        <time>2025-09-11T13:32:03Z</time>
      </trkpt>
      <trkpt lat="45.96302" lon="4.64034">
        <ele>290</ele>
        <time>2025-09-11T13:32:04Z</time>
      </trkpt>
      <trkpt lat="45.96301" lon="4.64046">
        <ele>289.6</ele>
        <time>2025-09-11T13:32:05Z</time>
      </trkpt>
      <trkpt lat="45.963" lon="4.64058">
        <ele>289.6</ele>
        <time>2025-09-11T13:32:06Z</time>
      </trkpt>
      <trkpt lat="45.96298" lon="4.6407">
        <ele>288.4</ele>
        <time>2025-09-11T13:32:07Z</time>
      </trkpt>
      <trkpt lat="45.96298" lon="4.64082">
        <ele>288.4</ele>
        <time>2025-09-11T13:32:08Z</time>
      </trkpt>
      <trkpt lat="45.96297" lon="4.64093">
        <ele>288.4</ele>
        <time>2025-09-11T13:32:09Z</time>
      </trkpt>
      <trkpt lat="45.96296" lon="4.64105">
        <ele>288.4</ele>
        <time>2025-09-11T13:32:10Z</time>
      </trkpt>
      <trkpt lat="45.96295" lon="4.64117">
        <ele>288.2</ele>
        <time>2025-09-11T13:32:11Z</time>
      </trkpt>
      <trkpt lat="45.96293" lon="4.64129">
        <ele>288.2</ele>
        <time>2025-09-11T13:32:12Z</time>
      </trkpt>
      <trkpt lat="45.96292" lon="4.64141">
        <ele>287.8</ele>
        <time>2025-09-11T13:32:13Z</time>
      </trkpt>
      <trkpt lat="45.9629" lon="4.64152">
        <ele>287.8</ele>
        <time>2025-09-11T13:32:14Z</time>
      </trkpt>
      <trkpt lat="45.96288" lon="4.64163">
        <ele>287.4</ele>
        <time>2025-09-11T13:32:15Z</time>
      </trkpt>
      <trkpt lat="45.96285" lon="4.64173">
        <ele>287.2</ele>
        <time>2025-09-11T13:32:16Z</time>
      </trkpt>
      <trkpt lat="45.96281" lon="4.64183">
        <ele>287</ele>
        <time>2025-09-11T13:32:17Z</time>
      </trkpt>
      <trkpt lat="45.96278" lon="4.64194">
        <ele>286.8</ele>
        <time>2025-09-11T13:32:18Z</time>
      </trkpt>
      <trkpt lat="45.96274" lon="4.64204">
        <ele>286.4</ele>
        <time>2025-09-11T13:32:19Z</time>
      </trkpt>
      <trkpt lat="45.96271" lon="4.64216">
        <ele>286</ele>
        <time>2025-09-11T13:32:20Z</time>
      </trkpt>
      <trkpt lat="45.96267" lon="4.64227">
        <ele>286</ele>
        <time>2025-09-11T13:32:21Z</time>
      </trkpt>
      <trkpt lat="45.96262" lon="4.64238">
        <ele>285.6</ele>
        <time>2025-09-11T13:32:22Z</time>
      </trkpt>
      <trkpt lat="45.96258" lon="4.64247">
        <ele>285.4</ele>
        <time>2025-09-11T13:32:23Z</time>
      </trkpt>
      <trkpt lat="45.96254" lon="4.64259">
        <ele>285</ele>
        <time>2025-09-11T13:32:24Z</time>
      </trkpt>
      <trkpt lat="45.96251" lon="4.64269">
        <ele>284.8</ele>
        <time>2025-09-11T13:32:25Z</time>
      </trkpt>
      <trkpt lat="45.96246" lon="4.6428">
        <ele>284.4</ele>
        <time>2025-09-11T13:32:26Z</time>
      </trkpt>
      <trkpt lat="45.96242" lon="4.64292">
        <ele>284.4</ele>
        <time>2025-09-11T13:32:27Z</time>
      </trkpt>
      <trkpt lat="45.96238" lon="4.64302">
        <ele>284</ele>
        <time>2025-09-11T13:32:28Z</time>
      </trkpt>
      <trkpt lat="45.96234" lon="4.64314">
        <ele>284</ele>
        <time>2025-09-11T13:32:29Z</time>
      </trkpt>
      <trkpt lat="45.96229" lon="4.64326">
        <ele>284</ele>
        <time>2025-09-11T13:32:30Z</time>
      </trkpt>
      <trkpt lat="45.96225" lon="4.64337">
        <ele>283.6</ele>
        <time>2025-09-11T13:32:31Z</time>
      </trkpt>
      <trkpt lat="45.96221" lon="4.64348">
        <ele>283.6</ele>
        <time>2025-09-11T13:32:32Z</time>
      </trkpt>
      <trkpt lat="45.96218" lon="4.64358">
        <ele>283</ele>
        <time>2025-09-11T13:32:33Z</time>
      </trkpt>
      <trkpt lat="45.96214" lon="4.6437">
        <ele>282.6</ele>
        <time>2025-09-11T13:32:34Z</time>
      </trkpt>
      <trkpt lat="45.96209" lon="4.64382">
        <ele>282.4</ele>
        <time>2025-09-11T13:32:35Z</time>
      </trkpt>
      <trkpt lat="45.96205" lon="4.64395">
        <ele>281.8</ele>
        <time>2025-09-11T13:32:36Z</time>
      </trkpt>
      <trkpt lat="45.96202" lon="4.64408">
        <ele>281.2</ele>
        <time>2025-09-11T13:32:37Z</time>
      </trkpt>
      <trkpt lat="45.96198" lon="4.64421">
        <ele>280.8</ele>
        <time>2025-09-11T13:32:38Z</time>
      </trkpt>
      <trkpt lat="45.96196" lon="4.64433">
        <ele>280.4</ele>
        <time>2025-09-11T13:32:39Z</time>
      </trkpt>
      <trkpt lat="45.96193" lon="4.64447">
        <ele>280</ele>
        <time>2025-09-11T13:32:40Z</time>
      </trkpt>
      <trkpt lat="45.96192" lon="4.6446">
        <ele>279.6</ele>
        <time>2025-09-11T13:32:41Z</time>
      </trkpt>
      <trkpt lat="45.96191" lon="4.64473">
        <ele>279.4</ele>
        <time>2025-09-11T13:32:42Z</time>
      </trkpt>
      <trkpt lat="45.96189" lon="4.64487">
        <ele>279.2</ele>
        <time>2025-09-11T13:32:43Z</time>
      </trkpt>
      <trkpt lat="45.96188" lon="4.645">
        <ele>279.2</ele>
        <time>2025-09-11T13:32:44Z</time>
      </trkpt>
      <trkpt lat="45.96188" lon="4.64514">
        <ele>279</ele>
        <time>2025-09-11T13:32:45Z</time>
      </trkpt>
      <trkpt lat="45.96187" lon="4.64527">
        <ele>278.4</ele>
        <time>2025-09-11T13:32:46Z</time>
      </trkpt>
      <trkpt lat="45.96187" lon="4.6454">
        <ele>278</ele>
        <time>2025-09-11T13:32:47Z</time>
      </trkpt>
      <trkpt lat="45.96187" lon="4.64554">
        <ele>278</ele>
        <time>2025-09-11T13:32:48Z</time>
      </trkpt>
      <trkpt lat="45.96186" lon="4.64567">
        <ele>277.2</ele>
        <time>2025-09-11T13:32:49Z</time>
      </trkpt>
      <trkpt lat="45.96186" lon="4.64581">
        <ele>276.8</ele>
        <time>2025-09-11T13:32:50Z</time>
      </trkpt>
      <trkpt lat="45.96185" lon="4.64595">
        <ele>276.4</ele>
        <time>2025-09-11T13:32:51Z</time>
      </trkpt>
      <trkpt lat="45.96183" lon="4.64608">
        <ele>276.2</ele>
        <time>2025-09-11T13:32:52Z</time>
      </trkpt>
      <trkpt lat="45.96181" lon="4.64622">
        <ele>275.6</ele>
        <time>2025-09-11T13:32:53Z</time>
      </trkpt>
      <trkpt lat="45.9618" lon="4.64636">
        <ele>275.4</ele>
        <time>2025-09-11T13:32:54Z</time>
      </trkpt>
      <trkpt lat="45.96178" lon="4.64649">
        <ele>275.2</ele>
        <time>2025-09-11T13:32:55Z</time>
      </trkpt>
      <trkpt lat="45.96176" lon="4.64663">
        <ele>275</ele>
        <time>2025-09-11T13:32:56Z</time>
      </trkpt>
      <trkpt lat="45.96174" lon="4.64676">
        <ele>274.8</ele>
        <time>2025-09-11T13:32:57Z</time>
      </trkpt>
      <trkpt lat="45.96172" lon="4.64689">
        <ele>274.8</ele>
        <time>2025-09-11T13:32:58Z</time>
      </trkpt>
      <trkpt lat="45.96171" lon="4.64702">
        <ele>274.2</ele>
        <time>2025-09-11T13:32:59Z</time>
      </trkpt>
      <trkpt lat="45.9617" lon="4.64712">
        <ele>274</ele>
        <time>2025-09-11T13:33:00Z</time>
      </trkpt>
      <trkpt lat="45.9617" lon="4.64722">
        <ele>273.6</ele>
        <time>2025-09-11T13:33:01Z</time>
      </trkpt>
      <trkpt lat="45.9617" lon="4.64731">
        <ele>273.4</ele>
        <time>2025-09-11T13:33:02Z</time>
      </trkpt>
      <trkpt lat="45.9617" lon="4.64738">
        <ele>273.4</ele>
        <time>2025-09-11T13:33:03Z</time>
      </trkpt>
      <trkpt lat="45.96171" lon="4.64745">
        <ele>272.8</ele>
        <time>2025-09-11T13:33:04Z</time>
      </trkpt>
      <trkpt lat="45.96171" lon="4.64752">
        <ele>272.6</ele>
        <time>2025-09-11T13:33:05Z</time>
      </trkpt>
      <trkpt lat="45.96172" lon="4.64759">
        <ele>272.2</ele>
        <time>2025-09-11T13:33:06Z</time>
      </trkpt>
      <trkpt lat="45.96173" lon="4.64767">
        <ele>272</ele>
        <time>2025-09-11T13:33:07Z</time>
      </trkpt>
      <trkpt lat="45.96175" lon="4.64774">
        <ele>271.6</ele>
        <time>2025-09-11T13:33:08Z</time>
      </trkpt>
      <trkpt lat="45.96177" lon="4.64781">
        <ele>271.4</ele>
        <time>2025-09-11T13:33:09Z</time>
      </trkpt>
      <trkpt lat="45.96178" lon="4.64788">
        <ele>271</ele>
        <time>2025-09-11T13:33:10Z</time>
      </trkpt>
      <trkpt lat="45.96179" lon="4.64794">
        <ele>270.8</ele>
        <time>2025-09-11T13:33:11Z</time>
      </trkpt>
      <trkpt lat="45.96181" lon="4.648">
        <ele>270.8</ele>
        <time>2025-09-11T13:33:12Z</time>
      </trkpt>
      <trkpt lat="45.96183" lon="4.64805">
        <ele>270.2</ele>
        <time>2025-09-11T13:33:13Z</time>
      </trkpt>
      <trkpt lat="45.96184" lon="4.6481">
        <ele>270.2</ele>
        <time>2025-09-11T13:33:14Z</time>
      </trkpt>
      <trkpt lat="45.96186" lon="4.64815">
        <ele>270.2</ele>
        <time>2025-09-11T13:33:15Z</time>
      </trkpt>
      <trkpt lat="45.96188" lon="4.64821">
        <ele>270.2</ele>
        <time>2025-09-11T13:33:16Z</time>
      </trkpt>
      <trkpt lat="45.9619" lon="4.64827">
        <ele>270.2</ele>
        <time>2025-09-11T13:33:17Z</time>
      </trkpt>
      <trkpt lat="45.96193" lon="4.64832">
        <ele>270.2</ele>
        <time>2025-09-11T13:33:18Z</time>
      </trkpt>
      <trkpt lat="45.96195" lon="4.64838">
        <ele>269</ele>
        <time>2025-09-11T13:33:19Z</time>
      </trkpt>
      <trkpt lat="45.96197" lon="4.64844">
        <ele>268.8</ele>
        <time>2025-09-11T13:33:20Z</time>
      </trkpt>
      <trkpt lat="45.96199" lon="4.6485">
        <ele>268.8</ele>
        <time>2025-09-11T13:33:21Z</time>
      </trkpt>
      <trkpt lat="45.96202" lon="4.64856">
        <ele>269.8</ele>
        <time>2025-09-11T13:33:22Z</time>
      </trkpt>
      <trkpt lat="45.96203" lon="4.64862">
        <ele>269.8</ele>
        <time>2025-09-11T13:33:23Z</time>
      </trkpt>
      <trkpt lat="45.96205" lon="4.64869">
        <ele>269.6</ele>
        <time>2025-09-11T13:33:24Z</time>
      </trkpt>
      <trkpt lat="45.96207" lon="4.64875">
        <ele>269.2</ele>
        <time>2025-09-11T13:33:25Z</time>
      </trkpt>
      <trkpt lat="45.96209" lon="4.64882">
        <ele>269</ele>
        <time>2025-09-11T13:33:26Z</time>
      </trkpt>
      <trkpt lat="45.96211" lon="4.64888">
        <ele>268.8</ele>
        <time>2025-09-11T13:33:27Z</time>
      </trkpt>
      <trkpt lat="45.96213" lon="4.64894">
        <ele>268.6</ele>
        <time>2025-09-11T13:33:28Z</time>
      </trkpt>
      <trkpt lat="45.96215" lon="4.649">
        <ele>268.6</ele>
        <time>2025-09-11T13:33:29Z</time>
      </trkpt>
      <trkpt lat="45.96217" lon="4.64906">
        <ele>268.2</ele>
        <time>2025-09-11T13:33:30Z</time>
      </trkpt>
      <trkpt lat="45.96218" lon="4.64912">
        <ele>268</ele>
        <time>2025-09-11T13:33:31Z</time>
      </trkpt>
      <trkpt lat="45.96221" lon="4.64919">
        <ele>268</ele>
        <time>2025-09-11T13:33:32Z</time>
      </trkpt>
      <trkpt lat="45.96222" lon="4.64925">
        <ele>267.8</ele>
        <time>2025-09-11T13:33:33Z</time>
      </trkpt>
      <trkpt lat="45.96223" lon="4.64931">
        <ele>267.8</ele>
        <time>2025-09-11T13:33:34Z</time>
      </trkpt>
      <trkpt lat="45.96223" lon="4.64937">
        <ele>267.8</ele>
        <time>2025-09-11T13:33:35Z</time>
      </trkpt>
      <trkpt lat="45.96225" lon="4.64943">
        <ele>267.2</ele>
        <time>2025-09-11T13:33:36Z</time>
      </trkpt>
      <trkpt lat="45.96225" lon="4.64949">
        <ele>267.2</ele>
        <time>2025-09-11T13:33:37Z</time>
      </trkpt>
      <trkpt lat="45.96227" lon="4.64954">
        <ele>267.2</ele>
        <time>2025-09-11T13:33:38Z</time>
      </trkpt>
      <trkpt lat="45.96227" lon="4.64959">
        <ele>267</ele>
        <time>2025-09-11T13:33:39Z</time>
      </trkpt>
      <trkpt lat="45.96227" lon="4.64962">
        <ele>266.8</ele>
        <time>2025-09-11T13:33:40Z</time>
      </trkpt>
      <trkpt lat="45.96227" lon="4.64965">
        <ele>266.6</ele>
        <time>2025-09-11T13:33:41Z</time>
      </trkpt>
      <trkpt lat="45.96227" lon="4.64969">
        <ele>266.6</ele>
        <time>2025-09-11T13:33:42Z</time>
      </trkpt>
      <trkpt lat="45.96227" lon="4.64969">
        <ele>266.2</ele>
        <time>2025-09-11T13:33:43Z</time>
      </trkpt>
      <trkpt lat="45.96224" lon="4.64968">
        <ele>266</ele>
        <time>2025-09-11T13:33:44Z</time>
      </trkpt>
      <trkpt lat="45.96221" lon="4.64966">
        <ele>265.8</ele>
        <time>2025-09-11T13:33:45Z</time>
      </trkpt>
      <trkpt lat="45.9622" lon="4.64962">
        <ele>265.8</ele>
        <time>2025-09-11T13:33:46Z</time>
      </trkpt>
      <trkpt lat="45.96219" lon="4.64959">
        <ele>265.4</ele>
        <time>2025-09-11T13:33:47Z</time>
      </trkpt>
      <trkpt lat="45.96218" lon="4.64956">
        <ele>265.2</ele>
        <time>2025-09-11T13:33:48Z</time>
      </trkpt>
      <trkpt lat="45.96216" lon="4.64953">
        <ele>265.2</ele>
        <time>2025-09-11T13:33:49Z</time>
      </trkpt>
      <trkpt lat="45.96214" lon="4.6495">
        <ele>264.8</ele>
        <time>2025-09-11T13:33:50Z</time>
      </trkpt>
      <trkpt lat="45.96211" lon="4.64947">
        <ele>264.6</ele>
        <time>2025-09-11T13:33:51Z</time>
      </trkpt>
      <trkpt lat="45.96207" lon="4.64944">
        <ele>264.2</ele>
        <time>2025-09-11T13:33:52Z</time>
      </trkpt>
      <trkpt lat="45.96205" lon="4.64942">
        <ele>263.8</ele>
        <time>2025-09-11T13:33:53Z</time>
      </trkpt>
      <trkpt lat="45.96204" lon="4.64941">
        <ele>263.4</ele>
        <time>2025-09-11T13:33:54Z</time>
      </trkpt>
      <trkpt lat="45.96203" lon="4.64939">
        <ele>262.6</ele>
        <time>2025-09-11T13:33:55Z</time>
      </trkpt>
      <trkpt lat="45.96201" lon="4.64938">
        <ele>263.6</ele>
        <time>2025-09-11T13:33:56Z</time>
      </trkpt>
      <trkpt lat="45.96198" lon="4.64936">
        <ele>263.4</ele>
        <time>2025-09-11T13:33:57Z</time>
      </trkpt>
      <trkpt lat="45.96193" lon="4.64934">
        <ele>262.8</ele>
        <time>2025-09-11T13:33:58Z</time>
      </trkpt>
      <trkpt lat="45.96189" lon="4.64931">
        <ele>262.2</ele>
        <time>2025-09-11T13:33:59Z</time>
      </trkpt>
      <trkpt lat="45.96184" lon="4.64927">
        <ele>261.6</ele>
        <time>2025-09-11T13:34:00Z</time>
      </trkpt>
      <trkpt lat="45.9618" lon="4.64924">
        <ele>261.2</ele>
        <time>2025-09-11T13:34:01Z</time>
      </trkpt>
      <trkpt lat="45.96174" lon="4.64922">
        <ele>260.4</ele>
        <time>2025-09-11T13:34:02Z</time>
      </trkpt>
      <trkpt lat="45.96169" lon="4.64919">
        <ele>259.8</ele>
        <time>2025-09-11T13:34:03Z</time>
      </trkpt>
      <trkpt lat="45.96164" lon="4.64916">
        <ele>259.2</ele>
        <time>2025-09-11T13:34:04Z</time>
      </trkpt>
      <trkpt lat="45.9616" lon="4.64913">
        <ele>258.4</ele>
        <time>2025-09-11T13:34:05Z</time>
      </trkpt>
      <trkpt lat="45.96155" lon="4.64911">
        <ele>258</ele>
        <time>2025-09-11T13:34:06Z</time>
      </trkpt>
      <trkpt lat="45.96149" lon="4.64907">
        <ele>257.4</ele>
        <time>2025-09-11T13:34:07Z</time>
      </trkpt>
      <trkpt lat="45.96145" lon="4.64903">
        <ele>256.6</ele>
        <time>2025-09-11T13:34:08Z</time>
      </trkpt>
      <trkpt lat="45.96139" lon="4.64899">
        <ele>256</ele>
        <time>2025-09-11T13:34:09Z</time>
      </trkpt>
      <trkpt lat="45.96133" lon="4.64894">
        <ele>255.4</ele>
        <time>2025-09-11T13:34:10Z</time>
      </trkpt>
      <trkpt lat="45.96129" lon="4.64888">
        <ele>255</ele>
        <time>2025-09-11T13:34:11Z</time>
      </trkpt>
      <trkpt lat="45.96123" lon="4.64882">
        <ele>254.4</ele>
        <time>2025-09-11T13:34:12Z</time>
      </trkpt>
      <trkpt lat="45.9612" lon="4.64875">
        <ele>254.2</ele>
        <time>2025-09-11T13:34:13Z</time>
      </trkpt>
      <trkpt lat="45.96115" lon="4.6487">
        <ele>253.8</ele>
        <time>2025-09-11T13:34:14Z</time>
      </trkpt>
      <trkpt lat="45.96111" lon="4.64865">
        <ele>253.6</ele>
        <time>2025-09-11T13:34:15Z</time>
      </trkpt>
      <trkpt lat="45.96107" lon="4.64861">
        <ele>253.6</ele>
        <time>2025-09-11T13:34:16Z</time>
      </trkpt>
      <trkpt lat="45.96102" lon="4.64857">
        <ele>252.6</ele>
        <time>2025-09-11T13:34:17Z</time>
      </trkpt>
      <trkpt lat="45.96097" lon="4.64856">
        <ele>252</ele>
        <time>2025-09-11T13:34:18Z</time>
      </trkpt>
      <trkpt lat="45.96093" lon="4.64854">
        <ele>251.6</ele>
        <time>2025-09-11T13:34:19Z</time>
      </trkpt>
      <trkpt lat="45.96088" lon="4.64853">
        <ele>251.2</ele>
        <time>2025-09-11T13:34:20Z</time>
      </trkpt>
      <trkpt lat="45.96083" lon="4.64851">
        <ele>250.6</ele>
        <time>2025-09-11T13:34:21Z</time>
      </trkpt>
      <trkpt lat="45.96078" lon="4.64847">
        <ele>250</ele>
        <time>2025-09-11T13:34:22Z</time>
      </trkpt>
      <trkpt lat="45.96073" lon="4.64845">
        <ele>249.6</ele>
        <time>2025-09-11T13:34:23Z</time>
      </trkpt>
      <trkpt lat="45.9607" lon="4.64844">
        <ele>249.2</ele>
        <time>2025-09-11T13:34:24Z</time>
      </trkpt>
      <trkpt lat="45.96066" lon="4.64842">
        <ele>249</ele>
        <time>2025-09-11T13:34:25Z</time>
      </trkpt>
      <trkpt lat="45.96063" lon="4.6484">
        <ele>248.4</ele>
        <time>2025-09-11T13:34:26Z</time>
      </trkpt>
      <trkpt lat="45.9606" lon="4.64839">
        <ele>248.4</ele>
        <time>2025-09-11T13:34:27Z</time>
      </trkpt>
      <trkpt lat="45.96057" lon="4.6484">
        <ele>248</ele>
        <time>2025-09-11T13:34:28Z</time>
      </trkpt>
      <trkpt lat="45.96054" lon="4.6484">
        <ele>247.8</ele>
        <time>2025-09-11T13:34:29Z</time>
      </trkpt>
      <trkpt lat="45.96054" lon="4.64842">
        <ele>247.8</ele>
        <time>2025-09-11T13:34:30Z</time>
      </trkpt>
      <trkpt lat="45.96054" lon="4.64842">
        <ele>247.4</ele>
        <time>2025-09-11T13:34:31Z</time>
      </trkpt>
      <trkpt lat="45.96053" lon="4.64843">
        <ele>247.4</ele>
        <time>2025-09-11T13:34:32Z</time>
      </trkpt>
      <trkpt lat="45.96054" lon="4.64841">
        <ele>247.2</ele>
        <time>2025-09-11T13:34:51Z</time>
      </trkpt>
      <trkpt lat="45.96052" lon="4.64841">
        <ele>247.2</ele>
        <time>2025-09-11T13:34:52Z</time>
      </trkpt>
      <trkpt lat="45.9605" lon="4.6484">
        <ele>247.2</ele>
        <time>2025-09-11T13:34:53Z</time>
      </trkpt>
      <trkpt lat="45.96048" lon="4.64838">
        <ele>247</ele>
        <time>2025-09-11T13:34:54Z</time>
      </trkpt>
      <trkpt lat="45.96047" lon="4.64833">
        <ele>247</ele>
        <time>2025-09-11T13:34:55Z</time>
      </trkpt>
      <trkpt lat="45.96046" lon="4.64828">
        <ele>247</ele>
        <time>2025-09-11T13:34:56Z</time>
      </trkpt>
      <trkpt lat="45.96045" lon="4.64824">
        <ele>247</ele>
        <time>2025-09-11T13:34:57Z</time>
      </trkpt>
      <trkpt lat="45.96042" lon="4.6482">
        <ele>247</ele>
        <time>2025-09-11T13:34:58Z</time>
      </trkpt>
      <trkpt lat="45.96039" lon="4.64818">
        <ele>247</ele>
        <time>2025-09-11T13:34:59Z</time>
      </trkpt>
      <trkpt lat="45.96036" lon="4.64819">
        <ele>247</ele>
        <time>2025-09-11T13:35:00Z</time>
      </trkpt>
      <trkpt lat="45.96032" lon="4.6482">
        <ele>247</ele>
        <time>2025-09-11T13:35:01Z</time>
      </trkpt>
      <trkpt lat="45.96028" lon="4.64821">
        <ele>247</ele>
        <time>2025-09-11T13:35:02Z</time>
      </trkpt>
      <trkpt lat="45.96024" lon="4.6482">
        <ele>247.2</ele>
        <time>2025-09-11T13:35:03Z</time>
      </trkpt>
      <trkpt lat="45.96021" lon="4.64819">
        <ele>247.2</ele>
        <time>2025-09-11T13:35:04Z</time>
      </trkpt>
      <trkpt lat="45.96016" lon="4.64819">
        <ele>247.2</ele>
        <time>2025-09-11T13:35:05Z</time>
      </trkpt>
      <trkpt lat="45.96012" lon="4.6482">
        <ele>247.2</ele>
        <time>2025-09-11T13:35:06Z</time>
      </trkpt>
      <trkpt lat="45.96008" lon="4.64821">
        <ele>247.2</ele>
        <time>2025-09-11T13:35:07Z</time>
      </trkpt>
      <trkpt lat="45.96005" lon="4.64821">
        <ele>247.2</ele>
        <time>2025-09-11T13:35:08Z</time>
      </trkpt>
      <trkpt lat="45.96001" lon="4.6482">
        <ele>247.2</ele>
        <time>2025-09-11T13:35:09Z</time>
      </trkpt>
      <trkpt lat="45.95998" lon="4.64819">
        <ele>247</ele>
        <time>2025-09-11T13:35:10Z</time>
      </trkpt>
      <trkpt lat="45.95995" lon="4.64819">
        <ele>247</ele>
        <time>2025-09-11T13:35:11Z</time>
      </trkpt>
      <trkpt lat="45.95992" lon="4.64819">
        <ele>247.6</ele>
        <time>2025-09-11T13:35:12Z</time>
      </trkpt>
      <trkpt lat="45.9599" lon="4.64819">
        <ele>247.6</ele>
        <time>2025-09-11T13:35:13Z</time>
      </trkpt>
      <trkpt lat="45.95987" lon="4.64819">
        <ele>247.6</ele>
        <time>2025-09-11T13:35:14Z</time>
      </trkpt>
      <trkpt lat="45.95984" lon="4.64819">
        <ele>247.6</ele>
        <time>2025-09-11T13:35:15Z</time>
      </trkpt>
      <trkpt lat="45.95981" lon="4.64819">
        <ele>247.6</ele>
        <time>2025-09-11T13:35:16Z</time>
      </trkpt>
      <trkpt lat="45.95978" lon="4.64818">
        <ele>247.6</ele>
        <time>2025-09-11T13:35:17Z</time>
      </trkpt>
      <trkpt lat="45.95976" lon="4.64818">
        <ele>247.6</ele>
        <time>2025-09-11T13:35:18Z</time>
      </trkpt>
      <trkpt lat="45.95973" lon="4.64818">
        <ele>247.6</ele>
        <time>2025-09-11T13:35:19Z</time>
      </trkpt>
      <trkpt lat="45.9597" lon="4.64818">
        <ele>248</ele>
        <time>2025-09-11T13:35:20Z</time>
      </trkpt>
      <trkpt lat="45.95967" lon="4.64817">
        <ele>247.2</ele>
        <time>2025-09-11T13:35:21Z</time>
      </trkpt>
      <trkpt lat="45.95965" lon="4.64816">
        <ele>247.2</ele>
        <time>2025-09-11T13:35:22Z</time>
      </trkpt>
      <trkpt lat="45.95962" lon="4.64816">
        <ele>248</ele>
        <time>2025-09-11T13:35:23Z</time>
      </trkpt>
      <trkpt lat="45.95959" lon="4.64816">
        <ele>248.2</ele>
        <time>2025-09-11T13:35:24Z</time>
      </trkpt>
      <trkpt lat="45.95957" lon="4.64816">
        <ele>248.4</ele>
        <time>2025-09-11T13:35:25Z</time>
      </trkpt>
      <trkpt lat="45.95954" lon="4.64816">
        <ele>248.6</ele>
        <time>2025-09-11T13:35:26Z</time>
      </trkpt>
      <trkpt lat="45.95951" lon="4.64815">
        <ele>248.8</ele>
        <time>2025-09-11T13:35:27Z</time>
      </trkpt>
      <trkpt lat="45.95949" lon="4.64815">
        <ele>248.8</ele>
        <time>2025-09-11T13:35:28Z</time>
      </trkpt>
      <trkpt lat="45.95947" lon="4.64815">
        <ele>249.2</ele>
        <time>2025-09-11T13:35:29Z</time>
      </trkpt>
      <trkpt lat="45.95945" lon="4.64815">
        <ele>249.4</ele>
        <time>2025-09-11T13:35:30Z</time>
      </trkpt>
      <trkpt lat="45.95942" lon="4.64814">
        <ele>249.4</ele>
        <time>2025-09-11T13:35:31Z</time>
      </trkpt>
      <trkpt lat="45.95941" lon="4.64814">
        <ele>249.4</ele>
        <time>2025-09-11T13:35:32Z</time>
      </trkpt>
      <trkpt lat="45.95939" lon="4.64812">
        <ele>249.8</ele>
        <time>2025-09-11T13:35:33Z</time>
      </trkpt>
      <trkpt lat="45.95938" lon="4.6481">
        <ele>249.8</ele>
        <time>2025-09-11T13:35:34Z</time>
      </trkpt>
      <trkpt lat="45.95937" lon="4.64809">
        <ele>250</ele>
        <time>2025-09-11T13:35:35Z</time>
      </trkpt>
      <trkpt lat="45.95936" lon="4.64808">
        <ele>250.4</ele>
        <time>2025-09-11T13:35:36Z</time>
      </trkpt>
      <trkpt lat="45.95935" lon="4.64807">
        <ele>250.6</ele>
        <time>2025-09-11T13:35:37Z</time>
      </trkpt>
      <trkpt lat="45.95935" lon="4.64807">
        <ele>250.6</ele>
        <time>2025-09-11T13:35:38Z</time>
      </trkpt>
      <trkpt lat="45.95935" lon="4.64806">
        <ele>250.8</ele>
        <time>2025-09-11T13:35:39Z</time>
      </trkpt>
      <trkpt lat="45.95934" lon="4.64806">
        <ele>250.8</ele>
        <time>2025-09-11T13:35:51Z</time>
      </trkpt>
      <trkpt lat="45.95933" lon="4.64808">
        <ele>250.8</ele>
        <time>2025-09-11T13:35:52Z</time>
      </trkpt>
      <trkpt lat="45.95931" lon="4.64809">
        <ele>250.8</ele>
        <time>2025-09-11T13:35:53Z</time>
      </trkpt>
      <trkpt lat="45.95929" lon="4.64811">
        <ele>251.2</ele>
        <time>2025-09-11T13:35:54Z</time>
      </trkpt>
      <trkpt lat="45.95928" lon="4.64812">
        <ele>251.4</ele>
        <time>2025-09-11T13:35:55Z</time>
      </trkpt>
      <trkpt lat="45.95926" lon="4.64813">
        <ele>251.4</ele>
        <time>2025-09-11T13:35:56Z</time>
      </trkpt>
      <trkpt lat="45.95924" lon="4.64814">
        <ele>251.4</ele>
        <time>2025-09-11T13:35:57Z</time>
      </trkpt>
      <trkpt lat="45.95922" lon="4.64815">
        <ele>251.6</ele>
        <time>2025-09-11T13:35:58Z</time>
      </trkpt>
      <trkpt lat="45.9592" lon="4.64815">
        <ele>251.6</ele>
        <time>2025-09-11T13:35:59Z</time>
      </trkpt>
      <trkpt lat="45.95918" lon="4.64815">
        <ele>252</ele>
        <time>2025-09-11T13:36:00Z</time>
      </trkpt>
      <trkpt lat="45.95916" lon="4.64814">
        <ele>252</ele>
        <time>2025-09-11T13:36:01Z</time>
      </trkpt>
      <trkpt lat="45.95915" lon="4.64814">
        <ele>252</ele>
        <time>2025-09-11T13:36:02Z</time>
      </trkpt>
      <trkpt lat="45.95913" lon="4.64814">
        <ele>252.4</ele>
        <time>2025-09-11T13:36:03Z</time>
      </trkpt>
      <trkpt lat="45.95911" lon="4.64814">
        <ele>252.4</ele>
        <time>2025-09-11T13:36:04Z</time>
      </trkpt>
      <trkpt lat="45.95909" lon="4.64813">
        <ele>252.6</ele>
        <time>2025-09-11T13:36:05Z</time>
      </trkpt>
      <trkpt lat="45.95907" lon="4.64813">
        <ele>252.6</ele>
        <time>2025-09-11T13:36:06Z</time>
      </trkpt>
      <trkpt lat="45.95905" lon="4.64813">
        <ele>252.8</ele>
        <time>2025-09-11T13:36:07Z</time>
      </trkpt>
      <trkpt lat="45.95903" lon="4.64813">
        <ele>252.8</ele>
        <time>2025-09-11T13:36:08Z</time>
      </trkpt>
      <trkpt lat="45.95902" lon="4.64813">
        <ele>253</ele>
        <time>2025-09-11T13:36:09Z</time>
      </trkpt>
      <trkpt lat="45.959" lon="4.64813">
        <ele>253</ele>
        <time>2025-09-11T13:36:10Z</time>
      </trkpt>
      <trkpt lat="45.95898" lon="4.64813">
        <ele>253.4</ele>
        <time>2025-09-11T13:36:11Z</time>
      </trkpt>
      <trkpt lat="45.95896" lon="4.64814">
        <ele>253.6</ele>
        <time>2025-09-11T13:36:12Z</time>
      </trkpt>
      <trkpt lat="45.95894" lon="4.64814">
        <ele>253.8</ele>
        <time>2025-09-11T13:36:13Z</time>
      </trkpt>
      <trkpt lat="45.95892" lon="4.64814">
        <ele>253.8</ele>
        <time>2025-09-11T13:36:14Z</time>
      </trkpt>
      <trkpt lat="45.95891" lon="4.64814">
        <ele>254</ele>
        <time>2025-09-11T13:36:15Z</time>
      </trkpt>
      <trkpt lat="45.95889" lon="4.64814">
        <ele>254</ele>
        <time>2025-09-11T13:36:16Z</time>
      </trkpt>
      <trkpt lat="45.95887" lon="4.64814">
        <ele>254.4</ele>
        <time>2025-09-11T13:36:17Z</time>
      </trkpt>
      <trkpt lat="45.95886" lon="4.64814">
        <ele>254.4</ele>
        <time>2025-09-11T13:36:18Z</time>
      </trkpt>
      <trkpt lat="45.95884" lon="4.64814">
        <ele>254.6</ele>
        <time>2025-09-11T13:36:19Z</time>
      </trkpt>
      <trkpt lat="45.95882" lon="4.64815">
        <ele>254.6</ele>
        <time>2025-09-11T13:36:20Z</time>
      </trkpt>
      <trkpt lat="45.95881" lon="4.64815">
        <ele>255</ele>
        <time>2025-09-11T13:36:21Z</time>
      </trkpt>
      <trkpt lat="45.95879" lon="4.64815">
        <ele>255</ele>
        <time>2025-09-11T13:36:22Z</time>
      </trkpt>
      <trkpt lat="45.95878" lon="4.64815">
        <ele>255</ele>
        <time>2025-09-11T13:36:23Z</time>
      </trkpt>
      <trkpt lat="45.95876" lon="4.64816">
        <ele>255.2</ele>
        <time>2025-09-11T13:36:24Z</time>
      </trkpt>
      <trkpt lat="45.95874" lon="4.64816">
        <ele>255.4</ele>
        <time>2025-09-11T13:36:25Z</time>
      </trkpt>
      <trkpt lat="45.95873" lon="4.64817">
        <ele>255.4</ele>
        <time>2025-09-11T13:36:26Z</time>
      </trkpt>
      <trkpt lat="45.95871" lon="4.64817">
        <ele>255.8</ele>
        <time>2025-09-11T13:36:27Z</time>
      </trkpt>
      <trkpt lat="45.9587" lon="4.64818">
        <ele>255.8</ele>
        <time>2025-09-11T13:36:28Z</time>
      </trkpt>
      <trkpt lat="45.95868" lon="4.64818">
        <ele>256.2</ele>
        <time>2025-09-11T13:36:29Z</time>
      </trkpt>
      <trkpt lat="45.95866" lon="4.64819">
        <ele>256.4</ele>
        <time>2025-09-11T13:36:30Z</time>
      </trkpt>
      <trkpt lat="45.95865" lon="4.6482">
        <ele>256.4</ele>
        <time>2025-09-11T13:36:31Z</time>
      </trkpt>
      <trkpt lat="45.95863" lon="4.64821">
        <ele>256.4</ele>
        <time>2025-09-11T13:36:32Z</time>
      </trkpt>
      <trkpt lat="45.95862" lon="4.64822">
        <ele>256.6</ele>
        <time>2025-09-11T13:36:33Z</time>
      </trkpt>
      <trkpt lat="45.95861" lon="4.64823">
        <ele>256.6</ele>
        <time>2025-09-11T13:36:34Z</time>
      </trkpt>
      <trkpt lat="45.95859" lon="4.64825">
        <ele>256.8</ele>
        <time>2025-09-11T13:36:35Z</time>
      </trkpt>
      <trkpt lat="45.95858" lon="4.64827">
        <ele>256.8</ele>
        <time>2025-09-11T13:36:36Z</time>
      </trkpt>
      <trkpt lat="45.95857" lon="4.64828">
        <ele>257.2</ele>
        <time>2025-09-11T13:36:37Z</time>
      </trkpt>
      <trkpt lat="45.95856" lon="4.6483">
        <ele>257.2</ele>
        <time>2025-09-11T13:36:38Z</time>
      </trkpt>
      <trkpt lat="45.95854" lon="4.64833">
        <ele>257.4</ele>
        <time>2025-09-11T13:36:39Z</time>
      </trkpt>
      <trkpt lat="45.95853" lon="4.64835">
        <ele>257.4</ele>
        <time>2025-09-11T13:36:40Z</time>
      </trkpt>
      <trkpt lat="45.95852" lon="4.64836">
        <ele>257.8</ele>
        <time>2025-09-11T13:36:41Z</time>
      </trkpt>
      <trkpt lat="45.95851" lon="4.64839">
        <ele>257.8</ele>
        <time>2025-09-11T13:36:42Z</time>
      </trkpt>
      <trkpt lat="45.95849" lon="4.64841">
        <ele>258</ele>
        <time>2025-09-11T13:36:43Z</time>
      </trkpt>
      <trkpt lat="45.95848" lon="4.64843">
        <ele>258</ele>
        <time>2025-09-11T13:36:44Z</time>
      </trkpt>
      <trkpt lat="45.95847" lon="4.64846">
        <ele>258</ele>
        <time>2025-09-11T13:36:45Z</time>
      </trkpt>
      <trkpt lat="45.95846" lon="4.64848">
        <ele>258</ele>
        <time>2025-09-11T13:36:46Z</time>
      </trkpt>
      <trkpt lat="45.95845" lon="4.6485">
        <ele>258.4</ele>
        <time>2025-09-11T13:36:47Z</time>
      </trkpt>
      <trkpt lat="45.95845" lon="4.64853">
        <ele>258.4</ele>
        <time>2025-09-11T13:36:48Z</time>
      </trkpt>
      <trkpt lat="45.95844" lon="4.64855">
        <ele>258.6</ele>
        <time>2025-09-11T13:36:49Z</time>
      </trkpt>
      <trkpt lat="45.95843" lon="4.64858">
        <ele>258.6</ele>
        <time>2025-09-11T13:36:50Z</time>
      </trkpt>
      <trkpt lat="45.95843" lon="4.64861">
        <ele>258.6</ele>
        <time>2025-09-11T13:36:51Z</time>
      </trkpt>
      <trkpt lat="45.95842" lon="4.64863">
        <ele>258.6</ele>
        <time>2025-09-11T13:36:52Z</time>
      </trkpt>
      <trkpt lat="45.95841" lon="4.64866">
        <ele>258.6</ele>
        <time>2025-09-11T13:36:53Z</time>
      </trkpt>
      <trkpt lat="45.95841" lon="4.64868">
        <ele>259</ele>
        <time>2025-09-11T13:36:54Z</time>
      </trkpt>
      <trkpt lat="45.95841" lon="4.64871">
        <ele>259</ele>
        <time>2025-09-11T13:36:55Z</time>
      </trkpt>
      <trkpt lat="45.95841" lon="4.64874">
        <ele>259</ele>
        <time>2025-09-11T13:36:56Z</time>
      </trkpt>
      <trkpt lat="45.95841" lon="4.64879">
        <ele>259.2</ele>
        <time>2025-09-11T13:36:57Z</time>
      </trkpt>
      <trkpt lat="45.9584" lon="4.64882">
        <ele>259.2</ele>
        <time>2025-09-11T13:36:58Z</time>
      </trkpt>
      <trkpt lat="45.9584" lon="4.64885">
        <ele>259.4</ele>
        <time>2025-09-11T13:36:59Z</time>
      </trkpt>
      <trkpt lat="45.95839" lon="4.64887">
        <ele>259.4</ele>
        <time>2025-09-11T13:37:00Z</time>
      </trkpt>
      <trkpt lat="45.95838" lon="4.6489">
        <ele>259.4</ele>
        <time>2025-09-11T13:37:01Z</time>
      </trkpt>
      <trkpt lat="45.95838" lon="4.6489">
        <ele>259.4</ele>
        <time>2025-09-11T13:37:02Z</time>
      </trkpt>
      <trkpt lat="45.95838" lon="4.64892">
        <ele>259.6</ele>
        <time>2025-09-11T13:37:03Z</time>
      </trkpt>
      <trkpt lat="45.95838" lon="4.64895">
        <ele>259.6</ele>
        <time>2025-09-11T13:37:04Z</time>
      </trkpt>
      <trkpt lat="45.95838" lon="4.64898">
        <ele>259.6</ele>
        <time>2025-09-11T13:37:05Z</time>
      </trkpt>
      <trkpt lat="45.95838" lon="4.649">
        <ele>260</ele>
        <time>2025-09-11T13:37:06Z</time>
      </trkpt>
      <trkpt lat="45.95838" lon="4.64903">
        <ele>260</ele>
        <time>2025-09-11T13:37:07Z</time>
      </trkpt>
      <trkpt lat="45.95837" lon="4.64906">
        <ele>260</ele>
        <time>2025-09-11T13:37:08Z</time>
      </trkpt>
      <trkpt lat="45.95837" lon="4.64908">
        <ele>260</ele>
        <time>2025-09-11T13:37:09Z</time>
      </trkpt>
      <trkpt lat="45.95837" lon="4.64911">
        <ele>260.2</ele>
        <time>2025-09-11T13:37:10Z</time>
      </trkpt>
      <trkpt lat="45.95837" lon="4.64913">
        <ele>260.2</ele>
        <time>2025-09-11T13:37:11Z</time>
      </trkpt>
      <trkpt lat="45.95836" lon="4.64916">
        <ele>260.4</ele>
        <time>2025-09-11T13:37:12Z</time>
      </trkpt>
      <trkpt lat="45.95836" lon="4.64919">
        <ele>260.4</ele>
        <time>2025-09-11T13:37:13Z</time>
      </trkpt>
      <trkpt lat="45.95836" lon="4.64922">
        <ele>260.8</ele>
        <time>2025-09-11T13:37:14Z</time>
      </trkpt>
      <trkpt lat="45.95835" lon="4.64924">
        <ele>260.8</ele>
        <time>2025-09-11T13:37:15Z</time>
      </trkpt>
      <trkpt lat="45.95835" lon="4.64927">
        <ele>260.8</ele>
        <time>2025-09-11T13:37:16Z</time>
      </trkpt>
      <trkpt lat="45.95835" lon="4.64929">
        <ele>260.8</ele>
        <time>2025-09-11T13:37:17Z</time>
      </trkpt>
      <trkpt lat="45.95834" lon="4.64932">
        <ele>261</ele>
        <time>2025-09-11T13:37:18Z</time>
      </trkpt>
      <trkpt lat="45.95834" lon="4.64934">
        <ele>261</ele>
        <time>2025-09-11T13:37:19Z</time>
      </trkpt>
      <trkpt lat="45.95833" lon="4.64936">
        <ele>261.4</ele>
        <time>2025-09-11T13:37:20Z</time>
      </trkpt>
      <trkpt lat="45.95833" lon="4.64939">
        <ele>261.4</ele>
        <time>2025-09-11T13:37:21Z</time>
      </trkpt>
      <trkpt lat="45.95832" lon="4.64941">
        <ele>261.8</ele>
        <time>2025-09-11T13:37:22Z</time>
      </trkpt>
      <trkpt lat="45.95831" lon="4.64944">
        <ele>262</ele>
        <time>2025-09-11T13:37:23Z</time>
      </trkpt>
      <trkpt lat="45.9583" lon="4.64946">
        <ele>262.2</ele>
        <time>2025-09-11T13:37:24Z</time>
      </trkpt>
      <trkpt lat="45.95829" lon="4.64948">
        <ele>262.2</ele>
        <time>2025-09-11T13:37:25Z</time>
      </trkpt>
      <trkpt lat="45.95828" lon="4.64949">
        <ele>262.8</ele>
        <time>2025-09-11T13:37:26Z</time>
      </trkpt>
      <trkpt lat="45.95827" lon="4.64951">
        <ele>263</ele>
        <time>2025-09-11T13:37:27Z</time>
      </trkpt>
      <trkpt lat="45.95826" lon="4.64952">
        <ele>263.4</ele>
        <time>2025-09-11T13:37:28Z</time>
      </trkpt>
      <trkpt lat="45.95824" lon="4.64954">
        <ele>263.6</ele>
        <time>2025-09-11T13:37:29Z</time>
      </trkpt>
      <trkpt lat="45.95823" lon="4.64955">
        <ele>263.6</ele>
        <time>2025-09-11T13:37:30Z</time>
      </trkpt>
      <trkpt lat="45.95821" lon="4.64956">
        <ele>264</ele>
        <time>2025-09-11T13:37:31Z</time>
      </trkpt>
      <trkpt lat="45.95819" lon="4.64956">
        <ele>264</ele>
        <time>2025-09-11T13:37:32Z</time>
      </trkpt>
      <trkpt lat="45.95818" lon="4.64957">
        <ele>264.2</ele>
        <time>2025-09-11T13:37:33Z</time>
      </trkpt>
      <trkpt lat="45.95816" lon="4.64958">
        <ele>264.2</ele>
        <time>2025-09-11T13:37:34Z</time>
      </trkpt>
      <trkpt lat="45.95815" lon="4.64958">
        <ele>264.4</ele>
        <time>2025-09-11T13:37:35Z</time>
      </trkpt>
      <trkpt lat="45.95814" lon="4.64958">
        <ele>264.4</ele>
        <time>2025-09-11T13:37:36Z</time>
      </trkpt>
      <trkpt lat="45.95812" lon="4.64957">
        <ele>264.4</ele>
        <time>2025-09-11T13:37:37Z</time>
      </trkpt>
      <trkpt lat="45.95811" lon="4.64956">
        <ele>264.8</ele>
        <time>2025-09-11T13:37:38Z</time>
      </trkpt>
      <trkpt lat="45.9581" lon="4.64956">
        <ele>264.8</ele>
        <time>2025-09-11T13:37:39Z</time>
      </trkpt>
      <trkpt lat="45.95808" lon="4.64955">
        <ele>265</ele>
        <time>2025-09-11T13:37:40Z</time>
      </trkpt>
      <trkpt lat="45.95807" lon="4.64954">
        <ele>265</ele>
        <time>2025-09-11T13:37:41Z</time>
      </trkpt>
      <trkpt lat="45.95806" lon="4.64953">
        <ele>265.2</ele>
        <time>2025-09-11T13:37:42Z</time>
      </trkpt>
      <trkpt lat="45.95805" lon="4.64951">
        <ele>265.2</ele>
        <time>2025-09-11T13:37:43Z</time>
      </trkpt>
      <trkpt lat="45.95803" lon="4.6495">
        <ele>265.6</ele>
        <time>2025-09-11T13:37:44Z</time>
      </trkpt>
      <trkpt lat="45.95802" lon="4.64949">
        <ele>265.6</ele>
        <time>2025-09-11T13:37:45Z</time>
      </trkpt>
      <trkpt lat="45.95801" lon="4.64947">
        <ele>266</ele>
        <time>2025-09-11T13:37:46Z</time>
      </trkpt>
      <trkpt lat="45.958" lon="4.64946">
        <ele>266</ele>
        <time>2025-09-11T13:37:47Z</time>
      </trkpt>
      <trkpt lat="45.95799" lon="4.64944">
        <ele>266.2</ele>
        <time>2025-09-11T13:37:48Z</time>
      </trkpt>
      <trkpt lat="45.95798" lon="4.64943">
        <ele>266.2</ele>
        <time>2025-09-11T13:37:49Z</time>
      </trkpt>
      <trkpt lat="45.95797" lon="4.64941">
        <ele>266.6</ele>
        <time>2025-09-11T13:37:50Z</time>
      </trkpt>
      <trkpt lat="45.95797" lon="4.64939">
        <ele>266.6</ele>
        <time>2025-09-11T13:37:51Z</time>
      </trkpt>
      <trkpt lat="45.95796" lon="4.64937">
        <ele>266.8</ele>
        <time>2025-09-11T13:37:52Z</time>
      </trkpt>
      <trkpt lat="45.95795" lon="4.64935">
        <ele>266.8</ele>
        <time>2025-09-11T13:37:53Z</time>
      </trkpt>
      <trkpt lat="45.95794" lon="4.64934">
        <ele>267.2</ele>
        <time>2025-09-11T13:37:54Z</time>
      </trkpt>
      <trkpt lat="45.95793" lon="4.64932">
        <ele>267.2</ele>
        <time>2025-09-11T13:37:55Z</time>
      </trkpt>
      <trkpt lat="45.95791" lon="4.64931">
        <ele>267.2</ele>
        <time>2025-09-11T13:37:56Z</time>
      </trkpt>
      <trkpt lat="45.9579" lon="4.64929">
        <ele>267.4</ele>
        <time>2025-09-11T13:37:57Z</time>
      </trkpt>
      <trkpt lat="45.95789" lon="4.64927">
        <ele>267.4</ele>
        <time>2025-09-11T13:37:58Z</time>
      </trkpt>
      <trkpt lat="45.95788" lon="4.64925">
        <ele>267.4</ele>
        <time>2025-09-11T13:37:59Z</time>
      </trkpt>
      <trkpt lat="45.95787" lon="4.64923">
        <ele>267.6</ele>
        <time>2025-09-11T13:38:00Z</time>
      </trkpt>
      <trkpt lat="45.95786" lon="4.64921">
        <ele>267.6</ele>
        <time>2025-09-11T13:38:01Z</time>
      </trkpt>
      <trkpt lat="45.95785" lon="4.64919">
        <ele>267.6</ele>
        <time>2025-09-11T13:38:02Z</time>
      </trkpt>
      <trkpt lat="45.95784" lon="4.64917">
        <ele>267.8</ele>
        <time>2025-09-11T13:38:03Z</time>
      </trkpt>
      <trkpt lat="45.95783" lon="4.64916">
        <ele>267.8</ele>
        <time>2025-09-11T13:38:04Z</time>
      </trkpt>
      <trkpt lat="45.95782" lon="4.64913">
        <ele>267.8</ele>
        <time>2025-09-11T13:38:05Z</time>
      </trkpt>
      <trkpt lat="45.95781" lon="4.64911">
        <ele>268.2</ele>
        <time>2025-09-11T13:38:06Z</time>
      </trkpt>
      <trkpt lat="45.9578" lon="4.64909">
        <ele>268.2</ele>
        <time>2025-09-11T13:38:07Z</time>
      </trkpt>
      <trkpt lat="45.95779" lon="4.64907">
        <ele>268.4</ele>
        <time>2025-09-11T13:38:08Z</time>
      </trkpt>
      <trkpt lat="45.95778" lon="4.64905">
        <ele>268.4</ele>
        <time>2025-09-11T13:38:09Z</time>
      </trkpt>
      <trkpt lat="45.95777" lon="4.64903">
        <ele>268.6</ele>
        <time>2025-09-11T13:38:10Z</time>
      </trkpt>
      <trkpt lat="45.95776" lon="4.64901">
        <ele>268.6</ele>
        <time>2025-09-11T13:38:11Z</time>
      </trkpt>
      <trkpt lat="45.95776" lon="4.64899">
        <ele>268.8</ele>
        <time>2025-09-11T13:38:12Z</time>
      </trkpt>
      <trkpt lat="45.95775" lon="4.64897">
        <ele>268.8</ele>
        <time>2025-09-11T13:38:13Z</time>
      </trkpt>
      <trkpt lat="45.95774" lon="4.64895">
        <ele>268.8</ele>
        <time>2025-09-11T13:38:14Z</time>
      </trkpt>
      <trkpt lat="45.95773" lon="4.64893">
        <ele>268.8</ele>
        <time>2025-09-11T13:38:15Z</time>
      </trkpt>
      <trkpt lat="45.95772" lon="4.6489">
        <ele>269.2</ele>
        <time>2025-09-11T13:38:16Z</time>
      </trkpt>
      <trkpt lat="45.95771" lon="4.64889">
        <ele>269.2</ele>
        <time>2025-09-11T13:38:17Z</time>
      </trkpt>
      <trkpt lat="45.95771" lon="4.64887">
        <ele>269.6</ele>
        <time>2025-09-11T13:38:18Z</time>
      </trkpt>
      <trkpt lat="45.9577" lon="4.64884">
        <ele>269.6</ele>
        <time>2025-09-11T13:38:19Z</time>
      </trkpt>
      <trkpt lat="45.95769" lon="4.64882">
        <ele>269.8</ele>
        <time>2025-09-11T13:38:20Z</time>
      </trkpt>
      <trkpt lat="45.95769" lon="4.64881">
        <ele>269.8</ele>
        <time>2025-09-11T13:38:21Z</time>
      </trkpt>
      <trkpt lat="45.95768" lon="4.64878">
        <ele>270</ele>
        <time>2025-09-11T13:38:22Z</time>
      </trkpt>
      <trkpt lat="45.95767" lon="4.64876">
        <ele>270</ele>
        <time>2025-09-11T13:38:23Z</time>
      </trkpt>
      <trkpt lat="45.95766" lon="4.64874">
        <ele>270.4</ele>
        <time>2025-09-11T13:38:24Z</time>
      </trkpt>
      <trkpt lat="45.95766" lon="4.64872">
        <ele>270.4</ele>
        <time>2025-09-11T13:38:25Z</time>
      </trkpt>
      <trkpt lat="45.95765" lon="4.64869">
        <ele>270.6</ele>
        <time>2025-09-11T13:38:26Z</time>
      </trkpt>
      <trkpt lat="45.95764" lon="4.64867">
        <ele>270.8</ele>
        <time>2025-09-11T13:38:27Z</time>
      </trkpt>
      <trkpt lat="45.95764" lon="4.64865">
        <ele>270.8</ele>
        <time>2025-09-11T13:38:28Z</time>
      </trkpt>
      <trkpt lat="45.95763" lon="4.64862">
        <ele>270.8</ele>
        <time>2025-09-11T13:38:29Z</time>
      </trkpt>
      <trkpt lat="45.95762" lon="4.6486">
        <ele>271.2</ele>
        <time>2025-09-11T13:38:30Z</time>
      </trkpt>
      <trkpt lat="45.95762" lon="4.64858">
        <ele>271.2</ele>
        <time>2025-09-11T13:38:31Z</time>
      </trkpt>
      <trkpt lat="45.95761" lon="4.64856">
        <ele>271.4</ele>
        <time>2025-09-11T13:38:32Z</time>
      </trkpt>
      <trkpt lat="45.95761" lon="4.64854">
        <ele>271.4</ele>
        <time>2025-09-11T13:38:33Z</time>
      </trkpt>
      <trkpt lat="45.9576" lon="4.64851">
        <ele>271.4</ele>
        <time>2025-09-11T13:38:34Z</time>
      </trkpt>
      <trkpt lat="45.9576" lon="4.64849">
        <ele>271.6</ele>
        <time>2025-09-11T13:38:35Z</time>
      </trkpt>
      <trkpt lat="45.95759" lon="4.64847">
        <ele>271.6</ele>
        <time>2025-09-11T13:38:36Z</time>
      </trkpt>
      <trkpt lat="45.95758" lon="4.64845">
        <ele>272</ele>
        <time>2025-09-11T13:38:37Z</time>
      </trkpt>
      <trkpt lat="45.95758" lon="4.64842">
        <ele>272</ele>
        <time>2025-09-11T13:38:38Z</time>
      </trkpt>
      <trkpt lat="45.95757" lon="4.6484">
        <ele>272.2</ele>
        <time>2025-09-11T13:38:39Z</time>
      </trkpt>
      <trkpt lat="45.95756" lon="4.64838">
        <ele>272.2</ele>
        <time>2025-09-11T13:38:40Z</time>
      </trkpt>
      <trkpt lat="45.95756" lon="4.64836">
        <ele>272.4</ele>
        <time>2025-09-11T13:38:41Z</time>
      </trkpt>
      <trkpt lat="45.95755" lon="4.64834">
        <ele>272.4</ele>
        <time>2025-09-11T13:38:42Z</time>
      </trkpt>
      <trkpt lat="45.95754" lon="4.64832">
        <ele>272.6</ele>
        <time>2025-09-11T13:38:43Z</time>
      </trkpt>
      <trkpt lat="45.95754" lon="4.64829">
        <ele>273</ele>
        <time>2025-09-11T13:38:44Z</time>
      </trkpt>
      <trkpt lat="45.95753" lon="4.64827">
        <ele>273</ele>
        <time>2025-09-11T13:38:45Z</time>
      </trkpt>
      <trkpt lat="45.95752" lon="4.64825">
        <ele>273.2</ele>
        <time>2025-09-11T13:38:46Z</time>
      </trkpt>
      <trkpt lat="45.95751" lon="4.64823">
        <ele>273.2</ele>
        <time>2025-09-11T13:38:47Z</time>
      </trkpt>
      <trkpt lat="45.95751" lon="4.64822">
        <ele>273.6</ele>
        <time>2025-09-11T13:38:48Z</time>
      </trkpt>
      <trkpt lat="45.9575" lon="4.6482">
        <ele>273.6</ele>
        <time>2025-09-11T13:38:49Z</time>
      </trkpt>
      <trkpt lat="45.9575" lon="4.64818">
        <ele>273.6</ele>
        <time>2025-09-11T13:38:50Z</time>
      </trkpt>
      <trkpt lat="45.95749" lon="4.64815">
        <ele>273.8</ele>
        <time>2025-09-11T13:38:51Z</time>
      </trkpt>
      <trkpt lat="45.95749" lon="4.64813">
        <ele>274</ele>
        <time>2025-09-11T13:38:52Z</time>
      </trkpt>
      <trkpt lat="45.95748" lon="4.64811">
        <ele>274.2</ele>
        <time>2025-09-11T13:38:53Z</time>
      </trkpt>
      <trkpt lat="45.95747" lon="4.64809">
        <ele>274.2</ele>
        <time>2025-09-11T13:38:54Z</time>
      </trkpt>
      <trkpt lat="45.95747" lon="4.64807">
        <ele>274.2</ele>
        <time>2025-09-11T13:38:55Z</time>
      </trkpt>
      <trkpt lat="45.95746" lon="4.64806">
        <ele>274.2</ele>
        <time>2025-09-11T13:38:56Z</time>
      </trkpt>
      <trkpt lat="45.95746" lon="4.64804">
        <ele>274.2</ele>
        <time>2025-09-11T13:38:57Z</time>
      </trkpt>
      <trkpt lat="45.95745" lon="4.64801">
        <ele>274.2</ele>
        <time>2025-09-11T13:38:58Z</time>
      </trkpt>
      <trkpt lat="45.95745" lon="4.64799">
        <ele>275.6</ele>
        <time>2025-09-11T13:38:59Z</time>
      </trkpt>
      <trkpt lat="45.95745" lon="4.64796">
        <ele>275.6</ele>
        <time>2025-09-11T13:39:00Z</time>
      </trkpt>
      <trkpt lat="45.95744" lon="4.64794">
        <ele>275.8</ele>
        <time>2025-09-11T13:39:01Z</time>
      </trkpt>
      <trkpt lat="45.95743" lon="4.64792">
        <ele>275.8</ele>
        <time>2025-09-11T13:39:02Z</time>
      </trkpt>
      <trkpt lat="45.95742" lon="4.6479">
        <ele>275.8</ele>
        <time>2025-09-11T13:39:03Z</time>
      </trkpt>
      <trkpt lat="45.95742" lon="4.64789">
        <ele>275.8</ele>
        <time>2025-09-11T13:39:04Z</time>
      </trkpt>
      <trkpt lat="45.95741" lon="4.64787">
        <ele>276</ele>
        <time>2025-09-11T13:39:05Z</time>
      </trkpt>
      <trkpt lat="45.9574" lon="4.64785">
        <ele>276</ele>
        <time>2025-09-11T13:39:06Z</time>
      </trkpt>
      <trkpt lat="45.9574" lon="4.64783">
        <ele>276</ele>
        <time>2025-09-11T13:39:07Z</time>
      </trkpt>
      <trkpt lat="45.9574" lon="4.6478">
        <ele>276.4</ele>
        <time>2025-09-11T13:39:08Z</time>
      </trkpt>
      <trkpt lat="45.95739" lon="4.64778">
        <ele>276.6</ele>
        <time>2025-09-11T13:39:09Z</time>
      </trkpt>
      <trkpt lat="45.95739" lon="4.64776">
        <ele>276.6</ele>
        <time>2025-09-11T13:39:10Z</time>
      </trkpt>
      <trkpt lat="45.95738" lon="4.64774">
        <ele>276.8</ele>
        <time>2025-09-11T13:39:11Z</time>
      </trkpt>
      <trkpt lat="45.95738" lon="4.64772">
        <ele>276.8</ele>
        <time>2025-09-11T13:39:12Z</time>
      </trkpt>
      <trkpt lat="45.95737" lon="4.6477">
        <ele>277.2</ele>
        <time>2025-09-11T13:39:13Z</time>
      </trkpt>
      <trkpt lat="45.95737" lon="4.64767">
        <ele>277.2</ele>
        <time>2025-09-11T13:39:14Z</time>
      </trkpt>
      <trkpt lat="45.95736" lon="4.64765">
        <ele>277.2</ele>
        <time>2025-09-11T13:39:15Z</time>
      </trkpt>
      <trkpt lat="45.95735" lon="4.64763">
        <ele>277.4</ele>
        <time>2025-09-11T13:39:16Z</time>
      </trkpt>
      <trkpt lat="45.95734" lon="4.64761">
        <ele>277.4</ele>
        <time>2025-09-11T13:39:17Z</time>
      </trkpt>
      <trkpt lat="45.95733" lon="4.64759">
        <ele>277.4</ele>
        <time>2025-09-11T13:39:18Z</time>
      </trkpt>
      <trkpt lat="45.95733" lon="4.64757">
        <ele>277.8</ele>
        <time>2025-09-11T13:39:19Z</time>
      </trkpt>
      <trkpt lat="45.95732" lon="4.64754">
        <ele>277.8</ele>
        <time>2025-09-11T13:39:20Z</time>
      </trkpt>
      <trkpt lat="45.95732" lon="4.64752">
        <ele>278</ele>
        <time>2025-09-11T13:39:21Z</time>
      </trkpt>
      <trkpt lat="45.95731" lon="4.6475">
        <ele>278</ele>
        <time>2025-09-11T13:39:22Z</time>
      </trkpt>
      <trkpt lat="45.95731" lon="4.64747">
        <ele>278.2</ele>
        <time>2025-09-11T13:39:23Z</time>
      </trkpt>
      <trkpt lat="45.9573" lon="4.64745">
        <ele>278.2</ele>
        <time>2025-09-11T13:39:24Z</time>
      </trkpt>
      <trkpt lat="45.9573" lon="4.64743">
        <ele>278.6</ele>
        <time>2025-09-11T13:39:25Z</time>
      </trkpt>
      <trkpt lat="45.95729" lon="4.64741">
        <ele>278.6</ele>
        <time>2025-09-11T13:39:26Z</time>
      </trkpt>
      <trkpt lat="45.95728" lon="4.64739">
        <ele>278.8</ele>
        <time>2025-09-11T13:39:27Z</time>
      </trkpt>
      <trkpt lat="45.95726" lon="4.64737">
        <ele>278.8</ele>
        <time>2025-09-11T13:39:28Z</time>
      </trkpt>
      <trkpt lat="45.95725" lon="4.64734">
        <ele>279</ele>
        <time>2025-09-11T13:39:29Z</time>
      </trkpt>
      <trkpt lat="45.95725" lon="4.64732">
        <ele>279</ele>
        <time>2025-09-11T13:39:30Z</time>
      </trkpt>
      <trkpt lat="45.95723" lon="4.6473">
        <ele>279</ele>
        <time>2025-09-11T13:39:31Z</time>
      </trkpt>
      <trkpt lat="45.95722" lon="4.6473">
        <ele>279.2</ele>
        <time>2025-09-11T13:39:32Z</time>
      </trkpt>
      <trkpt lat="45.9572" lon="4.6473">
        <ele>279.2</ele>
        <time>2025-09-11T13:39:33Z</time>
      </trkpt>
      <trkpt lat="45.95718" lon="4.64731">
        <ele>279.4</ele>
        <time>2025-09-11T13:39:34Z</time>
      </trkpt>
      <trkpt lat="45.95717" lon="4.64732">
        <ele>279.4</ele>
        <time>2025-09-11T13:39:35Z</time>
      </trkpt>
      <trkpt lat="45.95717" lon="4.64733">
        <ele>279.8</ele>
        <time>2025-09-11T13:39:36Z</time>
      </trkpt>
      <trkpt lat="45.95716" lon="4.64735">
        <ele>279.8</ele>
        <time>2025-09-11T13:39:37Z</time>
      </trkpt>
      <trkpt lat="45.95715" lon="4.64736">
        <ele>280</ele>
        <time>2025-09-11T13:39:38Z</time>
      </trkpt>
      <trkpt lat="45.95714" lon="4.64737">
        <ele>280</ele>
        <time>2025-09-11T13:39:39Z</time>
      </trkpt>
      <trkpt lat="45.95713" lon="4.64739">
        <ele>280.6</ele>
        <time>2025-09-11T13:39:40Z</time>
      </trkpt>
      <trkpt lat="45.95712" lon="4.64741">
        <ele>280.8</ele>
        <time>2025-09-11T13:39:41Z</time>
      </trkpt>
      <trkpt lat="45.95711" lon="4.64742">
        <ele>281</ele>
        <time>2025-09-11T13:39:42Z</time>
      </trkpt>
      <trkpt lat="45.9571" lon="4.64744">
        <ele>281</ele>
        <time>2025-09-11T13:39:43Z</time>
      </trkpt>
      <trkpt lat="45.95708" lon="4.64746">
        <ele>281.4</ele>
        <time>2025-09-11T13:39:44Z</time>
      </trkpt>
      <trkpt lat="45.95708" lon="4.64747">
        <ele>281.4</ele>
        <time>2025-09-11T13:39:45Z</time>
      </trkpt>
      <trkpt lat="45.95707" lon="4.64749">
        <ele>281.8</ele>
        <time>2025-09-11T13:39:46Z</time>
      </trkpt>
      <trkpt lat="45.95706" lon="4.6475">
        <ele>281.8</ele>
        <time>2025-09-11T13:39:47Z</time>
      </trkpt>
      <trkpt lat="45.95705" lon="4.64751">
        <ele>281.8</ele>
        <time>2025-09-11T13:39:48Z</time>
      </trkpt>
      <trkpt lat="45.95704" lon="4.64752">
        <ele>282.2</ele>
        <time>2025-09-11T13:39:49Z</time>
      </trkpt>
      <trkpt lat="45.95703" lon="4.64753">
        <ele>282.2</ele>
        <time>2025-09-11T13:39:50Z</time>
      </trkpt>
      <trkpt lat="45.95703" lon="4.64754">
        <ele>282.6</ele>
        <time>2025-09-11T13:39:51Z</time>
      </trkpt>
      <trkpt lat="45.95702" lon="4.64755">
        <ele>282.6</ele>
        <time>2025-09-11T13:39:52Z</time>
      </trkpt>
      <trkpt lat="45.95701" lon="4.64756">
        <ele>282.8</ele>
        <time>2025-09-11T13:39:53Z</time>
      </trkpt>
      <trkpt lat="45.95699" lon="4.64757">
        <ele>282.8</ele>
        <time>2025-09-11T13:39:54Z</time>
      </trkpt>
      <trkpt lat="45.95699" lon="4.64758">
        <ele>283.2</ele>
        <time>2025-09-11T13:39:55Z</time>
      </trkpt>
      <trkpt lat="45.95698" lon="4.64759">
        <ele>283.2</ele>
        <time>2025-09-11T13:39:56Z</time>
      </trkpt>
      <trkpt lat="45.95697" lon="4.64759">
        <ele>283.6</ele>
        <time>2025-09-11T13:39:57Z</time>
      </trkpt>
      <trkpt lat="45.95695" lon="4.6476">
        <ele>283.6</ele>
        <time>2025-09-11T13:39:58Z</time>
      </trkpt>
      <trkpt lat="45.95694" lon="4.64761">
        <ele>283.8</ele>
        <time>2025-09-11T13:39:59Z</time>
      </trkpt>
      <trkpt lat="45.95693" lon="4.64762">
        <ele>283.8</ele>
        <time>2025-09-11T13:40:00Z</time>
      </trkpt>
      <trkpt lat="45.95692" lon="4.64763">
        <ele>284.2</ele>
        <time>2025-09-11T13:40:01Z</time>
      </trkpt>
      <trkpt lat="45.95691" lon="4.64763">
        <ele>284.2</ele>
        <time>2025-09-11T13:40:02Z</time>
      </trkpt>
      <trkpt lat="45.9569" lon="4.64763">
        <ele>284.6</ele>
        <time>2025-09-11T13:40:03Z</time>
      </trkpt>
      <trkpt lat="45.95688" lon="4.64764">
        <ele>284.8</ele>
        <time>2025-09-11T13:40:04Z</time>
      </trkpt>
      <trkpt lat="45.95688" lon="4.64765">
        <ele>284.8</ele>
        <time>2025-09-11T13:40:05Z</time>
      </trkpt>
      <trkpt lat="45.95687" lon="4.64766">
        <ele>285.2</ele>
        <time>2025-09-11T13:40:06Z</time>
      </trkpt>
      <trkpt lat="45.95687" lon="4.64768">
        <ele>285.2</ele>
        <time>2025-09-11T13:40:07Z</time>
      </trkpt>
      <trkpt lat="45.95686" lon="4.64769">
        <ele>285.4</ele>
        <time>2025-09-11T13:40:08Z</time>
      </trkpt>
      <trkpt lat="45.95685" lon="4.64772">
        <ele>285.4</ele>
        <time>2025-09-11T13:40:09Z</time>
      </trkpt>
      <trkpt lat="45.95685" lon="4.64774">
        <ele>285.6</ele>
        <time>2025-09-11T13:40:10Z</time>
      </trkpt>
      <trkpt lat="45.95685" lon="4.64777">
        <ele>285.6</ele>
        <time>2025-09-11T13:40:11Z</time>
      </trkpt>
      <trkpt lat="45.95684" lon="4.6478">
        <ele>285.6</ele>
        <time>2025-09-11T13:40:12Z</time>
      </trkpt>
      <trkpt lat="45.95684" lon="4.64783">
        <ele>285.6</ele>
        <time>2025-09-11T13:40:13Z</time>
      </trkpt>
      <trkpt lat="45.95684" lon="4.64786">
        <ele>285.8</ele>
        <time>2025-09-11T13:40:14Z</time>
      </trkpt>
      <trkpt lat="45.95684" lon="4.6479">
        <ele>285.8</ele>
        <time>2025-09-11T13:40:15Z</time>
      </trkpt>
      <trkpt lat="45.95683" lon="4.64793">
        <ele>285.8</ele>
        <time>2025-09-11T13:40:16Z</time>
      </trkpt>
      <trkpt lat="45.95682" lon="4.64797">
        <ele>285.8</ele>
        <time>2025-09-11T13:40:17Z</time>
      </trkpt>
      <trkpt lat="45.95682" lon="4.64801">
        <ele>285.8</ele>
        <time>2025-09-11T13:40:18Z</time>
      </trkpt>
      <trkpt lat="45.95681" lon="4.64805">
        <ele>285.8</ele>
        <time>2025-09-11T13:40:19Z</time>
      </trkpt>
      <trkpt lat="45.9568" lon="4.6481">
        <ele>285.8</ele>
        <time>2025-09-11T13:40:20Z</time>
      </trkpt>
      <trkpt lat="45.9568" lon="4.64815">
        <ele>285.8</ele>
        <time>2025-09-11T13:40:21Z</time>
      </trkpt>
      <trkpt lat="45.95679" lon="4.6482">
        <ele>285.6</ele>
        <time>2025-09-11T13:40:22Z</time>
      </trkpt>
      <trkpt lat="45.95679" lon="4.64824">
        <ele>285.6</ele>
        <time>2025-09-11T13:40:23Z</time>
      </trkpt>
      <trkpt lat="45.95679" lon="4.64828">
        <ele>286</ele>
        <time>2025-09-11T13:40:24Z</time>
      </trkpt>
      <trkpt lat="45.95679" lon="4.64832">
        <ele>286</ele>
        <time>2025-09-11T13:40:25Z</time>
      </trkpt>
      <trkpt lat="45.95679" lon="4.64835">
        <ele>286.2</ele>
        <time>2025-09-11T13:40:26Z</time>
      </trkpt>
      <trkpt lat="45.95678" lon="4.64839">
        <ele>286.2</ele>
        <time>2025-09-11T13:40:27Z</time>
      </trkpt>
      <trkpt lat="45.95678" lon="4.64843">
        <ele>286.2</ele>
        <time>2025-09-11T13:40:28Z</time>
      </trkpt>
      <trkpt lat="45.95677" lon="4.64846">
        <ele>286.2</ele>
        <time>2025-09-11T13:40:29Z</time>
      </trkpt>
      <trkpt lat="45.95677" lon="4.6485">
        <ele>286.4</ele>
        <time>2025-09-11T13:40:30Z</time>
      </trkpt>
      <trkpt lat="45.95677" lon="4.64853">
        <ele>286.4</ele>
        <time>2025-09-11T13:40:31Z</time>
      </trkpt>
      <trkpt lat="45.95677" lon="4.64857">
        <ele>286.8</ele>
        <time>2025-09-11T13:40:32Z</time>
      </trkpt>
      <trkpt lat="45.95676" lon="4.64861">
        <ele>286.8</ele>
        <time>2025-09-11T13:40:33Z</time>
      </trkpt>
      <trkpt lat="45.95676" lon="4.64864">
        <ele>287</ele>
        <time>2025-09-11T13:40:34Z</time>
      </trkpt>
      <trkpt lat="45.95676" lon="4.64868">
        <ele>287</ele>
        <time>2025-09-11T13:40:35Z</time>
      </trkpt>
      <trkpt lat="45.95675" lon="4.64872">
        <ele>287</ele>
        <time>2025-09-11T13:40:36Z</time>
      </trkpt>
      <trkpt lat="45.95675" lon="4.64876">
        <ele>287</ele>
        <time>2025-09-11T13:40:37Z</time>
      </trkpt>
      <trkpt lat="45.95675" lon="4.64879">
        <ele>287</ele>
        <time>2025-09-11T13:40:38Z</time>
      </trkpt>
      <trkpt lat="45.95674" lon="4.64883">
        <ele>287.2</ele>
        <time>2025-09-11T13:40:39Z</time>
      </trkpt>
      <trkpt lat="45.95673" lon="4.64886">
        <ele>287.2</ele>
        <time>2025-09-11T13:40:40Z</time>
      </trkpt>
      <trkpt lat="45.95673" lon="4.6489">
        <ele>287.2</ele>
        <time>2025-09-11T13:40:41Z</time>
      </trkpt>
      <trkpt lat="45.95672" lon="4.64894">
        <ele>287.2</ele>
        <time>2025-09-11T13:40:42Z</time>
      </trkpt>
      <trkpt lat="45.95672" lon="4.64897">
        <ele>287.4</ele>
        <time>2025-09-11T13:40:43Z</time>
      </trkpt>
      <trkpt lat="45.95671" lon="4.64901">
        <ele>287.6</ele>
        <time>2025-09-11T13:40:44Z</time>
      </trkpt>
      <trkpt lat="45.95671" lon="4.64905">
        <ele>287.6</ele>
        <time>2025-09-11T13:40:45Z</time>
      </trkpt>
      <trkpt lat="45.9567" lon="4.64909">
        <ele>287.6</ele>
        <time>2025-09-11T13:40:46Z</time>
      </trkpt>
      <trkpt lat="45.9567" lon="4.64913">
        <ele>287.6</ele>
        <time>2025-09-11T13:40:47Z</time>
      </trkpt>
      <trkpt lat="45.9567" lon="4.64917">
        <ele>287.6</ele>
        <time>2025-09-11T13:40:48Z</time>
      </trkpt>
      <trkpt lat="45.95669" lon="4.64921">
        <ele>287.6</ele>
        <time>2025-09-11T13:40:49Z</time>
      </trkpt>
      <trkpt lat="45.95668" lon="4.64925">
        <ele>287.6</ele>
        <time>2025-09-11T13:40:50Z</time>
      </trkpt>
      <trkpt lat="45.95668" lon="4.64929">
        <ele>288</ele>
        <time>2025-09-11T13:40:51Z</time>
      </trkpt>
      <trkpt lat="45.95667" lon="4.64933">
        <ele>288</ele>
        <time>2025-09-11T13:40:52Z</time>
      </trkpt>
      <trkpt lat="45.95667" lon="4.64938">
        <ele>288</ele>
        <time>2025-09-11T13:40:53Z</time>
      </trkpt>
      <trkpt lat="45.95666" lon="4.64942">
        <ele>288.2</ele>
        <time>2025-09-11T13:40:54Z</time>
      </trkpt>
      <trkpt lat="45.95666" lon="4.64947">
        <ele>288.2</ele>
        <time>2025-09-11T13:40:55Z</time>
      </trkpt>
      <trkpt lat="45.95665" lon="4.64951">
        <ele>288.2</ele>
        <time>2025-09-11T13:40:56Z</time>
      </trkpt>
      <trkpt lat="45.95664" lon="4.64956">
        <ele>288.2</ele>
        <time>2025-09-11T13:40:57Z</time>
      </trkpt>
      <trkpt lat="45.95664" lon="4.6496">
        <ele>288.2</ele>
        <time>2025-09-11T13:40:58Z</time>
      </trkpt>
      <trkpt lat="45.95663" lon="4.64964">
        <ele>288.4</ele>
        <time>2025-09-11T13:40:59Z</time>
      </trkpt>
      <trkpt lat="45.95662" lon="4.64968">
        <ele>288.4</ele>
        <time>2025-09-11T13:41:00Z</time>
      </trkpt>
      <trkpt lat="45.95661" lon="4.64972">
        <ele>288.6</ele>
        <time>2025-09-11T13:41:01Z</time>
      </trkpt>
      <trkpt lat="45.95661" lon="4.64976">
        <ele>288.8</ele>
        <time>2025-09-11T13:41:02Z</time>
      </trkpt>
      <trkpt lat="45.9566" lon="4.6498">
        <ele>288.8</ele>
        <time>2025-09-11T13:41:03Z</time>
      </trkpt>
      <trkpt lat="45.9566" lon="4.64984">
        <ele>288.8</ele>
        <time>2025-09-11T13:41:04Z</time>
      </trkpt>
      <trkpt lat="45.95659" lon="4.64988">
        <ele>289.4</ele>
        <time>2025-09-11T13:41:05Z</time>
      </trkpt>
      <trkpt lat="45.95659" lon="4.64992">
        <ele>289.4</ele>
        <time>2025-09-11T13:41:06Z</time>
      </trkpt>
      <trkpt lat="45.95658" lon="4.64996">
        <ele>289.6</ele>
        <time>2025-09-11T13:41:07Z</time>
      </trkpt>
      <trkpt lat="45.95658" lon="4.65">
        <ele>289.6</ele>
        <time>2025-09-11T13:41:08Z</time>
      </trkpt>
      <trkpt lat="45.95658" lon="4.65004">
        <ele>290</ele>
        <time>2025-09-11T13:41:09Z</time>
      </trkpt>
      <trkpt lat="45.95658" lon="4.65008">
        <ele>290</ele>
        <time>2025-09-11T13:41:10Z</time>
      </trkpt>
      <trkpt lat="45.95657" lon="4.65012">
        <ele>290.2</ele>
        <time>2025-09-11T13:41:11Z</time>
      </trkpt>
      <trkpt lat="45.95657" lon="4.65016">
        <ele>290.2</ele>
        <time>2025-09-11T13:41:12Z</time>
      </trkpt>
      <trkpt lat="45.95656" lon="4.6502">
        <ele>290.4</ele>
        <time>2025-09-11T13:41:13Z</time>
      </trkpt>
      <trkpt lat="45.95656" lon="4.65024">
        <ele>290.4</ele>
        <time>2025-09-11T13:41:14Z</time>
      </trkpt>
      <trkpt lat="45.95656" lon="4.65028">
        <ele>290.4</ele>
        <time>2025-09-11T13:41:15Z</time>
      </trkpt>
      <trkpt lat="45.95656" lon="4.65032">
        <ele>290.8</ele>
        <time>2025-09-11T13:41:16Z</time>
      </trkpt>
      <trkpt lat="45.95655" lon="4.65036">
        <ele>290.8</ele>
        <time>2025-09-11T13:41:17Z</time>
      </trkpt>
      <trkpt lat="45.95655" lon="4.6504">
        <ele>290.8</ele>
        <time>2025-09-11T13:41:18Z</time>
      </trkpt>
      <trkpt lat="45.95654" lon="4.65044">
        <ele>290.8</ele>
        <time>2025-09-11T13:41:19Z</time>
      </trkpt>
      <trkpt lat="45.95653" lon="4.65048">
        <ele>291</ele>
        <time>2025-09-11T13:41:20Z</time>
      </trkpt>
      <trkpt lat="45.95652" lon="4.65052">
        <ele>291</ele>
        <time>2025-09-11T13:41:21Z</time>
      </trkpt>
      <trkpt lat="45.9565" lon="4.65056">
        <ele>291</ele>
        <time>2025-09-11T13:41:22Z</time>
      </trkpt>
      <trkpt lat="45.95649" lon="4.6506">
        <ele>291.2</ele>
        <time>2025-09-11T13:41:23Z</time>
      </trkpt>
      <trkpt lat="45.95647" lon="4.65063">
        <ele>291.4</ele>
        <time>2025-09-11T13:41:24Z</time>
      </trkpt>
      <trkpt lat="45.95646" lon="4.65066">
        <ele>291.4</ele>
        <time>2025-09-11T13:41:25Z</time>
      </trkpt>
      <trkpt lat="45.95644" lon="4.65069">
        <ele>291.8</ele>
        <time>2025-09-11T13:41:26Z</time>
      </trkpt>
      <trkpt lat="45.95642" lon="4.65071">
        <ele>291.8</ele>
        <time>2025-09-11T13:41:27Z</time>
      </trkpt>
      <trkpt lat="45.9564" lon="4.65074">
        <ele>292</ele>
        <time>2025-09-11T13:41:28Z</time>
      </trkpt>
      <trkpt lat="45.95638" lon="4.65076">
        <ele>291</ele>
        <time>2025-09-11T13:41:29Z</time>
      </trkpt>
      <trkpt lat="45.95636" lon="4.65078">
        <ele>291.4</ele>
        <time>2025-09-11T13:41:30Z</time>
      </trkpt>
      <trkpt lat="45.95634" lon="4.6508">
        <ele>291.6</ele>
        <time>2025-09-11T13:41:31Z</time>
      </trkpt>
      <trkpt lat="45.95632" lon="4.65083">
        <ele>292.8</ele>
        <time>2025-09-11T13:41:32Z</time>
      </trkpt>
      <trkpt lat="45.9563" lon="4.65084">
        <ele>293.2</ele>
        <time>2025-09-11T13:41:33Z</time>
      </trkpt>
      <trkpt lat="45.95628" lon="4.65085">
        <ele>293.2</ele>
        <time>2025-09-11T13:41:34Z</time>
      </trkpt>
      <trkpt lat="45.95626" lon="4.65084">
        <ele>293.2</ele>
        <time>2025-09-11T13:41:35Z</time>
      </trkpt>
      <trkpt lat="45.95624" lon="4.65085">
        <ele>293.2</ele>
        <time>2025-09-11T13:41:36Z</time>
      </trkpt>
      <trkpt lat="45.95622" lon="4.65086">
        <ele>293.6</ele>
        <time>2025-09-11T13:41:37Z</time>
      </trkpt>
      <trkpt lat="45.9562" lon="4.65088">
        <ele>293.6</ele>
        <time>2025-09-11T13:41:38Z</time>
      </trkpt>
      <trkpt lat="45.95618" lon="4.6509">
        <ele>293.8</ele>
        <time>2025-09-11T13:41:39Z</time>
      </trkpt>
      <trkpt lat="45.95617" lon="4.65091">
        <ele>294.2</ele>
        <time>2025-09-11T13:41:40Z</time>
      </trkpt>
      <trkpt lat="45.95615" lon="4.65093">
        <ele>294.2</ele>
        <time>2025-09-11T13:41:41Z</time>
      </trkpt>
      <trkpt lat="45.95612" lon="4.65095">
        <ele>294.4</ele>
        <time>2025-09-11T13:41:42Z</time>
      </trkpt>
      <trkpt lat="45.9561" lon="4.65096">
        <ele>294.4</ele>
        <time>2025-09-11T13:41:43Z</time>
      </trkpt>
      <trkpt lat="45.95608" lon="4.65097">
        <ele>293.2</ele>
        <time>2025-09-11T13:41:44Z</time>
      </trkpt>
      <trkpt lat="45.95607" lon="4.65098">
        <ele>294</ele>
        <time>2025-09-11T13:41:45Z</time>
      </trkpt>
      <trkpt lat="45.95605" lon="4.65099">
        <ele>294.6</ele>
        <time>2025-09-11T13:41:46Z</time>
      </trkpt>
      <trkpt lat="45.95603" lon="4.651">
        <ele>294.6</ele>
        <time>2025-09-11T13:41:47Z</time>
      </trkpt>
      <trkpt lat="45.95601" lon="4.65102">
        <ele>294.2</ele>
        <time>2025-09-11T13:41:48Z</time>
      </trkpt>
      <trkpt lat="45.956" lon="4.65103">
        <ele>294.2</ele>
        <time>2025-09-11T13:41:49Z</time>
      </trkpt>
      <trkpt lat="45.95598" lon="4.65104">
        <ele>295.2</ele>
        <time>2025-09-11T13:41:50Z</time>
      </trkpt>
      <trkpt lat="45.95598" lon="4.65104">
        <ele>295.4</ele>
        <time>2025-09-11T13:41:51Z</time>
      </trkpt>
      <trkpt lat="45.95597" lon="4.65105">
        <ele>295.4</ele>
        <time>2025-09-11T13:41:52Z</time>
      </trkpt>
      <trkpt lat="45.95595" lon="4.65105">
        <ele>295.4</ele>
        <time>2025-09-11T13:41:53Z</time>
      </trkpt>
      <trkpt lat="45.95593" lon="4.65106">
        <ele>295.6</ele>
        <time>2025-09-11T13:41:54Z</time>
      </trkpt>
      <trkpt lat="45.95591" lon="4.65107">
        <ele>295.8</ele>
        <time>2025-09-11T13:41:55Z</time>
      </trkpt>
      <trkpt lat="45.95589" lon="4.65108">
        <ele>295.8</ele>
        <time>2025-09-11T13:41:56Z</time>
      </trkpt>
      <trkpt lat="45.95587" lon="4.65109">
        <ele>295.8</ele>
        <time>2025-09-11T13:41:57Z</time>
      </trkpt>
      <trkpt lat="45.95585" lon="4.6511">
        <ele>296</ele>
        <time>2025-09-11T13:41:58Z</time>
      </trkpt>
      <trkpt lat="45.95582" lon="4.6511">
        <ele>296</ele>
        <time>2025-09-11T13:41:59Z</time>
      </trkpt>
      <trkpt lat="45.9558" lon="4.65111">
        <ele>296.4</ele>
        <time>2025-09-11T13:42:00Z</time>
      </trkpt>
      <trkpt lat="45.95578" lon="4.65112">
        <ele>296.4</ele>
        <time>2025-09-11T13:42:01Z</time>
      </trkpt>
      <trkpt lat="45.95576" lon="4.65113">
        <ele>296.4</ele>
        <time>2025-09-11T13:42:02Z</time>
      </trkpt>
      <trkpt lat="45.95574" lon="4.65114">
        <ele>295.8</ele>
        <time>2025-09-11T13:42:03Z</time>
      </trkpt>
      <trkpt lat="45.95571" lon="4.65115">
        <ele>295.8</ele>
        <time>2025-09-11T13:42:04Z</time>
      </trkpt>
      <trkpt lat="45.95569" lon="4.65116">
        <ele>297</ele>
        <time>2025-09-11T13:42:05Z</time>
      </trkpt>
      <trkpt lat="45.95566" lon="4.65116">
        <ele>297.6</ele>
        <time>2025-09-11T13:42:06Z</time>
      </trkpt>
      <trkpt lat="45.95564" lon="4.65117">
        <ele>295.8</ele>
        <time>2025-09-11T13:42:07Z</time>
      </trkpt>
      <trkpt lat="45.95562" lon="4.65118">
        <ele>296.2</ele>
        <time>2025-09-11T13:42:08Z</time>
      </trkpt>
      <trkpt lat="45.95559" lon="4.65119">
        <ele>296.2</ele>
        <time>2025-09-11T13:42:09Z</time>
      </trkpt>
      <trkpt lat="45.95557" lon="4.65119">
        <ele>296.4</ele>
        <time>2025-09-11T13:42:10Z</time>
      </trkpt>
      <trkpt lat="45.95554" lon="4.6512">
        <ele>296.4</ele>
        <time>2025-09-11T13:42:11Z</time>
      </trkpt>
      <trkpt lat="45.95551" lon="4.6512">
        <ele>296.6</ele>
        <time>2025-09-11T13:42:12Z</time>
      </trkpt>
      <trkpt lat="45.95549" lon="4.65121">
        <ele>296.6</ele>
        <time>2025-09-11T13:42:13Z</time>
      </trkpt>
      <trkpt lat="45.95547" lon="4.65122">
        <ele>297</ele>
        <time>2025-09-11T13:42:14Z</time>
      </trkpt>
      <trkpt lat="45.95544" lon="4.65123">
        <ele>297</ele>
        <time>2025-09-11T13:42:15Z</time>
      </trkpt>
      <trkpt lat="45.95542" lon="4.65123">
        <ele>297</ele>
        <time>2025-09-11T13:42:16Z</time>
      </trkpt>
      <trkpt lat="45.95539" lon="4.65123">
        <ele>297.4</ele>
        <time>2025-09-11T13:42:17Z</time>
      </trkpt>
      <trkpt lat="45.95537" lon="4.65123">
        <ele>297.4</ele>
        <time>2025-09-11T13:42:18Z</time>
      </trkpt>
      <trkpt lat="45.95534" lon="4.65123">
        <ele>297.6</ele>
        <time>2025-09-11T13:42:19Z</time>
      </trkpt>
      <trkpt lat="45.95531" lon="4.65123">
        <ele>297.6</ele>
        <time>2025-09-11T13:42:20Z</time>
      </trkpt>
      <trkpt lat="45.95529" lon="4.65124">
        <ele>297.8</ele>
        <time>2025-09-11T13:42:21Z</time>
      </trkpt>
      <trkpt lat="45.95526" lon="4.65123">
        <ele>297.8</ele>
        <time>2025-09-11T13:42:22Z</time>
      </trkpt>
      <trkpt lat="45.95523" lon="4.65123">
        <ele>297.8</ele>
        <time>2025-09-11T13:42:23Z</time>
      </trkpt>
      <trkpt lat="45.95521" lon="4.65123">
        <ele>297.8</ele>
        <time>2025-09-11T13:42:24Z</time>
      </trkpt>
      <trkpt lat="45.95518" lon="4.65123">
        <ele>297.8</ele>
        <time>2025-09-11T13:42:25Z</time>
      </trkpt>
      <trkpt lat="45.95516" lon="4.65123">
        <ele>298.2</ele>
        <time>2025-09-11T13:42:26Z</time>
      </trkpt>
      <trkpt lat="45.95513" lon="4.65124">
        <ele>298.2</ele>
        <time>2025-09-11T13:42:27Z</time>
      </trkpt>
      <trkpt lat="45.9551" lon="4.65124">
        <ele>298.4</ele>
        <time>2025-09-11T13:42:28Z</time>
      </trkpt>
      <trkpt lat="45.95508" lon="4.65123">
        <ele>298.4</ele>
        <time>2025-09-11T13:42:29Z</time>
      </trkpt>
      <trkpt lat="45.95505" lon="4.65122">
        <ele>298.4</ele>
        <time>2025-09-11T13:42:30Z</time>
      </trkpt>
      <trkpt lat="45.95503" lon="4.65122">
        <ele>298.4</ele>
        <time>2025-09-11T13:42:31Z</time>
      </trkpt>
      <trkpt lat="45.955" lon="4.65121">
        <ele>298.4</ele>
        <time>2025-09-11T13:42:32Z</time>
      </trkpt>
      <trkpt lat="45.95498" lon="4.65122">
        <ele>298.4</ele>
        <time>2025-09-11T13:42:33Z</time>
      </trkpt>
      <trkpt lat="45.95495" lon="4.65124">
        <ele>298.4</ele>
        <time>2025-09-11T13:42:34Z</time>
      </trkpt>
      <trkpt lat="45.95492" lon="4.65126">
        <ele>298.4</ele>
        <time>2025-09-11T13:42:35Z</time>
      </trkpt>
      <trkpt lat="45.95489" lon="4.65128">
        <ele>298.4</ele>
        <time>2025-09-11T13:42:36Z</time>
      </trkpt>
      <trkpt lat="45.95487" lon="4.6513">
        <ele>298.4</ele>
        <time>2025-09-11T13:42:37Z</time>
      </trkpt>
      <trkpt lat="45.95484" lon="4.65133">
        <ele>298.2</ele>
        <time>2025-09-11T13:42:38Z</time>
      </trkpt>
      <trkpt lat="45.95481" lon="4.65137">
        <ele>298.2</ele>
        <time>2025-09-11T13:42:39Z</time>
      </trkpt>
      <trkpt lat="45.95478" lon="4.6514">
        <ele>298.2</ele>
        <time>2025-09-11T13:42:40Z</time>
      </trkpt>
      <trkpt lat="45.95475" lon="4.65143">
        <ele>298.4</ele>
        <time>2025-09-11T13:42:41Z</time>
      </trkpt>
      <trkpt lat="45.95471" lon="4.65147">
        <ele>298.4</ele>
        <time>2025-09-11T13:42:42Z</time>
      </trkpt>
      <trkpt lat="45.95469" lon="4.65152">
        <ele>298.4</ele>
        <time>2025-09-11T13:42:43Z</time>
      </trkpt>
      <trkpt lat="45.95466" lon="4.65158">
        <ele>298.2</ele>
        <time>2025-09-11T13:42:44Z</time>
      </trkpt>
      <trkpt lat="45.95464" lon="4.65164">
        <ele>298.2</ele>
        <time>2025-09-11T13:42:45Z</time>
      </trkpt>
      <trkpt lat="45.95461" lon="4.65169">
        <ele>298.2</ele>
        <time>2025-09-11T13:42:46Z</time>
      </trkpt>
      <trkpt lat="45.95459" lon="4.65175">
        <ele>298</ele>
        <time>2025-09-11T13:42:47Z</time>
      </trkpt>
      <trkpt lat="45.95456" lon="4.6518">
        <ele>298</ele>
        <time>2025-09-11T13:42:48Z</time>
      </trkpt>
      <trkpt lat="45.95454" lon="4.65186">
        <ele>298</ele>
        <time>2025-09-11T13:42:49Z</time>
      </trkpt>
      <trkpt lat="45.95452" lon="4.65192">
        <ele>298</ele>
        <time>2025-09-11T13:42:50Z</time>
      </trkpt>
      <trkpt lat="45.9545" lon="4.65199">
        <ele>298</ele>
        <time>2025-09-11T13:42:51Z</time>
      </trkpt>
      <trkpt lat="45.95449" lon="4.65205">
        <ele>297.6</ele>
        <time>2025-09-11T13:42:52Z</time>
      </trkpt>
      <trkpt lat="45.95446" lon="4.65211">
        <ele>297.4</ele>
        <time>2025-09-11T13:42:53Z</time>
      </trkpt>
      <trkpt lat="45.95443" lon="4.65216">
        <ele>297.2</ele>
        <time>2025-09-11T13:42:54Z</time>
      </trkpt>
      <trkpt lat="45.9544" lon="4.65222">
        <ele>297.2</ele>
        <time>2025-09-11T13:42:55Z</time>
      </trkpt>
      <trkpt lat="45.95437" lon="4.65227">
        <ele>297.2</ele>
        <time>2025-09-11T13:42:56Z</time>
      </trkpt>
      <trkpt lat="45.95434" lon="4.65234">
        <ele>296</ele>
        <time>2025-09-11T13:42:57Z</time>
      </trkpt>
      <trkpt lat="45.95432" lon="4.65241">
        <ele>296.4</ele>
        <time>2025-09-11T13:42:58Z</time>
      </trkpt>
      <trkpt lat="45.95429" lon="4.65247">
        <ele>296.4</ele>
        <time>2025-09-11T13:42:59Z</time>
      </trkpt>
      <trkpt lat="45.95425" lon="4.65252">
        <ele>296.4</ele>
        <time>2025-09-11T13:43:00Z</time>
      </trkpt>
      <trkpt lat="45.95422" lon="4.65259">
        <ele>296.2</ele>
        <time>2025-09-11T13:43:01Z</time>
      </trkpt>
      <trkpt lat="45.9542" lon="4.65266">
        <ele>296.2</ele>
        <time>2025-09-11T13:43:02Z</time>
      </trkpt>
      <trkpt lat="45.95416" lon="4.65274">
        <ele>295</ele>
        <time>2025-09-11T13:43:03Z</time>
      </trkpt>
      <trkpt lat="45.95414" lon="4.65282">
        <ele>294.8</ele>
        <time>2025-09-11T13:43:04Z</time>
      </trkpt>
      <trkpt lat="45.9541" lon="4.6529">
        <ele>296</ele>
        <time>2025-09-11T13:43:05Z</time>
      </trkpt>
      <trkpt lat="45.95408" lon="4.65299">
        <ele>296</ele>
        <time>2025-09-11T13:43:06Z</time>
      </trkpt>
      <trkpt lat="45.95405" lon="4.65307">
        <ele>295.6</ele>
        <time>2025-09-11T13:43:07Z</time>
      </trkpt>
      <trkpt lat="45.95402" lon="4.65315">
        <ele>295.2</ele>
        <time>2025-09-11T13:43:08Z</time>
      </trkpt>
      <trkpt lat="45.95399" lon="4.65324">
        <ele>295</ele>
        <time>2025-09-11T13:43:09Z</time>
      </trkpt>
      <trkpt lat="45.95396" lon="4.65331">
        <ele>295</ele>
        <time>2025-09-11T13:43:10Z</time>
      </trkpt>
      <trkpt lat="45.95393" lon="4.65339">
        <ele>294.6</ele>
        <time>2025-09-11T13:43:11Z</time>
      </trkpt>
      <trkpt lat="45.95391" lon="4.65347">
        <ele>294.6</ele>
        <time>2025-09-11T13:43:12Z</time>
      </trkpt>
      <trkpt lat="45.95387" lon="4.65355">
        <ele>294.2</ele>
        <time>2025-09-11T13:43:13Z</time>
      </trkpt>
      <trkpt lat="45.95385" lon="4.65364">
        <ele>294.2</ele>
        <time>2025-09-11T13:43:14Z</time>
      </trkpt>
      <trkpt lat="45.95382" lon="4.65373">
        <ele>294.2</ele>
        <time>2025-09-11T13:43:15Z</time>
      </trkpt>
      <trkpt lat="45.9538" lon="4.65382">
        <ele>294</ele>
        <time>2025-09-11T13:43:16Z</time>
      </trkpt>
      <trkpt lat="45.95378" lon="4.65391">
        <ele>293.8</ele>
        <time>2025-09-11T13:43:17Z</time>
      </trkpt>
      <trkpt lat="45.95376" lon="4.654">
        <ele>293.8</ele>
        <time>2025-09-11T13:43:18Z</time>
      </trkpt>
      <trkpt lat="45.95375" lon="4.65407">
        <ele>293.4</ele>
        <time>2025-09-11T13:43:19Z</time>
      </trkpt>
      <trkpt lat="45.95373" lon="4.65415">
        <ele>293.4</ele>
        <time>2025-09-11T13:43:20Z</time>
      </trkpt>
      <trkpt lat="45.95372" lon="4.65423">
        <ele>293.2</ele>
        <time>2025-09-11T13:43:21Z</time>
      </trkpt>
      <trkpt lat="45.9537" lon="4.65431">
        <ele>293.2</ele>
        <time>2025-09-11T13:43:22Z</time>
      </trkpt>
      <trkpt lat="45.95368" lon="4.65438">
        <ele>293.2</ele>
        <time>2025-09-11T13:43:23Z</time>
      </trkpt>
      <trkpt lat="45.95366" lon="4.65447">
        <ele>292.8</ele>
        <time>2025-09-11T13:43:24Z</time>
      </trkpt>
      <trkpt lat="45.95364" lon="4.65454">
        <ele>292.8</ele>
        <time>2025-09-11T13:43:25Z</time>
      </trkpt>
      <trkpt lat="45.95362" lon="4.65462">
        <ele>292.4</ele>
        <time>2025-09-11T13:43:26Z</time>
      </trkpt>
      <trkpt lat="45.9536" lon="4.6547">
        <ele>292.4</ele>
        <time>2025-09-11T13:43:27Z</time>
      </trkpt>
      <trkpt lat="45.95358" lon="4.65478">
        <ele>292</ele>
        <time>2025-09-11T13:43:28Z</time>
      </trkpt>
      <trkpt lat="45.95356" lon="4.65486">
        <ele>291.8</ele>
        <time>2025-09-11T13:43:29Z</time>
      </trkpt>
      <trkpt lat="45.95355" lon="4.65495">
        <ele>291.8</ele>
        <time>2025-09-11T13:43:30Z</time>
      </trkpt>
      <trkpt lat="45.95353" lon="4.65504">
        <ele>291.8</ele>
        <time>2025-09-11T13:43:31Z</time>
      </trkpt>
      <trkpt lat="45.95351" lon="4.65512">
        <ele>291.6</ele>
        <time>2025-09-11T13:43:32Z</time>
      </trkpt>
      <trkpt lat="45.95348" lon="4.65521">
        <ele>291.6</ele>
        <time>2025-09-11T13:43:33Z</time>
      </trkpt>
      <trkpt lat="45.95346" lon="4.65529">
        <ele>291.4</ele>
        <time>2025-09-11T13:43:34Z</time>
      </trkpt>
      <trkpt lat="45.95345" lon="4.65536">
        <ele>291.4</ele>
        <time>2025-09-11T13:43:35Z</time>
      </trkpt>
      <trkpt lat="45.95344" lon="4.65543">
        <ele>291.4</ele>
        <time>2025-09-11T13:43:36Z</time>
      </trkpt>
      <trkpt lat="45.95343" lon="4.65549">
        <ele>291</ele>
        <time>2025-09-11T13:43:37Z</time>
      </trkpt>
      <trkpt lat="45.95341" lon="4.65556">
        <ele>291</ele>
        <time>2025-09-11T13:43:38Z</time>
      </trkpt>
      <trkpt lat="45.95341" lon="4.65563">
        <ele>290.8</ele>
        <time>2025-09-11T13:43:39Z</time>
      </trkpt>
      <trkpt lat="45.95341" lon="4.6557">
        <ele>289.8</ele>
        <time>2025-09-11T13:43:40Z</time>
      </trkpt>
      <trkpt lat="45.9534" lon="4.65577">
        <ele>289.8</ele>
        <time>2025-09-11T13:43:41Z</time>
      </trkpt>
      <trkpt lat="45.9534" lon="4.65583">
        <ele>289.4</ele>
        <time>2025-09-11T13:43:42Z</time>
      </trkpt>
      <trkpt lat="45.95339" lon="4.6559">
        <ele>290</ele>
        <time>2025-09-11T13:43:43Z</time>
      </trkpt>
      <trkpt lat="45.95339" lon="4.65597">
        <ele>290</ele>
        <time>2025-09-11T13:43:44Z</time>
      </trkpt>
      <trkpt lat="45.95338" lon="4.65604">
        <ele>289.6</ele>
        <time>2025-09-11T13:43:45Z</time>
      </trkpt>
      <trkpt lat="45.95338" lon="4.6561">
        <ele>290.2</ele>
        <time>2025-09-11T13:43:46Z</time>
      </trkpt>
      <trkpt lat="45.95337" lon="4.65617">
        <ele>290.2</ele>
        <time>2025-09-11T13:43:47Z</time>
      </trkpt>
      <trkpt lat="45.95335" lon="4.65621">
        <ele>290.2</ele>
        <time>2025-09-11T13:43:48Z</time>
      </trkpt>
      <trkpt lat="45.95334" lon="4.65625">
        <ele>289.6</ele>
        <time>2025-09-11T13:43:49Z</time>
      </trkpt>
      <trkpt lat="45.95334" lon="4.65629">
        <ele>289.2</ele>
        <time>2025-09-11T13:43:50Z</time>
      </trkpt>
      <trkpt lat="45.95334" lon="4.65634">
        <ele>289.2</ele>
        <time>2025-09-11T13:43:51Z</time>
      </trkpt>
      <trkpt lat="45.95333" lon="4.65639">
        <ele>289</ele>
        <time>2025-09-11T13:43:52Z</time>
      </trkpt>
      <trkpt lat="45.95333" lon="4.65643">
        <ele>288.6</ele>
        <time>2025-09-11T13:43:53Z</time>
      </trkpt>
      <trkpt lat="45.95332" lon="4.65649">
        <ele>288.6</ele>
        <time>2025-09-11T13:43:54Z</time>
      </trkpt>
      <trkpt lat="45.95331" lon="4.65654">
        <ele>289.4</ele>
        <time>2025-09-11T13:43:55Z</time>
      </trkpt>
      <trkpt lat="45.9533" lon="4.6566">
        <ele>289.2</ele>
        <time>2025-09-11T13:43:56Z</time>
      </trkpt>
      <trkpt lat="45.95329" lon="4.65666">
        <ele>289.2</ele>
        <time>2025-09-11T13:43:57Z</time>
      </trkpt>
      <trkpt lat="45.95328" lon="4.65672">
        <ele>288.6</ele>
        <time>2025-09-11T13:43:58Z</time>
      </trkpt>
      <trkpt lat="45.95327" lon="4.65678">
        <ele>288.6</ele>
        <time>2025-09-11T13:43:59Z</time>
      </trkpt>
      <trkpt lat="45.95325" lon="4.65684">
        <ele>288</ele>
        <time>2025-09-11T13:44:00Z</time>
      </trkpt>
      <trkpt lat="45.95324" lon="4.65689">
        <ele>287.8</ele>
        <time>2025-09-11T13:44:01Z</time>
      </trkpt>
      <trkpt lat="45.95323" lon="4.65695">
        <ele>286.8</ele>
        <time>2025-09-11T13:44:02Z</time>
      </trkpt>
      <trkpt lat="45.95321" lon="4.657">
        <ele>286.8</ele>
        <time>2025-09-11T13:44:03Z</time>
      </trkpt>
      <trkpt lat="45.95319" lon="4.65705">
        <ele>286.8</ele>
        <time>2025-09-11T13:44:04Z</time>
      </trkpt>
      <trkpt lat="45.95317" lon="4.65711">
        <ele>287.4</ele>
        <time>2025-09-11T13:44:05Z</time>
      </trkpt>
      <trkpt lat="45.95314" lon="4.65716">
        <ele>287.4</ele>
        <time>2025-09-11T13:44:06Z</time>
      </trkpt>
      <trkpt lat="45.95312" lon="4.65722">
        <ele>286.6</ele>
        <time>2025-09-11T13:44:07Z</time>
      </trkpt>
      <trkpt lat="45.9531" lon="4.65727">
        <ele>286.6</ele>
        <time>2025-09-11T13:44:08Z</time>
      </trkpt>
      <trkpt lat="45.95308" lon="4.65733">
        <ele>286.6</ele>
        <time>2025-09-11T13:44:09Z</time>
      </trkpt>
      <trkpt lat="45.95305" lon="4.65739">
        <ele>286.2</ele>
        <time>2025-09-11T13:44:10Z</time>
      </trkpt>
      <trkpt lat="45.95303" lon="4.65744">
        <ele>286.2</ele>
        <time>2025-09-11T13:44:11Z</time>
      </trkpt>
      <trkpt lat="45.953" lon="4.6575">
        <ele>285.8</ele>
        <time>2025-09-11T13:44:12Z</time>
      </trkpt>
      <trkpt lat="45.95298" lon="4.65755">
        <ele>286.4</ele>
        <time>2025-09-11T13:44:13Z</time>
      </trkpt>
      <trkpt lat="45.95295" lon="4.6576">
        <ele>286.4</ele>
        <time>2025-09-11T13:44:14Z</time>
      </trkpt>
      <trkpt lat="45.95293" lon="4.65764">
        <ele>286.4</ele>
        <time>2025-09-11T13:44:15Z</time>
      </trkpt>
      <trkpt lat="45.95291" lon="4.65768">
        <ele>285.4</ele>
        <time>2025-09-11T13:44:16Z</time>
      </trkpt>
      <trkpt lat="45.95288" lon="4.65773">
        <ele>285.6</ele>
        <time>2025-09-11T13:44:17Z</time>
      </trkpt>
      <trkpt lat="45.95285" lon="4.65779">
        <ele>286</ele>
        <time>2025-09-11T13:44:18Z</time>
      </trkpt>
      <trkpt lat="45.95282" lon="4.65784">
        <ele>285.8</ele>
        <time>2025-09-11T13:44:19Z</time>
      </trkpt>
      <trkpt lat="45.95279" lon="4.65788">
        <ele>286.2</ele>
        <time>2025-09-11T13:44:20Z</time>
      </trkpt>
      <trkpt lat="45.95276" lon="4.65793">
        <ele>286.2</ele>
        <time>2025-09-11T13:44:21Z</time>
      </trkpt>
      <trkpt lat="45.95274" lon="4.65797">
        <ele>285.8</ele>
        <time>2025-09-11T13:44:22Z</time>
      </trkpt>
      <trkpt lat="45.9527" lon="4.65802">
        <ele>285.8</ele>
        <time>2025-09-11T13:44:23Z</time>
      </trkpt>
      <trkpt lat="45.95268" lon="4.65806">
        <ele>285.8</ele>
        <time>2025-09-11T13:44:24Z</time>
      </trkpt>
      <trkpt lat="45.95265" lon="4.6581">
        <ele>285.8</ele>
        <time>2025-09-11T13:44:25Z</time>
      </trkpt>
      <trkpt lat="45.95263" lon="4.65814">
        <ele>285.6</ele>
        <time>2025-09-11T13:44:26Z</time>
      </trkpt>
      <trkpt lat="45.95259" lon="4.65818">
        <ele>285.6</ele>
        <time>2025-09-11T13:44:27Z</time>
      </trkpt>
      <trkpt lat="45.95257" lon="4.65822">
        <ele>285.6</ele>
        <time>2025-09-11T13:44:28Z</time>
      </trkpt>
      <trkpt lat="45.95254" lon="4.65826">
        <ele>285.6</ele>
        <time>2025-09-11T13:44:29Z</time>
      </trkpt>
      <trkpt lat="45.95251" lon="4.6583">
        <ele>285.4</ele>
        <time>2025-09-11T13:44:30Z</time>
      </trkpt>
      <trkpt lat="45.95248" lon="4.65834">
        <ele>285.4</ele>
        <time>2025-09-11T13:44:31Z</time>
      </trkpt>
      <trkpt lat="45.95245" lon="4.65837">
        <ele>284.4</ele>
        <time>2025-09-11T13:44:32Z</time>
      </trkpt>
      <trkpt lat="45.95242" lon="4.65841">
        <ele>284</ele>
        <time>2025-09-11T13:44:33Z</time>
      </trkpt>
      <trkpt lat="45.9524" lon="4.65844">
        <ele>284.2</ele>
        <time>2025-09-11T13:44:34Z</time>
      </trkpt>
      <trkpt lat="45.95237" lon="4.65847">
        <ele>284.2</ele>
        <time>2025-09-11T13:44:35Z</time>
      </trkpt>
      <trkpt lat="45.95235" lon="4.6585">
        <ele>284</ele>
        <time>2025-09-11T13:44:36Z</time>
      </trkpt>
      <trkpt lat="45.95232" lon="4.65853">
        <ele>283.6</ele>
        <time>2025-09-11T13:44:37Z</time>
      </trkpt>
      <trkpt lat="45.95229" lon="4.65855">
        <ele>283.6</ele>
        <time>2025-09-11T13:44:38Z</time>
      </trkpt>
      <trkpt lat="45.95226" lon="4.65857">
        <ele>283.6</ele>
        <time>2025-09-11T13:44:39Z</time>
      </trkpt>
      <trkpt lat="45.95223" lon="4.65859">
        <ele>283.4</ele>
        <time>2025-09-11T13:44:40Z</time>
      </trkpt>
      <trkpt lat="45.9522" lon="4.6586">
        <ele>283.4</ele>
        <time>2025-09-11T13:44:41Z</time>
      </trkpt>
      <trkpt lat="45.95218" lon="4.65861">
        <ele>283.4</ele>
        <time>2025-09-11T13:44:42Z</time>
      </trkpt>
      <trkpt lat="45.95215" lon="4.65862">
        <ele>282</ele>
        <time>2025-09-11T13:44:43Z</time>
      </trkpt>
      <trkpt lat="45.95212" lon="4.65863">
        <ele>281.8</ele>
        <time>2025-09-11T13:44:44Z</time>
      </trkpt>
      <trkpt lat="45.9521" lon="4.65864">
        <ele>281.8</ele>
        <time>2025-09-11T13:44:45Z</time>
      </trkpt>
      <trkpt lat="45.95207" lon="4.65865">
        <ele>281.8</ele>
        <time>2025-09-11T13:44:46Z</time>
      </trkpt>
      <trkpt lat="45.95204" lon="4.65867">
        <ele>281.8</ele>
        <time>2025-09-11T13:44:47Z</time>
      </trkpt>
      <trkpt lat="45.95201" lon="4.65869">
        <ele>281.4</ele>
        <time>2025-09-11T13:44:48Z</time>
      </trkpt>
      <trkpt lat="45.95198" lon="4.6587">
        <ele>281</ele>
        <time>2025-09-11T13:44:49Z</time>
      </trkpt>
      <trkpt lat="45.95195" lon="4.65872">
        <ele>281</ele>
        <time>2025-09-11T13:44:50Z</time>
      </trkpt>
      <trkpt lat="45.95192" lon="4.65873">
        <ele>279.6</ele>
        <time>2025-09-11T13:44:51Z</time>
      </trkpt>
      <trkpt lat="45.95189" lon="4.65874">
        <ele>280</ele>
        <time>2025-09-11T13:44:52Z</time>
      </trkpt>
      <trkpt lat="45.95186" lon="4.65875">
        <ele>280</ele>
        <time>2025-09-11T13:44:53Z</time>
      </trkpt>
      <trkpt lat="45.95182" lon="4.65876">
        <ele>280</ele>
        <time>2025-09-11T13:44:54Z</time>
      </trkpt>
      <trkpt lat="45.95179" lon="4.65878">
        <ele>279.6</ele>
        <time>2025-09-11T13:44:55Z</time>
      </trkpt>
      <trkpt lat="45.95176" lon="4.65879">
        <ele>279.6</ele>
        <time>2025-09-11T13:44:56Z</time>
      </trkpt>
      <trkpt lat="45.95173" lon="4.6588">
        <ele>279</ele>
        <time>2025-09-11T13:44:57Z</time>
      </trkpt>
      <trkpt lat="45.9517" lon="4.65882">
        <ele>278.8</ele>
        <time>2025-09-11T13:44:58Z</time>
      </trkpt>
      <trkpt lat="45.95169" lon="4.65883">
        <ele>278.4</ele>
        <time>2025-09-11T13:44:59Z</time>
      </trkpt>
      <trkpt lat="45.95167" lon="4.65884">
        <ele>278.2</ele>
        <time>2025-09-11T13:45:00Z</time>
      </trkpt>
      <trkpt lat="45.95165" lon="4.65885">
        <ele>277.8</ele>
        <time>2025-09-11T13:45:01Z</time>
      </trkpt>
      <trkpt lat="45.95163" lon="4.65887">
        <ele>277.4</ele>
        <time>2025-09-11T13:45:02Z</time>
      </trkpt>
      <trkpt lat="45.9516" lon="4.65888">
        <ele>276.8</ele>
        <time>2025-09-11T13:45:03Z</time>
      </trkpt>
      <trkpt lat="45.95159" lon="4.65889">
        <ele>276.2</ele>
        <time>2025-09-11T13:45:04Z</time>
      </trkpt>
      <trkpt lat="45.95156" lon="4.65891">
        <ele>275.8</ele>
        <time>2025-09-11T13:45:05Z</time>
      </trkpt>
      <trkpt lat="45.95154" lon="4.65894">
        <ele>275.4</ele>
        <time>2025-09-11T13:45:06Z</time>
      </trkpt>
      <trkpt lat="45.95152" lon="4.65896">
        <ele>274.6</ele>
        <time>2025-09-11T13:45:07Z</time>
      </trkpt>
      <trkpt lat="45.9515" lon="4.65898">
        <ele>274.4</ele>
        <time>2025-09-11T13:45:08Z</time>
      </trkpt>
      <trkpt lat="45.95148" lon="4.65901">
        <ele>274</ele>
        <time>2025-09-11T13:45:09Z</time>
      </trkpt>
      <trkpt lat="45.95146" lon="4.65903">
        <ele>273.6</ele>
        <time>2025-09-11T13:45:10Z</time>
      </trkpt>
      <trkpt lat="45.95144" lon="4.65905">
        <ele>273</ele>
        <time>2025-09-11T13:45:11Z</time>
      </trkpt>
      <trkpt lat="45.95143" lon="4.65906">
        <ele>272.2</ele>
        <time>2025-09-11T13:45:12Z</time>
      </trkpt>
      <trkpt lat="45.95141" lon="4.65908">
        <ele>271.8</ele>
        <time>2025-09-11T13:45:13Z</time>
      </trkpt>
      <trkpt lat="45.9514" lon="4.65909">
        <ele>271.4</ele>
        <time>2025-09-11T13:45:14Z</time>
      </trkpt>
      <trkpt lat="45.95139" lon="4.6591">
        <ele>271</ele>
        <time>2025-09-11T13:45:15Z</time>
      </trkpt>
      <trkpt lat="45.95139" lon="4.65911">
        <ele>270.8</ele>
        <time>2025-09-11T13:45:16Z</time>
      </trkpt>
      <trkpt lat="45.95138" lon="4.65911">
        <ele>270.6</ele>
        <time>2025-09-11T13:45:17Z</time>
      </trkpt>
      <trkpt lat="45.95138" lon="4.65911">
        <ele>270.6</ele>
        <time>2025-09-11T13:45:18Z</time>
      </trkpt>
      <trkpt lat="45.95137" lon="4.65911">
        <ele>269.6</ele>
        <time>2025-09-11T13:45:33Z</time>
      </trkpt>
      <trkpt lat="45.95135" lon="4.65913">
        <ele>269.4</ele>
        <time>2025-09-11T13:45:34Z</time>
      </trkpt>
      <trkpt lat="45.95133" lon="4.65914">
        <ele>269.4</ele>
        <time>2025-09-11T13:45:35Z</time>
      </trkpt>
      <trkpt lat="45.95131" lon="4.65916">
        <ele>268.8</ele>
        <time>2025-09-11T13:45:36Z</time>
      </trkpt>
      <trkpt lat="45.95128" lon="4.65917">
        <ele>268.8</ele>
        <time>2025-09-11T13:45:37Z</time>
      </trkpt>
      <trkpt lat="45.95127" lon="4.65919">
        <ele>268.2</ele>
        <time>2025-09-11T13:45:38Z</time>
      </trkpt>
      <trkpt lat="45.95125" lon="4.65921">
        <ele>267.8</ele>
        <time>2025-09-11T13:45:39Z</time>
      </trkpt>
      <trkpt lat="45.95123" lon="4.65922">
        <ele>267.2</ele>
        <time>2025-09-11T13:45:40Z</time>
      </trkpt>
      <trkpt lat="45.95121" lon="4.65923">
        <ele>267</ele>
        <time>2025-09-11T13:45:41Z</time>
      </trkpt>
      <trkpt lat="45.95119" lon="4.65925">
        <ele>266.6</ele>
        <time>2025-09-11T13:45:42Z</time>
      </trkpt>
      <trkpt lat="45.95117" lon="4.65926">
        <ele>266.2</ele>
        <time>2025-09-11T13:45:43Z</time>
      </trkpt>
      <trkpt lat="45.95116" lon="4.65927">
        <ele>266.2</ele>
        <time>2025-09-11T13:45:44Z</time>
      </trkpt>
      <trkpt lat="45.95114" lon="4.65928">
        <ele>265.8</ele>
        <time>2025-09-11T13:45:45Z</time>
      </trkpt>
      <trkpt lat="45.95112" lon="4.65929">
        <ele>265.8</ele>
        <time>2025-09-11T13:45:46Z</time>
      </trkpt>
      <trkpt lat="45.9511" lon="4.65931">
        <ele>264.8</ele>
        <time>2025-09-11T13:45:47Z</time>
      </trkpt>
      <trkpt lat="45.95108" lon="4.65932">
        <ele>264.8</ele>
        <time>2025-09-11T13:45:48Z</time>
      </trkpt>
      <trkpt lat="45.95106" lon="4.65934">
        <ele>263.8</ele>
        <time>2025-09-11T13:45:49Z</time>
      </trkpt>
      <trkpt lat="45.95104" lon="4.65936">
        <ele>263.4</ele>
        <time>2025-09-11T13:45:50Z</time>
      </trkpt>
      <trkpt lat="45.95102" lon="4.65938">
        <ele>263.4</ele>
        <time>2025-09-11T13:45:51Z</time>
      </trkpt>
      <trkpt lat="45.951" lon="4.65939">
        <ele>263.4</ele>
        <time>2025-09-11T13:45:52Z</time>
      </trkpt>
      <trkpt lat="45.95098" lon="4.65941">
        <ele>262.8</ele>
        <time>2025-09-11T13:45:53Z</time>
      </trkpt>
      <trkpt lat="45.95097" lon="4.65943">
        <ele>262.8</ele>
        <time>2025-09-11T13:45:54Z</time>
      </trkpt>
      <trkpt lat="45.95095" lon="4.65944">
        <ele>262.2</ele>
        <time>2025-09-11T13:45:55Z</time>
      </trkpt>
      <trkpt lat="45.95093" lon="4.65946">
        <ele>261.6</ele>
        <time>2025-09-11T13:45:56Z</time>
      </trkpt>
      <trkpt lat="45.95092" lon="4.65948">
        <ele>261</ele>
        <time>2025-09-11T13:45:57Z</time>
      </trkpt>
      <trkpt lat="45.95091" lon="4.6595">
        <ele>260.8</ele>
        <time>2025-09-11T13:45:58Z</time>
      </trkpt>
      <trkpt lat="45.9509" lon="4.65952">
        <ele>260.4</ele>
        <time>2025-09-11T13:45:59Z</time>
      </trkpt>
      <trkpt lat="45.9509" lon="4.65954">
        <ele>260.4</ele>
        <time>2025-09-11T13:46:00Z</time>
      </trkpt>
      <trkpt lat="45.95088" lon="4.65956">
        <ele>259.8</ele>
        <time>2025-09-11T13:46:01Z</time>
      </trkpt>
      <trkpt lat="45.95087" lon="4.65959">
        <ele>259.2</ele>
        <time>2025-09-11T13:46:02Z</time>
      </trkpt>
      <trkpt lat="45.95085" lon="4.65961">
        <ele>259.2</ele>
        <time>2025-09-11T13:46:03Z</time>
      </trkpt>
      <trkpt lat="45.95083" lon="4.65964">
        <ele>258.6</ele>
        <time>2025-09-11T13:46:04Z</time>
      </trkpt>
      <trkpt lat="45.95082" lon="4.65967">
        <ele>258.2</ele>
        <time>2025-09-11T13:46:05Z</time>
      </trkpt>
      <trkpt lat="45.95081" lon="4.6597">
        <ele>257.8</ele>
        <time>2025-09-11T13:46:06Z</time>
      </trkpt>
      <trkpt lat="45.95079" lon="4.65973">
        <ele>257.4</ele>
        <time>2025-09-11T13:46:07Z</time>
      </trkpt>
      <trkpt lat="45.95078" lon="4.65976">
        <ele>257</ele>
        <time>2025-09-11T13:46:08Z</time>
      </trkpt>
      <trkpt lat="45.95077" lon="4.65977">
        <ele>256.6</ele>
        <time>2025-09-11T13:46:09Z</time>
      </trkpt>
      <trkpt lat="45.95076" lon="4.65979">
        <ele>256.4</ele>
        <time>2025-09-11T13:46:10Z</time>
      </trkpt>
      <trkpt lat="45.95074" lon="4.65982">
        <ele>255.8</ele>
        <time>2025-09-11T13:46:11Z</time>
      </trkpt>
      <trkpt lat="45.95072" lon="4.65984">
        <ele>255.4</ele>
        <time>2025-09-11T13:46:12Z</time>
      </trkpt>
      <trkpt lat="45.95071" lon="4.65987">
        <ele>254.8</ele>
        <time>2025-09-11T13:46:13Z</time>
      </trkpt>
      <trkpt lat="45.9507" lon="4.65989">
        <ele>254.2</ele>
        <time>2025-09-11T13:46:14Z</time>
      </trkpt>
      <trkpt lat="45.95069" lon="4.65992">
        <ele>254.2</ele>
        <time>2025-09-11T13:46:15Z</time>
      </trkpt>
      <trkpt lat="45.95068" lon="4.65995">
        <ele>253.6</ele>
        <time>2025-09-11T13:46:16Z</time>
      </trkpt>
      <trkpt lat="45.95067" lon="4.65998">
        <ele>253</ele>
        <time>2025-09-11T13:46:17Z</time>
      </trkpt>
      <trkpt lat="45.95066" lon="4.66001">
        <ele>252.6</ele>
        <time>2025-09-11T13:46:18Z</time>
      </trkpt>
      <trkpt lat="45.95065" lon="4.66004">
        <ele>252</ele>
        <time>2025-09-11T13:46:19Z</time>
      </trkpt>
      <trkpt lat="45.95064" lon="4.66006">
        <ele>252</ele>
        <time>2025-09-11T13:46:20Z</time>
      </trkpt>
      <trkpt lat="45.95063" lon="4.66009">
        <ele>252</ele>
        <time>2025-09-11T13:46:21Z</time>
      </trkpt>
      <trkpt lat="45.95061" lon="4.66011">
        <ele>252.2</ele>
        <time>2025-09-11T13:46:22Z</time>
      </trkpt>
      <trkpt lat="45.9506" lon="4.66014">
        <ele>252</ele>
        <time>2025-09-11T13:46:23Z</time>
      </trkpt>
      <trkpt lat="45.95059" lon="4.66016">
        <ele>251.4</ele>
        <time>2025-09-11T13:46:24Z</time>
      </trkpt>
      <trkpt lat="45.95057" lon="4.66019">
        <ele>251</ele>
        <time>2025-09-11T13:46:25Z</time>
      </trkpt>
      <trkpt lat="45.95055" lon="4.66022">
        <ele>250.4</ele>
        <time>2025-09-11T13:46:26Z</time>
      </trkpt>
      <trkpt lat="45.95053" lon="4.66024">
        <ele>250</ele>
        <time>2025-09-11T13:46:27Z</time>
      </trkpt>
      <trkpt lat="45.95051" lon="4.66027">
        <ele>249.4</ele>
        <time>2025-09-11T13:46:28Z</time>
      </trkpt>
      <trkpt lat="45.9505" lon="4.66029">
        <ele>249.4</ele>
        <time>2025-09-11T13:46:29Z</time>
      </trkpt>
      <trkpt lat="45.95048" lon="4.66031">
        <ele>248.8</ele>
        <time>2025-09-11T13:46:30Z</time>
      </trkpt>
      <trkpt lat="45.95046" lon="4.66033">
        <ele>248.6</ele>
        <time>2025-09-11T13:46:31Z</time>
      </trkpt>
      <trkpt lat="45.95044" lon="4.66036">
        <ele>248.6</ele>
        <time>2025-09-11T13:46:32Z</time>
      </trkpt>
      <trkpt lat="45.95042" lon="4.66038">
        <ele>248</ele>
        <time>2025-09-11T13:46:33Z</time>
      </trkpt>
      <trkpt lat="45.95041" lon="4.6604">
        <ele>248</ele>
        <time>2025-09-11T13:46:34Z</time>
      </trkpt>
      <trkpt lat="45.95039" lon="4.66042">
        <ele>247.6</ele>
        <time>2025-09-11T13:46:35Z</time>
      </trkpt>
      <trkpt lat="45.95038" lon="4.66044">
        <ele>247.6</ele>
        <time>2025-09-11T13:46:36Z</time>
      </trkpt>
      <trkpt lat="45.95036" lon="4.66046">
        <ele>247</ele>
        <time>2025-09-11T13:46:37Z</time>
      </trkpt>
      <trkpt lat="45.95034" lon="4.66047">
        <ele>246.6</ele>
        <time>2025-09-11T13:46:38Z</time>
      </trkpt>
      <trkpt lat="45.95033" lon="4.66048">
        <ele>246.8</ele>
        <time>2025-09-11T13:46:39Z</time>
      </trkpt>
      <trkpt lat="45.95032" lon="4.66048">
        <ele>246.4</ele>
        <time>2025-09-11T13:46:40Z</time>
      </trkpt>
      <trkpt lat="45.9503" lon="4.66049">
        <ele>246.2</ele>
        <time>2025-09-11T13:46:41Z</time>
      </trkpt>
      <trkpt lat="45.95028" lon="4.6605">
        <ele>245.8</ele>
        <time>2025-09-11T13:46:42Z</time>
      </trkpt>
      <trkpt lat="45.95027" lon="4.66051">
        <ele>245.6</ele>
        <time>2025-09-11T13:46:43Z</time>
      </trkpt>
      <trkpt lat="45.95023" lon="4.6606">
        <ele>245</ele>
        <time>2025-09-11T13:46:44Z</time>
      </trkpt>
      <trkpt lat="45.95021" lon="4.66063">
        <ele>244.4</ele>
        <time>2025-09-11T13:46:45Z</time>
      </trkpt>
      <trkpt lat="45.95017" lon="4.66067">
        <ele>244</ele>
        <time>2025-09-11T13:46:46Z</time>
      </trkpt>
      <trkpt lat="45.95013" lon="4.66076">
        <ele>243.4</ele>
        <time>2025-09-11T13:46:47Z</time>
      </trkpt>
      <trkpt lat="45.95011" lon="4.66081">
        <ele>243</ele>
        <time>2025-09-11T13:46:48Z</time>
      </trkpt>
      <trkpt lat="45.95009" lon="4.66087">
        <ele>242.4</ele>
        <time>2025-09-11T13:46:49Z</time>
      </trkpt>
      <trkpt lat="45.95009" lon="4.66094">
        <ele>241.8</ele>
        <time>2025-09-11T13:46:50Z</time>
      </trkpt>
      <trkpt lat="45.9501" lon="4.66101">
        <ele>241.4</ele>
        <time>2025-09-11T13:46:51Z</time>
      </trkpt>
      <trkpt lat="45.9501" lon="4.66107">
        <ele>241</ele>
        <time>2025-09-11T13:46:52Z</time>
      </trkpt>
      <trkpt lat="45.9501" lon="4.66113">
        <ele>240.6</ele>
        <time>2025-09-11T13:46:53Z</time>
      </trkpt>
      <trkpt lat="45.95011" lon="4.66118">
        <ele>240.2</ele>
        <time>2025-09-11T13:46:54Z</time>
      </trkpt>
      <trkpt lat="45.95011" lon="4.66124">
        <ele>239.6</ele>
        <time>2025-09-11T13:46:55Z</time>
      </trkpt>
      <trkpt lat="45.95011" lon="4.66124">
        <ele>239.2</ele>
        <time>2025-09-11T13:46:56Z</time>
      </trkpt>
      <trkpt lat="45.95008" lon="4.66129">
        <ele>238.8</ele>
        <time>2025-09-11T13:46:57Z</time>
      </trkpt>
      <trkpt lat="45.95004" lon="4.66133">
        <ele>238.2</ele>
        <time>2025-09-11T13:46:58Z</time>
      </trkpt>
      <trkpt lat="45.95004" lon="4.66133">
        <ele>238.2</ele>
        <time>2025-09-11T13:46:59Z</time>
      </trkpt>
      <trkpt lat="45.94995" lon="4.66137">
        <ele>238</ele>
        <time>2025-09-11T13:47:00Z</time>
      </trkpt>
      <trkpt lat="45.94991" lon="4.66138">
        <ele>237.8</ele>
        <time>2025-09-11T13:47:01Z</time>
      </trkpt>
      <trkpt lat="45.94987" lon="4.66141">
        <ele>237.8</ele>
        <time>2025-09-11T13:47:02Z</time>
      </trkpt>
      <trkpt lat="45.94983" lon="4.66144">
        <ele>237.4</ele>
        <time>2025-09-11T13:47:03Z</time>
      </trkpt>
      <trkpt lat="45.94979" lon="4.66149">
        <ele>237.4</ele>
        <time>2025-09-11T13:47:04Z</time>
      </trkpt>
      <trkpt lat="45.94975" lon="4.66153">
        <ele>237.2</ele>
        <time>2025-09-11T13:47:05Z</time>
      </trkpt>
      <trkpt lat="45.94971" lon="4.66159">
        <ele>237.2</ele>
        <time>2025-09-11T13:47:06Z</time>
      </trkpt>
      <trkpt lat="45.94966" lon="4.66163">
        <ele>237.2</ele>
        <time>2025-09-11T13:47:07Z</time>
      </trkpt>
      <trkpt lat="45.94961" lon="4.66166">
        <ele>237.2</ele>
        <time>2025-09-11T13:47:08Z</time>
      </trkpt>
      <trkpt lat="45.94956" lon="4.6617">
        <ele>237.2</ele>
        <time>2025-09-11T13:47:09Z</time>
      </trkpt>
      <trkpt lat="45.94951" lon="4.66173">
        <ele>237.2</ele>
        <time>2025-09-11T13:47:10Z</time>
      </trkpt>
      <trkpt lat="45.94946" lon="4.66176">
        <ele>237.4</ele>
        <time>2025-09-11T13:47:11Z</time>
      </trkpt>
      <trkpt lat="45.94941" lon="4.66178">
        <ele>237.4</ele>
        <time>2025-09-11T13:47:12Z</time>
      </trkpt>
      <trkpt lat="45.94936" lon="4.6618">
        <ele>237.8</ele>
        <time>2025-09-11T13:47:13Z</time>
      </trkpt>
      <trkpt lat="45.94932" lon="4.6618">
        <ele>238</ele>
        <time>2025-09-11T13:47:14Z</time>
      </trkpt>
      <trkpt lat="45.94927" lon="4.66182">
        <ele>238</ele>
        <time>2025-09-11T13:47:15Z</time>
      </trkpt>
      <trkpt lat="45.94923" lon="4.66182">
        <ele>238.2</ele>
        <time>2025-09-11T13:47:16Z</time>
      </trkpt>
      <trkpt lat="45.94919" lon="4.66182">
        <ele>238.2</ele>
        <time>2025-09-11T13:47:17Z</time>
      </trkpt>
      <trkpt lat="45.94916" lon="4.66182">
        <ele>238.6</ele>
        <time>2025-09-11T13:47:18Z</time>
      </trkpt>
      <trkpt lat="45.94913" lon="4.66183">
        <ele>238.6</ele>
        <time>2025-09-11T13:47:19Z</time>
      </trkpt>
      <trkpt lat="45.9491" lon="4.66184">
        <ele>238.8</ele>
        <time>2025-09-11T13:47:20Z</time>
      </trkpt>
      <trkpt lat="45.94907" lon="4.66184">
        <ele>239.2</ele>
        <time>2025-09-11T13:47:21Z</time>
      </trkpt>
      <trkpt lat="45.94905" lon="4.66185">
        <ele>239.4</ele>
        <time>2025-09-11T13:47:22Z</time>
      </trkpt>
      <trkpt lat="45.94903" lon="4.66187">
        <ele>239.4</ele>
        <time>2025-09-11T13:47:23Z</time>
      </trkpt>
      <trkpt lat="45.94901" lon="4.66189">
        <ele>239.8</ele>
        <time>2025-09-11T13:47:24Z</time>
      </trkpt>
      <trkpt lat="45.94899" lon="4.6619">
        <ele>240.2</ele>
        <time>2025-09-11T13:47:25Z</time>
      </trkpt>
      <trkpt lat="45.94897" lon="4.66192">
        <ele>240.4</ele>
        <time>2025-09-11T13:47:26Z</time>
      </trkpt>
      <trkpt lat="45.94896" lon="4.66193">
        <ele>240.4</ele>
        <time>2025-09-11T13:47:27Z</time>
      </trkpt>
      <trkpt lat="45.94894" lon="4.66195">
        <ele>240.8</ele>
        <time>2025-09-11T13:47:28Z</time>
      </trkpt>
      <trkpt lat="45.94893" lon="4.66196">
        <ele>240.8</ele>
        <time>2025-09-11T13:47:29Z</time>
      </trkpt>
      <trkpt lat="45.94892" lon="4.66197">
        <ele>241</ele>
        <time>2025-09-11T13:47:30Z</time>
      </trkpt>
      <trkpt lat="45.94892" lon="4.66199">
        <ele>241</ele>
        <time>2025-09-11T13:47:31Z</time>
      </trkpt>
      <trkpt lat="45.94892" lon="4.662">
        <ele>241</ele>
        <time>2025-09-11T13:47:32Z</time>
      </trkpt>
      <trkpt lat="45.94892" lon="4.662">
        <ele>241</ele>
        <time>2025-09-11T13:47:33Z</time>
      </trkpt>
      <trkpt lat="45.94893" lon="4.66201">
        <ele>241.4</ele>
        <time>2025-09-11T13:47:46Z</time>
      </trkpt>
      <trkpt lat="45.94892" lon="4.66204">
        <ele>241.4</ele>
        <time>2025-09-11T13:47:47Z</time>
      </trkpt>
      <trkpt lat="45.94891" lon="4.66208">
        <ele>241.4</ele>
        <time>2025-09-11T13:47:48Z</time>
      </trkpt>
      <trkpt lat="45.94891" lon="4.66212">
        <ele>241.4</ele>
        <time>2025-09-11T13:47:49Z</time>
      </trkpt>
      <trkpt lat="45.94891" lon="4.66216">
        <ele>241</ele>
        <time>2025-09-11T13:47:50Z</time>
      </trkpt>
      <trkpt lat="45.9489" lon="4.66223">
        <ele>241</ele>
        <time>2025-09-11T13:47:51Z</time>
      </trkpt>
      <trkpt lat="45.94888" lon="4.66228">
        <ele>241</ele>
        <time>2025-09-11T13:47:52Z</time>
      </trkpt>
      <trkpt lat="45.94884" lon="4.66231">
        <ele>240.6</ele>
        <time>2025-09-11T13:47:53Z</time>
      </trkpt>
      <trkpt lat="45.9488" lon="4.66234">
        <ele>240.4</ele>
        <time>2025-09-11T13:47:54Z</time>
      </trkpt>
      <trkpt lat="45.94876" lon="4.66237">
        <ele>240</ele>
        <time>2025-09-11T13:47:55Z</time>
      </trkpt>
      <trkpt lat="45.94868" lon="4.66241">
        <ele>240</ele>
        <time>2025-09-11T13:47:56Z</time>
      </trkpt>
      <trkpt lat="45.94865" lon="4.66244">
        <ele>240</ele>
        <time>2025-09-11T13:47:57Z</time>
      </trkpt>
      <trkpt lat="45.94862" lon="4.66248">
        <ele>240</ele>
        <time>2025-09-11T13:47:58Z</time>
      </trkpt>
      <trkpt lat="45.9486" lon="4.6625">
        <ele>240</ele>
        <time>2025-09-11T13:47:59Z</time>
      </trkpt>
      <trkpt lat="45.94856" lon="4.66255">
        <ele>240.4</ele>
        <time>2025-09-11T13:48:00Z</time>
      </trkpt>
      <trkpt lat="45.94853" lon="4.66259">
        <ele>240</ele>
        <time>2025-09-11T13:48:01Z</time>
      </trkpt>
      <trkpt lat="45.94849" lon="4.66263">
        <ele>239.8</ele>
        <time>2025-09-11T13:48:02Z</time>
      </trkpt>
      <trkpt lat="45.94846" lon="4.66266">
        <ele>240</ele>
        <time>2025-09-11T13:48:03Z</time>
      </trkpt>
      <trkpt lat="45.94843" lon="4.6627">
        <ele>240</ele>
        <time>2025-09-11T13:48:04Z</time>
      </trkpt>
      <trkpt lat="45.94841" lon="4.66274">
        <ele>240</ele>
        <time>2025-09-11T13:48:05Z</time>
      </trkpt>
      <trkpt lat="45.94838" lon="4.66279">
        <ele>240.2</ele>
        <time>2025-09-11T13:48:06Z</time>
      </trkpt>
      <trkpt lat="45.94837" lon="4.66284">
        <ele>240.6</ele>
        <time>2025-09-11T13:48:07Z</time>
      </trkpt>
      <trkpt lat="45.94835" lon="4.66288">
        <ele>240.8</ele>
        <time>2025-09-11T13:48:08Z</time>
      </trkpt>
      <trkpt lat="45.94834" lon="4.66293">
        <ele>241.2</ele>
        <time>2025-09-11T13:48:09Z</time>
      </trkpt>
      <trkpt lat="45.94833" lon="4.66298">
        <ele>241.2</ele>
        <time>2025-09-11T13:48:10Z</time>
      </trkpt>
      <trkpt lat="45.94833" lon="4.66303">
        <ele>241.2</ele>
        <time>2025-09-11T13:48:11Z</time>
      </trkpt>
      <trkpt lat="45.94832" lon="4.66307">
        <ele>241.4</ele>
        <time>2025-09-11T13:48:12Z</time>
      </trkpt>
      <trkpt lat="45.94832" lon="4.66311">
        <ele>241.4</ele>
        <time>2025-09-11T13:48:13Z</time>
      </trkpt>
      <trkpt lat="45.94832" lon="4.66315">
        <ele>240.8</ele>
        <time>2025-09-11T13:48:14Z</time>
      </trkpt>
      <trkpt lat="45.94832" lon="4.66318">
        <ele>241.2</ele>
        <time>2025-09-11T13:48:15Z</time>
      </trkpt>
      <trkpt lat="45.94832" lon="4.66321">
        <ele>242</ele>
        <time>2025-09-11T13:48:16Z</time>
      </trkpt>
      <trkpt lat="45.94832" lon="4.66324">
        <ele>241.6</ele>
        <time>2025-09-11T13:48:17Z</time>
      </trkpt>
      <trkpt lat="45.94832" lon="4.66327">
        <ele>242.4</ele>
        <time>2025-09-11T13:48:18Z</time>
      </trkpt>
      <trkpt lat="45.94832" lon="4.66329">
        <ele>243</ele>
        <time>2025-09-11T13:48:19Z</time>
      </trkpt>
      <trkpt lat="45.94832" lon="4.66331">
        <ele>243.2</ele>
        <time>2025-09-11T13:48:20Z</time>
      </trkpt>
      <trkpt lat="45.94832" lon="4.66334">
        <ele>243.4</ele>
        <time>2025-09-11T13:48:21Z</time>
      </trkpt>
      <trkpt lat="45.94833" lon="4.66336">
        <ele>243.4</ele>
        <time>2025-09-11T13:48:22Z</time>
      </trkpt>
      <trkpt lat="45.94833" lon="4.66338">
        <ele>243.4</ele>
        <time>2025-09-11T13:48:23Z</time>
      </trkpt>
      <trkpt lat="45.94833" lon="4.66338">
        <ele>243.8</ele>
        <time>2025-09-11T13:48:24Z</time>
      </trkpt>
      <trkpt lat="45.94833" lon="4.6634">
        <ele>243.8</ele>
        <time>2025-09-11T13:48:25Z</time>
      </trkpt>
      <trkpt lat="45.94833" lon="4.66342">
        <ele>244</ele>
        <time>2025-09-11T13:48:26Z</time>
      </trkpt>
      <trkpt lat="45.94833" lon="4.66344">
        <ele>244</ele>
        <time>2025-09-11T13:48:27Z</time>
      </trkpt>
      <trkpt lat="45.94833" lon="4.66346">
        <ele>244.4</ele>
        <time>2025-09-11T13:48:28Z</time>
      </trkpt>
      <trkpt lat="45.94833" lon="4.66348">
        <ele>244.4</ele>
        <time>2025-09-11T13:48:29Z</time>
      </trkpt>
      <trkpt lat="45.94833" lon="4.6635">
        <ele>244.4</ele>
        <time>2025-09-11T13:48:30Z</time>
      </trkpt>
      <trkpt lat="45.94834" lon="4.66352">
        <ele>244.4</ele>
        <time>2025-09-11T13:48:31Z</time>
      </trkpt>
      <trkpt lat="45.94834" lon="4.66355">
        <ele>244.4</ele>
        <time>2025-09-11T13:48:32Z</time>
      </trkpt>
      <trkpt lat="45.94834" lon="4.66357">
        <ele>244.8</ele>
        <time>2025-09-11T13:48:33Z</time>
      </trkpt>
      <trkpt lat="45.94835" lon="4.66359">
        <ele>245</ele>
        <time>2025-09-11T13:48:34Z</time>
      </trkpt>
      <trkpt lat="45.94835" lon="4.66361">
        <ele>245.2</ele>
        <time>2025-09-11T13:48:35Z</time>
      </trkpt>
      <trkpt lat="45.94836" lon="4.66363">
        <ele>245.2</ele>
        <time>2025-09-11T13:48:36Z</time>
      </trkpt>
      <trkpt lat="45.94836" lon="4.66365">
        <ele>245.2</ele>
        <time>2025-09-11T13:48:37Z</time>
      </trkpt>
      <trkpt lat="45.94837" lon="4.66367">
        <ele>245.6</ele>
        <time>2025-09-11T13:48:38Z</time>
      </trkpt>
      <trkpt lat="45.94837" lon="4.66368">
        <ele>245.6</ele>
        <time>2025-09-11T13:48:39Z</time>
      </trkpt>
      <trkpt lat="45.94838" lon="4.66371">
        <ele>245.6</ele>
        <time>2025-09-11T13:48:40Z</time>
      </trkpt>
      <trkpt lat="45.94839" lon="4.66373">
        <ele>245.6</ele>
        <time>2025-09-11T13:48:41Z</time>
      </trkpt>
      <trkpt lat="45.94839" lon="4.66375">
        <ele>246</ele>
        <time>2025-09-11T13:48:42Z</time>
      </trkpt>
      <trkpt lat="45.94839" lon="4.66376">
        <ele>246</ele>
        <time>2025-09-11T13:48:43Z</time>
      </trkpt>
      <trkpt lat="45.94839" lon="4.66377">
        <ele>246.2</ele>
        <time>2025-09-11T13:48:44Z</time>
      </trkpt>
      <trkpt lat="45.94839" lon="4.66376">
        <ele>246.2</ele>
        <time>2025-09-11T13:48:45Z</time>
      </trkpt>
      <trkpt lat="45.94841" lon="4.66374">
        <ele>246.8</ele>
        <time>2025-09-11T13:53:02Z</time>
      </trkpt>
      <trkpt lat="45.94842" lon="4.66376">
        <ele>246.8</ele>
        <time>2025-09-11T13:53:03Z</time>
      </trkpt>
      <trkpt lat="45.94843" lon="4.66378">
        <ele>246.8</ele>
        <time>2025-09-11T13:53:04Z</time>
      </trkpt>
      <trkpt lat="45.94844" lon="4.6638">
        <ele>246.8</ele>
        <time>2025-09-11T13:53:05Z</time>
      </trkpt>
      <trkpt lat="45.94846" lon="4.66383">
        <ele>247.2</ele>
        <time>2025-09-11T13:53:06Z</time>
      </trkpt>
      <trkpt lat="45.94847" lon="4.66385">
        <ele>247.2</ele>
        <time>2025-09-11T13:53:07Z</time>
      </trkpt>
      <trkpt lat="45.94848" lon="4.66387">
        <ele>247.4</ele>
        <time>2025-09-11T13:53:08Z</time>
      </trkpt>
      <trkpt lat="45.94849" lon="4.66389">
        <ele>247.4</ele>
        <time>2025-09-11T13:53:09Z</time>
      </trkpt>
      <trkpt lat="45.9485" lon="4.66392">
        <ele>247.8</ele>
        <time>2025-09-11T13:53:10Z</time>
      </trkpt>
      <trkpt lat="45.94852" lon="4.66394">
        <ele>248.2</ele>
        <time>2025-09-11T13:53:11Z</time>
      </trkpt>
      <trkpt lat="45.94853" lon="4.66396">
        <ele>248.2</ele>
        <time>2025-09-11T13:53:12Z</time>
      </trkpt>
      <trkpt lat="45.94855" lon="4.66398">
        <ele>248.4</ele>
        <time>2025-09-11T13:53:13Z</time>
      </trkpt>
      <trkpt lat="45.94856" lon="4.66401">
        <ele>248.4</ele>
        <time>2025-09-11T13:53:14Z</time>
      </trkpt>
      <trkpt lat="45.94857" lon="4.66403">
        <ele>248.6</ele>
        <time>2025-09-11T13:53:15Z</time>
      </trkpt>
      <trkpt lat="45.94859" lon="4.66406">
        <ele>248.6</ele>
        <time>2025-09-11T13:53:16Z</time>
      </trkpt>
      <trkpt lat="45.9486" lon="4.66409">
        <ele>249</ele>
        <time>2025-09-11T13:53:17Z</time>
      </trkpt>
      <trkpt lat="45.94862" lon="4.66411">
        <ele>249.2</ele>
        <time>2025-09-11T13:53:18Z</time>
      </trkpt>
      <trkpt lat="45.94863" lon="4.66413">
        <ele>249.2</ele>
        <time>2025-09-11T13:53:19Z</time>
      </trkpt>
      <trkpt lat="45.94865" lon="4.66416">
        <ele>249.4</ele>
        <time>2025-09-11T13:53:20Z</time>
      </trkpt>
      <trkpt lat="45.94866" lon="4.66418">
        <ele>249.4</ele>
        <time>2025-09-11T13:53:21Z</time>
      </trkpt>
      <trkpt lat="45.94867" lon="4.6642">
        <ele>249.8</ele>
        <time>2025-09-11T13:53:22Z</time>
      </trkpt>
      <trkpt lat="45.94868" lon="4.66423">
        <ele>249.8</ele>
        <time>2025-09-11T13:53:23Z</time>
      </trkpt>
      <trkpt lat="45.94869" lon="4.66425">
        <ele>249.8</ele>
        <time>2025-09-11T13:53:24Z</time>
      </trkpt>
      <trkpt lat="45.9487" lon="4.66428">
        <ele>250</ele>
        <time>2025-09-11T13:53:25Z</time>
      </trkpt>
      <trkpt lat="45.94871" lon="4.66431">
        <ele>250</ele>
        <time>2025-09-11T13:53:26Z</time>
      </trkpt>
      <trkpt lat="45.94871" lon="4.66433">
        <ele>250.2</ele>
        <time>2025-09-11T13:53:27Z</time>
      </trkpt>
      <trkpt lat="45.94872" lon="4.66436">
        <ele>250.2</ele>
        <time>2025-09-11T13:53:28Z</time>
      </trkpt>
      <trkpt lat="45.94872" lon="4.66439">
        <ele>250.6</ele>
        <time>2025-09-11T13:53:29Z</time>
      </trkpt>
      <trkpt lat="45.94873" lon="4.66442">
        <ele>250.6</ele>
        <time>2025-09-11T13:53:30Z</time>
      </trkpt>
      <trkpt lat="45.94874" lon="4.66444">
        <ele>250.8</ele>
        <time>2025-09-11T13:53:31Z</time>
      </trkpt>
      <trkpt lat="45.94874" lon="4.66446">
        <ele>250.8</ele>
        <time>2025-09-11T13:53:32Z</time>
      </trkpt>
      <trkpt lat="45.94875" lon="4.66449">
        <ele>251.2</ele>
        <time>2025-09-11T13:53:33Z</time>
      </trkpt>
      <trkpt lat="45.94876" lon="4.66451">
        <ele>251.2</ele>
        <time>2025-09-11T13:53:34Z</time>
      </trkpt>
      <trkpt lat="45.94876" lon="4.66453">
        <ele>251.2</ele>
        <time>2025-09-11T13:53:35Z</time>
      </trkpt>
      <trkpt lat="45.94877" lon="4.66456">
        <ele>251.4</ele>
        <time>2025-09-11T13:53:36Z</time>
      </trkpt>
      <trkpt lat="45.94878" lon="4.66458">
        <ele>251.4</ele>
        <time>2025-09-11T13:53:37Z</time>
      </trkpt>
      <trkpt lat="45.94878" lon="4.66461">
        <ele>251.8</ele>
        <time>2025-09-11T13:53:38Z</time>
      </trkpt>
      <trkpt lat="45.94879" lon="4.66463">
        <ele>251.8</ele>
        <time>2025-09-11T13:53:39Z</time>
      </trkpt>
      <trkpt lat="45.94879" lon="4.66465">
        <ele>252</ele>
        <time>2025-09-11T13:53:40Z</time>
      </trkpt>
      <trkpt lat="45.9488" lon="4.66467">
        <ele>252</ele>
        <time>2025-09-11T13:53:41Z</time>
      </trkpt>
      <trkpt lat="45.9488" lon="4.66469">
        <ele>252.4</ele>
        <time>2025-09-11T13:53:42Z</time>
      </trkpt>
      <trkpt lat="45.9488" lon="4.66471">
        <ele>252.4</ele>
        <time>2025-09-11T13:53:43Z</time>
      </trkpt>
      <trkpt lat="45.94881" lon="4.66474">
        <ele>252.8</ele>
        <time>2025-09-11T13:53:44Z</time>
      </trkpt>
      <trkpt lat="45.94881" lon="4.66477">
        <ele>252</ele>
        <time>2025-09-11T13:53:45Z</time>
      </trkpt>
      <trkpt lat="45.94881" lon="4.66479">
        <ele>252.6</ele>
        <time>2025-09-11T13:53:46Z</time>
      </trkpt>
      <trkpt lat="45.94881" lon="4.66482">
        <ele>253</ele>
        <time>2025-09-11T13:53:47Z</time>
      </trkpt>
      <trkpt lat="45.94881" lon="4.66484">
        <ele>253</ele>
        <time>2025-09-11T13:53:48Z</time>
      </trkpt>
      <trkpt lat="45.94881" lon="4.66486">
        <ele>253</ele>
        <time>2025-09-11T13:53:49Z</time>
      </trkpt>
      <trkpt lat="45.94882" lon="4.66488">
        <ele>253</ele>
        <time>2025-09-11T13:53:50Z</time>
      </trkpt>
      <trkpt lat="45.94882" lon="4.6649">
        <ele>253.6</ele>
        <time>2025-09-11T13:53:51Z</time>
      </trkpt>
      <trkpt lat="45.94882" lon="4.66492">
        <ele>253.6</ele>
        <time>2025-09-11T13:53:52Z</time>
      </trkpt>
      <trkpt lat="45.94883" lon="4.66495">
        <ele>253.8</ele>
        <time>2025-09-11T13:53:53Z</time>
      </trkpt>
      <trkpt lat="45.94883" lon="4.66497">
        <ele>253.8</ele>
        <time>2025-09-11T13:53:54Z</time>
      </trkpt>
      <trkpt lat="45.94883" lon="4.66499">
        <ele>253.8</ele>
        <time>2025-09-11T13:53:55Z</time>
      </trkpt>
      <trkpt lat="45.94882" lon="4.66501">
        <ele>254.2</ele>
        <time>2025-09-11T13:53:56Z</time>
      </trkpt>
      <trkpt lat="45.94882" lon="4.66504">
        <ele>254.2</ele>
        <time>2025-09-11T13:53:57Z</time>
      </trkpt>
      <trkpt lat="45.94882" lon="4.66506">
        <ele>254.2</ele>
        <time>2025-09-11T13:53:58Z</time>
      </trkpt>
      <trkpt lat="45.94882" lon="4.66509">
        <ele>254.6</ele>
        <time>2025-09-11T13:53:59Z</time>
      </trkpt>
      <trkpt lat="45.94882" lon="4.66511">
        <ele>254.6</ele>
        <time>2025-09-11T13:54:00Z</time>
      </trkpt>
      <trkpt lat="45.94881" lon="4.66513">
        <ele>254.8</ele>
        <time>2025-09-11T13:54:01Z</time>
      </trkpt>
      <trkpt lat="45.94881" lon="4.66516">
        <ele>255.2</ele>
        <time>2025-09-11T13:54:02Z</time>
      </trkpt>
      <trkpt lat="45.94881" lon="4.66518">
        <ele>255.4</ele>
        <time>2025-09-11T13:54:03Z</time>
      </trkpt>
      <trkpt lat="45.94881" lon="4.66521">
        <ele>255.4</ele>
        <time>2025-09-11T13:54:04Z</time>
      </trkpt>
      <trkpt lat="45.94881" lon="4.66523">
        <ele>255.8</ele>
        <time>2025-09-11T13:54:05Z</time>
      </trkpt>
      <trkpt lat="45.94881" lon="4.66525">
        <ele>255.8</ele>
        <time>2025-09-11T13:54:06Z</time>
      </trkpt>
      <trkpt lat="45.94881" lon="4.66527">
        <ele>256</ele>
        <time>2025-09-11T13:54:07Z</time>
      </trkpt>
      <trkpt lat="45.94881" lon="4.6653">
        <ele>256</ele>
        <time>2025-09-11T13:54:08Z</time>
      </trkpt>
      <trkpt lat="45.94881" lon="4.66532">
        <ele>256.4</ele>
        <time>2025-09-11T13:54:09Z</time>
      </trkpt>
      <trkpt lat="45.9488" lon="4.66534">
        <ele>256.4</ele>
        <time>2025-09-11T13:54:10Z</time>
      </trkpt>
      <trkpt lat="45.9488" lon="4.66536">
        <ele>257</ele>
        <time>2025-09-11T13:54:11Z</time>
      </trkpt>
      <trkpt lat="45.9488" lon="4.66538">
        <ele>257</ele>
        <time>2025-09-11T13:54:12Z</time>
      </trkpt>
      <trkpt lat="45.94879" lon="4.66539">
        <ele>257</ele>
        <time>2025-09-11T13:54:13Z</time>
      </trkpt>
      <trkpt lat="45.94879" lon="4.66542">
        <ele>257</ele>
        <time>2025-09-11T13:54:14Z</time>
      </trkpt>
      <trkpt lat="45.94878" lon="4.66544">
        <ele>257.2</ele>
        <time>2025-09-11T13:54:15Z</time>
      </trkpt>
      <trkpt lat="45.94877" lon="4.66546">
        <ele>257.2</ele>
        <time>2025-09-11T13:54:16Z</time>
      </trkpt>
      <trkpt lat="45.94876" lon="4.66548">
        <ele>257.2</ele>
        <time>2025-09-11T13:54:17Z</time>
      </trkpt>
      <trkpt lat="45.94875" lon="4.6655">
        <ele>257.2</ele>
        <time>2025-09-11T13:54:18Z</time>
      </trkpt>
      <trkpt lat="45.94875" lon="4.66552">
        <ele>257.4</ele>
        <time>2025-09-11T13:54:19Z</time>
      </trkpt>
      <trkpt lat="45.94874" lon="4.66555">
        <ele>257.4</ele>
        <time>2025-09-11T13:54:20Z</time>
      </trkpt>
      <trkpt lat="45.94874" lon="4.66557">
        <ele>257.6</ele>
        <time>2025-09-11T13:54:21Z</time>
      </trkpt>
      <trkpt lat="45.94873" lon="4.66559">
        <ele>257.6</ele>
        <time>2025-09-11T13:54:22Z</time>
      </trkpt>
      <trkpt lat="45.94872" lon="4.66561">
        <ele>258</ele>
        <time>2025-09-11T13:54:23Z</time>
      </trkpt>
      <trkpt lat="45.94871" lon="4.66563">
        <ele>258</ele>
        <time>2025-09-11T13:54:24Z</time>
      </trkpt>
      <trkpt lat="45.9487" lon="4.66566">
        <ele>258</ele>
        <time>2025-09-11T13:54:25Z</time>
      </trkpt>
      <trkpt lat="45.94869" lon="4.66568">
        <ele>258.2</ele>
        <time>2025-09-11T13:54:26Z</time>
      </trkpt>
      <trkpt lat="45.94869" lon="4.6657">
        <ele>258.2</ele>
        <time>2025-09-11T13:54:27Z</time>
      </trkpt>
      <trkpt lat="45.94868" lon="4.66572">
        <ele>258.2</ele>
        <time>2025-09-11T13:54:28Z</time>
      </trkpt>
      <trkpt lat="45.94868" lon="4.66574">
        <ele>258.4</ele>
        <time>2025-09-11T13:54:29Z</time>
      </trkpt>
      <trkpt lat="45.94867" lon="4.66576">
        <ele>258.4</ele>
        <time>2025-09-11T13:54:30Z</time>
      </trkpt>
      <trkpt lat="45.94866" lon="4.66578">
        <ele>258.6</ele>
        <time>2025-09-11T13:54:31Z</time>
      </trkpt>
      <trkpt lat="45.94865" lon="4.66581">
        <ele>258.6</ele>
        <time>2025-09-11T13:54:32Z</time>
      </trkpt>
      <trkpt lat="45.94864" lon="4.66583">
        <ele>259</ele>
        <time>2025-09-11T13:54:33Z</time>
      </trkpt>
      <trkpt lat="45.94864" lon="4.66586">
        <ele>259</ele>
        <time>2025-09-11T13:54:34Z</time>
      </trkpt>
      <trkpt lat="45.94863" lon="4.66588">
        <ele>259.2</ele>
        <time>2025-09-11T13:54:35Z</time>
      </trkpt>
      <trkpt lat="45.94862" lon="4.6659">
        <ele>259.2</ele>
        <time>2025-09-11T13:54:36Z</time>
      </trkpt>
      <trkpt lat="45.94861" lon="4.66592">
        <ele>259.4</ele>
        <time>2025-09-11T13:54:37Z</time>
      </trkpt>
      <trkpt lat="45.9486" lon="4.66594">
        <ele>259.8</ele>
        <time>2025-09-11T13:54:38Z</time>
      </trkpt>
      <trkpt lat="45.94859" lon="4.66596">
        <ele>259.8</ele>
        <time>2025-09-11T13:54:39Z</time>
      </trkpt>
      <trkpt lat="45.94858" lon="4.66598">
        <ele>260</ele>
        <time>2025-09-11T13:54:40Z</time>
      </trkpt>
      <trkpt lat="45.94857" lon="4.66601">
        <ele>260</ele>
        <time>2025-09-11T13:54:41Z</time>
      </trkpt>
      <trkpt lat="45.94856" lon="4.66603">
        <ele>260</ele>
        <time>2025-09-11T13:54:42Z</time>
      </trkpt>
      <trkpt lat="45.94855" lon="4.66605">
        <ele>260</ele>
        <time>2025-09-11T13:54:43Z</time>
      </trkpt>
      <trkpt lat="45.94854" lon="4.66607">
        <ele>260.4</ele>
        <time>2025-09-11T13:54:44Z</time>
      </trkpt>
      <trkpt lat="45.94853" lon="4.66609">
        <ele>260.4</ele>
        <time>2025-09-11T13:54:45Z</time>
      </trkpt>
      <trkpt lat="45.94853" lon="4.66611">
        <ele>260.4</ele>
        <time>2025-09-11T13:54:46Z</time>
      </trkpt>
      <trkpt lat="45.94852" lon="4.66613">
        <ele>260.8</ele>
        <time>2025-09-11T13:54:47Z</time>
      </trkpt>
      <trkpt lat="45.94851" lon="4.66616">
        <ele>260.8</ele>
        <time>2025-09-11T13:54:48Z</time>
      </trkpt>
      <trkpt lat="45.9485" lon="4.66618">
        <ele>261</ele>
        <time>2025-09-11T13:54:49Z</time>
      </trkpt>
      <trkpt lat="45.94849" lon="4.6662">
        <ele>261</ele>
        <time>2025-09-11T13:54:50Z</time>
      </trkpt>
      <trkpt lat="45.94848" lon="4.66622">
        <ele>261.4</ele>
        <time>2025-09-11T13:54:51Z</time>
      </trkpt>
      <trkpt lat="45.94847" lon="4.66624">
        <ele>261.4</ele>
        <time>2025-09-11T13:54:52Z</time>
      </trkpt>
      <trkpt lat="45.94846" lon="4.66626">
        <ele>261.8</ele>
        <time>2025-09-11T13:54:53Z</time>
      </trkpt>
      <trkpt lat="45.94845" lon="4.66628">
        <ele>262</ele>
        <time>2025-09-11T13:54:54Z</time>
      </trkpt>
      <trkpt lat="45.94844" lon="4.6663">
        <ele>262</ele>
        <time>2025-09-11T13:54:55Z</time>
      </trkpt>
      <trkpt lat="45.94843" lon="4.66632">
        <ele>262.2</ele>
        <time>2025-09-11T13:54:56Z</time>
      </trkpt>
      <trkpt lat="45.94842" lon="4.66634">
        <ele>262.2</ele>
        <time>2025-09-11T13:54:57Z</time>
      </trkpt>
      <trkpt lat="45.94841" lon="4.66636">
        <ele>262.2</ele>
        <time>2025-09-11T13:54:58Z</time>
      </trkpt>
      <trkpt lat="45.9484" lon="4.66638">
        <ele>262.6</ele>
        <time>2025-09-11T13:54:59Z</time>
      </trkpt>
      <trkpt lat="45.9484" lon="4.6664">
        <ele>262.6</ele>
        <time>2025-09-11T13:55:00Z</time>
      </trkpt>
      <trkpt lat="45.94839" lon="4.66642">
        <ele>263</ele>
        <time>2025-09-11T13:55:01Z</time>
      </trkpt>
      <trkpt lat="45.94837" lon="4.66645">
        <ele>263</ele>
        <time>2025-09-11T13:55:02Z</time>
      </trkpt>
      <trkpt lat="45.94836" lon="4.66647">
        <ele>263.4</ele>
        <time>2025-09-11T13:55:03Z</time>
      </trkpt>
      <trkpt lat="45.94835" lon="4.66649">
        <ele>263.4</ele>
        <time>2025-09-11T13:55:04Z</time>
      </trkpt>
      <trkpt lat="45.94835" lon="4.66651">
        <ele>263.8</ele>
        <time>2025-09-11T13:55:05Z</time>
      </trkpt>
      <trkpt lat="45.94834" lon="4.66653">
        <ele>263.8</ele>
        <time>2025-09-11T13:55:06Z</time>
      </trkpt>
      <trkpt lat="45.94834" lon="4.66655">
        <ele>264</ele>
        <time>2025-09-11T13:55:07Z</time>
      </trkpt>
      <trkpt lat="45.94833" lon="4.66657">
        <ele>264</ele>
        <time>2025-09-11T13:55:08Z</time>
      </trkpt>
      <trkpt lat="45.94832" lon="4.66659">
        <ele>264.4</ele>
        <time>2025-09-11T13:55:09Z</time>
      </trkpt>
      <trkpt lat="45.94832" lon="4.66661">
        <ele>264.4</ele>
        <time>2025-09-11T13:55:10Z</time>
      </trkpt>
      <trkpt lat="45.94831" lon="4.66663">
        <ele>264.6</ele>
        <time>2025-09-11T13:55:11Z</time>
      </trkpt>
      <trkpt lat="45.94831" lon="4.66665">
        <ele>264.6</ele>
        <time>2025-09-11T13:55:12Z</time>
      </trkpt>
      <trkpt lat="45.9483" lon="4.66667">
        <ele>265</ele>
        <time>2025-09-11T13:55:13Z</time>
      </trkpt>
      <trkpt lat="45.9483" lon="4.66669">
        <ele>265</ele>
        <time>2025-09-11T13:55:14Z</time>
      </trkpt>
      <trkpt lat="45.94829" lon="4.66672">
        <ele>265.2</ele>
        <time>2025-09-11T13:55:15Z</time>
      </trkpt>
      <trkpt lat="45.94829" lon="4.66674">
        <ele>265.2</ele>
        <time>2025-09-11T13:55:16Z</time>
      </trkpt>
      <trkpt lat="45.94828" lon="4.66676">
        <ele>265.4</ele>
        <time>2025-09-11T13:55:17Z</time>
      </trkpt>
      <trkpt lat="45.94828" lon="4.66678">
        <ele>265.4</ele>
        <time>2025-09-11T13:55:18Z</time>
      </trkpt>
      <trkpt lat="45.94827" lon="4.6668">
        <ele>265.8</ele>
        <time>2025-09-11T13:55:19Z</time>
      </trkpt>
      <trkpt lat="45.94826" lon="4.66682">
        <ele>265.8</ele>
        <time>2025-09-11T13:55:20Z</time>
      </trkpt>
      <trkpt lat="45.94826" lon="4.66684">
        <ele>266</ele>
        <time>2025-09-11T13:55:21Z</time>
      </trkpt>
      <trkpt lat="45.94825" lon="4.66686">
        <ele>266</ele>
        <time>2025-09-11T13:55:22Z</time>
      </trkpt>
      <trkpt lat="45.94825" lon="4.66688">
        <ele>266.2</ele>
        <time>2025-09-11T13:55:23Z</time>
      </trkpt>
      <trkpt lat="45.94825" lon="4.6669">
        <ele>266.2</ele>
        <time>2025-09-11T13:55:24Z</time>
      </trkpt>
      <trkpt lat="45.94825" lon="4.66692">
        <ele>266.2</ele>
        <time>2025-09-11T13:55:25Z</time>
      </trkpt>
      <trkpt lat="45.94824" lon="4.66694">
        <ele>266.2</ele>
        <time>2025-09-11T13:55:26Z</time>
      </trkpt>
      <trkpt lat="45.94824" lon="4.66696">
        <ele>266.6</ele>
        <time>2025-09-11T13:55:27Z</time>
      </trkpt>
      <trkpt lat="45.94824" lon="4.66698">
        <ele>266.8</ele>
        <time>2025-09-11T13:55:28Z</time>
      </trkpt>
      <trkpt lat="45.94823" lon="4.667">
        <ele>266.8</ele>
        <time>2025-09-11T13:55:29Z</time>
      </trkpt>
      <trkpt lat="45.94823" lon="4.66702">
        <ele>266.8</ele>
        <time>2025-09-11T13:55:30Z</time>
      </trkpt>
      <trkpt lat="45.94822" lon="4.66704">
        <ele>267</ele>
        <time>2025-09-11T13:55:31Z</time>
      </trkpt>
      <trkpt lat="45.94822" lon="4.66706">
        <ele>267.2</ele>
        <time>2025-09-11T13:55:32Z</time>
      </trkpt>
      <trkpt lat="45.94821" lon="4.66707">
        <ele>267.2</ele>
        <time>2025-09-11T13:55:33Z</time>
      </trkpt>
      <trkpt lat="45.9482" lon="4.66709">
        <ele>267.2</ele>
        <time>2025-09-11T13:55:34Z</time>
      </trkpt>
      <trkpt lat="45.94819" lon="4.66711">
        <ele>267.6</ele>
        <time>2025-09-11T13:55:35Z</time>
      </trkpt>
      <trkpt lat="45.94819" lon="4.66713">
        <ele>267.6</ele>
        <time>2025-09-11T13:55:36Z</time>
      </trkpt>
      <trkpt lat="45.94819" lon="4.66715">
        <ele>267.6</ele>
        <time>2025-09-11T13:55:37Z</time>
      </trkpt>
      <trkpt lat="45.94818" lon="4.66718">
        <ele>268</ele>
        <time>2025-09-11T13:55:38Z</time>
      </trkpt>
      <trkpt lat="45.94817" lon="4.6672">
        <ele>268</ele>
        <time>2025-09-11T13:55:39Z</time>
      </trkpt>
      <trkpt lat="45.94817" lon="4.66722">
        <ele>268.2</ele>
        <time>2025-09-11T13:55:40Z</time>
      </trkpt>
      <trkpt lat="45.94817" lon="4.66724">
        <ele>268.2</ele>
        <time>2025-09-11T13:55:41Z</time>
      </trkpt>
      <trkpt lat="45.94817" lon="4.66726">
        <ele>268.4</ele>
        <time>2025-09-11T13:55:42Z</time>
      </trkpt>
      <trkpt lat="45.94817" lon="4.66728">
        <ele>268.4</ele>
        <time>2025-09-11T13:55:43Z</time>
      </trkpt>
      <trkpt lat="45.94816" lon="4.6673">
        <ele>268.8</ele>
        <time>2025-09-11T13:55:44Z</time>
      </trkpt>
      <trkpt lat="45.94816" lon="4.66731">
        <ele>268.8</ele>
        <time>2025-09-11T13:55:45Z</time>
      </trkpt>
      <trkpt lat="45.94816" lon="4.66733">
        <ele>269</ele>
        <time>2025-09-11T13:55:46Z</time>
      </trkpt>
      <trkpt lat="45.94815" lon="4.66735">
        <ele>269</ele>
        <time>2025-09-11T13:55:47Z</time>
      </trkpt>
      <trkpt lat="45.94815" lon="4.66736">
        <ele>269.4</ele>
        <time>2025-09-11T13:55:48Z</time>
      </trkpt>
      <trkpt lat="45.94815" lon="4.66738">
        <ele>269.4</ele>
        <time>2025-09-11T13:55:49Z</time>
      </trkpt>
      <trkpt lat="45.94814" lon="4.6674">
        <ele>269.6</ele>
        <time>2025-09-11T13:55:50Z</time>
      </trkpt>
      <trkpt lat="45.94814" lon="4.66742">
        <ele>269.6</ele>
        <time>2025-09-11T13:55:51Z</time>
      </trkpt>
      <trkpt lat="45.94814" lon="4.66743">
        <ele>270</ele>
        <time>2025-09-11T13:55:52Z</time>
      </trkpt>
      <trkpt lat="45.94813" lon="4.66745">
        <ele>270.2</ele>
        <time>2025-09-11T13:55:53Z</time>
      </trkpt>
      <trkpt lat="45.94813" lon="4.66747">
        <ele>270.4</ele>
        <time>2025-09-11T13:55:54Z</time>
      </trkpt>
      <trkpt lat="45.94813" lon="4.66749">
        <ele>270.6</ele>
        <time>2025-09-11T13:55:55Z</time>
      </trkpt>
      <trkpt lat="45.94813" lon="4.66752">
        <ele>270.6</ele>
        <time>2025-09-11T13:55:56Z</time>
      </trkpt>
      <trkpt lat="45.94813" lon="4.66754">
        <ele>271</ele>
        <time>2025-09-11T13:55:57Z</time>
      </trkpt>
      <trkpt lat="45.94813" lon="4.66756">
        <ele>271</ele>
        <time>2025-09-11T13:55:58Z</time>
      </trkpt>
      <trkpt lat="45.94812" lon="4.66758">
        <ele>271</ele>
        <time>2025-09-11T13:55:59Z</time>
      </trkpt>
      <trkpt lat="45.94812" lon="4.6676">
        <ele>271.2</ele>
        <time>2025-09-11T13:56:00Z</time>
      </trkpt>
      <trkpt lat="45.94812" lon="4.66763">
        <ele>271.2</ele>
        <time>2025-09-11T13:56:01Z</time>
      </trkpt>
      <trkpt lat="45.94811" lon="4.66765">
        <ele>271.2</ele>
        <time>2025-09-11T13:56:02Z</time>
      </trkpt>
      <trkpt lat="45.94811" lon="4.66768">
        <ele>271.2</ele>
        <time>2025-09-11T13:56:03Z</time>
      </trkpt>
      <trkpt lat="45.94811" lon="4.6677">
        <ele>271.6</ele>
        <time>2025-09-11T13:56:04Z</time>
      </trkpt>
      <trkpt lat="45.94811" lon="4.66773">
        <ele>271.8</ele>
        <time>2025-09-11T13:56:05Z</time>
      </trkpt>
      <trkpt lat="45.94811" lon="4.66775">
        <ele>271.8</ele>
        <time>2025-09-11T13:56:06Z</time>
      </trkpt>
      <trkpt lat="45.94811" lon="4.66778">
        <ele>272.2</ele>
        <time>2025-09-11T13:56:07Z</time>
      </trkpt>
      <trkpt lat="45.94811" lon="4.6678">
        <ele>272.2</ele>
        <time>2025-09-11T13:56:08Z</time>
      </trkpt>
      <trkpt lat="45.9481" lon="4.66782">
        <ele>272.4</ele>
        <time>2025-09-11T13:56:09Z</time>
      </trkpt>
      <trkpt lat="45.9481" lon="4.66784">
        <ele>272.4</ele>
        <time>2025-09-11T13:56:10Z</time>
      </trkpt>
      <trkpt lat="45.94809" lon="4.66787">
        <ele>272.6</ele>
        <time>2025-09-11T13:56:11Z</time>
      </trkpt>
      <trkpt lat="45.94809" lon="4.66789">
        <ele>272.6</ele>
        <time>2025-09-11T13:56:12Z</time>
      </trkpt>
      <trkpt lat="45.94809" lon="4.66791">
        <ele>273</ele>
        <time>2025-09-11T13:56:13Z</time>
      </trkpt>
      <trkpt lat="45.94809" lon="4.66793">
        <ele>273</ele>
        <time>2025-09-11T13:56:14Z</time>
      </trkpt>
      <trkpt lat="45.94809" lon="4.66795">
        <ele>273</ele>
        <time>2025-09-11T13:56:15Z</time>
      </trkpt>
      <trkpt lat="45.94809" lon="4.66798">
        <ele>273.2</ele>
        <time>2025-09-11T13:56:16Z</time>
      </trkpt>
      <trkpt lat="45.94808" lon="4.668">
        <ele>273.2</ele>
        <time>2025-09-11T13:56:17Z</time>
      </trkpt>
      <trkpt lat="45.94808" lon="4.66802">
        <ele>273.2</ele>
        <time>2025-09-11T13:56:18Z</time>
      </trkpt>
      <trkpt lat="45.94808" lon="4.66805">
        <ele>273.6</ele>
        <time>2025-09-11T13:56:19Z</time>
      </trkpt>
      <trkpt lat="45.94808" lon="4.66807">
        <ele>273.6</ele>
        <time>2025-09-11T13:56:20Z</time>
      </trkpt>
      <trkpt lat="45.94808" lon="4.66809">
        <ele>273.8</ele>
        <time>2025-09-11T13:56:21Z</time>
      </trkpt>
      <trkpt lat="45.94809" lon="4.66812">
        <ele>273.8</ele>
        <time>2025-09-11T13:56:22Z</time>
      </trkpt>
      <trkpt lat="45.94809" lon="4.66814">
        <ele>274</ele>
        <time>2025-09-11T13:56:23Z</time>
      </trkpt>
      <trkpt lat="45.94809" lon="4.66816">
        <ele>274</ele>
        <time>2025-09-11T13:56:24Z</time>
      </trkpt>
      <trkpt lat="45.94809" lon="4.66819">
        <ele>274.4</ele>
        <time>2025-09-11T13:56:25Z</time>
      </trkpt>
      <trkpt lat="45.94809" lon="4.66821">
        <ele>274.6</ele>
        <time>2025-09-11T13:56:26Z</time>
      </trkpt>
      <trkpt lat="45.94809" lon="4.66823">
        <ele>274.6</ele>
        <time>2025-09-11T13:56:27Z</time>
      </trkpt>
      <trkpt lat="45.94809" lon="4.66825">
        <ele>275</ele>
        <time>2025-09-11T13:56:28Z</time>
      </trkpt>
      <trkpt lat="45.94809" lon="4.66828">
        <ele>275</ele>
        <time>2025-09-11T13:56:29Z</time>
      </trkpt>
      <trkpt lat="45.94809" lon="4.6683">
        <ele>275.2</ele>
        <time>2025-09-11T13:56:30Z</time>
      </trkpt>
      <trkpt lat="45.9481" lon="4.66835">
        <ele>275.2</ele>
        <time>2025-09-11T13:56:31Z</time>
      </trkpt>
      <trkpt lat="45.9481" lon="4.66837">
        <ele>275.6</ele>
        <time>2025-09-11T13:56:32Z</time>
      </trkpt>
      <trkpt lat="45.9481" lon="4.6684">
        <ele>275.6</ele>
        <time>2025-09-11T13:56:33Z</time>
      </trkpt>
      <trkpt lat="45.9481" lon="4.66842">
        <ele>276</ele>
        <time>2025-09-11T13:56:34Z</time>
      </trkpt>
      <trkpt lat="45.94811" lon="4.66845">
        <ele>276</ele>
        <time>2025-09-11T13:56:35Z</time>
      </trkpt>
      <trkpt lat="45.94811" lon="4.66847">
        <ele>276.2</ele>
        <time>2025-09-11T13:56:36Z</time>
      </trkpt>
      <trkpt lat="45.94811" lon="4.66849">
        <ele>276.2</ele>
        <time>2025-09-11T13:56:37Z</time>
      </trkpt>
      <trkpt lat="45.9481" lon="4.66852">
        <ele>276.4</ele>
        <time>2025-09-11T13:56:38Z</time>
      </trkpt>
      <trkpt lat="45.9481" lon="4.66852">
        <ele>276.4</ele>
        <time>2025-09-11T13:56:39Z</time>
      </trkpt>
      <trkpt lat="45.9481" lon="4.66854">
        <ele>276.4</ele>
        <time>2025-09-11T13:56:40Z</time>
      </trkpt>
      <trkpt lat="45.9481" lon="4.66856">
        <ele>276.4</ele>
        <time>2025-09-11T13:56:41Z</time>
      </trkpt>
      <trkpt lat="45.94811" lon="4.66859">
        <ele>276.4</ele>
        <time>2025-09-11T13:56:42Z</time>
      </trkpt>
      <trkpt lat="45.94811" lon="4.66861">
        <ele>276.4</ele>
        <time>2025-09-11T13:56:43Z</time>
      </trkpt>
      <trkpt lat="45.94811" lon="4.66863">
        <ele>276.8</ele>
        <time>2025-09-11T13:56:44Z</time>
      </trkpt>
      <trkpt lat="45.94812" lon="4.66866">
        <ele>276.8</ele>
        <time>2025-09-11T13:56:45Z</time>
      </trkpt>
      <trkpt lat="45.94812" lon="4.66868">
        <ele>276.8</ele>
        <time>2025-09-11T13:56:46Z</time>
      </trkpt>
      <trkpt lat="45.94813" lon="4.66871">
        <ele>277.2</ele>
        <time>2025-09-11T13:56:47Z</time>
      </trkpt>
      <trkpt lat="45.94813" lon="4.66873">
        <ele>277.2</ele>
        <time>2025-09-11T13:56:48Z</time>
      </trkpt>
      <trkpt lat="45.94813" lon="4.66876">
        <ele>277.6</ele>
        <time>2025-09-11T13:56:49Z</time>
      </trkpt>
      <trkpt lat="45.94813" lon="4.66878">
        <ele>277.6</ele>
        <time>2025-09-11T13:56:50Z</time>
      </trkpt>
      <trkpt lat="45.94814" lon="4.66881">
        <ele>277.6</ele>
        <time>2025-09-11T13:56:51Z</time>
      </trkpt>
      <trkpt lat="45.94814" lon="4.66883">
        <ele>277.8</ele>
        <time>2025-09-11T13:56:52Z</time>
      </trkpt>
      <trkpt lat="45.94815" lon="4.66886">
        <ele>277.8</ele>
        <time>2025-09-11T13:56:53Z</time>
      </trkpt>
      <trkpt lat="45.94815" lon="4.66888">
        <ele>278</ele>
        <time>2025-09-11T13:56:54Z</time>
      </trkpt>
      <trkpt lat="45.94815" lon="4.66891">
        <ele>278</ele>
        <time>2025-09-11T13:56:55Z</time>
      </trkpt>
      <trkpt lat="45.94815" lon="4.66894">
        <ele>278</ele>
        <time>2025-09-11T13:56:56Z</time>
      </trkpt>
      <trkpt lat="45.94816" lon="4.66897">
        <ele>278</ele>
        <time>2025-09-11T13:56:57Z</time>
      </trkpt>
      <trkpt lat="45.94816" lon="4.669">
        <ele>278.2</ele>
        <time>2025-09-11T13:56:58Z</time>
      </trkpt>
      <trkpt lat="45.94817" lon="4.66902">
        <ele>278.2</ele>
        <time>2025-09-11T13:56:59Z</time>
      </trkpt>
      <trkpt lat="45.94817" lon="4.66905">
        <ele>278.6</ele>
        <time>2025-09-11T13:57:00Z</time>
      </trkpt>
      <trkpt lat="45.94817" lon="4.66907">
        <ele>278.6</ele>
        <time>2025-09-11T13:57:01Z</time>
      </trkpt>
      <trkpt lat="45.94817" lon="4.66909">
        <ele>279</ele>
        <time>2025-09-11T13:57:02Z</time>
      </trkpt>
      <trkpt lat="45.94817" lon="4.66912">
        <ele>279</ele>
        <time>2025-09-11T13:57:03Z</time>
      </trkpt>
      <trkpt lat="45.94817" lon="4.66915">
        <ele>279</ele>
        <time>2025-09-11T13:57:04Z</time>
      </trkpt>
      <trkpt lat="45.94817" lon="4.66918">
        <ele>279.2</ele>
        <time>2025-09-11T13:57:05Z</time>
      </trkpt>
      <trkpt lat="45.94817" lon="4.6692">
        <ele>279.2</ele>
        <time>2025-09-11T13:57:06Z</time>
      </trkpt>
      <trkpt lat="45.94817" lon="4.66923">
        <ele>279.2</ele>
        <time>2025-09-11T13:57:07Z</time>
      </trkpt>
      <trkpt lat="45.94818" lon="4.66926">
        <ele>279.4</ele>
        <time>2025-09-11T13:57:08Z</time>
      </trkpt>
      <trkpt lat="45.94818" lon="4.66929">
        <ele>279.4</ele>
        <time>2025-09-11T13:57:09Z</time>
      </trkpt>
      <trkpt lat="45.94818" lon="4.66932">
        <ele>279.4</ele>
        <time>2025-09-11T13:57:10Z</time>
      </trkpt>
      <trkpt lat="45.94818" lon="4.66935">
        <ele>279.8</ele>
        <time>2025-09-11T13:57:11Z</time>
      </trkpt>
      <trkpt lat="45.94818" lon="4.66938">
        <ele>279.8</ele>
        <time>2025-09-11T13:57:12Z</time>
      </trkpt>
      <trkpt lat="45.94819" lon="4.6694">
        <ele>280</ele>
        <time>2025-09-11T13:57:13Z</time>
      </trkpt>
      <trkpt lat="45.94819" lon="4.66943">
        <ele>280</ele>
        <time>2025-09-11T13:57:14Z</time>
      </trkpt>
      <trkpt lat="45.94819" lon="4.66946">
        <ele>280</ele>
        <time>2025-09-11T13:57:15Z</time>
      </trkpt>
      <trkpt lat="45.94819" lon="4.66948">
        <ele>280</ele>
        <time>2025-09-11T13:57:16Z</time>
      </trkpt>
      <trkpt lat="45.9482" lon="4.66951">
        <ele>280.4</ele>
        <time>2025-09-11T13:57:17Z</time>
      </trkpt>
      <trkpt lat="45.9482" lon="4.66954">
        <ele>280.4</ele>
        <time>2025-09-11T13:57:18Z</time>
      </trkpt>
      <trkpt lat="45.9482" lon="4.66956">
        <ele>280.6</ele>
        <time>2025-09-11T13:57:19Z</time>
      </trkpt>
      <trkpt lat="45.94821" lon="4.66959">
        <ele>280.6</ele>
        <time>2025-09-11T13:57:20Z</time>
      </trkpt>
      <trkpt lat="45.94821" lon="4.66962">
        <ele>280.8</ele>
        <time>2025-09-11T13:57:21Z</time>
      </trkpt>
      <trkpt lat="45.94821" lon="4.66964">
        <ele>280.8</ele>
        <time>2025-09-11T13:57:22Z</time>
      </trkpt>
      <trkpt lat="45.94822" lon="4.66967">
        <ele>280.8</ele>
        <time>2025-09-11T13:57:23Z</time>
      </trkpt>
      <trkpt lat="45.94822" lon="4.66969">
        <ele>281.2</ele>
        <time>2025-09-11T13:57:24Z</time>
      </trkpt>
      <trkpt lat="45.94822" lon="4.66972">
        <ele>281.2</ele>
        <time>2025-09-11T13:57:25Z</time>
      </trkpt>
      <trkpt lat="45.94822" lon="4.66974">
        <ele>281.2</ele>
        <time>2025-09-11T13:57:26Z</time>
      </trkpt>
      <trkpt lat="45.94822" lon="4.66977">
        <ele>281.2</ele>
        <time>2025-09-11T13:57:27Z</time>
      </trkpt>
      <trkpt lat="45.94822" lon="4.66979">
        <ele>281.4</ele>
        <time>2025-09-11T13:57:28Z</time>
      </trkpt>
      <trkpt lat="45.94822" lon="4.66982">
        <ele>281.4</ele>
        <time>2025-09-11T13:57:29Z</time>
      </trkpt>
      <trkpt lat="45.94823" lon="4.66985">
        <ele>281.4</ele>
        <time>2025-09-11T13:57:30Z</time>
      </trkpt>
      <trkpt lat="45.94823" lon="4.66988">
        <ele>281.6</ele>
        <time>2025-09-11T13:57:31Z</time>
      </trkpt>
      <trkpt lat="45.94823" lon="4.6699">
        <ele>281.6</ele>
        <time>2025-09-11T13:57:32Z</time>
      </trkpt>
      <trkpt lat="45.94823" lon="4.66993">
        <ele>282</ele>
        <time>2025-09-11T13:57:33Z</time>
      </trkpt>
      <trkpt lat="45.94824" lon="4.66996">
        <ele>282</ele>
        <time>2025-09-11T13:57:34Z</time>
      </trkpt>
      <trkpt lat="45.94824" lon="4.66998">
        <ele>282</ele>
        <time>2025-09-11T13:57:35Z</time>
      </trkpt>
      <trkpt lat="45.94824" lon="4.67001">
        <ele>282.2</ele>
        <time>2025-09-11T13:57:36Z</time>
      </trkpt>
      <trkpt lat="45.94824" lon="4.67003">
        <ele>282.2</ele>
        <time>2025-09-11T13:57:37Z</time>
      </trkpt>
      <trkpt lat="45.94824" lon="4.67006">
        <ele>282.6</ele>
        <time>2025-09-11T13:57:38Z</time>
      </trkpt>
      <trkpt lat="45.94824" lon="4.67008">
        <ele>282.6</ele>
        <time>2025-09-11T13:57:39Z</time>
      </trkpt>
      <trkpt lat="45.94824" lon="4.67011">
        <ele>282.8</ele>
        <time>2025-09-11T13:57:40Z</time>
      </trkpt>
      <trkpt lat="45.94824" lon="4.67013">
        <ele>282.8</ele>
        <time>2025-09-11T13:57:41Z</time>
      </trkpt>
      <trkpt lat="45.94824" lon="4.67016">
        <ele>282.8</ele>
        <time>2025-09-11T13:57:42Z</time>
      </trkpt>
      <trkpt lat="45.94825" lon="4.67019">
        <ele>283</ele>
        <time>2025-09-11T13:57:43Z</time>
      </trkpt>
      <trkpt lat="45.94825" lon="4.67021">
        <ele>283</ele>
        <time>2025-09-11T13:57:44Z</time>
      </trkpt>
      <trkpt lat="45.94825" lon="4.67024">
        <ele>283.4</ele>
        <time>2025-09-11T13:57:45Z</time>
      </trkpt>
      <trkpt lat="45.94826" lon="4.67026">
        <ele>283.4</ele>
        <time>2025-09-11T13:57:46Z</time>
      </trkpt>
      <trkpt lat="45.94826" lon="4.67029">
        <ele>283.6</ele>
        <time>2025-09-11T13:57:47Z</time>
      </trkpt>
      <trkpt lat="45.94827" lon="4.67032">
        <ele>283.6</ele>
        <time>2025-09-11T13:57:48Z</time>
      </trkpt>
      <trkpt lat="45.94827" lon="4.67034">
        <ele>283.6</ele>
        <time>2025-09-11T13:57:49Z</time>
      </trkpt>
      <trkpt lat="45.94827" lon="4.67037">
        <ele>283.6</ele>
        <time>2025-09-11T13:57:50Z</time>
      </trkpt>
      <trkpt lat="45.94827" lon="4.67039">
        <ele>283.8</ele>
        <time>2025-09-11T13:57:51Z</time>
      </trkpt>
      <trkpt lat="45.94827" lon="4.67041">
        <ele>283.8</ele>
        <time>2025-09-11T13:57:52Z</time>
      </trkpt>
      <trkpt lat="45.94828" lon="4.67044">
        <ele>284.2</ele>
        <time>2025-09-11T13:57:53Z</time>
      </trkpt>
      <trkpt lat="45.94828" lon="4.67046">
        <ele>284.2</ele>
        <time>2025-09-11T13:57:54Z</time>
      </trkpt>
      <trkpt lat="45.94828" lon="4.67049">
        <ele>284.4</ele>
        <time>2025-09-11T13:57:55Z</time>
      </trkpt>
      <trkpt lat="45.94828" lon="4.67051">
        <ele>284.4</ele>
        <time>2025-09-11T13:57:56Z</time>
      </trkpt>
      <trkpt lat="45.94829" lon="4.67054">
        <ele>284.8</ele>
        <time>2025-09-11T13:57:57Z</time>
      </trkpt>
      <trkpt lat="45.94829" lon="4.67056">
        <ele>284.8</ele>
        <time>2025-09-11T13:57:58Z</time>
      </trkpt>
      <trkpt lat="45.94829" lon="4.67059">
        <ele>285.2</ele>
        <time>2025-09-11T13:57:59Z</time>
      </trkpt>
      <trkpt lat="45.94829" lon="4.67061">
        <ele>285.2</ele>
        <time>2025-09-11T13:58:00Z</time>
      </trkpt>
      <trkpt lat="45.94829" lon="4.67064">
        <ele>285.2</ele>
        <time>2025-09-11T13:58:01Z</time>
      </trkpt>
      <trkpt lat="45.9483" lon="4.67067">
        <ele>285.4</ele>
        <time>2025-09-11T13:58:02Z</time>
      </trkpt>
      <trkpt lat="45.9483" lon="4.67069">
        <ele>285.4</ele>
        <time>2025-09-11T13:58:03Z</time>
      </trkpt>
      <trkpt lat="45.9483" lon="4.67072">
        <ele>285.8</ele>
        <time>2025-09-11T13:58:04Z</time>
      </trkpt>
      <trkpt lat="45.94831" lon="4.67074">
        <ele>285.8</ele>
        <time>2025-09-11T13:58:05Z</time>
      </trkpt>
      <trkpt lat="45.94832" lon="4.67077">
        <ele>286</ele>
        <time>2025-09-11T13:58:06Z</time>
      </trkpt>
      <trkpt lat="45.94832" lon="4.67079">
        <ele>286</ele>
        <time>2025-09-11T13:58:07Z</time>
      </trkpt>
      <trkpt lat="45.94832" lon="4.67082">
        <ele>286.2</ele>
        <time>2025-09-11T13:58:08Z</time>
      </trkpt>
      <trkpt lat="45.94832" lon="4.67085">
        <ele>286.2</ele>
        <time>2025-09-11T13:58:09Z</time>
      </trkpt>
      <trkpt lat="45.94833" lon="4.67087">
        <ele>286.2</ele>
        <time>2025-09-11T13:58:10Z</time>
      </trkpt>
      <trkpt lat="45.94833" lon="4.6709">
        <ele>286.6</ele>
        <time>2025-09-11T13:58:11Z</time>
      </trkpt>
      <trkpt lat="45.94833" lon="4.67093">
        <ele>286.6</ele>
        <time>2025-09-11T13:58:12Z</time>
      </trkpt>
      <trkpt lat="45.94833" lon="4.67096">
        <ele>286.8</ele>
        <time>2025-09-11T13:58:13Z</time>
      </trkpt>
      <trkpt lat="45.94833" lon="4.67098">
        <ele>286.8</ele>
        <time>2025-09-11T13:58:14Z</time>
      </trkpt>
      <trkpt lat="45.94832" lon="4.67101">
        <ele>287.2</ele>
        <time>2025-09-11T13:58:15Z</time>
      </trkpt>
      <trkpt lat="45.94832" lon="4.67103">
        <ele>287.2</ele>
        <time>2025-09-11T13:58:16Z</time>
      </trkpt>
      <trkpt lat="45.94832" lon="4.67106">
        <ele>287.6</ele>
        <time>2025-09-11T13:58:17Z</time>
      </trkpt>
      <trkpt lat="45.94831" lon="4.67109">
        <ele>287.6</ele>
        <time>2025-09-11T13:58:18Z</time>
      </trkpt>
      <trkpt lat="45.94831" lon="4.67111">
        <ele>287.6</ele>
        <time>2025-09-11T13:58:19Z</time>
      </trkpt>
      <trkpt lat="45.9483" lon="4.67114">
        <ele>288</ele>
        <time>2025-09-11T13:58:20Z</time>
      </trkpt>
      <trkpt lat="45.9483" lon="4.67117">
        <ele>288</ele>
        <time>2025-09-11T13:58:21Z</time>
      </trkpt>
      <trkpt lat="45.94829" lon="4.67119">
        <ele>288</ele>
        <time>2025-09-11T13:58:22Z</time>
      </trkpt>
      <trkpt lat="45.94828" lon="4.67122">
        <ele>288</ele>
        <time>2025-09-11T13:58:23Z</time>
      </trkpt>
      <trkpt lat="45.94827" lon="4.67125">
        <ele>288</ele>
        <time>2025-09-11T13:58:24Z</time>
      </trkpt>
      <trkpt lat="45.94826" lon="4.67127">
        <ele>288.2</ele>
        <time>2025-09-11T13:58:25Z</time>
      </trkpt>
      <trkpt lat="45.94825" lon="4.6713">
        <ele>288.2</ele>
        <time>2025-09-11T13:58:26Z</time>
      </trkpt>
      <trkpt lat="45.94824" lon="4.67132">
        <ele>288.4</ele>
        <time>2025-09-11T13:58:27Z</time>
      </trkpt>
      <trkpt lat="45.94823" lon="4.67135">
        <ele>288.4</ele>
        <time>2025-09-11T13:58:28Z</time>
      </trkpt>
      <trkpt lat="45.94822" lon="4.67137">
        <ele>288.6</ele>
        <time>2025-09-11T13:58:29Z</time>
      </trkpt>
      <trkpt lat="45.94821" lon="4.67139">
        <ele>288.6</ele>
        <time>2025-09-11T13:58:30Z</time>
      </trkpt>
      <trkpt lat="45.9482" lon="4.67141">
        <ele>288.6</ele>
        <time>2025-09-11T13:58:31Z</time>
      </trkpt>
      <trkpt lat="45.9482" lon="4.67141">
        <ele>289</ele>
        <time>2025-09-11T13:58:32Z</time>
      </trkpt>
      <trkpt lat="45.94819" lon="4.67142">
        <ele>288.8</ele>
        <time>2025-09-11T13:59:30Z</time>
      </trkpt>
      <trkpt lat="45.94818" lon="4.67145">
        <ele>288.8</ele>
        <time>2025-09-11T13:59:31Z</time>
      </trkpt>
      <trkpt lat="45.94818" lon="4.67148">
        <ele>288.8</ele>
        <time>2025-09-11T13:59:32Z</time>
      </trkpt>
      <trkpt lat="45.94817" lon="4.67151">
        <ele>288.8</ele>
        <time>2025-09-11T13:59:33Z</time>
      </trkpt>
      <trkpt lat="45.94816" lon="4.67155">
        <ele>288.8</ele>
        <time>2025-09-11T13:59:34Z</time>
      </trkpt>
      <trkpt lat="45.94815" lon="4.67159">
        <ele>288.8</ele>
        <time>2025-09-11T13:59:35Z</time>
      </trkpt>
      <trkpt lat="45.94813" lon="4.67163">
        <ele>288.8</ele>
        <time>2025-09-11T13:59:36Z</time>
      </trkpt>
      <trkpt lat="45.94812" lon="4.67167">
        <ele>288.8</ele>
        <time>2025-09-11T13:59:37Z</time>
      </trkpt>
      <trkpt lat="45.94811" lon="4.67172">
        <ele>288.8</ele>
        <time>2025-09-11T13:59:38Z</time>
      </trkpt>
      <trkpt lat="45.9481" lon="4.67178">
        <ele>288.6</ele>
        <time>2025-09-11T13:59:39Z</time>
      </trkpt>
      <trkpt lat="45.94808" lon="4.67183">
        <ele>288.6</ele>
        <time>2025-09-11T13:59:40Z</time>
      </trkpt>
      <trkpt lat="45.94807" lon="4.67188">
        <ele>288.6</ele>
        <time>2025-09-11T13:59:41Z</time>
      </trkpt>
      <trkpt lat="45.94806" lon="4.67192">
        <ele>288.6</ele>
        <time>2025-09-11T13:59:42Z</time>
      </trkpt>
      <trkpt lat="45.94804" lon="4.67197">
        <ele>288.4</ele>
        <time>2025-09-11T13:59:43Z</time>
      </trkpt>
      <trkpt lat="45.94803" lon="4.67202">
        <ele>288.4</ele>
        <time>2025-09-11T13:59:44Z</time>
      </trkpt>
      <trkpt lat="45.94802" lon="4.67207">
        <ele>288.4</ele>
        <time>2025-09-11T13:59:45Z</time>
      </trkpt>
      <trkpt lat="45.94801" lon="4.67212">
        <ele>288.4</ele>
        <time>2025-09-11T13:59:46Z</time>
      </trkpt>
      <trkpt lat="45.948" lon="4.67217">
        <ele>288.4</ele>
        <time>2025-09-11T13:59:47Z</time>
      </trkpt>
      <trkpt lat="45.94799" lon="4.67222">
        <ele>288.4</ele>
        <time>2025-09-11T13:59:48Z</time>
      </trkpt>
      <trkpt lat="45.94798" lon="4.67227">
        <ele>288</ele>
        <time>2025-09-11T13:59:49Z</time>
      </trkpt>
      <trkpt lat="45.94797" lon="4.67232">
        <ele>288</ele>
        <time>2025-09-11T13:59:50Z</time>
      </trkpt>
      <trkpt lat="45.94796" lon="4.67238">
        <ele>288</ele>
        <time>2025-09-11T13:59:51Z</time>
      </trkpt>
      <trkpt lat="45.94796" lon="4.67244">
        <ele>288</ele>
        <time>2025-09-11T13:59:52Z</time>
      </trkpt>
      <trkpt lat="45.94794" lon="4.6725">
        <ele>288</ele>
        <time>2025-09-11T13:59:53Z</time>
      </trkpt>
      <trkpt lat="45.94793" lon="4.67257">
        <ele>288</ele>
        <time>2025-09-11T13:59:54Z</time>
      </trkpt>
      <trkpt lat="45.94791" lon="4.67264">
        <ele>287.8</ele>
        <time>2025-09-11T13:59:55Z</time>
      </trkpt>
      <trkpt lat="45.9479" lon="4.67271">
        <ele>287.8</ele>
        <time>2025-09-11T13:59:56Z</time>
      </trkpt>
      <trkpt lat="45.94788" lon="4.67278">
        <ele>287.8</ele>
        <time>2025-09-11T13:59:57Z</time>
      </trkpt>
      <trkpt lat="45.94786" lon="4.67285">
        <ele>287.4</ele>
        <time>2025-09-11T13:59:58Z</time>
      </trkpt>
      <trkpt lat="45.94783" lon="4.67292">
        <ele>287.4</ele>
        <time>2025-09-11T13:59:59Z</time>
      </trkpt>
      <trkpt lat="45.9478" lon="4.67296">
        <ele>287.4</ele>
        <time>2025-09-11T14:00:00Z</time>
      </trkpt>
      <trkpt lat="45.94775" lon="4.673">
        <ele>287.4</ele>
        <time>2025-09-11T14:00:01Z</time>
      </trkpt>
      <trkpt lat="45.9477" lon="4.67303">
        <ele>287.4</ele>
        <time>2025-09-11T14:00:02Z</time>
      </trkpt>
      <trkpt lat="45.94765" lon="4.67305">
        <ele>287.2</ele>
        <time>2025-09-11T14:00:03Z</time>
      </trkpt>
      <trkpt lat="45.9476" lon="4.67307">
        <ele>287</ele>
        <time>2025-09-11T14:00:04Z</time>
      </trkpt>
      <trkpt lat="45.94755" lon="4.6731">
        <ele>286.6</ele>
        <time>2025-09-11T14:00:05Z</time>
      </trkpt>
      <trkpt lat="45.9475" lon="4.67312">
        <ele>286.6</ele>
        <time>2025-09-11T14:00:06Z</time>
      </trkpt>
      <trkpt lat="45.94746" lon="4.67316">
        <ele>286.4</ele>
        <time>2025-09-11T14:00:07Z</time>
      </trkpt>
      <trkpt lat="45.94742" lon="4.67321">
        <ele>285.4</ele>
        <time>2025-09-11T14:00:08Z</time>
      </trkpt>
      <trkpt lat="45.94739" lon="4.67327">
        <ele>286.4</ele>
        <time>2025-09-11T14:00:09Z</time>
      </trkpt>
      <trkpt lat="45.94737" lon="4.67335">
        <ele>286.4</ele>
        <time>2025-09-11T14:00:10Z</time>
      </trkpt>
      <trkpt lat="45.94734" lon="4.67341">
        <ele>286.2</ele>
        <time>2025-09-11T14:00:11Z</time>
      </trkpt>
      <trkpt lat="45.94732" lon="4.67349">
        <ele>286</ele>
        <time>2025-09-11T14:00:12Z</time>
      </trkpt>
      <trkpt lat="45.9473" lon="4.67357">
        <ele>285.4</ele>
        <time>2025-09-11T14:00:13Z</time>
      </trkpt>
      <trkpt lat="45.94728" lon="4.67366">
        <ele>285.4</ele>
        <time>2025-09-11T14:00:14Z</time>
      </trkpt>
      <trkpt lat="45.94727" lon="4.67376">
        <ele>284.6</ele>
        <time>2025-09-11T14:00:15Z</time>
      </trkpt>
      <trkpt lat="45.94725" lon="4.67386">
        <ele>284.2</ele>
        <time>2025-09-11T14:00:16Z</time>
      </trkpt>
      <trkpt lat="45.94724" lon="4.67396">
        <ele>284.2</ele>
        <time>2025-09-11T14:00:17Z</time>
      </trkpt>
      <trkpt lat="45.94723" lon="4.67405">
        <ele>283.6</ele>
        <time>2025-09-11T14:00:18Z</time>
      </trkpt>
      <trkpt lat="45.94721" lon="4.67415">
        <ele>283.6</ele>
        <time>2025-09-11T14:00:19Z</time>
      </trkpt>
      <trkpt lat="45.94719" lon="4.67424">
        <ele>283</ele>
        <time>2025-09-11T14:00:20Z</time>
      </trkpt>
      <trkpt lat="45.94717" lon="4.67434">
        <ele>282.2</ele>
        <time>2025-09-11T14:00:21Z</time>
      </trkpt>
      <trkpt lat="45.94715" lon="4.67446">
        <ele>281.8</ele>
        <time>2025-09-11T14:00:22Z</time>
      </trkpt>
      <trkpt lat="45.94714" lon="4.67457">
        <ele>281.2</ele>
        <time>2025-09-11T14:00:23Z</time>
      </trkpt>
      <trkpt lat="45.94711" lon="4.67468">
        <ele>280.6</ele>
        <time>2025-09-11T14:00:24Z</time>
      </trkpt>
      <trkpt lat="45.94709" lon="4.67479">
        <ele>279.8</ele>
        <time>2025-09-11T14:00:25Z</time>
      </trkpt>
      <trkpt lat="45.94707" lon="4.6749">
        <ele>279.4</ele>
        <time>2025-09-11T14:00:26Z</time>
      </trkpt>
      <trkpt lat="45.94704" lon="4.67502">
        <ele>278.8</ele>
        <time>2025-09-11T14:00:27Z</time>
      </trkpt>
      <trkpt lat="45.947" lon="4.67513">
        <ele>278.4</ele>
        <time>2025-09-11T14:00:28Z</time>
      </trkpt>
      <trkpt lat="45.94695" lon="4.67522">
        <ele>277.8</ele>
        <time>2025-09-11T14:00:29Z</time>
      </trkpt>
      <trkpt lat="45.94689" lon="4.6753">
        <ele>277.4</ele>
        <time>2025-09-11T14:00:30Z</time>
      </trkpt>
      <trkpt lat="45.94682" lon="4.67535">
        <ele>276.8</ele>
        <time>2025-09-11T14:00:31Z</time>
      </trkpt>
      <trkpt lat="45.94675" lon="4.67542">
        <ele>276.4</ele>
        <time>2025-09-11T14:00:32Z</time>
      </trkpt>
      <trkpt lat="45.94668" lon="4.67548">
        <ele>276</ele>
        <time>2025-09-11T14:00:33Z</time>
      </trkpt>
      <trkpt lat="45.94661" lon="4.67556">
        <ele>275.4</ele>
        <time>2025-09-11T14:00:34Z</time>
      </trkpt>
      <trkpt lat="45.94654" lon="4.67563">
        <ele>275</ele>
        <time>2025-09-11T14:00:35Z</time>
      </trkpt>
      <trkpt lat="45.94646" lon="4.6757">
        <ele>274.6</ele>
        <time>2025-09-11T14:00:36Z</time>
      </trkpt>
      <trkpt lat="45.94639" lon="4.67578">
        <ele>274.2</ele>
        <time>2025-09-11T14:00:37Z</time>
      </trkpt>
      <trkpt lat="45.94632" lon="4.67586">
        <ele>274</ele>
        <time>2025-09-11T14:00:38Z</time>
      </trkpt>
      <trkpt lat="45.94625" lon="4.67594">
        <ele>273.4</ele>
        <time>2025-09-11T14:00:39Z</time>
      </trkpt>
      <trkpt lat="45.94617" lon="4.67604">
        <ele>273</ele>
        <time>2025-09-11T14:00:40Z</time>
      </trkpt>
      <trkpt lat="45.94611" lon="4.67613">
        <ele>272.8</ele>
        <time>2025-09-11T14:00:41Z</time>
      </trkpt>
      <trkpt lat="45.94605" lon="4.67623">
        <ele>272.6</ele>
        <time>2025-09-11T14:00:42Z</time>
      </trkpt>
      <trkpt lat="45.94598" lon="4.67631">
        <ele>272.6</ele>
        <time>2025-09-11T14:00:43Z</time>
      </trkpt>
      <trkpt lat="45.94592" lon="4.6764">
        <ele>272.2</ele>
        <time>2025-09-11T14:00:44Z</time>
      </trkpt>
      <trkpt lat="45.94587" lon="4.67648">
        <ele>271.8</ele>
        <time>2025-09-11T14:00:45Z</time>
      </trkpt>
      <trkpt lat="45.94582" lon="4.67656">
        <ele>271.4</ele>
        <time>2025-09-11T14:00:46Z</time>
      </trkpt>
      <trkpt lat="45.94577" lon="4.67663">
        <ele>271</ele>
        <time>2025-09-11T14:00:47Z</time>
      </trkpt>
      <trkpt lat="45.94571" lon="4.6767">
        <ele>270.4</ele>
        <time>2025-09-11T14:00:48Z</time>
      </trkpt>
      <trkpt lat="45.94563" lon="4.67676">
        <ele>269.6</ele>
        <time>2025-09-11T14:00:49Z</time>
      </trkpt>
      <trkpt lat="45.94557" lon="4.67684">
        <ele>269</ele>
        <time>2025-09-11T14:00:50Z</time>
      </trkpt>
      <trkpt lat="45.94549" lon="4.67689">
        <ele>268.4</ele>
        <time>2025-09-11T14:00:51Z</time>
      </trkpt>
      <trkpt lat="45.9454" lon="4.67695">
        <ele>267.6</ele>
        <time>2025-09-11T14:00:52Z</time>
      </trkpt>
      <trkpt lat="45.94531" lon="4.67699">
        <ele>266.8</ele>
        <time>2025-09-11T14:00:53Z</time>
      </trkpt>
      <trkpt lat="45.9452" lon="4.67703">
        <ele>266.2</ele>
        <time>2025-09-11T14:00:54Z</time>
      </trkpt>
      <trkpt lat="45.9451" lon="4.67707">
        <ele>265.8</ele>
        <time>2025-09-11T14:00:55Z</time>
      </trkpt>
      <trkpt lat="45.94502" lon="4.67712">
        <ele>265</ele>
        <time>2025-09-11T14:00:56Z</time>
      </trkpt>
      <trkpt lat="45.94493" lon="4.67718">
        <ele>264.6</ele>
        <time>2025-09-11T14:00:57Z</time>
      </trkpt>
      <trkpt lat="45.94487" lon="4.67726">
        <ele>264.4</ele>
        <time>2025-09-11T14:00:58Z</time>
      </trkpt>
      <trkpt lat="45.94483" lon="4.67737">
        <ele>264</ele>
        <time>2025-09-11T14:00:59Z</time>
      </trkpt>
      <trkpt lat="45.94479" lon="4.67748">
        <ele>263.8</ele>
        <time>2025-09-11T14:01:00Z</time>
      </trkpt>
      <trkpt lat="45.94477" lon="4.67759">
        <ele>263.6</ele>
        <time>2025-09-11T14:01:01Z</time>
      </trkpt>
      <trkpt lat="45.94473" lon="4.67769">
        <ele>263.6</ele>
        <time>2025-09-11T14:01:02Z</time>
      </trkpt>
      <trkpt lat="45.9447" lon="4.67777">
        <ele>263.6</ele>
        <time>2025-09-11T14:01:03Z</time>
      </trkpt>
      <trkpt lat="45.94466" lon="4.67786">
        <ele>263.4</ele>
        <time>2025-09-11T14:01:04Z</time>
      </trkpt>
      <trkpt lat="45.9446" lon="4.67793">
        <ele>263.2</ele>
        <time>2025-09-11T14:01:05Z</time>
      </trkpt>
      <trkpt lat="45.94455" lon="4.67801">
        <ele>263.2</ele>
        <time>2025-09-11T14:01:06Z</time>
      </trkpt>
      <trkpt lat="45.94446" lon="4.67813">
        <ele>262.6</ele>
        <time>2025-09-11T14:01:07Z</time>
      </trkpt>
      <trkpt lat="45.94441" lon="4.67815">
        <ele>262.4</ele>
        <time>2025-09-11T14:01:08Z</time>
      </trkpt>
      <trkpt lat="45.94435" lon="4.67822">
        <ele>262</ele>
        <time>2025-09-11T14:01:09Z</time>
      </trkpt>
      <trkpt lat="45.94428" lon="4.6783">
        <ele>261.4</ele>
        <time>2025-09-11T14:01:10Z</time>
      </trkpt>
      <trkpt lat="45.94421" lon="4.67839">
        <ele>260.8</ele>
        <time>2025-09-11T14:01:11Z</time>
      </trkpt>
      <trkpt lat="45.94417" lon="4.67845">
        <ele>260.4</ele>
        <time>2025-09-11T14:01:12Z</time>
      </trkpt>
      <trkpt lat="45.94411" lon="4.67854">
        <ele>259.8</ele>
        <time>2025-09-11T14:01:13Z</time>
      </trkpt>
      <trkpt lat="45.94407" lon="4.67867">
        <ele>259.8</ele>
        <time>2025-09-11T14:01:14Z</time>
      </trkpt>
      <trkpt lat="45.94402" lon="4.67879">
        <ele>259.6</ele>
        <time>2025-09-11T14:01:15Z</time>
      </trkpt>
      <trkpt lat="45.94398" lon="4.67889">
        <ele>259.4</ele>
        <time>2025-09-11T14:01:16Z</time>
      </trkpt>
      <trkpt lat="45.94393" lon="4.67899">
        <ele>259.4</ele>
        <time>2025-09-11T14:01:17Z</time>
      </trkpt>
      <trkpt lat="45.94389" lon="4.67908">
        <ele>259.4</ele>
        <time>2025-09-11T14:01:18Z</time>
      </trkpt>
      <trkpt lat="45.94382" lon="4.67923">
        <ele>259.4</ele>
        <time>2025-09-11T14:01:19Z</time>
      </trkpt>
      <trkpt lat="45.94379" lon="4.6793">
        <ele>259.4</ele>
        <time>2025-09-11T14:01:20Z</time>
      </trkpt>
      <trkpt lat="45.94377" lon="4.67937">
        <ele>259.6</ele>
        <time>2025-09-11T14:01:21Z</time>
      </trkpt>
      <trkpt lat="45.94376" lon="4.67943">
        <ele>259.6</ele>
        <time>2025-09-11T14:01:22Z</time>
      </trkpt>
      <trkpt lat="45.94375" lon="4.67949">
        <ele>259.8</ele>
        <time>2025-09-11T14:01:23Z</time>
      </trkpt>
      <trkpt lat="45.94374" lon="4.67956">
        <ele>260.4</ele>
        <time>2025-09-11T14:01:24Z</time>
      </trkpt>
      <trkpt lat="45.94373" lon="4.67961">
        <ele>261</ele>
        <time>2025-09-11T14:01:25Z</time>
      </trkpt>
      <trkpt lat="45.94373" lon="4.67965">
        <ele>261.4</ele>
        <time>2025-09-11T14:01:26Z</time>
      </trkpt>
      <trkpt lat="45.94372" lon="4.6797">
        <ele>261.8</ele>
        <time>2025-09-11T14:01:27Z</time>
      </trkpt>
      <trkpt lat="45.94372" lon="4.6797">
        <ele>262.2</ele>
        <time>2025-09-11T14:01:28Z</time>
      </trkpt>
      <trkpt lat="45.94372" lon="4.67974">
        <ele>262.4</ele>
        <time>2025-09-11T14:01:29Z</time>
      </trkpt>
      <trkpt lat="45.9437" lon="4.67977">
        <ele>262.8</ele>
        <time>2025-09-11T14:01:30Z</time>
      </trkpt>
      <trkpt lat="45.9437" lon="4.67981">
        <ele>262.8</ele>
        <time>2025-09-11T14:01:31Z</time>
      </trkpt>
      <trkpt lat="45.94369" lon="4.67983">
        <ele>263</ele>
        <time>2025-09-11T14:01:32Z</time>
      </trkpt>
      <trkpt lat="45.94368" lon="4.67986">
        <ele>263.4</ele>
        <time>2025-09-11T14:01:33Z</time>
      </trkpt>
      <trkpt lat="45.94367" lon="4.67989">
        <ele>263.6</ele>
        <time>2025-09-11T14:01:34Z</time>
      </trkpt>
      <trkpt lat="45.94367" lon="4.67991">
        <ele>263.8</ele>
        <time>2025-09-11T14:01:35Z</time>
      </trkpt>
      <trkpt lat="45.94366" lon="4.67994">
        <ele>263.8</ele>
        <time>2025-09-11T14:01:36Z</time>
      </trkpt>
      <trkpt lat="45.94366" lon="4.67997">
        <ele>264.4</ele>
        <time>2025-09-11T14:01:37Z</time>
      </trkpt>
      <trkpt lat="45.94365" lon="4.67999">
        <ele>264.4</ele>
        <time>2025-09-11T14:01:38Z</time>
      </trkpt>
      <trkpt lat="45.94365" lon="4.68001">
        <ele>264.6</ele>
        <time>2025-09-11T14:01:39Z</time>
      </trkpt>
      <trkpt lat="45.94364" lon="4.68003">
        <ele>264.8</ele>
        <time>2025-09-11T14:01:40Z</time>
      </trkpt>
      <trkpt lat="45.94364" lon="4.68006">
        <ele>264.8</ele>
        <time>2025-09-11T14:01:41Z</time>
      </trkpt>
      <trkpt lat="45.94363" lon="4.68007">
        <ele>265.4</ele>
        <time>2025-09-11T14:01:42Z</time>
      </trkpt>
      <trkpt lat="45.94362" lon="4.68009">
        <ele>265.6</ele>
        <time>2025-09-11T14:01:43Z</time>
      </trkpt>
      <trkpt lat="45.94362" lon="4.68012">
        <ele>265.6</ele>
        <time>2025-09-11T14:01:44Z</time>
      </trkpt>
      <trkpt lat="45.94361" lon="4.68014">
        <ele>266</ele>
        <time>2025-09-11T14:01:45Z</time>
      </trkpt>
      <trkpt lat="45.9436" lon="4.68016">
        <ele>266</ele>
        <time>2025-09-11T14:01:46Z</time>
      </trkpt>
      <trkpt lat="45.9436" lon="4.68017">
        <ele>266.4</ele>
        <time>2025-09-11T14:01:47Z</time>
      </trkpt>
      <trkpt lat="45.94359" lon="4.68019">
        <ele>266.6</ele>
        <time>2025-09-11T14:01:48Z</time>
      </trkpt>
      <trkpt lat="45.94359" lon="4.68021">
        <ele>266.6</ele>
        <time>2025-09-11T14:01:49Z</time>
      </trkpt>
      <trkpt lat="45.94359" lon="4.68023">
        <ele>267</ele>
        <time>2025-09-11T14:01:50Z</time>
      </trkpt>
      <trkpt lat="45.94358" lon="4.68025">
        <ele>267</ele>
        <time>2025-09-11T14:01:51Z</time>
      </trkpt>
      <trkpt lat="45.94358" lon="4.68027">
        <ele>267.2</ele>
        <time>2025-09-11T14:01:52Z</time>
      </trkpt>
      <trkpt lat="45.94357" lon="4.68029">
        <ele>267.4</ele>
        <time>2025-09-11T14:01:53Z</time>
      </trkpt>
      <trkpt lat="45.94357" lon="4.6803">
        <ele>267.6</ele>
        <time>2025-09-11T14:01:54Z</time>
      </trkpt>
      <trkpt lat="45.94356" lon="4.68032">
        <ele>268</ele>
        <time>2025-09-11T14:01:55Z</time>
      </trkpt>
      <trkpt lat="45.94355" lon="4.68034">
        <ele>268.2</ele>
        <time>2025-09-11T14:01:56Z</time>
      </trkpt>
      <trkpt lat="45.94354" lon="4.68035">
        <ele>268.2</ele>
        <time>2025-09-11T14:01:57Z</time>
      </trkpt>
      <trkpt lat="45.94353" lon="4.68037">
        <ele>268.6</ele>
        <time>2025-09-11T14:01:58Z</time>
      </trkpt>
      <trkpt lat="45.94353" lon="4.68037">
        <ele>268.8</ele>
        <time>2025-09-11T14:01:59Z</time>
      </trkpt>
      <trkpt lat="45.94353" lon="4.68039">
        <ele>268.8</ele>
        <time>2025-09-11T14:02:00Z</time>
      </trkpt>
      <trkpt lat="45.94352" lon="4.68041">
        <ele>268.8</ele>
        <time>2025-09-11T14:02:01Z</time>
      </trkpt>
      <trkpt lat="45.94351" lon="4.68042">
        <ele>268.8</ele>
        <time>2025-09-11T14:02:02Z</time>
      </trkpt>
      <trkpt lat="45.9435" lon="4.68043">
        <ele>268.8</ele>
        <time>2025-09-11T14:02:03Z</time>
      </trkpt>
      <trkpt lat="45.9435" lon="4.68045">
        <ele>269</ele>
        <time>2025-09-11T14:02:04Z</time>
      </trkpt>
      <trkpt lat="45.94349" lon="4.68046">
        <ele>269</ele>
        <time>2025-09-11T14:02:05Z</time>
      </trkpt>
      <trkpt lat="45.94348" lon="4.68048">
        <ele>269.4</ele>
        <time>2025-09-11T14:02:06Z</time>
      </trkpt>
      <trkpt lat="45.94348" lon="4.68049">
        <ele>269.6</ele>
        <time>2025-09-11T14:02:07Z</time>
      </trkpt>
      <trkpt lat="45.94347" lon="4.6805">
        <ele>270</ele>
        <time>2025-09-11T14:02:08Z</time>
      </trkpt>
      <trkpt lat="45.94346" lon="4.68051">
        <ele>270</ele>
        <time>2025-09-11T14:02:09Z</time>
      </trkpt>
      <trkpt lat="45.94345" lon="4.68053">
        <ele>270</ele>
        <time>2025-09-11T14:02:10Z</time>
      </trkpt>
      <trkpt lat="45.94344" lon="4.68054">
        <ele>270.2</ele>
        <time>2025-09-11T14:02:11Z</time>
      </trkpt>
      <trkpt lat="45.94344" lon="4.68056">
        <ele>270.2</ele>
        <time>2025-09-11T14:02:12Z</time>
      </trkpt>
      <trkpt lat="45.94343" lon="4.68058">
        <ele>270.6</ele>
        <time>2025-09-11T14:02:13Z</time>
      </trkpt>
      <trkpt lat="45.94343" lon="4.6806">
        <ele>270.6</ele>
        <time>2025-09-11T14:02:14Z</time>
      </trkpt>
      <trkpt lat="45.94342" lon="4.68061">
        <ele>271</ele>
        <time>2025-09-11T14:02:15Z</time>
      </trkpt>
      <trkpt lat="45.94341" lon="4.68063">
        <ele>271.4</ele>
        <time>2025-09-11T14:02:16Z</time>
      </trkpt>
      <trkpt lat="45.9434" lon="4.68064">
        <ele>271.6</ele>
        <time>2025-09-11T14:02:17Z</time>
      </trkpt>
      <trkpt lat="45.94339" lon="4.68065">
        <ele>271.8</ele>
        <time>2025-09-11T14:02:18Z</time>
      </trkpt>
      <trkpt lat="45.94339" lon="4.68066">
        <ele>271.8</ele>
        <time>2025-09-11T14:02:19Z</time>
      </trkpt>
      <trkpt lat="45.94338" lon="4.68067">
        <ele>272.2</ele>
        <time>2025-09-11T14:02:20Z</time>
      </trkpt>
      <trkpt lat="45.94337" lon="4.68069">
        <ele>272.6</ele>
        <time>2025-09-11T14:02:21Z</time>
      </trkpt>
      <trkpt lat="45.94337" lon="4.6807">
        <ele>272.6</ele>
        <time>2025-09-11T14:02:22Z</time>
      </trkpt>
      <trkpt lat="45.94336" lon="4.68071">
        <ele>272.8</ele>
        <time>2025-09-11T14:02:23Z</time>
      </trkpt>
      <trkpt lat="45.94336" lon="4.68073">
        <ele>273</ele>
        <time>2025-09-11T14:02:24Z</time>
      </trkpt>
      <trkpt lat="45.94336" lon="4.68074">
        <ele>273.2</ele>
        <time>2025-09-11T14:02:25Z</time>
      </trkpt>
      <trkpt lat="45.94335" lon="4.68076">
        <ele>273.2</ele>
        <time>2025-09-11T14:02:26Z</time>
      </trkpt>
      <trkpt lat="45.94335" lon="4.68077">
        <ele>273.2</ele>
        <time>2025-09-11T14:02:27Z</time>
      </trkpt>
      <trkpt lat="45.94334" lon="4.68078">
        <ele>273.6</ele>
        <time>2025-09-11T14:02:28Z</time>
      </trkpt>
      <trkpt lat="45.94334" lon="4.6808">
        <ele>273.6</ele>
        <time>2025-09-11T14:02:29Z</time>
      </trkpt>
      <trkpt lat="45.94333" lon="4.68081">
        <ele>273.8</ele>
        <time>2025-09-11T14:02:30Z</time>
      </trkpt>
      <trkpt lat="45.94333" lon="4.68083">
        <ele>273.8</ele>
        <time>2025-09-11T14:02:31Z</time>
      </trkpt>
      <trkpt lat="45.94333" lon="4.68084">
        <ele>274</ele>
        <time>2025-09-11T14:02:32Z</time>
      </trkpt>
      <trkpt lat="45.94332" lon="4.68085">
        <ele>274</ele>
        <time>2025-09-11T14:02:33Z</time>
      </trkpt>
      <trkpt lat="45.94332" lon="4.68086">
        <ele>274.4</ele>
        <time>2025-09-11T14:02:34Z</time>
      </trkpt>
      <trkpt lat="45.94331" lon="4.68088">
        <ele>274.4</ele>
        <time>2025-09-11T14:02:35Z</time>
      </trkpt>
      <trkpt lat="45.94331" lon="4.6809">
        <ele>274.4</ele>
        <time>2025-09-11T14:02:36Z</time>
      </trkpt>
      <trkpt lat="45.94331" lon="4.68091">
        <ele>274.6</ele>
        <time>2025-09-11T14:02:37Z</time>
      </trkpt>
      <trkpt lat="45.9433" lon="4.68093">
        <ele>275</ele>
        <time>2025-09-11T14:02:38Z</time>
      </trkpt>
      <trkpt lat="45.9433" lon="4.68094">
        <ele>275</ele>
        <time>2025-09-11T14:02:39Z</time>
      </trkpt>
      <trkpt lat="45.94329" lon="4.68095">
        <ele>275.2</ele>
        <time>2025-09-11T14:02:40Z</time>
      </trkpt>
      <trkpt lat="45.94329" lon="4.68096">
        <ele>275.2</ele>
        <time>2025-09-11T14:02:41Z</time>
      </trkpt>
      <trkpt lat="45.94329" lon="4.68098">
        <ele>275.2</ele>
        <time>2025-09-11T14:02:42Z</time>
      </trkpt>
      <trkpt lat="45.94328" lon="4.68099">
        <ele>275.6</ele>
        <time>2025-09-11T14:02:43Z</time>
      </trkpt>
      <trkpt lat="45.94328" lon="4.68101">
        <ele>275.8</ele>
        <time>2025-09-11T14:02:44Z</time>
      </trkpt>
      <trkpt lat="45.94328" lon="4.68102">
        <ele>275.8</ele>
        <time>2025-09-11T14:02:45Z</time>
      </trkpt>
      <trkpt lat="45.94328" lon="4.68103">
        <ele>276.2</ele>
        <time>2025-09-11T14:02:46Z</time>
      </trkpt>
      <trkpt lat="45.94327" lon="4.68105">
        <ele>276.2</ele>
        <time>2025-09-11T14:02:47Z</time>
      </trkpt>
      <trkpt lat="45.94327" lon="4.68106">
        <ele>276.6</ele>
        <time>2025-09-11T14:02:48Z</time>
      </trkpt>
      <trkpt lat="45.94327" lon="4.68107">
        <ele>276.8</ele>
        <time>2025-09-11T14:02:49Z</time>
      </trkpt>
      <trkpt lat="45.94327" lon="4.68108">
        <ele>277</ele>
        <time>2025-09-11T14:02:50Z</time>
      </trkpt>
      <trkpt lat="45.94326" lon="4.68109">
        <ele>277</ele>
        <time>2025-09-11T14:02:51Z</time>
      </trkpt>
      <trkpt lat="45.94326" lon="4.6811">
        <ele>277.2</ele>
        <time>2025-09-11T14:02:52Z</time>
      </trkpt>
      <trkpt lat="45.94325" lon="4.68112">
        <ele>277.2</ele>
        <time>2025-09-11T14:02:53Z</time>
      </trkpt>
      <trkpt lat="45.94324" lon="4.68113">
        <ele>277.2</ele>
        <time>2025-09-11T14:02:54Z</time>
      </trkpt>
      <trkpt lat="45.94324" lon="4.68115">
        <ele>277.6</ele>
        <time>2025-09-11T14:02:55Z</time>
      </trkpt>
      <trkpt lat="45.94323" lon="4.68116">
        <ele>277.6</ele>
        <time>2025-09-11T14:02:56Z</time>
      </trkpt>
      <trkpt lat="45.94323" lon="4.68118">
        <ele>277.8</ele>
        <time>2025-09-11T14:02:57Z</time>
      </trkpt>
      <trkpt lat="45.94323" lon="4.68119">
        <ele>277.8</ele>
        <time>2025-09-11T14:02:58Z</time>
      </trkpt>
      <trkpt lat="45.94322" lon="4.6812">
        <ele>278.2</ele>
        <time>2025-09-11T14:02:59Z</time>
      </trkpt>
      <trkpt lat="45.94322" lon="4.68122">
        <ele>278.2</ele>
        <time>2025-09-11T14:03:00Z</time>
      </trkpt>
      <trkpt lat="45.94322" lon="4.68123">
        <ele>278.4</ele>
        <time>2025-09-11T14:03:01Z</time>
      </trkpt>
      <trkpt lat="45.94322" lon="4.68124">
        <ele>278.6</ele>
        <time>2025-09-11T14:03:02Z</time>
      </trkpt>
      <trkpt lat="45.94321" lon="4.68125">
        <ele>278.6</ele>
        <time>2025-09-11T14:03:03Z</time>
      </trkpt>
      <trkpt lat="45.94321" lon="4.68127">
        <ele>278.6</ele>
        <time>2025-09-11T14:03:04Z</time>
      </trkpt>
      <trkpt lat="45.94321" lon="4.68129">
        <ele>279</ele>
        <time>2025-09-11T14:03:05Z</time>
      </trkpt>
      <trkpt lat="45.94321" lon="4.6813">
        <ele>279</ele>
        <time>2025-09-11T14:03:06Z</time>
      </trkpt>
      <trkpt lat="45.9432" lon="4.68132">
        <ele>279</ele>
        <time>2025-09-11T14:03:07Z</time>
      </trkpt>
      <trkpt lat="45.9432" lon="4.68134">
        <ele>279.2</ele>
        <time>2025-09-11T14:03:08Z</time>
      </trkpt>
      <trkpt lat="45.9432" lon="4.68135">
        <ele>279.2</ele>
        <time>2025-09-11T14:03:09Z</time>
      </trkpt>
      <trkpt lat="45.9432" lon="4.68136">
        <ele>279.6</ele>
        <time>2025-09-11T14:03:10Z</time>
      </trkpt>
      <trkpt lat="45.9432" lon="4.68138">
        <ele>279.6</ele>
        <time>2025-09-11T14:03:11Z</time>
      </trkpt>
      <trkpt lat="45.9432" lon="4.6814">
        <ele>280</ele>
        <time>2025-09-11T14:03:12Z</time>
      </trkpt>
      <trkpt lat="45.9432" lon="4.68142">
        <ele>280.4</ele>
        <time>2025-09-11T14:03:13Z</time>
      </trkpt>
      <trkpt lat="45.9432" lon="4.68144">
        <ele>280.4</ele>
        <time>2025-09-11T14:03:14Z</time>
      </trkpt>
      <trkpt lat="45.9432" lon="4.68146">
        <ele>280.8</ele>
        <time>2025-09-11T14:03:15Z</time>
      </trkpt>
      <trkpt lat="45.9432" lon="4.68148">
        <ele>280.8</ele>
        <time>2025-09-11T14:03:16Z</time>
      </trkpt>
      <trkpt lat="45.9432" lon="4.68149">
        <ele>280.8</ele>
        <time>2025-09-11T14:03:17Z</time>
      </trkpt>
      <trkpt lat="45.9432" lon="4.68152">
        <ele>281</ele>
        <time>2025-09-11T14:03:18Z</time>
      </trkpt>
      <trkpt lat="45.9432" lon="4.68154">
        <ele>281</ele>
        <time>2025-09-11T14:03:19Z</time>
      </trkpt>
      <trkpt lat="45.9432" lon="4.68156">
        <ele>281.2</ele>
        <time>2025-09-11T14:03:20Z</time>
      </trkpt>
      <trkpt lat="45.9432" lon="4.68158">
        <ele>281.2</ele>
        <time>2025-09-11T14:03:21Z</time>
      </trkpt>
      <trkpt lat="45.94321" lon="4.6816">
        <ele>281.4</ele>
        <time>2025-09-11T14:03:22Z</time>
      </trkpt>
      <trkpt lat="45.94321" lon="4.68162">
        <ele>281.4</ele>
        <time>2025-09-11T14:03:23Z</time>
      </trkpt>
      <trkpt lat="45.94321" lon="4.68165">
        <ele>281.8</ele>
        <time>2025-09-11T14:03:24Z</time>
      </trkpt>
      <trkpt lat="45.94321" lon="4.68167">
        <ele>281.8</ele>
        <time>2025-09-11T14:03:25Z</time>
      </trkpt>
      <trkpt lat="45.94321" lon="4.68169">
        <ele>282</ele>
        <time>2025-09-11T14:03:26Z</time>
      </trkpt>
      <trkpt lat="45.94322" lon="4.6817">
        <ele>282</ele>
        <time>2025-09-11T14:03:27Z</time>
      </trkpt>
      <trkpt lat="45.94322" lon="4.68173">
        <ele>282.4</ele>
        <time>2025-09-11T14:03:28Z</time>
      </trkpt>
      <trkpt lat="45.94322" lon="4.68174">
        <ele>282.4</ele>
        <time>2025-09-11T14:03:29Z</time>
      </trkpt>
      <trkpt lat="45.94322" lon="4.68176">
        <ele>282.6</ele>
        <time>2025-09-11T14:03:30Z</time>
      </trkpt>
      <trkpt lat="45.94323" lon="4.68178">
        <ele>282.6</ele>
        <time>2025-09-11T14:03:31Z</time>
      </trkpt>
      <trkpt lat="45.94323" lon="4.6818">
        <ele>282.6</ele>
        <time>2025-09-11T14:03:32Z</time>
      </trkpt>
      <trkpt lat="45.94323" lon="4.68183">
        <ele>282.6</ele>
        <time>2025-09-11T14:03:33Z</time>
      </trkpt>
      <trkpt lat="45.94323" lon="4.68184">
        <ele>282.6</ele>
        <time>2025-09-11T14:03:34Z</time>
      </trkpt>
      <trkpt lat="45.94323" lon="4.68186">
        <ele>282.8</ele>
        <time>2025-09-11T14:03:35Z</time>
      </trkpt>
      <trkpt lat="45.94324" lon="4.68188">
        <ele>282.8</ele>
        <time>2025-09-11T14:03:36Z</time>
      </trkpt>
      <trkpt lat="45.94324" lon="4.6819">
        <ele>282.8</ele>
        <time>2025-09-11T14:03:37Z</time>
      </trkpt>
      <trkpt lat="45.94324" lon="4.68192">
        <ele>283</ele>
        <time>2025-09-11T14:03:38Z</time>
      </trkpt>
      <trkpt lat="45.94324" lon="4.68194">
        <ele>283.2</ele>
        <time>2025-09-11T14:03:39Z</time>
      </trkpt>
      <trkpt lat="45.94324" lon="4.68196">
        <ele>283.2</ele>
        <time>2025-09-11T14:03:40Z</time>
      </trkpt>
      <trkpt lat="45.94324" lon="4.68198">
        <ele>283.6</ele>
        <time>2025-09-11T14:03:41Z</time>
      </trkpt>
      <trkpt lat="45.94324" lon="4.682">
        <ele>283.6</ele>
        <time>2025-09-11T14:03:42Z</time>
      </trkpt>
      <trkpt lat="45.94324" lon="4.68202">
        <ele>283.8</ele>
        <time>2025-09-11T14:03:43Z</time>
      </trkpt>
      <trkpt lat="45.94323" lon="4.68204">
        <ele>284</ele>
        <time>2025-09-11T14:03:44Z</time>
      </trkpt>
      <trkpt lat="45.94323" lon="4.68206">
        <ele>284</ele>
        <time>2025-09-11T14:03:45Z</time>
      </trkpt>
      <trkpt lat="45.94323" lon="4.68208">
        <ele>284.4</ele>
        <time>2025-09-11T14:03:46Z</time>
      </trkpt>
      <trkpt lat="45.94324" lon="4.6821">
        <ele>284.4</ele>
        <time>2025-09-11T14:03:47Z</time>
      </trkpt>
      <trkpt lat="45.94324" lon="4.68212">
        <ele>284.6</ele>
        <time>2025-09-11T14:03:48Z</time>
      </trkpt>
      <trkpt lat="45.94324" lon="4.68214">
        <ele>284.6</ele>
        <time>2025-09-11T14:03:49Z</time>
      </trkpt>
      <trkpt lat="45.94324" lon="4.68217">
        <ele>285</ele>
        <time>2025-09-11T14:03:50Z</time>
      </trkpt>
      <trkpt lat="45.94325" lon="4.68219">
        <ele>285</ele>
        <time>2025-09-11T14:03:51Z</time>
      </trkpt>
      <trkpt lat="45.94325" lon="4.68221">
        <ele>285.4</ele>
        <time>2025-09-11T14:03:52Z</time>
      </trkpt>
      <trkpt lat="45.94325" lon="4.68223">
        <ele>285.4</ele>
        <time>2025-09-11T14:03:53Z</time>
      </trkpt>
      <trkpt lat="45.94326" lon="4.68225">
        <ele>285.6</ele>
        <time>2025-09-11T14:03:54Z</time>
      </trkpt>
      <trkpt lat="45.94326" lon="4.68227">
        <ele>285.6</ele>
        <time>2025-09-11T14:03:55Z</time>
      </trkpt>
      <trkpt lat="45.94326" lon="4.68229">
        <ele>285.6</ele>
        <time>2025-09-11T14:03:56Z</time>
      </trkpt>
      <trkpt lat="45.94327" lon="4.68231">
        <ele>286</ele>
        <time>2025-09-11T14:03:57Z</time>
      </trkpt>
      <trkpt lat="45.94327" lon="4.68233">
        <ele>286</ele>
        <time>2025-09-11T14:03:58Z</time>
      </trkpt>
      <trkpt lat="45.94328" lon="4.68236">
        <ele>286</ele>
        <time>2025-09-11T14:03:59Z</time>
      </trkpt>
      <trkpt lat="45.94329" lon="4.68239">
        <ele>286</ele>
        <time>2025-09-11T14:04:00Z</time>
      </trkpt>
      <trkpt lat="45.9433" lon="4.68241">
        <ele>286</ele>
        <time>2025-09-11T14:04:01Z</time>
      </trkpt>
      <trkpt lat="45.94331" lon="4.68244">
        <ele>286</ele>
        <time>2025-09-11T14:04:02Z</time>
      </trkpt>
      <trkpt lat="45.94331" lon="4.68247">
        <ele>286.2</ele>
        <time>2025-09-11T14:04:03Z</time>
      </trkpt>
      <trkpt lat="45.94331" lon="4.6825">
        <ele>286.2</ele>
        <time>2025-09-11T14:04:04Z</time>
      </trkpt>
      <trkpt lat="45.94331" lon="4.68253">
        <ele>286.6</ele>
        <time>2025-09-11T14:04:05Z</time>
      </trkpt>
      <trkpt lat="45.94331" lon="4.68256">
        <ele>286.6</ele>
        <time>2025-09-11T14:04:06Z</time>
      </trkpt>
      <trkpt lat="45.94332" lon="4.68258">
        <ele>286.2</ele>
        <time>2025-09-11T14:04:07Z</time>
      </trkpt>
      <trkpt lat="45.94332" lon="4.68261">
        <ele>287</ele>
        <time>2025-09-11T14:04:08Z</time>
      </trkpt>
      <trkpt lat="45.94332" lon="4.68264">
        <ele>287</ele>
        <time>2025-09-11T14:04:09Z</time>
      </trkpt>
      <trkpt lat="45.94332" lon="4.68266">
        <ele>287.2</ele>
        <time>2025-09-11T14:04:10Z</time>
      </trkpt>
      <trkpt lat="45.94331" lon="4.68269">
        <ele>287.2</ele>
        <time>2025-09-11T14:04:11Z</time>
      </trkpt>
      <trkpt lat="45.94332" lon="4.68271">
        <ele>287.2</ele>
        <time>2025-09-11T14:04:12Z</time>
      </trkpt>
      <trkpt lat="45.94332" lon="4.68274">
        <ele>287.6</ele>
        <time>2025-09-11T14:04:13Z</time>
      </trkpt>
      <trkpt lat="45.94332" lon="4.68277">
        <ele>287.6</ele>
        <time>2025-09-11T14:04:14Z</time>
      </trkpt>
      <trkpt lat="45.94332" lon="4.68279">
        <ele>287.8</ele>
        <time>2025-09-11T14:04:15Z</time>
      </trkpt>
      <trkpt lat="45.94332" lon="4.68282">
        <ele>287.8</ele>
        <time>2025-09-11T14:04:16Z</time>
      </trkpt>
      <trkpt lat="45.94332" lon="4.68284">
        <ele>288.2</ele>
        <time>2025-09-11T14:04:17Z</time>
      </trkpt>
      <trkpt lat="45.94332" lon="4.68287">
        <ele>288.2</ele>
        <time>2025-09-11T14:04:18Z</time>
      </trkpt>
      <trkpt lat="45.94332" lon="4.68289">
        <ele>288.2</ele>
        <time>2025-09-11T14:04:19Z</time>
      </trkpt>
      <trkpt lat="45.94332" lon="4.68292">
        <ele>288.6</ele>
        <time>2025-09-11T14:04:20Z</time>
      </trkpt>
      <trkpt lat="45.94332" lon="4.68294">
        <ele>288.6</ele>
        <time>2025-09-11T14:04:21Z</time>
      </trkpt>
      <trkpt lat="45.94332" lon="4.68297">
        <ele>288.8</ele>
        <time>2025-09-11T14:04:22Z</time>
      </trkpt>
      <trkpt lat="45.94332" lon="4.68299">
        <ele>288.8</ele>
        <time>2025-09-11T14:04:23Z</time>
      </trkpt>
      <trkpt lat="45.94333" lon="4.68302">
        <ele>288.8</ele>
        <time>2025-09-11T14:04:24Z</time>
      </trkpt>
      <trkpt lat="45.94333" lon="4.68304">
        <ele>289</ele>
        <time>2025-09-11T14:04:25Z</time>
      </trkpt>
      <trkpt lat="45.94333" lon="4.68307">
        <ele>289</ele>
        <time>2025-09-11T14:04:26Z</time>
      </trkpt>
      <trkpt lat="45.94333" lon="4.68309">
        <ele>289</ele>
        <time>2025-09-11T14:04:27Z</time>
      </trkpt>
      <trkpt lat="45.94333" lon="4.68311">
        <ele>289</ele>
        <time>2025-09-11T14:04:28Z</time>
      </trkpt>
      <trkpt lat="45.94333" lon="4.68314">
        <ele>289.4</ele>
        <time>2025-09-11T14:04:29Z</time>
      </trkpt>
      <trkpt lat="45.94333" lon="4.68316">
        <ele>289.4</ele>
        <time>2025-09-11T14:04:30Z</time>
      </trkpt>
      <trkpt lat="45.94334" lon="4.68319">
        <ele>289.6</ele>
        <time>2025-09-11T14:04:31Z</time>
      </trkpt>
      <trkpt lat="45.94334" lon="4.68321">
        <ele>289.6</ele>
        <time>2025-09-11T14:04:32Z</time>
      </trkpt>
      <trkpt lat="45.94334" lon="4.68324">
        <ele>290</ele>
        <time>2025-09-11T14:04:33Z</time>
      </trkpt>
      <trkpt lat="45.94334" lon="4.68326">
        <ele>290</ele>
        <time>2025-09-11T14:04:34Z</time>
      </trkpt>
      <trkpt lat="45.94335" lon="4.68329">
        <ele>290.2</ele>
        <time>2025-09-11T14:04:35Z</time>
      </trkpt>
      <trkpt lat="45.94335" lon="4.68332">
        <ele>290.2</ele>
        <time>2025-09-11T14:04:36Z</time>
      </trkpt>
      <trkpt lat="45.94335" lon="4.68334">
        <ele>290.2</ele>
        <time>2025-09-11T14:04:37Z</time>
      </trkpt>
      <trkpt lat="45.94336" lon="4.68337">
        <ele>290.4</ele>
        <time>2025-09-11T14:04:38Z</time>
      </trkpt>
      <trkpt lat="45.94336" lon="4.68339">
        <ele>290.4</ele>
        <time>2025-09-11T14:04:39Z</time>
      </trkpt>
      <trkpt lat="45.94336" lon="4.68342">
        <ele>290.6</ele>
        <time>2025-09-11T14:04:40Z</time>
      </trkpt>
      <trkpt lat="45.94336" lon="4.68344">
        <ele>290.6</ele>
        <time>2025-09-11T14:04:41Z</time>
      </trkpt>
      <trkpt lat="45.94337" lon="4.68346">
        <ele>290.6</ele>
        <time>2025-09-11T14:04:42Z</time>
      </trkpt>
      <trkpt lat="45.94337" lon="4.68349">
        <ele>291</ele>
        <time>2025-09-11T14:04:43Z</time>
      </trkpt>
      <trkpt lat="45.94337" lon="4.68351">
        <ele>291</ele>
        <time>2025-09-11T14:04:44Z</time>
      </trkpt>
      <trkpt lat="45.94337" lon="4.68354">
        <ele>291.2</ele>
        <time>2025-09-11T14:04:45Z</time>
      </trkpt>
      <trkpt lat="45.94337" lon="4.68356">
        <ele>291.2</ele>
        <time>2025-09-11T14:04:46Z</time>
      </trkpt>
      <trkpt lat="45.94337" lon="4.68358">
        <ele>291.4</ele>
        <time>2025-09-11T14:04:47Z</time>
      </trkpt>
      <trkpt lat="45.94338" lon="4.68361">
        <ele>291.4</ele>
        <time>2025-09-11T14:04:48Z</time>
      </trkpt>
      <trkpt lat="45.94338" lon="4.68363">
        <ele>291.8</ele>
        <time>2025-09-11T14:04:49Z</time>
      </trkpt>
      <trkpt lat="45.94339" lon="4.68365">
        <ele>291.8</ele>
        <time>2025-09-11T14:04:50Z</time>
      </trkpt>
      <trkpt lat="45.94339" lon="4.68368">
        <ele>291.8</ele>
        <time>2025-09-11T14:04:51Z</time>
      </trkpt>
      <trkpt lat="45.9434" lon="4.6837">
        <ele>292</ele>
        <time>2025-09-11T14:04:52Z</time>
      </trkpt>
      <trkpt lat="45.9434" lon="4.68373">
        <ele>292.4</ele>
        <time>2025-09-11T14:04:53Z</time>
      </trkpt>
      <trkpt lat="45.94341" lon="4.68376">
        <ele>292.4</ele>
        <time>2025-09-11T14:04:54Z</time>
      </trkpt>
      <trkpt lat="45.94342" lon="4.68378">
        <ele>291.6</ele>
        <time>2025-09-11T14:04:55Z</time>
      </trkpt>
      <trkpt lat="45.94343" lon="4.6838">
        <ele>291.6</ele>
        <time>2025-09-11T14:04:56Z</time>
      </trkpt>
      <trkpt lat="45.94344" lon="4.68383">
        <ele>293.2</ele>
        <time>2025-09-11T14:04:57Z</time>
      </trkpt>
      <trkpt lat="45.94345" lon="4.68385">
        <ele>293.6</ele>
        <time>2025-09-11T14:04:58Z</time>
      </trkpt>
      <trkpt lat="45.94346" lon="4.68388">
        <ele>293.6</ele>
        <time>2025-09-11T14:04:59Z</time>
      </trkpt>
      <trkpt lat="45.94347" lon="4.6839">
        <ele>293.6</ele>
        <time>2025-09-11T14:05:00Z</time>
      </trkpt>
      <trkpt lat="45.94348" lon="4.68393">
        <ele>293.6</ele>
        <time>2025-09-11T14:05:01Z</time>
      </trkpt>
      <trkpt lat="45.94349" lon="4.68395">
        <ele>293.6</ele>
        <time>2025-09-11T14:05:02Z</time>
      </trkpt>
      <trkpt lat="45.94349" lon="4.68398">
        <ele>293.6</ele>
        <time>2025-09-11T14:05:03Z</time>
      </trkpt>
      <trkpt lat="45.94349" lon="4.684">
        <ele>293.6</ele>
        <time>2025-09-11T14:05:04Z</time>
      </trkpt>
      <trkpt lat="45.9435" lon="4.68403">
        <ele>293.8</ele>
        <time>2025-09-11T14:05:05Z</time>
      </trkpt>
      <trkpt lat="45.94351" lon="4.68406">
        <ele>293.8</ele>
        <time>2025-09-11T14:05:06Z</time>
      </trkpt>
      <trkpt lat="45.94351" lon="4.68408">
        <ele>293.8</ele>
        <time>2025-09-11T14:05:07Z</time>
      </trkpt>
      <trkpt lat="45.94352" lon="4.68411">
        <ele>294</ele>
        <time>2025-09-11T14:05:08Z</time>
      </trkpt>
      <trkpt lat="45.94352" lon="4.68413">
        <ele>294</ele>
        <time>2025-09-11T14:05:09Z</time>
      </trkpt>
      <trkpt lat="45.94353" lon="4.68415">
        <ele>294</ele>
        <time>2025-09-11T14:05:10Z</time>
      </trkpt>
      <trkpt lat="45.94353" lon="4.68418">
        <ele>294</ele>
        <time>2025-09-11T14:05:11Z</time>
      </trkpt>
      <trkpt lat="45.94354" lon="4.68421">
        <ele>294</ele>
        <time>2025-09-11T14:05:12Z</time>
      </trkpt>
      <trkpt lat="45.94355" lon="4.68423">
        <ele>294</ele>
        <time>2025-09-11T14:05:13Z</time>
      </trkpt>
      <trkpt lat="45.94355" lon="4.68425">
        <ele>294</ele>
        <time>2025-09-11T14:05:14Z</time>
      </trkpt>
      <trkpt lat="45.94356" lon="4.68428">
        <ele>294</ele>
        <time>2025-09-11T14:05:15Z</time>
      </trkpt>
      <trkpt lat="45.94356" lon="4.6843">
        <ele>294.2</ele>
        <time>2025-09-11T14:05:16Z</time>
      </trkpt>
      <trkpt lat="45.94357" lon="4.68433">
        <ele>294.2</ele>
        <time>2025-09-11T14:05:17Z</time>
      </trkpt>
      <trkpt lat="45.94358" lon="4.68435">
        <ele>294.6</ele>
        <time>2025-09-11T14:05:18Z</time>
      </trkpt>
      <trkpt lat="45.94358" lon="4.68437">
        <ele>294.6</ele>
        <time>2025-09-11T14:05:19Z</time>
      </trkpt>
      <trkpt lat="45.94359" lon="4.6844">
        <ele>294.6</ele>
        <time>2025-09-11T14:05:20Z</time>
      </trkpt>
      <trkpt lat="45.94359" lon="4.68443">
        <ele>294.6</ele>
        <time>2025-09-11T14:05:21Z</time>
      </trkpt>
      <trkpt lat="45.9436" lon="4.68446">
        <ele>294.8</ele>
        <time>2025-09-11T14:05:22Z</time>
      </trkpt>
      <trkpt lat="45.9436" lon="4.68448">
        <ele>295</ele>
        <time>2025-09-11T14:05:23Z</time>
      </trkpt>
      <trkpt lat="45.94361" lon="4.68451">
        <ele>295</ele>
        <time>2025-09-11T14:05:24Z</time>
      </trkpt>
      <trkpt lat="45.94361" lon="4.68453">
        <ele>295</ele>
        <time>2025-09-11T14:05:25Z</time>
      </trkpt>
      <trkpt lat="45.94362" lon="4.68456">
        <ele>295.2</ele>
        <time>2025-09-11T14:05:26Z</time>
      </trkpt>
      <trkpt lat="45.94362" lon="4.68459">
        <ele>295.2</ele>
        <time>2025-09-11T14:05:27Z</time>
      </trkpt>
      <trkpt lat="45.94363" lon="4.68461">
        <ele>295.4</ele>
        <time>2025-09-11T14:05:28Z</time>
      </trkpt>
      <trkpt lat="45.94364" lon="4.68464">
        <ele>295.4</ele>
        <time>2025-09-11T14:05:29Z</time>
      </trkpt>
      <trkpt lat="45.94365" lon="4.68466">
        <ele>295.4</ele>
        <time>2025-09-11T14:05:30Z</time>
      </trkpt>
      <trkpt lat="45.94365" lon="4.68469">
        <ele>295.8</ele>
        <time>2025-09-11T14:05:31Z</time>
      </trkpt>
      <trkpt lat="45.94366" lon="4.68472">
        <ele>295.8</ele>
        <time>2025-09-11T14:05:32Z</time>
      </trkpt>
      <trkpt lat="45.94366" lon="4.68474">
        <ele>296</ele>
        <time>2025-09-11T14:05:33Z</time>
      </trkpt>
      <trkpt lat="45.94367" lon="4.68477">
        <ele>296</ele>
        <time>2025-09-11T14:05:34Z</time>
      </trkpt>
      <trkpt lat="45.94367" lon="4.68479">
        <ele>296</ele>
        <time>2025-09-11T14:05:35Z</time>
      </trkpt>
      <trkpt lat="45.94367" lon="4.68482">
        <ele>296.4</ele>
        <time>2025-09-11T14:05:36Z</time>
      </trkpt>
      <trkpt lat="45.94368" lon="4.68485">
        <ele>296.6</ele>
        <time>2025-09-11T14:05:37Z</time>
      </trkpt>
      <trkpt lat="45.94368" lon="4.68487">
        <ele>296.6</ele>
        <time>2025-09-11T14:05:38Z</time>
      </trkpt>
      <trkpt lat="45.94368" lon="4.6849">
        <ele>296.6</ele>
        <time>2025-09-11T14:05:39Z</time>
      </trkpt>
      <trkpt lat="45.94368" lon="4.68492">
        <ele>296.6</ele>
        <time>2025-09-11T14:05:40Z</time>
      </trkpt>
      <trkpt lat="45.94369" lon="4.68494">
        <ele>297</ele>
        <time>2025-09-11T14:05:41Z</time>
      </trkpt>
      <trkpt lat="45.94369" lon="4.68497">
        <ele>297</ele>
        <time>2025-09-11T14:05:42Z</time>
      </trkpt>
      <trkpt lat="45.94369" lon="4.68499">
        <ele>297</ele>
        <time>2025-09-11T14:05:43Z</time>
      </trkpt>
      <trkpt lat="45.9437" lon="4.68501">
        <ele>297.4</ele>
        <time>2025-09-11T14:05:44Z</time>
      </trkpt>
      <trkpt lat="45.94371" lon="4.68504">
        <ele>297.4</ele>
        <time>2025-09-11T14:05:45Z</time>
      </trkpt>
      <trkpt lat="45.94371" lon="4.68506">
        <ele>297.8</ele>
        <time>2025-09-11T14:05:46Z</time>
      </trkpt>
      <trkpt lat="45.94372" lon="4.68509">
        <ele>298</ele>
        <time>2025-09-11T14:05:47Z</time>
      </trkpt>
      <trkpt lat="45.94372" lon="4.68511">
        <ele>298</ele>
        <time>2025-09-11T14:05:48Z</time>
      </trkpt>
      <trkpt lat="45.94372" lon="4.68514">
        <ele>298</ele>
        <time>2025-09-11T14:05:49Z</time>
      </trkpt>
      <trkpt lat="45.94373" lon="4.68516">
        <ele>298.2</ele>
        <time>2025-09-11T14:05:50Z</time>
      </trkpt>
      <trkpt lat="45.94373" lon="4.68518">
        <ele>298.4</ele>
        <time>2025-09-11T14:05:51Z</time>
      </trkpt>
      <trkpt lat="45.94374" lon="4.6852">
        <ele>298.4</ele>
        <time>2025-09-11T14:05:52Z</time>
      </trkpt>
      <trkpt lat="45.94375" lon="4.68523">
        <ele>298.2</ele>
        <time>2025-09-11T14:05:53Z</time>
      </trkpt>
      <trkpt lat="45.94376" lon="4.68525">
        <ele>298.6</ele>
        <time>2025-09-11T14:05:54Z</time>
      </trkpt>
      <trkpt lat="45.94377" lon="4.68527">
        <ele>299</ele>
        <time>2025-09-11T14:05:55Z</time>
      </trkpt>
      <trkpt lat="45.94378" lon="4.68529">
        <ele>299</ele>
        <time>2025-09-11T14:05:56Z</time>
      </trkpt>
      <trkpt lat="45.94379" lon="4.68531">
        <ele>299.4</ele>
        <time>2025-09-11T14:05:57Z</time>
      </trkpt>
      <trkpt lat="45.9438" lon="4.68533">
        <ele>299.4</ele>
        <time>2025-09-11T14:05:58Z</time>
      </trkpt>
      <trkpt lat="45.94381" lon="4.68535">
        <ele>299.4</ele>
        <time>2025-09-11T14:05:59Z</time>
      </trkpt>
      <trkpt lat="45.94382" lon="4.68537">
        <ele>299.6</ele>
        <time>2025-09-11T14:06:00Z</time>
      </trkpt>
      <trkpt lat="45.94383" lon="4.68539">
        <ele>299.6</ele>
        <time>2025-09-11T14:06:01Z</time>
      </trkpt>
      <trkpt lat="45.94384" lon="4.68541">
        <ele>299.8</ele>
        <time>2025-09-11T14:06:02Z</time>
      </trkpt>
      <trkpt lat="45.94385" lon="4.68545">
        <ele>299.8</ele>
        <time>2025-09-11T14:06:03Z</time>
      </trkpt>
      <trkpt lat="45.94386" lon="4.68546">
        <ele>300.2</ele>
        <time>2025-09-11T14:06:04Z</time>
      </trkpt>
      <trkpt lat="45.94386" lon="4.68548">
        <ele>300.6</ele>
        <time>2025-09-11T14:06:05Z</time>
      </trkpt>
      <trkpt lat="45.94387" lon="4.6855">
        <ele>300.8</ele>
        <time>2025-09-11T14:06:06Z</time>
      </trkpt>
      <trkpt lat="45.94388" lon="4.68551">
        <ele>300.8</ele>
        <time>2025-09-11T14:06:07Z</time>
      </trkpt>
      <trkpt lat="45.94388" lon="4.68552">
        <ele>301</ele>
        <time>2025-09-11T14:06:08Z</time>
      </trkpt>
      <trkpt lat="45.94389" lon="4.68554">
        <ele>301</ele>
        <time>2025-09-11T14:06:09Z</time>
      </trkpt>
      <trkpt lat="45.94389" lon="4.68556">
        <ele>301.4</ele>
        <time>2025-09-11T14:06:10Z</time>
      </trkpt>
      <trkpt lat="45.9439" lon="4.68558">
        <ele>301.4</ele>
        <time>2025-09-11T14:06:11Z</time>
      </trkpt>
      <trkpt lat="45.9439" lon="4.6856">
        <ele>301.6</ele>
        <time>2025-09-11T14:06:12Z</time>
      </trkpt>
      <trkpt lat="45.9439" lon="4.6856">
        <ele>301.6</ele>
        <time>2025-09-11T14:06:13Z</time>
      </trkpt>
      <trkpt lat="45.94391" lon="4.68562">
        <ele>302</ele>
        <time>2025-09-11T14:06:14Z</time>
      </trkpt>
      <trkpt lat="45.94391" lon="4.68564">
        <ele>302</ele>
        <time>2025-09-11T14:06:15Z</time>
      </trkpt>
      <trkpt lat="45.94392" lon="4.68565">
        <ele>302.4</ele>
        <time>2025-09-11T14:06:16Z</time>
      </trkpt>
      <trkpt lat="45.94393" lon="4.68567">
        <ele>302.4</ele>
        <time>2025-09-11T14:06:17Z</time>
      </trkpt>
      <trkpt lat="45.94394" lon="4.68568">
        <ele>302.6</ele>
        <time>2025-09-11T14:06:18Z</time>
      </trkpt>
      <trkpt lat="45.94395" lon="4.6857">
        <ele>302.6</ele>
        <time>2025-09-11T14:06:19Z</time>
      </trkpt>
      <trkpt lat="45.94396" lon="4.68572">
        <ele>302.6</ele>
        <time>2025-09-11T14:06:20Z</time>
      </trkpt>
      <trkpt lat="45.94397" lon="4.68574">
        <ele>303</ele>
        <time>2025-09-11T14:06:21Z</time>
      </trkpt>
      <trkpt lat="45.94397" lon="4.68576">
        <ele>303</ele>
        <time>2025-09-11T14:06:22Z</time>
      </trkpt>
      <trkpt lat="45.94398" lon="4.68578">
        <ele>303</ele>
        <time>2025-09-11T14:06:23Z</time>
      </trkpt>
      <trkpt lat="45.94398" lon="4.68579">
        <ele>303.2</ele>
        <time>2025-09-11T14:06:24Z</time>
      </trkpt>
      <trkpt lat="45.94399" lon="4.68581">
        <ele>303.2</ele>
        <time>2025-09-11T14:06:25Z</time>
      </trkpt>
      <trkpt lat="45.944" lon="4.68583">
        <ele>303.4</ele>
        <time>2025-09-11T14:06:26Z</time>
      </trkpt>
      <trkpt lat="45.944" lon="4.68585">
        <ele>303.4</ele>
        <time>2025-09-11T14:06:27Z</time>
      </trkpt>
      <trkpt lat="45.94401" lon="4.68587">
        <ele>303.8</ele>
        <time>2025-09-11T14:06:28Z</time>
      </trkpt>
      <trkpt lat="45.94402" lon="4.68588">
        <ele>303.8</ele>
        <time>2025-09-11T14:06:29Z</time>
      </trkpt>
      <trkpt lat="45.94402" lon="4.6859">
        <ele>304.2</ele>
        <time>2025-09-11T14:06:30Z</time>
      </trkpt>
      <trkpt lat="45.94402" lon="4.68592">
        <ele>304.2</ele>
        <time>2025-09-11T14:06:31Z</time>
      </trkpt>
      <trkpt lat="45.94402" lon="4.68594">
        <ele>304.4</ele>
        <time>2025-09-11T14:06:32Z</time>
      </trkpt>
      <trkpt lat="45.94402" lon="4.68596">
        <ele>304.8</ele>
        <time>2025-09-11T14:06:33Z</time>
      </trkpt>
      <trkpt lat="45.94403" lon="4.68598">
        <ele>305.2</ele>
        <time>2025-09-11T14:06:34Z</time>
      </trkpt>
      <trkpt lat="45.94404" lon="4.686">
        <ele>305.4</ele>
        <time>2025-09-11T14:06:35Z</time>
      </trkpt>
      <trkpt lat="45.94404" lon="4.68602">
        <ele>305.4</ele>
        <time>2025-09-11T14:06:36Z</time>
      </trkpt>
      <trkpt lat="45.94405" lon="4.68604">
        <ele>305.4</ele>
        <time>2025-09-11T14:06:37Z</time>
      </trkpt>
      <trkpt lat="45.94406" lon="4.68606">
        <ele>305.6</ele>
        <time>2025-09-11T14:06:38Z</time>
      </trkpt>
      <trkpt lat="45.94406" lon="4.68607">
        <ele>305.8</ele>
        <time>2025-09-11T14:06:39Z</time>
      </trkpt>
      <trkpt lat="45.94407" lon="4.68609">
        <ele>305.8</ele>
        <time>2025-09-11T14:06:40Z</time>
      </trkpt>
      <trkpt lat="45.94408" lon="4.68611">
        <ele>306.2</ele>
        <time>2025-09-11T14:06:41Z</time>
      </trkpt>
      <trkpt lat="45.94408" lon="4.68613">
        <ele>306.2</ele>
        <time>2025-09-11T14:06:42Z</time>
      </trkpt>
      <trkpt lat="45.94409" lon="4.68615">
        <ele>306.6</ele>
        <time>2025-09-11T14:06:43Z</time>
      </trkpt>
      <trkpt lat="45.9441" lon="4.68616">
        <ele>306.6</ele>
        <time>2025-09-11T14:06:44Z</time>
      </trkpt>
      <trkpt lat="45.9441" lon="4.68618">
        <ele>306.8</ele>
        <time>2025-09-11T14:06:45Z</time>
      </trkpt>
      <trkpt lat="45.94411" lon="4.6862">
        <ele>306.8</ele>
        <time>2025-09-11T14:06:46Z</time>
      </trkpt>
      <trkpt lat="45.94411" lon="4.68621">
        <ele>307.2</ele>
        <time>2025-09-11T14:06:47Z</time>
      </trkpt>
      <trkpt lat="45.94412" lon="4.68623">
        <ele>307.2</ele>
        <time>2025-09-11T14:06:48Z</time>
      </trkpt>
      <trkpt lat="45.94413" lon="4.68624">
        <ele>307.6</ele>
        <time>2025-09-11T14:06:49Z</time>
      </trkpt>
      <trkpt lat="45.94414" lon="4.68626">
        <ele>307.6</ele>
        <time>2025-09-11T14:06:50Z</time>
      </trkpt>
      <trkpt lat="45.94414" lon="4.68628">
        <ele>307.6</ele>
        <time>2025-09-11T14:06:51Z</time>
      </trkpt>
      <trkpt lat="45.94415" lon="4.6863">
        <ele>307.8</ele>
        <time>2025-09-11T14:06:52Z</time>
      </trkpt>
      <trkpt lat="45.94415" lon="4.68632">
        <ele>307.8</ele>
        <time>2025-09-11T14:06:53Z</time>
      </trkpt>
      <trkpt lat="45.94416" lon="4.68634">
        <ele>308.2</ele>
        <time>2025-09-11T14:06:54Z</time>
      </trkpt>
      <trkpt lat="45.94416" lon="4.68636">
        <ele>308.2</ele>
        <time>2025-09-11T14:06:55Z</time>
      </trkpt>
      <trkpt lat="45.94417" lon="4.68638">
        <ele>308.4</ele>
        <time>2025-09-11T14:06:56Z</time>
      </trkpt>
      <trkpt lat="45.94417" lon="4.6864">
        <ele>308.4</ele>
        <time>2025-09-11T14:06:57Z</time>
      </trkpt>
      <trkpt lat="45.94417" lon="4.68642">
        <ele>308.8</ele>
        <time>2025-09-11T14:06:58Z</time>
      </trkpt>
      <trkpt lat="45.94417" lon="4.68645">
        <ele>309</ele>
        <time>2025-09-11T14:06:59Z</time>
      </trkpt>
      <trkpt lat="45.94417" lon="4.68647">
        <ele>309</ele>
        <time>2025-09-11T14:07:00Z</time>
      </trkpt>
      <trkpt lat="45.94418" lon="4.68649">
        <ele>309</ele>
        <time>2025-09-11T14:07:01Z</time>
      </trkpt>
      <trkpt lat="45.94419" lon="4.6865">
        <ele>309.4</ele>
        <time>2025-09-11T14:07:02Z</time>
      </trkpt>
      <trkpt lat="45.9442" lon="4.68651">
        <ele>309.4</ele>
        <time>2025-09-11T14:07:03Z</time>
      </trkpt>
      <trkpt lat="45.94421" lon="4.68653">
        <ele>309.6</ele>
        <time>2025-09-11T14:07:04Z</time>
      </trkpt>
      <trkpt lat="45.94422" lon="4.68654">
        <ele>309.6</ele>
        <time>2025-09-11T14:07:05Z</time>
      </trkpt>
      <trkpt lat="45.94422" lon="4.68656">
        <ele>310</ele>
        <time>2025-09-11T14:07:06Z</time>
      </trkpt>
      <trkpt lat="45.94423" lon="4.68657">
        <ele>310</ele>
        <time>2025-09-11T14:07:07Z</time>
      </trkpt>
      <trkpt lat="45.94424" lon="4.68659">
        <ele>310</ele>
        <time>2025-09-11T14:07:08Z</time>
      </trkpt>
      <trkpt lat="45.94424" lon="4.6866">
        <ele>310.2</ele>
        <time>2025-09-11T14:07:09Z</time>
      </trkpt>
      <trkpt lat="45.94424" lon="4.68662">
        <ele>310.2</ele>
        <time>2025-09-11T14:07:10Z</time>
      </trkpt>
      <trkpt lat="45.94424" lon="4.68663">
        <ele>310.2</ele>
        <time>2025-09-11T14:07:11Z</time>
      </trkpt>
      <trkpt lat="45.94425" lon="4.68665">
        <ele>310.8</ele>
        <time>2025-09-11T14:07:12Z</time>
      </trkpt>
      <trkpt lat="45.94425" lon="4.68666">
        <ele>310.8</ele>
        <time>2025-09-11T14:07:13Z</time>
      </trkpt>
      <trkpt lat="45.94426" lon="4.68668">
        <ele>311.2</ele>
        <time>2025-09-11T14:07:14Z</time>
      </trkpt>
      <trkpt lat="45.94427" lon="4.68669">
        <ele>311.2</ele>
        <time>2025-09-11T14:07:15Z</time>
      </trkpt>
      <trkpt lat="45.94427" lon="4.6867">
        <ele>311.6</ele>
        <time>2025-09-11T14:07:16Z</time>
      </trkpt>
      <trkpt lat="45.94428" lon="4.68671">
        <ele>311.6</ele>
        <time>2025-09-11T14:07:17Z</time>
      </trkpt>
      <trkpt lat="45.94429" lon="4.68673">
        <ele>312</ele>
        <time>2025-09-11T14:07:18Z</time>
      </trkpt>
      <trkpt lat="45.9443" lon="4.68674">
        <ele>312</ele>
        <time>2025-09-11T14:07:19Z</time>
      </trkpt>
      <trkpt lat="45.9443" lon="4.68676">
        <ele>312.2</ele>
        <time>2025-09-11T14:07:20Z</time>
      </trkpt>
      <trkpt lat="45.94431" lon="4.68678">
        <ele>312.4</ele>
        <time>2025-09-11T14:07:21Z</time>
      </trkpt>
      <trkpt lat="45.94431" lon="4.68679">
        <ele>312.4</ele>
        <time>2025-09-11T14:07:22Z</time>
      </trkpt>
      <trkpt lat="45.94432" lon="4.68681">
        <ele>312.8</ele>
        <time>2025-09-11T14:07:23Z</time>
      </trkpt>
      <trkpt lat="45.94432" lon="4.68683">
        <ele>312.8</ele>
        <time>2025-09-11T14:07:24Z</time>
      </trkpt>
      <trkpt lat="45.94433" lon="4.68685">
        <ele>313</ele>
        <time>2025-09-11T14:07:25Z</time>
      </trkpt>
      <trkpt lat="45.94433" lon="4.68687">
        <ele>313.4</ele>
        <time>2025-09-11T14:07:26Z</time>
      </trkpt>
      <trkpt lat="45.94433" lon="4.68687">
        <ele>313.4</ele>
        <time>2025-09-11T14:07:27Z</time>
      </trkpt>
      <trkpt lat="45.94434" lon="4.68688">
        <ele>313.4</ele>
        <time>2025-09-11T14:07:28Z</time>
      </trkpt>
      <trkpt lat="45.94435" lon="4.68689">
        <ele>313.6</ele>
        <time>2025-09-11T14:07:29Z</time>
      </trkpt>
      <trkpt lat="45.94436" lon="4.68691">
        <ele>313.6</ele>
        <time>2025-09-11T14:07:30Z</time>
      </trkpt>
      <trkpt lat="45.94437" lon="4.68693">
        <ele>314</ele>
        <time>2025-09-11T14:07:31Z</time>
      </trkpt>
      <trkpt lat="45.94438" lon="4.68695">
        <ele>314</ele>
        <time>2025-09-11T14:07:32Z</time>
      </trkpt>
      <trkpt lat="45.94439" lon="4.68696">
        <ele>314.2</ele>
        <time>2025-09-11T14:07:33Z</time>
      </trkpt>
      <trkpt lat="45.94439" lon="4.68697">
        <ele>314.2</ele>
        <time>2025-09-11T14:07:34Z</time>
      </trkpt>
      <trkpt lat="45.9444" lon="4.68699">
        <ele>314.2</ele>
        <time>2025-09-11T14:07:35Z</time>
      </trkpt>
      <trkpt lat="45.94441" lon="4.687">
        <ele>314.6</ele>
        <time>2025-09-11T14:07:36Z</time>
      </trkpt>
      <trkpt lat="45.94442" lon="4.68702">
        <ele>314.6</ele>
        <time>2025-09-11T14:07:37Z</time>
      </trkpt>
      <trkpt lat="45.94443" lon="4.68703">
        <ele>314.8</ele>
        <time>2025-09-11T14:07:38Z</time>
      </trkpt>
      <trkpt lat="45.94444" lon="4.68704">
        <ele>314.8</ele>
        <time>2025-09-11T14:07:39Z</time>
      </trkpt>
      <trkpt lat="45.94445" lon="4.68705">
        <ele>315.2</ele>
        <time>2025-09-11T14:07:40Z</time>
      </trkpt>
      <trkpt lat="45.94447" lon="4.68707">
        <ele>315.2</ele>
        <time>2025-09-11T14:07:41Z</time>
      </trkpt>
      <trkpt lat="45.94449" lon="4.68708">
        <ele>315.2</ele>
        <time>2025-09-11T14:07:42Z</time>
      </trkpt>
      <trkpt lat="45.9445" lon="4.68709">
        <ele>315.2</ele>
        <time>2025-09-11T14:07:43Z</time>
      </trkpt>
      <trkpt lat="45.94451" lon="4.68711">
        <ele>315.8</ele>
        <time>2025-09-11T14:07:44Z</time>
      </trkpt>
      <trkpt lat="45.94453" lon="4.68712">
        <ele>316</ele>
        <time>2025-09-11T14:07:45Z</time>
      </trkpt>
      <trkpt lat="45.94454" lon="4.68713">
        <ele>316.4</ele>
        <time>2025-09-11T14:07:46Z</time>
      </trkpt>
      <trkpt lat="45.94456" lon="4.68714">
        <ele>316.6</ele>
        <time>2025-09-11T14:07:47Z</time>
      </trkpt>
      <trkpt lat="45.94458" lon="4.68715">
        <ele>316.8</ele>
        <time>2025-09-11T14:07:48Z</time>
      </trkpt>
      <trkpt lat="45.94459" lon="4.68716">
        <ele>316.8</ele>
        <time>2025-09-11T14:07:49Z</time>
      </trkpt>
      <trkpt lat="45.94461" lon="4.68717">
        <ele>316.8</ele>
        <time>2025-09-11T14:07:50Z</time>
      </trkpt>
      <trkpt lat="45.94463" lon="4.68718">
        <ele>317</ele>
        <time>2025-09-11T14:07:51Z</time>
      </trkpt>
      <trkpt lat="45.94465" lon="4.68718">
        <ele>317</ele>
        <time>2025-09-11T14:07:52Z</time>
      </trkpt>
      <trkpt lat="45.94466" lon="4.68719">
        <ele>317</ele>
        <time>2025-09-11T14:07:53Z</time>
      </trkpt>
      <trkpt lat="45.94468" lon="4.6872">
        <ele>317.2</ele>
        <time>2025-09-11T14:07:54Z</time>
      </trkpt>
      <trkpt lat="45.94469" lon="4.68721">
        <ele>317.2</ele>
        <time>2025-09-11T14:07:55Z</time>
      </trkpt>
      <trkpt lat="45.94471" lon="4.68722">
        <ele>317.2</ele>
        <time>2025-09-11T14:07:56Z</time>
      </trkpt>
      <trkpt lat="45.94473" lon="4.68723">
        <ele>317.8</ele>
        <time>2025-09-11T14:07:57Z</time>
      </trkpt>
      <trkpt lat="45.94474" lon="4.68724">
        <ele>317.4</ele>
        <time>2025-09-11T14:07:58Z</time>
      </trkpt>
      <trkpt lat="45.94475" lon="4.68724">
        <ele>317.4</ele>
        <time>2025-09-11T14:07:59Z</time>
      </trkpt>
      <trkpt lat="45.94477" lon="4.68726">
        <ele>317.6</ele>
        <time>2025-09-11T14:08:00Z</time>
      </trkpt>
      <trkpt lat="45.94478" lon="4.68728">
        <ele>317.6</ele>
        <time>2025-09-11T14:08:01Z</time>
      </trkpt>
      <trkpt lat="45.94479" lon="4.6873">
        <ele>318</ele>
        <time>2025-09-11T14:08:02Z</time>
      </trkpt>
      <trkpt lat="45.94479" lon="4.68732">
        <ele>318</ele>
        <time>2025-09-11T14:08:03Z</time>
      </trkpt>
      <trkpt lat="45.9448" lon="4.68734">
        <ele>318</ele>
        <time>2025-09-11T14:08:04Z</time>
      </trkpt>
      <trkpt lat="45.9448" lon="4.68737">
        <ele>318.4</ele>
        <time>2025-09-11T14:08:05Z</time>
      </trkpt>
      <trkpt lat="45.94481" lon="4.68739">
        <ele>318.4</ele>
        <time>2025-09-11T14:08:06Z</time>
      </trkpt>
      <trkpt lat="45.94481" lon="4.68741">
        <ele>318.6</ele>
        <time>2025-09-11T14:08:07Z</time>
      </trkpt>
      <trkpt lat="45.94481" lon="4.68743">
        <ele>318.6</ele>
        <time>2025-09-11T14:08:08Z</time>
      </trkpt>
      <trkpt lat="45.94481" lon="4.68746">
        <ele>318.6</ele>
        <time>2025-09-11T14:08:09Z</time>
      </trkpt>
      <trkpt lat="45.9448" lon="4.68749">
        <ele>318.8</ele>
        <time>2025-09-11T14:08:10Z</time>
      </trkpt>
      <trkpt lat="45.94479" lon="4.68751">
        <ele>318.8</ele>
        <time>2025-09-11T14:08:11Z</time>
      </trkpt>
      <trkpt lat="45.94479" lon="4.68753">
        <ele>319.2</ele>
        <time>2025-09-11T14:08:12Z</time>
      </trkpt>
      <trkpt lat="45.94478" lon="4.68756">
        <ele>319.2</ele>
        <time>2025-09-11T14:08:13Z</time>
      </trkpt>
      <trkpt lat="45.94477" lon="4.68759">
        <ele>319.4</ele>
        <time>2025-09-11T14:08:14Z</time>
      </trkpt>
      <trkpt lat="45.94476" lon="4.68761">
        <ele>319.4</ele>
        <time>2025-09-11T14:08:15Z</time>
      </trkpt>
      <trkpt lat="45.94476" lon="4.68764">
        <ele>319.8</ele>
        <time>2025-09-11T14:08:16Z</time>
      </trkpt>
      <trkpt lat="45.94475" lon="4.68766">
        <ele>319.8</ele>
        <time>2025-09-11T14:08:17Z</time>
      </trkpt>
      <trkpt lat="45.94475" lon="4.68769">
        <ele>320</ele>
        <time>2025-09-11T14:08:18Z</time>
      </trkpt>
      <trkpt lat="45.94474" lon="4.68771">
        <ele>320</ele>
        <time>2025-09-11T14:08:19Z</time>
      </trkpt>
      <trkpt lat="45.94474" lon="4.68773">
        <ele>320.4</ele>
        <time>2025-09-11T14:08:20Z</time>
      </trkpt>
      <trkpt lat="45.94474" lon="4.68776">
        <ele>320.4</ele>
        <time>2025-09-11T14:08:21Z</time>
      </trkpt>
      <trkpt lat="45.94473" lon="4.68778">
        <ele>320.6</ele>
        <time>2025-09-11T14:08:22Z</time>
      </trkpt>
      <trkpt lat="45.94473" lon="4.6878">
        <ele>320.6</ele>
        <time>2025-09-11T14:08:23Z</time>
      </trkpt>
      <trkpt lat="45.94472" lon="4.68783">
        <ele>321</ele>
        <time>2025-09-11T14:08:24Z</time>
      </trkpt>
      <trkpt lat="45.94472" lon="4.68785">
        <ele>321</ele>
        <time>2025-09-11T14:08:25Z</time>
      </trkpt>
      <trkpt lat="45.94472" lon="4.68787">
        <ele>321.2</ele>
        <time>2025-09-11T14:08:26Z</time>
      </trkpt>
      <trkpt lat="45.94471" lon="4.68789">
        <ele>321.2</ele>
        <time>2025-09-11T14:08:27Z</time>
      </trkpt>
      <trkpt lat="45.94471" lon="4.68792">
        <ele>321.8</ele>
        <time>2025-09-11T14:08:28Z</time>
      </trkpt>
      <trkpt lat="45.9447" lon="4.68794">
        <ele>322</ele>
        <time>2025-09-11T14:08:29Z</time>
      </trkpt>
      <trkpt lat="45.9447" lon="4.68796">
        <ele>322</ele>
        <time>2025-09-11T14:08:30Z</time>
      </trkpt>
      <trkpt lat="45.94469" lon="4.68799">
        <ele>322.2</ele>
        <time>2025-09-11T14:08:31Z</time>
      </trkpt>
      <trkpt lat="45.94469" lon="4.68801">
        <ele>322.2</ele>
        <time>2025-09-11T14:08:32Z</time>
      </trkpt>
      <trkpt lat="45.94469" lon="4.68803">
        <ele>322.2</ele>
        <time>2025-09-11T14:08:33Z</time>
      </trkpt>
      <trkpt lat="45.94469" lon="4.68805">
        <ele>322.6</ele>
        <time>2025-09-11T14:08:34Z</time>
      </trkpt>
      <trkpt lat="45.94468" lon="4.68807">
        <ele>322.8</ele>
        <time>2025-09-11T14:08:35Z</time>
      </trkpt>
      <trkpt lat="45.94468" lon="4.68809">
        <ele>322.8</ele>
        <time>2025-09-11T14:08:36Z</time>
      </trkpt>
      <trkpt lat="45.94467" lon="4.68812">
        <ele>323</ele>
        <time>2025-09-11T14:08:37Z</time>
      </trkpt>
      <trkpt lat="45.94467" lon="4.68814">
        <ele>323</ele>
        <time>2025-09-11T14:08:38Z</time>
      </trkpt>
      <trkpt lat="45.94467" lon="4.68815">
        <ele>323.4</ele>
        <time>2025-09-11T14:08:39Z</time>
      </trkpt>
      <trkpt lat="45.94466" lon="4.68817">
        <ele>323.4</ele>
        <time>2025-09-11T14:08:40Z</time>
      </trkpt>
      <trkpt lat="45.94465" lon="4.68819">
        <ele>323.6</ele>
        <time>2025-09-11T14:08:41Z</time>
      </trkpt>
      <trkpt lat="45.94465" lon="4.68821">
        <ele>323.6</ele>
        <time>2025-09-11T14:08:42Z</time>
      </trkpt>
      <trkpt lat="45.94465" lon="4.68823">
        <ele>323.8</ele>
        <time>2025-09-11T14:08:43Z</time>
      </trkpt>
      <trkpt lat="45.94464" lon="4.68825">
        <ele>324</ele>
        <time>2025-09-11T14:08:44Z</time>
      </trkpt>
      <trkpt lat="45.94464" lon="4.68828">
        <ele>324</ele>
        <time>2025-09-11T14:08:45Z</time>
      </trkpt>
      <trkpt lat="45.94463" lon="4.6883">
        <ele>324</ele>
        <time>2025-09-11T14:08:46Z</time>
      </trkpt>
      <trkpt lat="45.94462" lon="4.68832">
        <ele>324.4</ele>
        <time>2025-09-11T14:08:47Z</time>
      </trkpt>
      <trkpt lat="45.94462" lon="4.68834">
        <ele>324.4</ele>
        <time>2025-09-11T14:08:48Z</time>
      </trkpt>
      <trkpt lat="45.94461" lon="4.68836">
        <ele>324.8</ele>
        <time>2025-09-11T14:08:49Z</time>
      </trkpt>
      <trkpt lat="45.9446" lon="4.68838">
        <ele>325</ele>
        <time>2025-09-11T14:08:50Z</time>
      </trkpt>
      <trkpt lat="45.9446" lon="4.68839">
        <ele>325</ele>
        <time>2025-09-11T14:08:51Z</time>
      </trkpt>
      <trkpt lat="45.9446" lon="4.68841">
        <ele>325.2</ele>
        <time>2025-09-11T14:08:52Z</time>
      </trkpt>
      <trkpt lat="45.9446" lon="4.68843">
        <ele>325.4</ele>
        <time>2025-09-11T14:08:53Z</time>
      </trkpt>
      <trkpt lat="45.9446" lon="4.68845">
        <ele>325.4</ele>
        <time>2025-09-11T14:08:54Z</time>
      </trkpt>
      <trkpt lat="45.94459" lon="4.68847">
        <ele>325.6</ele>
        <time>2025-09-11T14:08:55Z</time>
      </trkpt>
      <trkpt lat="45.94459" lon="4.68849">
        <ele>326</ele>
        <time>2025-09-11T14:08:56Z</time>
      </trkpt>
      <trkpt lat="45.94458" lon="4.68851">
        <ele>326.2</ele>
        <time>2025-09-11T14:08:57Z</time>
      </trkpt>
      <trkpt lat="45.94458" lon="4.68854">
        <ele>326.2</ele>
        <time>2025-09-11T14:08:58Z</time>
      </trkpt>
      <trkpt lat="45.94458" lon="4.68856">
        <ele>326.2</ele>
        <time>2025-09-11T14:08:59Z</time>
      </trkpt>
      <trkpt lat="45.94457" lon="4.68858">
        <ele>326.6</ele>
        <time>2025-09-11T14:09:00Z</time>
      </trkpt>
      <trkpt lat="45.94457" lon="4.6886">
        <ele>326.6</ele>
        <time>2025-09-11T14:09:01Z</time>
      </trkpt>
      <trkpt lat="45.94457" lon="4.68862">
        <ele>326.8</ele>
        <time>2025-09-11T14:09:02Z</time>
      </trkpt>
      <trkpt lat="45.94457" lon="4.68865">
        <ele>326.8</ele>
        <time>2025-09-11T14:09:03Z</time>
      </trkpt>
      <trkpt lat="45.94457" lon="4.68867">
        <ele>327.2</ele>
        <time>2025-09-11T14:09:04Z</time>
      </trkpt>
      <trkpt lat="45.94456" lon="4.68869">
        <ele>327.4</ele>
        <time>2025-09-11T14:09:05Z</time>
      </trkpt>
      <trkpt lat="45.94456" lon="4.68871">
        <ele>327.4</ele>
        <time>2025-09-11T14:09:06Z</time>
      </trkpt>
      <trkpt lat="45.94456" lon="4.68873">
        <ele>327.6</ele>
        <time>2025-09-11T14:09:07Z</time>
      </trkpt>
      <trkpt lat="45.94455" lon="4.68875">
        <ele>327.6</ele>
        <time>2025-09-11T14:09:08Z</time>
      </trkpt>
      <trkpt lat="45.94455" lon="4.68877">
        <ele>327.8</ele>
        <time>2025-09-11T14:09:09Z</time>
      </trkpt>
      <trkpt lat="45.94455" lon="4.68879">
        <ele>327.8</ele>
        <time>2025-09-11T14:09:10Z</time>
      </trkpt>
      <trkpt lat="45.94454" lon="4.68881">
        <ele>328</ele>
        <time>2025-09-11T14:09:11Z</time>
      </trkpt>
      <trkpt lat="45.94453" lon="4.68883">
        <ele>328.4</ele>
        <time>2025-09-11T14:09:12Z</time>
      </trkpt>
      <trkpt lat="45.94453" lon="4.68885">
        <ele>328.4</ele>
        <time>2025-09-11T14:09:13Z</time>
      </trkpt>
      <trkpt lat="45.94453" lon="4.68887">
        <ele>328.6</ele>
        <time>2025-09-11T14:09:14Z</time>
      </trkpt>
      <trkpt lat="45.94452" lon="4.68889">
        <ele>328.6</ele>
        <time>2025-09-11T14:09:15Z</time>
      </trkpt>
      <trkpt lat="45.94452" lon="4.68891">
        <ele>328.6</ele>
        <time>2025-09-11T14:09:16Z</time>
      </trkpt>
      <trkpt lat="45.94452" lon="4.68892">
        <ele>329</ele>
        <time>2025-09-11T14:09:17Z</time>
      </trkpt>
      <trkpt lat="45.94451" lon="4.68894">
        <ele>329</ele>
        <time>2025-09-11T14:09:18Z</time>
      </trkpt>
      <trkpt lat="45.94451" lon="4.68896">
        <ele>329.2</ele>
        <time>2025-09-11T14:09:19Z</time>
      </trkpt>
      <trkpt lat="45.9445" lon="4.68898">
        <ele>329.4</ele>
        <time>2025-09-11T14:09:20Z</time>
      </trkpt>
      <trkpt lat="45.9445" lon="4.689">
        <ele>329.8</ele>
        <time>2025-09-11T14:09:21Z</time>
      </trkpt>
      <trkpt lat="45.94449" lon="4.68901">
        <ele>330</ele>
        <time>2025-09-11T14:09:22Z</time>
      </trkpt>
      <trkpt lat="45.94449" lon="4.68903">
        <ele>330</ele>
        <time>2025-09-11T14:09:23Z</time>
      </trkpt>
      <trkpt lat="45.94448" lon="4.68905">
        <ele>330.2</ele>
        <time>2025-09-11T14:09:24Z</time>
      </trkpt>
      <trkpt lat="45.94448" lon="4.68907">
        <ele>330.2</ele>
        <time>2025-09-11T14:09:25Z</time>
      </trkpt>
      <trkpt lat="45.94448" lon="4.68908">
        <ele>330.4</ele>
        <time>2025-09-11T14:09:26Z</time>
      </trkpt>
      <trkpt lat="45.94447" lon="4.6891">
        <ele>330.4</ele>
        <time>2025-09-11T14:09:27Z</time>
      </trkpt>
      <trkpt lat="45.94446" lon="4.68912">
        <ele>330.8</ele>
        <time>2025-09-11T14:09:28Z</time>
      </trkpt>
      <trkpt lat="45.94445" lon="4.68914">
        <ele>330.8</ele>
        <time>2025-09-11T14:09:29Z</time>
      </trkpt>
      <trkpt lat="45.94445" lon="4.68916">
        <ele>331</ele>
        <time>2025-09-11T14:09:30Z</time>
      </trkpt>
      <trkpt lat="45.94445" lon="4.68918">
        <ele>331</ele>
        <time>2025-09-11T14:09:31Z</time>
      </trkpt>
      <trkpt lat="45.94444" lon="4.6892">
        <ele>331.4</ele>
        <time>2025-09-11T14:09:32Z</time>
      </trkpt>
      <trkpt lat="45.94443" lon="4.68923">
        <ele>331.4</ele>
        <time>2025-09-11T14:09:33Z</time>
      </trkpt>
      <trkpt lat="45.94443" lon="4.68924">
        <ele>331.8</ele>
        <time>2025-09-11T14:09:34Z</time>
      </trkpt>
      <trkpt lat="45.94443" lon="4.68926">
        <ele>331.8</ele>
        <time>2025-09-11T14:09:35Z</time>
      </trkpt>
      <trkpt lat="45.94443" lon="4.68928">
        <ele>332</ele>
        <time>2025-09-11T14:09:36Z</time>
      </trkpt>
      <trkpt lat="45.94442" lon="4.6893">
        <ele>332</ele>
        <time>2025-09-11T14:09:37Z</time>
      </trkpt>
      <trkpt lat="45.94442" lon="4.68932">
        <ele>332.2</ele>
        <time>2025-09-11T14:09:38Z</time>
      </trkpt>
      <trkpt lat="45.94441" lon="4.68935">
        <ele>332.2</ele>
        <time>2025-09-11T14:09:39Z</time>
      </trkpt>
      <trkpt lat="45.9444" lon="4.68937">
        <ele>332.6</ele>
        <time>2025-09-11T14:09:40Z</time>
      </trkpt>
      <trkpt lat="45.9444" lon="4.68939">
        <ele>332.6</ele>
        <time>2025-09-11T14:09:41Z</time>
      </trkpt>
      <trkpt lat="45.94439" lon="4.68942">
        <ele>332.6</ele>
        <time>2025-09-11T14:09:42Z</time>
      </trkpt>
      <trkpt lat="45.94438" lon="4.68944">
        <ele>333</ele>
        <time>2025-09-11T14:09:43Z</time>
      </trkpt>
      <trkpt lat="45.94437" lon="4.68946">
        <ele>333</ele>
        <time>2025-09-11T14:09:44Z</time>
      </trkpt>
      <trkpt lat="45.94437" lon="4.68949">
        <ele>333.2</ele>
        <time>2025-09-11T14:09:45Z</time>
      </trkpt>
      <trkpt lat="45.94436" lon="4.68951">
        <ele>333.2</ele>
        <time>2025-09-11T14:09:46Z</time>
      </trkpt>
      <trkpt lat="45.94436" lon="4.68952">
        <ele>333.4</ele>
        <time>2025-09-11T14:09:47Z</time>
      </trkpt>
      <trkpt lat="45.94435" lon="4.68954">
        <ele>333.4</ele>
        <time>2025-09-11T14:09:48Z</time>
      </trkpt>
      <trkpt lat="45.94435" lon="4.68956">
        <ele>333.4</ele>
        <time>2025-09-11T14:09:49Z</time>
      </trkpt>
      <trkpt lat="45.94434" lon="4.68959">
        <ele>333.8</ele>
        <time>2025-09-11T14:09:50Z</time>
      </trkpt>
      <trkpt lat="45.94434" lon="4.68961">
        <ele>334</ele>
        <time>2025-09-11T14:09:51Z</time>
      </trkpt>
      <trkpt lat="45.94433" lon="4.68964">
        <ele>334.2</ele>
        <time>2025-09-11T14:09:52Z</time>
      </trkpt>
      <trkpt lat="45.94433" lon="4.68965">
        <ele>334.2</ele>
        <time>2025-09-11T14:09:53Z</time>
      </trkpt>
      <trkpt lat="45.94433" lon="4.68967">
        <ele>334.4</ele>
        <time>2025-09-11T14:09:54Z</time>
      </trkpt>
      <trkpt lat="45.94432" lon="4.6897">
        <ele>334.4</ele>
        <time>2025-09-11T14:09:55Z</time>
      </trkpt>
      <trkpt lat="45.94431" lon="4.68972">
        <ele>334.4</ele>
        <time>2025-09-11T14:09:56Z</time>
      </trkpt>
      <trkpt lat="45.94431" lon="4.68974">
        <ele>334.4</ele>
        <time>2025-09-11T14:09:57Z</time>
      </trkpt>
      <trkpt lat="45.9443" lon="4.68976">
        <ele>334.4</ele>
        <time>2025-09-11T14:09:58Z</time>
      </trkpt>
      <trkpt lat="45.94429" lon="4.68978">
        <ele>334.4</ele>
        <time>2025-09-11T14:09:59Z</time>
      </trkpt>
      <trkpt lat="45.94428" lon="4.6898">
        <ele>334.8</ele>
        <time>2025-09-11T14:10:00Z</time>
      </trkpt>
      <trkpt lat="45.94427" lon="4.68982">
        <ele>334.8</ele>
        <time>2025-09-11T14:10:01Z</time>
      </trkpt>
      <trkpt lat="45.94427" lon="4.68984">
        <ele>335.2</ele>
        <time>2025-09-11T14:10:02Z</time>
      </trkpt>
      <trkpt lat="45.94426" lon="4.68987">
        <ele>335.2</ele>
        <time>2025-09-11T14:10:03Z</time>
      </trkpt>
      <trkpt lat="45.94426" lon="4.68989">
        <ele>335.6</ele>
        <time>2025-09-11T14:10:04Z</time>
      </trkpt>
      <trkpt lat="45.94425" lon="4.68991">
        <ele>335.6</ele>
        <time>2025-09-11T14:10:05Z</time>
      </trkpt>
      <trkpt lat="45.94425" lon="4.68993">
        <ele>335.6</ele>
        <time>2025-09-11T14:10:06Z</time>
      </trkpt>
      <trkpt lat="45.94425" lon="4.68995">
        <ele>335.6</ele>
        <time>2025-09-11T14:10:07Z</time>
      </trkpt>
      <trkpt lat="45.94424" lon="4.68997">
        <ele>335.8</ele>
        <time>2025-09-11T14:10:08Z</time>
      </trkpt>
      <trkpt lat="45.94424" lon="4.68999">
        <ele>336</ele>
        <time>2025-09-11T14:10:09Z</time>
      </trkpt>
      <trkpt lat="45.94423" lon="4.69001">
        <ele>336</ele>
        <time>2025-09-11T14:10:10Z</time>
      </trkpt>
      <trkpt lat="45.94422" lon="4.69002">
        <ele>336.4</ele>
        <time>2025-09-11T14:10:11Z</time>
      </trkpt>
      <trkpt lat="45.94422" lon="4.69004">
        <ele>336.4</ele>
        <time>2025-09-11T14:10:12Z</time>
      </trkpt>
      <trkpt lat="45.94421" lon="4.69006">
        <ele>336.4</ele>
        <time>2025-09-11T14:10:13Z</time>
      </trkpt>
      <trkpt lat="45.9442" lon="4.69006">
        <ele>336.6</ele>
        <time>2025-09-11T14:10:14Z</time>
      </trkpt>
      <trkpt lat="45.9442" lon="4.69007">
        <ele>336.6</ele>
        <time>2025-09-11T14:10:15Z</time>
      </trkpt>
      <trkpt lat="45.94419" lon="4.69007">
        <ele>336.6</ele>
        <time>2025-09-11T14:10:16Z</time>
      </trkpt>
      <trkpt lat="45.9442" lon="4.69006">
        <ele>337</ele>
        <time>2025-09-11T14:10:17Z</time>
      </trkpt>
      <trkpt lat="45.94418" lon="4.69004">
        <ele>337</ele>
        <time>2025-09-11T14:10:40Z</time>
      </trkpt>
      <trkpt lat="45.94417" lon="4.69005">
        <ele>337</ele>
        <time>2025-09-11T14:10:41Z</time>
      </trkpt>
      <trkpt lat="45.94415" lon="4.69006">
        <ele>337</ele>
        <time>2025-09-11T14:10:42Z</time>
      </trkpt>
      <trkpt lat="45.94413" lon="4.69007">
        <ele>337</ele>
        <time>2025-09-11T14:10:43Z</time>
      </trkpt>
      <trkpt lat="45.9441" lon="4.69008">
        <ele>336.6</ele>
        <time>2025-09-11T14:10:44Z</time>
      </trkpt>
      <trkpt lat="45.94407" lon="4.69008">
        <ele>336.6</ele>
        <time>2025-09-11T14:10:45Z</time>
      </trkpt>
      <trkpt lat="45.94404" lon="4.69007">
        <ele>336.6</ele>
        <time>2025-09-11T14:10:46Z</time>
      </trkpt>
      <trkpt lat="45.94401" lon="4.69007">
        <ele>336.6</ele>
        <time>2025-09-11T14:10:47Z</time>
      </trkpt>
      <trkpt lat="45.94397" lon="4.69006">
        <ele>336.6</ele>
        <time>2025-09-11T14:10:48Z</time>
      </trkpt>
      <trkpt lat="45.94394" lon="4.69006">
        <ele>336.4</ele>
        <time>2025-09-11T14:10:49Z</time>
      </trkpt>
      <trkpt lat="45.9439" lon="4.69006">
        <ele>336.4</ele>
        <time>2025-09-11T14:10:50Z</time>
      </trkpt>
      <trkpt lat="45.94386" lon="4.69006">
        <ele>336.4</ele>
        <time>2025-09-11T14:10:51Z</time>
      </trkpt>
      <trkpt lat="45.94382" lon="4.69005">
        <ele>336.4</ele>
        <time>2025-09-11T14:10:52Z</time>
      </trkpt>
      <trkpt lat="45.94373" lon="4.69006">
        <ele>336.2</ele>
        <time>2025-09-11T14:10:53Z</time>
      </trkpt>
      <trkpt lat="45.94369" lon="4.69005">
        <ele>336.2</ele>
        <time>2025-09-11T14:10:54Z</time>
      </trkpt>
      <trkpt lat="45.94365" lon="4.69005">
        <ele>336.2</ele>
        <time>2025-09-11T14:10:55Z</time>
      </trkpt>
      <trkpt lat="45.9436" lon="4.69005">
        <ele>336.2</ele>
        <time>2025-09-11T14:10:56Z</time>
      </trkpt>
      <trkpt lat="45.94355" lon="4.69004">
        <ele>336.2</ele>
        <time>2025-09-11T14:10:57Z</time>
      </trkpt>
      <trkpt lat="45.94349" lon="4.69003">
        <ele>336.2</ele>
        <time>2025-09-11T14:10:58Z</time>
      </trkpt>
      <trkpt lat="45.94344" lon="4.69003">
        <ele>336</ele>
        <time>2025-09-11T14:10:59Z</time>
      </trkpt>
      <trkpt lat="45.94339" lon="4.69004">
        <ele>335.8</ele>
        <time>2025-09-11T14:11:00Z</time>
      </trkpt>
      <trkpt lat="45.94334" lon="4.69005">
        <ele>335.8</ele>
        <time>2025-09-11T14:11:01Z</time>
      </trkpt>
      <trkpt lat="45.94328" lon="4.69004">
        <ele>335.8</ele>
        <time>2025-09-11T14:11:02Z</time>
      </trkpt>
      <trkpt lat="45.94323" lon="4.69004">
        <ele>335.8</ele>
        <time>2025-09-11T14:11:03Z</time>
      </trkpt>
      <trkpt lat="45.94317" lon="4.69004">
        <ele>334.8</ele>
        <time>2025-09-11T14:11:04Z</time>
      </trkpt>
      <trkpt lat="45.94312" lon="4.69003">
        <ele>334.8</ele>
        <time>2025-09-11T14:11:05Z</time>
      </trkpt>
      <trkpt lat="45.94306" lon="4.69003">
        <ele>335</ele>
        <time>2025-09-11T14:11:06Z</time>
      </trkpt>
      <trkpt lat="45.94301" lon="4.69003">
        <ele>335</ele>
        <time>2025-09-11T14:11:07Z</time>
      </trkpt>
      <trkpt lat="45.94296" lon="4.69002">
        <ele>335.6</ele>
        <time>2025-09-11T14:11:08Z</time>
      </trkpt>
      <trkpt lat="45.94291" lon="4.69002">
        <ele>335.6</ele>
        <time>2025-09-11T14:11:09Z</time>
      </trkpt>
      <trkpt lat="45.94286" lon="4.69002">
        <ele>335.6</ele>
        <time>2025-09-11T14:11:10Z</time>
      </trkpt>
      <trkpt lat="45.94281" lon="4.69001">
        <ele>335.6</ele>
        <time>2025-09-11T14:11:11Z</time>
      </trkpt>
      <trkpt lat="45.94276" lon="4.68999">
        <ele>335.6</ele>
        <time>2025-09-11T14:11:12Z</time>
      </trkpt>
      <trkpt lat="45.94276" lon="4.68999">
        <ele>335.6</ele>
        <time>2025-09-11T14:11:13Z</time>
      </trkpt>
      <trkpt lat="45.94271" lon="4.68999">
        <ele>335.4</ele>
        <time>2025-09-11T14:11:14Z</time>
      </trkpt>
      <trkpt lat="45.94266" lon="4.68998">
        <ele>335.4</ele>
        <time>2025-09-11T14:11:15Z</time>
      </trkpt>
      <trkpt lat="45.94261" lon="4.68996">
        <ele>335.4</ele>
        <time>2025-09-11T14:11:16Z</time>
      </trkpt>
      <trkpt lat="45.94255" lon="4.68995">
        <ele>335.4</ele>
        <time>2025-09-11T14:11:17Z</time>
      </trkpt>
      <trkpt lat="45.9425" lon="4.68993">
        <ele>335.4</ele>
        <time>2025-09-11T14:11:18Z</time>
      </trkpt>
      <trkpt lat="45.94244" lon="4.68993">
        <ele>335.4</ele>
        <time>2025-09-11T14:11:19Z</time>
      </trkpt>
      <trkpt lat="45.94239" lon="4.68992">
        <ele>335.4</ele>
        <time>2025-09-11T14:11:20Z</time>
      </trkpt>
      <trkpt lat="45.94233" lon="4.68991">
        <ele>335.4</ele>
        <time>2025-09-11T14:11:21Z</time>
      </trkpt>
      <trkpt lat="45.94228" lon="4.6899">
        <ele>335.4</ele>
        <time>2025-09-11T14:11:22Z</time>
      </trkpt>
      <trkpt lat="45.94222" lon="4.68989">
        <ele>335.4</ele>
        <time>2025-09-11T14:11:23Z</time>
      </trkpt>
      <trkpt lat="45.94217" lon="4.68988">
        <ele>335.4</ele>
        <time>2025-09-11T14:11:24Z</time>
      </trkpt>
      <trkpt lat="45.94212" lon="4.68986">
        <ele>335.4</ele>
        <time>2025-09-11T14:11:25Z</time>
      </trkpt>
      <trkpt lat="45.94206" lon="4.68985">
        <ele>335.4</ele>
        <time>2025-09-11T14:11:26Z</time>
      </trkpt>
      <trkpt lat="45.942" lon="4.68983">
        <ele>335.4</ele>
        <time>2025-09-11T14:11:27Z</time>
      </trkpt>
      <trkpt lat="45.94195" lon="4.68981">
        <ele>335.4</ele>
        <time>2025-09-11T14:11:28Z</time>
      </trkpt>
      <trkpt lat="45.9419" lon="4.6898">
        <ele>335.4</ele>
        <time>2025-09-11T14:11:29Z</time>
      </trkpt>
      <trkpt lat="45.94185" lon="4.68979">
        <ele>335.4</ele>
        <time>2025-09-11T14:11:30Z</time>
      </trkpt>
      <trkpt lat="45.94179" lon="4.68977">
        <ele>335.4</ele>
        <time>2025-09-11T14:11:31Z</time>
      </trkpt>
      <trkpt lat="45.94174" lon="4.68975">
        <ele>335.4</ele>
        <time>2025-09-11T14:11:32Z</time>
      </trkpt>
      <trkpt lat="45.94169" lon="4.68974">
        <ele>335.6</ele>
        <time>2025-09-11T14:11:33Z</time>
      </trkpt>
      <trkpt lat="45.94164" lon="4.68972">
        <ele>335.6</ele>
        <time>2025-09-11T14:11:34Z</time>
      </trkpt>
      <trkpt lat="45.94159" lon="4.68971">
        <ele>335.6</ele>
        <time>2025-09-11T14:11:35Z</time>
      </trkpt>
      <trkpt lat="45.94154" lon="4.68969">
        <ele>335.6</ele>
        <time>2025-09-11T14:11:36Z</time>
      </trkpt>
      <trkpt lat="45.94149" lon="4.68968">
        <ele>335.6</ele>
        <time>2025-09-11T14:11:37Z</time>
      </trkpt>
      <trkpt lat="45.94145" lon="4.68965">
        <ele>335.6</ele>
        <time>2025-09-11T14:11:38Z</time>
      </trkpt>
      <trkpt lat="45.9414" lon="4.68963">
        <ele>336</ele>
        <time>2025-09-11T14:11:39Z</time>
      </trkpt>
      <trkpt lat="45.94135" lon="4.68962">
        <ele>336</ele>
        <time>2025-09-11T14:11:40Z</time>
      </trkpt>
      <trkpt lat="45.9413" lon="4.68961">
        <ele>336</ele>
        <time>2025-09-11T14:11:41Z</time>
      </trkpt>
      <trkpt lat="45.94126" lon="4.68959">
        <ele>336.2</ele>
        <time>2025-09-11T14:11:42Z</time>
      </trkpt>
      <trkpt lat="45.94122" lon="4.68956">
        <ele>336.2</ele>
        <time>2025-09-11T14:11:43Z</time>
      </trkpt>
      <trkpt lat="45.94118" lon="4.68956">
        <ele>336.2</ele>
        <time>2025-09-11T14:11:44Z</time>
      </trkpt>
      <trkpt lat="45.94113" lon="4.68953">
        <ele>336.2</ele>
        <time>2025-09-11T14:11:45Z</time>
      </trkpt>
      <trkpt lat="45.94109" lon="4.68954">
        <ele>336.4</ele>
        <time>2025-09-11T14:11:46Z</time>
      </trkpt>
      <trkpt lat="45.94106" lon="4.68952">
        <ele>336.4</ele>
        <time>2025-09-11T14:11:47Z</time>
      </trkpt>
      <trkpt lat="45.94101" lon="4.68952">
        <ele>336.4</ele>
        <time>2025-09-11T14:11:48Z</time>
      </trkpt>
      <trkpt lat="45.94097" lon="4.6895">
        <ele>336.4</ele>
        <time>2025-09-11T14:11:49Z</time>
      </trkpt>
      <trkpt lat="45.94093" lon="4.68949">
        <ele>336.4</ele>
        <time>2025-09-11T14:11:50Z</time>
      </trkpt>
      <trkpt lat="45.94089" lon="4.68948">
        <ele>336.4</ele>
        <time>2025-09-11T14:11:51Z</time>
      </trkpt>
      <trkpt lat="45.94085" lon="4.68945">
        <ele>336.6</ele>
        <time>2025-09-11T14:11:52Z</time>
      </trkpt>
      <trkpt lat="45.94081" lon="4.68943">
        <ele>336.8</ele>
        <time>2025-09-11T14:11:53Z</time>
      </trkpt>
      <trkpt lat="45.94077" lon="4.68942">
        <ele>336.8</ele>
        <time>2025-09-11T14:11:54Z</time>
      </trkpt>
      <trkpt lat="45.94072" lon="4.6894">
        <ele>336.8</ele>
        <time>2025-09-11T14:11:55Z</time>
      </trkpt>
      <trkpt lat="45.94068" lon="4.68939">
        <ele>337.2</ele>
        <time>2025-09-11T14:11:56Z</time>
      </trkpt>
      <trkpt lat="45.94063" lon="4.68939">
        <ele>337.2</ele>
        <time>2025-09-11T14:11:57Z</time>
      </trkpt>
      <trkpt lat="45.94059" lon="4.68937">
        <ele>337.2</ele>
        <time>2025-09-11T14:11:58Z</time>
      </trkpt>
      <trkpt lat="45.94055" lon="4.68935">
        <ele>337.2</ele>
        <time>2025-09-11T14:11:59Z</time>
      </trkpt>
      <trkpt lat="45.94051" lon="4.68933">
        <ele>337.2</ele>
        <time>2025-09-11T14:12:00Z</time>
      </trkpt>
      <trkpt lat="45.94047" lon="4.6893">
        <ele>337.4</ele>
        <time>2025-09-11T14:12:01Z</time>
      </trkpt>
      <trkpt lat="45.94042" lon="4.68929">
        <ele>337.4</ele>
        <time>2025-09-11T14:12:02Z</time>
      </trkpt>
      <trkpt lat="45.94038" lon="4.68927">
        <ele>337.4</ele>
        <time>2025-09-11T14:12:03Z</time>
      </trkpt>
      <trkpt lat="45.94034" lon="4.68926">
        <ele>337.6</ele>
        <time>2025-09-11T14:12:04Z</time>
      </trkpt>
      <trkpt lat="45.9403" lon="4.68924">
        <ele>337.6</ele>
        <time>2025-09-11T14:12:05Z</time>
      </trkpt>
      <trkpt lat="45.94025" lon="4.68923">
        <ele>337.6</ele>
        <time>2025-09-11T14:12:06Z</time>
      </trkpt>
      <trkpt lat="45.94021" lon="4.68921">
        <ele>337.6</ele>
        <time>2025-09-11T14:12:07Z</time>
      </trkpt>
      <trkpt lat="45.94017" lon="4.68919">
        <ele>337.6</ele>
        <time>2025-09-11T14:12:08Z</time>
      </trkpt>
      <trkpt lat="45.94014" lon="4.68918">
        <ele>338</ele>
        <time>2025-09-11T14:12:09Z</time>
      </trkpt>
      <trkpt lat="45.9401" lon="4.68916">
        <ele>338</ele>
        <time>2025-09-11T14:12:10Z</time>
      </trkpt>
      <trkpt lat="45.94006" lon="4.68914">
        <ele>338</ele>
        <time>2025-09-11T14:12:11Z</time>
      </trkpt>
      <trkpt lat="45.94002" lon="4.68913">
        <ele>338.2</ele>
        <time>2025-09-11T14:12:12Z</time>
      </trkpt>
      <trkpt lat="45.93998" lon="4.68912">
        <ele>338.4</ele>
        <time>2025-09-11T14:12:13Z</time>
      </trkpt>
      <trkpt lat="45.93995" lon="4.68911">
        <ele>338.6</ele>
        <time>2025-09-11T14:12:14Z</time>
      </trkpt>
      <trkpt lat="45.93991" lon="4.68909">
        <ele>338.6</ele>
        <time>2025-09-11T14:12:15Z</time>
      </trkpt>
      <trkpt lat="45.93987" lon="4.68908">
        <ele>338.6</ele>
        <time>2025-09-11T14:12:16Z</time>
      </trkpt>
      <trkpt lat="45.93984" lon="4.68907">
        <ele>338.6</ele>
        <time>2025-09-11T14:12:17Z</time>
      </trkpt>
      <trkpt lat="45.9398" lon="4.68905">
        <ele>338.6</ele>
        <time>2025-09-11T14:12:18Z</time>
      </trkpt>
      <trkpt lat="45.93976" lon="4.68904">
        <ele>338.2</ele>
        <time>2025-09-11T14:12:19Z</time>
      </trkpt>
      <trkpt lat="45.93972" lon="4.68902">
        <ele>339</ele>
        <time>2025-09-11T14:12:20Z</time>
      </trkpt>
      <trkpt lat="45.93968" lon="4.68901">
        <ele>339</ele>
        <time>2025-09-11T14:12:21Z</time>
      </trkpt>
      <trkpt lat="45.93964" lon="4.68899">
        <ele>339</ele>
        <time>2025-09-11T14:12:22Z</time>
      </trkpt>
      <trkpt lat="45.9396" lon="4.68897">
        <ele>339</ele>
        <time>2025-09-11T14:12:23Z</time>
      </trkpt>
      <trkpt lat="45.93956" lon="4.68896">
        <ele>339</ele>
        <time>2025-09-11T14:12:24Z</time>
      </trkpt>
      <trkpt lat="45.93952" lon="4.68894">
        <ele>339</ele>
        <time>2025-09-11T14:12:25Z</time>
      </trkpt>
      <trkpt lat="45.93948" lon="4.68892">
        <ele>339</ele>
        <time>2025-09-11T14:12:26Z</time>
      </trkpt>
      <trkpt lat="45.93944" lon="4.68891">
        <ele>339</ele>
        <time>2025-09-11T14:12:27Z</time>
      </trkpt>
      <trkpt lat="45.9394" lon="4.68889">
        <ele>339</ele>
        <time>2025-09-11T14:12:28Z</time>
      </trkpt>
      <trkpt lat="45.93935" lon="4.68888">
        <ele>339</ele>
        <time>2025-09-11T14:12:29Z</time>
      </trkpt>
      <trkpt lat="45.93931" lon="4.68888">
        <ele>339</ele>
        <time>2025-09-11T14:12:30Z</time>
      </trkpt>
      <trkpt lat="45.93927" lon="4.68887">
        <ele>338.8</ele>
        <time>2025-09-11T14:12:31Z</time>
      </trkpt>
      <trkpt lat="45.93923" lon="4.68887">
        <ele>338.8</ele>
        <time>2025-09-11T14:12:32Z</time>
      </trkpt>
      <trkpt lat="45.93919" lon="4.68886">
        <ele>338.8</ele>
        <time>2025-09-11T14:12:33Z</time>
      </trkpt>
      <trkpt lat="45.93915" lon="4.68886">
        <ele>338.6</ele>
        <time>2025-09-11T14:12:34Z</time>
      </trkpt>
      <trkpt lat="45.93911" lon="4.68885">
        <ele>338.6</ele>
        <time>2025-09-11T14:12:35Z</time>
      </trkpt>
      <trkpt lat="45.93907" lon="4.68885">
        <ele>338.4</ele>
        <time>2025-09-11T14:12:36Z</time>
      </trkpt>
      <trkpt lat="45.93903" lon="4.68886">
        <ele>338.4</ele>
        <time>2025-09-11T14:12:37Z</time>
      </trkpt>
      <trkpt lat="45.93899" lon="4.68888">
        <ele>338.4</ele>
        <time>2025-09-11T14:12:38Z</time>
      </trkpt>
      <trkpt lat="45.93899" lon="4.68897">
        <ele>338</ele>
        <time>2025-09-11T14:12:39Z</time>
      </trkpt>
      <trkpt lat="45.93898" lon="4.68903">
        <ele>338</ele>
        <time>2025-09-11T14:12:40Z</time>
      </trkpt>
      <trkpt lat="45.93897" lon="4.68909">
        <ele>338</ele>
        <time>2025-09-11T14:12:41Z</time>
      </trkpt>
      <trkpt lat="45.93896" lon="4.68915">
        <ele>337.6</ele>
        <time>2025-09-11T14:12:42Z</time>
      </trkpt>
      <trkpt lat="45.93895" lon="4.68923">
        <ele>337.6</ele>
        <time>2025-09-11T14:12:43Z</time>
      </trkpt>
      <trkpt lat="45.93894" lon="4.68931">
        <ele>337.2</ele>
        <time>2025-09-11T14:12:44Z</time>
      </trkpt>
      <trkpt lat="45.93893" lon="4.68938">
        <ele>337</ele>
        <time>2025-09-11T14:12:45Z</time>
      </trkpt>
      <trkpt lat="45.93892" lon="4.68946">
        <ele>337</ele>
        <time>2025-09-11T14:12:46Z</time>
      </trkpt>
      <trkpt lat="45.9389" lon="4.68953">
        <ele>336.8</ele>
        <time>2025-09-11T14:12:47Z</time>
      </trkpt>
      <trkpt lat="45.93889" lon="4.68962">
        <ele>336.8</ele>
        <time>2025-09-11T14:12:48Z</time>
      </trkpt>
      <trkpt lat="45.93888" lon="4.6897">
        <ele>336.4</ele>
        <time>2025-09-11T14:12:49Z</time>
      </trkpt>
      <trkpt lat="45.93886" lon="4.68979">
        <ele>336.4</ele>
        <time>2025-09-11T14:12:50Z</time>
      </trkpt>
      <trkpt lat="45.93884" lon="4.68988">
        <ele>336</ele>
        <time>2025-09-11T14:12:51Z</time>
      </trkpt>
      <trkpt lat="45.93882" lon="4.68998">
        <ele>335.8</ele>
        <time>2025-09-11T14:12:52Z</time>
      </trkpt>
      <trkpt lat="45.9388" lon="4.69007">
        <ele>335.8</ele>
        <time>2025-09-11T14:12:53Z</time>
      </trkpt>
      <trkpt lat="45.93879" lon="4.69015">
        <ele>335.2</ele>
        <time>2025-09-11T14:12:54Z</time>
      </trkpt>
      <trkpt lat="45.93877" lon="4.69024">
        <ele>335</ele>
        <time>2025-09-11T14:12:55Z</time>
      </trkpt>
      <trkpt lat="45.93875" lon="4.69034">
        <ele>334.8</ele>
        <time>2025-09-11T14:12:56Z</time>
      </trkpt>
      <trkpt lat="45.93873" lon="4.69043">
        <ele>334.4</ele>
        <time>2025-09-11T14:12:57Z</time>
      </trkpt>
      <trkpt lat="45.93871" lon="4.69052">
        <ele>334.4</ele>
        <time>2025-09-11T14:12:58Z</time>
      </trkpt>
      <trkpt lat="45.93869" lon="4.6906">
        <ele>334</ele>
        <time>2025-09-11T14:12:59Z</time>
      </trkpt>
      <trkpt lat="45.93867" lon="4.69069">
        <ele>333.8</ele>
        <time>2025-09-11T14:13:00Z</time>
      </trkpt>
      <trkpt lat="45.93866" lon="4.69076">
        <ele>333.8</ele>
        <time>2025-09-11T14:13:01Z</time>
      </trkpt>
      <trkpt lat="45.93864" lon="4.69083">
        <ele>333.6</ele>
        <time>2025-09-11T14:13:02Z</time>
      </trkpt>
      <trkpt lat="45.93863" lon="4.6909">
        <ele>333.4</ele>
        <time>2025-09-11T14:13:03Z</time>
      </trkpt>
      <trkpt lat="45.93862" lon="4.69097">
        <ele>333.2</ele>
        <time>2025-09-11T14:13:04Z</time>
      </trkpt>
      <trkpt lat="45.9386" lon="4.69104">
        <ele>333.2</ele>
        <time>2025-09-11T14:13:05Z</time>
      </trkpt>
      <trkpt lat="45.93858" lon="4.69111">
        <ele>332.6</ele>
        <time>2025-09-11T14:13:06Z</time>
      </trkpt>
      <trkpt lat="45.93857" lon="4.6912">
        <ele>332.4</ele>
        <time>2025-09-11T14:13:07Z</time>
      </trkpt>
      <trkpt lat="45.93856" lon="4.69128">
        <ele>332</ele>
        <time>2025-09-11T14:13:08Z</time>
      </trkpt>
      <trkpt lat="45.93855" lon="4.69137">
        <ele>331.6</ele>
        <time>2025-09-11T14:13:09Z</time>
      </trkpt>
      <trkpt lat="45.93855" lon="4.69146">
        <ele>331.4</ele>
        <time>2025-09-11T14:13:10Z</time>
      </trkpt>
      <trkpt lat="45.93854" lon="4.69155">
        <ele>331</ele>
        <time>2025-09-11T14:13:11Z</time>
      </trkpt>
      <trkpt lat="45.93853" lon="4.69166">
        <ele>330.4</ele>
        <time>2025-09-11T14:13:12Z</time>
      </trkpt>
      <trkpt lat="45.93851" lon="4.69177">
        <ele>329.6</ele>
        <time>2025-09-11T14:13:13Z</time>
      </trkpt>
      <trkpt lat="45.93851" lon="4.69188">
        <ele>328.8</ele>
        <time>2025-09-11T14:13:14Z</time>
      </trkpt>
      <trkpt lat="45.93849" lon="4.69199">
        <ele>328</ele>
        <time>2025-09-11T14:13:15Z</time>
      </trkpt>
      <trkpt lat="45.93848" lon="4.6921">
        <ele>327.4</ele>
        <time>2025-09-11T14:13:16Z</time>
      </trkpt>
      <trkpt lat="45.93848" lon="4.6922">
        <ele>326.8</ele>
        <time>2025-09-11T14:13:17Z</time>
      </trkpt>
      <trkpt lat="45.93847" lon="4.69231">
        <ele>326</ele>
        <time>2025-09-11T14:13:18Z</time>
      </trkpt>
      <trkpt lat="45.93848" lon="4.69243">
        <ele>325.4</ele>
        <time>2025-09-11T14:13:19Z</time>
      </trkpt>
      <trkpt lat="45.93849" lon="4.69255">
        <ele>324.4</ele>
        <time>2025-09-11T14:13:20Z</time>
      </trkpt>
      <trkpt lat="45.93851" lon="4.69268">
        <ele>323.4</ele>
        <time>2025-09-11T14:13:21Z</time>
      </trkpt>
      <trkpt lat="45.93853" lon="4.69281">
        <ele>322.4</ele>
        <time>2025-09-11T14:13:22Z</time>
      </trkpt>
      <trkpt lat="45.93855" lon="4.69295">
        <ele>321.2</ele>
        <time>2025-09-11T14:13:23Z</time>
      </trkpt>
      <trkpt lat="45.93856" lon="4.6931">
        <ele>319.8</ele>
        <time>2025-09-11T14:13:24Z</time>
      </trkpt>
      <trkpt lat="45.93856" lon="4.69327">
        <ele>318.4</ele>
        <time>2025-09-11T14:13:25Z</time>
      </trkpt>
      <trkpt lat="45.93856" lon="4.69344">
        <ele>316.8</ele>
        <time>2025-09-11T14:13:26Z</time>
      </trkpt>
      <trkpt lat="45.93856" lon="4.69361">
        <ele>315.6</ele>
        <time>2025-09-11T14:13:27Z</time>
      </trkpt>
      <trkpt lat="45.93856" lon="4.69379">
        <ele>314.6</ele>
        <time>2025-09-11T14:13:28Z</time>
      </trkpt>
      <trkpt lat="45.93856" lon="4.69396">
        <ele>313.6</ele>
        <time>2025-09-11T14:13:29Z</time>
      </trkpt>
      <trkpt lat="45.93855" lon="4.69413">
        <ele>312.8</ele>
        <time>2025-09-11T14:13:30Z</time>
      </trkpt>
      <trkpt lat="45.93855" lon="4.69429">
        <ele>312.2</ele>
        <time>2025-09-11T14:13:31Z</time>
      </trkpt>
      <trkpt lat="45.93854" lon="4.69445">
        <ele>311.8</ele>
        <time>2025-09-11T14:13:32Z</time>
      </trkpt>
      <trkpt lat="45.93854" lon="4.69461">
        <ele>311.4</ele>
        <time>2025-09-11T14:13:33Z</time>
      </trkpt>
      <trkpt lat="45.93854" lon="4.69476">
        <ele>311.4</ele>
        <time>2025-09-11T14:13:34Z</time>
      </trkpt>
      <trkpt lat="45.93854" lon="4.69491">
        <ele>311</ele>
        <time>2025-09-11T14:13:35Z</time>
      </trkpt>
      <trkpt lat="45.93854" lon="4.69505">
        <ele>311</ele>
        <time>2025-09-11T14:13:36Z</time>
      </trkpt>
      <trkpt lat="45.93855" lon="4.69519">
        <ele>310.8</ele>
        <time>2025-09-11T14:13:37Z</time>
      </trkpt>
      <trkpt lat="45.93855" lon="4.69531">
        <ele>310.8</ele>
        <time>2025-09-11T14:13:38Z</time>
      </trkpt>
      <trkpt lat="45.93854" lon="4.69544">
        <ele>310.8</ele>
        <time>2025-09-11T14:13:39Z</time>
      </trkpt>
      <trkpt lat="45.93854" lon="4.69556">
        <ele>310.8</ele>
        <time>2025-09-11T14:13:40Z</time>
      </trkpt>
      <trkpt lat="45.93852" lon="4.69568">
        <ele>311</ele>
        <time>2025-09-11T14:13:41Z</time>
      </trkpt>
      <trkpt lat="45.9385" lon="4.69579">
        <ele>311</ele>
        <time>2025-09-11T14:13:42Z</time>
      </trkpt>
      <trkpt lat="45.93847" lon="4.6959">
        <ele>311</ele>
        <time>2025-09-11T14:13:43Z</time>
      </trkpt>
      <trkpt lat="45.93845" lon="4.696">
        <ele>311</ele>
        <time>2025-09-11T14:13:44Z</time>
      </trkpt>
      <trkpt lat="45.93842" lon="4.6961">
        <ele>311</ele>
        <time>2025-09-11T14:13:45Z</time>
      </trkpt>
      <trkpt lat="45.9384" lon="4.69619">
        <ele>311</ele>
        <time>2025-09-11T14:13:46Z</time>
      </trkpt>
      <trkpt lat="45.93836" lon="4.69628">
        <ele>311</ele>
        <time>2025-09-11T14:13:47Z</time>
      </trkpt>
      <trkpt lat="45.93833" lon="4.69636">
        <ele>311</ele>
        <time>2025-09-11T14:13:48Z</time>
      </trkpt>
      <trkpt lat="45.93831" lon="4.69644">
        <ele>311</ele>
        <time>2025-09-11T14:13:49Z</time>
      </trkpt>
      <trkpt lat="45.93828" lon="4.69652">
        <ele>311</ele>
        <time>2025-09-11T14:13:50Z</time>
      </trkpt>
      <trkpt lat="45.93825" lon="4.6966">
        <ele>311.4</ele>
        <time>2025-09-11T14:13:51Z</time>
      </trkpt>
      <trkpt lat="45.93822" lon="4.69669">
        <ele>311.4</ele>
        <time>2025-09-11T14:13:52Z</time>
      </trkpt>
      <trkpt lat="45.93819" lon="4.69676">
        <ele>311.4</ele>
        <time>2025-09-11T14:13:53Z</time>
      </trkpt>
      <trkpt lat="45.93816" lon="4.69684">
        <ele>311.4</ele>
        <time>2025-09-11T14:13:54Z</time>
      </trkpt>
      <trkpt lat="45.93812" lon="4.69691">
        <ele>311.4</ele>
        <time>2025-09-11T14:13:55Z</time>
      </trkpt>
      <trkpt lat="45.93809" lon="4.69699">
        <ele>311</ele>
        <time>2025-09-11T14:13:56Z</time>
      </trkpt>
      <trkpt lat="45.93805" lon="4.69707">
        <ele>310.8</ele>
        <time>2025-09-11T14:13:57Z</time>
      </trkpt>
      <trkpt lat="45.93801" lon="4.69715">
        <ele>310.6</ele>
        <time>2025-09-11T14:13:58Z</time>
      </trkpt>
      <trkpt lat="45.93798" lon="4.69722">
        <ele>310.6</ele>
        <time>2025-09-11T14:13:59Z</time>
      </trkpt>
      <trkpt lat="45.93795" lon="4.6973">
        <ele>310.2</ele>
        <time>2025-09-11T14:14:00Z</time>
      </trkpt>
      <trkpt lat="45.93793" lon="4.69739">
        <ele>310</ele>
        <time>2025-09-11T14:14:01Z</time>
      </trkpt>
      <trkpt lat="45.93792" lon="4.6975">
        <ele>310</ele>
        <time>2025-09-11T14:14:02Z</time>
      </trkpt>
      <trkpt lat="45.93789" lon="4.69761">
        <ele>309.8</ele>
        <time>2025-09-11T14:14:03Z</time>
      </trkpt>
      <trkpt lat="45.93787" lon="4.69771">
        <ele>309.6</ele>
        <time>2025-09-11T14:14:04Z</time>
      </trkpt>
      <trkpt lat="45.93785" lon="4.69783">
        <ele>308.6</ele>
        <time>2025-09-11T14:14:05Z</time>
      </trkpt>
      <trkpt lat="45.93782" lon="4.69795">
        <ele>308</ele>
        <time>2025-09-11T14:14:06Z</time>
      </trkpt>
      <trkpt lat="45.93778" lon="4.69808">
        <ele>307.2</ele>
        <time>2025-09-11T14:14:07Z</time>
      </trkpt>
      <trkpt lat="45.93775" lon="4.69821">
        <ele>306.2</ele>
        <time>2025-09-11T14:14:08Z</time>
      </trkpt>
      <trkpt lat="45.93773" lon="4.69836">
        <ele>305.6</ele>
        <time>2025-09-11T14:14:09Z</time>
      </trkpt>
      <trkpt lat="45.9377" lon="4.69851">
        <ele>305</ele>
        <time>2025-09-11T14:14:10Z</time>
      </trkpt>
      <trkpt lat="45.93767" lon="4.69866">
        <ele>304.4</ele>
        <time>2025-09-11T14:14:11Z</time>
      </trkpt>
      <trkpt lat="45.93765" lon="4.6988">
        <ele>303.8</ele>
        <time>2025-09-11T14:14:12Z</time>
      </trkpt>
      <trkpt lat="45.93763" lon="4.69895">
        <ele>303.4</ele>
        <time>2025-09-11T14:14:13Z</time>
      </trkpt>
      <trkpt lat="45.9376" lon="4.6991">
        <ele>303</ele>
        <time>2025-09-11T14:14:14Z</time>
      </trkpt>
      <trkpt lat="45.93758" lon="4.69924">
        <ele>302.8</ele>
        <time>2025-09-11T14:14:15Z</time>
      </trkpt>
      <trkpt lat="45.93755" lon="4.69937">
        <ele>302.4</ele>
        <time>2025-09-11T14:14:16Z</time>
      </trkpt>
      <trkpt lat="45.93752" lon="4.6995">
        <ele>302.4</ele>
        <time>2025-09-11T14:14:17Z</time>
      </trkpt>
      <trkpt lat="45.93749" lon="4.69962">
        <ele>302.4</ele>
        <time>2025-09-11T14:14:18Z</time>
      </trkpt>
      <trkpt lat="45.93746" lon="4.69974">
        <ele>302.2</ele>
        <time>2025-09-11T14:14:19Z</time>
      </trkpt>
      <trkpt lat="45.93744" lon="4.69986">
        <ele>302.2</ele>
        <time>2025-09-11T14:14:20Z</time>
      </trkpt>
      <trkpt lat="45.93743" lon="4.69998">
        <ele>302.2</ele>
        <time>2025-09-11T14:14:21Z</time>
      </trkpt>
      <trkpt lat="45.93742" lon="4.70009">
        <ele>301.8</ele>
        <time>2025-09-11T14:14:22Z</time>
      </trkpt>
      <trkpt lat="45.9374" lon="4.7002">
        <ele>301.6</ele>
        <time>2025-09-11T14:14:23Z</time>
      </trkpt>
      <trkpt lat="45.93739" lon="4.70031">
        <ele>301.6</ele>
        <time>2025-09-11T14:14:24Z</time>
      </trkpt>
      <trkpt lat="45.93738" lon="4.70041">
        <ele>301.2</ele>
        <time>2025-09-11T14:14:25Z</time>
      </trkpt>
      <trkpt lat="45.93736" lon="4.70051">
        <ele>301.2</ele>
        <time>2025-09-11T14:14:26Z</time>
      </trkpt>
      <trkpt lat="45.93732" lon="4.70058">
        <ele>301.2</ele>
        <time>2025-09-11T14:14:27Z</time>
      </trkpt>
      <trkpt lat="45.93726" lon="4.70063">
        <ele>301</ele>
        <time>2025-09-11T14:14:28Z</time>
      </trkpt>
      <trkpt lat="45.93721" lon="4.70066">
        <ele>301</ele>
        <time>2025-09-11T14:14:29Z</time>
      </trkpt>
      <trkpt lat="45.93716" lon="4.7007">
        <ele>301</ele>
        <time>2025-09-11T14:14:30Z</time>
      </trkpt>
      <trkpt lat="45.93711" lon="4.70073">
        <ele>301</ele>
        <time>2025-09-11T14:14:31Z</time>
      </trkpt>
      <trkpt lat="45.93707" lon="4.70076">
        <ele>301</ele>
        <time>2025-09-11T14:14:32Z</time>
      </trkpt>
      <trkpt lat="45.93704" lon="4.70078">
        <ele>301</ele>
        <time>2025-09-11T14:14:33Z</time>
      </trkpt>
      <trkpt lat="45.93701" lon="4.7008">
        <ele>301</ele>
        <time>2025-09-11T14:14:34Z</time>
      </trkpt>
      <trkpt lat="45.93698" lon="4.70083">
        <ele>300.6</ele>
        <time>2025-09-11T14:14:35Z</time>
      </trkpt>
      <trkpt lat="45.93697" lon="4.70087">
        <ele>300.6</ele>
        <time>2025-09-11T14:14:36Z</time>
      </trkpt>
      <trkpt lat="45.93695" lon="4.70092">
        <ele>300.4</ele>
        <time>2025-09-11T14:14:37Z</time>
      </trkpt>
      <trkpt lat="45.93693" lon="4.70098">
        <ele>300.4</ele>
        <time>2025-09-11T14:14:38Z</time>
      </trkpt>
      <trkpt lat="45.9369" lon="4.70104">
        <ele>300.4</ele>
        <time>2025-09-11T14:14:39Z</time>
      </trkpt>
      <trkpt lat="45.93686" lon="4.7011">
        <ele>299.8</ele>
        <time>2025-09-11T14:14:40Z</time>
      </trkpt>
      <trkpt lat="45.93683" lon="4.70117">
        <ele>299.6</ele>
        <time>2025-09-11T14:14:41Z</time>
      </trkpt>
      <trkpt lat="45.93679" lon="4.70123">
        <ele>299.2</ele>
        <time>2025-09-11T14:14:42Z</time>
      </trkpt>
      <trkpt lat="45.93675" lon="4.7013">
        <ele>298.8</ele>
        <time>2025-09-11T14:14:43Z</time>
      </trkpt>
      <trkpt lat="45.93672" lon="4.70136">
        <ele>298.4</ele>
        <time>2025-09-11T14:14:44Z</time>
      </trkpt>
      <trkpt lat="45.93667" lon="4.70144">
        <ele>298.4</ele>
        <time>2025-09-11T14:14:45Z</time>
      </trkpt>
      <trkpt lat="45.93663" lon="4.70151">
        <ele>298.2</ele>
        <time>2025-09-11T14:14:46Z</time>
      </trkpt>
      <trkpt lat="45.9366" lon="4.70158">
        <ele>297.8</ele>
        <time>2025-09-11T14:14:47Z</time>
      </trkpt>
      <trkpt lat="45.93657" lon="4.70166">
        <ele>297.8</ele>
        <time>2025-09-11T14:14:48Z</time>
      </trkpt>
      <trkpt lat="45.93655" lon="4.70172">
        <ele>297.2</ele>
        <time>2025-09-11T14:14:49Z</time>
      </trkpt>
      <trkpt lat="45.93653" lon="4.70179">
        <ele>296.6</ele>
        <time>2025-09-11T14:14:50Z</time>
      </trkpt>
      <trkpt lat="45.93652" lon="4.70187">
        <ele>296.2</ele>
        <time>2025-09-11T14:14:51Z</time>
      </trkpt>
      <trkpt lat="45.93651" lon="4.70195">
        <ele>295.6</ele>
        <time>2025-09-11T14:14:52Z</time>
      </trkpt>
      <trkpt lat="45.93652" lon="4.70203">
        <ele>295.2</ele>
        <time>2025-09-11T14:14:53Z</time>
      </trkpt>
      <trkpt lat="45.93652" lon="4.70211">
        <ele>294.4</ele>
        <time>2025-09-11T14:14:54Z</time>
      </trkpt>
      <trkpt lat="45.93652" lon="4.7022">
        <ele>293.8</ele>
        <time>2025-09-11T14:14:55Z</time>
      </trkpt>
      <trkpt lat="45.93654" lon="4.70228">
        <ele>293</ele>
        <time>2025-09-11T14:14:56Z</time>
      </trkpt>
      <trkpt lat="45.93656" lon="4.70235">
        <ele>292.2</ele>
        <time>2025-09-11T14:14:57Z</time>
      </trkpt>
      <trkpt lat="45.93657" lon="4.70243">
        <ele>291.6</ele>
        <time>2025-09-11T14:14:58Z</time>
      </trkpt>
      <trkpt lat="45.93659" lon="4.70251">
        <ele>291.2</ele>
        <time>2025-09-11T14:14:59Z</time>
      </trkpt>
      <trkpt lat="45.9366" lon="4.70259">
        <ele>290.4</ele>
        <time>2025-09-11T14:15:00Z</time>
      </trkpt>
      <trkpt lat="45.93662" lon="4.70266">
        <ele>289.8</ele>
        <time>2025-09-11T14:15:01Z</time>
      </trkpt>
      <trkpt lat="45.93664" lon="4.70274">
        <ele>289</ele>
        <time>2025-09-11T14:15:02Z</time>
      </trkpt>
      <trkpt lat="45.93665" lon="4.70281">
        <ele>288.2</ele>
        <time>2025-09-11T14:15:03Z</time>
      </trkpt>
      <trkpt lat="45.93668" lon="4.70289">
        <ele>287.2</ele>
        <time>2025-09-11T14:15:04Z</time>
      </trkpt>
      <trkpt lat="45.9367" lon="4.70297">
        <ele>286.2</ele>
        <time>2025-09-11T14:15:05Z</time>
      </trkpt>
      <trkpt lat="45.93672" lon="4.70307">
        <ele>285</ele>
        <time>2025-09-11T14:15:06Z</time>
      </trkpt>
      <trkpt lat="45.93673" lon="4.70317">
        <ele>284</ele>
        <time>2025-09-11T14:15:07Z</time>
      </trkpt>
      <trkpt lat="45.93675" lon="4.70326">
        <ele>283</ele>
        <time>2025-09-11T14:15:08Z</time>
      </trkpt>
      <trkpt lat="45.93676" lon="4.70336">
        <ele>281.8</ele>
        <time>2025-09-11T14:15:09Z</time>
      </trkpt>
      <trkpt lat="45.93676" lon="4.70347">
        <ele>280.8</ele>
        <time>2025-09-11T14:15:10Z</time>
      </trkpt>
      <trkpt lat="45.93677" lon="4.70356">
        <ele>279.8</ele>
        <time>2025-09-11T14:15:11Z</time>
      </trkpt>
      <trkpt lat="45.93678" lon="4.70367">
        <ele>278.8</ele>
        <time>2025-09-11T14:15:12Z</time>
      </trkpt>
      <trkpt lat="45.93679" lon="4.70376">
        <ele>277.6</ele>
        <time>2025-09-11T14:15:13Z</time>
      </trkpt>
      <trkpt lat="45.9368" lon="4.70385">
        <ele>276.6</ele>
        <time>2025-09-11T14:15:14Z</time>
      </trkpt>
      <trkpt lat="45.9368" lon="4.70392">
        <ele>275.8</ele>
        <time>2025-09-11T14:15:15Z</time>
      </trkpt>
      <trkpt lat="45.93681" lon="4.70398">
        <ele>275</ele>
        <time>2025-09-11T14:15:16Z</time>
      </trkpt>
      <trkpt lat="45.93682" lon="4.70405">
        <ele>274.4</ele>
        <time>2025-09-11T14:15:17Z</time>
      </trkpt>
      <trkpt lat="45.93683" lon="4.7041">
        <ele>273.8</ele>
        <time>2025-09-11T14:15:18Z</time>
      </trkpt>
      <trkpt lat="45.93684" lon="4.70415">
        <ele>273.2</ele>
        <time>2025-09-11T14:15:19Z</time>
      </trkpt>
      <trkpt lat="45.93686" lon="4.70421">
        <ele>272.8</ele>
        <time>2025-09-11T14:15:20Z</time>
      </trkpt>
      <trkpt lat="45.93688" lon="4.70428">
        <ele>272.4</ele>
        <time>2025-09-11T14:15:21Z</time>
      </trkpt>
      <trkpt lat="45.93689" lon="4.70434">
        <ele>271.8</ele>
        <time>2025-09-11T14:15:22Z</time>
      </trkpt>
      <trkpt lat="45.93691" lon="4.70441">
        <ele>271.2</ele>
        <time>2025-09-11T14:15:23Z</time>
      </trkpt>
      <trkpt lat="45.93692" lon="4.70448">
        <ele>270.6</ele>
        <time>2025-09-11T14:15:24Z</time>
      </trkpt>
      <trkpt lat="45.93692" lon="4.70455">
        <ele>269.8</ele>
        <time>2025-09-11T14:15:25Z</time>
      </trkpt>
      <trkpt lat="45.93692" lon="4.70461">
        <ele>269</ele>
        <time>2025-09-11T14:15:26Z</time>
      </trkpt>
      <trkpt lat="45.93691" lon="4.70469">
        <ele>268</ele>
        <time>2025-09-11T14:15:27Z</time>
      </trkpt>
      <trkpt lat="45.93689" lon="4.70476">
        <ele>267.2</ele>
        <time>2025-09-11T14:15:28Z</time>
      </trkpt>
      <trkpt lat="45.93687" lon="4.70484">
        <ele>266.2</ele>
        <time>2025-09-11T14:15:29Z</time>
      </trkpt>
      <trkpt lat="45.93685" lon="4.7049">
        <ele>265.2</ele>
        <time>2025-09-11T14:15:30Z</time>
      </trkpt>
      <trkpt lat="45.93683" lon="4.70498">
        <ele>264.2</ele>
        <time>2025-09-11T14:15:31Z</time>
      </trkpt>
      <trkpt lat="45.93681" lon="4.70505">
        <ele>262.8</ele>
        <time>2025-09-11T14:15:32Z</time>
      </trkpt>
      <trkpt lat="45.93679" lon="4.70513">
        <ele>261.6</ele>
        <time>2025-09-11T14:15:33Z</time>
      </trkpt>
      <trkpt lat="45.93677" lon="4.70522">
        <ele>260.2</ele>
        <time>2025-09-11T14:15:34Z</time>
      </trkpt>
      <trkpt lat="45.93675" lon="4.7053">
        <ele>259.2</ele>
        <time>2025-09-11T14:15:35Z</time>
      </trkpt>
      <trkpt lat="45.93674" lon="4.70539">
        <ele>258</ele>
        <time>2025-09-11T14:15:36Z</time>
      </trkpt>
      <trkpt lat="45.93673" lon="4.70549">
        <ele>256.6</ele>
        <time>2025-09-11T14:15:37Z</time>
      </trkpt>
      <trkpt lat="45.93672" lon="4.70559">
        <ele>254.8</ele>
        <time>2025-09-11T14:15:38Z</time>
      </trkpt>
      <trkpt lat="45.93671" lon="4.70569">
        <ele>253.2</ele>
        <time>2025-09-11T14:15:39Z</time>
      </trkpt>
      <trkpt lat="45.93669" lon="4.7058">
        <ele>251.6</ele>
        <time>2025-09-11T14:15:40Z</time>
      </trkpt>
      <trkpt lat="45.93668" lon="4.70591">
        <ele>250.4</ele>
        <time>2025-09-11T14:15:41Z</time>
      </trkpt>
      <trkpt lat="45.93665" lon="4.70602">
        <ele>249.4</ele>
        <time>2025-09-11T14:15:42Z</time>
      </trkpt>
      <trkpt lat="45.93664" lon="4.70613">
        <ele>248.2</ele>
        <time>2025-09-11T14:15:43Z</time>
      </trkpt>
      <trkpt lat="45.93663" lon="4.70623">
        <ele>247</ele>
        <time>2025-09-11T14:15:44Z</time>
      </trkpt>
      <trkpt lat="45.93659" lon="4.70632">
        <ele>245.6</ele>
        <time>2025-09-11T14:15:45Z</time>
      </trkpt>
      <trkpt lat="45.93656" lon="4.70642">
        <ele>244.4</ele>
        <time>2025-09-11T14:15:46Z</time>
      </trkpt>
      <trkpt lat="45.93654" lon="4.70651">
        <ele>243.6</ele>
        <time>2025-09-11T14:15:47Z</time>
      </trkpt>
      <trkpt lat="45.9365" lon="4.7066">
        <ele>242.8</ele>
        <time>2025-09-11T14:15:48Z</time>
      </trkpt>
      <trkpt lat="45.93648" lon="4.70668">
        <ele>241.8</ele>
        <time>2025-09-11T14:15:49Z</time>
      </trkpt>
      <trkpt lat="45.93646" lon="4.70678">
        <ele>240.6</ele>
        <time>2025-09-11T14:15:50Z</time>
      </trkpt>
      <trkpt lat="45.93643" lon="4.70688">
        <ele>239.8</ele>
        <time>2025-09-11T14:15:51Z</time>
      </trkpt>
      <trkpt lat="45.9364" lon="4.70697">
        <ele>239</ele>
        <time>2025-09-11T14:15:52Z</time>
      </trkpt>
      <trkpt lat="45.93637" lon="4.70706">
        <ele>238</ele>
        <time>2025-09-11T14:15:53Z</time>
      </trkpt>
      <trkpt lat="45.93634" lon="4.70716">
        <ele>237.4</ele>
        <time>2025-09-11T14:15:54Z</time>
      </trkpt>
      <trkpt lat="45.93629" lon="4.70735">
        <ele>236.6</ele>
        <time>2025-09-11T14:15:55Z</time>
      </trkpt>
      <trkpt lat="45.93628" lon="4.70745">
        <ele>236</ele>
        <time>2025-09-11T14:15:56Z</time>
      </trkpt>
      <trkpt lat="45.93628" lon="4.70755">
        <ele>235.2</ele>
        <time>2025-09-11T14:15:57Z</time>
      </trkpt>
      <trkpt lat="45.93629" lon="4.70764">
        <ele>234.2</ele>
        <time>2025-09-11T14:15:58Z</time>
      </trkpt>
      <trkpt lat="45.93631" lon="4.70772">
        <ele>233.2</ele>
        <time>2025-09-11T14:15:59Z</time>
      </trkpt>
      <trkpt lat="45.93633" lon="4.70781">
        <ele>232</ele>
        <time>2025-09-11T14:16:00Z</time>
      </trkpt>
      <trkpt lat="45.93633" lon="4.70781">
        <ele>231</ele>
        <time>2025-09-11T14:16:01Z</time>
      </trkpt>
      <trkpt lat="45.93635" lon="4.70789">
        <ele>230</ele>
        <time>2025-09-11T14:16:02Z</time>
      </trkpt>
      <trkpt lat="45.93638" lon="4.70797">
        <ele>230</ele>
        <time>2025-09-11T14:16:03Z</time>
      </trkpt>
      <trkpt lat="45.93641" lon="4.70806">
        <ele>229.4</ele>
        <time>2025-09-11T14:16:04Z</time>
      </trkpt>
      <trkpt lat="45.93643" lon="4.70814">
        <ele>228.4</ele>
        <time>2025-09-11T14:16:05Z</time>
      </trkpt>
      <trkpt lat="45.93646" lon="4.70822">
        <ele>227.6</ele>
        <time>2025-09-11T14:16:06Z</time>
      </trkpt>
      <trkpt lat="45.93648" lon="4.7083">
        <ele>226.6</ele>
        <time>2025-09-11T14:16:07Z</time>
      </trkpt>
      <trkpt lat="45.93649" lon="4.70837">
        <ele>225.6</ele>
        <time>2025-09-11T14:16:08Z</time>
      </trkpt>
      <trkpt lat="45.93648" lon="4.70846">
        <ele>224.8</ele>
        <time>2025-09-11T14:16:09Z</time>
      </trkpt>
      <trkpt lat="45.93647" lon="4.70854">
        <ele>223.8</ele>
        <time>2025-09-11T14:16:10Z</time>
      </trkpt>
      <trkpt lat="45.93644" lon="4.70861">
        <ele>222.8</ele>
        <time>2025-09-11T14:16:11Z</time>
      </trkpt>
      <trkpt lat="45.93641" lon="4.70868">
        <ele>222</ele>
        <time>2025-09-11T14:16:12Z</time>
      </trkpt>
      <trkpt lat="45.93637" lon="4.70873">
        <ele>221.4</ele>
        <time>2025-09-11T14:16:13Z</time>
      </trkpt>
      <trkpt lat="45.93631" lon="4.70879">
        <ele>220.4</ele>
        <time>2025-09-11T14:16:14Z</time>
      </trkpt>
      <trkpt lat="45.93625" lon="4.70885">
        <ele>219.8</ele>
        <time>2025-09-11T14:16:15Z</time>
      </trkpt>
      <trkpt lat="45.9362" lon="4.7089">
        <ele>219</ele>
        <time>2025-09-11T14:16:16Z</time>
      </trkpt>
      <trkpt lat="45.93614" lon="4.70893">
        <ele>218.2</ele>
        <time>2025-09-11T14:16:17Z</time>
      </trkpt>
      <trkpt lat="45.93608" lon="4.70898">
        <ele>217.2</ele>
        <time>2025-09-11T14:16:18Z</time>
      </trkpt>
      <trkpt lat="45.93602" lon="4.70901">
        <ele>216.6</ele>
        <time>2025-09-11T14:16:19Z</time>
      </trkpt>
      <trkpt lat="45.93597" lon="4.70906">
        <ele>215.4</ele>
        <time>2025-09-11T14:16:20Z</time>
      </trkpt>
      <trkpt lat="45.93592" lon="4.7091">
        <ele>214.4</ele>
        <time>2025-09-11T14:16:21Z</time>
      </trkpt>
      <trkpt lat="45.93587" lon="4.70915">
        <ele>213.4</ele>
        <time>2025-09-11T14:16:22Z</time>
      </trkpt>
      <trkpt lat="45.93583" lon="4.70921">
        <ele>212.4</ele>
        <time>2025-09-11T14:16:23Z</time>
      </trkpt>
      <trkpt lat="45.9358" lon="4.70926">
        <ele>211.8</ele>
        <time>2025-09-11T14:16:24Z</time>
      </trkpt>
      <trkpt lat="45.93577" lon="4.70933">
        <ele>210.6</ele>
        <time>2025-09-11T14:16:25Z</time>
      </trkpt>
      <trkpt lat="45.93574" lon="4.7094">
        <ele>209.4</ele>
        <time>2025-09-11T14:16:26Z</time>
      </trkpt>
      <trkpt lat="45.93572" lon="4.70947">
        <ele>208.6</ele>
        <time>2025-09-11T14:16:27Z</time>
      </trkpt>
      <trkpt lat="45.93569" lon="4.70953">
        <ele>208</ele>
        <time>2025-09-11T14:16:28Z</time>
      </trkpt>
      <trkpt lat="45.93567" lon="4.70958">
        <ele>207.2</ele>
        <time>2025-09-11T14:16:29Z</time>
      </trkpt>
      <trkpt lat="45.93565" lon="4.70965">
        <ele>206.4</ele>
        <time>2025-09-11T14:16:30Z</time>
      </trkpt>
      <trkpt lat="45.93563" lon="4.70971">
        <ele>205.4</ele>
        <time>2025-09-11T14:16:31Z</time>
      </trkpt>
      <trkpt lat="45.93562" lon="4.70977">
        <ele>204.8</ele>
        <time>2025-09-11T14:16:32Z</time>
      </trkpt>
      <trkpt lat="45.9356" lon="4.70984">
        <ele>204.2</ele>
        <time>2025-09-11T14:16:33Z</time>
      </trkpt>
      <trkpt lat="45.93559" lon="4.7099">
        <ele>203.4</ele>
        <time>2025-09-11T14:16:34Z</time>
      </trkpt>
      <trkpt lat="45.93558" lon="4.70996">
        <ele>202.8</ele>
        <time>2025-09-11T14:16:35Z</time>
      </trkpt>
      <trkpt lat="45.93556" lon="4.71004">
        <ele>202</ele>
        <time>2025-09-11T14:16:36Z</time>
      </trkpt>
      <trkpt lat="45.93554" lon="4.71012">
        <ele>201.4</ele>
        <time>2025-09-11T14:16:37Z</time>
      </trkpt>
      <trkpt lat="45.93552" lon="4.71019">
        <ele>201.2</ele>
        <time>2025-09-11T14:16:38Z</time>
      </trkpt>
      <trkpt lat="45.93551" lon="4.71026">
        <ele>200.4</ele>
        <time>2025-09-11T14:16:39Z</time>
      </trkpt>
      <trkpt lat="45.9355" lon="4.71032">
        <ele>199.6</ele>
        <time>2025-09-11T14:16:40Z</time>
      </trkpt>
      <trkpt lat="45.93548" lon="4.71036">
        <ele>199</ele>
        <time>2025-09-11T14:16:41Z</time>
      </trkpt>
      <trkpt lat="45.93546" lon="4.7104">
        <ele>198.4</ele>
        <time>2025-09-11T14:16:42Z</time>
      </trkpt>
      <trkpt lat="45.93545" lon="4.71047">
        <ele>198</ele>
        <time>2025-09-11T14:16:43Z</time>
      </trkpt>
      <trkpt lat="45.93544" lon="4.71046">
        <ele>197.6</ele>
        <time>2025-09-11T14:16:44Z</time>
      </trkpt>
      <trkpt lat="45.93545" lon="4.71049">
        <ele>197.2</ele>
        <time>2025-09-11T14:16:45Z</time>
      </trkpt>
      <trkpt lat="45.93545" lon="4.7105">
        <ele>196.8</ele>
        <time>2025-09-11T14:16:46Z</time>
      </trkpt>
      <trkpt lat="45.93545" lon="4.71051">
        <ele>196.6</ele>
        <time>2025-09-11T14:16:47Z</time>
      </trkpt>
      <trkpt lat="45.93545" lon="4.71051">
        <ele>196.6</ele>
        <time>2025-09-11T14:16:48Z</time>
      </trkpt>
      <trkpt lat="45.93544" lon="4.71052">
        <ele>195.8</ele>
        <time>2025-09-11T14:20:36Z</time>
      </trkpt>
      <trkpt lat="45.93543" lon="4.71055">
        <ele>195.8</ele>
        <time>2025-09-11T14:20:37Z</time>
      </trkpt>
      <trkpt lat="45.93543" lon="4.71059">
        <ele>195.6</ele>
        <time>2025-09-11T14:20:38Z</time>
      </trkpt>
      <trkpt lat="45.93542" lon="4.71064">
        <ele>195.6</ele>
        <time>2025-09-11T14:20:39Z</time>
      </trkpt>
      <trkpt lat="45.93541" lon="4.71071">
        <ele>195.2</ele>
        <time>2025-09-11T14:20:40Z</time>
      </trkpt>
      <trkpt lat="45.9354" lon="4.71078">
        <ele>195</ele>
        <time>2025-09-11T14:20:41Z</time>
      </trkpt>
      <trkpt lat="45.9354" lon="4.71086">
        <ele>194.6</ele>
        <time>2025-09-11T14:20:42Z</time>
      </trkpt>
      <trkpt lat="45.93538" lon="4.71095">
        <ele>194.2</ele>
        <time>2025-09-11T14:20:43Z</time>
      </trkpt>
      <trkpt lat="45.93537" lon="4.71106">
        <ele>193.6</ele>
        <time>2025-09-11T14:20:44Z</time>
      </trkpt>
      <trkpt lat="45.93536" lon="4.71117">
        <ele>193.2</ele>
        <time>2025-09-11T14:20:45Z</time>
      </trkpt>
      <trkpt lat="45.93535" lon="4.71128">
        <ele>192.6</ele>
        <time>2025-09-11T14:20:46Z</time>
      </trkpt>
      <trkpt lat="45.93533" lon="4.7114">
        <ele>192</ele>
        <time>2025-09-11T14:20:47Z</time>
      </trkpt>
      <trkpt lat="45.93532" lon="4.71152">
        <ele>191.4</ele>
        <time>2025-09-11T14:20:48Z</time>
      </trkpt>
      <trkpt lat="45.9353" lon="4.71165">
        <ele>190.8</ele>
        <time>2025-09-11T14:20:49Z</time>
      </trkpt>
      <trkpt lat="45.93529" lon="4.71178">
        <ele>190</ele>
        <time>2025-09-11T14:20:50Z</time>
      </trkpt>
      <trkpt lat="45.93527" lon="4.71191">
        <ele>189.4</ele>
        <time>2025-09-11T14:20:51Z</time>
      </trkpt>
      <trkpt lat="45.93526" lon="4.71203">
        <ele>188.8</ele>
        <time>2025-09-11T14:20:52Z</time>
      </trkpt>
      <trkpt lat="45.93524" lon="4.71216">
        <ele>188.2</ele>
        <time>2025-09-11T14:20:53Z</time>
      </trkpt>
      <trkpt lat="45.93523" lon="4.71229">
        <ele>187.6</ele>
        <time>2025-09-11T14:20:54Z</time>
      </trkpt>
      <trkpt lat="45.93522" lon="4.71241">
        <ele>187</ele>
        <time>2025-09-11T14:20:55Z</time>
      </trkpt>
      <trkpt lat="45.93521" lon="4.71252">
        <ele>186.4</ele>
        <time>2025-09-11T14:20:56Z</time>
      </trkpt>
      <trkpt lat="45.9352" lon="4.71262">
        <ele>186.4</ele>
        <time>2025-09-11T14:20:57Z</time>
      </trkpt>
      <trkpt lat="45.93519" lon="4.71271">
        <ele>185.8</ele>
        <time>2025-09-11T14:20:58Z</time>
      </trkpt>
      <trkpt lat="45.93519" lon="4.71279">
        <ele>185.2</ele>
        <time>2025-09-11T14:20:59Z</time>
      </trkpt>
      <trkpt lat="45.93519" lon="4.71286">
        <ele>184</ele>
        <time>2025-09-11T14:21:00Z</time>
      </trkpt>
      <trkpt lat="45.9352" lon="4.71294">
        <ele>184.2</ele>
        <time>2025-09-11T14:21:01Z</time>
      </trkpt>
      <trkpt lat="45.9352" lon="4.71301">
        <ele>183.8</ele>
        <time>2025-09-11T14:21:02Z</time>
      </trkpt>
      <trkpt lat="45.93519" lon="4.71308">
        <ele>183.6</ele>
        <time>2025-09-11T14:21:03Z</time>
      </trkpt>
      <trkpt lat="45.93519" lon="4.71316">
        <ele>183.2</ele>
        <time>2025-09-11T14:21:04Z</time>
      </trkpt>
      <trkpt lat="45.9352" lon="4.71322">
        <ele>183</ele>
        <time>2025-09-11T14:21:05Z</time>
      </trkpt>
      <trkpt lat="45.93523" lon="4.71328">
        <ele>182.6</ele>
        <time>2025-09-11T14:21:06Z</time>
      </trkpt>
      <trkpt lat="45.93526" lon="4.71335">
        <ele>182.6</ele>
        <time>2025-09-11T14:21:07Z</time>
      </trkpt>
      <trkpt lat="45.93529" lon="4.71342">
        <ele>182.6</ele>
        <time>2025-09-11T14:21:08Z</time>
      </trkpt>
      <trkpt lat="45.93532" lon="4.7135">
        <ele>182.2</ele>
        <time>2025-09-11T14:21:09Z</time>
      </trkpt>
      <trkpt lat="45.93534" lon="4.71358">
        <ele>182</ele>
        <time>2025-09-11T14:21:10Z</time>
      </trkpt>
      <trkpt lat="45.93536" lon="4.71366">
        <ele>181</ele>
        <time>2025-09-11T14:21:11Z</time>
      </trkpt>
      <trkpt lat="45.93537" lon="4.71375">
        <ele>181</ele>
        <time>2025-09-11T14:21:12Z</time>
      </trkpt>
      <trkpt lat="45.93538" lon="4.71385">
        <ele>181</ele>
        <time>2025-09-11T14:21:13Z</time>
      </trkpt>
      <trkpt lat="45.93539" lon="4.71395">
        <ele>181</ele>
        <time>2025-09-11T14:21:14Z</time>
      </trkpt>
      <trkpt lat="45.93539" lon="4.71405">
        <ele>181</ele>
        <time>2025-09-11T14:21:15Z</time>
      </trkpt>
      <trkpt lat="45.93539" lon="4.71415">
        <ele>180.6</ele>
        <time>2025-09-11T14:21:16Z</time>
      </trkpt>
      <trkpt lat="45.93538" lon="4.71425">
        <ele>180.6</ele>
        <time>2025-09-11T14:21:17Z</time>
      </trkpt>
      <trkpt lat="45.93537" lon="4.71435">
        <ele>180.2</ele>
        <time>2025-09-11T14:21:18Z</time>
      </trkpt>
      <trkpt lat="45.93536" lon="4.71445">
        <ele>180.2</ele>
        <time>2025-09-11T14:21:19Z</time>
      </trkpt>
      <trkpt lat="45.93535" lon="4.71454">
        <ele>180</ele>
        <time>2025-09-11T14:21:20Z</time>
      </trkpt>
      <trkpt lat="45.93534" lon="4.71463">
        <ele>180</ele>
        <time>2025-09-11T14:21:21Z</time>
      </trkpt>
      <trkpt lat="45.93533" lon="4.71472">
        <ele>180</ele>
        <time>2025-09-11T14:21:22Z</time>
      </trkpt>
      <trkpt lat="45.93532" lon="4.7148">
        <ele>180</ele>
        <time>2025-09-11T14:21:23Z</time>
      </trkpt>
      <trkpt lat="45.93532" lon="4.71489">
        <ele>179.8</ele>
        <time>2025-09-11T14:21:24Z</time>
      </trkpt>
      <trkpt lat="45.93531" lon="4.71497">
        <ele>179.8</ele>
        <time>2025-09-11T14:21:25Z</time>
      </trkpt>
      <trkpt lat="45.93531" lon="4.71506">
        <ele>179.6</ele>
        <time>2025-09-11T14:21:26Z</time>
      </trkpt>
      <trkpt lat="45.93531" lon="4.71514">
        <ele>179.6</ele>
        <time>2025-09-11T14:21:27Z</time>
      </trkpt>
      <trkpt lat="45.93531" lon="4.71523">
        <ele>179.6</ele>
        <time>2025-09-11T14:21:28Z</time>
      </trkpt>
      <trkpt lat="45.93532" lon="4.71531">
        <ele>179.4</ele>
        <time>2025-09-11T14:21:29Z</time>
      </trkpt>
      <trkpt lat="45.93532" lon="4.71538">
        <ele>180</ele>
        <time>2025-09-11T14:21:30Z</time>
      </trkpt>
      <trkpt lat="45.93533" lon="4.71545">
        <ele>180</ele>
        <time>2025-09-11T14:21:31Z</time>
      </trkpt>
      <trkpt lat="45.93533" lon="4.71553">
        <ele>179.6</ele>
        <time>2025-09-11T14:21:32Z</time>
      </trkpt>
      <trkpt lat="45.93534" lon="4.71561">
        <ele>179.6</ele>
        <time>2025-09-11T14:21:33Z</time>
      </trkpt>
      <trkpt lat="45.93535" lon="4.71568">
        <ele>179.4</ele>
        <time>2025-09-11T14:21:34Z</time>
      </trkpt>
      <trkpt lat="45.93536" lon="4.71576">
        <ele>179.4</ele>
        <time>2025-09-11T14:21:35Z</time>
      </trkpt>
      <trkpt lat="45.93537" lon="4.71583">
        <ele>179.4</ele>
        <time>2025-09-11T14:21:36Z</time>
      </trkpt>
      <trkpt lat="45.93538" lon="4.7159">
        <ele>179.4</ele>
        <time>2025-09-11T14:21:37Z</time>
      </trkpt>
      <trkpt lat="45.93539" lon="4.71598">
        <ele>179.2</ele>
        <time>2025-09-11T14:21:38Z</time>
      </trkpt>
      <trkpt lat="45.9354" lon="4.71605">
        <ele>179.2</ele>
        <time>2025-09-11T14:21:39Z</time>
      </trkpt>
      <trkpt lat="45.93541" lon="4.71611">
        <ele>179.2</ele>
        <time>2025-09-11T14:21:40Z</time>
      </trkpt>
      <trkpt lat="45.93543" lon="4.71618">
        <ele>179.2</ele>
        <time>2025-09-11T14:21:41Z</time>
      </trkpt>
      <trkpt lat="45.93545" lon="4.71624">
        <ele>178.8</ele>
        <time>2025-09-11T14:21:42Z</time>
      </trkpt>
      <trkpt lat="45.93546" lon="4.71631">
        <ele>178.8</ele>
        <time>2025-09-11T14:21:43Z</time>
      </trkpt>
      <trkpt lat="45.93548" lon="4.71636">
        <ele>178.8</ele>
        <time>2025-09-11T14:21:44Z</time>
      </trkpt>
      <trkpt lat="45.9355" lon="4.71642">
        <ele>178.8</ele>
        <time>2025-09-11T14:21:45Z</time>
      </trkpt>
      <trkpt lat="45.93552" lon="4.71648">
        <ele>178.8</ele>
        <time>2025-09-11T14:21:46Z</time>
      </trkpt>
      <trkpt lat="45.93554" lon="4.71656">
        <ele>178.8</ele>
        <time>2025-09-11T14:21:47Z</time>
      </trkpt>
      <trkpt lat="45.93557" lon="4.7166">
        <ele>178.8</ele>
        <time>2025-09-11T14:21:48Z</time>
      </trkpt>
      <trkpt lat="45.93559" lon="4.71667">
        <ele>178.8</ele>
        <time>2025-09-11T14:21:49Z</time>
      </trkpt>
      <trkpt lat="45.93562" lon="4.71671">
        <ele>178.8</ele>
        <time>2025-09-11T14:21:50Z</time>
      </trkpt>
      <trkpt lat="45.93565" lon="4.71676">
        <ele>178.8</ele>
        <time>2025-09-11T14:21:51Z</time>
      </trkpt>
      <trkpt lat="45.93568" lon="4.7168">
        <ele>178.6</ele>
        <time>2025-09-11T14:21:52Z</time>
      </trkpt>
      <trkpt lat="45.93571" lon="4.71685">
        <ele>178.6</ele>
        <time>2025-09-11T14:21:53Z</time>
      </trkpt>
      <trkpt lat="45.93574" lon="4.71691">
        <ele>178.4</ele>
        <time>2025-09-11T14:21:54Z</time>
      </trkpt>
      <trkpt lat="45.93578" lon="4.71695">
        <ele>178.4</ele>
        <time>2025-09-11T14:21:55Z</time>
      </trkpt>
      <trkpt lat="45.93581" lon="4.71702">
        <ele>178</ele>
        <time>2025-09-11T14:21:56Z</time>
      </trkpt>
      <trkpt lat="45.93584" lon="4.71708">
        <ele>177.8</ele>
        <time>2025-09-11T14:21:57Z</time>
      </trkpt>
      <trkpt lat="45.93587" lon="4.71714">
        <ele>177.8</ele>
        <time>2025-09-11T14:21:58Z</time>
      </trkpt>
      <trkpt lat="45.9359" lon="4.71722">
        <ele>177.6</ele>
        <time>2025-09-11T14:21:59Z</time>
      </trkpt>
      <trkpt lat="45.93594" lon="4.71729">
        <ele>177.6</ele>
        <time>2025-09-11T14:22:00Z</time>
      </trkpt>
      <trkpt lat="45.93597" lon="4.71737">
        <ele>177.6</ele>
        <time>2025-09-11T14:22:01Z</time>
      </trkpt>
      <trkpt lat="45.936" lon="4.71746">
        <ele>177.6</ele>
        <time>2025-09-11T14:22:02Z</time>
      </trkpt>
      <trkpt lat="45.93602" lon="4.71754">
        <ele>177.2</ele>
        <time>2025-09-11T14:22:03Z</time>
      </trkpt>
      <trkpt lat="45.93604" lon="4.71762">
        <ele>177.2</ele>
        <time>2025-09-11T14:22:04Z</time>
      </trkpt>
      <trkpt lat="45.93606" lon="4.71771">
        <ele>177.2</ele>
        <time>2025-09-11T14:22:05Z</time>
      </trkpt>
      <trkpt lat="45.93608" lon="4.71779">
        <ele>176.8</ele>
        <time>2025-09-11T14:22:06Z</time>
      </trkpt>
      <trkpt lat="45.9361" lon="4.71786">
        <ele>176.2</ele>
        <time>2025-09-11T14:22:07Z</time>
      </trkpt>
      <trkpt lat="45.93612" lon="4.71792">
        <ele>176.2</ele>
        <time>2025-09-11T14:22:08Z</time>
      </trkpt>
      <trkpt lat="45.93612" lon="4.71797">
        <ele>176</ele>
        <time>2025-09-11T14:22:09Z</time>
      </trkpt>
      <trkpt lat="45.93613" lon="4.71801">
        <ele>175.8</ele>
        <time>2025-09-11T14:22:10Z</time>
      </trkpt>
      <trkpt lat="45.93615" lon="4.71805">
        <ele>175.8</ele>
        <time>2025-09-11T14:22:11Z</time>
      </trkpt>
      <trkpt lat="45.93617" lon="4.71808">
        <ele>175.8</ele>
        <time>2025-09-11T14:22:12Z</time>
      </trkpt>
      <trkpt lat="45.9362" lon="4.71808">
        <ele>175.8</ele>
        <time>2025-09-11T14:22:13Z</time>
      </trkpt>
      <trkpt lat="45.93623" lon="4.71807">
        <ele>175.8</ele>
        <time>2025-09-11T14:22:14Z</time>
      </trkpt>
      <trkpt lat="45.93626" lon="4.71805">
        <ele>175.8</ele>
        <time>2025-09-11T14:22:15Z</time>
      </trkpt>
      <trkpt lat="45.93629" lon="4.71804">
        <ele>175.4</ele>
        <time>2025-09-11T14:22:16Z</time>
      </trkpt>
      <trkpt lat="45.93633" lon="4.71802">
        <ele>175.4</ele>
        <time>2025-09-11T14:22:17Z</time>
      </trkpt>
      <trkpt lat="45.93638" lon="4.71801">
        <ele>175.4</ele>
        <time>2025-09-11T14:22:18Z</time>
      </trkpt>
      <trkpt lat="45.93642" lon="4.71799">
        <ele>175.4</ele>
        <time>2025-09-11T14:22:19Z</time>
      </trkpt>
      <trkpt lat="45.93646" lon="4.71798">
        <ele>175.4</ele>
        <time>2025-09-11T14:22:20Z</time>
      </trkpt>
      <trkpt lat="45.93651" lon="4.71795">
        <ele>175.2</ele>
        <time>2025-09-11T14:22:21Z</time>
      </trkpt>
      <trkpt lat="45.93656" lon="4.71793">
        <ele>175.2</ele>
        <time>2025-09-11T14:22:22Z</time>
      </trkpt>
      <trkpt lat="45.9366" lon="4.71791">
        <ele>175</ele>
        <time>2025-09-11T14:22:23Z</time>
      </trkpt>
      <trkpt lat="45.93664" lon="4.71789">
        <ele>175</ele>
        <time>2025-09-11T14:22:24Z</time>
      </trkpt>
      <trkpt lat="45.93667" lon="4.71788">
        <ele>175</ele>
        <time>2025-09-11T14:22:25Z</time>
      </trkpt>
      <trkpt lat="45.93669" lon="4.71786">
        <ele>174.6</ele>
        <time>2025-09-11T14:22:26Z</time>
      </trkpt>
      <trkpt lat="45.93672" lon="4.71786">
        <ele>174.6</ele>
        <time>2025-09-11T14:22:27Z</time>
      </trkpt>
      <trkpt lat="45.93674" lon="4.71786">
        <ele>174.4</ele>
        <time>2025-09-11T14:22:28Z</time>
      </trkpt>
      <trkpt lat="45.93675" lon="4.71785">
        <ele>174.4</ele>
        <time>2025-09-11T14:22:29Z</time>
      </trkpt>
      <trkpt lat="45.93675" lon="4.71785">
        <ele>174.4</ele>
        <time>2025-09-11T14:22:30Z</time>
      </trkpt>
      <trkpt lat="45.93675" lon="4.71785">
        <ele>174.4</ele>
        <time>2025-09-11T14:22:31Z</time>
      </trkpt>
      <trkpt lat="45.93675" lon="4.71782">
        <ele>174.4</ele>
        <time>2025-09-11T14:22:32Z</time>
      </trkpt>
      <trkpt lat="45.93675" lon="4.71778">
        <ele>174.4</ele>
        <time>2025-09-11T14:22:33Z</time>
      </trkpt>
      <trkpt lat="45.93675" lon="4.71776">
        <ele>174.2</ele>
        <time>2025-09-11T14:22:34Z</time>
      </trkpt>
      <trkpt lat="45.93675" lon="4.71773">
        <ele>174.2</ele>
        <time>2025-09-11T14:22:35Z</time>
      </trkpt>
      <trkpt lat="45.93675" lon="4.71771">
        <ele>174.2</ele>
        <time>2025-09-11T14:22:36Z</time>
      </trkpt>
      <trkpt lat="45.93675" lon="4.71771">
        <ele>174.2</ele>
        <time>2025-09-11T14:22:37Z</time>
      </trkpt>
      <trkpt lat="45.93675" lon="4.71771">
        <ele>174.2</ele>
        <time>2025-09-11T14:22:38Z</time>
      </trkpt>
      <trkpt lat="45.93675" lon="4.7177">
        <ele>174.2</ele>
        <time>2025-09-11T14:22:41Z</time>
      </trkpt>
      <trkpt lat="45.93675" lon="4.71769">
        <ele>174.2</ele>
        <time>2025-09-11T14:22:42Z</time>
      </trkpt>
      <trkpt lat="45.93676" lon="4.71769">
        <ele>174.2</ele>
        <time>2025-09-11T14:22:43Z</time>
      </trkpt>
      <trkpt lat="45.93678" lon="4.7177">
        <ele>174.2</ele>
        <time>2025-09-11T14:22:44Z</time>
      </trkpt>
      <trkpt lat="45.93678" lon="4.7177">
        <ele>174.2</ele>
        <time>2025-09-11T14:22:45Z</time>
      </trkpt>
      <trkpt lat="45.93679" lon="4.71778">
        <ele>174.2</ele>
        <time>2025-09-11T14:22:57Z</time>
      </trkpt>
      <trkpt lat="45.9368" lon="4.71781">
        <ele>174.2</ele>
        <time>2025-09-11T14:22:58Z</time>
      </trkpt>
      <trkpt lat="45.93682" lon="4.71783">
        <ele>174.2</ele>
        <time>2025-09-11T14:22:59Z</time>
      </trkpt>
      <trkpt lat="45.93684" lon="4.71785">
        <ele>174.2</ele>
        <time>2025-09-11T14:23:00Z</time>
      </trkpt>
      <trkpt lat="45.93687" lon="4.71785">
        <ele>174.2</ele>
        <time>2025-09-11T14:23:01Z</time>
      </trkpt>
      <trkpt lat="45.9369" lon="4.71785">
        <ele>174.2</ele>
        <time>2025-09-11T14:23:02Z</time>
      </trkpt>
      <trkpt lat="45.93693" lon="4.71784">
        <ele>174.2</ele>
        <time>2025-09-11T14:23:03Z</time>
      </trkpt>
      <trkpt lat="45.93696" lon="4.71782">
        <ele>174</ele>
        <time>2025-09-11T14:23:04Z</time>
      </trkpt>
      <trkpt lat="45.937" lon="4.71782">
        <ele>174</ele>
        <time>2025-09-11T14:23:05Z</time>
      </trkpt>
      <trkpt lat="45.93703" lon="4.71786">
        <ele>174</ele>
        <time>2025-09-11T14:23:06Z</time>
      </trkpt>
      <trkpt lat="45.93705" lon="4.7179">
        <ele>173.8</ele>
        <time>2025-09-11T14:23:07Z</time>
      </trkpt>
      <trkpt lat="45.93706" lon="4.71796">
        <ele>173.8</ele>
        <time>2025-09-11T14:23:08Z</time>
      </trkpt>
      <trkpt lat="45.93706" lon="4.718">
        <ele>173.8</ele>
        <time>2025-09-11T14:23:09Z</time>
      </trkpt>
      <trkpt lat="45.93706" lon="4.71805">
        <ele>173.8</ele>
        <time>2025-09-11T14:23:10Z</time>
      </trkpt>
      <trkpt lat="45.93706" lon="4.71811">
        <ele>173.8</ele>
        <time>2025-09-11T14:23:11Z</time>
      </trkpt>
      <trkpt lat="45.93705" lon="4.71816">
        <ele>173.6</ele>
        <time>2025-09-11T14:23:12Z</time>
      </trkpt>
      <trkpt lat="45.93703" lon="4.71821">
        <ele>173.6</ele>
        <time>2025-09-11T14:23:13Z</time>
      </trkpt>
      <trkpt lat="45.93701" lon="4.71826">
        <ele>173.6</ele>
        <time>2025-09-11T14:23:14Z</time>
      </trkpt>
      <trkpt lat="45.937" lon="4.71829">
        <ele>173.4</ele>
        <time>2025-09-11T14:23:15Z</time>
      </trkpt>
      <trkpt lat="45.93697" lon="4.71836">
        <ele>173.4</ele>
        <time>2025-09-11T14:23:16Z</time>
      </trkpt>
      <trkpt lat="45.93696" lon="4.71841">
        <ele>173.4</ele>
        <time>2025-09-11T14:23:17Z</time>
      </trkpt>
      <trkpt lat="45.93695" lon="4.71847">
        <ele>173.4</ele>
        <time>2025-09-11T14:23:18Z</time>
      </trkpt>
      <trkpt lat="45.93692" lon="4.71853">
        <ele>173.4</ele>
        <time>2025-09-11T14:23:19Z</time>
      </trkpt>
      <trkpt lat="45.93691" lon="4.7186">
        <ele>173.4</ele>
        <time>2025-09-11T14:23:20Z</time>
      </trkpt>
      <trkpt lat="45.93688" lon="4.71865">
        <ele>173.4</ele>
        <time>2025-09-11T14:23:21Z</time>
      </trkpt>
      <trkpt lat="45.93686" lon="4.71871">
        <ele>173.4</ele>
        <time>2025-09-11T14:23:22Z</time>
      </trkpt>
      <trkpt lat="45.93684" lon="4.71877">
        <ele>173.4</ele>
        <time>2025-09-11T14:23:23Z</time>
      </trkpt>
      <trkpt lat="45.93681" lon="4.71883">
        <ele>173.4</ele>
        <time>2025-09-11T14:23:24Z</time>
      </trkpt>
      <trkpt lat="45.93678" lon="4.71889">
        <ele>173.2</ele>
        <time>2025-09-11T14:23:25Z</time>
      </trkpt>
      <trkpt lat="45.93676" lon="4.71897">
        <ele>173.2</ele>
        <time>2025-09-11T14:23:26Z</time>
      </trkpt>
      <trkpt lat="45.93673" lon="4.71904">
        <ele>172.8</ele>
        <time>2025-09-11T14:23:27Z</time>
      </trkpt>
      <trkpt lat="45.9367" lon="4.71911">
        <ele>172.8</ele>
        <time>2025-09-11T14:23:28Z</time>
      </trkpt>
      <trkpt lat="45.93667" lon="4.71918">
        <ele>172.8</ele>
        <time>2025-09-11T14:23:29Z</time>
      </trkpt>
      <trkpt lat="45.93665" lon="4.71926">
        <ele>172.8</ele>
        <time>2025-09-11T14:23:30Z</time>
      </trkpt>
      <trkpt lat="45.93661" lon="4.71933">
        <ele>172.8</ele>
        <time>2025-09-11T14:23:31Z</time>
      </trkpt>
      <trkpt lat="45.93659" lon="4.71941">
        <ele>172.8</ele>
        <time>2025-09-11T14:23:32Z</time>
      </trkpt>
      <trkpt lat="45.93656" lon="4.71947">
        <ele>172.8</ele>
        <time>2025-09-11T14:23:33Z</time>
      </trkpt>
      <trkpt lat="45.93656" lon="4.71954">
        <ele>172.8</ele>
        <time>2025-09-11T14:23:34Z</time>
      </trkpt>
      <trkpt lat="45.93657" lon="4.7196">
        <ele>172.6</ele>
        <time>2025-09-11T14:23:35Z</time>
      </trkpt>
      <trkpt lat="45.93658" lon="4.71962">
        <ele>172.6</ele>
        <time>2025-09-11T14:23:36Z</time>
      </trkpt>
      <trkpt lat="45.9366" lon="4.71965">
        <ele>172.4</ele>
        <time>2025-09-11T14:23:37Z</time>
      </trkpt>
      <trkpt lat="45.9366" lon="4.71965">
        <ele>172.4</ele>
        <time>2025-09-11T14:23:38Z</time>
      </trkpt>
      <trkpt lat="45.9366" lon="4.71966">
        <ele>172.4</ele>
        <time>2025-09-11T14:23:39Z</time>
      </trkpt>
      <trkpt lat="45.9366" lon="4.71966">
        <ele>172.4</ele>
        <time>2025-09-11T14:23:40Z</time>
      </trkpt>
      <trkpt lat="45.9366" lon="4.71966">
        <ele>172</ele>
        <time>2025-09-11T14:23:41Z</time>
      </trkpt>
      <trkpt lat="45.93659" lon="4.71968">
        <ele>172</ele>
        <time>2025-09-11T14:24:01Z</time>
      </trkpt>
      <trkpt lat="45.93659" lon="4.71969">
        <ele>172</ele>
        <time>2025-09-11T14:24:02Z</time>
      </trkpt>
      <trkpt lat="45.93659" lon="4.7197">
        <ele>171.8</ele>
        <time>2025-09-11T14:24:03Z</time>
      </trkpt>
      <trkpt lat="45.9366" lon="4.71972">
        <ele>171.8</ele>
        <time>2025-09-11T14:24:04Z</time>
      </trkpt>
      <trkpt lat="45.93661" lon="4.71974">
        <ele>171.8</ele>
        <time>2025-09-11T14:24:05Z</time>
      </trkpt>
      <trkpt lat="45.93663" lon="4.71978">
        <ele>171.8</ele>
        <time>2025-09-11T14:24:06Z</time>
      </trkpt>
      <trkpt lat="45.93665" lon="4.71982">
        <ele>171.8</ele>
        <time>2025-09-11T14:24:07Z</time>
      </trkpt>
      <trkpt lat="45.93667" lon="4.71987">
        <ele>171.8</ele>
        <time>2025-09-11T14:24:08Z</time>
      </trkpt>
      <trkpt lat="45.93668" lon="4.71992">
        <ele>171.6</ele>
        <time>2025-09-11T14:24:09Z</time>
      </trkpt>
      <trkpt lat="45.9367" lon="4.71998">
        <ele>171.6</ele>
        <time>2025-09-11T14:24:10Z</time>
      </trkpt>
      <trkpt lat="45.93671" lon="4.72002">
        <ele>171.6</ele>
        <time>2025-09-11T14:24:11Z</time>
      </trkpt>
      <trkpt lat="45.93673" lon="4.72007">
        <ele>171.6</ele>
        <time>2025-09-11T14:24:12Z</time>
      </trkpt>
      <trkpt lat="45.93675" lon="4.72012">
        <ele>171.6</ele>
        <time>2025-09-11T14:24:13Z</time>
      </trkpt>
      <trkpt lat="45.93676" lon="4.72015">
        <ele>171.6</ele>
        <time>2025-09-11T14:24:14Z</time>
      </trkpt>
      <trkpt lat="45.93677" lon="4.72017">
        <ele>171.2</ele>
        <time>2025-09-11T14:24:15Z</time>
      </trkpt>
      <trkpt lat="45.93679" lon="4.7202">
        <ele>171.2</ele>
        <time>2025-09-11T14:24:16Z</time>
      </trkpt>
      <trkpt lat="45.93681" lon="4.72022">
        <ele>171.2</ele>
        <time>2025-09-11T14:24:17Z</time>
      </trkpt>
      <trkpt lat="45.93682" lon="4.72024">
        <ele>171.2</ele>
        <time>2025-09-11T14:24:18Z</time>
      </trkpt>
      <trkpt lat="45.93683" lon="4.72026">
        <ele>171.2</ele>
        <time>2025-09-11T14:24:19Z</time>
      </trkpt>
      <trkpt lat="45.93684" lon="4.72029">
        <ele>171.2</ele>
        <time>2025-09-11T14:24:20Z</time>
      </trkpt>
      <trkpt lat="45.93686" lon="4.72031">
        <ele>171.2</ele>
        <time>2025-09-11T14:24:21Z</time>
      </trkpt>
      <trkpt lat="45.93686" lon="4.72034">
        <ele>171.2</ele>
        <time>2025-09-11T14:24:22Z</time>
      </trkpt>
      <trkpt lat="45.93687" lon="4.72036">
        <ele>171.2</ele>
        <time>2025-09-11T14:24:23Z</time>
      </trkpt>
      <trkpt lat="45.93688" lon="4.72038">
        <ele>171.2</ele>
        <time>2025-09-11T14:24:24Z</time>
      </trkpt>
      <trkpt lat="45.93688" lon="4.7204">
        <ele>171.2</ele>
        <time>2025-09-11T14:24:25Z</time>
      </trkpt>
      <trkpt lat="45.93687" lon="4.7204">
        <ele>171.2</ele>
        <time>2025-09-11T14:24:26Z</time>
      </trkpt>
      <trkpt lat="45.93688" lon="4.72042">
        <ele>171.2</ele>
        <time>2025-09-11T14:24:33Z</time>
      </trkpt>
      <trkpt lat="45.93689" lon="4.72045">
        <ele>171.2</ele>
        <time>2025-09-11T14:24:34Z</time>
      </trkpt>
      <trkpt lat="45.93691" lon="4.72048">
        <ele>171.2</ele>
        <time>2025-09-11T14:24:35Z</time>
      </trkpt>
      <trkpt lat="45.93694" lon="4.72048">
        <ele>171.2</ele>
        <time>2025-09-11T14:24:36Z</time>
      </trkpt>
      <trkpt lat="45.93696" lon="4.72036">
        <ele>171.2</ele>
        <time>2025-09-11T14:24:37Z</time>
      </trkpt>
      <trkpt lat="45.93699" lon="4.72032">
        <ele>171.4</ele>
        <time>2025-09-11T14:24:38Z</time>
      </trkpt>
      <trkpt lat="45.93702" lon="4.72028">
        <ele>171.4</ele>
        <time>2025-09-11T14:24:39Z</time>
      </trkpt>
      <trkpt lat="45.93705" lon="4.72022">
        <ele>171.4</ele>
        <time>2025-09-11T14:24:40Z</time>
      </trkpt>
      <trkpt lat="45.93708" lon="4.72017">
        <ele>171.4</ele>
        <time>2025-09-11T14:24:41Z</time>
      </trkpt>
      <trkpt lat="45.93711" lon="4.72011">
        <ele>171.4</ele>
        <time>2025-09-11T14:24:42Z</time>
      </trkpt>
      <trkpt lat="45.93714" lon="4.72007">
        <ele>171.4</ele>
        <time>2025-09-11T14:24:43Z</time>
      </trkpt>
      <trkpt lat="45.93716" lon="4.72002">
        <ele>171.4</ele>
        <time>2025-09-11T14:24:44Z</time>
      </trkpt>
      <trkpt lat="45.93719" lon="4.71997">
        <ele>171.4</ele>
        <time>2025-09-11T14:24:45Z</time>
      </trkpt>
      <trkpt lat="45.93722" lon="4.71992">
        <ele>171.4</ele>
        <time>2025-09-11T14:24:46Z</time>
      </trkpt>
      <trkpt lat="45.93724" lon="4.71987">
        <ele>171.4</ele>
        <time>2025-09-11T14:24:47Z</time>
      </trkpt>
      <trkpt lat="45.93727" lon="4.71983">
        <ele>171.6</ele>
        <time>2025-09-11T14:24:48Z</time>
      </trkpt>
      <trkpt lat="45.9373" lon="4.71979">
        <ele>171.6</ele>
        <time>2025-09-11T14:24:49Z</time>
      </trkpt>
      <trkpt lat="45.93733" lon="4.71976">
        <ele>172</ele>
        <time>2025-09-11T14:24:50Z</time>
      </trkpt>
      <trkpt lat="45.93735" lon="4.71972">
        <ele>172</ele>
        <time>2025-09-11T14:24:51Z</time>
      </trkpt>
      <trkpt lat="45.93737" lon="4.7197">
        <ele>172</ele>
        <time>2025-09-11T14:24:52Z</time>
      </trkpt>
      <trkpt lat="45.93738" lon="4.7197">
        <ele>172</ele>
        <time>2025-09-11T14:24:53Z</time>
      </trkpt>
      <trkpt lat="45.9374" lon="4.7197">
        <ele>172</ele>
        <time>2025-09-11T14:24:54Z</time>
      </trkpt>
      <trkpt lat="45.93741" lon="4.7197">
        <ele>172</ele>
        <time>2025-09-11T14:24:55Z</time>
      </trkpt>
      <trkpt lat="45.93743" lon="4.71969">
        <ele>172</ele>
        <time>2025-09-11T14:24:56Z</time>
      </trkpt>
      <trkpt lat="45.93745" lon="4.71968">
        <ele>171.6</ele>
        <time>2025-09-11T14:24:57Z</time>
      </trkpt>
      <trkpt lat="45.93747" lon="4.71966">
        <ele>171.6</ele>
        <time>2025-09-11T14:24:58Z</time>
      </trkpt>
      <trkpt lat="45.9375" lon="4.71965">
        <ele>171.8</ele>
        <time>2025-09-11T14:24:59Z</time>
      </trkpt>
      <trkpt lat="45.93752" lon="4.71964">
        <ele>171.8</ele>
        <time>2025-09-11T14:25:00Z</time>
      </trkpt>
      <trkpt lat="45.93754" lon="4.71964">
        <ele>171.8</ele>
        <time>2025-09-11T14:25:01Z</time>
      </trkpt>
      <trkpt lat="45.93757" lon="4.71964">
        <ele>172</ele>
        <time>2025-09-11T14:25:02Z</time>
      </trkpt>
      <trkpt lat="45.93759" lon="4.71964">
        <ele>172</ele>
        <time>2025-09-11T14:25:03Z</time>
      </trkpt>
      <trkpt lat="45.93762" lon="4.71966">
        <ele>172</ele>
        <time>2025-09-11T14:25:04Z</time>
      </trkpt>
      <trkpt lat="45.93764" lon="4.71967">
        <ele>172</ele>
        <time>2025-09-11T14:25:05Z</time>
      </trkpt>
      <trkpt lat="45.93768" lon="4.7197">
        <ele>172</ele>
        <time>2025-09-11T14:25:06Z</time>
      </trkpt>
      <trkpt lat="45.93768" lon="4.71971">
        <ele>172</ele>
        <time>2025-09-11T14:25:07Z</time>
      </trkpt>
      <trkpt lat="45.93768" lon="4.71972">
        <ele>172.4</ele>
        <time>2025-09-11T14:25:08Z</time>
      </trkpt>
      <trkpt lat="45.93769" lon="4.71973">
        <ele>172.4</ele>
        <time>2025-09-11T14:25:09Z</time>
      </trkpt>
      <trkpt lat="45.93771" lon="4.71974">
        <ele>172.4</ele>
        <time>2025-09-11T14:25:10Z</time>
      </trkpt>
      <trkpt lat="45.93772" lon="4.71972">
        <ele>172.4</ele>
        <time>2025-09-11T14:25:11Z</time>
      </trkpt>
      <trkpt lat="45.93773" lon="4.71969">
        <ele>172.6</ele>
        <time>2025-09-11T14:25:12Z</time>
      </trkpt>
      <trkpt lat="45.93772" lon="4.71966">
        <ele>172.6</ele>
        <time>2025-09-11T14:25:13Z</time>
      </trkpt>
      <trkpt lat="45.93772" lon="4.71963">
        <ele>172.6</ele>
        <time>2025-09-11T14:25:14Z</time>
      </trkpt>
      <trkpt lat="45.93772" lon="4.71961">
        <ele>172.4</ele>
        <time>2025-09-11T14:25:15Z</time>
      </trkpt>
      <trkpt lat="45.93771" lon="4.7196">
        <ele>172.4</ele>
        <time>2025-09-11T14:25:16Z</time>
      </trkpt>
      <trkpt lat="45.93771" lon="4.7196">
        <ele>172.4</ele>
        <time>2025-09-11T14:25:17Z</time>
      </trkpt>
      <trkpt lat="45.93771" lon="4.7196">
        <ele>172.6</ele>
        <time>2025-09-11T14:25:18Z</time>
      </trkpt>
      <trkpt lat="45.93771" lon="4.71965">
        <ele>172.6</ele>
        <time>2025-09-11T14:25:26Z</time>
      </trkpt>
      <trkpt lat="45.93771" lon="4.71965">
        <ele>172.6</ele>
        <time>2025-09-11T14:25:27Z</time>
      </trkpt>
      <trkpt lat="45.93771" lon="4.71964">
        <ele>172.6</ele>
        <time>2025-09-11T14:25:28Z</time>
      </trkpt>
      <trkpt lat="45.93777" lon="4.71943">
        <ele>172.4</ele>
        <time>2025-09-11T14:48:00Z</time>
      </trkpt>
      <trkpt lat="45.93778" lon="4.71941">
        <ele>172.4</ele>
        <time>2025-09-11T14:48:01Z</time>
      </trkpt>
      <trkpt lat="45.93779" lon="4.71939">
        <ele>172.2</ele>
        <time>2025-09-11T14:48:02Z</time>
      </trkpt>
      <trkpt lat="45.93779" lon="4.71937">
        <ele>172.2</ele>
        <time>2025-09-11T14:48:03Z</time>
      </trkpt>
      <trkpt lat="45.93778" lon="4.71935">
        <ele>172.2</ele>
        <time>2025-09-11T14:48:04Z</time>
      </trkpt>
      <trkpt lat="45.93777" lon="4.71933">
        <ele>172.2</ele>
        <time>2025-09-11T14:48:05Z</time>
      </trkpt>
      <trkpt lat="45.93776" lon="4.71931">
        <ele>172.2</ele>
        <time>2025-09-11T14:48:06Z</time>
      </trkpt>
      <trkpt lat="45.93776" lon="4.71931">
        <ele>172.4</ele>
        <time>2025-09-11T14:48:07Z</time>
      </trkpt>
      <trkpt lat="45.93775" lon="4.7193">
        <ele>172.4</ele>
        <time>2025-09-11T14:48:08Z</time>
      </trkpt>
      <trkpt lat="45.93774" lon="4.71929">
        <ele>172.4</ele>
        <time>2025-09-11T14:48:09Z</time>
      </trkpt>
      <trkpt lat="45.93773" lon="4.71928">
        <ele>172.4</ele>
        <time>2025-09-11T14:48:10Z</time>
      </trkpt>
      <trkpt lat="45.93773" lon="4.71927">
        <ele>172.6</ele>
        <time>2025-09-11T14:48:11Z</time>
      </trkpt>
      <trkpt lat="45.93772" lon="4.71926">
        <ele>172.6</ele>
        <time>2025-09-11T14:48:12Z</time>
      </trkpt>
      <trkpt lat="45.93771" lon="4.71926">
        <ele>172.6</ele>
        <time>2025-09-11T14:48:13Z</time>
      </trkpt>
      <trkpt lat="45.93771" lon="4.71927">
        <ele>172.6</ele>
        <time>2025-09-11T14:48:14Z</time>
      </trkpt>
      <trkpt lat="45.93771" lon="4.71927">
        <ele>172.6</ele>
        <time>2025-09-11T14:48:23Z</time>
      </trkpt>
      <trkpt lat="45.93769" lon="4.71924">
        <ele>172.6</ele>
        <time>2025-09-11T14:48:24Z</time>
      </trkpt>
      <trkpt lat="45.93767" lon="4.71922">
        <ele>172.6</ele>
        <time>2025-09-11T14:48:25Z</time>
      </trkpt>
      <trkpt lat="45.93765" lon="4.7192">
        <ele>172.6</ele>
        <time>2025-09-11T14:48:26Z</time>
      </trkpt>
      <trkpt lat="45.93762" lon="4.71919">
        <ele>172.6</ele>
        <time>2025-09-11T14:48:27Z</time>
      </trkpt>
      <trkpt lat="45.93759" lon="4.71918">
        <ele>172.6</ele>
        <time>2025-09-11T14:48:28Z</time>
      </trkpt>
      <trkpt lat="45.93756" lon="4.71919">
        <ele>172.4</ele>
        <time>2025-09-11T14:48:29Z</time>
      </trkpt>
      <trkpt lat="45.93753" lon="4.71923">
        <ele>172.4</ele>
        <time>2025-09-11T14:48:30Z</time>
      </trkpt>
      <trkpt lat="45.93752" lon="4.71932">
        <ele>172.4</ele>
        <time>2025-09-11T14:48:31Z</time>
      </trkpt>
      <trkpt lat="45.93749" lon="4.71936">
        <ele>172.4</ele>
        <time>2025-09-11T14:48:32Z</time>
      </trkpt>
      <trkpt lat="45.93746" lon="4.71941">
        <ele>172.4</ele>
        <time>2025-09-11T14:48:33Z</time>
      </trkpt>
      <trkpt lat="45.93743" lon="4.71944">
        <ele>172.4</ele>
        <time>2025-09-11T14:48:34Z</time>
      </trkpt>
      <trkpt lat="45.9374" lon="4.71948">
        <ele>172.4</ele>
        <time>2025-09-11T14:48:35Z</time>
      </trkpt>
      <trkpt lat="45.93738" lon="4.71952">
        <ele>172.4</ele>
        <time>2025-09-11T14:48:36Z</time>
      </trkpt>
      <trkpt lat="45.93736" lon="4.71958">
        <ele>172.4</ele>
        <time>2025-09-11T14:48:37Z</time>
      </trkpt>
      <trkpt lat="45.93735" lon="4.71961">
        <ele>172.4</ele>
        <time>2025-09-11T14:48:38Z</time>
      </trkpt>
      <trkpt lat="45.93732" lon="4.71966">
        <ele>172.4</ele>
        <time>2025-09-11T14:48:39Z</time>
      </trkpt>
      <trkpt lat="45.9373" lon="4.7197">
        <ele>172.4</ele>
        <time>2025-09-11T14:48:40Z</time>
      </trkpt>
      <trkpt lat="45.93728" lon="4.71974">
        <ele>172.4</ele>
        <time>2025-09-11T14:48:41Z</time>
      </trkpt>
      <trkpt lat="45.93725" lon="4.71979">
        <ele>172.6</ele>
        <time>2025-09-11T14:48:42Z</time>
      </trkpt>
      <trkpt lat="45.93722" lon="4.71984">
        <ele>172.6</ele>
        <time>2025-09-11T14:48:43Z</time>
      </trkpt>
      <trkpt lat="45.93719" lon="4.71987">
        <ele>172.4</ele>
        <time>2025-09-11T14:48:44Z</time>
      </trkpt>
      <trkpt lat="45.93717" lon="4.71992">
        <ele>172.4</ele>
        <time>2025-09-11T14:48:45Z</time>
      </trkpt>
      <trkpt lat="45.93714" lon="4.71997">
        <ele>172.4</ele>
        <time>2025-09-11T14:48:46Z</time>
      </trkpt>
      <trkpt lat="45.93712" lon="4.72002">
        <ele>172.4</ele>
        <time>2025-09-11T14:48:47Z</time>
      </trkpt>
      <trkpt lat="45.93709" lon="4.72006">
        <ele>172.4</ele>
        <time>2025-09-11T14:48:48Z</time>
      </trkpt>
      <trkpt lat="45.93706" lon="4.7201">
        <ele>172.4</ele>
        <time>2025-09-11T14:48:49Z</time>
      </trkpt>
      <trkpt lat="45.93703" lon="4.72013">
        <ele>172.4</ele>
        <time>2025-09-11T14:48:50Z</time>
      </trkpt>
      <trkpt lat="45.93698" lon="4.72015">
        <ele>172.4</ele>
        <time>2025-09-11T14:48:51Z</time>
      </trkpt>
      <trkpt lat="45.93695" lon="4.72016">
        <ele>172.2</ele>
        <time>2025-09-11T14:48:52Z</time>
      </trkpt>
      <trkpt lat="45.93691" lon="4.72018">
        <ele>172.2</ele>
        <time>2025-09-11T14:48:53Z</time>
      </trkpt>
      <trkpt lat="45.93688" lon="4.72019">
        <ele>172.2</ele>
        <time>2025-09-11T14:48:54Z</time>
      </trkpt>
      <trkpt lat="45.93686" lon="4.72021">
        <ele>172.2</ele>
        <time>2025-09-11T14:48:55Z</time>
      </trkpt>
      <trkpt lat="45.93684" lon="4.72023">
        <ele>172.2</ele>
        <time>2025-09-11T14:48:56Z</time>
      </trkpt>
      <trkpt lat="45.93681" lon="4.72023">
        <ele>172.2</ele>
        <time>2025-09-11T14:48:57Z</time>
      </trkpt>
      <trkpt lat="45.93677" lon="4.72024">
        <ele>172.2</ele>
        <time>2025-09-11T14:48:58Z</time>
      </trkpt>
      <trkpt lat="45.93673" lon="4.72024">
        <ele>172.2</ele>
        <time>2025-09-11T14:48:59Z</time>
      </trkpt>
      <trkpt lat="45.93669" lon="4.72025">
        <ele>172.2</ele>
        <time>2025-09-11T14:49:00Z</time>
      </trkpt>
      <trkpt lat="45.93665" lon="4.72025">
        <ele>172.2</ele>
        <time>2025-09-11T14:49:01Z</time>
      </trkpt>
      <trkpt lat="45.93661" lon="4.72026">
        <ele>172.2</ele>
        <time>2025-09-11T14:49:02Z</time>
      </trkpt>
      <trkpt lat="45.93657" lon="4.72026">
        <ele>172.2</ele>
        <time>2025-09-11T14:49:03Z</time>
      </trkpt>
      <trkpt lat="45.9365" lon="4.72027">
        <ele>172.2</ele>
        <time>2025-09-11T14:49:04Z</time>
      </trkpt>
      <trkpt lat="45.93645" lon="4.72031">
        <ele>172.2</ele>
        <time>2025-09-11T14:49:05Z</time>
      </trkpt>
      <trkpt lat="45.93641" lon="4.72031">
        <ele>172.2</ele>
        <time>2025-09-11T14:49:06Z</time>
      </trkpt>
      <trkpt lat="45.93638" lon="4.72033">
        <ele>171.8</ele>
        <time>2025-09-11T14:49:07Z</time>
      </trkpt>
      <trkpt lat="45.93634" lon="4.72034">
        <ele>171.8</ele>
        <time>2025-09-11T14:49:08Z</time>
      </trkpt>
      <trkpt lat="45.9363" lon="4.72035">
        <ele>172.4</ele>
        <time>2025-09-11T14:49:09Z</time>
      </trkpt>
      <trkpt lat="45.93628" lon="4.72035">
        <ele>172.4</ele>
        <time>2025-09-11T14:49:10Z</time>
      </trkpt>
      <trkpt lat="45.93627" lon="4.72035">
        <ele>172.4</ele>
        <time>2025-09-11T14:49:11Z</time>
      </trkpt>
      <trkpt lat="45.93626" lon="4.72035">
        <ele>172.4</ele>
        <time>2025-09-11T14:49:12Z</time>
      </trkpt>
      <trkpt lat="45.93625" lon="4.72036">
        <ele>172.6</ele>
        <time>2025-09-11T14:49:13Z</time>
      </trkpt>
      <trkpt lat="45.93625" lon="4.72036">
        <ele>172.6</ele>
        <time>2025-09-11T14:49:14Z</time>
      </trkpt>
      <trkpt lat="45.93625" lon="4.72036">
        <ele>172.6</ele>
        <time>2025-09-11T14:49:15Z</time>
      </trkpt>
      <trkpt lat="45.93625" lon="4.72037">
        <ele>172.6</ele>
        <time>2025-09-11T14:49:16Z</time>
      </trkpt>
      <trkpt lat="45.93623" lon="4.72038">
        <ele>172.6</ele>
        <time>2025-09-11T14:49:29Z</time>
      </trkpt>
      <trkpt lat="45.93621" lon="4.72038">
        <ele>172.6</ele>
        <time>2025-09-11T14:49:30Z</time>
      </trkpt>
      <trkpt lat="45.93619" lon="4.7204">
        <ele>172.6</ele>
        <time>2025-09-11T14:49:31Z</time>
      </trkpt>
      <trkpt lat="45.93616" lon="4.72041">
        <ele>172</ele>
        <time>2025-09-11T14:49:32Z</time>
      </trkpt>
      <trkpt lat="45.93614" lon="4.72045">
        <ele>172</ele>
        <time>2025-09-11T14:49:33Z</time>
      </trkpt>
      <trkpt lat="45.93612" lon="4.72051">
        <ele>172</ele>
        <time>2025-09-11T14:49:34Z</time>
      </trkpt>
      <trkpt lat="45.9361" lon="4.72056">
        <ele>172.4</ele>
        <time>2025-09-11T14:49:35Z</time>
      </trkpt>
      <trkpt lat="45.93609" lon="4.72062">
        <ele>172.4</ele>
        <time>2025-09-11T14:49:36Z</time>
      </trkpt>
      <trkpt lat="45.93607" lon="4.72068">
        <ele>172.4</ele>
        <time>2025-09-11T14:49:37Z</time>
      </trkpt>
      <trkpt lat="45.93606" lon="4.72075">
        <ele>172.4</ele>
        <time>2025-09-11T14:49:38Z</time>
      </trkpt>
      <trkpt lat="45.93605" lon="4.7208">
        <ele>172.4</ele>
        <time>2025-09-11T14:49:39Z</time>
      </trkpt>
      <trkpt lat="45.93602" lon="4.72087">
        <ele>172.6</ele>
        <time>2025-09-11T14:49:40Z</time>
      </trkpt>
      <trkpt lat="45.936" lon="4.72093">
        <ele>172.6</ele>
        <time>2025-09-11T14:49:41Z</time>
      </trkpt>
      <trkpt lat="45.93599" lon="4.721">
        <ele>172.6</ele>
        <time>2025-09-11T14:49:42Z</time>
      </trkpt>
      <trkpt lat="45.93595" lon="4.72107">
        <ele>172.6</ele>
        <time>2025-09-11T14:49:43Z</time>
      </trkpt>
      <trkpt lat="45.93593" lon="4.72113">
        <ele>172.8</ele>
        <time>2025-09-11T14:49:44Z</time>
      </trkpt>
      <trkpt lat="45.9359" lon="4.7212">
        <ele>172.6</ele>
        <time>2025-09-11T14:49:45Z</time>
      </trkpt>
      <trkpt lat="45.93587" lon="4.72125">
        <ele>172.6</ele>
        <time>2025-09-11T14:49:46Z</time>
      </trkpt>
      <trkpt lat="45.93584" lon="4.72131">
        <ele>172.6</ele>
        <time>2025-09-11T14:49:47Z</time>
      </trkpt>
      <trkpt lat="45.93582" lon="4.72138">
        <ele>172.6</ele>
        <time>2025-09-11T14:49:48Z</time>
      </trkpt>
      <trkpt lat="45.93579" lon="4.72145">
        <ele>172.6</ele>
        <time>2025-09-11T14:49:49Z</time>
      </trkpt>
      <trkpt lat="45.93575" lon="4.72152">
        <ele>172.6</ele>
        <time>2025-09-11T14:49:50Z</time>
      </trkpt>
      <trkpt lat="45.93572" lon="4.72158">
        <ele>172.6</ele>
        <time>2025-09-11T14:49:51Z</time>
      </trkpt>
      <trkpt lat="45.9357" lon="4.72166">
        <ele>172.6</ele>
        <time>2025-09-11T14:49:52Z</time>
      </trkpt>
      <trkpt lat="45.93566" lon="4.72172">
        <ele>172.8</ele>
        <time>2025-09-11T14:49:53Z</time>
      </trkpt>
      <trkpt lat="45.93564" lon="4.72179">
        <ele>172.8</ele>
        <time>2025-09-11T14:49:54Z</time>
      </trkpt>
      <trkpt lat="45.93562" lon="4.72186">
        <ele>172.8</ele>
        <time>2025-09-11T14:49:55Z</time>
      </trkpt>
      <trkpt lat="45.93559" lon="4.72193">
        <ele>172.8</ele>
        <time>2025-09-11T14:49:56Z</time>
      </trkpt>
      <trkpt lat="45.93557" lon="4.72199">
        <ele>172.8</ele>
        <time>2025-09-11T14:49:57Z</time>
      </trkpt>
      <trkpt lat="45.93555" lon="4.72204">
        <ele>172.8</ele>
        <time>2025-09-11T14:49:58Z</time>
      </trkpt>
      <trkpt lat="45.93553" lon="4.72206">
        <ele>172.8</ele>
        <time>2025-09-11T14:49:59Z</time>
      </trkpt>
      <trkpt lat="45.93552" lon="4.72208">
        <ele>172.8</ele>
        <time>2025-09-11T14:50:00Z</time>
      </trkpt>
      <trkpt lat="45.93552" lon="4.72209">
        <ele>172.8</ele>
        <time>2025-09-11T14:50:01Z</time>
      </trkpt>
      <trkpt lat="45.93552" lon="4.7221">
        <ele>173</ele>
        <time>2025-09-11T14:50:02Z</time>
      </trkpt>
      <trkpt lat="45.93552" lon="4.7221">
        <ele>173</ele>
        <time>2025-09-11T14:50:03Z</time>
      </trkpt>
      <trkpt lat="45.93553" lon="4.72214">
        <ele>173</ele>
        <time>2025-09-11T14:50:14Z</time>
      </trkpt>
      <trkpt lat="45.93552" lon="4.72217">
        <ele>173</ele>
        <time>2025-09-11T14:50:15Z</time>
      </trkpt>
      <trkpt lat="45.93551" lon="4.7222">
        <ele>173</ele>
        <time>2025-09-11T14:50:16Z</time>
      </trkpt>
      <trkpt lat="45.9355" lon="4.72223">
        <ele>173</ele>
        <time>2025-09-11T14:50:17Z</time>
      </trkpt>
      <trkpt lat="45.93548" lon="4.72226">
        <ele>173</ele>
        <time>2025-09-11T14:50:18Z</time>
      </trkpt>
      <trkpt lat="45.93547" lon="4.7223">
        <ele>173</ele>
        <time>2025-09-11T14:50:19Z</time>
      </trkpt>
      <trkpt lat="45.93546" lon="4.72234">
        <ele>173</ele>
        <time>2025-09-11T14:50:20Z</time>
      </trkpt>
      <trkpt lat="45.93544" lon="4.72238">
        <ele>173</ele>
        <time>2025-09-11T14:50:21Z</time>
      </trkpt>
      <trkpt lat="45.93543" lon="4.72242">
        <ele>173.4</ele>
        <time>2025-09-11T14:50:22Z</time>
      </trkpt>
      <trkpt lat="45.93541" lon="4.72247">
        <ele>173.4</ele>
        <time>2025-09-11T14:50:23Z</time>
      </trkpt>
      <trkpt lat="45.93539" lon="4.72251">
        <ele>173.4</ele>
        <time>2025-09-11T14:50:24Z</time>
      </trkpt>
      <trkpt lat="45.93537" lon="4.72255">
        <ele>173.4</ele>
        <time>2025-09-11T14:50:25Z</time>
      </trkpt>
      <trkpt lat="45.93535" lon="4.7226">
        <ele>173.8</ele>
        <time>2025-09-11T14:50:26Z</time>
      </trkpt>
      <trkpt lat="45.93533" lon="4.72265">
        <ele>173.8</ele>
        <time>2025-09-11T14:50:27Z</time>
      </trkpt>
      <trkpt lat="45.93532" lon="4.72269">
        <ele>173.8</ele>
        <time>2025-09-11T14:50:28Z</time>
      </trkpt>
      <trkpt lat="45.9353" lon="4.72274">
        <ele>174</ele>
        <time>2025-09-11T14:50:29Z</time>
      </trkpt>
      <trkpt lat="45.93528" lon="4.72279">
        <ele>174</ele>
        <time>2025-09-11T14:50:30Z</time>
      </trkpt>
      <trkpt lat="45.93525" lon="4.72284">
        <ele>174</ele>
        <time>2025-09-11T14:50:31Z</time>
      </trkpt>
      <trkpt lat="45.93523" lon="4.72288">
        <ele>174</ele>
        <time>2025-09-11T14:50:32Z</time>
      </trkpt>
      <trkpt lat="45.93521" lon="4.72291">
        <ele>174</ele>
        <time>2025-09-11T14:50:33Z</time>
      </trkpt>
      <trkpt lat="45.9352" lon="4.72296">
        <ele>174</ele>
        <time>2025-09-11T14:50:34Z</time>
      </trkpt>
      <trkpt lat="45.93519" lon="4.723">
        <ele>174</ele>
        <time>2025-09-11T14:50:35Z</time>
      </trkpt>
      <trkpt lat="45.93517" lon="4.72305">
        <ele>174</ele>
        <time>2025-09-11T14:50:36Z</time>
      </trkpt>
      <trkpt lat="45.93515" lon="4.7231">
        <ele>173.8</ele>
        <time>2025-09-11T14:50:37Z</time>
      </trkpt>
      <trkpt lat="45.93514" lon="4.72313">
        <ele>173.8</ele>
        <time>2025-09-11T14:50:38Z</time>
      </trkpt>
      <trkpt lat="45.93512" lon="4.72316">
        <ele>173.6</ele>
        <time>2025-09-11T14:50:39Z</time>
      </trkpt>
      <trkpt lat="45.93511" lon="4.72318">
        <ele>173.6</ele>
        <time>2025-09-11T14:50:40Z</time>
      </trkpt>
      <trkpt lat="45.9351" lon="4.72319">
        <ele>173.4</ele>
        <time>2025-09-11T14:50:41Z</time>
      </trkpt>
      <trkpt lat="45.93509" lon="4.72319">
        <ele>173.4</ele>
        <time>2025-09-11T14:50:42Z</time>
      </trkpt>
      <trkpt lat="45.93509" lon="4.72319">
        <ele>173.4</ele>
        <time>2025-09-11T14:50:43Z</time>
      </trkpt>
      <trkpt lat="45.93509" lon="4.72321">
        <ele>173.4</ele>
        <time>2025-09-11T14:50:50Z</time>
      </trkpt>
      <trkpt lat="45.93508" lon="4.72324">
        <ele>173.4</ele>
        <time>2025-09-11T14:50:51Z</time>
      </trkpt>
      <trkpt lat="45.93509" lon="4.72328">
        <ele>173.2</ele>
        <time>2025-09-11T14:50:52Z</time>
      </trkpt>
      <trkpt lat="45.93509" lon="4.72332">
        <ele>173.2</ele>
        <time>2025-09-11T14:50:53Z</time>
      </trkpt>
      <trkpt lat="45.93511" lon="4.72337">
        <ele>173.2</ele>
        <time>2025-09-11T14:50:54Z</time>
      </trkpt>
      <trkpt lat="45.93513" lon="4.72342">
        <ele>173.2</ele>
        <time>2025-09-11T14:50:55Z</time>
      </trkpt>
      <trkpt lat="45.93516" lon="4.72346">
        <ele>172.8</ele>
        <time>2025-09-11T14:50:56Z</time>
      </trkpt>
      <trkpt lat="45.93518" lon="4.72351">
        <ele>172.6</ele>
        <time>2025-09-11T14:50:57Z</time>
      </trkpt>
      <trkpt lat="45.93521" lon="4.72356">
        <ele>172.2</ele>
        <time>2025-09-11T14:50:58Z</time>
      </trkpt>
      <trkpt lat="45.93525" lon="4.72361">
        <ele>172</ele>
        <time>2025-09-11T14:50:59Z</time>
      </trkpt>
      <trkpt lat="45.93529" lon="4.72366">
        <ele>172</ele>
        <time>2025-09-11T14:51:00Z</time>
      </trkpt>
      <trkpt lat="45.93531" lon="4.72371">
        <ele>172</ele>
        <time>2025-09-11T14:51:01Z</time>
      </trkpt>
      <trkpt lat="45.93534" lon="4.72378">
        <ele>171.8</ele>
        <time>2025-09-11T14:51:02Z</time>
      </trkpt>
      <trkpt lat="45.93535" lon="4.72384">
        <ele>171.8</ele>
        <time>2025-09-11T14:51:03Z</time>
      </trkpt>
      <trkpt lat="45.93538" lon="4.7239">
        <ele>170.8</ele>
        <time>2025-09-11T14:51:04Z</time>
      </trkpt>
      <trkpt lat="45.9354" lon="4.72396">
        <ele>170.8</ele>
        <time>2025-09-11T14:51:05Z</time>
      </trkpt>
      <trkpt lat="45.93542" lon="4.72403">
        <ele>171.4</ele>
        <time>2025-09-11T14:51:06Z</time>
      </trkpt>
      <trkpt lat="45.93543" lon="4.7241">
        <ele>171.4</ele>
        <time>2025-09-11T14:51:07Z</time>
      </trkpt>
      <trkpt lat="45.93546" lon="4.72416">
        <ele>171.4</ele>
        <time>2025-09-11T14:51:08Z</time>
      </trkpt>
      <trkpt lat="45.93546" lon="4.72423">
        <ele>171.4</ele>
        <time>2025-09-11T14:51:09Z</time>
      </trkpt>
      <trkpt lat="45.93547" lon="4.72428">
        <ele>171.6</ele>
        <time>2025-09-11T14:51:10Z</time>
      </trkpt>
      <trkpt lat="45.93546" lon="4.72434">
        <ele>171.6</ele>
        <time>2025-09-11T14:51:11Z</time>
      </trkpt>
      <trkpt lat="45.93546" lon="4.72441">
        <ele>171.4</ele>
        <time>2025-09-11T14:51:12Z</time>
      </trkpt>
      <trkpt lat="45.93546" lon="4.72447">
        <ele>171.2</ele>
        <time>2025-09-11T14:51:13Z</time>
      </trkpt>
      <trkpt lat="45.93544" lon="4.72453">
        <ele>171.2</ele>
        <time>2025-09-11T14:51:14Z</time>
      </trkpt>
      <trkpt lat="45.93545" lon="4.7246">
        <ele>170.8</ele>
        <time>2025-09-11T14:51:15Z</time>
      </trkpt>
      <trkpt lat="45.93546" lon="4.72466">
        <ele>170.8</ele>
        <time>2025-09-11T14:51:16Z</time>
      </trkpt>
      <trkpt lat="45.93548" lon="4.7247">
        <ele>170.8</ele>
        <time>2025-09-11T14:51:17Z</time>
      </trkpt>
      <trkpt lat="45.9355" lon="4.72476">
        <ele>170.8</ele>
        <time>2025-09-11T14:51:18Z</time>
      </trkpt>
      <trkpt lat="45.93552" lon="4.72482">
        <ele>171</ele>
        <time>2025-09-11T14:51:19Z</time>
      </trkpt>
      <trkpt lat="45.93554" lon="4.72487">
        <ele>171</ele>
        <time>2025-09-11T14:51:20Z</time>
      </trkpt>
      <trkpt lat="45.93556" lon="4.72493">
        <ele>171</ele>
        <time>2025-09-11T14:51:21Z</time>
      </trkpt>
      <trkpt lat="45.93558" lon="4.72499">
        <ele>171</ele>
        <time>2025-09-11T14:51:22Z</time>
      </trkpt>
      <trkpt lat="45.93561" lon="4.72505">
        <ele>171</ele>
        <time>2025-09-11T14:51:23Z</time>
      </trkpt>
      <trkpt lat="45.93562" lon="4.72511">
        <ele>171</ele>
        <time>2025-09-11T14:51:24Z</time>
      </trkpt>
      <trkpt lat="45.93565" lon="4.72517">
        <ele>171</ele>
        <time>2025-09-11T14:51:25Z</time>
      </trkpt>
      <trkpt lat="45.93567" lon="4.72523">
        <ele>171</ele>
        <time>2025-09-11T14:51:26Z</time>
      </trkpt>
      <trkpt lat="45.9357" lon="4.72528">
        <ele>171</ele>
        <time>2025-09-11T14:51:27Z</time>
      </trkpt>
      <trkpt lat="45.93572" lon="4.72534">
        <ele>171</ele>
        <time>2025-09-11T14:51:28Z</time>
      </trkpt>
      <trkpt lat="45.93575" lon="4.72539">
        <ele>171</ele>
        <time>2025-09-11T14:51:29Z</time>
      </trkpt>
      <trkpt lat="45.93578" lon="4.72544">
        <ele>170.8</ele>
        <time>2025-09-11T14:51:30Z</time>
      </trkpt>
      <trkpt lat="45.93581" lon="4.7255">
        <ele>171</ele>
        <time>2025-09-11T14:51:31Z</time>
      </trkpt>
      <trkpt lat="45.93584" lon="4.72555">
        <ele>171</ele>
        <time>2025-09-11T14:51:32Z</time>
      </trkpt>
      <trkpt lat="45.93587" lon="4.7256">
        <ele>171.4</ele>
        <time>2025-09-11T14:51:33Z</time>
      </trkpt>
      <trkpt lat="45.93593" lon="4.72562">
        <ele>171.4</ele>
        <time>2025-09-11T14:51:34Z</time>
      </trkpt>
      <trkpt lat="45.93597" lon="4.72561">
        <ele>171.8</ele>
        <time>2025-09-11T14:51:35Z</time>
      </trkpt>
      <trkpt lat="45.936" lon="4.72559">
        <ele>171.4</ele>
        <time>2025-09-11T14:51:36Z</time>
      </trkpt>
      <trkpt lat="45.93604" lon="4.72558">
        <ele>171.4</ele>
        <time>2025-09-11T14:51:37Z</time>
      </trkpt>
      <trkpt lat="45.93607" lon="4.72554">
        <ele>171.4</ele>
        <time>2025-09-11T14:51:38Z</time>
      </trkpt>
      <trkpt lat="45.9361" lon="4.72551">
        <ele>171.4</ele>
        <time>2025-09-11T14:51:39Z</time>
      </trkpt>
      <trkpt lat="45.93612" lon="4.72546">
        <ele>171.4</ele>
        <time>2025-09-11T14:51:40Z</time>
      </trkpt>
      <trkpt lat="45.93615" lon="4.72541">
        <ele>171.4</ele>
        <time>2025-09-11T14:51:41Z</time>
      </trkpt>
      <trkpt lat="45.93617" lon="4.72537">
        <ele>171.4</ele>
        <time>2025-09-11T14:51:42Z</time>
      </trkpt>
      <trkpt lat="45.93621" lon="4.72534">
        <ele>171.4</ele>
        <time>2025-09-11T14:51:43Z</time>
      </trkpt>
      <trkpt lat="45.93623" lon="4.72529">
        <ele>171.4</ele>
        <time>2025-09-11T14:51:44Z</time>
      </trkpt>
      <trkpt lat="45.93624" lon="4.72524">
        <ele>171.4</ele>
        <time>2025-09-11T14:51:45Z</time>
      </trkpt>
      <trkpt lat="45.93627" lon="4.72519">
        <ele>171.4</ele>
        <time>2025-09-11T14:51:46Z</time>
      </trkpt>
      <trkpt lat="45.93629" lon="4.72515">
        <ele>171.4</ele>
        <time>2025-09-11T14:51:47Z</time>
      </trkpt>
      <trkpt lat="45.93631" lon="4.7251">
        <ele>171.4</ele>
        <time>2025-09-11T14:51:48Z</time>
      </trkpt>
      <trkpt lat="45.93634" lon="4.72505">
        <ele>171.4</ele>
        <time>2025-09-11T14:51:49Z</time>
      </trkpt>
      <trkpt lat="45.93635" lon="4.72499">
        <ele>171.8</ele>
        <time>2025-09-11T14:51:50Z</time>
      </trkpt>
      <trkpt lat="45.93637" lon="4.72494">
        <ele>171.8</ele>
        <time>2025-09-11T14:51:51Z</time>
      </trkpt>
      <trkpt lat="45.9364" lon="4.72488">
        <ele>171.8</ele>
        <time>2025-09-11T14:51:52Z</time>
      </trkpt>
      <trkpt lat="45.93642" lon="4.72483">
        <ele>172</ele>
        <time>2025-09-11T14:51:53Z</time>
      </trkpt>
      <trkpt lat="45.93646" lon="4.72478">
        <ele>172</ele>
        <time>2025-09-11T14:51:54Z</time>
      </trkpt>
      <trkpt lat="45.93649" lon="4.72473">
        <ele>172</ele>
        <time>2025-09-11T14:51:55Z</time>
      </trkpt>
      <trkpt lat="45.93652" lon="4.72468">
        <ele>172</ele>
        <time>2025-09-11T14:51:56Z</time>
      </trkpt>
      <trkpt lat="45.93655" lon="4.72461">
        <ele>172</ele>
        <time>2025-09-11T14:51:57Z</time>
      </trkpt>
      <trkpt lat="45.93659" lon="4.72457">
        <ele>172.6</ele>
        <time>2025-09-11T14:51:58Z</time>
      </trkpt>
      <trkpt lat="45.93663" lon="4.72453">
        <ele>172.6</ele>
        <time>2025-09-11T14:51:59Z</time>
      </trkpt>
      <trkpt lat="45.93667" lon="4.72454">
        <ele>172.2</ele>
        <time>2025-09-11T14:52:00Z</time>
      </trkpt>
      <trkpt lat="45.93672" lon="4.72457">
        <ele>172.2</ele>
        <time>2025-09-11T14:52:01Z</time>
      </trkpt>
      <trkpt lat="45.93675" lon="4.7246">
        <ele>172.2</ele>
        <time>2025-09-11T14:52:02Z</time>
      </trkpt>
      <trkpt lat="45.93678" lon="4.72464">
        <ele>172</ele>
        <time>2025-09-11T14:52:03Z</time>
      </trkpt>
      <trkpt lat="45.93682" lon="4.72467">
        <ele>172</ele>
        <time>2025-09-11T14:52:04Z</time>
      </trkpt>
      <trkpt lat="45.93685" lon="4.72471">
        <ele>172</ele>
        <time>2025-09-11T14:52:05Z</time>
      </trkpt>
      <trkpt lat="45.93688" lon="4.72474">
        <ele>172</ele>
        <time>2025-09-11T14:52:06Z</time>
      </trkpt>
      <trkpt lat="45.93691" lon="4.72477">
        <ele>171.8</ele>
        <time>2025-09-11T14:52:07Z</time>
      </trkpt>
      <trkpt lat="45.93694" lon="4.72479">
        <ele>171.6</ele>
        <time>2025-09-11T14:52:08Z</time>
      </trkpt>
      <trkpt lat="45.93696" lon="4.72482">
        <ele>171.6</ele>
        <time>2025-09-11T14:52:09Z</time>
      </trkpt>
      <trkpt lat="45.93698" lon="4.72484">
        <ele>171.6</ele>
        <time>2025-09-11T14:52:10Z</time>
      </trkpt>
      <trkpt lat="45.93701" lon="4.72487">
        <ele>171.6</ele>
        <time>2025-09-11T14:52:11Z</time>
      </trkpt>
      <trkpt lat="45.93704" lon="4.72489">
        <ele>171.2</ele>
        <time>2025-09-11T14:52:12Z</time>
      </trkpt>
      <trkpt lat="45.93707" lon="4.72493">
        <ele>171.2</ele>
        <time>2025-09-11T14:52:13Z</time>
      </trkpt>
      <trkpt lat="45.9371" lon="4.72496">
        <ele>171.2</ele>
        <time>2025-09-11T14:52:14Z</time>
      </trkpt>
      <trkpt lat="45.93714" lon="4.72499">
        <ele>171.2</ele>
        <time>2025-09-11T14:52:15Z</time>
      </trkpt>
      <trkpt lat="45.93717" lon="4.72502">
        <ele>171.2</ele>
        <time>2025-09-11T14:52:16Z</time>
      </trkpt>
      <trkpt lat="45.93721" lon="4.72505">
        <ele>171.2</ele>
        <time>2025-09-11T14:52:17Z</time>
      </trkpt>
      <trkpt lat="45.93724" lon="4.72508">
        <ele>171.2</ele>
        <time>2025-09-11T14:52:18Z</time>
      </trkpt>
      <trkpt lat="45.93728" lon="4.72511">
        <ele>171.2</ele>
        <time>2025-09-11T14:52:19Z</time>
      </trkpt>
      <trkpt lat="45.93731" lon="4.72514">
        <ele>171.2</ele>
        <time>2025-09-11T14:52:20Z</time>
      </trkpt>
      <trkpt lat="45.93736" lon="4.72517">
        <ele>171.2</ele>
        <time>2025-09-11T14:52:21Z</time>
      </trkpt>
      <trkpt lat="45.9374" lon="4.72521">
        <ele>171.2</ele>
        <time>2025-09-11T14:52:22Z</time>
      </trkpt>
      <trkpt lat="45.93743" lon="4.72525">
        <ele>171.2</ele>
        <time>2025-09-11T14:52:23Z</time>
      </trkpt>
      <trkpt lat="45.93748" lon="4.72529">
        <ele>171.2</ele>
        <time>2025-09-11T14:52:24Z</time>
      </trkpt>
      <trkpt lat="45.93751" lon="4.72533">
        <ele>170.8</ele>
        <time>2025-09-11T14:52:25Z</time>
      </trkpt>
      <trkpt lat="45.93755" lon="4.72537">
        <ele>170.8</ele>
        <time>2025-09-11T14:52:26Z</time>
      </trkpt>
      <trkpt lat="45.93759" lon="4.7254">
        <ele>170.8</ele>
        <time>2025-09-11T14:52:27Z</time>
      </trkpt>
      <trkpt lat="45.93762" lon="4.72543">
        <ele>170.8</ele>
        <time>2025-09-11T14:52:28Z</time>
      </trkpt>
      <trkpt lat="45.93766" lon="4.72546">
        <ele>170.8</ele>
        <time>2025-09-11T14:52:29Z</time>
      </trkpt>
      <trkpt lat="45.93769" lon="4.7255">
        <ele>170.8</ele>
        <time>2025-09-11T14:52:30Z</time>
      </trkpt>
      <trkpt lat="45.93774" lon="4.72553">
        <ele>170.8</ele>
        <time>2025-09-11T14:52:31Z</time>
      </trkpt>
      <trkpt lat="45.93777" lon="4.72557">
        <ele>170.8</ele>
        <time>2025-09-11T14:52:32Z</time>
      </trkpt>
      <trkpt lat="45.9378" lon="4.72561">
        <ele>170.8</ele>
        <time>2025-09-11T14:52:33Z</time>
      </trkpt>
      <trkpt lat="45.93783" lon="4.72565">
        <ele>170.8</ele>
        <time>2025-09-11T14:52:34Z</time>
      </trkpt>
      <trkpt lat="45.93786" lon="4.72568">
        <ele>170.8</ele>
        <time>2025-09-11T14:52:35Z</time>
      </trkpt>
      <trkpt lat="45.93789" lon="4.72571">
        <ele>170.8</ele>
        <time>2025-09-11T14:52:36Z</time>
      </trkpt>
      <trkpt lat="45.93792" lon="4.7257">
        <ele>170.8</ele>
        <time>2025-09-11T14:52:37Z</time>
      </trkpt>
      <trkpt lat="45.93796" lon="4.72572">
        <ele>170.8</ele>
        <time>2025-09-11T14:52:38Z</time>
      </trkpt>
      <trkpt lat="45.938" lon="4.72572">
        <ele>170.8</ele>
        <time>2025-09-11T14:52:39Z</time>
      </trkpt>
      <trkpt lat="45.93801" lon="4.72575">
        <ele>170.8</ele>
        <time>2025-09-11T14:52:40Z</time>
      </trkpt>
      <trkpt lat="45.93803" lon="4.72577">
        <ele>170.8</ele>
        <time>2025-09-11T14:52:41Z</time>
      </trkpt>
      <trkpt lat="45.93804" lon="4.72578">
        <ele>170.8</ele>
        <time>2025-09-11T14:52:42Z</time>
      </trkpt>
      <trkpt lat="45.93807" lon="4.72579">
        <ele>170.8</ele>
        <time>2025-09-11T14:52:43Z</time>
      </trkpt>
      <trkpt lat="45.93809" lon="4.7258">
        <ele>170.8</ele>
        <time>2025-09-11T14:52:44Z</time>
      </trkpt>
      <trkpt lat="45.93811" lon="4.72581">
        <ele>170.8</ele>
        <time>2025-09-11T14:52:45Z</time>
      </trkpt>
      <trkpt lat="45.93811" lon="4.72582">
        <ele>170.8</ele>
        <time>2025-09-11T14:52:46Z</time>
      </trkpt>
      <trkpt lat="45.93813" lon="4.72584">
        <ele>170.8</ele>
        <time>2025-09-11T14:52:47Z</time>
      </trkpt>
      <trkpt lat="45.93815" lon="4.72587">
        <ele>170.8</ele>
        <time>2025-09-11T14:52:48Z</time>
      </trkpt>
      <trkpt lat="45.93816" lon="4.72589">
        <ele>170.8</ele>
        <time>2025-09-11T14:52:49Z</time>
      </trkpt>
      <trkpt lat="45.93817" lon="4.72592">
        <ele>170.8</ele>
        <time>2025-09-11T14:52:50Z</time>
      </trkpt>
      <trkpt lat="45.93818" lon="4.72596">
        <ele>170.8</ele>
        <time>2025-09-11T14:52:51Z</time>
      </trkpt>
      <trkpt lat="45.93819" lon="4.726">
        <ele>170.8</ele>
        <time>2025-09-11T14:52:52Z</time>
      </trkpt>
      <trkpt lat="45.9382" lon="4.72605">
        <ele>170.8</ele>
        <time>2025-09-11T14:52:53Z</time>
      </trkpt>
      <trkpt lat="45.9382" lon="4.72611">
        <ele>170.8</ele>
        <time>2025-09-11T14:52:54Z</time>
      </trkpt>
      <trkpt lat="45.93818" lon="4.72617">
        <ele>170.8</ele>
        <time>2025-09-11T14:52:55Z</time>
      </trkpt>
      <trkpt lat="45.93815" lon="4.72622">
        <ele>170.6</ele>
        <time>2025-09-11T14:52:56Z</time>
      </trkpt>
      <trkpt lat="45.93811" lon="4.72626">
        <ele>170.6</ele>
        <time>2025-09-11T14:52:57Z</time>
      </trkpt>
      <trkpt lat="45.93808" lon="4.72629">
        <ele>171</ele>
        <time>2025-09-11T14:52:58Z</time>
      </trkpt>
      <trkpt lat="45.93802" lon="4.72633">
        <ele>171</ele>
        <time>2025-09-11T14:52:59Z</time>
      </trkpt>
      <trkpt lat="45.93799" lon="4.72638">
        <ele>171</ele>
        <time>2025-09-11T14:53:00Z</time>
      </trkpt>
      <trkpt lat="45.93796" lon="4.72642">
        <ele>171</ele>
        <time>2025-09-11T14:53:01Z</time>
      </trkpt>
      <trkpt lat="45.93792" lon="4.72646">
        <ele>171</ele>
        <time>2025-09-11T14:53:02Z</time>
      </trkpt>
      <trkpt lat="45.93789" lon="4.7265">
        <ele>171.2</ele>
        <time>2025-09-11T14:53:03Z</time>
      </trkpt>
      <trkpt lat="45.93785" lon="4.72654">
        <ele>171.2</ele>
        <time>2025-09-11T14:53:04Z</time>
      </trkpt>
      <trkpt lat="45.93782" lon="4.72658">
        <ele>171.2</ele>
        <time>2025-09-11T14:53:05Z</time>
      </trkpt>
      <trkpt lat="45.93778" lon="4.72663">
        <ele>170.8</ele>
        <time>2025-09-11T14:53:06Z</time>
      </trkpt>
      <trkpt lat="45.93775" lon="4.72666">
        <ele>170.8</ele>
        <time>2025-09-11T14:53:07Z</time>
      </trkpt>
      <trkpt lat="45.93772" lon="4.72671">
        <ele>170.8</ele>
        <time>2025-09-11T14:53:08Z</time>
      </trkpt>
      <trkpt lat="45.93768" lon="4.72676">
        <ele>170.8</ele>
        <time>2025-09-11T14:53:09Z</time>
      </trkpt>
      <trkpt lat="45.93765" lon="4.7268">
        <ele>171.2</ele>
        <time>2025-09-11T14:53:10Z</time>
      </trkpt>
      <trkpt lat="45.93762" lon="4.72684">
        <ele>170.8</ele>
        <time>2025-09-11T14:53:11Z</time>
      </trkpt>
      <trkpt lat="45.93758" lon="4.72687">
        <ele>170.8</ele>
        <time>2025-09-11T14:53:12Z</time>
      </trkpt>
      <trkpt lat="45.93755" lon="4.72691">
        <ele>170.8</ele>
        <time>2025-09-11T14:53:13Z</time>
      </trkpt>
      <trkpt lat="45.93751" lon="4.72696">
        <ele>170.8</ele>
        <time>2025-09-11T14:53:14Z</time>
      </trkpt>
      <trkpt lat="45.93747" lon="4.727">
        <ele>171</ele>
        <time>2025-09-11T14:53:15Z</time>
      </trkpt>
      <trkpt lat="45.93743" lon="4.72704">
        <ele>171</ele>
        <time>2025-09-11T14:53:16Z</time>
      </trkpt>
      <trkpt lat="45.9374" lon="4.72708">
        <ele>171.2</ele>
        <time>2025-09-11T14:53:17Z</time>
      </trkpt>
      <trkpt lat="45.93736" lon="4.72713">
        <ele>171.2</ele>
        <time>2025-09-11T14:53:18Z</time>
      </trkpt>
      <trkpt lat="45.93732" lon="4.72717">
        <ele>170.8</ele>
        <time>2025-09-11T14:53:19Z</time>
      </trkpt>
      <trkpt lat="45.93727" lon="4.72721">
        <ele>170.8</ele>
        <time>2025-09-11T14:53:20Z</time>
      </trkpt>
      <trkpt lat="45.93723" lon="4.72725">
        <ele>170.8</ele>
        <time>2025-09-11T14:53:21Z</time>
      </trkpt>
      <trkpt lat="45.93719" lon="4.72728">
        <ele>171</ele>
        <time>2025-09-11T14:53:22Z</time>
      </trkpt>
      <trkpt lat="45.93715" lon="4.72733">
        <ele>171</ele>
        <time>2025-09-11T14:53:23Z</time>
      </trkpt>
      <trkpt lat="45.93711" lon="4.72736">
        <ele>171</ele>
        <time>2025-09-11T14:53:24Z</time>
      </trkpt>
      <trkpt lat="45.93707" lon="4.7274">
        <ele>171</ele>
        <time>2025-09-11T14:53:25Z</time>
      </trkpt>
      <trkpt lat="45.93703" lon="4.72744">
        <ele>170.8</ele>
        <time>2025-09-11T14:53:26Z</time>
      </trkpt>
      <trkpt lat="45.93699" lon="4.72747">
        <ele>170.8</ele>
        <time>2025-09-11T14:53:27Z</time>
      </trkpt>
      <trkpt lat="45.93695" lon="4.7275">
        <ele>171.2</ele>
        <time>2025-09-11T14:53:28Z</time>
      </trkpt>
      <trkpt lat="45.93691" lon="4.72754">
        <ele>171.2</ele>
        <time>2025-09-11T14:53:29Z</time>
      </trkpt>
      <trkpt lat="45.93687" lon="4.72757">
        <ele>171</ele>
        <time>2025-09-11T14:53:30Z</time>
      </trkpt>
      <trkpt lat="45.93684" lon="4.7276">
        <ele>171</ele>
        <time>2025-09-11T14:53:31Z</time>
      </trkpt>
      <trkpt lat="45.93681" lon="4.72762">
        <ele>171.2</ele>
        <time>2025-09-11T14:53:32Z</time>
      </trkpt>
      <trkpt lat="45.93678" lon="4.72765">
        <ele>171.6</ele>
        <time>2025-09-11T14:53:33Z</time>
      </trkpt>
      <trkpt lat="45.93675" lon="4.72767">
        <ele>171.8</ele>
        <time>2025-09-11T14:53:34Z</time>
      </trkpt>
      <trkpt lat="45.93673" lon="4.7277">
        <ele>171.8</ele>
        <time>2025-09-11T14:53:35Z</time>
      </trkpt>
      <trkpt lat="45.9367" lon="4.72772">
        <ele>172.2</ele>
        <time>2025-09-11T14:53:36Z</time>
      </trkpt>
      <trkpt lat="45.93668" lon="4.72775">
        <ele>172.2</ele>
        <time>2025-09-11T14:53:37Z</time>
      </trkpt>
      <trkpt lat="45.93665" lon="4.72778">
        <ele>172.2</ele>
        <time>2025-09-11T14:53:38Z</time>
      </trkpt>
      <trkpt lat="45.93661" lon="4.7278">
        <ele>172.2</ele>
        <time>2025-09-11T14:53:39Z</time>
      </trkpt>
      <trkpt lat="45.93657" lon="4.72782">
        <ele>172.2</ele>
        <time>2025-09-11T14:53:40Z</time>
      </trkpt>
      <trkpt lat="45.93653" lon="4.72785">
        <ele>172.2</ele>
        <time>2025-09-11T14:53:41Z</time>
      </trkpt>
      <trkpt lat="45.93648" lon="4.72789">
        <ele>172</ele>
        <time>2025-09-11T14:53:42Z</time>
      </trkpt>
      <trkpt lat="45.93645" lon="4.7279">
        <ele>172</ele>
        <time>2025-09-11T14:53:43Z</time>
      </trkpt>
      <trkpt lat="45.9364" lon="4.72794">
        <ele>171.8</ele>
        <time>2025-09-11T14:53:44Z</time>
      </trkpt>
      <trkpt lat="45.93635" lon="4.72798">
        <ele>171.6</ele>
        <time>2025-09-11T14:53:45Z</time>
      </trkpt>
      <trkpt lat="45.93631" lon="4.72802">
        <ele>171.6</ele>
        <time>2025-09-11T14:53:46Z</time>
      </trkpt>
      <trkpt lat="45.93626" lon="4.72806">
        <ele>171.6</ele>
        <time>2025-09-11T14:53:47Z</time>
      </trkpt>
      <trkpt lat="45.93621" lon="4.7281">
        <ele>171.6</ele>
        <time>2025-09-11T14:53:48Z</time>
      </trkpt>
      <trkpt lat="45.93616" lon="4.72813">
        <ele>171.6</ele>
        <time>2025-09-11T14:53:49Z</time>
      </trkpt>
      <trkpt lat="45.93611" lon="4.72817">
        <ele>171.6</ele>
        <time>2025-09-11T14:53:50Z</time>
      </trkpt>
      <trkpt lat="45.93607" lon="4.72821">
        <ele>171.6</ele>
        <time>2025-09-11T14:53:51Z</time>
      </trkpt>
      <trkpt lat="45.93603" lon="4.72824">
        <ele>171.6</ele>
        <time>2025-09-11T14:53:52Z</time>
      </trkpt>
      <trkpt lat="45.93598" lon="4.72828">
        <ele>171.6</ele>
        <time>2025-09-11T14:53:53Z</time>
      </trkpt>
      <trkpt lat="45.93593" lon="4.72832">
        <ele>171.6</ele>
        <time>2025-09-11T14:53:54Z</time>
      </trkpt>
      <trkpt lat="45.93589" lon="4.72834">
        <ele>171.2</ele>
        <time>2025-09-11T14:53:55Z</time>
      </trkpt>
      <trkpt lat="45.93584" lon="4.72839">
        <ele>171.2</ele>
        <time>2025-09-11T14:53:56Z</time>
      </trkpt>
      <trkpt lat="45.9358" lon="4.72842">
        <ele>171.2</ele>
        <time>2025-09-11T14:53:57Z</time>
      </trkpt>
      <trkpt lat="45.93575" lon="4.72846">
        <ele>171.2</ele>
        <time>2025-09-11T14:53:58Z</time>
      </trkpt>
      <trkpt lat="45.93571" lon="4.72849">
        <ele>171.6</ele>
        <time>2025-09-11T14:53:59Z</time>
      </trkpt>
      <trkpt lat="45.93567" lon="4.72853">
        <ele>171.6</ele>
        <time>2025-09-11T14:54:00Z</time>
      </trkpt>
      <trkpt lat="45.93562" lon="4.72857">
        <ele>171.2</ele>
        <time>2025-09-11T14:54:01Z</time>
      </trkpt>
      <trkpt lat="45.93558" lon="4.72861">
        <ele>171.2</ele>
        <time>2025-09-11T14:54:02Z</time>
      </trkpt>
      <trkpt lat="45.93554" lon="4.72865">
        <ele>171.2</ele>
        <time>2025-09-11T14:54:03Z</time>
      </trkpt>
      <trkpt lat="45.93549" lon="4.72869">
        <ele>171.2</ele>
        <time>2025-09-11T14:54:04Z</time>
      </trkpt>
      <trkpt lat="45.93546" lon="4.72874">
        <ele>171.2</ele>
        <time>2025-09-11T14:54:05Z</time>
      </trkpt>
      <trkpt lat="45.93538" lon="4.72882">
        <ele>171.2</ele>
        <time>2025-09-11T14:54:06Z</time>
      </trkpt>
      <trkpt lat="45.93534" lon="4.72887">
        <ele>171.2</ele>
        <time>2025-09-11T14:54:07Z</time>
      </trkpt>
      <trkpt lat="45.9353" lon="4.72891">
        <ele>170.8</ele>
        <time>2025-09-11T14:54:08Z</time>
      </trkpt>
      <trkpt lat="45.93526" lon="4.72896">
        <ele>170.8</ele>
        <time>2025-09-11T14:54:09Z</time>
      </trkpt>
      <trkpt lat="45.93522" lon="4.72901">
        <ele>170.8</ele>
        <time>2025-09-11T14:54:10Z</time>
      </trkpt>
      <trkpt lat="45.93518" lon="4.72906">
        <ele>170.8</ele>
        <time>2025-09-11T14:54:11Z</time>
      </trkpt>
      <trkpt lat="45.93514" lon="4.7291">
        <ele>170.8</ele>
        <time>2025-09-11T14:54:12Z</time>
      </trkpt>
      <trkpt lat="45.9351" lon="4.72914">
        <ele>171</ele>
        <time>2025-09-11T14:54:13Z</time>
      </trkpt>
      <trkpt lat="45.9351" lon="4.72914">
        <ele>170.8</ele>
        <time>2025-09-11T14:54:14Z</time>
      </trkpt>
      <trkpt lat="45.93507" lon="4.72917">
        <ele>170.4</ele>
        <time>2025-09-11T14:54:15Z</time>
      </trkpt>
      <trkpt lat="45.93505" lon="4.72922">
        <ele>170.6</ele>
        <time>2025-09-11T14:54:16Z</time>
      </trkpt>
      <trkpt lat="45.93503" lon="4.72926">
        <ele>170.8</ele>
        <time>2025-09-11T14:54:17Z</time>
      </trkpt>
      <trkpt lat="45.93501" lon="4.72929">
        <ele>170.8</ele>
        <time>2025-09-11T14:54:18Z</time>
      </trkpt>
      <trkpt lat="45.93499" lon="4.72933">
        <ele>171</ele>
        <time>2025-09-11T14:54:19Z</time>
      </trkpt>
      <trkpt lat="45.93498" lon="4.72938">
        <ele>171</ele>
        <time>2025-09-11T14:54:20Z</time>
      </trkpt>
      <trkpt lat="45.93497" lon="4.72943">
        <ele>171</ele>
        <time>2025-09-11T14:54:21Z</time>
      </trkpt>
      <trkpt lat="45.93496" lon="4.72948">
        <ele>170.8</ele>
        <time>2025-09-11T14:54:22Z</time>
      </trkpt>
      <trkpt lat="45.93495" lon="4.72952">
        <ele>171</ele>
        <time>2025-09-11T14:54:23Z</time>
      </trkpt>
      <trkpt lat="45.93494" lon="4.72957">
        <ele>171</ele>
        <time>2025-09-11T14:54:24Z</time>
      </trkpt>
      <trkpt lat="45.93492" lon="4.72962">
        <ele>171</ele>
        <time>2025-09-11T14:54:25Z</time>
      </trkpt>
      <trkpt lat="45.93491" lon="4.72967">
        <ele>171</ele>
        <time>2025-09-11T14:54:26Z</time>
      </trkpt>
      <trkpt lat="45.9349" lon="4.72972">
        <ele>171</ele>
        <time>2025-09-11T14:54:27Z</time>
      </trkpt>
      <trkpt lat="45.93489" lon="4.72978">
        <ele>171</ele>
        <time>2025-09-11T14:54:28Z</time>
      </trkpt>
      <trkpt lat="45.93488" lon="4.72983">
        <ele>171</ele>
        <time>2025-09-11T14:54:29Z</time>
      </trkpt>
      <trkpt lat="45.93486" lon="4.72989">
        <ele>171</ele>
        <time>2025-09-11T14:54:30Z</time>
      </trkpt>
      <trkpt lat="45.93486" lon="4.72994">
        <ele>171</ele>
        <time>2025-09-11T14:54:31Z</time>
      </trkpt>
      <trkpt lat="45.93485" lon="4.73">
        <ele>170.8</ele>
        <time>2025-09-11T14:54:32Z</time>
      </trkpt>
      <trkpt lat="45.93485" lon="4.73006">
        <ele>170.8</ele>
        <time>2025-09-11T14:54:33Z</time>
      </trkpt>
      <trkpt lat="45.93485" lon="4.73011">
        <ele>170.8</ele>
        <time>2025-09-11T14:54:34Z</time>
      </trkpt>
      <trkpt lat="45.93484" lon="4.73017">
        <ele>170.8</ele>
        <time>2025-09-11T14:54:35Z</time>
      </trkpt>
      <trkpt lat="45.93484" lon="4.73023">
        <ele>171</ele>
        <time>2025-09-11T14:54:36Z</time>
      </trkpt>
      <trkpt lat="45.93484" lon="4.73028">
        <ele>171</ele>
        <time>2025-09-11T14:54:37Z</time>
      </trkpt>
      <trkpt lat="45.93484" lon="4.73033">
        <ele>171</ele>
        <time>2025-09-11T14:54:38Z</time>
      </trkpt>
      <trkpt lat="45.93484" lon="4.73038">
        <ele>170.8</ele>
        <time>2025-09-11T14:54:39Z</time>
      </trkpt>
      <trkpt lat="45.93484" lon="4.73043">
        <ele>170.8</ele>
        <time>2025-09-11T14:54:40Z</time>
      </trkpt>
      <trkpt lat="45.93483" lon="4.73048">
        <ele>170.8</ele>
        <time>2025-09-11T14:54:41Z</time>
      </trkpt>
      <trkpt lat="45.93483" lon="4.73054">
        <ele>170.8</ele>
        <time>2025-09-11T14:54:42Z</time>
      </trkpt>
      <trkpt lat="45.93483" lon="4.7306">
        <ele>170.4</ele>
        <time>2025-09-11T14:54:43Z</time>
      </trkpt>
      <trkpt lat="45.93483" lon="4.73066">
        <ele>170.4</ele>
        <time>2025-09-11T14:54:44Z</time>
      </trkpt>
      <trkpt lat="45.93483" lon="4.73072">
        <ele>170.4</ele>
        <time>2025-09-11T14:54:45Z</time>
      </trkpt>
      <trkpt lat="45.93483" lon="4.73078">
        <ele>170.4</ele>
        <time>2025-09-11T14:54:46Z</time>
      </trkpt>
      <trkpt lat="45.93484" lon="4.73084">
        <ele>170.6</ele>
        <time>2025-09-11T14:54:47Z</time>
      </trkpt>
      <trkpt lat="45.93484" lon="4.7309">
        <ele>170.6</ele>
        <time>2025-09-11T14:54:48Z</time>
      </trkpt>
      <trkpt lat="45.93484" lon="4.73096">
        <ele>171</ele>
        <time>2025-09-11T14:54:49Z</time>
      </trkpt>
      <trkpt lat="45.93483" lon="4.73102">
        <ele>171</ele>
        <time>2025-09-11T14:54:50Z</time>
      </trkpt>
      <trkpt lat="45.93483" lon="4.73108">
        <ele>171</ele>
        <time>2025-09-11T14:54:51Z</time>
      </trkpt>
      <trkpt lat="45.93483" lon="4.73114">
        <ele>171</ele>
        <time>2025-09-11T14:54:52Z</time>
      </trkpt>
      <trkpt lat="45.93483" lon="4.73119">
        <ele>170.8</ele>
        <time>2025-09-11T14:54:53Z</time>
      </trkpt>
      <trkpt lat="45.93483" lon="4.73124">
        <ele>170.8</ele>
        <time>2025-09-11T14:54:54Z</time>
      </trkpt>
      <trkpt lat="45.93483" lon="4.7313">
        <ele>170.8</ele>
        <time>2025-09-11T14:54:55Z</time>
      </trkpt>
      <trkpt lat="45.93484" lon="4.73136">
        <ele>170.8</ele>
        <time>2025-09-11T14:54:56Z</time>
      </trkpt>
      <trkpt lat="45.93484" lon="4.73142">
        <ele>171</ele>
        <time>2025-09-11T14:54:57Z</time>
      </trkpt>
      <trkpt lat="45.93485" lon="4.73148">
        <ele>171</ele>
        <time>2025-09-11T14:54:58Z</time>
      </trkpt>
      <trkpt lat="45.93486" lon="4.73154">
        <ele>171</ele>
        <time>2025-09-11T14:54:59Z</time>
      </trkpt>
      <trkpt lat="45.93488" lon="4.7316">
        <ele>171</ele>
        <time>2025-09-11T14:55:00Z</time>
      </trkpt>
      <trkpt lat="45.93489" lon="4.73165">
        <ele>171</ele>
        <time>2025-09-11T14:55:01Z</time>
      </trkpt>
      <trkpt lat="45.93491" lon="4.7317">
        <ele>171</ele>
        <time>2025-09-11T14:55:02Z</time>
      </trkpt>
      <trkpt lat="45.93492" lon="4.73174">
        <ele>171</ele>
        <time>2025-09-11T14:55:03Z</time>
      </trkpt>
      <trkpt lat="45.93493" lon="4.73176">
        <ele>170.8</ele>
        <time>2025-09-11T14:55:04Z</time>
      </trkpt>
      <trkpt lat="45.93493" lon="4.73178">
        <ele>171</ele>
        <time>2025-09-11T14:55:05Z</time>
      </trkpt>
      <trkpt lat="45.93492" lon="4.7318">
        <ele>171</ele>
        <time>2025-09-11T14:55:06Z</time>
      </trkpt>
      <trkpt lat="45.93491" lon="4.73181">
        <ele>171</ele>
        <time>2025-09-11T14:55:07Z</time>
      </trkpt>
      <trkpt lat="45.9349" lon="4.73182">
        <ele>171</ele>
        <time>2025-09-11T14:55:08Z</time>
      </trkpt>
      <trkpt lat="45.93489" lon="4.73181">
        <ele>171</ele>
        <time>2025-09-11T14:55:09Z</time>
      </trkpt>
      <trkpt lat="45.93489" lon="4.7318">
        <ele>171</ele>
        <time>2025-09-11T14:55:10Z</time>
      </trkpt>
      <trkpt lat="45.93489" lon="4.73179">
        <ele>170.8</ele>
        <time>2025-09-11T14:55:17Z</time>
      </trkpt>
      <trkpt lat="45.93489" lon="4.73178">
        <ele>171</ele>
        <time>2025-09-11T14:55:18Z</time>
      </trkpt>
      <trkpt lat="45.9349" lon="4.73176">
        <ele>171</ele>
        <time>2025-09-11T14:55:24Z</time>
      </trkpt>
      <trkpt lat="45.9349" lon="4.73175">
        <ele>171</ele>
        <time>2025-09-11T14:55:25Z</time>
      </trkpt>
      <trkpt lat="45.93503" lon="4.73203">
        <ele>170.6</ele>
        <time>2025-09-11T15:16:45Z</time>
      </trkpt>
      <trkpt lat="45.93504" lon="4.73206">
        <ele>170.2</ele>
        <time>2025-09-11T15:16:46Z</time>
      </trkpt>
      <trkpt lat="45.93504" lon="4.7321">
        <ele>170.2</ele>
        <time>2025-09-11T15:16:47Z</time>
      </trkpt>
      <trkpt lat="45.93505" lon="4.73214">
        <ele>170.2</ele>
        <time>2025-09-11T15:16:48Z</time>
      </trkpt>
      <trkpt lat="45.93506" lon="4.73218">
        <ele>170.6</ele>
        <time>2025-09-11T15:16:49Z</time>
      </trkpt>
      <trkpt lat="45.93507" lon="4.73223">
        <ele>170.6</ele>
        <time>2025-09-11T15:16:50Z</time>
      </trkpt>
      <trkpt lat="45.93507" lon="4.73228">
        <ele>170.4</ele>
        <time>2025-09-11T15:16:51Z</time>
      </trkpt>
      <trkpt lat="45.93508" lon="4.73233">
        <ele>170.4</ele>
        <time>2025-09-11T15:16:52Z</time>
      </trkpt>
      <trkpt lat="45.93509" lon="4.73238">
        <ele>170.4</ele>
        <time>2025-09-11T15:16:53Z</time>
      </trkpt>
      <trkpt lat="45.9351" lon="4.73244">
        <ele>170.4</ele>
        <time>2025-09-11T15:16:54Z</time>
      </trkpt>
      <trkpt lat="45.93511" lon="4.7325">
        <ele>170.4</ele>
        <time>2025-09-11T15:16:55Z</time>
      </trkpt>
      <trkpt lat="45.93512" lon="4.73256">
        <ele>170.4</ele>
        <time>2025-09-11T15:16:56Z</time>
      </trkpt>
      <trkpt lat="45.93513" lon="4.73262">
        <ele>170.4</ele>
        <time>2025-09-11T15:16:57Z</time>
      </trkpt>
      <trkpt lat="45.93513" lon="4.73268">
        <ele>170.4</ele>
        <time>2025-09-11T15:16:58Z</time>
      </trkpt>
      <trkpt lat="45.93514" lon="4.73275">
        <ele>170.4</ele>
        <time>2025-09-11T15:16:59Z</time>
      </trkpt>
      <trkpt lat="45.93515" lon="4.73281">
        <ele>170.4</ele>
        <time>2025-09-11T15:17:00Z</time>
      </trkpt>
      <trkpt lat="45.93516" lon="4.73288">
        <ele>169.8</ele>
        <time>2025-09-11T15:17:01Z</time>
      </trkpt>
      <trkpt lat="45.93517" lon="4.73294">
        <ele>169.8</ele>
        <time>2025-09-11T15:17:02Z</time>
      </trkpt>
      <trkpt lat="45.93519" lon="4.733">
        <ele>170.2</ele>
        <time>2025-09-11T15:17:03Z</time>
      </trkpt>
      <trkpt lat="45.9352" lon="4.73307">
        <ele>170.2</ele>
        <time>2025-09-11T15:17:04Z</time>
      </trkpt>
      <trkpt lat="45.93521" lon="4.73313">
        <ele>170.4</ele>
        <time>2025-09-11T15:17:05Z</time>
      </trkpt>
      <trkpt lat="45.93522" lon="4.73319">
        <ele>170.4</ele>
        <time>2025-09-11T15:17:06Z</time>
      </trkpt>
      <trkpt lat="45.93523" lon="4.73325">
        <ele>170.4</ele>
        <time>2025-09-11T15:17:07Z</time>
      </trkpt>
      <trkpt lat="45.93524" lon="4.73332">
        <ele>170.4</ele>
        <time>2025-09-11T15:17:08Z</time>
      </trkpt>
      <trkpt lat="45.93525" lon="4.73338">
        <ele>170.2</ele>
        <time>2025-09-11T15:17:09Z</time>
      </trkpt>
      <trkpt lat="45.93527" lon="4.73345">
        <ele>170.2</ele>
        <time>2025-09-11T15:17:10Z</time>
      </trkpt>
      <trkpt lat="45.93528" lon="4.73351">
        <ele>170.6</ele>
        <time>2025-09-11T15:17:11Z</time>
      </trkpt>
      <trkpt lat="45.93529" lon="4.73358">
        <ele>170.6</ele>
        <time>2025-09-11T15:17:12Z</time>
      </trkpt>
      <trkpt lat="45.93531" lon="4.73365">
        <ele>170.6</ele>
        <time>2025-09-11T15:17:13Z</time>
      </trkpt>
      <trkpt lat="45.93532" lon="4.73371">
        <ele>170.6</ele>
        <time>2025-09-11T15:17:14Z</time>
      </trkpt>
      <trkpt lat="45.93534" lon="4.73378">
        <ele>170.8</ele>
        <time>2025-09-11T15:17:15Z</time>
      </trkpt>
      <trkpt lat="45.93535" lon="4.73385">
        <ele>170.8</ele>
        <time>2025-09-11T15:17:16Z</time>
      </trkpt>
      <trkpt lat="45.93536" lon="4.73392">
        <ele>170.8</ele>
        <time>2025-09-11T15:17:17Z</time>
      </trkpt>
      <trkpt lat="45.93537" lon="4.73398">
        <ele>170.8</ele>
        <time>2025-09-11T15:17:18Z</time>
      </trkpt>
      <trkpt lat="45.93538" lon="4.73406">
        <ele>170.8</ele>
        <time>2025-09-11T15:17:19Z</time>
      </trkpt>
      <trkpt lat="45.93539" lon="4.73413">
        <ele>170.8</ele>
        <time>2025-09-11T15:17:20Z</time>
      </trkpt>
      <trkpt lat="45.93541" lon="4.7342">
        <ele>170.6</ele>
        <time>2025-09-11T15:17:21Z</time>
      </trkpt>
      <trkpt lat="45.93542" lon="4.73426">
        <ele>170.6</ele>
        <time>2025-09-11T15:17:22Z</time>
      </trkpt>
      <trkpt lat="45.93544" lon="4.73432">
        <ele>170.6</ele>
        <time>2025-09-11T15:17:23Z</time>
      </trkpt>
      <trkpt lat="45.93545" lon="4.73439">
        <ele>170.6</ele>
        <time>2025-09-11T15:17:24Z</time>
      </trkpt>
      <trkpt lat="45.93547" lon="4.73445">
        <ele>170.6</ele>
        <time>2025-09-11T15:17:25Z</time>
      </trkpt>
      <trkpt lat="45.93548" lon="4.73451">
        <ele>170.6</ele>
        <time>2025-09-11T15:17:26Z</time>
      </trkpt>
      <trkpt lat="45.9355" lon="4.73458">
        <ele>170.6</ele>
        <time>2025-09-11T15:17:27Z</time>
      </trkpt>
      <trkpt lat="45.93552" lon="4.73465">
        <ele>170.6</ele>
        <time>2025-09-11T15:17:28Z</time>
      </trkpt>
      <trkpt lat="45.93553" lon="4.73471">
        <ele>170.2</ele>
        <time>2025-09-11T15:17:29Z</time>
      </trkpt>
      <trkpt lat="45.93556" lon="4.73477">
        <ele>170.2</ele>
        <time>2025-09-11T15:17:30Z</time>
      </trkpt>
      <trkpt lat="45.93558" lon="4.73483">
        <ele>170.2</ele>
        <time>2025-09-11T15:17:31Z</time>
      </trkpt>
      <trkpt lat="45.9356" lon="4.7349">
        <ele>170.2</ele>
        <time>2025-09-11T15:17:32Z</time>
      </trkpt>
      <trkpt lat="45.93561" lon="4.73496">
        <ele>170.2</ele>
        <time>2025-09-11T15:17:33Z</time>
      </trkpt>
      <trkpt lat="45.93563" lon="4.73503">
        <ele>170.2</ele>
        <time>2025-09-11T15:17:34Z</time>
      </trkpt>
      <trkpt lat="45.93565" lon="4.73509">
        <ele>170</ele>
        <time>2025-09-11T15:17:35Z</time>
      </trkpt>
      <trkpt lat="45.93567" lon="4.73516">
        <ele>170</ele>
        <time>2025-09-11T15:17:36Z</time>
      </trkpt>
      <trkpt lat="45.93568" lon="4.73523">
        <ele>170</ele>
        <time>2025-09-11T15:17:37Z</time>
      </trkpt>
      <trkpt lat="45.9357" lon="4.73531">
        <ele>170</ele>
        <time>2025-09-11T15:17:38Z</time>
      </trkpt>
      <trkpt lat="45.93571" lon="4.73538">
        <ele>170</ele>
        <time>2025-09-11T15:17:39Z</time>
      </trkpt>
      <trkpt lat="45.93572" lon="4.73545">
        <ele>170</ele>
        <time>2025-09-11T15:17:40Z</time>
      </trkpt>
      <trkpt lat="45.93573" lon="4.73552">
        <ele>170</ele>
        <time>2025-09-11T15:17:41Z</time>
      </trkpt>
      <trkpt lat="45.93575" lon="4.7356">
        <ele>170</ele>
        <time>2025-09-11T15:17:42Z</time>
      </trkpt>
      <trkpt lat="45.93577" lon="4.73568">
        <ele>170</ele>
        <time>2025-09-11T15:17:43Z</time>
      </trkpt>
      <trkpt lat="45.93577" lon="4.73576">
        <ele>170</ele>
        <time>2025-09-11T15:17:44Z</time>
      </trkpt>
      <trkpt lat="45.93577" lon="4.73583">
        <ele>170</ele>
        <time>2025-09-11T15:17:45Z</time>
      </trkpt>
      <trkpt lat="45.93578" lon="4.73591">
        <ele>170</ele>
        <time>2025-09-11T15:17:46Z</time>
      </trkpt>
      <trkpt lat="45.93579" lon="4.73599">
        <ele>170</ele>
        <time>2025-09-11T15:17:47Z</time>
      </trkpt>
      <trkpt lat="45.9358" lon="4.73607">
        <ele>170</ele>
        <time>2025-09-11T15:17:48Z</time>
      </trkpt>
      <trkpt lat="45.93581" lon="4.73615">
        <ele>170</ele>
        <time>2025-09-11T15:17:49Z</time>
      </trkpt>
      <trkpt lat="45.93582" lon="4.73623">
        <ele>170</ele>
        <time>2025-09-11T15:17:50Z</time>
      </trkpt>
      <trkpt lat="45.93582" lon="4.73631">
        <ele>170</ele>
        <time>2025-09-11T15:17:51Z</time>
      </trkpt>
      <trkpt lat="45.93583" lon="4.73637">
        <ele>169.6</ele>
        <time>2025-09-11T15:17:52Z</time>
      </trkpt>
      <trkpt lat="45.93583" lon="4.73644">
        <ele>169.8</ele>
        <time>2025-09-11T15:17:53Z</time>
      </trkpt>
      <trkpt lat="45.93584" lon="4.73651">
        <ele>169.8</ele>
        <time>2025-09-11T15:17:54Z</time>
      </trkpt>
      <trkpt lat="45.93584" lon="4.73658">
        <ele>169.8</ele>
        <time>2025-09-11T15:17:55Z</time>
      </trkpt>
      <trkpt lat="45.93585" lon="4.73666">
        <ele>169.8</ele>
        <time>2025-09-11T15:17:56Z</time>
      </trkpt>
      <trkpt lat="45.93585" lon="4.73674">
        <ele>169.8</ele>
        <time>2025-09-11T15:17:57Z</time>
      </trkpt>
      <trkpt lat="45.93586" lon="4.73681">
        <ele>169.8</ele>
        <time>2025-09-11T15:17:58Z</time>
      </trkpt>
      <trkpt lat="45.93586" lon="4.73689">
        <ele>169.8</ele>
        <time>2025-09-11T15:17:59Z</time>
      </trkpt>
      <trkpt lat="45.93585" lon="4.73697">
        <ele>169.8</ele>
        <time>2025-09-11T15:18:00Z</time>
      </trkpt>
      <trkpt lat="45.93585" lon="4.73704">
        <ele>170.2</ele>
        <time>2025-09-11T15:18:01Z</time>
      </trkpt>
      <trkpt lat="45.93583" lon="4.73711">
        <ele>170.2</ele>
        <time>2025-09-11T15:18:02Z</time>
      </trkpt>
      <trkpt lat="45.9358" lon="4.73718">
        <ele>170.2</ele>
        <time>2025-09-11T15:18:03Z</time>
      </trkpt>
      <trkpt lat="45.93576" lon="4.73723">
        <ele>170.4</ele>
        <time>2025-09-11T15:18:04Z</time>
      </trkpt>
      <trkpt lat="45.93572" lon="4.73728">
        <ele>170.4</ele>
        <time>2025-09-11T15:18:05Z</time>
      </trkpt>
      <trkpt lat="45.93568" lon="4.73733">
        <ele>170.4</ele>
        <time>2025-09-11T15:18:06Z</time>
      </trkpt>
      <trkpt lat="45.93564" lon="4.73737">
        <ele>170.4</ele>
        <time>2025-09-11T15:18:07Z</time>
      </trkpt>
      <trkpt lat="45.93559" lon="4.73741">
        <ele>170.4</ele>
        <time>2025-09-11T15:18:08Z</time>
      </trkpt>
      <trkpt lat="45.93555" lon="4.73745">
        <ele>170.4</ele>
        <time>2025-09-11T15:18:09Z</time>
      </trkpt>
      <trkpt lat="45.9355" lon="4.7375">
        <ele>170.2</ele>
        <time>2025-09-11T15:18:10Z</time>
      </trkpt>
      <trkpt lat="45.93546" lon="4.73755">
        <ele>170.2</ele>
        <time>2025-09-11T15:18:11Z</time>
      </trkpt>
      <trkpt lat="45.93541" lon="4.73759">
        <ele>170.2</ele>
        <time>2025-09-11T15:18:12Z</time>
      </trkpt>
      <trkpt lat="45.93537" lon="4.73764">
        <ele>170</ele>
        <time>2025-09-11T15:18:13Z</time>
      </trkpt>
      <trkpt lat="45.93533" lon="4.73769">
        <ele>170</ele>
        <time>2025-09-11T15:18:14Z</time>
      </trkpt>
      <trkpt lat="45.93529" lon="4.73774">
        <ele>169.2</ele>
        <time>2025-09-11T15:18:15Z</time>
      </trkpt>
      <trkpt lat="45.93526" lon="4.73779">
        <ele>168.8</ele>
        <time>2025-09-11T15:18:16Z</time>
      </trkpt>
      <trkpt lat="45.93522" lon="4.73783">
        <ele>168.8</ele>
        <time>2025-09-11T15:18:17Z</time>
      </trkpt>
      <trkpt lat="45.93519" lon="4.73787">
        <ele>169.2</ele>
        <time>2025-09-11T15:18:18Z</time>
      </trkpt>
      <trkpt lat="45.93515" lon="4.7379">
        <ele>169.4</ele>
        <time>2025-09-11T15:18:19Z</time>
      </trkpt>
      <trkpt lat="45.93512" lon="4.73795">
        <ele>169.4</ele>
        <time>2025-09-11T15:18:20Z</time>
      </trkpt>
      <trkpt lat="45.93508" lon="4.73799">
        <ele>169.2</ele>
        <time>2025-09-11T15:18:21Z</time>
      </trkpt>
      <trkpt lat="45.93504" lon="4.73803">
        <ele>169.2</ele>
        <time>2025-09-11T15:18:22Z</time>
      </trkpt>
      <trkpt lat="45.935" lon="4.73806">
        <ele>169.2</ele>
        <time>2025-09-11T15:18:23Z</time>
      </trkpt>
      <trkpt lat="45.93496" lon="4.73809">
        <ele>169.2</ele>
        <time>2025-09-11T15:18:24Z</time>
      </trkpt>
      <trkpt lat="45.93491" lon="4.73811">
        <ele>169.2</ele>
        <time>2025-09-11T15:18:25Z</time>
      </trkpt>
      <trkpt lat="45.93486" lon="4.73813">
        <ele>169.2</ele>
        <time>2025-09-11T15:18:26Z</time>
      </trkpt>
      <trkpt lat="45.93481" lon="4.73816">
        <ele>169.2</ele>
        <time>2025-09-11T15:18:27Z</time>
      </trkpt>
      <trkpt lat="45.93477" lon="4.73818">
        <ele>169.2</ele>
        <time>2025-09-11T15:18:28Z</time>
      </trkpt>
      <trkpt lat="45.93472" lon="4.7382">
        <ele>169.2</ele>
        <time>2025-09-11T15:18:29Z</time>
      </trkpt>
      <trkpt lat="45.93468" lon="4.73822">
        <ele>169.2</ele>
        <time>2025-09-11T15:18:30Z</time>
      </trkpt>
      <trkpt lat="45.93463" lon="4.73824">
        <ele>169.2</ele>
        <time>2025-09-11T15:18:31Z</time>
      </trkpt>
      <trkpt lat="45.93458" lon="4.73827">
        <ele>169.2</ele>
        <time>2025-09-11T15:18:32Z</time>
      </trkpt>
      <trkpt lat="45.93454" lon="4.73829">
        <ele>169.2</ele>
        <time>2025-09-11T15:18:33Z</time>
      </trkpt>
      <trkpt lat="45.93449" lon="4.73831">
        <ele>168.8</ele>
        <time>2025-09-11T15:18:34Z</time>
      </trkpt>
      <trkpt lat="45.93444" lon="4.73833">
        <ele>169</ele>
        <time>2025-09-11T15:18:35Z</time>
      </trkpt>
      <trkpt lat="45.9344" lon="4.73835">
        <ele>169</ele>
        <time>2025-09-11T15:18:36Z</time>
      </trkpt>
      <trkpt lat="45.93435" lon="4.73837">
        <ele>169</ele>
        <time>2025-09-11T15:18:37Z</time>
      </trkpt>
      <trkpt lat="45.93431" lon="4.73839">
        <ele>169.6</ele>
        <time>2025-09-11T15:18:38Z</time>
      </trkpt>
      <trkpt lat="45.93426" lon="4.73842">
        <ele>169.6</ele>
        <time>2025-09-11T15:18:39Z</time>
      </trkpt>
      <trkpt lat="45.93422" lon="4.73843">
        <ele>169.6</ele>
        <time>2025-09-11T15:18:40Z</time>
      </trkpt>
      <trkpt lat="45.93418" lon="4.73846">
        <ele>169</ele>
        <time>2025-09-11T15:18:41Z</time>
      </trkpt>
      <trkpt lat="45.93413" lon="4.73849">
        <ele>169</ele>
        <time>2025-09-11T15:18:42Z</time>
      </trkpt>
      <trkpt lat="45.93408" lon="4.73851">
        <ele>169</ele>
        <time>2025-09-11T15:18:43Z</time>
      </trkpt>
      <trkpt lat="45.93404" lon="4.73854">
        <ele>169.2</ele>
        <time>2025-09-11T15:18:44Z</time>
      </trkpt>
      <trkpt lat="45.934" lon="4.73857">
        <ele>169.2</ele>
        <time>2025-09-11T15:18:45Z</time>
      </trkpt>
      <trkpt lat="45.93395" lon="4.73859">
        <ele>169</ele>
        <time>2025-09-11T15:18:46Z</time>
      </trkpt>
      <trkpt lat="45.9339" lon="4.73861">
        <ele>169</ele>
        <time>2025-09-11T15:18:47Z</time>
      </trkpt>
      <trkpt lat="45.93386" lon="4.73864">
        <ele>169</ele>
        <time>2025-09-11T15:18:48Z</time>
      </trkpt>
      <trkpt lat="45.93382" lon="4.73867">
        <ele>169.4</ele>
        <time>2025-09-11T15:18:49Z</time>
      </trkpt>
      <trkpt lat="45.93378" lon="4.7387">
        <ele>169.4</ele>
        <time>2025-09-11T15:18:50Z</time>
      </trkpt>
      <trkpt lat="45.93374" lon="4.73873">
        <ele>169.4</ele>
        <time>2025-09-11T15:18:51Z</time>
      </trkpt>
      <trkpt lat="45.9337" lon="4.73876">
        <ele>169.4</ele>
        <time>2025-09-11T15:18:52Z</time>
      </trkpt>
      <trkpt lat="45.93367" lon="4.73881">
        <ele>169.8</ele>
        <time>2025-09-11T15:18:53Z</time>
      </trkpt>
      <trkpt lat="45.93362" lon="4.73885">
        <ele>169.8</ele>
        <time>2025-09-11T15:18:54Z</time>
      </trkpt>
      <trkpt lat="45.93359" lon="4.73889">
        <ele>169.6</ele>
        <time>2025-09-11T15:18:55Z</time>
      </trkpt>
      <trkpt lat="45.93355" lon="4.73893">
        <ele>169.6</ele>
        <time>2025-09-11T15:18:56Z</time>
      </trkpt>
      <trkpt lat="45.93352" lon="4.73898">
        <ele>169.4</ele>
        <time>2025-09-11T15:18:57Z</time>
      </trkpt>
      <trkpt lat="45.93349" lon="4.73903">
        <ele>169.4</ele>
        <time>2025-09-11T15:18:58Z</time>
      </trkpt>
      <trkpt lat="45.93346" lon="4.73908">
        <ele>169.4</ele>
        <time>2025-09-11T15:18:59Z</time>
      </trkpt>
      <trkpt lat="45.93343" lon="4.73913">
        <ele>169.4</ele>
        <time>2025-09-11T15:19:00Z</time>
      </trkpt>
      <trkpt lat="45.9334" lon="4.73918">
        <ele>169.4</ele>
        <time>2025-09-11T15:19:01Z</time>
      </trkpt>
      <trkpt lat="45.93336" lon="4.73923">
        <ele>169</ele>
        <time>2025-09-11T15:19:02Z</time>
      </trkpt>
      <trkpt lat="45.93334" lon="4.73929">
        <ele>169</ele>
        <time>2025-09-11T15:19:03Z</time>
      </trkpt>
      <trkpt lat="45.9333" lon="4.73934">
        <ele>169.4</ele>
        <time>2025-09-11T15:19:04Z</time>
      </trkpt>
      <trkpt lat="45.93328" lon="4.7394">
        <ele>169.4</ele>
        <time>2025-09-11T15:19:05Z</time>
      </trkpt>
      <trkpt lat="45.93324" lon="4.73946">
        <ele>169.4</ele>
        <time>2025-09-11T15:19:06Z</time>
      </trkpt>
      <trkpt lat="45.93321" lon="4.73951">
        <ele>169.4</ele>
        <time>2025-09-11T15:19:07Z</time>
      </trkpt>
      <trkpt lat="45.93318" lon="4.73956">
        <ele>169.4</ele>
        <time>2025-09-11T15:19:08Z</time>
      </trkpt>
      <trkpt lat="45.93316" lon="4.73962">
        <ele>169.4</ele>
        <time>2025-09-11T15:19:09Z</time>
      </trkpt>
      <trkpt lat="45.93312" lon="4.73968">
        <ele>169.4</ele>
        <time>2025-09-11T15:19:10Z</time>
      </trkpt>
      <trkpt lat="45.9331" lon="4.73973">
        <ele>169.4</ele>
        <time>2025-09-11T15:19:11Z</time>
      </trkpt>
      <trkpt lat="45.93307" lon="4.73979">
        <ele>169.4</ele>
        <time>2025-09-11T15:19:12Z</time>
      </trkpt>
      <trkpt lat="45.93304" lon="4.73985">
        <ele>169.4</ele>
        <time>2025-09-11T15:19:13Z</time>
      </trkpt>
      <trkpt lat="45.93301" lon="4.73991">
        <ele>170</ele>
        <time>2025-09-11T15:19:14Z</time>
      </trkpt>
      <trkpt lat="45.93298" lon="4.73996">
        <ele>170</ele>
        <time>2025-09-11T15:19:15Z</time>
      </trkpt>
      <trkpt lat="45.93295" lon="4.74001">
        <ele>170</ele>
        <time>2025-09-11T15:19:16Z</time>
      </trkpt>
      <trkpt lat="45.93292" lon="4.74007">
        <ele>170</ele>
        <time>2025-09-11T15:19:17Z</time>
      </trkpt>
      <trkpt lat="45.9329" lon="4.74013">
        <ele>169.4</ele>
        <time>2025-09-11T15:19:18Z</time>
      </trkpt>
      <trkpt lat="45.93288" lon="4.74019">
        <ele>169.6</ele>
        <time>2025-09-11T15:19:19Z</time>
      </trkpt>
      <trkpt lat="45.93285" lon="4.74023">
        <ele>169.6</ele>
        <time>2025-09-11T15:19:20Z</time>
      </trkpt>
      <trkpt lat="45.93282" lon="4.74029">
        <ele>169.6</ele>
        <time>2025-09-11T15:19:21Z</time>
      </trkpt>
      <trkpt lat="45.9328" lon="4.74034">
        <ele>169.6</ele>
        <time>2025-09-11T15:19:22Z</time>
      </trkpt>
      <trkpt lat="45.93278" lon="4.7404">
        <ele>169.6</ele>
        <time>2025-09-11T15:19:23Z</time>
      </trkpt>
      <trkpt lat="45.93275" lon="4.74045">
        <ele>169.6</ele>
        <time>2025-09-11T15:19:24Z</time>
      </trkpt>
      <trkpt lat="45.93272" lon="4.74051">
        <ele>169.6</ele>
        <time>2025-09-11T15:19:25Z</time>
      </trkpt>
      <trkpt lat="45.93269" lon="4.74056">
        <ele>169.6</ele>
        <time>2025-09-11T15:19:26Z</time>
      </trkpt>
      <trkpt lat="45.93267" lon="4.74062">
        <ele>169.6</ele>
        <time>2025-09-11T15:19:27Z</time>
      </trkpt>
      <trkpt lat="45.93264" lon="4.74067">
        <ele>169.4</ele>
        <time>2025-09-11T15:19:28Z</time>
      </trkpt>
      <trkpt lat="45.93261" lon="4.74072">
        <ele>169.4</ele>
        <time>2025-09-11T15:19:29Z</time>
      </trkpt>
      <trkpt lat="45.93255" lon="4.74082">
        <ele>169.8</ele>
        <time>2025-09-11T15:19:30Z</time>
      </trkpt>
      <trkpt lat="45.93252" lon="4.74087">
        <ele>169.8</ele>
        <time>2025-09-11T15:19:31Z</time>
      </trkpt>
      <trkpt lat="45.9325" lon="4.74093">
        <ele>169.8</ele>
        <time>2025-09-11T15:19:32Z</time>
      </trkpt>
      <trkpt lat="45.93247" lon="4.74098">
        <ele>169.8</ele>
        <time>2025-09-11T15:19:33Z</time>
      </trkpt>
      <trkpt lat="45.93244" lon="4.74103">
        <ele>169.8</ele>
        <time>2025-09-11T15:19:34Z</time>
      </trkpt>
      <trkpt lat="45.93242" lon="4.74108">
        <ele>169.8</ele>
        <time>2025-09-11T15:19:35Z</time>
      </trkpt>
      <trkpt lat="45.93238" lon="4.74112">
        <ele>169.8</ele>
        <time>2025-09-11T15:19:36Z</time>
      </trkpt>
      <trkpt lat="45.93234" lon="4.74114">
        <ele>169.8</ele>
        <time>2025-09-11T15:19:37Z</time>
      </trkpt>
      <trkpt lat="45.93234" lon="4.74114">
        <ele>169.8</ele>
        <time>2025-09-11T15:19:38Z</time>
      </trkpt>
      <trkpt lat="45.9323" lon="4.74115">
        <ele>169.8</ele>
        <time>2025-09-11T15:19:39Z</time>
      </trkpt>
      <trkpt lat="45.93226" lon="4.74115">
        <ele>169.8</ele>
        <time>2025-09-11T15:19:40Z</time>
      </trkpt>
      <trkpt lat="45.93221" lon="4.74114">
        <ele>169.8</ele>
        <time>2025-09-11T15:19:41Z</time>
      </trkpt>
      <trkpt lat="45.93217" lon="4.74112">
        <ele>169.8</ele>
        <time>2025-09-11T15:19:42Z</time>
      </trkpt>
      <trkpt lat="45.93214" lon="4.74108">
        <ele>169.6</ele>
        <time>2025-09-11T15:19:43Z</time>
      </trkpt>
      <trkpt lat="45.9321" lon="4.74104">
        <ele>169.6</ele>
        <time>2025-09-11T15:19:44Z</time>
      </trkpt>
      <trkpt lat="45.93206" lon="4.74101">
        <ele>169.8</ele>
        <time>2025-09-11T15:19:45Z</time>
      </trkpt>
      <trkpt lat="45.93202" lon="4.74097">
        <ele>169.8</ele>
        <time>2025-09-11T15:19:46Z</time>
      </trkpt>
      <trkpt lat="45.93198" lon="4.74094">
        <ele>170</ele>
        <time>2025-09-11T15:19:47Z</time>
      </trkpt>
      <trkpt lat="45.93194" lon="4.74091">
        <ele>170</ele>
        <time>2025-09-11T15:19:48Z</time>
      </trkpt>
      <trkpt lat="45.9319" lon="4.74088">
        <ele>170</ele>
        <time>2025-09-11T15:19:49Z</time>
      </trkpt>
      <trkpt lat="45.93187" lon="4.74085">
        <ele>170</ele>
        <time>2025-09-11T15:19:50Z</time>
      </trkpt>
      <trkpt lat="45.93183" lon="4.74082">
        <ele>170</ele>
        <time>2025-09-11T15:19:51Z</time>
      </trkpt>
      <trkpt lat="45.9318" lon="4.74079">
        <ele>170</ele>
        <time>2025-09-11T15:19:52Z</time>
      </trkpt>
      <trkpt lat="45.93176" lon="4.74076">
        <ele>168.8</ele>
        <time>2025-09-11T15:19:53Z</time>
      </trkpt>
      <trkpt lat="45.93173" lon="4.74073">
        <ele>169.2</ele>
        <time>2025-09-11T15:19:54Z</time>
      </trkpt>
      <trkpt lat="45.9317" lon="4.74069">
        <ele>169.2</ele>
        <time>2025-09-11T15:19:55Z</time>
      </trkpt>
      <trkpt lat="45.93167" lon="4.74066">
        <ele>169.4</ele>
        <time>2025-09-11T15:19:56Z</time>
      </trkpt>
      <trkpt lat="45.93164" lon="4.74062">
        <ele>169.8</ele>
        <time>2025-09-11T15:19:57Z</time>
      </trkpt>
      <trkpt lat="45.93161" lon="4.74059">
        <ele>169.8</ele>
        <time>2025-09-11T15:19:58Z</time>
      </trkpt>
      <trkpt lat="45.93158" lon="4.74055">
        <ele>170.2</ele>
        <time>2025-09-11T15:19:59Z</time>
      </trkpt>
      <trkpt lat="45.93155" lon="4.74052">
        <ele>170.2</ele>
        <time>2025-09-11T15:20:00Z</time>
      </trkpt>
      <trkpt lat="45.93151" lon="4.74048">
        <ele>170.2</ele>
        <time>2025-09-11T15:20:01Z</time>
      </trkpt>
      <trkpt lat="45.93147" lon="4.74045">
        <ele>170.6</ele>
        <time>2025-09-11T15:20:02Z</time>
      </trkpt>
      <trkpt lat="45.93144" lon="4.74042">
        <ele>170.6</ele>
        <time>2025-09-11T15:20:03Z</time>
      </trkpt>
      <trkpt lat="45.93139" lon="4.74039">
        <ele>170.6</ele>
        <time>2025-09-11T15:20:04Z</time>
      </trkpt>
      <trkpt lat="45.93135" lon="4.74036">
        <ele>170.6</ele>
        <time>2025-09-11T15:20:05Z</time>
      </trkpt>
      <trkpt lat="45.93131" lon="4.74033">
        <ele>170.6</ele>
        <time>2025-09-11T15:20:06Z</time>
      </trkpt>
      <trkpt lat="45.93126" lon="4.74031">
        <ele>170.6</ele>
        <time>2025-09-11T15:20:07Z</time>
      </trkpt>
      <trkpt lat="45.93122" lon="4.74029">
        <ele>170.6</ele>
        <time>2025-09-11T15:20:08Z</time>
      </trkpt>
      <trkpt lat="45.93117" lon="4.74027">
        <ele>170.6</ele>
        <time>2025-09-11T15:20:09Z</time>
      </trkpt>
      <trkpt lat="45.93112" lon="4.74025">
        <ele>170.6</ele>
        <time>2025-09-11T15:20:10Z</time>
      </trkpt>
      <trkpt lat="45.93107" lon="4.74024">
        <ele>170.6</ele>
        <time>2025-09-11T15:20:11Z</time>
      </trkpt>
      <trkpt lat="45.93102" lon="4.74022">
        <ele>170.6</ele>
        <time>2025-09-11T15:20:12Z</time>
      </trkpt>
      <trkpt lat="45.93097" lon="4.74021">
        <ele>170.4</ele>
        <time>2025-09-11T15:20:13Z</time>
      </trkpt>
      <trkpt lat="45.93092" lon="4.7402">
        <ele>170.4</ele>
        <time>2025-09-11T15:20:14Z</time>
      </trkpt>
      <trkpt lat="45.93088" lon="4.74019">
        <ele>170.4</ele>
        <time>2025-09-11T15:20:15Z</time>
      </trkpt>
      <trkpt lat="45.93084" lon="4.74019">
        <ele>170.6</ele>
        <time>2025-09-11T15:20:16Z</time>
      </trkpt>
      <trkpt lat="45.93079" lon="4.74017">
        <ele>170.6</ele>
        <time>2025-09-11T15:20:17Z</time>
      </trkpt>
      <trkpt lat="45.93076" lon="4.74016">
        <ele>170.6</ele>
        <time>2025-09-11T15:20:18Z</time>
      </trkpt>
      <trkpt lat="45.93073" lon="4.74017">
        <ele>170.6</ele>
        <time>2025-09-11T15:20:19Z</time>
      </trkpt>
      <trkpt lat="45.9307" lon="4.74018">
        <ele>170.6</ele>
        <time>2025-09-11T15:20:20Z</time>
      </trkpt>
      <trkpt lat="45.93069" lon="4.7402">
        <ele>170.6</ele>
        <time>2025-09-11T15:20:21Z</time>
      </trkpt>
      <trkpt lat="45.93068" lon="4.74023">
        <ele>170.6</ele>
        <time>2025-09-11T15:20:22Z</time>
      </trkpt>
      <trkpt lat="45.9307" lon="4.74027">
        <ele>170.6</ele>
        <time>2025-09-11T15:20:23Z</time>
      </trkpt>
      <trkpt lat="45.93071" lon="4.74031">
        <ele>170.6</ele>
        <time>2025-09-11T15:20:24Z</time>
      </trkpt>
      <trkpt lat="45.93072" lon="4.74036">
        <ele>170.6</ele>
        <time>2025-09-11T15:20:25Z</time>
      </trkpt>
      <trkpt lat="45.93073" lon="4.74042">
        <ele>170.4</ele>
        <time>2025-09-11T15:20:26Z</time>
      </trkpt>
      <trkpt lat="45.93074" lon="4.74047">
        <ele>170.4</ele>
        <time>2025-09-11T15:20:27Z</time>
      </trkpt>
      <trkpt lat="45.93075" lon="4.74053">
        <ele>170.4</ele>
        <time>2025-09-11T15:20:28Z</time>
      </trkpt>
      <trkpt lat="45.93076" lon="4.74058">
        <ele>170.4</ele>
        <time>2025-09-11T15:20:29Z</time>
      </trkpt>
      <trkpt lat="45.93078" lon="4.74063">
        <ele>170.4</ele>
        <time>2025-09-11T15:20:30Z</time>
      </trkpt>
      <trkpt lat="45.93079" lon="4.74068">
        <ele>170.4</ele>
        <time>2025-09-11T15:20:31Z</time>
      </trkpt>
      <trkpt lat="45.9308" lon="4.74073">
        <ele>170.4</ele>
        <time>2025-09-11T15:20:32Z</time>
      </trkpt>
      <trkpt lat="45.9308" lon="4.74079">
        <ele>170.4</ele>
        <time>2025-09-11T15:20:33Z</time>
      </trkpt>
      <trkpt lat="45.93081" lon="4.74085">
        <ele>170.4</ele>
        <time>2025-09-11T15:20:34Z</time>
      </trkpt>
      <trkpt lat="45.93082" lon="4.74091">
        <ele>170</ele>
        <time>2025-09-11T15:20:35Z</time>
      </trkpt>
      <trkpt lat="45.93083" lon="4.74096">
        <ele>170</ele>
        <time>2025-09-11T15:20:36Z</time>
      </trkpt>
      <trkpt lat="45.93083" lon="4.74102">
        <ele>170</ele>
        <time>2025-09-11T15:20:37Z</time>
      </trkpt>
      <trkpt lat="45.93084" lon="4.74108">
        <ele>170</ele>
        <time>2025-09-11T15:20:38Z</time>
      </trkpt>
      <trkpt lat="45.93086" lon="4.74114">
        <ele>170</ele>
        <time>2025-09-11T15:20:39Z</time>
      </trkpt>
      <trkpt lat="45.93087" lon="4.74121">
        <ele>170</ele>
        <time>2025-09-11T15:20:40Z</time>
      </trkpt>
      <trkpt lat="45.93087" lon="4.74127">
        <ele>170</ele>
        <time>2025-09-11T15:20:41Z</time>
      </trkpt>
      <trkpt lat="45.93089" lon="4.74133">
        <ele>170.2</ele>
        <time>2025-09-11T15:20:42Z</time>
      </trkpt>
      <trkpt lat="45.9309" lon="4.74141">
        <ele>170.2</ele>
        <time>2025-09-11T15:20:43Z</time>
      </trkpt>
      <trkpt lat="45.93091" lon="4.74147">
        <ele>169.8</ele>
        <time>2025-09-11T15:20:44Z</time>
      </trkpt>
      <trkpt lat="45.93093" lon="4.74154">
        <ele>169.8</ele>
        <time>2025-09-11T15:20:45Z</time>
      </trkpt>
      <trkpt lat="45.93094" lon="4.7416">
        <ele>169.8</ele>
        <time>2025-09-11T15:20:46Z</time>
      </trkpt>
      <trkpt lat="45.93094" lon="4.74167">
        <ele>170.2</ele>
        <time>2025-09-11T15:20:47Z</time>
      </trkpt>
      <trkpt lat="45.93095" lon="4.74174">
        <ele>170.2</ele>
        <time>2025-09-11T15:20:48Z</time>
      </trkpt>
      <trkpt lat="45.93096" lon="4.74181">
        <ele>170.2</ele>
        <time>2025-09-11T15:20:49Z</time>
      </trkpt>
      <trkpt lat="45.93097" lon="4.74188">
        <ele>170.4</ele>
        <time>2025-09-11T15:20:50Z</time>
      </trkpt>
      <trkpt lat="45.93097" lon="4.74196">
        <ele>170.4</ele>
        <time>2025-09-11T15:20:51Z</time>
      </trkpt>
      <trkpt lat="45.93098" lon="4.74203">
        <ele>170.4</ele>
        <time>2025-09-11T15:20:52Z</time>
      </trkpt>
      <trkpt lat="45.93098" lon="4.7421">
        <ele>170.4</ele>
        <time>2025-09-11T15:20:53Z</time>
      </trkpt>
      <trkpt lat="45.93099" lon="4.74217">
        <ele>170.4</ele>
        <time>2025-09-11T15:20:54Z</time>
      </trkpt>
      <trkpt lat="45.931" lon="4.74224">
        <ele>170.4</ele>
        <time>2025-09-11T15:20:55Z</time>
      </trkpt>
      <trkpt lat="45.93102" lon="4.74232">
        <ele>170.4</ele>
        <time>2025-09-11T15:20:56Z</time>
      </trkpt>
      <trkpt lat="45.93104" lon="4.74239">
        <ele>170.4</ele>
        <time>2025-09-11T15:20:57Z</time>
      </trkpt>
      <trkpt lat="45.93106" lon="4.74246">
        <ele>170.4</ele>
        <time>2025-09-11T15:20:58Z</time>
      </trkpt>
      <trkpt lat="45.93109" lon="4.74253">
        <ele>170.2</ele>
        <time>2025-09-11T15:20:59Z</time>
      </trkpt>
      <trkpt lat="45.93113" lon="4.7426">
        <ele>170.2</ele>
        <time>2025-09-11T15:21:00Z</time>
      </trkpt>
      <trkpt lat="45.93116" lon="4.74267">
        <ele>170.2</ele>
        <time>2025-09-11T15:21:01Z</time>
      </trkpt>
      <trkpt lat="45.93119" lon="4.74274">
        <ele>170.2</ele>
        <time>2025-09-11T15:21:02Z</time>
      </trkpt>
      <trkpt lat="45.93122" lon="4.74281">
        <ele>170</ele>
        <time>2025-09-11T15:21:03Z</time>
      </trkpt>
      <trkpt lat="45.93125" lon="4.74289">
        <ele>170</ele>
        <time>2025-09-11T15:21:04Z</time>
      </trkpt>
      <trkpt lat="45.93128" lon="4.74297">
        <ele>170</ele>
        <time>2025-09-11T15:21:05Z</time>
      </trkpt>
      <trkpt lat="45.93131" lon="4.74304">
        <ele>170</ele>
        <time>2025-09-11T15:21:06Z</time>
      </trkpt>
      <trkpt lat="45.93134" lon="4.74312">
        <ele>170</ele>
        <time>2025-09-11T15:21:07Z</time>
      </trkpt>
      <trkpt lat="45.93136" lon="4.7432">
        <ele>170</ele>
        <time>2025-09-11T15:21:08Z</time>
      </trkpt>
      <trkpt lat="45.93138" lon="4.74328">
        <ele>170</ele>
        <time>2025-09-11T15:21:09Z</time>
      </trkpt>
      <trkpt lat="45.9314" lon="4.74336">
        <ele>170</ele>
        <time>2025-09-11T15:21:10Z</time>
      </trkpt>
      <trkpt lat="45.93141" lon="4.74344">
        <ele>170</ele>
        <time>2025-09-11T15:21:11Z</time>
      </trkpt>
      <trkpt lat="45.93142" lon="4.74352">
        <ele>170</ele>
        <time>2025-09-11T15:21:12Z</time>
      </trkpt>
      <trkpt lat="45.93143" lon="4.7436">
        <ele>170</ele>
        <time>2025-09-11T15:21:13Z</time>
      </trkpt>
      <trkpt lat="45.93143" lon="4.74367">
        <ele>170</ele>
        <time>2025-09-11T15:21:14Z</time>
      </trkpt>
      <trkpt lat="45.93143" lon="4.74375">
        <ele>170</ele>
        <time>2025-09-11T15:21:15Z</time>
      </trkpt>
      <trkpt lat="45.93143" lon="4.74383">
        <ele>170</ele>
        <time>2025-09-11T15:21:16Z</time>
      </trkpt>
      <trkpt lat="45.93143" lon="4.74391">
        <ele>170</ele>
        <time>2025-09-11T15:21:17Z</time>
      </trkpt>
      <trkpt lat="45.93142" lon="4.744">
        <ele>170</ele>
        <time>2025-09-11T15:21:18Z</time>
      </trkpt>
      <trkpt lat="45.93142" lon="4.74407">
        <ele>170</ele>
        <time>2025-09-11T15:21:19Z</time>
      </trkpt>
      <trkpt lat="45.93142" lon="4.74415">
        <ele>170</ele>
        <time>2025-09-11T15:21:20Z</time>
      </trkpt>
      <trkpt lat="45.93142" lon="4.74422">
        <ele>170.2</ele>
        <time>2025-09-11T15:21:21Z</time>
      </trkpt>
      <trkpt lat="45.93141" lon="4.7443">
        <ele>170.2</ele>
        <time>2025-09-11T15:21:22Z</time>
      </trkpt>
      <trkpt lat="45.93141" lon="4.74438">
        <ele>170.2</ele>
        <time>2025-09-11T15:21:23Z</time>
      </trkpt>
      <trkpt lat="45.93142" lon="4.74446">
        <ele>170.2</ele>
        <time>2025-09-11T15:21:24Z</time>
      </trkpt>
      <trkpt lat="45.93142" lon="4.74454">
        <ele>170.2</ele>
        <time>2025-09-11T15:21:25Z</time>
      </trkpt>
      <trkpt lat="45.93143" lon="4.74461">
        <ele>170.2</ele>
        <time>2025-09-11T15:21:26Z</time>
      </trkpt>
      <trkpt lat="45.93145" lon="4.74469">
        <ele>170.2</ele>
        <time>2025-09-11T15:21:27Z</time>
      </trkpt>
      <trkpt lat="45.93146" lon="4.74477">
        <ele>170.2</ele>
        <time>2025-09-11T15:21:28Z</time>
      </trkpt>
      <trkpt lat="45.93149" lon="4.74484">
        <ele>170.4</ele>
        <time>2025-09-11T15:21:29Z</time>
      </trkpt>
      <trkpt lat="45.93151" lon="4.74491">
        <ele>170.4</ele>
        <time>2025-09-11T15:21:30Z</time>
      </trkpt>
      <trkpt lat="45.93154" lon="4.74498">
        <ele>170.2</ele>
        <time>2025-09-11T15:21:31Z</time>
      </trkpt>
      <trkpt lat="45.93157" lon="4.74504">
        <ele>170.2</ele>
        <time>2025-09-11T15:21:32Z</time>
      </trkpt>
      <trkpt lat="45.9316" lon="4.74511">
        <ele>170.4</ele>
        <time>2025-09-11T15:21:33Z</time>
      </trkpt>
      <trkpt lat="45.93164" lon="4.74517">
        <ele>170.4</ele>
        <time>2025-09-11T15:21:34Z</time>
      </trkpt>
      <trkpt lat="45.93167" lon="4.74524">
        <ele>170.2</ele>
        <time>2025-09-11T15:21:35Z</time>
      </trkpt>
      <trkpt lat="45.93171" lon="4.74532">
        <ele>169.8</ele>
        <time>2025-09-11T15:21:36Z</time>
      </trkpt>
      <trkpt lat="45.93174" lon="4.74538">
        <ele>169.8</ele>
        <time>2025-09-11T15:21:37Z</time>
      </trkpt>
      <trkpt lat="45.93177" lon="4.74545">
        <ele>169.6</ele>
        <time>2025-09-11T15:21:38Z</time>
      </trkpt>
      <trkpt lat="45.9318" lon="4.74552">
        <ele>169.6</ele>
        <time>2025-09-11T15:21:39Z</time>
      </trkpt>
      <trkpt lat="45.93184" lon="4.74559">
        <ele>169.6</ele>
        <time>2025-09-11T15:21:40Z</time>
      </trkpt>
      <trkpt lat="45.93187" lon="4.74566">
        <ele>169.6</ele>
        <time>2025-09-11T15:21:41Z</time>
      </trkpt>
      <trkpt lat="45.93191" lon="4.74572">
        <ele>169.6</ele>
        <time>2025-09-11T15:21:42Z</time>
      </trkpt>
      <trkpt lat="45.93195" lon="4.74579">
        <ele>169.6</ele>
        <time>2025-09-11T15:21:43Z</time>
      </trkpt>
      <trkpt lat="45.93198" lon="4.74585">
        <ele>169.6</ele>
        <time>2025-09-11T15:21:44Z</time>
      </trkpt>
      <trkpt lat="45.93202" lon="4.74591">
        <ele>169.6</ele>
        <time>2025-09-11T15:21:45Z</time>
      </trkpt>
      <trkpt lat="45.93206" lon="4.74596">
        <ele>169.6</ele>
        <time>2025-09-11T15:21:46Z</time>
      </trkpt>
      <trkpt lat="45.9321" lon="4.74601">
        <ele>169.8</ele>
        <time>2025-09-11T15:21:47Z</time>
      </trkpt>
      <trkpt lat="45.93214" lon="4.74606">
        <ele>169.8</ele>
        <time>2025-09-11T15:21:48Z</time>
      </trkpt>
      <trkpt lat="45.93219" lon="4.74611">
        <ele>169.8</ele>
        <time>2025-09-11T15:21:49Z</time>
      </trkpt>
      <trkpt lat="45.93224" lon="4.74616">
        <ele>169.4</ele>
        <time>2025-09-11T15:21:50Z</time>
      </trkpt>
      <trkpt lat="45.93228" lon="4.74623">
        <ele>169.4</ele>
        <time>2025-09-11T15:21:51Z</time>
      </trkpt>
      <trkpt lat="45.93232" lon="4.74629">
        <ele>169</ele>
        <time>2025-09-11T15:21:52Z</time>
      </trkpt>
      <trkpt lat="45.93235" lon="4.74636">
        <ele>169</ele>
        <time>2025-09-11T15:21:53Z</time>
      </trkpt>
      <trkpt lat="45.93237" lon="4.74643">
        <ele>169</ele>
        <time>2025-09-11T15:21:54Z</time>
      </trkpt>
      <trkpt lat="45.93239" lon="4.7465">
        <ele>169</ele>
        <time>2025-09-11T15:21:55Z</time>
      </trkpt>
      <trkpt lat="45.9324" lon="4.74658">
        <ele>169</ele>
        <time>2025-09-11T15:21:56Z</time>
      </trkpt>
      <trkpt lat="45.93242" lon="4.74666">
        <ele>169</ele>
        <time>2025-09-11T15:21:57Z</time>
      </trkpt>
      <trkpt lat="45.93243" lon="4.74674">
        <ele>169</ele>
        <time>2025-09-11T15:21:58Z</time>
      </trkpt>
      <trkpt lat="45.93244" lon="4.74682">
        <ele>169</ele>
        <time>2025-09-11T15:21:59Z</time>
      </trkpt>
      <trkpt lat="45.93245" lon="4.74689">
        <ele>169</ele>
        <time>2025-09-11T15:22:00Z</time>
      </trkpt>
      <trkpt lat="45.93247" lon="4.74697">
        <ele>169</ele>
        <time>2025-09-11T15:22:01Z</time>
      </trkpt>
      <trkpt lat="45.93249" lon="4.74705">
        <ele>169</ele>
        <time>2025-09-11T15:22:02Z</time>
      </trkpt>
      <trkpt lat="45.9325" lon="4.74713">
        <ele>169</ele>
        <time>2025-09-11T15:22:03Z</time>
      </trkpt>
      <trkpt lat="45.93252" lon="4.74721">
        <ele>169</ele>
        <time>2025-09-11T15:22:04Z</time>
      </trkpt>
      <trkpt lat="45.93253" lon="4.74729">
        <ele>169</ele>
        <time>2025-09-11T15:22:05Z</time>
      </trkpt>
      <trkpt lat="45.93255" lon="4.74736">
        <ele>169</ele>
        <time>2025-09-11T15:22:06Z</time>
      </trkpt>
      <trkpt lat="45.93256" lon="4.74744">
        <ele>169</ele>
        <time>2025-09-11T15:22:07Z</time>
      </trkpt>
      <trkpt lat="45.93257" lon="4.74751">
        <ele>169</ele>
        <time>2025-09-11T15:22:08Z</time>
      </trkpt>
      <trkpt lat="45.93258" lon="4.74758">
        <ele>169</ele>
        <time>2025-09-11T15:22:09Z</time>
      </trkpt>
      <trkpt lat="45.9326" lon="4.74766">
        <ele>169</ele>
        <time>2025-09-11T15:22:10Z</time>
      </trkpt>
      <trkpt lat="45.93261" lon="4.74774">
        <ele>169</ele>
        <time>2025-09-11T15:22:11Z</time>
      </trkpt>
      <trkpt lat="45.93263" lon="4.74781">
        <ele>169</ele>
        <time>2025-09-11T15:22:12Z</time>
      </trkpt>
      <trkpt lat="45.93264" lon="4.74789">
        <ele>169</ele>
        <time>2025-09-11T15:22:13Z</time>
      </trkpt>
      <trkpt lat="45.93265" lon="4.74796">
        <ele>169.4</ele>
        <time>2025-09-11T15:22:14Z</time>
      </trkpt>
      <trkpt lat="45.93267" lon="4.74804">
        <ele>169.4</ele>
        <time>2025-09-11T15:22:15Z</time>
      </trkpt>
      <trkpt lat="45.93268" lon="4.74811">
        <ele>169.4</ele>
        <time>2025-09-11T15:22:16Z</time>
      </trkpt>
      <trkpt lat="45.9327" lon="4.74819">
        <ele>169.4</ele>
        <time>2025-09-11T15:22:17Z</time>
      </trkpt>
      <trkpt lat="45.93271" lon="4.74827">
        <ele>169.4</ele>
        <time>2025-09-11T15:22:18Z</time>
      </trkpt>
      <trkpt lat="45.93273" lon="4.74834">
        <ele>169.4</ele>
        <time>2025-09-11T15:22:19Z</time>
      </trkpt>
      <trkpt lat="45.93274" lon="4.74842">
        <ele>169.4</ele>
        <time>2025-09-11T15:22:20Z</time>
      </trkpt>
      <trkpt lat="45.93275" lon="4.74849">
        <ele>169.4</ele>
        <time>2025-09-11T15:22:21Z</time>
      </trkpt>
      <trkpt lat="45.93276" lon="4.74857">
        <ele>169.4</ele>
        <time>2025-09-11T15:22:22Z</time>
      </trkpt>
      <trkpt lat="45.93278" lon="4.74864">
        <ele>169.2</ele>
        <time>2025-09-11T15:22:23Z</time>
      </trkpt>
      <trkpt lat="45.93279" lon="4.74872">
        <ele>169.2</ele>
        <time>2025-09-11T15:22:24Z</time>
      </trkpt>
      <trkpt lat="45.93279" lon="4.74879">
        <ele>169.2</ele>
        <time>2025-09-11T15:22:25Z</time>
      </trkpt>
      <trkpt lat="45.9328" lon="4.74886">
        <ele>168.8</ele>
        <time>2025-09-11T15:22:26Z</time>
      </trkpt>
      <trkpt lat="45.93281" lon="4.74894">
        <ele>168.8</ele>
        <time>2025-09-11T15:22:27Z</time>
      </trkpt>
      <trkpt lat="45.93282" lon="4.74901">
        <ele>168.8</ele>
        <time>2025-09-11T15:22:28Z</time>
      </trkpt>
      <trkpt lat="45.93283" lon="4.74909">
        <ele>169</ele>
        <time>2025-09-11T15:22:29Z</time>
      </trkpt>
      <trkpt lat="45.93284" lon="4.74916">
        <ele>169</ele>
        <time>2025-09-11T15:22:30Z</time>
      </trkpt>
      <trkpt lat="45.93285" lon="4.74923">
        <ele>169.4</ele>
        <time>2025-09-11T15:22:31Z</time>
      </trkpt>
      <trkpt lat="45.93288" lon="4.7493">
        <ele>169.4</ele>
        <time>2025-09-11T15:22:32Z</time>
      </trkpt>
      <trkpt lat="45.9329" lon="4.74936">
        <ele>169.4</ele>
        <time>2025-09-11T15:22:33Z</time>
      </trkpt>
      <trkpt lat="45.93294" lon="4.74941">
        <ele>169.6</ele>
        <time>2025-09-11T15:22:34Z</time>
      </trkpt>
      <trkpt lat="45.93299" lon="4.74944">
        <ele>169.6</ele>
        <time>2025-09-11T15:22:35Z</time>
      </trkpt>
      <trkpt lat="45.93304" lon="4.74945">
        <ele>169.2</ele>
        <time>2025-09-11T15:22:36Z</time>
      </trkpt>
      <trkpt lat="45.93309" lon="4.74947">
        <ele>169.2</ele>
        <time>2025-09-11T15:22:37Z</time>
      </trkpt>
      <trkpt lat="45.93314" lon="4.74947">
        <ele>169.2</ele>
        <time>2025-09-11T15:22:38Z</time>
      </trkpt>
      <trkpt lat="45.93319" lon="4.74948">
        <ele>169.2</ele>
        <time>2025-09-11T15:22:39Z</time>
      </trkpt>
      <trkpt lat="45.93324" lon="4.74948">
        <ele>169.2</ele>
        <time>2025-09-11T15:22:40Z</time>
      </trkpt>
      <trkpt lat="45.93329" lon="4.7495">
        <ele>169.6</ele>
        <time>2025-09-11T15:22:41Z</time>
      </trkpt>
      <trkpt lat="45.93334" lon="4.7495">
        <ele>169.2</ele>
        <time>2025-09-11T15:22:42Z</time>
      </trkpt>
      <trkpt lat="45.93338" lon="4.74953">
        <ele>169.2</ele>
        <time>2025-09-11T15:22:43Z</time>
      </trkpt>
      <trkpt lat="45.93344" lon="4.74953">
        <ele>169.2</ele>
        <time>2025-09-11T15:22:44Z</time>
      </trkpt>
      <trkpt lat="45.93349" lon="4.74954">
        <ele>169.6</ele>
        <time>2025-09-11T15:22:45Z</time>
      </trkpt>
      <trkpt lat="45.93354" lon="4.74955">
        <ele>169.6</ele>
        <time>2025-09-11T15:22:46Z</time>
      </trkpt>
      <trkpt lat="45.9336" lon="4.74956">
        <ele>169.2</ele>
        <time>2025-09-11T15:22:47Z</time>
      </trkpt>
      <trkpt lat="45.93364" lon="4.74958">
        <ele>169.2</ele>
        <time>2025-09-11T15:22:48Z</time>
      </trkpt>
      <trkpt lat="45.93369" lon="4.74962">
        <ele>169.2</ele>
        <time>2025-09-11T15:22:49Z</time>
      </trkpt>
      <trkpt lat="45.93373" lon="4.74966">
        <ele>169.2</ele>
        <time>2025-09-11T15:22:50Z</time>
      </trkpt>
      <trkpt lat="45.93377" lon="4.74971">
        <ele>169.6</ele>
        <time>2025-09-11T15:22:51Z</time>
      </trkpt>
      <trkpt lat="45.9338" lon="4.74977">
        <ele>169.6</ele>
        <time>2025-09-11T15:22:52Z</time>
      </trkpt>
      <trkpt lat="45.93381" lon="4.74984">
        <ele>169.6</ele>
        <time>2025-09-11T15:22:53Z</time>
      </trkpt>
      <trkpt lat="45.93382" lon="4.74991">
        <ele>169.6</ele>
        <time>2025-09-11T15:22:54Z</time>
      </trkpt>
      <trkpt lat="45.93381" lon="4.74998">
        <ele>169.6</ele>
        <time>2025-09-11T15:22:55Z</time>
      </trkpt>
      <trkpt lat="45.93381" lon="4.75006">
        <ele>169.6</ele>
        <time>2025-09-11T15:22:56Z</time>
      </trkpt>
      <trkpt lat="45.93381" lon="4.75013">
        <ele>169.6</ele>
        <time>2025-09-11T15:22:57Z</time>
      </trkpt>
      <trkpt lat="45.9338" lon="4.75021">
        <ele>169.6</ele>
        <time>2025-09-11T15:22:58Z</time>
      </trkpt>
      <trkpt lat="45.93379" lon="4.75028">
        <ele>169.6</ele>
        <time>2025-09-11T15:22:59Z</time>
      </trkpt>
      <trkpt lat="45.93379" lon="4.75035">
        <ele>169.6</ele>
        <time>2025-09-11T15:23:00Z</time>
      </trkpt>
      <trkpt lat="45.93378" lon="4.75042">
        <ele>169.6</ele>
        <time>2025-09-11T15:23:01Z</time>
      </trkpt>
      <trkpt lat="45.93377" lon="4.75049">
        <ele>169.6</ele>
        <time>2025-09-11T15:23:02Z</time>
      </trkpt>
      <trkpt lat="45.93376" lon="4.75056">
        <ele>169.6</ele>
        <time>2025-09-11T15:23:03Z</time>
      </trkpt>
      <trkpt lat="45.93376" lon="4.75064">
        <ele>169.6</ele>
        <time>2025-09-11T15:23:04Z</time>
      </trkpt>
      <trkpt lat="45.93375" lon="4.75071">
        <ele>169.6</ele>
        <time>2025-09-11T15:23:05Z</time>
      </trkpt>
      <trkpt lat="45.93374" lon="4.75079">
        <ele>169.6</ele>
        <time>2025-09-11T15:23:06Z</time>
      </trkpt>
      <trkpt lat="45.93373" lon="4.75086">
        <ele>169.6</ele>
        <time>2025-09-11T15:23:07Z</time>
      </trkpt>
      <trkpt lat="45.93372" lon="4.75093">
        <ele>169.4</ele>
        <time>2025-09-11T15:23:08Z</time>
      </trkpt>
      <trkpt lat="45.93372" lon="4.75101">
        <ele>169.4</ele>
        <time>2025-09-11T15:23:09Z</time>
      </trkpt>
      <trkpt lat="45.93371" lon="4.75109">
        <ele>169.4</ele>
        <time>2025-09-11T15:23:10Z</time>
      </trkpt>
      <trkpt lat="45.9337" lon="4.75117">
        <ele>169.4</ele>
        <time>2025-09-11T15:23:11Z</time>
      </trkpt>
      <trkpt lat="45.93369" lon="4.75125">
        <ele>169.4</ele>
        <time>2025-09-11T15:23:12Z</time>
      </trkpt>
      <trkpt lat="45.93369" lon="4.75133">
        <ele>169.4</ele>
        <time>2025-09-11T15:23:13Z</time>
      </trkpt>
      <trkpt lat="45.93368" lon="4.75141">
        <ele>169.4</ele>
        <time>2025-09-11T15:23:14Z</time>
      </trkpt>
      <trkpt lat="45.93367" lon="4.75148">
        <ele>169.4</ele>
        <time>2025-09-11T15:23:15Z</time>
      </trkpt>
      <trkpt lat="45.93366" lon="4.75156">
        <ele>169.4</ele>
        <time>2025-09-11T15:23:16Z</time>
      </trkpt>
      <trkpt lat="45.93366" lon="4.75164">
        <ele>169.4</ele>
        <time>2025-09-11T15:23:17Z</time>
      </trkpt>
      <trkpt lat="45.93365" lon="4.75171">
        <ele>169.4</ele>
        <time>2025-09-11T15:23:18Z</time>
      </trkpt>
      <trkpt lat="45.93364" lon="4.75179">
        <ele>169</ele>
        <time>2025-09-11T15:23:19Z</time>
      </trkpt>
      <trkpt lat="45.93364" lon="4.75187">
        <ele>169</ele>
        <time>2025-09-11T15:23:20Z</time>
      </trkpt>
      <trkpt lat="45.93363" lon="4.75195">
        <ele>169</ele>
        <time>2025-09-11T15:23:21Z</time>
      </trkpt>
      <trkpt lat="45.93362" lon="4.75203">
        <ele>169</ele>
        <time>2025-09-11T15:23:22Z</time>
      </trkpt>
      <trkpt lat="45.93361" lon="4.75211">
        <ele>169</ele>
        <time>2025-09-11T15:23:23Z</time>
      </trkpt>
      <trkpt lat="45.9336" lon="4.75219">
        <ele>169</ele>
        <time>2025-09-11T15:23:24Z</time>
      </trkpt>
      <trkpt lat="45.93359" lon="4.75227">
        <ele>169</ele>
        <time>2025-09-11T15:23:25Z</time>
      </trkpt>
      <trkpt lat="45.93357" lon="4.75235">
        <ele>168.8</ele>
        <time>2025-09-11T15:23:26Z</time>
      </trkpt>
      <trkpt lat="45.93356" lon="4.75243">
        <ele>168.8</ele>
        <time>2025-09-11T15:23:27Z</time>
      </trkpt>
      <trkpt lat="45.93353" lon="4.75251">
        <ele>168.8</ele>
        <time>2025-09-11T15:23:28Z</time>
      </trkpt>
      <trkpt lat="45.9335" lon="4.75257">
        <ele>168.8</ele>
        <time>2025-09-11T15:23:29Z</time>
      </trkpt>
      <trkpt lat="45.93348" lon="4.75264">
        <ele>168.8</ele>
        <time>2025-09-11T15:23:30Z</time>
      </trkpt>
      <trkpt lat="45.93345" lon="4.75271">
        <ele>168.6</ele>
        <time>2025-09-11T15:23:31Z</time>
      </trkpt>
      <trkpt lat="45.93342" lon="4.75278">
        <ele>168.6</ele>
        <time>2025-09-11T15:23:32Z</time>
      </trkpt>
      <trkpt lat="45.93339" lon="4.75285">
        <ele>168.6</ele>
        <time>2025-09-11T15:23:33Z</time>
      </trkpt>
      <trkpt lat="45.93337" lon="4.75292">
        <ele>168.6</ele>
        <time>2025-09-11T15:23:34Z</time>
      </trkpt>
      <trkpt lat="45.93334" lon="4.75299">
        <ele>168.6</ele>
        <time>2025-09-11T15:23:35Z</time>
      </trkpt>
      <trkpt lat="45.93332" lon="4.75306">
        <ele>168.6</ele>
        <time>2025-09-11T15:23:36Z</time>
      </trkpt>
      <trkpt lat="45.9333" lon="4.75313">
        <ele>168.8</ele>
        <time>2025-09-11T15:23:37Z</time>
      </trkpt>
      <trkpt lat="45.93327" lon="4.7532">
        <ele>168.8</ele>
        <time>2025-09-11T15:23:38Z</time>
      </trkpt>
      <trkpt lat="45.93325" lon="4.75327">
        <ele>169</ele>
        <time>2025-09-11T15:23:39Z</time>
      </trkpt>
      <trkpt lat="45.93323" lon="4.75334">
        <ele>168.8</ele>
        <time>2025-09-11T15:23:40Z</time>
      </trkpt>
      <trkpt lat="45.9332" lon="4.75341">
        <ele>168.8</ele>
        <time>2025-09-11T15:23:41Z</time>
      </trkpt>
      <trkpt lat="45.93318" lon="4.75348">
        <ele>168.8</ele>
        <time>2025-09-11T15:23:42Z</time>
      </trkpt>
      <trkpt lat="45.93315" lon="4.75353">
        <ele>168.6</ele>
        <time>2025-09-11T15:23:43Z</time>
      </trkpt>
      <trkpt lat="45.93313" lon="4.75359">
        <ele>168.6</ele>
        <time>2025-09-11T15:23:44Z</time>
      </trkpt>
      <trkpt lat="45.9331" lon="4.75366">
        <ele>168.6</ele>
        <time>2025-09-11T15:23:45Z</time>
      </trkpt>
      <trkpt lat="45.93307" lon="4.75373">
        <ele>168.6</ele>
        <time>2025-09-11T15:23:46Z</time>
      </trkpt>
      <trkpt lat="45.93305" lon="4.7538">
        <ele>168.8</ele>
        <time>2025-09-11T15:23:47Z</time>
      </trkpt>
      <trkpt lat="45.93302" lon="4.75386">
        <ele>168.8</ele>
        <time>2025-09-11T15:23:48Z</time>
      </trkpt>
      <trkpt lat="45.93299" lon="4.75392">
        <ele>168.8</ele>
        <time>2025-09-11T15:23:49Z</time>
      </trkpt>
      <trkpt lat="45.93298" lon="4.75398">
        <ele>168.8</ele>
        <time>2025-09-11T15:23:50Z</time>
      </trkpt>
      <trkpt lat="45.93294" lon="4.75405">
        <ele>168.6</ele>
        <time>2025-09-11T15:23:51Z</time>
      </trkpt>
      <trkpt lat="45.9329" lon="4.75413">
        <ele>168.6</ele>
        <time>2025-09-11T15:23:52Z</time>
      </trkpt>
      <trkpt lat="45.93288" lon="4.75419">
        <ele>168.4</ele>
        <time>2025-09-11T15:23:53Z</time>
      </trkpt>
      <trkpt lat="45.93284" lon="4.75426">
        <ele>168.4</ele>
        <time>2025-09-11T15:23:54Z</time>
      </trkpt>
      <trkpt lat="45.93282" lon="4.75434">
        <ele>168.4</ele>
        <time>2025-09-11T15:23:55Z</time>
      </trkpt>
      <trkpt lat="45.93279" lon="4.75441">
        <ele>168.4</ele>
        <time>2025-09-11T15:23:56Z</time>
      </trkpt>
      <trkpt lat="45.93275" lon="4.75448">
        <ele>168.4</ele>
        <time>2025-09-11T15:23:57Z</time>
      </trkpt>
      <trkpt lat="45.93273" lon="4.75455">
        <ele>168.4</ele>
        <time>2025-09-11T15:23:58Z</time>
      </trkpt>
      <trkpt lat="45.93271" lon="4.75462">
        <ele>168.4</ele>
        <time>2025-09-11T15:23:59Z</time>
      </trkpt>
      <trkpt lat="45.93269" lon="4.7547">
        <ele>168.4</ele>
        <time>2025-09-11T15:24:00Z</time>
      </trkpt>
      <trkpt lat="45.93267" lon="4.75476">
        <ele>168.4</ele>
        <time>2025-09-11T15:24:01Z</time>
      </trkpt>
      <trkpt lat="45.93264" lon="4.75483">
        <ele>168.4</ele>
        <time>2025-09-11T15:24:02Z</time>
      </trkpt>
      <trkpt lat="45.93263" lon="4.75491">
        <ele>168.6</ele>
        <time>2025-09-11T15:24:03Z</time>
      </trkpt>
      <trkpt lat="45.93261" lon="4.75498">
        <ele>168.6</ele>
        <time>2025-09-11T15:24:04Z</time>
      </trkpt>
      <trkpt lat="45.9326" lon="4.75504">
        <ele>168.6</ele>
        <time>2025-09-11T15:24:05Z</time>
      </trkpt>
      <trkpt lat="45.9326" lon="4.75511">
        <ele>169</ele>
        <time>2025-09-11T15:24:06Z</time>
      </trkpt>
      <trkpt lat="45.93259" lon="4.75519">
        <ele>169</ele>
        <time>2025-09-11T15:24:07Z</time>
      </trkpt>
      <trkpt lat="45.93258" lon="4.75525">
        <ele>169</ele>
        <time>2025-09-11T15:24:08Z</time>
      </trkpt>
      <trkpt lat="45.93257" lon="4.75533">
        <ele>169</ele>
        <time>2025-09-11T15:24:09Z</time>
      </trkpt>
      <trkpt lat="45.93257" lon="4.75541">
        <ele>169</ele>
        <time>2025-09-11T15:24:10Z</time>
      </trkpt>
      <trkpt lat="45.93256" lon="4.75548">
        <ele>169</ele>
        <time>2025-09-11T15:24:11Z</time>
      </trkpt>
      <trkpt lat="45.93255" lon="4.75556">
        <ele>169</ele>
        <time>2025-09-11T15:24:12Z</time>
      </trkpt>
      <trkpt lat="45.93254" lon="4.75564">
        <ele>169</ele>
        <time>2025-09-11T15:24:13Z</time>
      </trkpt>
      <trkpt lat="45.93254" lon="4.75572">
        <ele>169</ele>
        <time>2025-09-11T15:24:14Z</time>
      </trkpt>
      <trkpt lat="45.93253" lon="4.7558">
        <ele>169</ele>
        <time>2025-09-11T15:24:15Z</time>
      </trkpt>
      <trkpt lat="45.93252" lon="4.75589">
        <ele>168.6</ele>
        <time>2025-09-11T15:24:16Z</time>
      </trkpt>
      <trkpt lat="45.93252" lon="4.75597">
        <ele>168.6</ele>
        <time>2025-09-11T15:24:17Z</time>
      </trkpt>
      <trkpt lat="45.93251" lon="4.75605">
        <ele>168.6</ele>
        <time>2025-09-11T15:24:18Z</time>
      </trkpt>
      <trkpt lat="45.9325" lon="4.75621">
        <ele>168.6</ele>
        <time>2025-09-11T15:24:19Z</time>
      </trkpt>
      <trkpt lat="45.9325" lon="4.75629">
        <ele>168.6</ele>
        <time>2025-09-11T15:24:20Z</time>
      </trkpt>
      <trkpt lat="45.93251" lon="4.75637">
        <ele>168.6</ele>
        <time>2025-09-11T15:24:21Z</time>
      </trkpt>
      <trkpt lat="45.93251" lon="4.75644">
        <ele>168.6</ele>
        <time>2025-09-11T15:24:22Z</time>
      </trkpt>
      <trkpt lat="45.93251" lon="4.75652">
        <ele>168.6</ele>
        <time>2025-09-11T15:24:23Z</time>
      </trkpt>
      <trkpt lat="45.93251" lon="4.7566">
        <ele>168.4</ele>
        <time>2025-09-11T15:24:24Z</time>
      </trkpt>
      <trkpt lat="45.93252" lon="4.75668">
        <ele>168.4</ele>
        <time>2025-09-11T15:24:25Z</time>
      </trkpt>
      <trkpt lat="45.93252" lon="4.75668">
        <ele>168.6</ele>
        <time>2025-09-11T15:24:26Z</time>
      </trkpt>
      <trkpt lat="45.93252" lon="4.75676">
        <ele>168.6</ele>
        <time>2025-09-11T15:24:27Z</time>
      </trkpt>
      <trkpt lat="45.93253" lon="4.75683">
        <ele>168.6</ele>
        <time>2025-09-11T15:24:28Z</time>
      </trkpt>
      <trkpt lat="45.93253" lon="4.7569">
        <ele>168.6</ele>
        <time>2025-09-11T15:24:29Z</time>
      </trkpt>
      <trkpt lat="45.93254" lon="4.75697">
        <ele>168.6</ele>
        <time>2025-09-11T15:24:30Z</time>
      </trkpt>
      <trkpt lat="45.93255" lon="4.75706">
        <ele>168.6</ele>
        <time>2025-09-11T15:24:31Z</time>
      </trkpt>
      <trkpt lat="45.93255" lon="4.75714">
        <ele>168.6</ele>
        <time>2025-09-11T15:24:32Z</time>
      </trkpt>
      <trkpt lat="45.93256" lon="4.75722">
        <ele>168.8</ele>
        <time>2025-09-11T15:24:33Z</time>
      </trkpt>
      <trkpt lat="45.93256" lon="4.7573">
        <ele>168.8</ele>
        <time>2025-09-11T15:24:34Z</time>
      </trkpt>
      <trkpt lat="45.93257" lon="4.75739">
        <ele>168.8</ele>
        <time>2025-09-11T15:24:35Z</time>
      </trkpt>
      <trkpt lat="45.93257" lon="4.75747">
        <ele>168.8</ele>
        <time>2025-09-11T15:24:36Z</time>
      </trkpt>
      <trkpt lat="45.93257" lon="4.75754">
        <ele>168.8</ele>
        <time>2025-09-11T15:24:37Z</time>
      </trkpt>
      <trkpt lat="45.93257" lon="4.75762">
        <ele>168.8</ele>
        <time>2025-09-11T15:24:38Z</time>
      </trkpt>
      <trkpt lat="45.93257" lon="4.7577">
        <ele>168.8</ele>
        <time>2025-09-11T15:24:39Z</time>
      </trkpt>
      <trkpt lat="45.93256" lon="4.75777">
        <ele>169</ele>
        <time>2025-09-11T15:24:40Z</time>
      </trkpt>
      <trkpt lat="45.93256" lon="4.75786">
        <ele>169</ele>
        <time>2025-09-11T15:24:41Z</time>
      </trkpt>
      <trkpt lat="45.93256" lon="4.75793">
        <ele>169</ele>
        <time>2025-09-11T15:24:42Z</time>
      </trkpt>
      <trkpt lat="45.93256" lon="4.75801">
        <ele>169</ele>
        <time>2025-09-11T15:24:43Z</time>
      </trkpt>
      <trkpt lat="45.93255" lon="4.75807">
        <ele>169</ele>
        <time>2025-09-11T15:24:44Z</time>
      </trkpt>
      <trkpt lat="45.93255" lon="4.75815">
        <ele>169.2</ele>
        <time>2025-09-11T15:24:45Z</time>
      </trkpt>
      <trkpt lat="45.93255" lon="4.75822">
        <ele>169.2</ele>
        <time>2025-09-11T15:24:46Z</time>
      </trkpt>
      <trkpt lat="45.93255" lon="4.7583">
        <ele>169.2</ele>
        <time>2025-09-11T15:24:47Z</time>
      </trkpt>
      <trkpt lat="45.93255" lon="4.75838">
        <ele>169.2</ele>
        <time>2025-09-11T15:24:48Z</time>
      </trkpt>
      <trkpt lat="45.93256" lon="4.75845">
        <ele>169.2</ele>
        <time>2025-09-11T15:24:49Z</time>
      </trkpt>
      <trkpt lat="45.93256" lon="4.75854">
        <ele>169.2</ele>
        <time>2025-09-11T15:24:50Z</time>
      </trkpt>
      <trkpt lat="45.93256" lon="4.75861">
        <ele>169</ele>
        <time>2025-09-11T15:24:51Z</time>
      </trkpt>
      <trkpt lat="45.93256" lon="4.75869">
        <ele>169</ele>
        <time>2025-09-11T15:24:52Z</time>
      </trkpt>
      <trkpt lat="45.93256" lon="4.75876">
        <ele>169</ele>
        <time>2025-09-11T15:24:53Z</time>
      </trkpt>
      <trkpt lat="45.93257" lon="4.75883">
        <ele>169</ele>
        <time>2025-09-11T15:24:54Z</time>
      </trkpt>
      <trkpt lat="45.93258" lon="4.75891">
        <ele>169</ele>
        <time>2025-09-11T15:24:55Z</time>
      </trkpt>
      <trkpt lat="45.93258" lon="4.75899">
        <ele>169</ele>
        <time>2025-09-11T15:24:56Z</time>
      </trkpt>
      <trkpt lat="45.93259" lon="4.75906">
        <ele>169</ele>
        <time>2025-09-11T15:24:57Z</time>
      </trkpt>
      <trkpt lat="45.93259" lon="4.75914">
        <ele>169</ele>
        <time>2025-09-11T15:24:58Z</time>
      </trkpt>
      <trkpt lat="45.93259" lon="4.75922">
        <ele>169</ele>
        <time>2025-09-11T15:24:59Z</time>
      </trkpt>
      <trkpt lat="45.93258" lon="4.75929">
        <ele>169</ele>
        <time>2025-09-11T15:25:00Z</time>
      </trkpt>
      <trkpt lat="45.93258" lon="4.75936">
        <ele>169</ele>
        <time>2025-09-11T15:25:01Z</time>
      </trkpt>
      <trkpt lat="45.9326" lon="4.75943">
        <ele>169</ele>
        <time>2025-09-11T15:25:02Z</time>
      </trkpt>
      <trkpt lat="45.93258" lon="4.7595">
        <ele>169</ele>
        <time>2025-09-11T15:25:03Z</time>
      </trkpt>
      <trkpt lat="45.93258" lon="4.75959">
        <ele>169</ele>
        <time>2025-09-11T15:25:04Z</time>
      </trkpt>
      <trkpt lat="45.93259" lon="4.75967">
        <ele>169</ele>
        <time>2025-09-11T15:25:05Z</time>
      </trkpt>
      <trkpt lat="45.93259" lon="4.75975">
        <ele>169</ele>
        <time>2025-09-11T15:25:06Z</time>
      </trkpt>
      <trkpt lat="45.93259" lon="4.75983">
        <ele>169</ele>
        <time>2025-09-11T15:25:07Z</time>
      </trkpt>
      <trkpt lat="45.93259" lon="4.75991">
        <ele>169</ele>
        <time>2025-09-11T15:25:08Z</time>
      </trkpt>
      <trkpt lat="45.93259" lon="4.75998">
        <ele>169</ele>
        <time>2025-09-11T15:25:09Z</time>
      </trkpt>
      <trkpt lat="45.9326" lon="4.76006">
        <ele>169</ele>
        <time>2025-09-11T15:25:10Z</time>
      </trkpt>
      <trkpt lat="45.93259" lon="4.76015">
        <ele>169</ele>
        <time>2025-09-11T15:25:11Z</time>
      </trkpt>
      <trkpt lat="45.93259" lon="4.76023">
        <ele>169</ele>
        <time>2025-09-11T15:25:12Z</time>
      </trkpt>
      <trkpt lat="45.93258" lon="4.7603">
        <ele>169</ele>
        <time>2025-09-11T15:25:13Z</time>
      </trkpt>
      <trkpt lat="45.93256" lon="4.76037">
        <ele>169</ele>
        <time>2025-09-11T15:25:14Z</time>
      </trkpt>
      <trkpt lat="45.93255" lon="4.76045">
        <ele>169</ele>
        <time>2025-09-11T15:25:15Z</time>
      </trkpt>
      <trkpt lat="45.93255" lon="4.76053">
        <ele>169.2</ele>
        <time>2025-09-11T15:25:16Z</time>
      </trkpt>
      <trkpt lat="45.93255" lon="4.7606">
        <ele>169.2</ele>
        <time>2025-09-11T15:25:17Z</time>
      </trkpt>
      <trkpt lat="45.93256" lon="4.76068">
        <ele>169.2</ele>
        <time>2025-09-11T15:25:18Z</time>
      </trkpt>
      <trkpt lat="45.93255" lon="4.76076">
        <ele>169.2</ele>
        <time>2025-09-11T15:25:19Z</time>
      </trkpt>
      <trkpt lat="45.93254" lon="4.76083">
        <ele>169.2</ele>
        <time>2025-09-11T15:25:20Z</time>
      </trkpt>
      <trkpt lat="45.93253" lon="4.76091">
        <ele>169.2</ele>
        <time>2025-09-11T15:25:21Z</time>
      </trkpt>
      <trkpt lat="45.93253" lon="4.76099">
        <ele>169.2</ele>
        <time>2025-09-11T15:25:22Z</time>
      </trkpt>
      <trkpt lat="45.93251" lon="4.76106">
        <ele>169</ele>
        <time>2025-09-11T15:25:23Z</time>
      </trkpt>
      <trkpt lat="45.93251" lon="4.76114">
        <ele>169</ele>
        <time>2025-09-11T15:25:24Z</time>
      </trkpt>
      <trkpt lat="45.9325" lon="4.76121">
        <ele>169.2</ele>
        <time>2025-09-11T15:25:25Z</time>
      </trkpt>
      <trkpt lat="45.93249" lon="4.76128">
        <ele>169.2</ele>
        <time>2025-09-11T15:25:26Z</time>
      </trkpt>
      <trkpt lat="45.93249" lon="4.76137">
        <ele>169.2</ele>
        <time>2025-09-11T15:25:27Z</time>
      </trkpt>
      <trkpt lat="45.93248" lon="4.76144">
        <ele>169.2</ele>
        <time>2025-09-11T15:25:28Z</time>
      </trkpt>
      <trkpt lat="45.93248" lon="4.76153">
        <ele>169.2</ele>
        <time>2025-09-11T15:25:29Z</time>
      </trkpt>
      <trkpt lat="45.93247" lon="4.76161">
        <ele>169.2</ele>
        <time>2025-09-11T15:25:30Z</time>
      </trkpt>
      <trkpt lat="45.93246" lon="4.76169">
        <ele>169.2</ele>
        <time>2025-09-11T15:25:31Z</time>
      </trkpt>
      <trkpt lat="45.93245" lon="4.76178">
        <ele>169</ele>
        <time>2025-09-11T15:25:32Z</time>
      </trkpt>
      <trkpt lat="45.93244" lon="4.76186">
        <ele>169</ele>
        <time>2025-09-11T15:25:33Z</time>
      </trkpt>
      <trkpt lat="45.93245" lon="4.76194">
        <ele>169</ele>
        <time>2025-09-11T15:25:34Z</time>
      </trkpt>
      <trkpt lat="45.93245" lon="4.76202">
        <ele>169.2</ele>
        <time>2025-09-11T15:25:35Z</time>
      </trkpt>
      <trkpt lat="45.93245" lon="4.7621">
        <ele>169.2</ele>
        <time>2025-09-11T15:25:36Z</time>
      </trkpt>
      <trkpt lat="45.93244" lon="4.76218">
        <ele>169.2</ele>
        <time>2025-09-11T15:25:37Z</time>
      </trkpt>
      <trkpt lat="45.93243" lon="4.76227">
        <ele>169.2</ele>
        <time>2025-09-11T15:25:38Z</time>
      </trkpt>
      <trkpt lat="45.93242" lon="4.76235">
        <ele>169.2</ele>
        <time>2025-09-11T15:25:39Z</time>
      </trkpt>
      <trkpt lat="45.93241" lon="4.76242">
        <ele>169.2</ele>
        <time>2025-09-11T15:25:40Z</time>
      </trkpt>
      <trkpt lat="45.9324" lon="4.7625">
        <ele>169</ele>
        <time>2025-09-11T15:25:41Z</time>
      </trkpt>
      <trkpt lat="45.93239" lon="4.76257">
        <ele>169</ele>
        <time>2025-09-11T15:25:42Z</time>
      </trkpt>
      <trkpt lat="45.93238" lon="4.76264">
        <ele>169</ele>
        <time>2025-09-11T15:25:43Z</time>
      </trkpt>
      <trkpt lat="45.93236" lon="4.7627">
        <ele>169.2</ele>
        <time>2025-09-11T15:25:44Z</time>
      </trkpt>
      <trkpt lat="45.93235" lon="4.76276">
        <ele>169.2</ele>
        <time>2025-09-11T15:25:45Z</time>
      </trkpt>
      <trkpt lat="45.93234" lon="4.76282">
        <ele>169.2</ele>
        <time>2025-09-11T15:25:46Z</time>
      </trkpt>
      <trkpt lat="45.93236" lon="4.76286">
        <ele>169.2</ele>
        <time>2025-09-11T15:25:47Z</time>
      </trkpt>
      <trkpt lat="45.93239" lon="4.76289">
        <ele>169.2</ele>
        <time>2025-09-11T15:25:48Z</time>
      </trkpt>
      <trkpt lat="45.93243" lon="4.76289">
        <ele>169.2</ele>
        <time>2025-09-11T15:25:49Z</time>
      </trkpt>
      <trkpt lat="45.93246" lon="4.76291">
        <ele>169</ele>
        <time>2025-09-11T15:25:50Z</time>
      </trkpt>
      <trkpt lat="45.93248" lon="4.76288">
        <ele>169</ele>
        <time>2025-09-11T15:25:51Z</time>
      </trkpt>
      <trkpt lat="45.93253" lon="4.76288">
        <ele>168.4</ele>
        <time>2025-09-11T15:25:52Z</time>
      </trkpt>
      <trkpt lat="45.93256" lon="4.76286">
        <ele>168.4</ele>
        <time>2025-09-11T15:25:53Z</time>
      </trkpt>
      <trkpt lat="45.9326" lon="4.76285">
        <ele>168.2</ele>
        <time>2025-09-11T15:25:54Z</time>
      </trkpt>
      <trkpt lat="45.93264" lon="4.76284">
        <ele>168.4</ele>
        <time>2025-09-11T15:25:55Z</time>
      </trkpt>
      <trkpt lat="45.93268" lon="4.76286">
        <ele>168.4</ele>
        <time>2025-09-11T15:25:56Z</time>
      </trkpt>
      <trkpt lat="45.93272" lon="4.76286">
        <ele>168.4</ele>
        <time>2025-09-11T15:25:57Z</time>
      </trkpt>
      <trkpt lat="45.93276" lon="4.76286">
        <ele>168.4</ele>
        <time>2025-09-11T15:25:58Z</time>
      </trkpt>
      <trkpt lat="45.9328" lon="4.76287">
        <ele>168.4</ele>
        <time>2025-09-11T15:25:59Z</time>
      </trkpt>
      <trkpt lat="45.93284" lon="4.76288">
        <ele>168.4</ele>
        <time>2025-09-11T15:26:00Z</time>
      </trkpt>
      <trkpt lat="45.93289" lon="4.76289">
        <ele>168.2</ele>
        <time>2025-09-11T15:26:01Z</time>
      </trkpt>
      <trkpt lat="45.93292" lon="4.7629">
        <ele>168.4</ele>
        <time>2025-09-11T15:26:02Z</time>
      </trkpt>
      <trkpt lat="45.93296" lon="4.76291">
        <ele>168.4</ele>
        <time>2025-09-11T15:26:03Z</time>
      </trkpt>
      <trkpt lat="45.933" lon="4.7629">
        <ele>168.4</ele>
        <time>2025-09-11T15:26:04Z</time>
      </trkpt>
      <trkpt lat="45.93304" lon="4.76292">
        <ele>168.4</ele>
        <time>2025-09-11T15:26:05Z</time>
      </trkpt>
      <trkpt lat="45.93308" lon="4.76292">
        <ele>168.4</ele>
        <time>2025-09-11T15:26:06Z</time>
      </trkpt>
      <trkpt lat="45.93312" lon="4.76295">
        <ele>168.4</ele>
        <time>2025-09-11T15:26:07Z</time>
      </trkpt>
      <trkpt lat="45.93317" lon="4.76297">
        <ele>168.2</ele>
        <time>2025-09-11T15:26:08Z</time>
      </trkpt>
      <trkpt lat="45.9332" lon="4.763">
        <ele>168.2</ele>
        <time>2025-09-11T15:26:09Z</time>
      </trkpt>
      <trkpt lat="45.93324" lon="4.76302">
        <ele>168</ele>
        <time>2025-09-11T15:26:10Z</time>
      </trkpt>
      <trkpt lat="45.93328" lon="4.76303">
        <ele>167.6</ele>
        <time>2025-09-11T15:26:11Z</time>
      </trkpt>
      <trkpt lat="45.93332" lon="4.76307">
        <ele>167.6</ele>
        <time>2025-09-11T15:26:12Z</time>
      </trkpt>
      <trkpt lat="45.93335" lon="4.7631">
        <ele>168</ele>
        <time>2025-09-11T15:26:13Z</time>
      </trkpt>
      <trkpt lat="45.93339" lon="4.76311">
        <ele>168</ele>
        <time>2025-09-11T15:26:14Z</time>
      </trkpt>
      <trkpt lat="45.93341" lon="4.76315">
        <ele>168.4</ele>
        <time>2025-09-11T15:26:15Z</time>
      </trkpt>
      <trkpt lat="45.93345" lon="4.76318">
        <ele>168.4</ele>
        <time>2025-09-11T15:26:16Z</time>
      </trkpt>
      <trkpt lat="45.93347" lon="4.76323">
        <ele>168.4</ele>
        <time>2025-09-11T15:26:17Z</time>
      </trkpt>
      <trkpt lat="45.93348" lon="4.76328">
        <ele>168.8</ele>
        <time>2025-09-11T15:26:18Z</time>
      </trkpt>
      <trkpt lat="45.9335" lon="4.76333">
        <ele>168.8</ele>
        <time>2025-09-11T15:26:19Z</time>
      </trkpt>
      <trkpt lat="45.93353" lon="4.76339">
        <ele>168.8</ele>
        <time>2025-09-11T15:26:20Z</time>
      </trkpt>
      <trkpt lat="45.93356" lon="4.76345">
        <ele>168.8</ele>
        <time>2025-09-11T15:26:21Z</time>
      </trkpt>
      <trkpt lat="45.93358" lon="4.7635">
        <ele>168.8</ele>
        <time>2025-09-11T15:26:22Z</time>
      </trkpt>
      <trkpt lat="45.9336" lon="4.76357">
        <ele>168.8</ele>
        <time>2025-09-11T15:26:23Z</time>
      </trkpt>
      <trkpt lat="45.93364" lon="4.76363">
        <ele>168.4</ele>
        <time>2025-09-11T15:26:24Z</time>
      </trkpt>
      <trkpt lat="45.93368" lon="4.76369">
        <ele>169</ele>
        <time>2025-09-11T15:26:25Z</time>
      </trkpt>
      <trkpt lat="45.93371" lon="4.76373">
        <ele>168.8</ele>
        <time>2025-09-11T15:26:26Z</time>
      </trkpt>
      <trkpt lat="45.93374" lon="4.76379">
        <ele>168.8</ele>
        <time>2025-09-11T15:26:27Z</time>
      </trkpt>
      <trkpt lat="45.93376" lon="4.76385">
        <ele>168.4</ele>
        <time>2025-09-11T15:26:28Z</time>
      </trkpt>
      <trkpt lat="45.93379" lon="4.7639">
        <ele>169</ele>
        <time>2025-09-11T15:26:29Z</time>
      </trkpt>
      <trkpt lat="45.93385" lon="4.76395">
        <ele>169.6</ele>
        <time>2025-09-11T15:26:30Z</time>
      </trkpt>
      <trkpt lat="45.93388" lon="4.76399">
        <ele>169.2</ele>
        <time>2025-09-11T15:26:31Z</time>
      </trkpt>
      <trkpt lat="45.93392" lon="4.76404">
        <ele>168.8</ele>
        <time>2025-09-11T15:26:32Z</time>
      </trkpt>
      <trkpt lat="45.93395" lon="4.76408">
        <ele>168.6</ele>
        <time>2025-09-11T15:26:33Z</time>
      </trkpt>
      <trkpt lat="45.93401" lon="4.76415">
        <ele>168.4</ele>
        <time>2025-09-11T15:26:34Z</time>
      </trkpt>
      <trkpt lat="45.93405" lon="4.7642">
        <ele>168.4</ele>
        <time>2025-09-11T15:26:35Z</time>
      </trkpt>
      <trkpt lat="45.93407" lon="4.76425">
        <ele>168.4</ele>
        <time>2025-09-11T15:26:36Z</time>
      </trkpt>
      <trkpt lat="45.93411" lon="4.7643">
        <ele>168.4</ele>
        <time>2025-09-11T15:26:37Z</time>
      </trkpt>
      <trkpt lat="45.93414" lon="4.76435">
        <ele>168</ele>
        <time>2025-09-11T15:26:38Z</time>
      </trkpt>
      <trkpt lat="45.93417" lon="4.7644">
        <ele>168</ele>
        <time>2025-09-11T15:26:39Z</time>
      </trkpt>
      <trkpt lat="45.93421" lon="4.76446">
        <ele>168</ele>
        <time>2025-09-11T15:26:40Z</time>
      </trkpt>
      <trkpt lat="45.93425" lon="4.76451">
        <ele>168</ele>
        <time>2025-09-11T15:26:41Z</time>
      </trkpt>
      <trkpt lat="45.93427" lon="4.76455">
        <ele>168</ele>
        <time>2025-09-11T15:26:42Z</time>
      </trkpt>
      <trkpt lat="45.93432" lon="4.76461">
        <ele>168</ele>
        <time>2025-09-11T15:26:43Z</time>
      </trkpt>
      <trkpt lat="45.93436" lon="4.76465">
        <ele>168</ele>
        <time>2025-09-11T15:26:44Z</time>
      </trkpt>
      <trkpt lat="45.93439" lon="4.7647">
        <ele>168</ele>
        <time>2025-09-11T15:26:45Z</time>
      </trkpt>
      <trkpt lat="45.93442" lon="4.76475">
        <ele>168</ele>
        <time>2025-09-11T15:26:46Z</time>
      </trkpt>
      <trkpt lat="45.93445" lon="4.76479">
        <ele>168.4</ele>
        <time>2025-09-11T15:26:47Z</time>
      </trkpt>
      <trkpt lat="45.93447" lon="4.76484">
        <ele>168.6</ele>
        <time>2025-09-11T15:26:48Z</time>
      </trkpt>
      <trkpt lat="45.9345" lon="4.76488">
        <ele>168.6</ele>
        <time>2025-09-11T15:26:49Z</time>
      </trkpt>
      <trkpt lat="45.93453" lon="4.76492">
        <ele>168.6</ele>
        <time>2025-09-11T15:26:50Z</time>
      </trkpt>
      <trkpt lat="45.93456" lon="4.76496">
        <ele>168.6</ele>
        <time>2025-09-11T15:26:51Z</time>
      </trkpt>
      <trkpt lat="45.9346" lon="4.76501">
        <ele>168.8</ele>
        <time>2025-09-11T15:26:52Z</time>
      </trkpt>
      <trkpt lat="45.93463" lon="4.76505">
        <ele>168.8</ele>
        <time>2025-09-11T15:26:53Z</time>
      </trkpt>
      <trkpt lat="45.93466" lon="4.76509">
        <ele>168.8</ele>
        <time>2025-09-11T15:26:54Z</time>
      </trkpt>
      <trkpt lat="45.93469" lon="4.76512">
        <ele>168.8</ele>
        <time>2025-09-11T15:26:55Z</time>
      </trkpt>
      <trkpt lat="45.93472" lon="4.76515">
        <ele>168.8</ele>
        <time>2025-09-11T15:26:56Z</time>
      </trkpt>
      <trkpt lat="45.93475" lon="4.76519">
        <ele>168.8</ele>
        <time>2025-09-11T15:26:57Z</time>
      </trkpt>
      <trkpt lat="45.93478" lon="4.76522">
        <ele>168.8</ele>
        <time>2025-09-11T15:26:58Z</time>
      </trkpt>
      <trkpt lat="45.93479" lon="4.76525">
        <ele>168.8</ele>
        <time>2025-09-11T15:26:59Z</time>
      </trkpt>
      <trkpt lat="45.9348" lon="4.76527">
        <ele>168.8</ele>
        <time>2025-09-11T15:27:00Z</time>
      </trkpt>
      <trkpt lat="45.93481" lon="4.76529">
        <ele>169.2</ele>
        <time>2025-09-11T15:27:01Z</time>
      </trkpt>
      <trkpt lat="45.93481" lon="4.76529">
        <ele>169.2</ele>
        <time>2025-09-11T15:27:02Z</time>
      </trkpt>
      <trkpt lat="45.93482" lon="4.76531">
        <ele>169.2</ele>
        <time>2025-09-11T15:27:03Z</time>
      </trkpt>
      <trkpt lat="45.93483" lon="4.76534">
        <ele>169.2</ele>
        <time>2025-09-11T15:27:04Z</time>
      </trkpt>
      <trkpt lat="45.93485" lon="4.76536">
        <ele>169.2</ele>
        <time>2025-09-11T15:27:05Z</time>
      </trkpt>
      <trkpt lat="45.93486" lon="4.7654">
        <ele>169.2</ele>
        <time>2025-09-11T15:27:06Z</time>
      </trkpt>
      <trkpt lat="45.93488" lon="4.76543">
        <ele>169.4</ele>
        <time>2025-09-11T15:27:07Z</time>
      </trkpt>
      <trkpt lat="45.93489" lon="4.76546">
        <ele>169.4</ele>
        <time>2025-09-11T15:27:08Z</time>
      </trkpt>
      <trkpt lat="45.9349" lon="4.76549">
        <ele>169.4</ele>
        <time>2025-09-11T15:27:09Z</time>
      </trkpt>
      <trkpt lat="45.93491" lon="4.76551">
        <ele>169.4</ele>
        <time>2025-09-11T15:27:10Z</time>
      </trkpt>
      <trkpt lat="45.93492" lon="4.76553">
        <ele>169.4</ele>
        <time>2025-09-11T15:27:11Z</time>
      </trkpt>
      <trkpt lat="45.93493" lon="4.76555">
        <ele>169.4</ele>
        <time>2025-09-11T15:27:12Z</time>
      </trkpt>
      <trkpt lat="45.93495" lon="4.76558">
        <ele>169.4</ele>
        <time>2025-09-11T15:27:13Z</time>
      </trkpt>
      <trkpt lat="45.93498" lon="4.76559">
        <ele>169</ele>
        <time>2025-09-11T15:27:14Z</time>
      </trkpt>
      <trkpt lat="45.93502" lon="4.76559">
        <ele>169</ele>
        <time>2025-09-11T15:27:15Z</time>
      </trkpt>
      <trkpt lat="45.93505" lon="4.76558">
        <ele>169</ele>
        <time>2025-09-11T15:27:16Z</time>
      </trkpt>
      <trkpt lat="45.93509" lon="4.76559">
        <ele>168.8</ele>
        <time>2025-09-11T15:27:17Z</time>
      </trkpt>
      <trkpt lat="45.93512" lon="4.76561">
        <ele>168.6</ele>
        <time>2025-09-11T15:27:18Z</time>
      </trkpt>
      <trkpt lat="45.93515" lon="4.76565">
        <ele>168.6</ele>
        <time>2025-09-11T15:27:19Z</time>
      </trkpt>
      <trkpt lat="45.93517" lon="4.76569">
        <ele>168.6</ele>
        <time>2025-09-11T15:27:20Z</time>
      </trkpt>
      <trkpt lat="45.93519" lon="4.76573">
        <ele>168.6</ele>
        <time>2025-09-11T15:27:21Z</time>
      </trkpt>
      <trkpt lat="45.93522" lon="4.76577">
        <ele>168.8</ele>
        <time>2025-09-11T15:27:22Z</time>
      </trkpt>
      <trkpt lat="45.93526" lon="4.7658">
        <ele>168.8</ele>
        <time>2025-09-11T15:27:23Z</time>
      </trkpt>
      <trkpt lat="45.93529" lon="4.76584">
        <ele>168.8</ele>
        <time>2025-09-11T15:27:24Z</time>
      </trkpt>
      <trkpt lat="45.93533" lon="4.76591">
        <ele>168.8</ele>
        <time>2025-09-11T15:27:25Z</time>
      </trkpt>
      <trkpt lat="45.93535" lon="4.76595">
        <ele>168.8</ele>
        <time>2025-09-11T15:27:26Z</time>
      </trkpt>
      <trkpt lat="45.93538" lon="4.766">
        <ele>168.8</ele>
        <time>2025-09-11T15:27:27Z</time>
      </trkpt>
      <trkpt lat="45.93539" lon="4.76604">
        <ele>168.8</ele>
        <time>2025-09-11T15:27:28Z</time>
      </trkpt>
      <trkpt lat="45.93542" lon="4.76608">
        <ele>168.8</ele>
        <time>2025-09-11T15:27:29Z</time>
      </trkpt>
      <trkpt lat="45.93547" lon="4.76614">
        <ele>168.8</ele>
        <time>2025-09-11T15:27:30Z</time>
      </trkpt>
      <trkpt lat="45.9355" lon="4.76618">
        <ele>168.8</ele>
        <time>2025-09-11T15:27:31Z</time>
      </trkpt>
      <trkpt lat="45.93553" lon="4.76622">
        <ele>169</ele>
        <time>2025-09-11T15:27:32Z</time>
      </trkpt>
      <trkpt lat="45.93556" lon="4.76627">
        <ele>168.4</ele>
        <time>2025-09-11T15:27:33Z</time>
      </trkpt>
      <trkpt lat="45.93559" lon="4.76632">
        <ele>168.4</ele>
        <time>2025-09-11T15:27:34Z</time>
      </trkpt>
      <trkpt lat="45.93561" lon="4.76637">
        <ele>168.4</ele>
        <time>2025-09-11T15:27:35Z</time>
      </trkpt>
      <trkpt lat="45.93565" lon="4.76642">
        <ele>168.4</ele>
        <time>2025-09-11T15:27:36Z</time>
      </trkpt>
      <trkpt lat="45.93567" lon="4.76644">
        <ele>168.4</ele>
        <time>2025-09-11T15:27:37Z</time>
      </trkpt>
      <trkpt lat="45.93569" lon="4.76649">
        <ele>168.8</ele>
        <time>2025-09-11T15:27:38Z</time>
      </trkpt>
      <trkpt lat="45.93572" lon="4.76654">
        <ele>168.8</ele>
        <time>2025-09-11T15:27:39Z</time>
      </trkpt>
      <trkpt lat="45.93576" lon="4.76658">
        <ele>168.8</ele>
        <time>2025-09-11T15:27:40Z</time>
      </trkpt>
      <trkpt lat="45.93579" lon="4.76663">
        <ele>169</ele>
        <time>2025-09-11T15:27:41Z</time>
      </trkpt>
      <trkpt lat="45.93581" lon="4.76668">
        <ele>169</ele>
        <time>2025-09-11T15:27:42Z</time>
      </trkpt>
      <trkpt lat="45.93585" lon="4.76675">
        <ele>169</ele>
        <time>2025-09-11T15:27:43Z</time>
      </trkpt>
      <trkpt lat="45.93588" lon="4.7668">
        <ele>169</ele>
        <time>2025-09-11T15:27:44Z</time>
      </trkpt>
      <trkpt lat="45.93593" lon="4.76687">
        <ele>169</ele>
        <time>2025-09-11T15:27:45Z</time>
      </trkpt>
      <trkpt lat="45.93596" lon="4.76694">
        <ele>169</ele>
        <time>2025-09-11T15:27:46Z</time>
      </trkpt>
      <trkpt lat="45.93603" lon="4.76704">
        <ele>169.2</ele>
        <time>2025-09-11T15:27:47Z</time>
      </trkpt>
      <trkpt lat="45.93609" lon="4.76712">
        <ele>169.2</ele>
        <time>2025-09-11T15:27:48Z</time>
      </trkpt>
      <trkpt lat="45.93614" lon="4.76717">
        <ele>169.2</ele>
        <time>2025-09-11T15:27:49Z</time>
      </trkpt>
      <trkpt lat="45.93615" lon="4.7672">
        <ele>169</ele>
        <time>2025-09-11T15:27:50Z</time>
      </trkpt>
      <trkpt lat="45.93616" lon="4.76723">
        <ele>169</ele>
        <time>2025-09-11T15:27:51Z</time>
      </trkpt>
      <trkpt lat="45.93618" lon="4.76726">
        <ele>168.8</ele>
        <time>2025-09-11T15:27:52Z</time>
      </trkpt>
      <trkpt lat="45.9362" lon="4.7673">
        <ele>168.8</ele>
        <time>2025-09-11T15:27:53Z</time>
      </trkpt>
      <trkpt lat="45.93624" lon="4.76736">
        <ele>168.8</ele>
        <time>2025-09-11T15:27:54Z</time>
      </trkpt>
      <trkpt lat="45.93628" lon="4.76741">
        <ele>168.4</ele>
        <time>2025-09-11T15:27:55Z</time>
      </trkpt>
      <trkpt lat="45.93632" lon="4.76746">
        <ele>168.4</ele>
        <time>2025-09-11T15:27:56Z</time>
      </trkpt>
      <trkpt lat="45.93635" lon="4.76751">
        <ele>168.6</ele>
        <time>2025-09-11T15:27:57Z</time>
      </trkpt>
      <trkpt lat="45.93637" lon="4.76754">
        <ele>168.6</ele>
        <time>2025-09-11T15:27:58Z</time>
      </trkpt>
      <trkpt lat="45.93641" lon="4.7676">
        <ele>168.6</ele>
        <time>2025-09-11T15:27:59Z</time>
      </trkpt>
      <trkpt lat="45.93643" lon="4.76764">
        <ele>168.6</ele>
        <time>2025-09-11T15:28:00Z</time>
      </trkpt>
      <trkpt lat="45.93646" lon="4.76769">
        <ele>168.6</ele>
        <time>2025-09-11T15:28:01Z</time>
      </trkpt>
      <trkpt lat="45.9365" lon="4.76775">
        <ele>168.6</ele>
        <time>2025-09-11T15:28:02Z</time>
      </trkpt>
      <trkpt lat="45.93652" lon="4.76779">
        <ele>168.6</ele>
        <time>2025-09-11T15:28:03Z</time>
      </trkpt>
      <trkpt lat="45.93655" lon="4.76784">
        <ele>168.6</ele>
        <time>2025-09-11T15:28:04Z</time>
      </trkpt>
      <trkpt lat="45.93658" lon="4.76789">
        <ele>168.6</ele>
        <time>2025-09-11T15:28:05Z</time>
      </trkpt>
      <trkpt lat="45.93661" lon="4.76793">
        <ele>168.6</ele>
        <time>2025-09-11T15:28:06Z</time>
      </trkpt>
      <trkpt lat="45.93663" lon="4.76798">
        <ele>168.6</ele>
        <time>2025-09-11T15:28:07Z</time>
      </trkpt>
      <trkpt lat="45.93666" lon="4.76803">
        <ele>168.6</ele>
        <time>2025-09-11T15:28:08Z</time>
      </trkpt>
      <trkpt lat="45.93669" lon="4.76808">
        <ele>168.6</ele>
        <time>2025-09-11T15:28:09Z</time>
      </trkpt>
      <trkpt lat="45.93673" lon="4.76812">
        <ele>168.6</ele>
        <time>2025-09-11T15:28:10Z</time>
      </trkpt>
      <trkpt lat="45.93675" lon="4.76816">
        <ele>169</ele>
        <time>2025-09-11T15:28:11Z</time>
      </trkpt>
      <trkpt lat="45.93679" lon="4.76821">
        <ele>169</ele>
        <time>2025-09-11T15:28:12Z</time>
      </trkpt>
      <trkpt lat="45.93681" lon="4.76826">
        <ele>169</ele>
        <time>2025-09-11T15:28:13Z</time>
      </trkpt>
      <trkpt lat="45.93684" lon="4.76831">
        <ele>169</ele>
        <time>2025-09-11T15:28:14Z</time>
      </trkpt>
      <trkpt lat="45.93687" lon="4.76835">
        <ele>169</ele>
        <time>2025-09-11T15:28:15Z</time>
      </trkpt>
      <trkpt lat="45.93689" lon="4.7684">
        <ele>169</ele>
        <time>2025-09-11T15:28:16Z</time>
      </trkpt>
      <trkpt lat="45.93691" lon="4.76845">
        <ele>169</ele>
        <time>2025-09-11T15:28:17Z</time>
      </trkpt>
      <trkpt lat="45.93694" lon="4.76851">
        <ele>169</ele>
        <time>2025-09-11T15:28:18Z</time>
      </trkpt>
      <trkpt lat="45.93697" lon="4.76856">
        <ele>169</ele>
        <time>2025-09-11T15:28:19Z</time>
      </trkpt>
      <trkpt lat="45.937" lon="4.76862">
        <ele>169</ele>
        <time>2025-09-11T15:28:20Z</time>
      </trkpt>
      <trkpt lat="45.93702" lon="4.76863">
        <ele>169</ele>
        <time>2025-09-11T15:28:21Z</time>
      </trkpt>
      <trkpt lat="45.93704" lon="4.76867">
        <ele>169</ele>
        <time>2025-09-11T15:28:22Z</time>
      </trkpt>
      <trkpt lat="45.9371" lon="4.76875">
        <ele>169</ele>
        <time>2025-09-11T15:28:23Z</time>
      </trkpt>
      <trkpt lat="45.93712" lon="4.76879">
        <ele>169</ele>
        <time>2025-09-11T15:28:24Z</time>
      </trkpt>
      <trkpt lat="45.93715" lon="4.76884">
        <ele>169</ele>
        <time>2025-09-11T15:28:25Z</time>
      </trkpt>
      <trkpt lat="45.93718" lon="4.7689">
        <ele>169</ele>
        <time>2025-09-11T15:28:26Z</time>
      </trkpt>
      <trkpt lat="45.93721" lon="4.76895">
        <ele>169.2</ele>
        <time>2025-09-11T15:28:27Z</time>
      </trkpt>
      <trkpt lat="45.93721" lon="4.769">
        <ele>169.2</ele>
        <time>2025-09-11T15:28:28Z</time>
      </trkpt>
      <trkpt lat="45.93724" lon="4.76905">
        <ele>169.2</ele>
        <time>2025-09-11T15:28:29Z</time>
      </trkpt>
      <trkpt lat="45.93726" lon="4.7691">
        <ele>169.2</ele>
        <time>2025-09-11T15:28:30Z</time>
      </trkpt>
      <trkpt lat="45.93728" lon="4.76914">
        <ele>169.2</ele>
        <time>2025-09-11T15:28:31Z</time>
      </trkpt>
      <trkpt lat="45.9373" lon="4.76921">
        <ele>169.2</ele>
        <time>2025-09-11T15:28:32Z</time>
      </trkpt>
      <trkpt lat="45.93733" lon="4.76926">
        <ele>169.2</ele>
        <time>2025-09-11T15:28:33Z</time>
      </trkpt>
      <trkpt lat="45.93736" lon="4.76932">
        <ele>169.2</ele>
        <time>2025-09-11T15:28:34Z</time>
      </trkpt>
      <trkpt lat="45.93739" lon="4.76937">
        <ele>169</ele>
        <time>2025-09-11T15:28:35Z</time>
      </trkpt>
      <trkpt lat="45.93742" lon="4.76944">
        <ele>169</ele>
        <time>2025-09-11T15:28:36Z</time>
      </trkpt>
      <trkpt lat="45.93744" lon="4.76949">
        <ele>169</ele>
        <time>2025-09-11T15:28:37Z</time>
      </trkpt>
      <trkpt lat="45.93747" lon="4.76954">
        <ele>169</ele>
        <time>2025-09-11T15:28:38Z</time>
      </trkpt>
      <trkpt lat="45.9375" lon="4.7696">
        <ele>169.2</ele>
        <time>2025-09-11T15:28:39Z</time>
      </trkpt>
      <trkpt lat="45.93752" lon="4.76966">
        <ele>169.2</ele>
        <time>2025-09-11T15:28:40Z</time>
      </trkpt>
      <trkpt lat="45.93754" lon="4.76972">
        <ele>169.2</ele>
        <time>2025-09-11T15:28:41Z</time>
      </trkpt>
      <trkpt lat="45.93757" lon="4.76977">
        <ele>168.8</ele>
        <time>2025-09-11T15:28:42Z</time>
      </trkpt>
      <trkpt lat="45.9376" lon="4.76982">
        <ele>168.8</ele>
        <time>2025-09-11T15:28:43Z</time>
      </trkpt>
      <trkpt lat="45.93764" lon="4.76984">
        <ele>168.8</ele>
        <time>2025-09-11T15:28:44Z</time>
      </trkpt>
      <trkpt lat="45.93765" lon="4.76991">
        <ele>168.8</ele>
        <time>2025-09-11T15:28:45Z</time>
      </trkpt>
      <trkpt lat="45.93768" lon="4.76996">
        <ele>168.8</ele>
        <time>2025-09-11T15:28:46Z</time>
      </trkpt>
      <trkpt lat="45.93771" lon="4.77001">
        <ele>168.8</ele>
        <time>2025-09-11T15:28:47Z</time>
      </trkpt>
      <trkpt lat="45.93773" lon="4.77006">
        <ele>168.8</ele>
        <time>2025-09-11T15:28:48Z</time>
      </trkpt>
      <trkpt lat="45.93775" lon="4.77011">
        <ele>169.2</ele>
        <time>2025-09-11T15:28:49Z</time>
      </trkpt>
      <trkpt lat="45.93776" lon="4.77016">
        <ele>169.2</ele>
        <time>2025-09-11T15:28:50Z</time>
      </trkpt>
      <trkpt lat="45.93778" lon="4.77022">
        <ele>168.8</ele>
        <time>2025-09-11T15:28:51Z</time>
      </trkpt>
      <trkpt lat="45.93779" lon="4.77028">
        <ele>168.8</ele>
        <time>2025-09-11T15:28:52Z</time>
      </trkpt>
      <trkpt lat="45.93781" lon="4.77034">
        <ele>168.4</ele>
        <time>2025-09-11T15:28:53Z</time>
      </trkpt>
      <trkpt lat="45.93782" lon="4.7704">
        <ele>168.4</ele>
        <time>2025-09-11T15:28:54Z</time>
      </trkpt>
      <trkpt lat="45.93784" lon="4.77046">
        <ele>168.4</ele>
        <time>2025-09-11T15:28:55Z</time>
      </trkpt>
      <trkpt lat="45.93786" lon="4.77052">
        <ele>168.4</ele>
        <time>2025-09-11T15:28:56Z</time>
      </trkpt>
      <trkpt lat="45.93788" lon="4.77058">
        <ele>168.4</ele>
        <time>2025-09-11T15:28:57Z</time>
      </trkpt>
      <trkpt lat="45.9379" lon="4.77064">
        <ele>168.4</ele>
        <time>2025-09-11T15:28:58Z</time>
      </trkpt>
      <trkpt lat="45.9379" lon="4.77064">
        <ele>168.4</ele>
        <time>2025-09-11T15:28:59Z</time>
      </trkpt>
      <trkpt lat="45.93795" lon="4.77074">
        <ele>168.4</ele>
        <time>2025-09-11T15:29:00Z</time>
      </trkpt>
      <trkpt lat="45.93796" lon="4.77081">
        <ele>168.4</ele>
        <time>2025-09-11T15:29:01Z</time>
      </trkpt>
      <trkpt lat="45.938" lon="4.77087">
        <ele>168.4</ele>
        <time>2025-09-11T15:29:02Z</time>
      </trkpt>
      <trkpt lat="45.93802" lon="4.77092">
        <ele>168.8</ele>
        <time>2025-09-11T15:29:03Z</time>
      </trkpt>
      <trkpt lat="45.93803" lon="4.77099">
        <ele>169</ele>
        <time>2025-09-11T15:29:04Z</time>
      </trkpt>
      <trkpt lat="45.93804" lon="4.77105">
        <ele>169</ele>
        <time>2025-09-11T15:29:05Z</time>
      </trkpt>
      <trkpt lat="45.93805" lon="4.77109">
        <ele>169.4</ele>
        <time>2025-09-11T15:29:06Z</time>
      </trkpt>
      <trkpt lat="45.93804" lon="4.77113">
        <ele>169.4</ele>
        <time>2025-09-11T15:29:07Z</time>
      </trkpt>
      <trkpt lat="45.93805" lon="4.77118">
        <ele>169.8</ele>
        <time>2025-09-11T15:29:08Z</time>
      </trkpt>
      <trkpt lat="45.93805" lon="4.77123">
        <ele>169.8</ele>
        <time>2025-09-11T15:29:09Z</time>
      </trkpt>
      <trkpt lat="45.93806" lon="4.77128">
        <ele>170</ele>
        <time>2025-09-11T15:29:10Z</time>
      </trkpt>
      <trkpt lat="45.93807" lon="4.77134">
        <ele>170</ele>
        <time>2025-09-11T15:29:11Z</time>
      </trkpt>
      <trkpt lat="45.93808" lon="4.77138">
        <ele>170</ele>
        <time>2025-09-11T15:29:12Z</time>
      </trkpt>
      <trkpt lat="45.93809" lon="4.77143">
        <ele>170</ele>
        <time>2025-09-11T15:29:13Z</time>
      </trkpt>
      <trkpt lat="45.93809" lon="4.77148">
        <ele>170</ele>
        <time>2025-09-11T15:29:14Z</time>
      </trkpt>
      <trkpt lat="45.9381" lon="4.77153">
        <ele>170</ele>
        <time>2025-09-11T15:29:15Z</time>
      </trkpt>
      <trkpt lat="45.93811" lon="4.77158">
        <ele>170.4</ele>
        <time>2025-09-11T15:29:16Z</time>
      </trkpt>
      <trkpt lat="45.93811" lon="4.77163">
        <ele>170.2</ele>
        <time>2025-09-11T15:29:17Z</time>
      </trkpt>
      <trkpt lat="45.93812" lon="4.77169">
        <ele>170.2</ele>
        <time>2025-09-11T15:29:18Z</time>
      </trkpt>
      <trkpt lat="45.93811" lon="4.77174">
        <ele>170.4</ele>
        <time>2025-09-11T15:29:19Z</time>
      </trkpt>
      <trkpt lat="45.93811" lon="4.77179">
        <ele>170.4</ele>
        <time>2025-09-11T15:29:20Z</time>
      </trkpt>
      <trkpt lat="45.9381" lon="4.77184">
        <ele>170.6</ele>
        <time>2025-09-11T15:29:21Z</time>
      </trkpt>
      <trkpt lat="45.93809" lon="4.77189">
        <ele>170.6</ele>
        <time>2025-09-11T15:29:22Z</time>
      </trkpt>
      <trkpt lat="45.93808" lon="4.77194">
        <ele>170.6</ele>
        <time>2025-09-11T15:29:23Z</time>
      </trkpt>
      <trkpt lat="45.93808" lon="4.772">
        <ele>170.6</ele>
        <time>2025-09-11T15:29:24Z</time>
      </trkpt>
      <trkpt lat="45.93808" lon="4.77205">
        <ele>170.8</ele>
        <time>2025-09-11T15:29:25Z</time>
      </trkpt>
      <trkpt lat="45.9381" lon="4.77209">
        <ele>170.8</ele>
        <time>2025-09-11T15:29:26Z</time>
      </trkpt>
      <trkpt lat="45.93812" lon="4.77211">
        <ele>170.8</ele>
        <time>2025-09-11T15:29:27Z</time>
      </trkpt>
      <trkpt lat="45.93815" lon="4.77213">
        <ele>170.8</ele>
        <time>2025-09-11T15:29:28Z</time>
      </trkpt>
      <trkpt lat="45.93818" lon="4.77214">
        <ele>171.2</ele>
        <time>2025-09-11T15:29:29Z</time>
      </trkpt>
      <trkpt lat="45.93821" lon="4.77214">
        <ele>171.2</ele>
        <time>2025-09-11T15:29:30Z</time>
      </trkpt>
      <trkpt lat="45.93823" lon="4.77215">
        <ele>171.2</ele>
        <time>2025-09-11T15:29:31Z</time>
      </trkpt>
      <trkpt lat="45.93825" lon="4.77215">
        <ele>171.2</ele>
        <time>2025-09-11T15:29:32Z</time>
      </trkpt>
      <trkpt lat="45.93828" lon="4.77215">
        <ele>171.6</ele>
        <time>2025-09-11T15:29:33Z</time>
      </trkpt>
      <trkpt lat="45.9383" lon="4.77215">
        <ele>171.8</ele>
        <time>2025-09-11T15:29:34Z</time>
      </trkpt>
      <trkpt lat="45.93832" lon="4.77215">
        <ele>171.8</ele>
        <time>2025-09-11T15:29:35Z</time>
      </trkpt>
      <trkpt lat="45.93834" lon="4.77216">
        <ele>171.8</ele>
        <time>2025-09-11T15:29:36Z</time>
      </trkpt>
      <trkpt lat="45.93836" lon="4.77217">
        <ele>171.8</ele>
        <time>2025-09-11T15:29:37Z</time>
      </trkpt>
      <trkpt lat="45.93838" lon="4.77218">
        <ele>171.8</ele>
        <time>2025-09-11T15:29:38Z</time>
      </trkpt>
      <trkpt lat="45.9384" lon="4.77219">
        <ele>172.2</ele>
        <time>2025-09-11T15:29:39Z</time>
      </trkpt>
      <trkpt lat="45.93843" lon="4.77221">
        <ele>172.2</ele>
        <time>2025-09-11T15:29:40Z</time>
      </trkpt>
      <trkpt lat="45.93847" lon="4.77221">
        <ele>172.6</ele>
        <time>2025-09-11T15:29:41Z</time>
      </trkpt>
      <trkpt lat="45.9385" lon="4.77222">
        <ele>172.8</ele>
        <time>2025-09-11T15:29:42Z</time>
      </trkpt>
      <trkpt lat="45.93854" lon="4.77222">
        <ele>172.8</ele>
        <time>2025-09-11T15:29:43Z</time>
      </trkpt>
      <trkpt lat="45.93856" lon="4.77222">
        <ele>173</ele>
        <time>2025-09-11T15:29:44Z</time>
      </trkpt>
      <trkpt lat="45.93858" lon="4.77222">
        <ele>173</ele>
        <time>2025-09-11T15:29:45Z</time>
      </trkpt>
      <trkpt lat="45.9386" lon="4.77222">
        <ele>173.2</ele>
        <time>2025-09-11T15:29:46Z</time>
      </trkpt>
      <trkpt lat="45.93861" lon="4.77222">
        <ele>173.2</ele>
        <time>2025-09-11T15:29:47Z</time>
      </trkpt>
      <trkpt lat="45.93863" lon="4.77222">
        <ele>173.2</ele>
        <time>2025-09-11T15:29:48Z</time>
      </trkpt>
      <trkpt lat="45.93864" lon="4.77223">
        <ele>173.6</ele>
        <time>2025-09-11T15:29:49Z</time>
      </trkpt>
      <trkpt lat="45.93866" lon="4.77223">
        <ele>173.6</ele>
        <time>2025-09-11T15:29:50Z</time>
      </trkpt>
      <trkpt lat="45.93867" lon="4.77224">
        <ele>173.6</ele>
        <time>2025-09-11T15:29:51Z</time>
      </trkpt>
      <trkpt lat="45.93869" lon="4.77225">
        <ele>173.8</ele>
        <time>2025-09-11T15:29:52Z</time>
      </trkpt>
      <trkpt lat="45.93871" lon="4.77226">
        <ele>173.8</ele>
        <time>2025-09-11T15:29:53Z</time>
      </trkpt>
      <trkpt lat="45.93872" lon="4.77226">
        <ele>173.8</ele>
        <time>2025-09-11T15:29:54Z</time>
      </trkpt>
      <trkpt lat="45.93874" lon="4.77226">
        <ele>173.8</ele>
        <time>2025-09-11T15:29:55Z</time>
      </trkpt>
      <trkpt lat="45.93877" lon="4.77226">
        <ele>174.2</ele>
        <time>2025-09-11T15:29:56Z</time>
      </trkpt>
      <trkpt lat="45.93879" lon="4.77226">
        <ele>174.2</ele>
        <time>2025-09-11T15:29:57Z</time>
      </trkpt>
      <trkpt lat="45.93882" lon="4.77227">
        <ele>174.4</ele>
        <time>2025-09-11T15:29:58Z</time>
      </trkpt>
      <trkpt lat="45.93884" lon="4.77227">
        <ele>174.4</ele>
        <time>2025-09-11T15:29:59Z</time>
      </trkpt>
      <trkpt lat="45.93886" lon="4.77228">
        <ele>174.4</ele>
        <time>2025-09-11T15:30:00Z</time>
      </trkpt>
      <trkpt lat="45.93889" lon="4.77228">
        <ele>174.4</ele>
        <time>2025-09-11T15:30:01Z</time>
      </trkpt>
      <trkpt lat="45.93891" lon="4.77229">
        <ele>174.4</ele>
        <time>2025-09-11T15:30:02Z</time>
      </trkpt>
      <trkpt lat="45.93894" lon="4.7723">
        <ele>175</ele>
        <time>2025-09-11T15:30:03Z</time>
      </trkpt>
      <trkpt lat="45.93897" lon="4.7723">
        <ele>175</ele>
        <time>2025-09-11T15:30:04Z</time>
      </trkpt>
      <trkpt lat="45.93899" lon="4.77231">
        <ele>175.2</ele>
        <time>2025-09-11T15:30:05Z</time>
      </trkpt>
      <trkpt lat="45.93902" lon="4.77232">
        <ele>175.2</ele>
        <time>2025-09-11T15:30:06Z</time>
      </trkpt>
      <trkpt lat="45.93905" lon="4.77232">
        <ele>175.4</ele>
        <time>2025-09-11T15:30:07Z</time>
      </trkpt>
      <trkpt lat="45.93907" lon="4.77233">
        <ele>175.6</ele>
        <time>2025-09-11T15:30:08Z</time>
      </trkpt>
      <trkpt lat="45.9391" lon="4.77234">
        <ele>175.6</ele>
        <time>2025-09-11T15:30:09Z</time>
      </trkpt>
      <trkpt lat="45.93913" lon="4.77235">
        <ele>176</ele>
        <time>2025-09-11T15:30:10Z</time>
      </trkpt>
      <trkpt lat="45.93915" lon="4.77235">
        <ele>176</ele>
        <time>2025-09-11T15:30:11Z</time>
      </trkpt>
      <trkpt lat="45.93918" lon="4.77236">
        <ele>176</ele>
        <time>2025-09-11T15:30:12Z</time>
      </trkpt>
      <trkpt lat="45.93921" lon="4.77236">
        <ele>176</ele>
        <time>2025-09-11T15:30:13Z</time>
      </trkpt>
      <trkpt lat="45.93924" lon="4.77237">
        <ele>176</ele>
        <time>2025-09-11T15:30:14Z</time>
      </trkpt>
      <trkpt lat="45.93927" lon="4.77238">
        <ele>176</ele>
        <time>2025-09-11T15:30:15Z</time>
      </trkpt>
      <trkpt lat="45.9393" lon="4.77239">
        <ele>176</ele>
        <time>2025-09-11T15:30:16Z</time>
      </trkpt>
      <trkpt lat="45.93933" lon="4.7724">
        <ele>176</ele>
        <time>2025-09-11T15:30:17Z</time>
      </trkpt>
      <trkpt lat="45.93936" lon="4.7724">
        <ele>176</ele>
        <time>2025-09-11T15:30:18Z</time>
      </trkpt>
      <trkpt lat="45.9394" lon="4.77241">
        <ele>176.2</ele>
        <time>2025-09-11T15:30:19Z</time>
      </trkpt>
      <trkpt lat="45.93943" lon="4.77242">
        <ele>176.2</ele>
        <time>2025-09-11T15:30:20Z</time>
      </trkpt>
      <trkpt lat="45.93947" lon="4.77243">
        <ele>176.2</ele>
        <time>2025-09-11T15:30:21Z</time>
      </trkpt>
      <trkpt lat="45.93951" lon="4.77244">
        <ele>176.2</ele>
        <time>2025-09-11T15:30:22Z</time>
      </trkpt>
      <trkpt lat="45.93955" lon="4.77245">
        <ele>176.2</ele>
        <time>2025-09-11T15:30:23Z</time>
      </trkpt>
      <trkpt lat="45.93959" lon="4.77246">
        <ele>176.2</ele>
        <time>2025-09-11T15:30:24Z</time>
      </trkpt>
      <trkpt lat="45.93963" lon="4.77247">
        <ele>176</ele>
        <time>2025-09-11T15:30:25Z</time>
      </trkpt>
      <trkpt lat="45.93968" lon="4.77248">
        <ele>176</ele>
        <time>2025-09-11T15:30:26Z</time>
      </trkpt>
      <trkpt lat="45.93972" lon="4.7725">
        <ele>176</ele>
        <time>2025-09-11T15:30:27Z</time>
      </trkpt>
      <trkpt lat="45.93976" lon="4.77251">
        <ele>176</ele>
        <time>2025-09-11T15:30:28Z</time>
      </trkpt>
      <trkpt lat="45.9398" lon="4.77253">
        <ele>175.4</ele>
        <time>2025-09-11T15:30:29Z</time>
      </trkpt>
      <trkpt lat="45.93984" lon="4.77254">
        <ele>175</ele>
        <time>2025-09-11T15:30:30Z</time>
      </trkpt>
      <trkpt lat="45.93989" lon="4.77255">
        <ele>175</ele>
        <time>2025-09-11T15:30:31Z</time>
      </trkpt>
      <trkpt lat="45.93994" lon="4.77255">
        <ele>174.4</ele>
        <time>2025-09-11T15:30:32Z</time>
      </trkpt>
      <trkpt lat="45.93998" lon="4.77256">
        <ele>173.8</ele>
        <time>2025-09-11T15:30:33Z</time>
      </trkpt>
      <trkpt lat="45.94002" lon="4.77257">
        <ele>173.6</ele>
        <time>2025-09-11T15:30:34Z</time>
      </trkpt>
      <trkpt lat="45.94006" lon="4.77258">
        <ele>173.4</ele>
        <time>2025-09-11T15:30:35Z</time>
      </trkpt>
      <trkpt lat="45.94009" lon="4.77258">
        <ele>173.4</ele>
        <time>2025-09-11T15:30:36Z</time>
      </trkpt>
      <trkpt lat="45.94012" lon="4.77258">
        <ele>173.2</ele>
        <time>2025-09-11T15:30:37Z</time>
      </trkpt>
      <trkpt lat="45.94014" lon="4.77257">
        <ele>173</ele>
        <time>2025-09-11T15:30:38Z</time>
      </trkpt>
      <trkpt lat="45.94015" lon="4.77255">
        <ele>173</ele>
        <time>2025-09-11T15:30:39Z</time>
      </trkpt>
      <trkpt lat="45.94015" lon="4.77252">
        <ele>172.6</ele>
        <time>2025-09-11T15:30:40Z</time>
      </trkpt>
      <trkpt lat="45.94016" lon="4.77248">
        <ele>172.6</ele>
        <time>2025-09-11T15:30:41Z</time>
      </trkpt>
      <trkpt lat="45.94017" lon="4.77245">
        <ele>172.4</ele>
        <time>2025-09-11T15:30:42Z</time>
      </trkpt>
      <trkpt lat="45.94017" lon="4.77241">
        <ele>172.4</ele>
        <time>2025-09-11T15:30:43Z</time>
      </trkpt>
      <trkpt lat="45.94017" lon="4.77237">
        <ele>172</ele>
        <time>2025-09-11T15:30:44Z</time>
      </trkpt>
      <trkpt lat="45.94018" lon="4.77233">
        <ele>172</ele>
        <time>2025-09-11T15:30:45Z</time>
      </trkpt>
      <trkpt lat="45.94018" lon="4.77229">
        <ele>171.8</ele>
        <time>2025-09-11T15:30:46Z</time>
      </trkpt>
      <trkpt lat="45.94018" lon="4.77224">
        <ele>171.8</ele>
        <time>2025-09-11T15:30:47Z</time>
      </trkpt>
      <trkpt lat="45.94018" lon="4.7722">
        <ele>171.8</ele>
        <time>2025-09-11T15:30:48Z</time>
      </trkpt>
      <trkpt lat="45.94019" lon="4.77215">
        <ele>171.6</ele>
        <time>2025-09-11T15:30:49Z</time>
      </trkpt>
      <trkpt lat="45.9402" lon="4.77211">
        <ele>171.6</ele>
        <time>2025-09-11T15:30:50Z</time>
      </trkpt>
      <trkpt lat="45.94021" lon="4.77206">
        <ele>171.6</ele>
        <time>2025-09-11T15:30:51Z</time>
      </trkpt>
      <trkpt lat="45.94021" lon="4.77202">
        <ele>171.4</ele>
        <time>2025-09-11T15:30:52Z</time>
      </trkpt>
      <trkpt lat="45.94021" lon="4.772">
        <ele>171.4</ele>
        <time>2025-09-11T15:30:53Z</time>
      </trkpt>
      <trkpt lat="45.94019" lon="4.77198">
        <ele>171</ele>
        <time>2025-09-11T15:30:54Z</time>
      </trkpt>
      <trkpt lat="45.94017" lon="4.77198">
        <ele>170.8</ele>
        <time>2025-09-11T15:30:55Z</time>
      </trkpt>
      <trkpt lat="45.94014" lon="4.772">
        <ele>170.8</ele>
        <time>2025-09-11T15:30:56Z</time>
      </trkpt>
      <trkpt lat="45.94012" lon="4.77203">
        <ele>170.4</ele>
        <time>2025-09-11T15:30:57Z</time>
      </trkpt>
      <trkpt lat="45.94011" lon="4.77207">
        <ele>170.4</ele>
        <time>2025-09-11T15:30:58Z</time>
      </trkpt>
      <trkpt lat="45.9401" lon="4.77213">
        <ele>170.4</ele>
        <time>2025-09-11T15:30:59Z</time>
      </trkpt>
      <trkpt lat="45.94011" lon="4.77223">
        <ele>170.2</ele>
        <time>2025-09-11T15:31:00Z</time>
      </trkpt>
      <trkpt lat="45.94011" lon="4.77229">
        <ele>170</ele>
        <time>2025-09-11T15:31:01Z</time>
      </trkpt>
      <trkpt lat="45.94009" lon="4.77234">
        <ele>169.6</ele>
        <time>2025-09-11T15:31:02Z</time>
      </trkpt>
      <trkpt lat="45.94007" lon="4.77239">
        <ele>169.2</ele>
        <time>2025-09-11T15:31:03Z</time>
      </trkpt>
      <trkpt lat="45.94005" lon="4.77244">
        <ele>169.2</ele>
        <time>2025-09-11T15:31:04Z</time>
      </trkpt>
      <trkpt lat="45.94002" lon="4.7725">
        <ele>169</ele>
        <time>2025-09-11T15:31:05Z</time>
      </trkpt>
      <trkpt lat="45.94002" lon="4.77258">
        <ele>168.6</ele>
        <time>2025-09-11T15:31:06Z</time>
      </trkpt>
      <trkpt lat="45.94001" lon="4.77263">
        <ele>168.6</ele>
        <time>2025-09-11T15:31:07Z</time>
      </trkpt>
      <trkpt lat="45.94001" lon="4.77268">
        <ele>168.6</ele>
        <time>2025-09-11T15:31:08Z</time>
      </trkpt>
      <trkpt lat="45.94003" lon="4.77274">
        <ele>168.2</ele>
        <time>2025-09-11T15:31:09Z</time>
      </trkpt>
      <trkpt lat="45.94004" lon="4.77281">
        <ele>168.2</ele>
        <time>2025-09-11T15:31:10Z</time>
      </trkpt>
      <trkpt lat="45.94003" lon="4.77288">
        <ele>168.2</ele>
        <time>2025-09-11T15:31:11Z</time>
      </trkpt>
      <trkpt lat="45.94003" lon="4.77294">
        <ele>168.2</ele>
        <time>2025-09-11T15:31:12Z</time>
      </trkpt>
      <trkpt lat="45.94002" lon="4.773">
        <ele>168.4</ele>
        <time>2025-09-11T15:31:13Z</time>
      </trkpt>
      <trkpt lat="45.94003" lon="4.77304">
        <ele>168.8</ele>
        <time>2025-09-11T15:31:14Z</time>
      </trkpt>
      <trkpt lat="45.94003" lon="4.77309">
        <ele>168.8</ele>
        <time>2025-09-11T15:31:15Z</time>
      </trkpt>
      <trkpt lat="45.94004" lon="4.77314">
        <ele>169</ele>
        <time>2025-09-11T15:31:16Z</time>
      </trkpt>
      <trkpt lat="45.94003" lon="4.7732">
        <ele>169</ele>
        <time>2025-09-11T15:31:17Z</time>
      </trkpt>
      <trkpt lat="45.94003" lon="4.77326">
        <ele>169.4</ele>
        <time>2025-09-11T15:31:18Z</time>
      </trkpt>
      <trkpt lat="45.94002" lon="4.77332">
        <ele>169.4</ele>
        <time>2025-09-11T15:31:19Z</time>
      </trkpt>
      <trkpt lat="45.94001" lon="4.77338">
        <ele>169.4</ele>
        <time>2025-09-11T15:31:20Z</time>
      </trkpt>
      <trkpt lat="45.94" lon="4.77344">
        <ele>169.6</ele>
        <time>2025-09-11T15:31:21Z</time>
      </trkpt>
      <trkpt lat="45.93999" lon="4.77351">
        <ele>169.6</ele>
        <time>2025-09-11T15:31:22Z</time>
      </trkpt>
      <trkpt lat="45.93998" lon="4.77358">
        <ele>169.6</ele>
        <time>2025-09-11T15:31:23Z</time>
      </trkpt>
      <trkpt lat="45.93997" lon="4.77364">
        <ele>169.6</ele>
        <time>2025-09-11T15:31:24Z</time>
      </trkpt>
      <trkpt lat="45.93996" lon="4.7737">
        <ele>169.8</ele>
        <time>2025-09-11T15:31:25Z</time>
      </trkpt>
      <trkpt lat="45.93998" lon="4.77376">
        <ele>169.8</ele>
        <time>2025-09-11T15:31:26Z</time>
      </trkpt>
      <trkpt lat="45.94002" lon="4.77379">
        <ele>169.8</ele>
        <time>2025-09-11T15:31:27Z</time>
      </trkpt>
      <trkpt lat="45.94004" lon="4.77381">
        <ele>170</ele>
        <time>2025-09-11T15:31:28Z</time>
      </trkpt>
      <trkpt lat="45.94004" lon="4.77386">
        <ele>170</ele>
        <time>2025-09-11T15:31:29Z</time>
      </trkpt>
      <trkpt lat="45.94004" lon="4.77391">
        <ele>170</ele>
        <time>2025-09-11T15:31:30Z</time>
      </trkpt>
      <trkpt lat="45.94003" lon="4.77396">
        <ele>170</ele>
        <time>2025-09-11T15:31:31Z</time>
      </trkpt>
      <trkpt lat="45.94002" lon="4.77402">
        <ele>170</ele>
        <time>2025-09-11T15:31:32Z</time>
      </trkpt>
      <trkpt lat="45.94001" lon="4.77407">
        <ele>170</ele>
        <time>2025-09-11T15:31:33Z</time>
      </trkpt>
      <trkpt lat="45.94001" lon="4.77413">
        <ele>170</ele>
        <time>2025-09-11T15:31:34Z</time>
      </trkpt>
      <trkpt lat="45.94" lon="4.77419">
        <ele>170</ele>
        <time>2025-09-11T15:31:35Z</time>
      </trkpt>
      <trkpt lat="45.93999" lon="4.77426">
        <ele>169.8</ele>
        <time>2025-09-11T15:31:36Z</time>
      </trkpt>
      <trkpt lat="45.93999" lon="4.77433">
        <ele>169.8</ele>
        <time>2025-09-11T15:31:37Z</time>
      </trkpt>
      <trkpt lat="45.93997" lon="4.77438">
        <ele>169.8</ele>
        <time>2025-09-11T15:31:38Z</time>
      </trkpt>
      <trkpt lat="45.93997" lon="4.77445">
        <ele>169.8</ele>
        <time>2025-09-11T15:31:39Z</time>
      </trkpt>
      <trkpt lat="45.93996" lon="4.77452">
        <ele>169.8</ele>
        <time>2025-09-11T15:31:40Z</time>
      </trkpt>
      <trkpt lat="45.93995" lon="4.77459">
        <ele>169.8</ele>
        <time>2025-09-11T15:31:41Z</time>
      </trkpt>
      <trkpt lat="45.93995" lon="4.77467">
        <ele>169.8</ele>
        <time>2025-09-11T15:31:42Z</time>
      </trkpt>
      <trkpt lat="45.93994" lon="4.77473">
        <ele>169.8</ele>
        <time>2025-09-11T15:31:43Z</time>
      </trkpt>
      <trkpt lat="45.93992" lon="4.7748">
        <ele>169.8</ele>
        <time>2025-09-11T15:31:44Z</time>
      </trkpt>
      <trkpt lat="45.93991" lon="4.77487">
        <ele>169.8</ele>
        <time>2025-09-11T15:31:45Z</time>
      </trkpt>
      <trkpt lat="45.9399" lon="4.77494">
        <ele>169.8</ele>
        <time>2025-09-11T15:31:46Z</time>
      </trkpt>
      <trkpt lat="45.93989" lon="4.77501">
        <ele>169</ele>
        <time>2025-09-11T15:31:47Z</time>
      </trkpt>
      <trkpt lat="45.93988" lon="4.77508">
        <ele>169.4</ele>
        <time>2025-09-11T15:31:48Z</time>
      </trkpt>
      <trkpt lat="45.93987" lon="4.77515">
        <ele>169.4</ele>
        <time>2025-09-11T15:31:49Z</time>
      </trkpt>
      <trkpt lat="45.93986" lon="4.77522">
        <ele>169.4</ele>
        <time>2025-09-11T15:31:50Z</time>
      </trkpt>
      <trkpt lat="45.93985" lon="4.77528">
        <ele>169.4</ele>
        <time>2025-09-11T15:31:51Z</time>
      </trkpt>
      <trkpt lat="45.93984" lon="4.77535">
        <ele>169.4</ele>
        <time>2025-09-11T15:31:52Z</time>
      </trkpt>
      <trkpt lat="45.93983" lon="4.77542">
        <ele>169.4</ele>
        <time>2025-09-11T15:31:53Z</time>
      </trkpt>
      <trkpt lat="45.93982" lon="4.77548">
        <ele>169.4</ele>
        <time>2025-09-11T15:31:54Z</time>
      </trkpt>
      <trkpt lat="45.9398" lon="4.77555">
        <ele>169.4</ele>
        <time>2025-09-11T15:31:55Z</time>
      </trkpt>
      <trkpt lat="45.93979" lon="4.77562">
        <ele>169.4</ele>
        <time>2025-09-11T15:31:56Z</time>
      </trkpt>
      <trkpt lat="45.93978" lon="4.77569">
        <ele>169.4</ele>
        <time>2025-09-11T15:31:57Z</time>
      </trkpt>
      <trkpt lat="45.93977" lon="4.77576">
        <ele>169.4</ele>
        <time>2025-09-11T15:31:58Z</time>
      </trkpt>
      <trkpt lat="45.93976" lon="4.77583">
        <ele>169.6</ele>
        <time>2025-09-11T15:31:59Z</time>
      </trkpt>
      <trkpt lat="45.93974" lon="4.77591">
        <ele>169.6</ele>
        <time>2025-09-11T15:32:00Z</time>
      </trkpt>
      <trkpt lat="45.93973" lon="4.77598">
        <ele>169.6</ele>
        <time>2025-09-11T15:32:01Z</time>
      </trkpt>
      <trkpt lat="45.93972" lon="4.77605">
        <ele>169.6</ele>
        <time>2025-09-11T15:32:02Z</time>
      </trkpt>
      <trkpt lat="45.93971" lon="4.77612">
        <ele>169.6</ele>
        <time>2025-09-11T15:32:03Z</time>
      </trkpt>
      <trkpt lat="45.9397" lon="4.77619">
        <ele>169.8</ele>
        <time>2025-09-11T15:32:04Z</time>
      </trkpt>
      <trkpt lat="45.93969" lon="4.77626">
        <ele>169.8</ele>
        <time>2025-09-11T15:32:05Z</time>
      </trkpt>
      <trkpt lat="45.93968" lon="4.77634">
        <ele>169.8</ele>
        <time>2025-09-11T15:32:06Z</time>
      </trkpt>
      <trkpt lat="45.93966" lon="4.77641">
        <ele>169.8</ele>
        <time>2025-09-11T15:32:07Z</time>
      </trkpt>
      <trkpt lat="45.93964" lon="4.77648">
        <ele>169.8</ele>
        <time>2025-09-11T15:32:08Z</time>
      </trkpt>
      <trkpt lat="45.93963" lon="4.77655">
        <ele>169.8</ele>
        <time>2025-09-11T15:32:09Z</time>
      </trkpt>
      <trkpt lat="45.93961" lon="4.77662">
        <ele>169.8</ele>
        <time>2025-09-11T15:32:10Z</time>
      </trkpt>
      <trkpt lat="45.93959" lon="4.77669">
        <ele>169.8</ele>
        <time>2025-09-11T15:32:11Z</time>
      </trkpt>
      <trkpt lat="45.93957" lon="4.77676">
        <ele>169.8</ele>
        <time>2025-09-11T15:32:12Z</time>
      </trkpt>
      <trkpt lat="45.93955" lon="4.77683">
        <ele>169.8</ele>
        <time>2025-09-11T15:32:13Z</time>
      </trkpt>
      <trkpt lat="45.93953" lon="4.7769">
        <ele>169.8</ele>
        <time>2025-09-11T15:32:14Z</time>
      </trkpt>
      <trkpt lat="45.93951" lon="4.77697">
        <ele>169.8</ele>
        <time>2025-09-11T15:32:15Z</time>
      </trkpt>
      <trkpt lat="45.93948" lon="4.77703">
        <ele>169.8</ele>
        <time>2025-09-11T15:32:16Z</time>
      </trkpt>
      <trkpt lat="45.93945" lon="4.77709">
        <ele>169.8</ele>
        <time>2025-09-11T15:32:17Z</time>
      </trkpt>
      <trkpt lat="45.93943" lon="4.77716">
        <ele>169.8</ele>
        <time>2025-09-11T15:32:18Z</time>
      </trkpt>
      <trkpt lat="45.9394" lon="4.77723">
        <ele>169.8</ele>
        <time>2025-09-11T15:32:19Z</time>
      </trkpt>
      <trkpt lat="45.93938" lon="4.77729">
        <ele>169.8</ele>
        <time>2025-09-11T15:32:20Z</time>
      </trkpt>
      <trkpt lat="45.93935" lon="4.77735">
        <ele>169.8</ele>
        <time>2025-09-11T15:32:21Z</time>
      </trkpt>
      <trkpt lat="45.93932" lon="4.77741">
        <ele>170.2</ele>
        <time>2025-09-11T15:32:22Z</time>
      </trkpt>
      <trkpt lat="45.9393" lon="4.77748">
        <ele>170.2</ele>
        <time>2025-09-11T15:32:23Z</time>
      </trkpt>
      <trkpt lat="45.93926" lon="4.77754">
        <ele>170.2</ele>
        <time>2025-09-11T15:32:24Z</time>
      </trkpt>
      <trkpt lat="45.93923" lon="4.7776">
        <ele>170.2</ele>
        <time>2025-09-11T15:32:25Z</time>
      </trkpt>
      <trkpt lat="45.93921" lon="4.77767">
        <ele>170.2</ele>
        <time>2025-09-11T15:32:26Z</time>
      </trkpt>
      <trkpt lat="45.93918" lon="4.77773">
        <ele>170.2</ele>
        <time>2025-09-11T15:32:27Z</time>
      </trkpt>
      <trkpt lat="45.93916" lon="4.77779">
        <ele>170.2</ele>
        <time>2025-09-11T15:32:28Z</time>
      </trkpt>
      <trkpt lat="45.93913" lon="4.77785">
        <ele>170.2</ele>
        <time>2025-09-11T15:32:29Z</time>
      </trkpt>
      <trkpt lat="45.93911" lon="4.77791">
        <ele>170.2</ele>
        <time>2025-09-11T15:32:30Z</time>
      </trkpt>
      <trkpt lat="45.93909" lon="4.77797">
        <ele>170.2</ele>
        <time>2025-09-11T15:32:31Z</time>
      </trkpt>
      <trkpt lat="45.93907" lon="4.77803">
        <ele>170.2</ele>
        <time>2025-09-11T15:32:32Z</time>
      </trkpt>
      <trkpt lat="45.93904" lon="4.77809">
        <ele>170.2</ele>
        <time>2025-09-11T15:32:33Z</time>
      </trkpt>
      <trkpt lat="45.93903" lon="4.77814">
        <ele>170.6</ele>
        <time>2025-09-11T15:32:34Z</time>
      </trkpt>
      <trkpt lat="45.93901" lon="4.77819">
        <ele>170.6</ele>
        <time>2025-09-11T15:32:35Z</time>
      </trkpt>
      <trkpt lat="45.939" lon="4.77825">
        <ele>171</ele>
        <time>2025-09-11T15:32:36Z</time>
      </trkpt>
      <trkpt lat="45.93898" lon="4.7783">
        <ele>171</ele>
        <time>2025-09-11T15:32:37Z</time>
      </trkpt>
      <trkpt lat="45.93896" lon="4.77835">
        <ele>171</ele>
        <time>2025-09-11T15:32:38Z</time>
      </trkpt>
      <trkpt lat="45.93894" lon="4.7784">
        <ele>171</ele>
        <time>2025-09-11T15:32:39Z</time>
      </trkpt>
      <trkpt lat="45.93893" lon="4.77846">
        <ele>171.2</ele>
        <time>2025-09-11T15:32:40Z</time>
      </trkpt>
      <trkpt lat="45.93892" lon="4.77852">
        <ele>171.2</ele>
        <time>2025-09-11T15:32:41Z</time>
      </trkpt>
      <trkpt lat="45.9389" lon="4.77857">
        <ele>171.2</ele>
        <time>2025-09-11T15:32:42Z</time>
      </trkpt>
      <trkpt lat="45.93889" lon="4.77862">
        <ele>171.6</ele>
        <time>2025-09-11T15:32:43Z</time>
      </trkpt>
      <trkpt lat="45.93887" lon="4.77866">
        <ele>171.6</ele>
        <time>2025-09-11T15:32:44Z</time>
      </trkpt>
      <trkpt lat="45.93886" lon="4.7787">
        <ele>171.6</ele>
        <time>2025-09-11T15:32:45Z</time>
      </trkpt>
      <trkpt lat="45.93883" lon="4.77875">
        <ele>171.6</ele>
        <time>2025-09-11T15:32:46Z</time>
      </trkpt>
      <trkpt lat="45.93879" lon="4.77879">
        <ele>171.6</ele>
        <time>2025-09-11T15:32:47Z</time>
      </trkpt>
      <trkpt lat="45.93876" lon="4.77885">
        <ele>171.2</ele>
        <time>2025-09-11T15:32:48Z</time>
      </trkpt>
      <trkpt lat="45.93872" lon="4.77891">
        <ele>171</ele>
        <time>2025-09-11T15:32:49Z</time>
      </trkpt>
      <trkpt lat="45.93868" lon="4.77897">
        <ele>170.4</ele>
        <time>2025-09-11T15:32:50Z</time>
      </trkpt>
      <trkpt lat="45.93865" lon="4.77904">
        <ele>170</ele>
        <time>2025-09-11T15:32:51Z</time>
      </trkpt>
      <trkpt lat="45.93863" lon="4.77908">
        <ele>169.6</ele>
        <time>2025-09-11T15:32:52Z</time>
      </trkpt>
      <trkpt lat="45.93861" lon="4.77911">
        <ele>169.6</ele>
        <time>2025-09-11T15:32:53Z</time>
      </trkpt>
      <trkpt lat="45.9386" lon="4.77913">
        <ele>169.6</ele>
        <time>2025-09-11T15:32:54Z</time>
      </trkpt>
      <trkpt lat="45.9386" lon="4.77914">
        <ele>169.2</ele>
        <time>2025-09-11T15:32:55Z</time>
      </trkpt>
      <trkpt lat="45.9386" lon="4.77914">
        <ele>169.2</ele>
        <time>2025-09-11T15:32:56Z</time>
      </trkpt>
      <trkpt lat="45.9386" lon="4.77914">
        <ele>169</ele>
        <time>2025-09-11T15:32:57Z</time>
      </trkpt>
      <trkpt lat="45.93859" lon="4.77913">
        <ele>169.2</ele>
        <time>2025-09-11T15:33:28Z</time>
      </trkpt>
      <trkpt lat="45.93858" lon="4.77915">
        <ele>169.2</ele>
        <time>2025-09-11T15:33:29Z</time>
      </trkpt>
      <trkpt lat="45.93857" lon="4.77916">
        <ele>169.2</ele>
        <time>2025-09-11T15:33:30Z</time>
      </trkpt>
      <trkpt lat="45.93857" lon="4.77917">
        <ele>169.2</ele>
        <time>2025-09-11T15:33:31Z</time>
      </trkpt>
      <trkpt lat="45.93856" lon="4.77919">
        <ele>169</ele>
        <time>2025-09-11T15:33:32Z</time>
      </trkpt>
      <trkpt lat="45.93854" lon="4.77921">
        <ele>169</ele>
        <time>2025-09-11T15:33:33Z</time>
      </trkpt>
      <trkpt lat="45.93852" lon="4.77922">
        <ele>169</ele>
        <time>2025-09-11T15:33:34Z</time>
      </trkpt>
      <trkpt lat="45.93849" lon="4.77923">
        <ele>169</ele>
        <time>2025-09-11T15:33:35Z</time>
      </trkpt>
      <trkpt lat="45.93846" lon="4.77926">
        <ele>169</ele>
        <time>2025-09-11T15:33:36Z</time>
      </trkpt>
      <trkpt lat="45.93844" lon="4.77929">
        <ele>169</ele>
        <time>2025-09-11T15:33:37Z</time>
      </trkpt>
      <trkpt lat="45.93841" lon="4.77934">
        <ele>169</ele>
        <time>2025-09-11T15:33:38Z</time>
      </trkpt>
      <trkpt lat="45.93839" lon="4.77938">
        <ele>169</ele>
        <time>2025-09-11T15:33:39Z</time>
      </trkpt>
      <trkpt lat="45.93836" lon="4.77942">
        <ele>169</ele>
        <time>2025-09-11T15:33:40Z</time>
      </trkpt>
      <trkpt lat="45.93834" lon="4.77947">
        <ele>169</ele>
        <time>2025-09-11T15:33:41Z</time>
      </trkpt>
      <trkpt lat="45.93831" lon="4.77951">
        <ele>169</ele>
        <time>2025-09-11T15:33:42Z</time>
      </trkpt>
      <trkpt lat="45.93828" lon="4.77955">
        <ele>169</ele>
        <time>2025-09-11T15:33:43Z</time>
      </trkpt>
      <trkpt lat="45.93825" lon="4.77958">
        <ele>168.6</ele>
        <time>2025-09-11T15:33:44Z</time>
      </trkpt>
      <trkpt lat="45.9382" lon="4.77963">
        <ele>168.6</ele>
        <time>2025-09-11T15:33:45Z</time>
      </trkpt>
      <trkpt lat="45.93817" lon="4.77968">
        <ele>168.6</ele>
        <time>2025-09-11T15:33:46Z</time>
      </trkpt>
      <trkpt lat="45.93814" lon="4.77973">
        <ele>168.8</ele>
        <time>2025-09-11T15:33:47Z</time>
      </trkpt>
      <trkpt lat="45.93811" lon="4.77979">
        <ele>168.8</ele>
        <time>2025-09-11T15:33:48Z</time>
      </trkpt>
      <trkpt lat="45.93807" lon="4.77983">
        <ele>168.8</ele>
        <time>2025-09-11T15:33:49Z</time>
      </trkpt>
      <trkpt lat="45.93803" lon="4.77989">
        <ele>168.8</ele>
        <time>2025-09-11T15:33:50Z</time>
      </trkpt>
      <trkpt lat="45.93799" lon="4.77993">
        <ele>168.8</ele>
        <time>2025-09-11T15:33:51Z</time>
      </trkpt>
      <trkpt lat="45.93795" lon="4.77999">
        <ele>168.6</ele>
        <time>2025-09-11T15:33:52Z</time>
      </trkpt>
      <trkpt lat="45.93791" lon="4.78004">
        <ele>168.6</ele>
        <time>2025-09-11T15:33:53Z</time>
      </trkpt>
      <trkpt lat="45.93786" lon="4.78008">
        <ele>168.6</ele>
        <time>2025-09-11T15:33:54Z</time>
      </trkpt>
      <trkpt lat="45.93782" lon="4.78014">
        <ele>168.6</ele>
        <time>2025-09-11T15:33:55Z</time>
      </trkpt>
      <trkpt lat="45.93778" lon="4.78018">
        <ele>168.6</ele>
        <time>2025-09-11T15:33:56Z</time>
      </trkpt>
      <trkpt lat="45.93773" lon="4.78024">
        <ele>168.6</ele>
        <time>2025-09-11T15:33:57Z</time>
      </trkpt>
      <trkpt lat="45.9377" lon="4.7803">
        <ele>168.6</ele>
        <time>2025-09-11T15:33:58Z</time>
      </trkpt>
      <trkpt lat="45.93766" lon="4.78035">
        <ele>168.6</ele>
        <time>2025-09-11T15:33:59Z</time>
      </trkpt>
      <trkpt lat="45.93761" lon="4.78041">
        <ele>168.6</ele>
        <time>2025-09-11T15:34:00Z</time>
      </trkpt>
      <trkpt lat="45.93757" lon="4.78046">
        <ele>168.6</ele>
        <time>2025-09-11T15:34:01Z</time>
      </trkpt>
      <trkpt lat="45.93752" lon="4.78052">
        <ele>168.6</ele>
        <time>2025-09-11T15:34:02Z</time>
      </trkpt>
      <trkpt lat="45.93748" lon="4.78058">
        <ele>168.6</ele>
        <time>2025-09-11T15:34:03Z</time>
      </trkpt>
      <trkpt lat="45.93743" lon="4.78063">
        <ele>168.6</ele>
        <time>2025-09-11T15:34:04Z</time>
      </trkpt>
      <trkpt lat="45.93739" lon="4.78068">
        <ele>168.6</ele>
        <time>2025-09-11T15:34:05Z</time>
      </trkpt>
      <trkpt lat="45.93734" lon="4.78074">
        <ele>168.6</ele>
        <time>2025-09-11T15:34:06Z</time>
      </trkpt>
      <trkpt lat="45.9373" lon="4.78079">
        <ele>168.6</ele>
        <time>2025-09-11T15:34:07Z</time>
      </trkpt>
      <trkpt lat="45.93726" lon="4.78084">
        <ele>168.6</ele>
        <time>2025-09-11T15:34:08Z</time>
      </trkpt>
      <trkpt lat="45.93721" lon="4.7809">
        <ele>168.6</ele>
        <time>2025-09-11T15:34:09Z</time>
      </trkpt>
      <trkpt lat="45.93717" lon="4.78096">
        <ele>168.6</ele>
        <time>2025-09-11T15:34:10Z</time>
      </trkpt>
      <trkpt lat="45.93712" lon="4.78101">
        <ele>168.6</ele>
        <time>2025-09-11T15:34:11Z</time>
      </trkpt>
      <trkpt lat="45.93708" lon="4.78107">
        <ele>168.6</ele>
        <time>2025-09-11T15:34:12Z</time>
      </trkpt>
      <trkpt lat="45.93703" lon="4.78111">
        <ele>168.6</ele>
        <time>2025-09-11T15:34:13Z</time>
      </trkpt>
      <trkpt lat="45.93698" lon="4.78116">
        <ele>168.6</ele>
        <time>2025-09-11T15:34:14Z</time>
      </trkpt>
      <trkpt lat="45.93694" lon="4.78121">
        <ele>168.6</ele>
        <time>2025-09-11T15:34:15Z</time>
      </trkpt>
      <trkpt lat="45.93689" lon="4.78126">
        <ele>168.8</ele>
        <time>2025-09-11T15:34:16Z</time>
      </trkpt>
      <trkpt lat="45.93683" lon="4.7813">
        <ele>168.8</ele>
        <time>2025-09-11T15:34:17Z</time>
      </trkpt>
      <trkpt lat="45.93679" lon="4.78135">
        <ele>168.8</ele>
        <time>2025-09-11T15:34:18Z</time>
      </trkpt>
      <trkpt lat="45.93673" lon="4.78138">
        <ele>168.8</ele>
        <time>2025-09-11T15:34:19Z</time>
      </trkpt>
      <trkpt lat="45.93662" lon="4.78145">
        <ele>168.8</ele>
        <time>2025-09-11T15:34:20Z</time>
      </trkpt>
      <trkpt lat="45.93657" lon="4.78148">
        <ele>168.8</ele>
        <time>2025-09-11T15:34:21Z</time>
      </trkpt>
      <trkpt lat="45.93651" lon="4.78152">
        <ele>168.8</ele>
        <time>2025-09-11T15:34:22Z</time>
      </trkpt>
      <trkpt lat="45.93646" lon="4.78156">
        <ele>168.8</ele>
        <time>2025-09-11T15:34:23Z</time>
      </trkpt>
      <trkpt lat="45.9364" lon="4.78159">
        <ele>168.6</ele>
        <time>2025-09-11T15:34:24Z</time>
      </trkpt>
      <trkpt lat="45.93634" lon="4.78162">
        <ele>168.6</ele>
        <time>2025-09-11T15:34:25Z</time>
      </trkpt>
      <trkpt lat="45.93628" lon="4.78164">
        <ele>168.6</ele>
        <time>2025-09-11T15:34:26Z</time>
      </trkpt>
      <trkpt lat="45.93623" lon="4.78167">
        <ele>168.6</ele>
        <time>2025-09-11T15:34:27Z</time>
      </trkpt>
      <trkpt lat="45.93623" lon="4.78167">
        <ele>168.6</ele>
        <time>2025-09-11T15:34:28Z</time>
      </trkpt>
      <trkpt lat="45.93617" lon="4.7817">
        <ele>168.6</ele>
        <time>2025-09-11T15:34:29Z</time>
      </trkpt>
      <trkpt lat="45.93611" lon="4.78173">
        <ele>168.6</ele>
        <time>2025-09-11T15:34:30Z</time>
      </trkpt>
      <trkpt lat="45.93606" lon="4.78176">
        <ele>168.6</ele>
        <time>2025-09-11T15:34:31Z</time>
      </trkpt>
      <trkpt lat="45.936" lon="4.7818">
        <ele>168.4</ele>
        <time>2025-09-11T15:34:32Z</time>
      </trkpt>
      <trkpt lat="45.93595" lon="4.78183">
        <ele>168.4</ele>
        <time>2025-09-11T15:34:33Z</time>
      </trkpt>
      <trkpt lat="45.93589" lon="4.78186">
        <ele>168.4</ele>
        <time>2025-09-11T15:34:34Z</time>
      </trkpt>
      <trkpt lat="45.93584" lon="4.78189">
        <ele>168.4</ele>
        <time>2025-09-11T15:34:35Z</time>
      </trkpt>
      <trkpt lat="45.93578" lon="4.78192">
        <ele>168.4</ele>
        <time>2025-09-11T15:34:36Z</time>
      </trkpt>
      <trkpt lat="45.93573" lon="4.78196">
        <ele>168.4</ele>
        <time>2025-09-11T15:34:37Z</time>
      </trkpt>
      <trkpt lat="45.93568" lon="4.782">
        <ele>168.4</ele>
        <time>2025-09-11T15:34:38Z</time>
      </trkpt>
      <trkpt lat="45.93562" lon="4.78203">
        <ele>168.4</ele>
        <time>2025-09-11T15:34:39Z</time>
      </trkpt>
      <trkpt lat="45.93557" lon="4.78204">
        <ele>168.4</ele>
        <time>2025-09-11T15:34:40Z</time>
      </trkpt>
      <trkpt lat="45.93551" lon="4.78207">
        <ele>168.4</ele>
        <time>2025-09-11T15:34:41Z</time>
      </trkpt>
      <trkpt lat="45.93546" lon="4.78211">
        <ele>168.4</ele>
        <time>2025-09-11T15:34:42Z</time>
      </trkpt>
      <trkpt lat="45.93541" lon="4.78217">
        <ele>168.4</ele>
        <time>2025-09-11T15:34:43Z</time>
      </trkpt>
      <trkpt lat="45.93537" lon="4.78221">
        <ele>168.4</ele>
        <time>2025-09-11T15:34:44Z</time>
      </trkpt>
      <trkpt lat="45.93533" lon="4.78226">
        <ele>168.4</ele>
        <time>2025-09-11T15:34:45Z</time>
      </trkpt>
      <trkpt lat="45.93528" lon="4.7823">
        <ele>168.4</ele>
        <time>2025-09-11T15:34:46Z</time>
      </trkpt>
      <trkpt lat="45.93524" lon="4.78234">
        <ele>168.4</ele>
        <time>2025-09-11T15:34:47Z</time>
      </trkpt>
      <trkpt lat="45.93519" lon="4.78238">
        <ele>168.4</ele>
        <time>2025-09-11T15:34:48Z</time>
      </trkpt>
      <trkpt lat="45.93514" lon="4.78242">
        <ele>168.6</ele>
        <time>2025-09-11T15:34:49Z</time>
      </trkpt>
      <trkpt lat="45.9351" lon="4.78248">
        <ele>168.6</ele>
        <time>2025-09-11T15:34:50Z</time>
      </trkpt>
      <trkpt lat="45.93505" lon="4.78253">
        <ele>168.6</ele>
        <time>2025-09-11T15:34:51Z</time>
      </trkpt>
      <trkpt lat="45.935" lon="4.78258">
        <ele>168.6</ele>
        <time>2025-09-11T15:34:52Z</time>
      </trkpt>
      <trkpt lat="45.93496" lon="4.78263">
        <ele>168.4</ele>
        <time>2025-09-11T15:34:53Z</time>
      </trkpt>
      <trkpt lat="45.93492" lon="4.78268">
        <ele>168.4</ele>
        <time>2025-09-11T15:34:54Z</time>
      </trkpt>
      <trkpt lat="45.93487" lon="4.78273">
        <ele>168.4</ele>
        <time>2025-09-11T15:34:55Z</time>
      </trkpt>
      <trkpt lat="45.93482" lon="4.78277">
        <ele>168.4</ele>
        <time>2025-09-11T15:34:56Z</time>
      </trkpt>
      <trkpt lat="45.93477" lon="4.78281">
        <ele>168.4</ele>
        <time>2025-09-11T15:34:57Z</time>
      </trkpt>
      <trkpt lat="45.93472" lon="4.78286">
        <ele>168.4</ele>
        <time>2025-09-11T15:34:58Z</time>
      </trkpt>
      <trkpt lat="45.93467" lon="4.78291">
        <ele>168.4</ele>
        <time>2025-09-11T15:34:59Z</time>
      </trkpt>
      <trkpt lat="45.93463" lon="4.78295">
        <ele>168</ele>
        <time>2025-09-11T15:35:00Z</time>
      </trkpt>
      <trkpt lat="45.93458" lon="4.78299">
        <ele>168</ele>
        <time>2025-09-11T15:35:01Z</time>
      </trkpt>
      <trkpt lat="45.93452" lon="4.78302">
        <ele>168</ele>
        <time>2025-09-11T15:35:02Z</time>
      </trkpt>
      <trkpt lat="45.93447" lon="4.78306">
        <ele>167.8</ele>
        <time>2025-09-11T15:35:03Z</time>
      </trkpt>
      <trkpt lat="45.93442" lon="4.78311">
        <ele>167.8</ele>
        <time>2025-09-11T15:35:04Z</time>
      </trkpt>
      <trkpt lat="45.93437" lon="4.78314">
        <ele>167.8</ele>
        <time>2025-09-11T15:35:05Z</time>
      </trkpt>
      <trkpt lat="45.93431" lon="4.78318">
        <ele>167.8</ele>
        <time>2025-09-11T15:35:06Z</time>
      </trkpt>
      <trkpt lat="45.93425" lon="4.78322">
        <ele>167.8</ele>
        <time>2025-09-11T15:35:07Z</time>
      </trkpt>
      <trkpt lat="45.93419" lon="4.78324">
        <ele>167.8</ele>
        <time>2025-09-11T15:35:08Z</time>
      </trkpt>
      <trkpt lat="45.93414" lon="4.7833">
        <ele>167.8</ele>
        <time>2025-09-11T15:35:09Z</time>
      </trkpt>
      <trkpt lat="45.93408" lon="4.78333">
        <ele>167.8</ele>
        <time>2025-09-11T15:35:10Z</time>
      </trkpt>
    </trkseg>
  </trk>
</gpx>